<?xml version="1.0" encoding="UTF-8" standalone="no" ?>
<gpx xmlns="http://www.topografix.com/GPX/1/1" xmlns:xsi="http://www.w3.org/2001/XMLSchema-instance" xsi:schemaLocation="http://www.topografix.com/GPX/1/1 http://www.topografix.com/GPX/1/1/gpx.xsd" version="1.1" creator="VisuGPX - https://www.visugpx.com">
  <metadata>
    <name>BTTAlt800-ActivitéTerminée-PostCheck_J4</name>
  </metadata>
  <trk>
    <name><![CDATA[BTTAlt800-ActivitéTerminée-PostCheck_J4_1]]></name>
    <trkseg>
      <trkpt lat="46.12832" lon="4.39587">
        <ele>714.8</ele>
        <time>2025-09-28T08:40:51Z</time>
      </trkpt>
      <trkpt lat="46.12832" lon="4.39588">
        <ele>714.8</ele>
        <time>2025-09-28T08:40:52Z</time>
      </trkpt>
      <trkpt lat="46.12832" lon="4.39588">
        <ele>714.8</ele>
        <time>2025-09-28T08:40:53Z</time>
      </trkpt>
      <trkpt lat="46.12831" lon="4.39592">
        <ele>715.4</ele>
        <time>2025-09-28T08:41:19Z</time>
      </trkpt>
      <trkpt lat="46.12831" lon="4.39595">
        <ele>715.4</ele>
        <time>2025-09-28T08:41:20Z</time>
      </trkpt>
      <trkpt lat="46.1283" lon="4.39597">
        <ele>715.4</ele>
        <time>2025-09-28T08:41:21Z</time>
      </trkpt>
      <trkpt lat="46.1283" lon="4.39599">
        <ele>715.4</ele>
        <time>2025-09-28T08:41:22Z</time>
      </trkpt>
      <trkpt lat="46.12829" lon="4.39602">
        <ele>715.4</ele>
        <time>2025-09-28T08:41:23Z</time>
      </trkpt>
      <trkpt lat="46.12828" lon="4.39605">
        <ele>715.4</ele>
        <time>2025-09-28T08:41:24Z</time>
      </trkpt>
      <trkpt lat="46.12827" lon="4.39608">
        <ele>715.4</ele>
        <time>2025-09-28T08:41:25Z</time>
      </trkpt>
      <trkpt lat="46.12826" lon="4.39611">
        <ele>715.4</ele>
        <time>2025-09-28T08:41:26Z</time>
      </trkpt>
      <trkpt lat="46.12825" lon="4.39613">
        <ele>715</ele>
        <time>2025-09-28T08:41:27Z</time>
      </trkpt>
      <trkpt lat="46.12825" lon="4.39616">
        <ele>715</ele>
        <time>2025-09-28T08:41:28Z</time>
      </trkpt>
      <trkpt lat="46.12825" lon="4.39618">
        <ele>715</ele>
        <time>2025-09-28T08:41:29Z</time>
      </trkpt>
      <trkpt lat="46.12824" lon="4.39621">
        <ele>715</ele>
        <time>2025-09-28T08:41:30Z</time>
      </trkpt>
      <trkpt lat="46.12824" lon="4.39625">
        <ele>714.8</ele>
        <time>2025-09-28T08:41:31Z</time>
      </trkpt>
      <trkpt lat="46.12824" lon="4.39627">
        <ele>714.6</ele>
        <time>2025-09-28T08:41:32Z</time>
      </trkpt>
      <trkpt lat="46.12824" lon="4.39629">
        <ele>714.6</ele>
        <time>2025-09-28T08:41:33Z</time>
      </trkpt>
      <trkpt lat="46.12824" lon="4.39632">
        <ele>714.6</ele>
        <time>2025-09-28T08:41:34Z</time>
      </trkpt>
      <trkpt lat="46.12825" lon="4.39635">
        <ele>714.2</ele>
        <time>2025-09-28T08:41:35Z</time>
      </trkpt>
      <trkpt lat="46.12825" lon="4.39639">
        <ele>714</ele>
        <time>2025-09-28T08:41:36Z</time>
      </trkpt>
      <trkpt lat="46.12825" lon="4.39642">
        <ele>713.6</ele>
        <time>2025-09-28T08:41:37Z</time>
      </trkpt>
      <trkpt lat="46.12824" lon="4.39645">
        <ele>714.2</ele>
        <time>2025-09-28T08:41:38Z</time>
      </trkpt>
      <trkpt lat="46.12823" lon="4.39649">
        <ele>714.4</ele>
        <time>2025-09-28T08:41:39Z</time>
      </trkpt>
      <trkpt lat="46.12821" lon="4.39652">
        <ele>714.4</ele>
        <time>2025-09-28T08:41:40Z</time>
      </trkpt>
      <trkpt lat="46.1282" lon="4.39655">
        <ele>714.8</ele>
        <time>2025-09-28T08:41:41Z</time>
      </trkpt>
      <trkpt lat="46.12818" lon="4.39659">
        <ele>714.8</ele>
        <time>2025-09-28T08:41:42Z</time>
      </trkpt>
      <trkpt lat="46.12817" lon="4.39663">
        <ele>714.8</ele>
        <time>2025-09-28T08:41:43Z</time>
      </trkpt>
      <trkpt lat="46.12816" lon="4.39666">
        <ele>715</ele>
        <time>2025-09-28T08:41:44Z</time>
      </trkpt>
      <trkpt lat="46.12816" lon="4.39669">
        <ele>715.2</ele>
        <time>2025-09-28T08:41:45Z</time>
      </trkpt>
      <trkpt lat="46.12817" lon="4.39672">
        <ele>715.2</ele>
        <time>2025-09-28T08:41:46Z</time>
      </trkpt>
      <trkpt lat="46.1282" lon="4.39674">
        <ele>715.2</ele>
        <time>2025-09-28T08:41:47Z</time>
      </trkpt>
      <trkpt lat="46.12822" lon="4.39675">
        <ele>715.2</ele>
        <time>2025-09-28T08:41:48Z</time>
      </trkpt>
      <trkpt lat="46.12824" lon="4.39676">
        <ele>715.4</ele>
        <time>2025-09-28T08:41:49Z</time>
      </trkpt>
      <trkpt lat="46.12826" lon="4.39677">
        <ele>715.4</ele>
        <time>2025-09-28T08:41:50Z</time>
      </trkpt>
      <trkpt lat="46.12828" lon="4.39679">
        <ele>716</ele>
        <time>2025-09-28T08:41:51Z</time>
      </trkpt>
      <trkpt lat="46.12831" lon="4.3968">
        <ele>716</ele>
        <time>2025-09-28T08:41:52Z</time>
      </trkpt>
      <trkpt lat="46.12833" lon="4.39682">
        <ele>716.4</ele>
        <time>2025-09-28T08:41:53Z</time>
      </trkpt>
      <trkpt lat="46.12835" lon="4.39684">
        <ele>716.4</ele>
        <time>2025-09-28T08:41:54Z</time>
      </trkpt>
      <trkpt lat="46.12837" lon="4.39686">
        <ele>716.6</ele>
        <time>2025-09-28T08:41:55Z</time>
      </trkpt>
      <trkpt lat="46.12839" lon="4.39687">
        <ele>717</ele>
        <time>2025-09-28T08:41:56Z</time>
      </trkpt>
      <trkpt lat="46.12842" lon="4.39689">
        <ele>717</ele>
        <time>2025-09-28T08:41:57Z</time>
      </trkpt>
      <trkpt lat="46.12844" lon="4.3969">
        <ele>717.2</ele>
        <time>2025-09-28T08:41:58Z</time>
      </trkpt>
      <trkpt lat="46.12846" lon="4.39691">
        <ele>717.2</ele>
        <time>2025-09-28T08:41:59Z</time>
      </trkpt>
      <trkpt lat="46.12848" lon="4.39692">
        <ele>717.6</ele>
        <time>2025-09-28T08:42:00Z</time>
      </trkpt>
      <trkpt lat="46.1285" lon="4.39694">
        <ele>717.6</ele>
        <time>2025-09-28T08:42:01Z</time>
      </trkpt>
      <trkpt lat="46.12851" lon="4.39696">
        <ele>717.6</ele>
        <time>2025-09-28T08:42:02Z</time>
      </trkpt>
      <trkpt lat="46.12853" lon="4.39697">
        <ele>718</ele>
        <time>2025-09-28T08:42:03Z</time>
      </trkpt>
      <trkpt lat="46.12854" lon="4.39698">
        <ele>718.2</ele>
        <time>2025-09-28T08:42:04Z</time>
      </trkpt>
      <trkpt lat="46.12855" lon="4.39699">
        <ele>718.2</ele>
        <time>2025-09-28T08:42:05Z</time>
      </trkpt>
      <trkpt lat="46.12856" lon="4.397">
        <ele>718.6</ele>
        <time>2025-09-28T08:42:06Z</time>
      </trkpt>
      <trkpt lat="46.12858" lon="4.39701">
        <ele>718.6</ele>
        <time>2025-09-28T08:42:07Z</time>
      </trkpt>
      <trkpt lat="46.12859" lon="4.39703">
        <ele>718.6</ele>
        <time>2025-09-28T08:42:08Z</time>
      </trkpt>
      <trkpt lat="46.12861" lon="4.39706">
        <ele>719</ele>
        <time>2025-09-28T08:42:09Z</time>
      </trkpt>
      <trkpt lat="46.12863" lon="4.39708">
        <ele>719</ele>
        <time>2025-09-28T08:42:10Z</time>
      </trkpt>
      <trkpt lat="46.12865" lon="4.39711">
        <ele>719</ele>
        <time>2025-09-28T08:42:11Z</time>
      </trkpt>
      <trkpt lat="46.12867" lon="4.39714">
        <ele>719.4</ele>
        <time>2025-09-28T08:42:12Z</time>
      </trkpt>
      <trkpt lat="46.12869" lon="4.39716">
        <ele>719.4</ele>
        <time>2025-09-28T08:42:13Z</time>
      </trkpt>
      <trkpt lat="46.12871" lon="4.39718">
        <ele>719.6</ele>
        <time>2025-09-28T08:42:14Z</time>
      </trkpt>
      <trkpt lat="46.12874" lon="4.39719">
        <ele>719.6</ele>
        <time>2025-09-28T08:42:15Z</time>
      </trkpt>
      <trkpt lat="46.12875" lon="4.3972">
        <ele>719.8</ele>
        <time>2025-09-28T08:42:16Z</time>
      </trkpt>
      <trkpt lat="46.12876" lon="4.39721">
        <ele>719.8</ele>
        <time>2025-09-28T08:42:17Z</time>
      </trkpt>
      <trkpt lat="46.12878" lon="4.3972">
        <ele>719.8</ele>
        <time>2025-09-28T08:42:18Z</time>
      </trkpt>
      <trkpt lat="46.12879" lon="4.39718">
        <ele>719.8</ele>
        <time>2025-09-28T08:42:19Z</time>
      </trkpt>
      <trkpt lat="46.12881" lon="4.39715">
        <ele>720.2</ele>
        <time>2025-09-28T08:42:20Z</time>
      </trkpt>
      <trkpt lat="46.12882" lon="4.39711">
        <ele>720.2</ele>
        <time>2025-09-28T08:42:21Z</time>
      </trkpt>
      <trkpt lat="46.12884" lon="4.39707">
        <ele>720.4</ele>
        <time>2025-09-28T08:42:22Z</time>
      </trkpt>
      <trkpt lat="46.12886" lon="4.39704">
        <ele>720.4</ele>
        <time>2025-09-28T08:42:23Z</time>
      </trkpt>
      <trkpt lat="46.12888" lon="4.39702">
        <ele>720.4</ele>
        <time>2025-09-28T08:42:24Z</time>
      </trkpt>
      <trkpt lat="46.1289" lon="4.39698">
        <ele>720.4</ele>
        <time>2025-09-28T08:42:25Z</time>
      </trkpt>
      <trkpt lat="46.12893" lon="4.39694">
        <ele>720.4</ele>
        <time>2025-09-28T08:42:26Z</time>
      </trkpt>
      <trkpt lat="46.12895" lon="4.39691">
        <ele>720.8</ele>
        <time>2025-09-28T08:42:27Z</time>
      </trkpt>
      <trkpt lat="46.12898" lon="4.39689">
        <ele>720.8</ele>
        <time>2025-09-28T08:42:28Z</time>
      </trkpt>
      <trkpt lat="46.12901" lon="4.39686">
        <ele>720.8</ele>
        <time>2025-09-28T08:42:29Z</time>
      </trkpt>
      <trkpt lat="46.12905" lon="4.39684">
        <ele>720.8</ele>
        <time>2025-09-28T08:42:30Z</time>
      </trkpt>
      <trkpt lat="46.12908" lon="4.39681">
        <ele>720.8</ele>
        <time>2025-09-28T08:42:31Z</time>
      </trkpt>
      <trkpt lat="46.12911" lon="4.39678">
        <ele>720.8</ele>
        <time>2025-09-28T08:42:32Z</time>
      </trkpt>
      <trkpt lat="46.12914" lon="4.39676">
        <ele>720.8</ele>
        <time>2025-09-28T08:42:33Z</time>
      </trkpt>
      <trkpt lat="46.12917" lon="4.39673">
        <ele>721.2</ele>
        <time>2025-09-28T08:42:34Z</time>
      </trkpt>
      <trkpt lat="46.1292" lon="4.39671">
        <ele>721.2</ele>
        <time>2025-09-28T08:42:35Z</time>
      </trkpt>
      <trkpt lat="46.1292" lon="4.39671">
        <ele>721.2</ele>
        <time>2025-09-28T08:42:36Z</time>
      </trkpt>
      <trkpt lat="46.1292" lon="4.39671">
        <ele>721.2</ele>
        <time>2025-09-28T08:42:37Z</time>
      </trkpt>
      <trkpt lat="46.12929" lon="4.39663">
        <ele>721.2</ele>
        <time>2025-09-28T08:42:38Z</time>
      </trkpt>
      <trkpt lat="46.12931" lon="4.39661">
        <ele>721.2</ele>
        <time>2025-09-28T08:42:39Z</time>
      </trkpt>
      <trkpt lat="46.12934" lon="4.39659">
        <ele>721.2</ele>
        <time>2025-09-28T08:42:40Z</time>
      </trkpt>
      <trkpt lat="46.12937" lon="4.39657">
        <ele>721.6</ele>
        <time>2025-09-28T08:42:41Z</time>
      </trkpt>
      <trkpt lat="46.12939" lon="4.39655">
        <ele>721.8</ele>
        <time>2025-09-28T08:42:42Z</time>
      </trkpt>
      <trkpt lat="46.12942" lon="4.39654">
        <ele>721.8</ele>
        <time>2025-09-28T08:42:43Z</time>
      </trkpt>
      <trkpt lat="46.12944" lon="4.39654">
        <ele>721.8</ele>
        <time>2025-09-28T08:42:44Z</time>
      </trkpt>
      <trkpt lat="46.12946" lon="4.39653">
        <ele>721.8</ele>
        <time>2025-09-28T08:42:45Z</time>
      </trkpt>
      <trkpt lat="46.12948" lon="4.39652">
        <ele>722</ele>
        <time>2025-09-28T08:42:46Z</time>
      </trkpt>
      <trkpt lat="46.12951" lon="4.39651">
        <ele>722</ele>
        <time>2025-09-28T08:42:47Z</time>
      </trkpt>
      <trkpt lat="46.12954" lon="4.3965">
        <ele>722.2</ele>
        <time>2025-09-28T08:42:48Z</time>
      </trkpt>
      <trkpt lat="46.12957" lon="4.39649">
        <ele>722.2</ele>
        <time>2025-09-28T08:42:49Z</time>
      </trkpt>
      <trkpt lat="46.12959" lon="4.39648">
        <ele>722.6</ele>
        <time>2025-09-28T08:42:50Z</time>
      </trkpt>
      <trkpt lat="46.12962" lon="4.39648">
        <ele>722.6</ele>
        <time>2025-09-28T08:42:51Z</time>
      </trkpt>
      <trkpt lat="46.12965" lon="4.39647">
        <ele>722.6</ele>
        <time>2025-09-28T08:42:52Z</time>
      </trkpt>
      <trkpt lat="46.12969" lon="4.39646">
        <ele>722.8</ele>
        <time>2025-09-28T08:42:53Z</time>
      </trkpt>
      <trkpt lat="46.12972" lon="4.39645">
        <ele>722.8</ele>
        <time>2025-09-28T08:42:54Z</time>
      </trkpt>
      <trkpt lat="46.12975" lon="4.39644">
        <ele>722.8</ele>
        <time>2025-09-28T08:42:55Z</time>
      </trkpt>
      <trkpt lat="46.12978" lon="4.39642">
        <ele>722.8</ele>
        <time>2025-09-28T08:42:56Z</time>
      </trkpt>
      <trkpt lat="46.12981" lon="4.39641">
        <ele>723.2</ele>
        <time>2025-09-28T08:42:57Z</time>
      </trkpt>
      <trkpt lat="46.12984" lon="4.39639">
        <ele>723.2</ele>
        <time>2025-09-28T08:42:58Z</time>
      </trkpt>
      <trkpt lat="46.12987" lon="4.39638">
        <ele>723.4</ele>
        <time>2025-09-28T08:42:59Z</time>
      </trkpt>
      <trkpt lat="46.1299" lon="4.39636">
        <ele>723.4</ele>
        <time>2025-09-28T08:43:00Z</time>
      </trkpt>
      <trkpt lat="46.12993" lon="4.39635">
        <ele>723.6</ele>
        <time>2025-09-28T08:43:01Z</time>
      </trkpt>
      <trkpt lat="46.12996" lon="4.39634">
        <ele>723.6</ele>
        <time>2025-09-28T08:43:02Z</time>
      </trkpt>
      <trkpt lat="46.12999" lon="4.39633">
        <ele>723.6</ele>
        <time>2025-09-28T08:43:03Z</time>
      </trkpt>
      <trkpt lat="46.13002" lon="4.39633">
        <ele>724</ele>
        <time>2025-09-28T08:43:04Z</time>
      </trkpt>
      <trkpt lat="46.13005" lon="4.39633">
        <ele>724</ele>
        <time>2025-09-28T08:43:05Z</time>
      </trkpt>
      <trkpt lat="46.13008" lon="4.39632">
        <ele>724</ele>
        <time>2025-09-28T08:43:06Z</time>
      </trkpt>
      <trkpt lat="46.13011" lon="4.39631">
        <ele>724</ele>
        <time>2025-09-28T08:43:07Z</time>
      </trkpt>
      <trkpt lat="46.13014" lon="4.39629">
        <ele>724</ele>
        <time>2025-09-28T08:43:08Z</time>
      </trkpt>
      <trkpt lat="46.13017" lon="4.39628">
        <ele>724.2</ele>
        <time>2025-09-28T08:43:09Z</time>
      </trkpt>
      <trkpt lat="46.1302" lon="4.39627">
        <ele>724.2</ele>
        <time>2025-09-28T08:43:10Z</time>
      </trkpt>
      <trkpt lat="46.13024" lon="4.39626">
        <ele>724.8</ele>
        <time>2025-09-28T08:43:11Z</time>
      </trkpt>
      <trkpt lat="46.13026" lon="4.39625">
        <ele>724.8</ele>
        <time>2025-09-28T08:43:12Z</time>
      </trkpt>
      <trkpt lat="46.13029" lon="4.39623">
        <ele>725</ele>
        <time>2025-09-28T08:43:13Z</time>
      </trkpt>
      <trkpt lat="46.13032" lon="4.39622">
        <ele>725</ele>
        <time>2025-09-28T08:43:14Z</time>
      </trkpt>
      <trkpt lat="46.13036" lon="4.39621">
        <ele>725.2</ele>
        <time>2025-09-28T08:43:15Z</time>
      </trkpt>
      <trkpt lat="46.13038" lon="4.39621">
        <ele>725.2</ele>
        <time>2025-09-28T08:43:16Z</time>
      </trkpt>
      <trkpt lat="46.13041" lon="4.3962">
        <ele>725.6</ele>
        <time>2025-09-28T08:43:17Z</time>
      </trkpt>
      <trkpt lat="46.13045" lon="4.39619">
        <ele>725.6</ele>
        <time>2025-09-28T08:43:18Z</time>
      </trkpt>
      <trkpt lat="46.13048" lon="4.39618">
        <ele>725.6</ele>
        <time>2025-09-28T08:43:19Z</time>
      </trkpt>
      <trkpt lat="46.13051" lon="4.39617">
        <ele>725.8</ele>
        <time>2025-09-28T08:43:20Z</time>
      </trkpt>
      <trkpt lat="46.13054" lon="4.39616">
        <ele>725.8</ele>
        <time>2025-09-28T08:43:21Z</time>
      </trkpt>
      <trkpt lat="46.13057" lon="4.39615">
        <ele>726</ele>
        <time>2025-09-28T08:43:22Z</time>
      </trkpt>
      <trkpt lat="46.1306" lon="4.39613">
        <ele>726.2</ele>
        <time>2025-09-28T08:43:23Z</time>
      </trkpt>
      <trkpt lat="46.13063" lon="4.39612">
        <ele>726.2</ele>
        <time>2025-09-28T08:43:24Z</time>
      </trkpt>
      <trkpt lat="46.13067" lon="4.3961">
        <ele>726.2</ele>
        <time>2025-09-28T08:43:25Z</time>
      </trkpt>
      <trkpt lat="46.1307" lon="4.39609">
        <ele>726.6</ele>
        <time>2025-09-28T08:43:26Z</time>
      </trkpt>
      <trkpt lat="46.13074" lon="4.39608">
        <ele>726.6</ele>
        <time>2025-09-28T08:43:27Z</time>
      </trkpt>
      <trkpt lat="46.13077" lon="4.39606">
        <ele>727</ele>
        <time>2025-09-28T08:43:28Z</time>
      </trkpt>
      <trkpt lat="46.13079" lon="4.39605">
        <ele>727</ele>
        <time>2025-09-28T08:43:29Z</time>
      </trkpt>
      <trkpt lat="46.13082" lon="4.39602">
        <ele>727</ele>
        <time>2025-09-28T08:43:30Z</time>
      </trkpt>
      <trkpt lat="46.13085" lon="4.396">
        <ele>727</ele>
        <time>2025-09-28T08:43:31Z</time>
      </trkpt>
      <trkpt lat="46.13088" lon="4.39598">
        <ele>727.4</ele>
        <time>2025-09-28T08:43:32Z</time>
      </trkpt>
      <trkpt lat="46.1309" lon="4.39595">
        <ele>727.4</ele>
        <time>2025-09-28T08:43:33Z</time>
      </trkpt>
      <trkpt lat="46.13093" lon="4.39593">
        <ele>727.6</ele>
        <time>2025-09-28T08:43:34Z</time>
      </trkpt>
      <trkpt lat="46.13095" lon="4.39591">
        <ele>727.6</ele>
        <time>2025-09-28T08:43:35Z</time>
      </trkpt>
      <trkpt lat="46.13097" lon="4.39589">
        <ele>727.6</ele>
        <time>2025-09-28T08:43:36Z</time>
      </trkpt>
      <trkpt lat="46.13099" lon="4.39586">
        <ele>728</ele>
        <time>2025-09-28T08:43:37Z</time>
      </trkpt>
      <trkpt lat="46.13101" lon="4.39583">
        <ele>728</ele>
        <time>2025-09-28T08:43:38Z</time>
      </trkpt>
      <trkpt lat="46.13103" lon="4.39581">
        <ele>728.2</ele>
        <time>2025-09-28T08:43:39Z</time>
      </trkpt>
      <trkpt lat="46.13105" lon="4.39578">
        <ele>728.4</ele>
        <time>2025-09-28T08:43:40Z</time>
      </trkpt>
      <trkpt lat="46.13107" lon="4.39575">
        <ele>728.4</ele>
        <time>2025-09-28T08:43:41Z</time>
      </trkpt>
      <trkpt lat="46.13109" lon="4.39572">
        <ele>728</ele>
        <time>2025-09-28T08:43:42Z</time>
      </trkpt>
      <trkpt lat="46.13111" lon="4.39569">
        <ele>728.4</ele>
        <time>2025-09-28T08:43:43Z</time>
      </trkpt>
      <trkpt lat="46.13114" lon="4.39567">
        <ele>728.8</ele>
        <time>2025-09-28T08:43:44Z</time>
      </trkpt>
      <trkpt lat="46.13116" lon="4.39564">
        <ele>728.8</ele>
        <time>2025-09-28T08:43:45Z</time>
      </trkpt>
      <trkpt lat="46.13118" lon="4.39561">
        <ele>729.2</ele>
        <time>2025-09-28T08:43:46Z</time>
      </trkpt>
      <trkpt lat="46.13121" lon="4.39558">
        <ele>729.2</ele>
        <time>2025-09-28T08:43:47Z</time>
      </trkpt>
      <trkpt lat="46.13124" lon="4.39555">
        <ele>729.6</ele>
        <time>2025-09-28T08:43:48Z</time>
      </trkpt>
      <trkpt lat="46.13126" lon="4.39552">
        <ele>729.6</ele>
        <time>2025-09-28T08:43:49Z</time>
      </trkpt>
      <trkpt lat="46.13129" lon="4.39549">
        <ele>729.6</ele>
        <time>2025-09-28T08:43:50Z</time>
      </trkpt>
      <trkpt lat="46.13131" lon="4.39546">
        <ele>729.8</ele>
        <time>2025-09-28T08:43:51Z</time>
      </trkpt>
      <trkpt lat="46.13134" lon="4.39542">
        <ele>729.8</ele>
        <time>2025-09-28T08:43:52Z</time>
      </trkpt>
      <trkpt lat="46.13137" lon="4.39539">
        <ele>730.2</ele>
        <time>2025-09-28T08:43:53Z</time>
      </trkpt>
      <trkpt lat="46.13139" lon="4.39536">
        <ele>730.4</ele>
        <time>2025-09-28T08:43:54Z</time>
      </trkpt>
      <trkpt lat="46.13142" lon="4.39532">
        <ele>730.4</ele>
        <time>2025-09-28T08:43:55Z</time>
      </trkpt>
      <trkpt lat="46.13144" lon="4.39529">
        <ele>730.8</ele>
        <time>2025-09-28T08:43:56Z</time>
      </trkpt>
      <trkpt lat="46.13147" lon="4.39526">
        <ele>730.8</ele>
        <time>2025-09-28T08:43:57Z</time>
      </trkpt>
      <trkpt lat="46.13149" lon="4.39523">
        <ele>731</ele>
        <time>2025-09-28T08:43:58Z</time>
      </trkpt>
      <trkpt lat="46.13152" lon="4.3952">
        <ele>731.2</ele>
        <time>2025-09-28T08:43:59Z</time>
      </trkpt>
      <trkpt lat="46.13154" lon="4.39518">
        <ele>731.2</ele>
        <time>2025-09-28T08:44:00Z</time>
      </trkpt>
      <trkpt lat="46.13157" lon="4.39515">
        <ele>731.2</ele>
        <time>2025-09-28T08:44:01Z</time>
      </trkpt>
      <trkpt lat="46.1316" lon="4.39512">
        <ele>731.4</ele>
        <time>2025-09-28T08:44:02Z</time>
      </trkpt>
      <trkpt lat="46.13163" lon="4.39509">
        <ele>731.2</ele>
        <time>2025-09-28T08:44:03Z</time>
      </trkpt>
      <trkpt lat="46.13166" lon="4.39507">
        <ele>731.8</ele>
        <time>2025-09-28T08:44:04Z</time>
      </trkpt>
      <trkpt lat="46.13168" lon="4.39505">
        <ele>731.8</ele>
        <time>2025-09-28T08:44:05Z</time>
      </trkpt>
      <trkpt lat="46.13171" lon="4.39502">
        <ele>731.8</ele>
        <time>2025-09-28T08:44:06Z</time>
      </trkpt>
      <trkpt lat="46.13174" lon="4.395">
        <ele>731.8</ele>
        <time>2025-09-28T08:44:07Z</time>
      </trkpt>
      <trkpt lat="46.13177" lon="4.39498">
        <ele>732.2</ele>
        <time>2025-09-28T08:44:08Z</time>
      </trkpt>
      <trkpt lat="46.1318" lon="4.39495">
        <ele>732.4</ele>
        <time>2025-09-28T08:44:09Z</time>
      </trkpt>
      <trkpt lat="46.13183" lon="4.39493">
        <ele>732.4</ele>
        <time>2025-09-28T08:44:10Z</time>
      </trkpt>
      <trkpt lat="46.13186" lon="4.39491">
        <ele>732.8</ele>
        <time>2025-09-28T08:44:11Z</time>
      </trkpt>
      <trkpt lat="46.13189" lon="4.3949">
        <ele>732.8</ele>
        <time>2025-09-28T08:44:12Z</time>
      </trkpt>
      <trkpt lat="46.13192" lon="4.39488">
        <ele>733.2</ele>
        <time>2025-09-28T08:44:13Z</time>
      </trkpt>
      <trkpt lat="46.13194" lon="4.39487">
        <ele>733.2</ele>
        <time>2025-09-28T08:44:14Z</time>
      </trkpt>
      <trkpt lat="46.13197" lon="4.39486">
        <ele>733.4</ele>
        <time>2025-09-28T08:44:15Z</time>
      </trkpt>
      <trkpt lat="46.132" lon="4.39485">
        <ele>733.4</ele>
        <time>2025-09-28T08:44:16Z</time>
      </trkpt>
      <trkpt lat="46.13203" lon="4.39484">
        <ele>733.6</ele>
        <time>2025-09-28T08:44:17Z</time>
      </trkpt>
      <trkpt lat="46.13206" lon="4.39483">
        <ele>733.6</ele>
        <time>2025-09-28T08:44:18Z</time>
      </trkpt>
      <trkpt lat="46.13209" lon="4.39481">
        <ele>733.6</ele>
        <time>2025-09-28T08:44:19Z</time>
      </trkpt>
      <trkpt lat="46.13212" lon="4.3948">
        <ele>734</ele>
        <time>2025-09-28T08:44:20Z</time>
      </trkpt>
      <trkpt lat="46.13215" lon="4.39479">
        <ele>734</ele>
        <time>2025-09-28T08:44:21Z</time>
      </trkpt>
      <trkpt lat="46.13218" lon="4.39477">
        <ele>734</ele>
        <time>2025-09-28T08:44:22Z</time>
      </trkpt>
      <trkpt lat="46.13221" lon="4.39476">
        <ele>734.4</ele>
        <time>2025-09-28T08:44:23Z</time>
      </trkpt>
      <trkpt lat="46.13224" lon="4.39475">
        <ele>734.4</ele>
        <time>2025-09-28T08:44:24Z</time>
      </trkpt>
      <trkpt lat="46.13228" lon="4.39474">
        <ele>734.6</ele>
        <time>2025-09-28T08:44:25Z</time>
      </trkpt>
      <trkpt lat="46.13231" lon="4.39473">
        <ele>734.8</ele>
        <time>2025-09-28T08:44:26Z</time>
      </trkpt>
      <trkpt lat="46.13234" lon="4.39472">
        <ele>734.8</ele>
        <time>2025-09-28T08:44:27Z</time>
      </trkpt>
      <trkpt lat="46.13237" lon="4.39471">
        <ele>735.2</ele>
        <time>2025-09-28T08:44:28Z</time>
      </trkpt>
      <trkpt lat="46.13241" lon="4.39471">
        <ele>735.2</ele>
        <time>2025-09-28T08:44:29Z</time>
      </trkpt>
      <trkpt lat="46.13244" lon="4.3947">
        <ele>735.4</ele>
        <time>2025-09-28T08:44:30Z</time>
      </trkpt>
      <trkpt lat="46.13247" lon="4.3947">
        <ele>735.4</ele>
        <time>2025-09-28T08:44:31Z</time>
      </trkpt>
      <trkpt lat="46.1325" lon="4.39469">
        <ele>735.4</ele>
        <time>2025-09-28T08:44:32Z</time>
      </trkpt>
      <trkpt lat="46.13253" lon="4.39469">
        <ele>735.6</ele>
        <time>2025-09-28T08:44:33Z</time>
      </trkpt>
      <trkpt lat="46.13256" lon="4.3947">
        <ele>735.6</ele>
        <time>2025-09-28T08:44:34Z</time>
      </trkpt>
      <trkpt lat="46.13259" lon="4.39471">
        <ele>736</ele>
        <time>2025-09-28T08:44:35Z</time>
      </trkpt>
      <trkpt lat="46.13262" lon="4.39472">
        <ele>736.2</ele>
        <time>2025-09-28T08:44:36Z</time>
      </trkpt>
      <trkpt lat="46.13264" lon="4.39474">
        <ele>736.4</ele>
        <time>2025-09-28T08:44:37Z</time>
      </trkpt>
      <trkpt lat="46.13266" lon="4.39476">
        <ele>736.8</ele>
        <time>2025-09-28T08:44:38Z</time>
      </trkpt>
      <trkpt lat="46.13268" lon="4.39478">
        <ele>736.8</ele>
        <time>2025-09-28T08:44:39Z</time>
      </trkpt>
      <trkpt lat="46.13269" lon="4.3948">
        <ele>737.4</ele>
        <time>2025-09-28T08:44:40Z</time>
      </trkpt>
      <trkpt lat="46.13271" lon="4.39482">
        <ele>737.8</ele>
        <time>2025-09-28T08:44:41Z</time>
      </trkpt>
      <trkpt lat="46.13272" lon="4.39483">
        <ele>738.2</ele>
        <time>2025-09-28T08:44:42Z</time>
      </trkpt>
      <trkpt lat="46.13274" lon="4.39485">
        <ele>738.4</ele>
        <time>2025-09-28T08:44:43Z</time>
      </trkpt>
      <trkpt lat="46.13276" lon="4.39486">
        <ele>738.6</ele>
        <time>2025-09-28T08:44:44Z</time>
      </trkpt>
      <trkpt lat="46.13277" lon="4.39488">
        <ele>739.2</ele>
        <time>2025-09-28T08:44:45Z</time>
      </trkpt>
      <trkpt lat="46.13279" lon="4.3949">
        <ele>739.8</ele>
        <time>2025-09-28T08:44:46Z</time>
      </trkpt>
      <trkpt lat="46.1328" lon="4.39491">
        <ele>739.8</ele>
        <time>2025-09-28T08:44:47Z</time>
      </trkpt>
      <trkpt lat="46.13281" lon="4.39493">
        <ele>739.8</ele>
        <time>2025-09-28T08:44:48Z</time>
      </trkpt>
      <trkpt lat="46.13282" lon="4.39495">
        <ele>740</ele>
        <time>2025-09-28T08:44:49Z</time>
      </trkpt>
      <trkpt lat="46.13284" lon="4.39496">
        <ele>740.2</ele>
        <time>2025-09-28T08:44:50Z</time>
      </trkpt>
      <trkpt lat="46.13285" lon="4.39498">
        <ele>740.2</ele>
        <time>2025-09-28T08:44:51Z</time>
      </trkpt>
      <trkpt lat="46.13287" lon="4.395">
        <ele>740.2</ele>
        <time>2025-09-28T08:44:52Z</time>
      </trkpt>
      <trkpt lat="46.13288" lon="4.39502">
        <ele>741</ele>
        <time>2025-09-28T08:44:53Z</time>
      </trkpt>
      <trkpt lat="46.13289" lon="4.39503">
        <ele>741</ele>
        <time>2025-09-28T08:44:54Z</time>
      </trkpt>
      <trkpt lat="46.13291" lon="4.39504">
        <ele>741</ele>
        <time>2025-09-28T08:44:55Z</time>
      </trkpt>
      <trkpt lat="46.13292" lon="4.39506">
        <ele>741.4</ele>
        <time>2025-09-28T08:44:56Z</time>
      </trkpt>
      <trkpt lat="46.13294" lon="4.39507">
        <ele>741.6</ele>
        <time>2025-09-28T08:44:57Z</time>
      </trkpt>
      <trkpt lat="46.13296" lon="4.39509">
        <ele>741.6</ele>
        <time>2025-09-28T08:44:58Z</time>
      </trkpt>
      <trkpt lat="46.13297" lon="4.39511">
        <ele>742</ele>
        <time>2025-09-28T08:44:59Z</time>
      </trkpt>
      <trkpt lat="46.13299" lon="4.39512">
        <ele>742</ele>
        <time>2025-09-28T08:45:00Z</time>
      </trkpt>
      <trkpt lat="46.133" lon="4.39514">
        <ele>742.2</ele>
        <time>2025-09-28T08:45:01Z</time>
      </trkpt>
      <trkpt lat="46.13302" lon="4.39515">
        <ele>742.2</ele>
        <time>2025-09-28T08:45:02Z</time>
      </trkpt>
      <trkpt lat="46.13303" lon="4.39516">
        <ele>742.6</ele>
        <time>2025-09-28T08:45:03Z</time>
      </trkpt>
      <trkpt lat="46.13305" lon="4.39518">
        <ele>742.6</ele>
        <time>2025-09-28T08:45:04Z</time>
      </trkpt>
      <trkpt lat="46.13306" lon="4.39519">
        <ele>742.6</ele>
        <time>2025-09-28T08:45:05Z</time>
      </trkpt>
      <trkpt lat="46.13307" lon="4.39521">
        <ele>742.8</ele>
        <time>2025-09-28T08:45:06Z</time>
      </trkpt>
      <trkpt lat="46.13309" lon="4.39523">
        <ele>742.8</ele>
        <time>2025-09-28T08:45:07Z</time>
      </trkpt>
      <trkpt lat="46.1331" lon="4.39525">
        <ele>743.2</ele>
        <time>2025-09-28T08:45:08Z</time>
      </trkpt>
      <trkpt lat="46.13311" lon="4.39527">
        <ele>743.4</ele>
        <time>2025-09-28T08:45:09Z</time>
      </trkpt>
      <trkpt lat="46.13312" lon="4.39529">
        <ele>743.8</ele>
        <time>2025-09-28T08:45:10Z</time>
      </trkpt>
      <trkpt lat="46.13314" lon="4.3953">
        <ele>743.8</ele>
        <time>2025-09-28T08:45:11Z</time>
      </trkpt>
      <trkpt lat="46.13315" lon="4.39532">
        <ele>744</ele>
        <time>2025-09-28T08:45:12Z</time>
      </trkpt>
      <trkpt lat="46.13317" lon="4.39533">
        <ele>744.4</ele>
        <time>2025-09-28T08:45:13Z</time>
      </trkpt>
      <trkpt lat="46.13318" lon="4.39534">
        <ele>744.4</ele>
        <time>2025-09-28T08:45:14Z</time>
      </trkpt>
      <trkpt lat="46.1332" lon="4.39536">
        <ele>744.8</ele>
        <time>2025-09-28T08:45:15Z</time>
      </trkpt>
      <trkpt lat="46.13321" lon="4.39538">
        <ele>745</ele>
        <time>2025-09-28T08:45:16Z</time>
      </trkpt>
      <trkpt lat="46.13322" lon="4.3954">
        <ele>745</ele>
        <time>2025-09-28T08:45:17Z</time>
      </trkpt>
      <trkpt lat="46.13323" lon="4.39541">
        <ele>745.4</ele>
        <time>2025-09-28T08:45:18Z</time>
      </trkpt>
      <trkpt lat="46.13325" lon="4.39543">
        <ele>745.4</ele>
        <time>2025-09-28T08:45:19Z</time>
      </trkpt>
      <trkpt lat="46.13326" lon="4.39544">
        <ele>745.6</ele>
        <time>2025-09-28T08:45:20Z</time>
      </trkpt>
      <trkpt lat="46.13327" lon="4.39545">
        <ele>745.8</ele>
        <time>2025-09-28T08:45:21Z</time>
      </trkpt>
      <trkpt lat="46.13329" lon="4.39546">
        <ele>746.2</ele>
        <time>2025-09-28T08:45:22Z</time>
      </trkpt>
      <trkpt lat="46.1333" lon="4.39547">
        <ele>746.4</ele>
        <time>2025-09-28T08:45:23Z</time>
      </trkpt>
      <trkpt lat="46.13332" lon="4.39548">
        <ele>746.6</ele>
        <time>2025-09-28T08:45:24Z</time>
      </trkpt>
      <trkpt lat="46.13334" lon="4.39549">
        <ele>747</ele>
        <time>2025-09-28T08:45:25Z</time>
      </trkpt>
      <trkpt lat="46.13335" lon="4.3955">
        <ele>747</ele>
        <time>2025-09-28T08:45:26Z</time>
      </trkpt>
      <trkpt lat="46.13336" lon="4.39552">
        <ele>747.4</ele>
        <time>2025-09-28T08:45:27Z</time>
      </trkpt>
      <trkpt lat="46.13337" lon="4.39554">
        <ele>747.8</ele>
        <time>2025-09-28T08:45:28Z</time>
      </trkpt>
      <trkpt lat="46.13338" lon="4.39556">
        <ele>747.8</ele>
        <time>2025-09-28T08:45:29Z</time>
      </trkpt>
      <trkpt lat="46.13339" lon="4.39557">
        <ele>747.8</ele>
        <time>2025-09-28T08:45:30Z</time>
      </trkpt>
      <trkpt lat="46.1334" lon="4.39559">
        <ele>748.2</ele>
        <time>2025-09-28T08:45:31Z</time>
      </trkpt>
      <trkpt lat="46.13342" lon="4.3956">
        <ele>748.2</ele>
        <time>2025-09-28T08:45:32Z</time>
      </trkpt>
      <trkpt lat="46.13344" lon="4.39561">
        <ele>748.6</ele>
        <time>2025-09-28T08:45:33Z</time>
      </trkpt>
      <trkpt lat="46.13345" lon="4.39563">
        <ele>749</ele>
        <time>2025-09-28T08:45:34Z</time>
      </trkpt>
      <trkpt lat="46.13347" lon="4.39564">
        <ele>749</ele>
        <time>2025-09-28T08:45:35Z</time>
      </trkpt>
      <trkpt lat="46.13348" lon="4.39566">
        <ele>749.2</ele>
        <time>2025-09-28T08:45:36Z</time>
      </trkpt>
      <trkpt lat="46.13349" lon="4.39568">
        <ele>749.2</ele>
        <time>2025-09-28T08:45:37Z</time>
      </trkpt>
      <trkpt lat="46.1335" lon="4.3957">
        <ele>749.4</ele>
        <time>2025-09-28T08:45:38Z</time>
      </trkpt>
      <trkpt lat="46.13351" lon="4.39572">
        <ele>749.4</ele>
        <time>2025-09-28T08:45:39Z</time>
      </trkpt>
      <trkpt lat="46.13353" lon="4.39573">
        <ele>750</ele>
        <time>2025-09-28T08:45:40Z</time>
      </trkpt>
      <trkpt lat="46.13354" lon="4.39574">
        <ele>750</ele>
        <time>2025-09-28T08:45:41Z</time>
      </trkpt>
      <trkpt lat="46.13356" lon="4.39575">
        <ele>750.2</ele>
        <time>2025-09-28T08:45:42Z</time>
      </trkpt>
      <trkpt lat="46.13358" lon="4.39576">
        <ele>750.2</ele>
        <time>2025-09-28T08:45:43Z</time>
      </trkpt>
      <trkpt lat="46.13359" lon="4.39578">
        <ele>750.6</ele>
        <time>2025-09-28T08:45:44Z</time>
      </trkpt>
      <trkpt lat="46.13361" lon="4.3958">
        <ele>751</ele>
        <time>2025-09-28T08:45:45Z</time>
      </trkpt>
      <trkpt lat="46.13362" lon="4.39581">
        <ele>751</ele>
        <time>2025-09-28T08:45:46Z</time>
      </trkpt>
      <trkpt lat="46.13363" lon="4.39583">
        <ele>751.4</ele>
        <time>2025-09-28T08:45:47Z</time>
      </trkpt>
      <trkpt lat="46.13364" lon="4.39584">
        <ele>751.4</ele>
        <time>2025-09-28T08:45:48Z</time>
      </trkpt>
      <trkpt lat="46.13365" lon="4.39585">
        <ele>751.8</ele>
        <time>2025-09-28T08:45:49Z</time>
      </trkpt>
      <trkpt lat="46.13367" lon="4.39587">
        <ele>751.8</ele>
        <time>2025-09-28T08:45:50Z</time>
      </trkpt>
      <trkpt lat="46.13368" lon="4.39589">
        <ele>752.2</ele>
        <time>2025-09-28T08:45:51Z</time>
      </trkpt>
      <trkpt lat="46.1337" lon="4.39591">
        <ele>752.2</ele>
        <time>2025-09-28T08:45:52Z</time>
      </trkpt>
      <trkpt lat="46.13371" lon="4.39593">
        <ele>752.2</ele>
        <time>2025-09-28T08:45:53Z</time>
      </trkpt>
      <trkpt lat="46.13372" lon="4.39594">
        <ele>752.6</ele>
        <time>2025-09-28T08:45:54Z</time>
      </trkpt>
      <trkpt lat="46.13374" lon="4.39596">
        <ele>752.6</ele>
        <time>2025-09-28T08:45:55Z</time>
      </trkpt>
      <trkpt lat="46.13376" lon="4.39597">
        <ele>753</ele>
        <time>2025-09-28T08:45:56Z</time>
      </trkpt>
      <trkpt lat="46.13377" lon="4.39598">
        <ele>753</ele>
        <time>2025-09-28T08:45:57Z</time>
      </trkpt>
      <trkpt lat="46.13379" lon="4.396">
        <ele>753.2</ele>
        <time>2025-09-28T08:45:58Z</time>
      </trkpt>
      <trkpt lat="46.13381" lon="4.39601">
        <ele>753.2</ele>
        <time>2025-09-28T08:45:59Z</time>
      </trkpt>
      <trkpt lat="46.13382" lon="4.39602">
        <ele>753.2</ele>
        <time>2025-09-28T08:46:00Z</time>
      </trkpt>
      <trkpt lat="46.13384" lon="4.39603">
        <ele>753.4</ele>
        <time>2025-09-28T08:46:01Z</time>
      </trkpt>
      <trkpt lat="46.13386" lon="4.39604">
        <ele>753.8</ele>
        <time>2025-09-28T08:46:02Z</time>
      </trkpt>
      <trkpt lat="46.13388" lon="4.39605">
        <ele>753.8</ele>
        <time>2025-09-28T08:46:03Z</time>
      </trkpt>
      <trkpt lat="46.13389" lon="4.39606">
        <ele>754</ele>
        <time>2025-09-28T08:46:04Z</time>
      </trkpt>
      <trkpt lat="46.13391" lon="4.39607">
        <ele>754</ele>
        <time>2025-09-28T08:46:05Z</time>
      </trkpt>
      <trkpt lat="46.13393" lon="4.39609">
        <ele>754.4</ele>
        <time>2025-09-28T08:46:06Z</time>
      </trkpt>
      <trkpt lat="46.13395" lon="4.3961">
        <ele>754.4</ele>
        <time>2025-09-28T08:46:07Z</time>
      </trkpt>
      <trkpt lat="46.13397" lon="4.39611">
        <ele>754.4</ele>
        <time>2025-09-28T08:46:08Z</time>
      </trkpt>
      <trkpt lat="46.13399" lon="4.39613">
        <ele>754.6</ele>
        <time>2025-09-28T08:46:09Z</time>
      </trkpt>
      <trkpt lat="46.134" lon="4.39614">
        <ele>754.6</ele>
        <time>2025-09-28T08:46:10Z</time>
      </trkpt>
      <trkpt lat="46.13402" lon="4.39616">
        <ele>754.8</ele>
        <time>2025-09-28T08:46:11Z</time>
      </trkpt>
      <trkpt lat="46.13403" lon="4.39617">
        <ele>755.2</ele>
        <time>2025-09-28T08:46:12Z</time>
      </trkpt>
      <trkpt lat="46.13405" lon="4.39618">
        <ele>755.2</ele>
        <time>2025-09-28T08:46:13Z</time>
      </trkpt>
      <trkpt lat="46.13406" lon="4.39619">
        <ele>755.4</ele>
        <time>2025-09-28T08:46:14Z</time>
      </trkpt>
      <trkpt lat="46.13407" lon="4.3962">
        <ele>755.4</ele>
        <time>2025-09-28T08:46:15Z</time>
      </trkpt>
      <trkpt lat="46.13408" lon="4.39621">
        <ele>755.4</ele>
        <time>2025-09-28T08:46:16Z</time>
      </trkpt>
      <trkpt lat="46.13409" lon="4.39622">
        <ele>755.4</ele>
        <time>2025-09-28T08:46:17Z</time>
      </trkpt>
      <trkpt lat="46.13409" lon="4.39623">
        <ele>755.4</ele>
        <time>2025-09-28T08:46:18Z</time>
      </trkpt>
      <trkpt lat="46.13409" lon="4.39624">
        <ele>755.8</ele>
        <time>2025-09-28T08:46:19Z</time>
      </trkpt>
      <trkpt lat="46.13409" lon="4.39624">
        <ele>755.8</ele>
        <time>2025-09-28T08:46:20Z</time>
      </trkpt>
      <trkpt lat="46.13409" lon="4.39625">
        <ele>755.8</ele>
        <time>2025-09-28T08:46:21Z</time>
      </trkpt>
      <trkpt lat="46.13411" lon="4.39623">
        <ele>757.2</ele>
        <time>2025-09-28T08:50:45Z</time>
      </trkpt>
      <trkpt lat="46.13413" lon="4.39624">
        <ele>757.2</ele>
        <time>2025-09-28T08:50:46Z</time>
      </trkpt>
      <trkpt lat="46.13414" lon="4.39626">
        <ele>757.2</ele>
        <time>2025-09-28T08:50:47Z</time>
      </trkpt>
      <trkpt lat="46.13415" lon="4.39628">
        <ele>757</ele>
        <time>2025-09-28T08:50:48Z</time>
      </trkpt>
      <trkpt lat="46.13417" lon="4.3963">
        <ele>757</ele>
        <time>2025-09-28T08:50:49Z</time>
      </trkpt>
      <trkpt lat="46.13419" lon="4.39632">
        <ele>757</ele>
        <time>2025-09-28T08:50:50Z</time>
      </trkpt>
      <trkpt lat="46.13421" lon="4.39633">
        <ele>756.6</ele>
        <time>2025-09-28T08:50:51Z</time>
      </trkpt>
      <trkpt lat="46.13423" lon="4.39635">
        <ele>757</ele>
        <time>2025-09-28T08:50:52Z</time>
      </trkpt>
      <trkpt lat="46.13426" lon="4.39637">
        <ele>757</ele>
        <time>2025-09-28T08:50:53Z</time>
      </trkpt>
      <trkpt lat="46.13428" lon="4.39638">
        <ele>757.2</ele>
        <time>2025-09-28T08:50:54Z</time>
      </trkpt>
      <trkpt lat="46.1343" lon="4.39639">
        <ele>757.2</ele>
        <time>2025-09-28T08:50:55Z</time>
      </trkpt>
      <trkpt lat="46.13432" lon="4.39639">
        <ele>757.6</ele>
        <time>2025-09-28T08:50:56Z</time>
      </trkpt>
      <trkpt lat="46.13435" lon="4.3964">
        <ele>757.8</ele>
        <time>2025-09-28T08:50:57Z</time>
      </trkpt>
      <trkpt lat="46.13438" lon="4.3964">
        <ele>757.8</ele>
        <time>2025-09-28T08:50:58Z</time>
      </trkpt>
      <trkpt lat="46.1344" lon="4.39641">
        <ele>757.8</ele>
        <time>2025-09-28T08:50:59Z</time>
      </trkpt>
      <trkpt lat="46.13443" lon="4.39643">
        <ele>757.6</ele>
        <time>2025-09-28T08:51:00Z</time>
      </trkpt>
      <trkpt lat="46.13446" lon="4.39644">
        <ele>757.6</ele>
        <time>2025-09-28T08:51:01Z</time>
      </trkpt>
      <trkpt lat="46.13448" lon="4.39646">
        <ele>758</ele>
        <time>2025-09-28T08:51:02Z</time>
      </trkpt>
      <trkpt lat="46.13451" lon="4.39648">
        <ele>758.2</ele>
        <time>2025-09-28T08:51:03Z</time>
      </trkpt>
      <trkpt lat="46.13453" lon="4.39649">
        <ele>758.2</ele>
        <time>2025-09-28T08:51:04Z</time>
      </trkpt>
      <trkpt lat="46.13456" lon="4.3965">
        <ele>758.2</ele>
        <time>2025-09-28T08:51:05Z</time>
      </trkpt>
      <trkpt lat="46.13459" lon="4.39651">
        <ele>758.4</ele>
        <time>2025-09-28T08:51:06Z</time>
      </trkpt>
      <trkpt lat="46.13462" lon="4.39652">
        <ele>758.4</ele>
        <time>2025-09-28T08:51:07Z</time>
      </trkpt>
      <trkpt lat="46.13465" lon="4.39654">
        <ele>758.4</ele>
        <time>2025-09-28T08:51:08Z</time>
      </trkpt>
      <trkpt lat="46.13468" lon="4.39655">
        <ele>758.4</ele>
        <time>2025-09-28T08:51:09Z</time>
      </trkpt>
      <trkpt lat="46.13471" lon="4.39656">
        <ele>758.4</ele>
        <time>2025-09-28T08:51:10Z</time>
      </trkpt>
      <trkpt lat="46.13474" lon="4.39658">
        <ele>758.4</ele>
        <time>2025-09-28T08:51:11Z</time>
      </trkpt>
      <trkpt lat="46.13477" lon="4.39659">
        <ele>758.6</ele>
        <time>2025-09-28T08:51:12Z</time>
      </trkpt>
      <trkpt lat="46.13479" lon="4.39661">
        <ele>758.6</ele>
        <time>2025-09-28T08:51:13Z</time>
      </trkpt>
      <trkpt lat="46.13482" lon="4.39663">
        <ele>759</ele>
        <time>2025-09-28T08:51:14Z</time>
      </trkpt>
      <trkpt lat="46.13485" lon="4.39665">
        <ele>759</ele>
        <time>2025-09-28T08:51:15Z</time>
      </trkpt>
      <trkpt lat="46.13488" lon="4.39666">
        <ele>759.4</ele>
        <time>2025-09-28T08:51:16Z</time>
      </trkpt>
      <trkpt lat="46.13492" lon="4.39667">
        <ele>759.4</ele>
        <time>2025-09-28T08:51:17Z</time>
      </trkpt>
      <trkpt lat="46.13494" lon="4.39668">
        <ele>759.4</ele>
        <time>2025-09-28T08:51:18Z</time>
      </trkpt>
      <trkpt lat="46.13497" lon="4.39669">
        <ele>759.4</ele>
        <time>2025-09-28T08:51:19Z</time>
      </trkpt>
      <trkpt lat="46.135" lon="4.39671">
        <ele>759.6</ele>
        <time>2025-09-28T08:51:20Z</time>
      </trkpt>
      <trkpt lat="46.13504" lon="4.39672">
        <ele>759.6</ele>
        <time>2025-09-28T08:51:21Z</time>
      </trkpt>
      <trkpt lat="46.13507" lon="4.39674">
        <ele>760</ele>
        <time>2025-09-28T08:51:22Z</time>
      </trkpt>
      <trkpt lat="46.1351" lon="4.39675">
        <ele>760</ele>
        <time>2025-09-28T08:51:23Z</time>
      </trkpt>
      <trkpt lat="46.13513" lon="4.39677">
        <ele>760.2</ele>
        <time>2025-09-28T08:51:24Z</time>
      </trkpt>
      <trkpt lat="46.13516" lon="4.39678">
        <ele>760.4</ele>
        <time>2025-09-28T08:51:25Z</time>
      </trkpt>
      <trkpt lat="46.13519" lon="4.39679">
        <ele>760.4</ele>
        <time>2025-09-28T08:51:26Z</time>
      </trkpt>
      <trkpt lat="46.13522" lon="4.3968">
        <ele>761</ele>
        <time>2025-09-28T08:51:27Z</time>
      </trkpt>
      <trkpt lat="46.13525" lon="4.39681">
        <ele>761</ele>
        <time>2025-09-28T08:51:28Z</time>
      </trkpt>
      <trkpt lat="46.13528" lon="4.39682">
        <ele>761.4</ele>
        <time>2025-09-28T08:51:29Z</time>
      </trkpt>
      <trkpt lat="46.1353" lon="4.39684">
        <ele>761.4</ele>
        <time>2025-09-28T08:51:30Z</time>
      </trkpt>
      <trkpt lat="46.13532" lon="4.39686">
        <ele>761.8</ele>
        <time>2025-09-28T08:51:31Z</time>
      </trkpt>
      <trkpt lat="46.13534" lon="4.39688">
        <ele>762.2</ele>
        <time>2025-09-28T08:51:32Z</time>
      </trkpt>
      <trkpt lat="46.13536" lon="4.39691">
        <ele>762.2</ele>
        <time>2025-09-28T08:51:33Z</time>
      </trkpt>
      <trkpt lat="46.13538" lon="4.39693">
        <ele>762.4</ele>
        <time>2025-09-28T08:51:34Z</time>
      </trkpt>
      <trkpt lat="46.1354" lon="4.39695">
        <ele>762.8</ele>
        <time>2025-09-28T08:51:35Z</time>
      </trkpt>
      <trkpt lat="46.13543" lon="4.39697">
        <ele>763</ele>
        <time>2025-09-28T08:51:36Z</time>
      </trkpt>
      <trkpt lat="46.13545" lon="4.39699">
        <ele>763.2</ele>
        <time>2025-09-28T08:51:37Z</time>
      </trkpt>
      <trkpt lat="46.13547" lon="4.39702">
        <ele>763.4</ele>
        <time>2025-09-28T08:51:38Z</time>
      </trkpt>
      <trkpt lat="46.13549" lon="4.39704">
        <ele>763.4</ele>
        <time>2025-09-28T08:51:39Z</time>
      </trkpt>
      <trkpt lat="46.13551" lon="4.39706">
        <ele>763.8</ele>
        <time>2025-09-28T08:51:40Z</time>
      </trkpt>
      <trkpt lat="46.13552" lon="4.39707">
        <ele>764.2</ele>
        <time>2025-09-28T08:51:41Z</time>
      </trkpt>
      <trkpt lat="46.13554" lon="4.39709">
        <ele>764.4</ele>
        <time>2025-09-28T08:51:42Z</time>
      </trkpt>
      <trkpt lat="46.13556" lon="4.39711">
        <ele>764.4</ele>
        <time>2025-09-28T08:51:43Z</time>
      </trkpt>
      <trkpt lat="46.13558" lon="4.39712">
        <ele>764.8</ele>
        <time>2025-09-28T08:51:44Z</time>
      </trkpt>
      <trkpt lat="46.1356" lon="4.39714">
        <ele>765</ele>
        <time>2025-09-28T08:51:45Z</time>
      </trkpt>
      <trkpt lat="46.13562" lon="4.39716">
        <ele>765.2</ele>
        <time>2025-09-28T08:51:46Z</time>
      </trkpt>
      <trkpt lat="46.13563" lon="4.39718">
        <ele>765.6</ele>
        <time>2025-09-28T08:51:47Z</time>
      </trkpt>
      <trkpt lat="46.13564" lon="4.3972">
        <ele>765.6</ele>
        <time>2025-09-28T08:51:48Z</time>
      </trkpt>
      <trkpt lat="46.13565" lon="4.39722">
        <ele>765.8</ele>
        <time>2025-09-28T08:51:49Z</time>
      </trkpt>
      <trkpt lat="46.13566" lon="4.39724">
        <ele>765.8</ele>
        <time>2025-09-28T08:51:50Z</time>
      </trkpt>
      <trkpt lat="46.13568" lon="4.39726">
        <ele>766.4</ele>
        <time>2025-09-28T08:51:51Z</time>
      </trkpt>
      <trkpt lat="46.1357" lon="4.39728">
        <ele>766.4</ele>
        <time>2025-09-28T08:51:52Z</time>
      </trkpt>
      <trkpt lat="46.13572" lon="4.3973">
        <ele>766.8</ele>
        <time>2025-09-28T08:51:53Z</time>
      </trkpt>
      <trkpt lat="46.13573" lon="4.39731">
        <ele>767</ele>
        <time>2025-09-28T08:51:54Z</time>
      </trkpt>
      <trkpt lat="46.13575" lon="4.39733">
        <ele>767.4</ele>
        <time>2025-09-28T08:51:55Z</time>
      </trkpt>
      <trkpt lat="46.13576" lon="4.39735">
        <ele>767.6</ele>
        <time>2025-09-28T08:51:56Z</time>
      </trkpt>
      <trkpt lat="46.13577" lon="4.39736">
        <ele>767.6</ele>
        <time>2025-09-28T08:51:57Z</time>
      </trkpt>
      <trkpt lat="46.13579" lon="4.39738">
        <ele>768</ele>
        <time>2025-09-28T08:51:58Z</time>
      </trkpt>
      <trkpt lat="46.1358" lon="4.3974">
        <ele>768.2</ele>
        <time>2025-09-28T08:51:59Z</time>
      </trkpt>
      <trkpt lat="46.13581" lon="4.39742">
        <ele>768.2</ele>
        <time>2025-09-28T08:52:00Z</time>
      </trkpt>
      <trkpt lat="46.13582" lon="4.39744">
        <ele>768.6</ele>
        <time>2025-09-28T08:52:01Z</time>
      </trkpt>
      <trkpt lat="46.13584" lon="4.39746">
        <ele>768.8</ele>
        <time>2025-09-28T08:52:02Z</time>
      </trkpt>
      <trkpt lat="46.13585" lon="4.39748">
        <ele>769.2</ele>
        <time>2025-09-28T08:52:03Z</time>
      </trkpt>
      <trkpt lat="46.13586" lon="4.3975">
        <ele>769.2</ele>
        <time>2025-09-28T08:52:04Z</time>
      </trkpt>
      <trkpt lat="46.13587" lon="4.39752">
        <ele>769.4</ele>
        <time>2025-09-28T08:52:05Z</time>
      </trkpt>
      <trkpt lat="46.13588" lon="4.39754">
        <ele>769.4</ele>
        <time>2025-09-28T08:52:06Z</time>
      </trkpt>
      <trkpt lat="46.13589" lon="4.39757">
        <ele>769.8</ele>
        <time>2025-09-28T08:52:07Z</time>
      </trkpt>
      <trkpt lat="46.13591" lon="4.39759">
        <ele>770</ele>
        <time>2025-09-28T08:52:08Z</time>
      </trkpt>
      <trkpt lat="46.13592" lon="4.39761">
        <ele>770</ele>
        <time>2025-09-28T08:52:09Z</time>
      </trkpt>
      <trkpt lat="46.13594" lon="4.39763">
        <ele>770.2</ele>
        <time>2025-09-28T08:52:10Z</time>
      </trkpt>
      <trkpt lat="46.13596" lon="4.39765">
        <ele>770.2</ele>
        <time>2025-09-28T08:52:11Z</time>
      </trkpt>
      <trkpt lat="46.13597" lon="4.39767">
        <ele>770.2</ele>
        <time>2025-09-28T08:52:12Z</time>
      </trkpt>
      <trkpt lat="46.13599" lon="4.3977">
        <ele>770.6</ele>
        <time>2025-09-28T08:52:13Z</time>
      </trkpt>
      <trkpt lat="46.136" lon="4.39772">
        <ele>770.6</ele>
        <time>2025-09-28T08:52:14Z</time>
      </trkpt>
      <trkpt lat="46.13601" lon="4.39775">
        <ele>770.8</ele>
        <time>2025-09-28T08:52:15Z</time>
      </trkpt>
      <trkpt lat="46.13603" lon="4.39777">
        <ele>771</ele>
        <time>2025-09-28T08:52:16Z</time>
      </trkpt>
      <trkpt lat="46.13604" lon="4.39779">
        <ele>771.2</ele>
        <time>2025-09-28T08:52:17Z</time>
      </trkpt>
      <trkpt lat="46.13605" lon="4.39781">
        <ele>771.2</ele>
        <time>2025-09-28T08:52:18Z</time>
      </trkpt>
      <trkpt lat="46.13607" lon="4.39783">
        <ele>771.4</ele>
        <time>2025-09-28T08:52:19Z</time>
      </trkpt>
      <trkpt lat="46.13608" lon="4.39785">
        <ele>771.8</ele>
        <time>2025-09-28T08:52:20Z</time>
      </trkpt>
      <trkpt lat="46.13609" lon="4.39787">
        <ele>772</ele>
        <time>2025-09-28T08:52:21Z</time>
      </trkpt>
      <trkpt lat="46.1361" lon="4.39789">
        <ele>772</ele>
        <time>2025-09-28T08:52:22Z</time>
      </trkpt>
      <trkpt lat="46.13611" lon="4.39792">
        <ele>772</ele>
        <time>2025-09-28T08:52:23Z</time>
      </trkpt>
      <trkpt lat="46.13612" lon="4.39794">
        <ele>772</ele>
        <time>2025-09-28T08:52:24Z</time>
      </trkpt>
      <trkpt lat="46.13613" lon="4.39797">
        <ele>772.2</ele>
        <time>2025-09-28T08:52:25Z</time>
      </trkpt>
      <trkpt lat="46.13614" lon="4.39799">
        <ele>772.2</ele>
        <time>2025-09-28T08:52:26Z</time>
      </trkpt>
      <trkpt lat="46.13615" lon="4.39802">
        <ele>772.6</ele>
        <time>2025-09-28T08:52:27Z</time>
      </trkpt>
      <trkpt lat="46.13617" lon="4.39804">
        <ele>772.6</ele>
        <time>2025-09-28T08:52:28Z</time>
      </trkpt>
      <trkpt lat="46.13618" lon="4.39806">
        <ele>772.8</ele>
        <time>2025-09-28T08:52:29Z</time>
      </trkpt>
      <trkpt lat="46.1362" lon="4.39808">
        <ele>772.8</ele>
        <time>2025-09-28T08:52:30Z</time>
      </trkpt>
      <trkpt lat="46.13621" lon="4.3981">
        <ele>773</ele>
        <time>2025-09-28T08:52:31Z</time>
      </trkpt>
      <trkpt lat="46.13623" lon="4.39812">
        <ele>773</ele>
        <time>2025-09-28T08:52:32Z</time>
      </trkpt>
      <trkpt lat="46.13624" lon="4.39814">
        <ele>773.4</ele>
        <time>2025-09-28T08:52:33Z</time>
      </trkpt>
      <trkpt lat="46.13626" lon="4.39817">
        <ele>773.6</ele>
        <time>2025-09-28T08:52:34Z</time>
      </trkpt>
      <trkpt lat="46.13627" lon="4.39819">
        <ele>773.8</ele>
        <time>2025-09-28T08:52:35Z</time>
      </trkpt>
      <trkpt lat="46.13628" lon="4.39822">
        <ele>773.8</ele>
        <time>2025-09-28T08:52:36Z</time>
      </trkpt>
      <trkpt lat="46.1363" lon="4.39825">
        <ele>773.8</ele>
        <time>2025-09-28T08:52:37Z</time>
      </trkpt>
      <trkpt lat="46.13631" lon="4.39828">
        <ele>774</ele>
        <time>2025-09-28T08:52:38Z</time>
      </trkpt>
      <trkpt lat="46.13632" lon="4.39831">
        <ele>774</ele>
        <time>2025-09-28T08:52:39Z</time>
      </trkpt>
      <trkpt lat="46.13633" lon="4.39834">
        <ele>774</ele>
        <time>2025-09-28T08:52:40Z</time>
      </trkpt>
      <trkpt lat="46.13634" lon="4.39836">
        <ele>774.2</ele>
        <time>2025-09-28T08:52:41Z</time>
      </trkpt>
      <trkpt lat="46.13636" lon="4.39839">
        <ele>774.2</ele>
        <time>2025-09-28T08:52:42Z</time>
      </trkpt>
      <trkpt lat="46.13637" lon="4.39841">
        <ele>774.2</ele>
        <time>2025-09-28T08:52:43Z</time>
      </trkpt>
      <trkpt lat="46.13639" lon="4.39844">
        <ele>774.6</ele>
        <time>2025-09-28T08:52:44Z</time>
      </trkpt>
      <trkpt lat="46.1364" lon="4.39846">
        <ele>774.8</ele>
        <time>2025-09-28T08:52:45Z</time>
      </trkpt>
      <trkpt lat="46.13641" lon="4.39848">
        <ele>775</ele>
        <time>2025-09-28T08:52:46Z</time>
      </trkpt>
      <trkpt lat="46.13643" lon="4.39851">
        <ele>775</ele>
        <time>2025-09-28T08:52:47Z</time>
      </trkpt>
      <trkpt lat="46.13644" lon="4.39853">
        <ele>775.2</ele>
        <time>2025-09-28T08:52:48Z</time>
      </trkpt>
      <trkpt lat="46.13646" lon="4.39855">
        <ele>775.4</ele>
        <time>2025-09-28T08:52:49Z</time>
      </trkpt>
      <trkpt lat="46.13647" lon="4.39857">
        <ele>775.4</ele>
        <time>2025-09-28T08:52:50Z</time>
      </trkpt>
      <trkpt lat="46.13649" lon="4.39859">
        <ele>775.6</ele>
        <time>2025-09-28T08:52:51Z</time>
      </trkpt>
      <trkpt lat="46.1365" lon="4.39861">
        <ele>775.6</ele>
        <time>2025-09-28T08:52:52Z</time>
      </trkpt>
      <trkpt lat="46.13651" lon="4.39863">
        <ele>776</ele>
        <time>2025-09-28T08:52:53Z</time>
      </trkpt>
      <trkpt lat="46.13652" lon="4.39865">
        <ele>776.2</ele>
        <time>2025-09-28T08:52:54Z</time>
      </trkpt>
      <trkpt lat="46.13653" lon="4.39867">
        <ele>776.4</ele>
        <time>2025-09-28T08:52:55Z</time>
      </trkpt>
      <trkpt lat="46.13654" lon="4.39869">
        <ele>776.4</ele>
        <time>2025-09-28T08:52:56Z</time>
      </trkpt>
      <trkpt lat="46.13656" lon="4.39871">
        <ele>776.4</ele>
        <time>2025-09-28T08:52:57Z</time>
      </trkpt>
      <trkpt lat="46.13657" lon="4.39873">
        <ele>776.8</ele>
        <time>2025-09-28T08:52:58Z</time>
      </trkpt>
      <trkpt lat="46.13658" lon="4.39875">
        <ele>777</ele>
        <time>2025-09-28T08:52:59Z</time>
      </trkpt>
      <trkpt lat="46.1366" lon="4.39878">
        <ele>777</ele>
        <time>2025-09-28T08:53:00Z</time>
      </trkpt>
      <trkpt lat="46.13661" lon="4.3988">
        <ele>777</ele>
        <time>2025-09-28T08:53:01Z</time>
      </trkpt>
      <trkpt lat="46.13663" lon="4.39882">
        <ele>777.4</ele>
        <time>2025-09-28T08:53:02Z</time>
      </trkpt>
      <trkpt lat="46.13665" lon="4.39884">
        <ele>777.4</ele>
        <time>2025-09-28T08:53:03Z</time>
      </trkpt>
      <trkpt lat="46.13666" lon="4.39886">
        <ele>777.8</ele>
        <time>2025-09-28T08:53:04Z</time>
      </trkpt>
      <trkpt lat="46.13668" lon="4.39888">
        <ele>777.8</ele>
        <time>2025-09-28T08:53:05Z</time>
      </trkpt>
      <trkpt lat="46.13669" lon="4.39891">
        <ele>778.2</ele>
        <time>2025-09-28T08:53:06Z</time>
      </trkpt>
      <trkpt lat="46.1367" lon="4.39893">
        <ele>778.2</ele>
        <time>2025-09-28T08:53:07Z</time>
      </trkpt>
      <trkpt lat="46.13672" lon="4.39895">
        <ele>778.2</ele>
        <time>2025-09-28T08:53:08Z</time>
      </trkpt>
      <trkpt lat="46.13673" lon="4.39896">
        <ele>778.2</ele>
        <time>2025-09-28T08:53:09Z</time>
      </trkpt>
      <trkpt lat="46.13675" lon="4.39899">
        <ele>778.6</ele>
        <time>2025-09-28T08:53:10Z</time>
      </trkpt>
      <trkpt lat="46.13677" lon="4.39901">
        <ele>778.6</ele>
        <time>2025-09-28T08:53:11Z</time>
      </trkpt>
      <trkpt lat="46.13678" lon="4.39903">
        <ele>778.6</ele>
        <time>2025-09-28T08:53:12Z</time>
      </trkpt>
      <trkpt lat="46.1368" lon="4.39905">
        <ele>779</ele>
        <time>2025-09-28T08:53:13Z</time>
      </trkpt>
      <trkpt lat="46.13681" lon="4.39907">
        <ele>779.2</ele>
        <time>2025-09-28T08:53:14Z</time>
      </trkpt>
      <trkpt lat="46.13683" lon="4.3991">
        <ele>779.2</ele>
        <time>2025-09-28T08:53:15Z</time>
      </trkpt>
      <trkpt lat="46.13684" lon="4.39911">
        <ele>779.4</ele>
        <time>2025-09-28T08:53:16Z</time>
      </trkpt>
      <trkpt lat="46.13686" lon="4.39913">
        <ele>779.4</ele>
        <time>2025-09-28T08:53:17Z</time>
      </trkpt>
      <trkpt lat="46.13688" lon="4.39915">
        <ele>779.8</ele>
        <time>2025-09-28T08:53:18Z</time>
      </trkpt>
      <trkpt lat="46.13689" lon="4.39918">
        <ele>779.8</ele>
        <time>2025-09-28T08:53:19Z</time>
      </trkpt>
      <trkpt lat="46.13691" lon="4.3992">
        <ele>780</ele>
        <time>2025-09-28T08:53:20Z</time>
      </trkpt>
      <trkpt lat="46.13693" lon="4.39922">
        <ele>780.2</ele>
        <time>2025-09-28T08:53:21Z</time>
      </trkpt>
      <trkpt lat="46.13694" lon="4.39924">
        <ele>780.2</ele>
        <time>2025-09-28T08:53:22Z</time>
      </trkpt>
      <trkpt lat="46.13696" lon="4.39926">
        <ele>780.4</ele>
        <time>2025-09-28T08:53:23Z</time>
      </trkpt>
      <trkpt lat="46.13698" lon="4.39928">
        <ele>780.4</ele>
        <time>2025-09-28T08:53:24Z</time>
      </trkpt>
      <trkpt lat="46.13699" lon="4.3993">
        <ele>780.8</ele>
        <time>2025-09-28T08:53:25Z</time>
      </trkpt>
      <trkpt lat="46.13702" lon="4.39933">
        <ele>780.8</ele>
        <time>2025-09-28T08:53:26Z</time>
      </trkpt>
      <trkpt lat="46.13704" lon="4.39934">
        <ele>781</ele>
        <time>2025-09-28T08:53:27Z</time>
      </trkpt>
      <trkpt lat="46.13706" lon="4.39935">
        <ele>781</ele>
        <time>2025-09-28T08:53:28Z</time>
      </trkpt>
      <trkpt lat="46.13707" lon="4.39937">
        <ele>781</ele>
        <time>2025-09-28T08:53:29Z</time>
      </trkpt>
      <trkpt lat="46.13709" lon="4.39938">
        <ele>781.6</ele>
        <time>2025-09-28T08:53:30Z</time>
      </trkpt>
      <trkpt lat="46.1371" lon="4.3994">
        <ele>781.6</ele>
        <time>2025-09-28T08:53:31Z</time>
      </trkpt>
      <trkpt lat="46.13711" lon="4.39941">
        <ele>781.8</ele>
        <time>2025-09-28T08:53:32Z</time>
      </trkpt>
      <trkpt lat="46.13713" lon="4.39942">
        <ele>782</ele>
        <time>2025-09-28T08:53:33Z</time>
      </trkpt>
      <trkpt lat="46.13714" lon="4.39943">
        <ele>782</ele>
        <time>2025-09-28T08:53:34Z</time>
      </trkpt>
      <trkpt lat="46.13716" lon="4.39945">
        <ele>782.2</ele>
        <time>2025-09-28T08:53:35Z</time>
      </trkpt>
      <trkpt lat="46.13718" lon="4.39947">
        <ele>782.2</ele>
        <time>2025-09-28T08:53:36Z</time>
      </trkpt>
      <trkpt lat="46.1372" lon="4.3995">
        <ele>782.6</ele>
        <time>2025-09-28T08:53:37Z</time>
      </trkpt>
      <trkpt lat="46.13721" lon="4.39953">
        <ele>782.6</ele>
        <time>2025-09-28T08:53:38Z</time>
      </trkpt>
      <trkpt lat="46.13722" lon="4.39956">
        <ele>782.8</ele>
        <time>2025-09-28T08:53:39Z</time>
      </trkpt>
      <trkpt lat="46.13723" lon="4.39959">
        <ele>782.8</ele>
        <time>2025-09-28T08:53:40Z</time>
      </trkpt>
      <trkpt lat="46.13725" lon="4.39962">
        <ele>783.2</ele>
        <time>2025-09-28T08:53:41Z</time>
      </trkpt>
      <trkpt lat="46.13727" lon="4.39965">
        <ele>783.6</ele>
        <time>2025-09-28T08:53:42Z</time>
      </trkpt>
      <trkpt lat="46.13729" lon="4.39967">
        <ele>783.6</ele>
        <time>2025-09-28T08:53:43Z</time>
      </trkpt>
      <trkpt lat="46.13731" lon="4.39969">
        <ele>783.8</ele>
        <time>2025-09-28T08:53:44Z</time>
      </trkpt>
      <trkpt lat="46.13733" lon="4.3997">
        <ele>783.8</ele>
        <time>2025-09-28T08:53:45Z</time>
      </trkpt>
      <trkpt lat="46.13735" lon="4.39972">
        <ele>784</ele>
        <time>2025-09-28T08:53:46Z</time>
      </trkpt>
      <trkpt lat="46.13737" lon="4.39973">
        <ele>784</ele>
        <time>2025-09-28T08:53:47Z</time>
      </trkpt>
      <trkpt lat="46.13739" lon="4.39975">
        <ele>784.4</ele>
        <time>2025-09-28T08:53:48Z</time>
      </trkpt>
      <trkpt lat="46.13742" lon="4.39976">
        <ele>784.4</ele>
        <time>2025-09-28T08:53:49Z</time>
      </trkpt>
      <trkpt lat="46.13744" lon="4.39977">
        <ele>784.4</ele>
        <time>2025-09-28T08:53:50Z</time>
      </trkpt>
      <trkpt lat="46.13747" lon="4.39978">
        <ele>784.4</ele>
        <time>2025-09-28T08:53:51Z</time>
      </trkpt>
      <trkpt lat="46.13749" lon="4.39978">
        <ele>784.8</ele>
        <time>2025-09-28T08:53:52Z</time>
      </trkpt>
      <trkpt lat="46.13751" lon="4.39979">
        <ele>784.8</ele>
        <time>2025-09-28T08:53:53Z</time>
      </trkpt>
      <trkpt lat="46.13754" lon="4.3998">
        <ele>785.2</ele>
        <time>2025-09-28T08:53:54Z</time>
      </trkpt>
      <trkpt lat="46.13756" lon="4.39981">
        <ele>785.4</ele>
        <time>2025-09-28T08:53:55Z</time>
      </trkpt>
      <trkpt lat="46.13759" lon="4.39981">
        <ele>785.4</ele>
        <time>2025-09-28T08:53:56Z</time>
      </trkpt>
      <trkpt lat="46.13761" lon="4.39981">
        <ele>785.4</ele>
        <time>2025-09-28T08:53:57Z</time>
      </trkpt>
      <trkpt lat="46.13764" lon="4.39981">
        <ele>785.8</ele>
        <time>2025-09-28T08:53:58Z</time>
      </trkpt>
      <trkpt lat="46.13767" lon="4.39982">
        <ele>785.8</ele>
        <time>2025-09-28T08:53:59Z</time>
      </trkpt>
      <trkpt lat="46.1377" lon="4.39982">
        <ele>785.8</ele>
        <time>2025-09-28T08:54:00Z</time>
      </trkpt>
      <trkpt lat="46.13772" lon="4.39983">
        <ele>786</ele>
        <time>2025-09-28T08:54:01Z</time>
      </trkpt>
      <trkpt lat="46.13772" lon="4.39983">
        <ele>785.8</ele>
        <time>2025-09-28T08:54:02Z</time>
      </trkpt>
      <trkpt lat="46.13772" lon="4.39983">
        <ele>786</ele>
        <time>2025-09-28T08:54:03Z</time>
      </trkpt>
      <trkpt lat="46.13781" lon="4.39985">
        <ele>786</ele>
        <time>2025-09-28T08:54:04Z</time>
      </trkpt>
      <trkpt lat="46.13784" lon="4.39984">
        <ele>786</ele>
        <time>2025-09-28T08:54:05Z</time>
      </trkpt>
      <trkpt lat="46.13787" lon="4.39983">
        <ele>785.6</ele>
        <time>2025-09-28T08:54:06Z</time>
      </trkpt>
      <trkpt lat="46.13791" lon="4.39982">
        <ele>785.6</ele>
        <time>2025-09-28T08:54:07Z</time>
      </trkpt>
      <trkpt lat="46.13794" lon="4.39981">
        <ele>785.6</ele>
        <time>2025-09-28T08:54:08Z</time>
      </trkpt>
      <trkpt lat="46.13798" lon="4.3998">
        <ele>785.6</ele>
        <time>2025-09-28T08:54:09Z</time>
      </trkpt>
      <trkpt lat="46.13802" lon="4.39979">
        <ele>785.6</ele>
        <time>2025-09-28T08:54:10Z</time>
      </trkpt>
      <trkpt lat="46.13806" lon="4.39978">
        <ele>785.6</ele>
        <time>2025-09-28T08:54:11Z</time>
      </trkpt>
      <trkpt lat="46.1381" lon="4.39977">
        <ele>785.6</ele>
        <time>2025-09-28T08:54:12Z</time>
      </trkpt>
      <trkpt lat="46.13814" lon="4.39976">
        <ele>785.6</ele>
        <time>2025-09-28T08:54:13Z</time>
      </trkpt>
      <trkpt lat="46.1382" lon="4.39976">
        <ele>785.6</ele>
        <time>2025-09-28T08:54:14Z</time>
      </trkpt>
      <trkpt lat="46.13824" lon="4.39976">
        <ele>785.6</ele>
        <time>2025-09-28T08:54:15Z</time>
      </trkpt>
      <trkpt lat="46.13828" lon="4.39976">
        <ele>785.6</ele>
        <time>2025-09-28T08:54:16Z</time>
      </trkpt>
      <trkpt lat="46.13833" lon="4.39974">
        <ele>785.6</ele>
        <time>2025-09-28T08:54:17Z</time>
      </trkpt>
      <trkpt lat="46.13837" lon="4.39973">
        <ele>785.6</ele>
        <time>2025-09-28T08:54:18Z</time>
      </trkpt>
      <trkpt lat="46.13842" lon="4.39972">
        <ele>785.6</ele>
        <time>2025-09-28T08:54:19Z</time>
      </trkpt>
      <trkpt lat="46.13846" lon="4.3997">
        <ele>785.6</ele>
        <time>2025-09-28T08:54:20Z</time>
      </trkpt>
      <trkpt lat="46.1385" lon="4.39969">
        <ele>785.6</ele>
        <time>2025-09-28T08:54:21Z</time>
      </trkpt>
      <trkpt lat="46.13854" lon="4.39968">
        <ele>785.2</ele>
        <time>2025-09-28T08:54:22Z</time>
      </trkpt>
      <trkpt lat="46.13858" lon="4.39966">
        <ele>785.6</ele>
        <time>2025-09-28T08:54:23Z</time>
      </trkpt>
      <trkpt lat="46.13861" lon="4.39965">
        <ele>785.2</ele>
        <time>2025-09-28T08:54:24Z</time>
      </trkpt>
      <trkpt lat="46.13864" lon="4.39963">
        <ele>785.8</ele>
        <time>2025-09-28T08:54:25Z</time>
      </trkpt>
      <trkpt lat="46.13868" lon="4.39962">
        <ele>786</ele>
        <time>2025-09-28T08:54:26Z</time>
      </trkpt>
      <trkpt lat="46.13872" lon="4.39959">
        <ele>786</ele>
        <time>2025-09-28T08:54:27Z</time>
      </trkpt>
      <trkpt lat="46.13875" lon="4.39957">
        <ele>786</ele>
        <time>2025-09-28T08:54:28Z</time>
      </trkpt>
      <trkpt lat="46.13879" lon="4.39954">
        <ele>786</ele>
        <time>2025-09-28T08:54:29Z</time>
      </trkpt>
      <trkpt lat="46.13884" lon="4.39951">
        <ele>786</ele>
        <time>2025-09-28T08:54:30Z</time>
      </trkpt>
      <trkpt lat="46.13889" lon="4.39948">
        <ele>785.8</ele>
        <time>2025-09-28T08:54:31Z</time>
      </trkpt>
      <trkpt lat="46.13893" lon="4.39946">
        <ele>785.8</ele>
        <time>2025-09-28T08:54:32Z</time>
      </trkpt>
      <trkpt lat="46.13897" lon="4.39943">
        <ele>786</ele>
        <time>2025-09-28T08:54:33Z</time>
      </trkpt>
      <trkpt lat="46.13902" lon="4.39941">
        <ele>785.8</ele>
        <time>2025-09-28T08:54:34Z</time>
      </trkpt>
      <trkpt lat="46.13906" lon="4.39939">
        <ele>785.8</ele>
        <time>2025-09-28T08:54:35Z</time>
      </trkpt>
      <trkpt lat="46.13911" lon="4.39937">
        <ele>785.8</ele>
        <time>2025-09-28T08:54:36Z</time>
      </trkpt>
      <trkpt lat="46.13916" lon="4.39934">
        <ele>785.4</ele>
        <time>2025-09-28T08:54:37Z</time>
      </trkpt>
      <trkpt lat="46.13919" lon="4.39931">
        <ele>785.4</ele>
        <time>2025-09-28T08:54:38Z</time>
      </trkpt>
      <trkpt lat="46.13924" lon="4.39927">
        <ele>785.4</ele>
        <time>2025-09-28T08:54:39Z</time>
      </trkpt>
      <trkpt lat="46.13927" lon="4.39923">
        <ele>785.8</ele>
        <time>2025-09-28T08:54:40Z</time>
      </trkpt>
      <trkpt lat="46.13929" lon="4.39918">
        <ele>785.8</ele>
        <time>2025-09-28T08:54:41Z</time>
      </trkpt>
      <trkpt lat="46.13932" lon="4.39913">
        <ele>785.8</ele>
        <time>2025-09-28T08:54:42Z</time>
      </trkpt>
      <trkpt lat="46.13934" lon="4.39908">
        <ele>786.4</ele>
        <time>2025-09-28T08:54:43Z</time>
      </trkpt>
      <trkpt lat="46.13936" lon="4.39903">
        <ele>786.6</ele>
        <time>2025-09-28T08:54:44Z</time>
      </trkpt>
      <trkpt lat="46.13938" lon="4.39897">
        <ele>786.6</ele>
        <time>2025-09-28T08:54:45Z</time>
      </trkpt>
      <trkpt lat="46.13939" lon="4.39892">
        <ele>786.8</ele>
        <time>2025-09-28T08:54:46Z</time>
      </trkpt>
      <trkpt lat="46.1394" lon="4.39887">
        <ele>786.8</ele>
        <time>2025-09-28T08:54:47Z</time>
      </trkpt>
      <trkpt lat="46.13942" lon="4.39883">
        <ele>787.2</ele>
        <time>2025-09-28T08:54:48Z</time>
      </trkpt>
      <trkpt lat="46.13943" lon="4.39878">
        <ele>787.4</ele>
        <time>2025-09-28T08:54:49Z</time>
      </trkpt>
      <trkpt lat="46.13945" lon="4.39874">
        <ele>787.4</ele>
        <time>2025-09-28T08:54:50Z</time>
      </trkpt>
      <trkpt lat="46.13946" lon="4.39869">
        <ele>787.8</ele>
        <time>2025-09-28T08:54:51Z</time>
      </trkpt>
      <trkpt lat="46.13948" lon="4.39864">
        <ele>787.8</ele>
        <time>2025-09-28T08:54:52Z</time>
      </trkpt>
      <trkpt lat="46.1395" lon="4.39859">
        <ele>787.8</ele>
        <time>2025-09-28T08:54:53Z</time>
      </trkpt>
      <trkpt lat="46.13951" lon="4.39854">
        <ele>788.2</ele>
        <time>2025-09-28T08:54:54Z</time>
      </trkpt>
      <trkpt lat="46.13953" lon="4.39849">
        <ele>788.2</ele>
        <time>2025-09-28T08:54:55Z</time>
      </trkpt>
      <trkpt lat="46.13954" lon="4.39845">
        <ele>788.2</ele>
        <time>2025-09-28T08:54:56Z</time>
      </trkpt>
      <trkpt lat="46.13955" lon="4.39842">
        <ele>788.4</ele>
        <time>2025-09-28T08:54:57Z</time>
      </trkpt>
      <trkpt lat="46.13957" lon="4.3984">
        <ele>788.4</ele>
        <time>2025-09-28T08:54:58Z</time>
      </trkpt>
      <trkpt lat="46.13959" lon="4.39839">
        <ele>788.8</ele>
        <time>2025-09-28T08:54:59Z</time>
      </trkpt>
      <trkpt lat="46.13961" lon="4.39841">
        <ele>789</ele>
        <time>2025-09-28T08:55:00Z</time>
      </trkpt>
      <trkpt lat="46.13961" lon="4.39841">
        <ele>789</ele>
        <time>2025-09-28T08:55:01Z</time>
      </trkpt>
      <trkpt lat="46.13961" lon="4.39841">
        <ele>789.6</ele>
        <time>2025-09-28T08:55:02Z</time>
      </trkpt>
      <trkpt lat="46.13963" lon="4.39851">
        <ele>789.8</ele>
        <time>2025-09-28T08:55:03Z</time>
      </trkpt>
      <trkpt lat="46.13962" lon="4.39855">
        <ele>790.2</ele>
        <time>2025-09-28T08:55:04Z</time>
      </trkpt>
      <trkpt lat="46.13963" lon="4.39858">
        <ele>790.8</ele>
        <time>2025-09-28T08:55:05Z</time>
      </trkpt>
      <trkpt lat="46.13963" lon="4.39861">
        <ele>790.8</ele>
        <time>2025-09-28T08:55:06Z</time>
      </trkpt>
      <trkpt lat="46.13964" lon="4.39864">
        <ele>790.8</ele>
        <time>2025-09-28T08:55:07Z</time>
      </trkpt>
      <trkpt lat="46.13964" lon="4.39867">
        <ele>791.2</ele>
        <time>2025-09-28T08:55:08Z</time>
      </trkpt>
      <trkpt lat="46.13964" lon="4.39869">
        <ele>791.4</ele>
        <time>2025-09-28T08:55:09Z</time>
      </trkpt>
      <trkpt lat="46.13965" lon="4.39872">
        <ele>791.4</ele>
        <time>2025-09-28T08:55:10Z</time>
      </trkpt>
      <trkpt lat="46.13965" lon="4.39875">
        <ele>791.8</ele>
        <time>2025-09-28T08:55:11Z</time>
      </trkpt>
      <trkpt lat="46.13966" lon="4.39877">
        <ele>791.8</ele>
        <time>2025-09-28T08:55:12Z</time>
      </trkpt>
      <trkpt lat="46.13966" lon="4.3988">
        <ele>792.2</ele>
        <time>2025-09-28T08:55:13Z</time>
      </trkpt>
      <trkpt lat="46.13966" lon="4.39883">
        <ele>792.2</ele>
        <time>2025-09-28T08:55:14Z</time>
      </trkpt>
      <trkpt lat="46.13967" lon="4.39885">
        <ele>792.6</ele>
        <time>2025-09-28T08:55:15Z</time>
      </trkpt>
      <trkpt lat="46.13967" lon="4.39887">
        <ele>793</ele>
        <time>2025-09-28T08:55:16Z</time>
      </trkpt>
      <trkpt lat="46.13967" lon="4.3989">
        <ele>793</ele>
        <time>2025-09-28T08:55:17Z</time>
      </trkpt>
      <trkpt lat="46.13968" lon="4.39893">
        <ele>793.4</ele>
        <time>2025-09-28T08:55:18Z</time>
      </trkpt>
      <trkpt lat="46.13968" lon="4.39895">
        <ele>793.8</ele>
        <time>2025-09-28T08:55:19Z</time>
      </trkpt>
      <trkpt lat="46.13968" lon="4.39896">
        <ele>794</ele>
        <time>2025-09-28T08:55:20Z</time>
      </trkpt>
      <trkpt lat="46.13969" lon="4.39897">
        <ele>794.4</ele>
        <time>2025-09-28T08:55:21Z</time>
      </trkpt>
      <trkpt lat="46.13969" lon="4.39899">
        <ele>794.6</ele>
        <time>2025-09-28T08:55:22Z</time>
      </trkpt>
      <trkpt lat="46.13969" lon="4.39901">
        <ele>794.8</ele>
        <time>2025-09-28T08:55:23Z</time>
      </trkpt>
      <trkpt lat="46.13969" lon="4.39903">
        <ele>795.2</ele>
        <time>2025-09-28T08:55:24Z</time>
      </trkpt>
      <trkpt lat="46.13969" lon="4.39905">
        <ele>795.4</ele>
        <time>2025-09-28T08:55:25Z</time>
      </trkpt>
      <trkpt lat="46.13968" lon="4.39906">
        <ele>795.4</ele>
        <time>2025-09-28T08:55:26Z</time>
      </trkpt>
      <trkpt lat="46.13968" lon="4.39908">
        <ele>795.6</ele>
        <time>2025-09-28T08:55:27Z</time>
      </trkpt>
      <trkpt lat="46.13969" lon="4.3991">
        <ele>795.6</ele>
        <time>2025-09-28T08:55:28Z</time>
      </trkpt>
      <trkpt lat="46.13969" lon="4.39912">
        <ele>796</ele>
        <time>2025-09-28T08:55:29Z</time>
      </trkpt>
      <trkpt lat="46.1397" lon="4.39913">
        <ele>796.4</ele>
        <time>2025-09-28T08:55:30Z</time>
      </trkpt>
      <trkpt lat="46.13971" lon="4.39915">
        <ele>796.4</ele>
        <time>2025-09-28T08:55:31Z</time>
      </trkpt>
      <trkpt lat="46.13972" lon="4.39917">
        <ele>796.6</ele>
        <time>2025-09-28T08:55:32Z</time>
      </trkpt>
      <trkpt lat="46.13973" lon="4.39919">
        <ele>796.8</ele>
        <time>2025-09-28T08:55:33Z</time>
      </trkpt>
      <trkpt lat="46.13974" lon="4.39921">
        <ele>797.2</ele>
        <time>2025-09-28T08:55:34Z</time>
      </trkpt>
      <trkpt lat="46.13974" lon="4.39923">
        <ele>797.4</ele>
        <time>2025-09-28T08:55:35Z</time>
      </trkpt>
      <trkpt lat="46.13975" lon="4.39926">
        <ele>797.6</ele>
        <time>2025-09-28T08:55:36Z</time>
      </trkpt>
      <trkpt lat="46.13976" lon="4.39928">
        <ele>798</ele>
        <time>2025-09-28T08:55:37Z</time>
      </trkpt>
      <trkpt lat="46.13977" lon="4.3993">
        <ele>798.2</ele>
        <time>2025-09-28T08:55:38Z</time>
      </trkpt>
      <trkpt lat="46.13977" lon="4.39932">
        <ele>798.6</ele>
        <time>2025-09-28T08:55:39Z</time>
      </trkpt>
      <trkpt lat="46.13977" lon="4.39934">
        <ele>798.6</ele>
        <time>2025-09-28T08:55:40Z</time>
      </trkpt>
      <trkpt lat="46.13977" lon="4.39936">
        <ele>799</ele>
        <time>2025-09-28T08:55:41Z</time>
      </trkpt>
      <trkpt lat="46.13978" lon="4.39938">
        <ele>799.4</ele>
        <time>2025-09-28T08:55:42Z</time>
      </trkpt>
      <trkpt lat="46.13979" lon="4.3994">
        <ele>799.6</ele>
        <time>2025-09-28T08:55:43Z</time>
      </trkpt>
      <trkpt lat="46.13981" lon="4.39942">
        <ele>800</ele>
        <time>2025-09-28T08:55:44Z</time>
      </trkpt>
      <trkpt lat="46.13982" lon="4.39943">
        <ele>800</ele>
        <time>2025-09-28T08:55:45Z</time>
      </trkpt>
      <trkpt lat="46.13982" lon="4.39945">
        <ele>800.6</ele>
        <time>2025-09-28T08:55:46Z</time>
      </trkpt>
      <trkpt lat="46.13983" lon="4.39947">
        <ele>801</ele>
        <time>2025-09-28T08:55:47Z</time>
      </trkpt>
      <trkpt lat="46.13983" lon="4.39949">
        <ele>801</ele>
        <time>2025-09-28T08:55:48Z</time>
      </trkpt>
      <trkpt lat="46.13984" lon="4.39951">
        <ele>801.4</ele>
        <time>2025-09-28T08:55:49Z</time>
      </trkpt>
      <trkpt lat="46.13985" lon="4.39954">
        <ele>801.4</ele>
        <time>2025-09-28T08:55:50Z</time>
      </trkpt>
      <trkpt lat="46.13985" lon="4.39956">
        <ele>801.8</ele>
        <time>2025-09-28T08:55:51Z</time>
      </trkpt>
      <trkpt lat="46.13984" lon="4.39958">
        <ele>801.8</ele>
        <time>2025-09-28T08:55:52Z</time>
      </trkpt>
      <trkpt lat="46.13984" lon="4.3996">
        <ele>802</ele>
        <time>2025-09-28T08:55:53Z</time>
      </trkpt>
      <trkpt lat="46.13983" lon="4.39962">
        <ele>802.2</ele>
        <time>2025-09-28T08:55:54Z</time>
      </trkpt>
      <trkpt lat="46.13983" lon="4.39964">
        <ele>802.4</ele>
        <time>2025-09-28T08:55:55Z</time>
      </trkpt>
      <trkpt lat="46.13983" lon="4.39965">
        <ele>802.8</ele>
        <time>2025-09-28T08:55:56Z</time>
      </trkpt>
      <trkpt lat="46.13983" lon="4.39967">
        <ele>803</ele>
        <time>2025-09-28T08:55:57Z</time>
      </trkpt>
      <trkpt lat="46.13982" lon="4.3997">
        <ele>803</ele>
        <time>2025-09-28T08:55:58Z</time>
      </trkpt>
      <trkpt lat="46.13982" lon="4.39972">
        <ele>803.4</ele>
        <time>2025-09-28T08:55:59Z</time>
      </trkpt>
      <trkpt lat="46.13982" lon="4.39974">
        <ele>803.4</ele>
        <time>2025-09-28T08:56:00Z</time>
      </trkpt>
      <trkpt lat="46.13982" lon="4.39976">
        <ele>803.8</ele>
        <time>2025-09-28T08:56:01Z</time>
      </trkpt>
      <trkpt lat="46.13983" lon="4.39978">
        <ele>804</ele>
        <time>2025-09-28T08:56:02Z</time>
      </trkpt>
      <trkpt lat="46.13983" lon="4.3998">
        <ele>804.4</ele>
        <time>2025-09-28T08:56:03Z</time>
      </trkpt>
      <trkpt lat="46.13984" lon="4.39983">
        <ele>804.6</ele>
        <time>2025-09-28T08:56:04Z</time>
      </trkpt>
      <trkpt lat="46.13984" lon="4.39984">
        <ele>804.8</ele>
        <time>2025-09-28T08:56:05Z</time>
      </trkpt>
      <trkpt lat="46.13984" lon="4.39986">
        <ele>804.8</ele>
        <time>2025-09-28T08:56:06Z</time>
      </trkpt>
      <trkpt lat="46.13984" lon="4.39988">
        <ele>805.2</ele>
        <time>2025-09-28T08:56:07Z</time>
      </trkpt>
      <trkpt lat="46.13984" lon="4.39991">
        <ele>805.2</ele>
        <time>2025-09-28T08:56:08Z</time>
      </trkpt>
      <trkpt lat="46.13983" lon="4.39993">
        <ele>805.6</ele>
        <time>2025-09-28T08:56:09Z</time>
      </trkpt>
      <trkpt lat="46.13983" lon="4.39995">
        <ele>805.8</ele>
        <time>2025-09-28T08:56:10Z</time>
      </trkpt>
      <trkpt lat="46.13983" lon="4.39996">
        <ele>805.8</ele>
        <time>2025-09-28T08:56:11Z</time>
      </trkpt>
      <trkpt lat="46.13983" lon="4.39998">
        <ele>806.2</ele>
        <time>2025-09-28T08:56:12Z</time>
      </trkpt>
      <trkpt lat="46.13984" lon="4.4">
        <ele>806.4</ele>
        <time>2025-09-28T08:56:13Z</time>
      </trkpt>
      <trkpt lat="46.13984" lon="4.40002">
        <ele>806.4</ele>
        <time>2025-09-28T08:56:14Z</time>
      </trkpt>
      <trkpt lat="46.13984" lon="4.40003">
        <ele>806.4</ele>
        <time>2025-09-28T08:56:15Z</time>
      </trkpt>
      <trkpt lat="46.13984" lon="4.40005">
        <ele>806.4</ele>
        <time>2025-09-28T08:56:16Z</time>
      </trkpt>
      <trkpt lat="46.13984" lon="4.40007">
        <ele>806.6</ele>
        <time>2025-09-28T08:56:17Z</time>
      </trkpt>
      <trkpt lat="46.13984" lon="4.40009">
        <ele>807</ele>
        <time>2025-09-28T08:56:18Z</time>
      </trkpt>
      <trkpt lat="46.13983" lon="4.40011">
        <ele>807</ele>
        <time>2025-09-28T08:56:19Z</time>
      </trkpt>
      <trkpt lat="46.13983" lon="4.40013">
        <ele>807.6</ele>
        <time>2025-09-28T08:56:20Z</time>
      </trkpt>
      <trkpt lat="46.13982" lon="4.40015">
        <ele>808</ele>
        <time>2025-09-28T08:56:21Z</time>
      </trkpt>
      <trkpt lat="46.13981" lon="4.40017">
        <ele>808</ele>
        <time>2025-09-28T08:56:22Z</time>
      </trkpt>
      <trkpt lat="46.13981" lon="4.40019">
        <ele>808</ele>
        <time>2025-09-28T08:56:23Z</time>
      </trkpt>
      <trkpt lat="46.13981" lon="4.4002">
        <ele>808.2</ele>
        <time>2025-09-28T08:56:24Z</time>
      </trkpt>
      <trkpt lat="46.13981" lon="4.40021">
        <ele>808.4</ele>
        <time>2025-09-28T08:56:25Z</time>
      </trkpt>
      <trkpt lat="46.13982" lon="4.40023">
        <ele>808.8</ele>
        <time>2025-09-28T08:56:26Z</time>
      </trkpt>
      <trkpt lat="46.13983" lon="4.40025">
        <ele>809</ele>
        <time>2025-09-28T08:56:27Z</time>
      </trkpt>
      <trkpt lat="46.13984" lon="4.40027">
        <ele>809</ele>
        <time>2025-09-28T08:56:28Z</time>
      </trkpt>
      <trkpt lat="46.13984" lon="4.40029">
        <ele>809.4</ele>
        <time>2025-09-28T08:56:29Z</time>
      </trkpt>
      <trkpt lat="46.13984" lon="4.40031">
        <ele>809.8</ele>
        <time>2025-09-28T08:56:30Z</time>
      </trkpt>
      <trkpt lat="46.13984" lon="4.40032">
        <ele>809.8</ele>
        <time>2025-09-28T08:56:31Z</time>
      </trkpt>
      <trkpt lat="46.13983" lon="4.40034">
        <ele>810.2</ele>
        <time>2025-09-28T08:56:32Z</time>
      </trkpt>
      <trkpt lat="46.13983" lon="4.40036">
        <ele>810.2</ele>
        <time>2025-09-28T08:56:33Z</time>
      </trkpt>
      <trkpt lat="46.13983" lon="4.40038">
        <ele>810.4</ele>
        <time>2025-09-28T08:56:34Z</time>
      </trkpt>
      <trkpt lat="46.13983" lon="4.4004">
        <ele>810.4</ele>
        <time>2025-09-28T08:56:35Z</time>
      </trkpt>
      <trkpt lat="46.13983" lon="4.40042">
        <ele>810.8</ele>
        <time>2025-09-28T08:56:36Z</time>
      </trkpt>
      <trkpt lat="46.13982" lon="4.40044">
        <ele>810.8</ele>
        <time>2025-09-28T08:56:37Z</time>
      </trkpt>
      <trkpt lat="46.13982" lon="4.40046">
        <ele>810.8</ele>
        <time>2025-09-28T08:56:38Z</time>
      </trkpt>
      <trkpt lat="46.13981" lon="4.40049">
        <ele>811</ele>
        <time>2025-09-28T08:56:39Z</time>
      </trkpt>
      <trkpt lat="46.13981" lon="4.40051">
        <ele>811</ele>
        <time>2025-09-28T08:56:40Z</time>
      </trkpt>
      <trkpt lat="46.13981" lon="4.40052">
        <ele>811.6</ele>
        <time>2025-09-28T08:56:41Z</time>
      </trkpt>
      <trkpt lat="46.1398" lon="4.40053">
        <ele>811.8</ele>
        <time>2025-09-28T08:56:42Z</time>
      </trkpt>
      <trkpt lat="46.1398" lon="4.40055">
        <ele>811.8</ele>
        <time>2025-09-28T08:56:43Z</time>
      </trkpt>
      <trkpt lat="46.13979" lon="4.40057">
        <ele>812</ele>
        <time>2025-09-28T08:56:44Z</time>
      </trkpt>
      <trkpt lat="46.13978" lon="4.40058">
        <ele>812.4</ele>
        <time>2025-09-28T08:56:45Z</time>
      </trkpt>
      <trkpt lat="46.13978" lon="4.40059">
        <ele>812.4</ele>
        <time>2025-09-28T08:56:46Z</time>
      </trkpt>
      <trkpt lat="46.13978" lon="4.4006">
        <ele>813</ele>
        <time>2025-09-28T08:56:47Z</time>
      </trkpt>
      <trkpt lat="46.13978" lon="4.40062">
        <ele>813</ele>
        <time>2025-09-28T08:56:48Z</time>
      </trkpt>
      <trkpt lat="46.13979" lon="4.40063">
        <ele>813.4</ele>
        <time>2025-09-28T08:56:49Z</time>
      </trkpt>
      <trkpt lat="46.13979" lon="4.40065">
        <ele>813.6</ele>
        <time>2025-09-28T08:56:50Z</time>
      </trkpt>
      <trkpt lat="46.13981" lon="4.40068">
        <ele>813.6</ele>
        <time>2025-09-28T08:56:51Z</time>
      </trkpt>
      <trkpt lat="46.13982" lon="4.40069">
        <ele>814</ele>
        <time>2025-09-28T08:56:52Z</time>
      </trkpt>
      <trkpt lat="46.13983" lon="4.40071">
        <ele>814</ele>
        <time>2025-09-28T08:56:53Z</time>
      </trkpt>
      <trkpt lat="46.13984" lon="4.40074">
        <ele>814.6</ele>
        <time>2025-09-28T08:56:54Z</time>
      </trkpt>
      <trkpt lat="46.13985" lon="4.40076">
        <ele>814.8</ele>
        <time>2025-09-28T08:56:55Z</time>
      </trkpt>
      <trkpt lat="46.13985" lon="4.40078">
        <ele>814.8</ele>
        <time>2025-09-28T08:56:56Z</time>
      </trkpt>
      <trkpt lat="46.13985" lon="4.40079">
        <ele>815.4</ele>
        <time>2025-09-28T08:56:57Z</time>
      </trkpt>
      <trkpt lat="46.13984" lon="4.4008">
        <ele>815.6</ele>
        <time>2025-09-28T08:56:58Z</time>
      </trkpt>
      <trkpt lat="46.13984" lon="4.4008">
        <ele>815.8</ele>
        <time>2025-09-28T08:56:59Z</time>
      </trkpt>
      <trkpt lat="46.13985" lon="4.40082">
        <ele>816.2</ele>
        <time>2025-09-28T08:57:00Z</time>
      </trkpt>
      <trkpt lat="46.13985" lon="4.40083">
        <ele>816.4</ele>
        <time>2025-09-28T08:57:01Z</time>
      </trkpt>
      <trkpt lat="46.13985" lon="4.40085">
        <ele>816.4</ele>
        <time>2025-09-28T08:57:02Z</time>
      </trkpt>
      <trkpt lat="46.13984" lon="4.40086">
        <ele>816.8</ele>
        <time>2025-09-28T08:57:03Z</time>
      </trkpt>
      <trkpt lat="46.13984" lon="4.40088">
        <ele>816.8</ele>
        <time>2025-09-28T08:57:04Z</time>
      </trkpt>
      <trkpt lat="46.13983" lon="4.40089">
        <ele>817</ele>
        <time>2025-09-28T08:57:05Z</time>
      </trkpt>
      <trkpt lat="46.13984" lon="4.4009">
        <ele>817.2</ele>
        <time>2025-09-28T08:57:06Z</time>
      </trkpt>
      <trkpt lat="46.13984" lon="4.4009">
        <ele>817.2</ele>
        <time>2025-09-28T08:57:07Z</time>
      </trkpt>
      <trkpt lat="46.13984" lon="4.40091">
        <ele>817.6</ele>
        <time>2025-09-28T08:57:08Z</time>
      </trkpt>
      <trkpt lat="46.13984" lon="4.40093">
        <ele>817.6</ele>
        <time>2025-09-28T08:57:09Z</time>
      </trkpt>
      <trkpt lat="46.13984" lon="4.40096">
        <ele>818</ele>
        <time>2025-09-28T08:57:10Z</time>
      </trkpt>
      <trkpt lat="46.13984" lon="4.40097">
        <ele>818.2</ele>
        <time>2025-09-28T08:57:11Z</time>
      </trkpt>
      <trkpt lat="46.13986" lon="4.401">
        <ele>818.6</ele>
        <time>2025-09-28T08:57:12Z</time>
      </trkpt>
      <trkpt lat="46.13987" lon="4.40102">
        <ele>818.8</ele>
        <time>2025-09-28T08:57:13Z</time>
      </trkpt>
      <trkpt lat="46.13987" lon="4.40103">
        <ele>818.8</ele>
        <time>2025-09-28T08:57:14Z</time>
      </trkpt>
      <trkpt lat="46.13987" lon="4.40104">
        <ele>818.8</ele>
        <time>2025-09-28T08:57:15Z</time>
      </trkpt>
      <trkpt lat="46.13986" lon="4.40106">
        <ele>819.4</ele>
        <time>2025-09-28T08:57:16Z</time>
      </trkpt>
      <trkpt lat="46.13986" lon="4.40107">
        <ele>819.4</ele>
        <time>2025-09-28T08:57:17Z</time>
      </trkpt>
      <trkpt lat="46.13984" lon="4.40109">
        <ele>819.6</ele>
        <time>2025-09-28T08:57:18Z</time>
      </trkpt>
      <trkpt lat="46.13983" lon="4.40109">
        <ele>819.6</ele>
        <time>2025-09-28T08:57:19Z</time>
      </trkpt>
      <trkpt lat="46.13984" lon="4.40116">
        <ele>820.8</ele>
        <time>2025-09-28T08:57:31Z</time>
      </trkpt>
      <trkpt lat="46.13985" lon="4.40118">
        <ele>820.8</ele>
        <time>2025-09-28T08:57:32Z</time>
      </trkpt>
      <trkpt lat="46.13986" lon="4.40119">
        <ele>821</ele>
        <time>2025-09-28T08:57:33Z</time>
      </trkpt>
      <trkpt lat="46.13987" lon="4.40121">
        <ele>821</ele>
        <time>2025-09-28T08:57:34Z</time>
      </trkpt>
      <trkpt lat="46.13987" lon="4.40122">
        <ele>821</ele>
        <time>2025-09-28T08:57:35Z</time>
      </trkpt>
      <trkpt lat="46.13986" lon="4.40123">
        <ele>821.4</ele>
        <time>2025-09-28T08:57:36Z</time>
      </trkpt>
      <trkpt lat="46.13986" lon="4.40123">
        <ele>821.4</ele>
        <time>2025-09-28T08:57:37Z</time>
      </trkpt>
      <trkpt lat="46.13986" lon="4.40124">
        <ele>821.6</ele>
        <time>2025-09-28T08:57:38Z</time>
      </trkpt>
      <trkpt lat="46.13986" lon="4.40125">
        <ele>821.6</ele>
        <time>2025-09-28T08:57:39Z</time>
      </trkpt>
      <trkpt lat="46.13986" lon="4.40126">
        <ele>821.6</ele>
        <time>2025-09-28T08:57:40Z</time>
      </trkpt>
      <trkpt lat="46.13986" lon="4.40127">
        <ele>822</ele>
        <time>2025-09-28T08:57:41Z</time>
      </trkpt>
      <trkpt lat="46.13986" lon="4.40127">
        <ele>822</ele>
        <time>2025-09-28T08:57:42Z</time>
      </trkpt>
      <trkpt lat="46.13986" lon="4.40127">
        <ele>822.2</ele>
        <time>2025-09-28T08:57:43Z</time>
      </trkpt>
      <trkpt lat="46.13986" lon="4.40133">
        <ele>822.6</ele>
        <time>2025-09-28T08:57:46Z</time>
      </trkpt>
      <trkpt lat="46.13988" lon="4.40134">
        <ele>822.8</ele>
        <time>2025-09-28T08:57:47Z</time>
      </trkpt>
      <trkpt lat="46.13988" lon="4.40136">
        <ele>822.8</ele>
        <time>2025-09-28T08:57:48Z</time>
      </trkpt>
      <trkpt lat="46.13989" lon="4.40137">
        <ele>823</ele>
        <time>2025-09-28T08:57:49Z</time>
      </trkpt>
      <trkpt lat="46.13989" lon="4.40139">
        <ele>823</ele>
        <time>2025-09-28T08:57:50Z</time>
      </trkpt>
      <trkpt lat="46.1399" lon="4.40141">
        <ele>823.2</ele>
        <time>2025-09-28T08:57:51Z</time>
      </trkpt>
      <trkpt lat="46.13989" lon="4.40143">
        <ele>823.2</ele>
        <time>2025-09-28T08:57:52Z</time>
      </trkpt>
      <trkpt lat="46.13989" lon="4.40144">
        <ele>823.6</ele>
        <time>2025-09-28T08:57:53Z</time>
      </trkpt>
      <trkpt lat="46.13989" lon="4.40146">
        <ele>823.6</ele>
        <time>2025-09-28T08:57:54Z</time>
      </trkpt>
      <trkpt lat="46.1399" lon="4.40148">
        <ele>823.8</ele>
        <time>2025-09-28T08:57:55Z</time>
      </trkpt>
      <trkpt lat="46.1399" lon="4.40149">
        <ele>824</ele>
        <time>2025-09-28T08:57:56Z</time>
      </trkpt>
      <trkpt lat="46.1399" lon="4.40152">
        <ele>824</ele>
        <time>2025-09-28T08:57:57Z</time>
      </trkpt>
      <trkpt lat="46.1399" lon="4.40155">
        <ele>824.4</ele>
        <time>2025-09-28T08:57:58Z</time>
      </trkpt>
      <trkpt lat="46.1399" lon="4.40156">
        <ele>824.8</ele>
        <time>2025-09-28T08:57:59Z</time>
      </trkpt>
      <trkpt lat="46.1399" lon="4.40158">
        <ele>824.8</ele>
        <time>2025-09-28T08:58:00Z</time>
      </trkpt>
      <trkpt lat="46.13991" lon="4.4016">
        <ele>825.2</ele>
        <time>2025-09-28T08:58:01Z</time>
      </trkpt>
      <trkpt lat="46.13992" lon="4.40161">
        <ele>825.2</ele>
        <time>2025-09-28T08:58:02Z</time>
      </trkpt>
      <trkpt lat="46.13991" lon="4.40162">
        <ele>825.4</ele>
        <time>2025-09-28T08:58:03Z</time>
      </trkpt>
      <trkpt lat="46.13991" lon="4.40163">
        <ele>825.8</ele>
        <time>2025-09-28T08:58:04Z</time>
      </trkpt>
      <trkpt lat="46.13991" lon="4.40165">
        <ele>825.8</ele>
        <time>2025-09-28T08:58:05Z</time>
      </trkpt>
      <trkpt lat="46.13991" lon="4.40167">
        <ele>826</ele>
        <time>2025-09-28T08:58:06Z</time>
      </trkpt>
      <trkpt lat="46.13991" lon="4.40169">
        <ele>826.2</ele>
        <time>2025-09-28T08:58:07Z</time>
      </trkpt>
      <trkpt lat="46.13991" lon="4.40171">
        <ele>826.2</ele>
        <time>2025-09-28T08:58:08Z</time>
      </trkpt>
      <trkpt lat="46.13991" lon="4.40173">
        <ele>826.4</ele>
        <time>2025-09-28T08:58:09Z</time>
      </trkpt>
      <trkpt lat="46.13992" lon="4.40174">
        <ele>826.6</ele>
        <time>2025-09-28T08:58:10Z</time>
      </trkpt>
      <trkpt lat="46.13991" lon="4.40176">
        <ele>827</ele>
        <time>2025-09-28T08:58:11Z</time>
      </trkpt>
      <trkpt lat="46.13992" lon="4.40177">
        <ele>827</ele>
        <time>2025-09-28T08:58:12Z</time>
      </trkpt>
      <trkpt lat="46.13991" lon="4.40178">
        <ele>827.2</ele>
        <time>2025-09-28T08:58:13Z</time>
      </trkpt>
      <trkpt lat="46.13991" lon="4.4018">
        <ele>827.4</ele>
        <time>2025-09-28T08:58:14Z</time>
      </trkpt>
      <trkpt lat="46.13991" lon="4.40181">
        <ele>827.8</ele>
        <time>2025-09-28T08:58:15Z</time>
      </trkpt>
      <trkpt lat="46.13991" lon="4.40183">
        <ele>827.8</ele>
        <time>2025-09-28T08:58:16Z</time>
      </trkpt>
      <trkpt lat="46.13992" lon="4.40184">
        <ele>828</ele>
        <time>2025-09-28T08:58:17Z</time>
      </trkpt>
      <trkpt lat="46.13992" lon="4.40185">
        <ele>828</ele>
        <time>2025-09-28T08:58:18Z</time>
      </trkpt>
      <trkpt lat="46.13993" lon="4.40186">
        <ele>828</ele>
        <time>2025-09-28T08:58:19Z</time>
      </trkpt>
      <trkpt lat="46.13994" lon="4.40187">
        <ele>828.4</ele>
        <time>2025-09-28T08:58:20Z</time>
      </trkpt>
      <trkpt lat="46.13994" lon="4.40188">
        <ele>828.4</ele>
        <time>2025-09-28T08:58:21Z</time>
      </trkpt>
      <trkpt lat="46.13995" lon="4.40189">
        <ele>828.6</ele>
        <time>2025-09-28T08:58:22Z</time>
      </trkpt>
      <trkpt lat="46.13995" lon="4.4019">
        <ele>828.6</ele>
        <time>2025-09-28T08:58:23Z</time>
      </trkpt>
      <trkpt lat="46.13995" lon="4.40191">
        <ele>829</ele>
        <time>2025-09-28T08:58:24Z</time>
      </trkpt>
      <trkpt lat="46.13995" lon="4.40191">
        <ele>829.4</ele>
        <time>2025-09-28T08:58:25Z</time>
      </trkpt>
      <trkpt lat="46.13994" lon="4.40192">
        <ele>829.6</ele>
        <time>2025-09-28T08:58:26Z</time>
      </trkpt>
      <trkpt lat="46.13994" lon="4.40193">
        <ele>829.8</ele>
        <time>2025-09-28T08:58:27Z</time>
      </trkpt>
      <trkpt lat="46.13994" lon="4.40194">
        <ele>829.8</ele>
        <time>2025-09-28T08:58:28Z</time>
      </trkpt>
      <trkpt lat="46.13996" lon="4.40194">
        <ele>829.8</ele>
        <time>2025-09-28T08:58:29Z</time>
      </trkpt>
      <trkpt lat="46.13997" lon="4.40195">
        <ele>830.2</ele>
        <time>2025-09-28T08:58:30Z</time>
      </trkpt>
      <trkpt lat="46.13997" lon="4.40196">
        <ele>830.2</ele>
        <time>2025-09-28T08:58:31Z</time>
      </trkpt>
      <trkpt lat="46.13997" lon="4.40198">
        <ele>830.6</ele>
        <time>2025-09-28T08:58:32Z</time>
      </trkpt>
      <trkpt lat="46.13998" lon="4.402">
        <ele>830.6</ele>
        <time>2025-09-28T08:58:33Z</time>
      </trkpt>
      <trkpt lat="46.13999" lon="4.402">
        <ele>831</ele>
        <time>2025-09-28T08:58:34Z</time>
      </trkpt>
      <trkpt lat="46.14" lon="4.40201">
        <ele>831</ele>
        <time>2025-09-28T08:58:35Z</time>
      </trkpt>
      <trkpt lat="46.14" lon="4.40201">
        <ele>831.4</ele>
        <time>2025-09-28T08:58:36Z</time>
      </trkpt>
      <trkpt lat="46.14001" lon="4.40202">
        <ele>831.6</ele>
        <time>2025-09-28T08:58:37Z</time>
      </trkpt>
      <trkpt lat="46.14001" lon="4.40204">
        <ele>831.6</ele>
        <time>2025-09-28T08:58:38Z</time>
      </trkpt>
      <trkpt lat="46.14001" lon="4.40205">
        <ele>832</ele>
        <time>2025-09-28T08:58:39Z</time>
      </trkpt>
      <trkpt lat="46.14001" lon="4.40206">
        <ele>832.4</ele>
        <time>2025-09-28T08:58:40Z</time>
      </trkpt>
      <trkpt lat="46.14001" lon="4.40208">
        <ele>832.6</ele>
        <time>2025-09-28T08:58:41Z</time>
      </trkpt>
      <trkpt lat="46.14002" lon="4.40209">
        <ele>832.6</ele>
        <time>2025-09-28T08:58:42Z</time>
      </trkpt>
      <trkpt lat="46.14002" lon="4.40209">
        <ele>832.6</ele>
        <time>2025-09-28T08:58:43Z</time>
      </trkpt>
      <trkpt lat="46.14002" lon="4.4021">
        <ele>832.8</ele>
        <time>2025-09-28T08:58:44Z</time>
      </trkpt>
      <trkpt lat="46.14003" lon="4.40211">
        <ele>833.2</ele>
        <time>2025-09-28T08:58:45Z</time>
      </trkpt>
      <trkpt lat="46.14003" lon="4.40213">
        <ele>833.6</ele>
        <time>2025-09-28T08:58:46Z</time>
      </trkpt>
      <trkpt lat="46.14003" lon="4.40214">
        <ele>833.6</ele>
        <time>2025-09-28T08:58:47Z</time>
      </trkpt>
      <trkpt lat="46.14003" lon="4.40216">
        <ele>834</ele>
        <time>2025-09-28T08:58:48Z</time>
      </trkpt>
      <trkpt lat="46.14004" lon="4.40217">
        <ele>834.2</ele>
        <time>2025-09-28T08:58:49Z</time>
      </trkpt>
      <trkpt lat="46.14004" lon="4.40218">
        <ele>834.6</ele>
        <time>2025-09-28T08:58:50Z</time>
      </trkpt>
      <trkpt lat="46.14004" lon="4.4022">
        <ele>834.8</ele>
        <time>2025-09-28T08:58:51Z</time>
      </trkpt>
      <trkpt lat="46.14004" lon="4.40221">
        <ele>834.8</ele>
        <time>2025-09-28T08:58:52Z</time>
      </trkpt>
      <trkpt lat="46.14004" lon="4.40223">
        <ele>834.8</ele>
        <time>2025-09-28T08:58:53Z</time>
      </trkpt>
      <trkpt lat="46.14004" lon="4.40225">
        <ele>835.4</ele>
        <time>2025-09-28T08:58:54Z</time>
      </trkpt>
      <trkpt lat="46.14004" lon="4.40226">
        <ele>835.4</ele>
        <time>2025-09-28T08:58:55Z</time>
      </trkpt>
      <trkpt lat="46.14004" lon="4.40226">
        <ele>835.8</ele>
        <time>2025-09-28T08:58:56Z</time>
      </trkpt>
      <trkpt lat="46.14004" lon="4.40227">
        <ele>836</ele>
        <time>2025-09-28T08:58:57Z</time>
      </trkpt>
      <trkpt lat="46.14004" lon="4.40227">
        <ele>836.2</ele>
        <time>2025-09-28T08:58:58Z</time>
      </trkpt>
      <trkpt lat="46.14004" lon="4.40227">
        <ele>836.2</ele>
        <time>2025-09-28T08:58:59Z</time>
      </trkpt>
      <trkpt lat="46.14004" lon="4.40229">
        <ele>836.6</ele>
        <time>2025-09-28T08:59:00Z</time>
      </trkpt>
      <trkpt lat="46.14004" lon="4.4023">
        <ele>836.6</ele>
        <time>2025-09-28T08:59:01Z</time>
      </trkpt>
      <trkpt lat="46.14004" lon="4.40231">
        <ele>836.8</ele>
        <time>2025-09-28T08:59:02Z</time>
      </trkpt>
      <trkpt lat="46.14004" lon="4.40233">
        <ele>836.8</ele>
        <time>2025-09-28T08:59:03Z</time>
      </trkpt>
      <trkpt lat="46.14004" lon="4.40235">
        <ele>837</ele>
        <time>2025-09-28T08:59:04Z</time>
      </trkpt>
      <trkpt lat="46.14004" lon="4.40236">
        <ele>837</ele>
        <time>2025-09-28T08:59:05Z</time>
      </trkpt>
      <trkpt lat="46.14004" lon="4.40237">
        <ele>837.4</ele>
        <time>2025-09-28T08:59:06Z</time>
      </trkpt>
      <trkpt lat="46.14004" lon="4.40238">
        <ele>837.6</ele>
        <time>2025-09-28T08:59:07Z</time>
      </trkpt>
      <trkpt lat="46.14004" lon="4.40239">
        <ele>837.6</ele>
        <time>2025-09-28T08:59:08Z</time>
      </trkpt>
      <trkpt lat="46.14004" lon="4.4024">
        <ele>838</ele>
        <time>2025-09-28T08:59:09Z</time>
      </trkpt>
      <trkpt lat="46.14004" lon="4.40241">
        <ele>838.2</ele>
        <time>2025-09-28T08:59:10Z</time>
      </trkpt>
      <trkpt lat="46.14005" lon="4.40243">
        <ele>838.2</ele>
        <time>2025-09-28T08:59:11Z</time>
      </trkpt>
      <trkpt lat="46.14006" lon="4.40244">
        <ele>838.6</ele>
        <time>2025-09-28T08:59:12Z</time>
      </trkpt>
      <trkpt lat="46.14006" lon="4.40245">
        <ele>838.8</ele>
        <time>2025-09-28T08:59:13Z</time>
      </trkpt>
      <trkpt lat="46.14007" lon="4.40247">
        <ele>838.8</ele>
        <time>2025-09-28T08:59:14Z</time>
      </trkpt>
      <trkpt lat="46.14007" lon="4.40249">
        <ele>838.8</ele>
        <time>2025-09-28T08:59:15Z</time>
      </trkpt>
      <trkpt lat="46.14007" lon="4.4025">
        <ele>839</ele>
        <time>2025-09-28T08:59:16Z</time>
      </trkpt>
      <trkpt lat="46.14007" lon="4.40251">
        <ele>839.2</ele>
        <time>2025-09-28T08:59:17Z</time>
      </trkpt>
      <trkpt lat="46.14007" lon="4.40252">
        <ele>839.4</ele>
        <time>2025-09-28T08:59:18Z</time>
      </trkpt>
      <trkpt lat="46.14008" lon="4.40253">
        <ele>839.4</ele>
        <time>2025-09-28T08:59:19Z</time>
      </trkpt>
      <trkpt lat="46.14008" lon="4.40253">
        <ele>839.8</ele>
        <time>2025-09-28T08:59:20Z</time>
      </trkpt>
      <trkpt lat="46.14009" lon="4.40254">
        <ele>839.8</ele>
        <time>2025-09-28T08:59:21Z</time>
      </trkpt>
      <trkpt lat="46.14009" lon="4.40256">
        <ele>840.2</ele>
        <time>2025-09-28T08:59:22Z</time>
      </trkpt>
      <trkpt lat="46.1401" lon="4.40257">
        <ele>840.2</ele>
        <time>2025-09-28T08:59:23Z</time>
      </trkpt>
      <trkpt lat="46.14011" lon="4.40259">
        <ele>840.6</ele>
        <time>2025-09-28T08:59:24Z</time>
      </trkpt>
      <trkpt lat="46.14011" lon="4.40261">
        <ele>840.6</ele>
        <time>2025-09-28T08:59:25Z</time>
      </trkpt>
      <trkpt lat="46.14011" lon="4.40263">
        <ele>840.6</ele>
        <time>2025-09-28T08:59:26Z</time>
      </trkpt>
      <trkpt lat="46.14011" lon="4.40265">
        <ele>840.6</ele>
        <time>2025-09-28T08:59:27Z</time>
      </trkpt>
      <trkpt lat="46.14012" lon="4.40266">
        <ele>841</ele>
        <time>2025-09-28T08:59:28Z</time>
      </trkpt>
      <trkpt lat="46.14012" lon="4.40267">
        <ele>841.2</ele>
        <time>2025-09-28T08:59:29Z</time>
      </trkpt>
      <trkpt lat="46.14013" lon="4.40269">
        <ele>841.2</ele>
        <time>2025-09-28T08:59:30Z</time>
      </trkpt>
      <trkpt lat="46.14013" lon="4.4027">
        <ele>841.6</ele>
        <time>2025-09-28T08:59:31Z</time>
      </trkpt>
      <trkpt lat="46.14014" lon="4.4027">
        <ele>841.6</ele>
        <time>2025-09-28T08:59:32Z</time>
      </trkpt>
      <trkpt lat="46.14014" lon="4.40271">
        <ele>841.6</ele>
        <time>2025-09-28T08:59:33Z</time>
      </trkpt>
      <trkpt lat="46.14015" lon="4.40272">
        <ele>841.8</ele>
        <time>2025-09-28T08:59:34Z</time>
      </trkpt>
      <trkpt lat="46.14015" lon="4.40272">
        <ele>841.8</ele>
        <time>2025-09-28T08:59:35Z</time>
      </trkpt>
      <trkpt lat="46.14016" lon="4.40273">
        <ele>841.8</ele>
        <time>2025-09-28T08:59:36Z</time>
      </trkpt>
      <trkpt lat="46.14016" lon="4.40274">
        <ele>842.2</ele>
        <time>2025-09-28T08:59:37Z</time>
      </trkpt>
      <trkpt lat="46.14017" lon="4.40275">
        <ele>842.4</ele>
        <time>2025-09-28T08:59:38Z</time>
      </trkpt>
      <trkpt lat="46.14018" lon="4.40274">
        <ele>842.4</ele>
        <time>2025-09-28T08:59:39Z</time>
      </trkpt>
      <trkpt lat="46.14019" lon="4.40274">
        <ele>842.4</ele>
        <time>2025-09-28T08:59:40Z</time>
      </trkpt>
      <trkpt lat="46.14019" lon="4.40275">
        <ele>842.8</ele>
        <time>2025-09-28T08:59:41Z</time>
      </trkpt>
      <trkpt lat="46.1402" lon="4.40275">
        <ele>843.2</ele>
        <time>2025-09-28T08:59:42Z</time>
      </trkpt>
      <trkpt lat="46.1402" lon="4.40276">
        <ele>843.2</ele>
        <time>2025-09-28T08:59:43Z</time>
      </trkpt>
      <trkpt lat="46.14021" lon="4.40278">
        <ele>843.4</ele>
        <time>2025-09-28T08:59:44Z</time>
      </trkpt>
      <trkpt lat="46.14023" lon="4.4028">
        <ele>843.4</ele>
        <time>2025-09-28T08:59:45Z</time>
      </trkpt>
      <trkpt lat="46.14024" lon="4.40282">
        <ele>843.8</ele>
        <time>2025-09-28T08:59:46Z</time>
      </trkpt>
      <trkpt lat="46.14026" lon="4.40283">
        <ele>843.8</ele>
        <time>2025-09-28T08:59:47Z</time>
      </trkpt>
      <trkpt lat="46.14026" lon="4.40284">
        <ele>844</ele>
        <time>2025-09-28T08:59:48Z</time>
      </trkpt>
      <trkpt lat="46.14026" lon="4.40285">
        <ele>844</ele>
        <time>2025-09-28T08:59:49Z</time>
      </trkpt>
      <trkpt lat="46.14026" lon="4.40286">
        <ele>844.6</ele>
        <time>2025-09-28T08:59:50Z</time>
      </trkpt>
      <trkpt lat="46.14026" lon="4.40287">
        <ele>844.6</ele>
        <time>2025-09-28T08:59:51Z</time>
      </trkpt>
      <trkpt lat="46.14025" lon="4.40288">
        <ele>844.8</ele>
        <time>2025-09-28T08:59:52Z</time>
      </trkpt>
      <trkpt lat="46.14025" lon="4.40288">
        <ele>844.8</ele>
        <time>2025-09-28T08:59:53Z</time>
      </trkpt>
      <trkpt lat="46.14024" lon="4.40288">
        <ele>844.8</ele>
        <time>2025-09-28T08:59:54Z</time>
      </trkpt>
      <trkpt lat="46.14024" lon="4.40294">
        <ele>844.6</ele>
        <time>2025-09-28T09:00:03Z</time>
      </trkpt>
      <trkpt lat="46.14025" lon="4.40297">
        <ele>845</ele>
        <time>2025-09-28T09:00:04Z</time>
      </trkpt>
      <trkpt lat="46.14026" lon="4.403">
        <ele>845.2</ele>
        <time>2025-09-28T09:00:05Z</time>
      </trkpt>
      <trkpt lat="46.14027" lon="4.40301">
        <ele>845.2</ele>
        <time>2025-09-28T09:00:06Z</time>
      </trkpt>
      <trkpt lat="46.14027" lon="4.40301">
        <ele>845.6</ele>
        <time>2025-09-28T09:00:07Z</time>
      </trkpt>
      <trkpt lat="46.14027" lon="4.40302">
        <ele>846</ele>
        <time>2025-09-28T09:00:08Z</time>
      </trkpt>
      <trkpt lat="46.14027" lon="4.40305">
        <ele>846</ele>
        <time>2025-09-28T09:00:09Z</time>
      </trkpt>
      <trkpt lat="46.14027" lon="4.40307">
        <ele>846.2</ele>
        <time>2025-09-28T09:00:10Z</time>
      </trkpt>
      <trkpt lat="46.14027" lon="4.40309">
        <ele>846.4</ele>
        <time>2025-09-28T09:00:11Z</time>
      </trkpt>
      <trkpt lat="46.14028" lon="4.40312">
        <ele>846.4</ele>
        <time>2025-09-28T09:00:12Z</time>
      </trkpt>
      <trkpt lat="46.14029" lon="4.40314">
        <ele>846.8</ele>
        <time>2025-09-28T09:00:13Z</time>
      </trkpt>
      <trkpt lat="46.1403" lon="4.40316">
        <ele>847.2</ele>
        <time>2025-09-28T09:00:14Z</time>
      </trkpt>
      <trkpt lat="46.1403" lon="4.40319">
        <ele>847.6</ele>
        <time>2025-09-28T09:00:15Z</time>
      </trkpt>
      <trkpt lat="46.14031" lon="4.40321">
        <ele>847.8</ele>
        <time>2025-09-28T09:00:16Z</time>
      </trkpt>
      <trkpt lat="46.14031" lon="4.40324">
        <ele>848.2</ele>
        <time>2025-09-28T09:00:17Z</time>
      </trkpt>
      <trkpt lat="46.14032" lon="4.40326">
        <ele>848.4</ele>
        <time>2025-09-28T09:00:18Z</time>
      </trkpt>
      <trkpt lat="46.14032" lon="4.40328">
        <ele>848.4</ele>
        <time>2025-09-28T09:00:19Z</time>
      </trkpt>
      <trkpt lat="46.14033" lon="4.40329">
        <ele>848.8</ele>
        <time>2025-09-28T09:00:20Z</time>
      </trkpt>
      <trkpt lat="46.14034" lon="4.40331">
        <ele>848.8</ele>
        <time>2025-09-28T09:00:21Z</time>
      </trkpt>
      <trkpt lat="46.14034" lon="4.40333">
        <ele>849</ele>
        <time>2025-09-28T09:00:22Z</time>
      </trkpt>
      <trkpt lat="46.14035" lon="4.40334">
        <ele>849.4</ele>
        <time>2025-09-28T09:00:23Z</time>
      </trkpt>
      <trkpt lat="46.14035" lon="4.40335">
        <ele>849.4</ele>
        <time>2025-09-28T09:00:24Z</time>
      </trkpt>
      <trkpt lat="46.14036" lon="4.40335">
        <ele>849.4</ele>
        <time>2025-09-28T09:00:25Z</time>
      </trkpt>
      <trkpt lat="46.14036" lon="4.40335">
        <ele>849.4</ele>
        <time>2025-09-28T09:00:26Z</time>
      </trkpt>
      <trkpt lat="46.14035" lon="4.4034">
        <ele>849.4</ele>
        <time>2025-09-28T09:00:44Z</time>
      </trkpt>
      <trkpt lat="46.14036" lon="4.40342">
        <ele>849.8</ele>
        <time>2025-09-28T09:00:45Z</time>
      </trkpt>
      <trkpt lat="46.14036" lon="4.40344">
        <ele>850</ele>
        <time>2025-09-28T09:00:46Z</time>
      </trkpt>
      <trkpt lat="46.14036" lon="4.40346">
        <ele>850</ele>
        <time>2025-09-28T09:00:47Z</time>
      </trkpt>
      <trkpt lat="46.14037" lon="4.40348">
        <ele>850.2</ele>
        <time>2025-09-28T09:00:48Z</time>
      </trkpt>
      <trkpt lat="46.14037" lon="4.4035">
        <ele>850.2</ele>
        <time>2025-09-28T09:00:49Z</time>
      </trkpt>
      <trkpt lat="46.14037" lon="4.40351">
        <ele>850.2</ele>
        <time>2025-09-28T09:00:50Z</time>
      </trkpt>
      <trkpt lat="46.14038" lon="4.40353">
        <ele>850.2</ele>
        <time>2025-09-28T09:00:51Z</time>
      </trkpt>
      <trkpt lat="46.14038" lon="4.40355">
        <ele>850.6</ele>
        <time>2025-09-28T09:00:52Z</time>
      </trkpt>
      <trkpt lat="46.14037" lon="4.40357">
        <ele>850.6</ele>
        <time>2025-09-28T09:00:53Z</time>
      </trkpt>
      <trkpt lat="46.14037" lon="4.40358">
        <ele>850.2</ele>
        <time>2025-09-28T09:00:54Z</time>
      </trkpt>
      <trkpt lat="46.14038" lon="4.40359">
        <ele>850.2</ele>
        <time>2025-09-28T09:00:55Z</time>
      </trkpt>
      <trkpt lat="46.14039" lon="4.40359">
        <ele>850.6</ele>
        <time>2025-09-28T09:00:56Z</time>
      </trkpt>
      <trkpt lat="46.1404" lon="4.40358">
        <ele>850.8</ele>
        <time>2025-09-28T09:00:57Z</time>
      </trkpt>
      <trkpt lat="46.14041" lon="4.40357">
        <ele>850.8</ele>
        <time>2025-09-28T09:00:58Z</time>
      </trkpt>
      <trkpt lat="46.14041" lon="4.40356">
        <ele>851</ele>
        <time>2025-09-28T09:00:59Z</time>
      </trkpt>
      <trkpt lat="46.14042" lon="4.40354">
        <ele>850.8</ele>
        <time>2025-09-28T09:01:00Z</time>
      </trkpt>
      <trkpt lat="46.14042" lon="4.40352">
        <ele>850.8</ele>
        <time>2025-09-28T09:01:01Z</time>
      </trkpt>
      <trkpt lat="46.14041" lon="4.40349">
        <ele>850.8</ele>
        <time>2025-09-28T09:01:02Z</time>
      </trkpt>
      <trkpt lat="46.14041" lon="4.40346">
        <ele>850.4</ele>
        <time>2025-09-28T09:01:03Z</time>
      </trkpt>
      <trkpt lat="46.14041" lon="4.40344">
        <ele>850.6</ele>
        <time>2025-09-28T09:01:04Z</time>
      </trkpt>
      <trkpt lat="46.14041" lon="4.40339">
        <ele>850.6</ele>
        <time>2025-09-28T09:01:05Z</time>
      </trkpt>
      <trkpt lat="46.14043" lon="4.40335">
        <ele>850.6</ele>
        <time>2025-09-28T09:01:06Z</time>
      </trkpt>
      <trkpt lat="46.14046" lon="4.40331">
        <ele>850.6</ele>
        <time>2025-09-28T09:01:07Z</time>
      </trkpt>
      <trkpt lat="46.14056" lon="4.40325">
        <ele>850.6</ele>
        <time>2025-09-28T09:01:08Z</time>
      </trkpt>
      <trkpt lat="46.14056" lon="4.4032">
        <ele>850.6</ele>
        <time>2025-09-28T09:01:09Z</time>
      </trkpt>
      <trkpt lat="46.14059" lon="4.40315">
        <ele>850.2</ele>
        <time>2025-09-28T09:01:10Z</time>
      </trkpt>
      <trkpt lat="46.1406" lon="4.4031">
        <ele>850.2</ele>
        <time>2025-09-28T09:01:11Z</time>
      </trkpt>
      <trkpt lat="46.14062" lon="4.40305">
        <ele>850</ele>
        <time>2025-09-28T09:01:12Z</time>
      </trkpt>
      <trkpt lat="46.14065" lon="4.40299">
        <ele>850</ele>
        <time>2025-09-28T09:01:13Z</time>
      </trkpt>
      <trkpt lat="46.14068" lon="4.40294">
        <ele>850</ele>
        <time>2025-09-28T09:01:14Z</time>
      </trkpt>
      <trkpt lat="46.14069" lon="4.4029">
        <ele>850</ele>
        <time>2025-09-28T09:01:15Z</time>
      </trkpt>
      <trkpt lat="46.14073" lon="4.40283">
        <ele>850</ele>
        <time>2025-09-28T09:01:16Z</time>
      </trkpt>
      <trkpt lat="46.14076" lon="4.40277">
        <ele>850.4</ele>
        <time>2025-09-28T09:01:17Z</time>
      </trkpt>
      <trkpt lat="46.14078" lon="4.40272">
        <ele>850.4</ele>
        <time>2025-09-28T09:01:18Z</time>
      </trkpt>
      <trkpt lat="46.14082" lon="4.40265">
        <ele>850.4</ele>
        <time>2025-09-28T09:01:19Z</time>
      </trkpt>
      <trkpt lat="46.14084" lon="4.40259">
        <ele>850.4</ele>
        <time>2025-09-28T09:01:20Z</time>
      </trkpt>
      <trkpt lat="46.14088" lon="4.40251">
        <ele>850.4</ele>
        <time>2025-09-28T09:01:21Z</time>
      </trkpt>
      <trkpt lat="46.14091" lon="4.40245">
        <ele>850</ele>
        <time>2025-09-28T09:01:22Z</time>
      </trkpt>
      <trkpt lat="46.14094" lon="4.4024">
        <ele>850</ele>
        <time>2025-09-28T09:01:23Z</time>
      </trkpt>
      <trkpt lat="46.14098" lon="4.40233">
        <ele>849.8</ele>
        <time>2025-09-28T09:01:24Z</time>
      </trkpt>
      <trkpt lat="46.141" lon="4.40228">
        <ele>849.8</ele>
        <time>2025-09-28T09:01:25Z</time>
      </trkpt>
      <trkpt lat="46.14102" lon="4.40223">
        <ele>849.8</ele>
        <time>2025-09-28T09:01:26Z</time>
      </trkpt>
      <trkpt lat="46.14103" lon="4.40217">
        <ele>849.8</ele>
        <time>2025-09-28T09:01:27Z</time>
      </trkpt>
      <trkpt lat="46.14106" lon="4.4021">
        <ele>849.2</ele>
        <time>2025-09-28T09:01:28Z</time>
      </trkpt>
      <trkpt lat="46.14109" lon="4.40206">
        <ele>849.8</ele>
        <time>2025-09-28T09:01:29Z</time>
      </trkpt>
      <trkpt lat="46.14111" lon="4.40199">
        <ele>849.8</ele>
        <time>2025-09-28T09:01:30Z</time>
      </trkpt>
      <trkpt lat="46.14114" lon="4.40193">
        <ele>850.2</ele>
        <time>2025-09-28T09:01:31Z</time>
      </trkpt>
      <trkpt lat="46.14116" lon="4.40187">
        <ele>850.2</ele>
        <time>2025-09-28T09:01:32Z</time>
      </trkpt>
      <trkpt lat="46.14118" lon="4.40181">
        <ele>850.2</ele>
        <time>2025-09-28T09:01:33Z</time>
      </trkpt>
      <trkpt lat="46.14121" lon="4.40175">
        <ele>850.6</ele>
        <time>2025-09-28T09:01:34Z</time>
      </trkpt>
      <trkpt lat="46.14122" lon="4.40169">
        <ele>851</ele>
        <time>2025-09-28T09:01:35Z</time>
      </trkpt>
      <trkpt lat="46.14125" lon="4.40164">
        <ele>851</ele>
        <time>2025-09-28T09:01:36Z</time>
      </trkpt>
      <trkpt lat="46.14127" lon="4.40159">
        <ele>849</ele>
        <time>2025-09-28T09:01:37Z</time>
      </trkpt>
      <trkpt lat="46.14129" lon="4.40154">
        <ele>850.4</ele>
        <time>2025-09-28T09:01:38Z</time>
      </trkpt>
      <trkpt lat="46.14129" lon="4.40149">
        <ele>851.4</ele>
        <time>2025-09-28T09:01:39Z</time>
      </trkpt>
      <trkpt lat="46.14131" lon="4.40145">
        <ele>850.8</ele>
        <time>2025-09-28T09:01:40Z</time>
      </trkpt>
      <trkpt lat="46.14133" lon="4.40141">
        <ele>851.4</ele>
        <time>2025-09-28T09:01:41Z</time>
      </trkpt>
      <trkpt lat="46.14135" lon="4.40137">
        <ele>851.8</ele>
        <time>2025-09-28T09:01:42Z</time>
      </trkpt>
      <trkpt lat="46.14136" lon="4.40133">
        <ele>852.4</ele>
        <time>2025-09-28T09:01:43Z</time>
      </trkpt>
      <trkpt lat="46.14138" lon="4.40129">
        <ele>852.8</ele>
        <time>2025-09-28T09:01:44Z</time>
      </trkpt>
      <trkpt lat="46.1414" lon="4.40124">
        <ele>853.6</ele>
        <time>2025-09-28T09:01:45Z</time>
      </trkpt>
      <trkpt lat="46.14142" lon="4.4012">
        <ele>854</ele>
        <time>2025-09-28T09:01:46Z</time>
      </trkpt>
      <trkpt lat="46.14143" lon="4.40115">
        <ele>854.2</ele>
        <time>2025-09-28T09:01:47Z</time>
      </trkpt>
      <trkpt lat="46.14145" lon="4.40109">
        <ele>854.2</ele>
        <time>2025-09-28T09:01:48Z</time>
      </trkpt>
      <trkpt lat="46.14146" lon="4.40105">
        <ele>853.8</ele>
        <time>2025-09-28T09:01:49Z</time>
      </trkpt>
      <trkpt lat="46.14147" lon="4.40098">
        <ele>854.4</ele>
        <time>2025-09-28T09:01:50Z</time>
      </trkpt>
      <trkpt lat="46.1415" lon="4.40092">
        <ele>854.4</ele>
        <time>2025-09-28T09:01:51Z</time>
      </trkpt>
      <trkpt lat="46.14151" lon="4.40086">
        <ele>854</ele>
        <time>2025-09-28T09:01:52Z</time>
      </trkpt>
      <trkpt lat="46.14153" lon="4.4008">
        <ele>854</ele>
        <time>2025-09-28T09:01:53Z</time>
      </trkpt>
      <trkpt lat="46.14155" lon="4.40073">
        <ele>854</ele>
        <time>2025-09-28T09:01:54Z</time>
      </trkpt>
      <trkpt lat="46.14157" lon="4.40068">
        <ele>854.2</ele>
        <time>2025-09-28T09:01:55Z</time>
      </trkpt>
      <trkpt lat="46.1416" lon="4.40062">
        <ele>854.2</ele>
        <time>2025-09-28T09:01:56Z</time>
      </trkpt>
      <trkpt lat="46.14163" lon="4.40056">
        <ele>854.2</ele>
        <time>2025-09-28T09:01:57Z</time>
      </trkpt>
      <trkpt lat="46.14165" lon="4.40051">
        <ele>852.8</ele>
        <time>2025-09-28T09:01:58Z</time>
      </trkpt>
      <trkpt lat="46.1417" lon="4.40045">
        <ele>853.2</ele>
        <time>2025-09-28T09:01:59Z</time>
      </trkpt>
      <trkpt lat="46.14173" lon="4.40039">
        <ele>852.6</ele>
        <time>2025-09-28T09:02:00Z</time>
      </trkpt>
      <trkpt lat="46.14177" lon="4.40031">
        <ele>852.6</ele>
        <time>2025-09-28T09:02:01Z</time>
      </trkpt>
      <trkpt lat="46.1418" lon="4.40027">
        <ele>852.6</ele>
        <time>2025-09-28T09:02:02Z</time>
      </trkpt>
      <trkpt lat="46.14183" lon="4.40021">
        <ele>852.6</ele>
        <time>2025-09-28T09:02:03Z</time>
      </trkpt>
      <trkpt lat="46.14186" lon="4.40015">
        <ele>852.4</ele>
        <time>2025-09-28T09:02:04Z</time>
      </trkpt>
      <trkpt lat="46.14191" lon="4.40007">
        <ele>852</ele>
        <time>2025-09-28T09:02:05Z</time>
      </trkpt>
      <trkpt lat="46.14195" lon="4.40002">
        <ele>852</ele>
        <time>2025-09-28T09:02:06Z</time>
      </trkpt>
      <trkpt lat="46.14199" lon="4.39996">
        <ele>851.8</ele>
        <time>2025-09-28T09:02:07Z</time>
      </trkpt>
      <trkpt lat="46.14202" lon="4.39989">
        <ele>851.8</ele>
        <time>2025-09-28T09:02:08Z</time>
      </trkpt>
      <trkpt lat="46.14206" lon="4.39983">
        <ele>851.4</ele>
        <time>2025-09-28T09:02:09Z</time>
      </trkpt>
      <trkpt lat="46.14209" lon="4.39976">
        <ele>851.4</ele>
        <time>2025-09-28T09:02:10Z</time>
      </trkpt>
      <trkpt lat="46.14213" lon="4.3997">
        <ele>850.8</ele>
        <time>2025-09-28T09:02:11Z</time>
      </trkpt>
      <trkpt lat="46.14217" lon="4.39965">
        <ele>850.8</ele>
        <time>2025-09-28T09:02:12Z</time>
      </trkpt>
      <trkpt lat="46.14221" lon="4.39959">
        <ele>850.8</ele>
        <time>2025-09-28T09:02:13Z</time>
      </trkpt>
      <trkpt lat="46.14224" lon="4.39954">
        <ele>850.8</ele>
        <time>2025-09-28T09:02:14Z</time>
      </trkpt>
      <trkpt lat="46.14227" lon="4.39951">
        <ele>851.6</ele>
        <time>2025-09-28T09:02:15Z</time>
      </trkpt>
      <trkpt lat="46.1423" lon="4.39949">
        <ele>851.8</ele>
        <time>2025-09-28T09:02:16Z</time>
      </trkpt>
      <trkpt lat="46.14232" lon="4.39946">
        <ele>851.8</ele>
        <time>2025-09-28T09:02:17Z</time>
      </trkpt>
      <trkpt lat="46.14234" lon="4.39943">
        <ele>851.8</ele>
        <time>2025-09-28T09:02:18Z</time>
      </trkpt>
      <trkpt lat="46.14234" lon="4.39937">
        <ele>851.4</ele>
        <time>2025-09-28T09:02:19Z</time>
      </trkpt>
      <trkpt lat="46.14236" lon="4.39933">
        <ele>851.8</ele>
        <time>2025-09-28T09:02:20Z</time>
      </trkpt>
      <trkpt lat="46.14239" lon="4.39933">
        <ele>851.4</ele>
        <time>2025-09-28T09:02:21Z</time>
      </trkpt>
      <trkpt lat="46.14241" lon="4.39929">
        <ele>851.4</ele>
        <time>2025-09-28T09:02:22Z</time>
      </trkpt>
      <trkpt lat="46.14242" lon="4.39922">
        <ele>851.4</ele>
        <time>2025-09-28T09:02:23Z</time>
      </trkpt>
      <trkpt lat="46.14245" lon="4.39917">
        <ele>851.4</ele>
        <time>2025-09-28T09:02:24Z</time>
      </trkpt>
      <trkpt lat="46.14248" lon="4.39912">
        <ele>851.4</ele>
        <time>2025-09-28T09:02:25Z</time>
      </trkpt>
      <trkpt lat="46.1425" lon="4.39905">
        <ele>850.6</ele>
        <time>2025-09-28T09:02:26Z</time>
      </trkpt>
      <trkpt lat="46.14252" lon="4.39899">
        <ele>850.2</ele>
        <time>2025-09-28T09:02:27Z</time>
      </trkpt>
      <trkpt lat="46.14257" lon="4.39896">
        <ele>850.6</ele>
        <time>2025-09-28T09:02:28Z</time>
      </trkpt>
      <trkpt lat="46.14261" lon="4.39893">
        <ele>851</ele>
        <time>2025-09-28T09:02:29Z</time>
      </trkpt>
      <trkpt lat="46.14267" lon="4.39889">
        <ele>851</ele>
        <time>2025-09-28T09:02:30Z</time>
      </trkpt>
      <trkpt lat="46.14271" lon="4.39881">
        <ele>850</ele>
        <time>2025-09-28T09:02:31Z</time>
      </trkpt>
      <trkpt lat="46.14275" lon="4.39874">
        <ele>849.2</ele>
        <time>2025-09-28T09:02:32Z</time>
      </trkpt>
      <trkpt lat="46.1428" lon="4.39869">
        <ele>849.8</ele>
        <time>2025-09-28T09:02:33Z</time>
      </trkpt>
      <trkpt lat="46.14284" lon="4.3986">
        <ele>849.4</ele>
        <time>2025-09-28T09:02:34Z</time>
      </trkpt>
      <trkpt lat="46.14288" lon="4.39852">
        <ele>848.4</ele>
        <time>2025-09-28T09:02:35Z</time>
      </trkpt>
      <trkpt lat="46.14292" lon="4.39843">
        <ele>848</ele>
        <time>2025-09-28T09:02:36Z</time>
      </trkpt>
      <trkpt lat="46.14297" lon="4.39836">
        <ele>847.6</ele>
        <time>2025-09-28T09:02:37Z</time>
      </trkpt>
      <trkpt lat="46.14301" lon="4.39827">
        <ele>847.6</ele>
        <time>2025-09-28T09:02:38Z</time>
      </trkpt>
      <trkpt lat="46.14305" lon="4.39819">
        <ele>847.6</ele>
        <time>2025-09-28T09:02:39Z</time>
      </trkpt>
      <trkpt lat="46.14308" lon="4.39813">
        <ele>846.8</ele>
        <time>2025-09-28T09:02:40Z</time>
      </trkpt>
      <trkpt lat="46.14313" lon="4.39805">
        <ele>846.4</ele>
        <time>2025-09-28T09:02:41Z</time>
      </trkpt>
      <trkpt lat="46.14316" lon="4.39798">
        <ele>846.4</ele>
        <time>2025-09-28T09:02:42Z</time>
      </trkpt>
      <trkpt lat="46.1432" lon="4.39792">
        <ele>846.6</ele>
        <time>2025-09-28T09:02:43Z</time>
      </trkpt>
      <trkpt lat="46.14323" lon="4.39785">
        <ele>846.6</ele>
        <time>2025-09-28T09:02:44Z</time>
      </trkpt>
      <trkpt lat="46.14326" lon="4.39778">
        <ele>846.8</ele>
        <time>2025-09-28T09:02:45Z</time>
      </trkpt>
      <trkpt lat="46.1433" lon="4.39771">
        <ele>846.6</ele>
        <time>2025-09-28T09:02:46Z</time>
      </trkpt>
      <trkpt lat="46.14333" lon="4.39765">
        <ele>846.4</ele>
        <time>2025-09-28T09:02:47Z</time>
      </trkpt>
      <trkpt lat="46.14336" lon="4.39758">
        <ele>846.8</ele>
        <time>2025-09-28T09:02:48Z</time>
      </trkpt>
      <trkpt lat="46.1434" lon="4.39751">
        <ele>846.8</ele>
        <time>2025-09-28T09:02:49Z</time>
      </trkpt>
      <trkpt lat="46.14343" lon="4.39745">
        <ele>846.6</ele>
        <time>2025-09-28T09:02:50Z</time>
      </trkpt>
      <trkpt lat="46.14347" lon="4.39739">
        <ele>846.6</ele>
        <time>2025-09-28T09:02:51Z</time>
      </trkpt>
      <trkpt lat="46.1435" lon="4.39732">
        <ele>846</ele>
        <time>2025-09-28T09:02:52Z</time>
      </trkpt>
      <trkpt lat="46.14352" lon="4.39725">
        <ele>846.4</ele>
        <time>2025-09-28T09:02:53Z</time>
      </trkpt>
      <trkpt lat="46.14354" lon="4.39719">
        <ele>846.4</ele>
        <time>2025-09-28T09:02:54Z</time>
      </trkpt>
      <trkpt lat="46.14356" lon="4.39713">
        <ele>846.2</ele>
        <time>2025-09-28T09:02:55Z</time>
      </trkpt>
      <trkpt lat="46.1436" lon="4.39706">
        <ele>846.4</ele>
        <time>2025-09-28T09:02:56Z</time>
      </trkpt>
      <trkpt lat="46.14363" lon="4.397">
        <ele>846.4</ele>
        <time>2025-09-28T09:02:57Z</time>
      </trkpt>
      <trkpt lat="46.14365" lon="4.39693">
        <ele>846.6</ele>
        <time>2025-09-28T09:02:58Z</time>
      </trkpt>
      <trkpt lat="46.14369" lon="4.39687">
        <ele>846.4</ele>
        <time>2025-09-28T09:02:59Z</time>
      </trkpt>
      <trkpt lat="46.14372" lon="4.39681">
        <ele>846.6</ele>
        <time>2025-09-28T09:03:00Z</time>
      </trkpt>
      <trkpt lat="46.14374" lon="4.39673">
        <ele>846.8</ele>
        <time>2025-09-28T09:03:01Z</time>
      </trkpt>
      <trkpt lat="46.14378" lon="4.39668">
        <ele>847</ele>
        <time>2025-09-28T09:03:02Z</time>
      </trkpt>
      <trkpt lat="46.14381" lon="4.39663">
        <ele>847</ele>
        <time>2025-09-28T09:03:03Z</time>
      </trkpt>
      <trkpt lat="46.14384" lon="4.39656">
        <ele>847.4</ele>
        <time>2025-09-28T09:03:04Z</time>
      </trkpt>
      <trkpt lat="46.14387" lon="4.3965">
        <ele>846.8</ele>
        <time>2025-09-28T09:03:05Z</time>
      </trkpt>
      <trkpt lat="46.1439" lon="4.39645">
        <ele>846.4</ele>
        <time>2025-09-28T09:03:06Z</time>
      </trkpt>
      <trkpt lat="46.14391" lon="4.3964">
        <ele>846.4</ele>
        <time>2025-09-28T09:03:07Z</time>
      </trkpt>
      <trkpt lat="46.14396" lon="4.39636">
        <ele>846.4</ele>
        <time>2025-09-28T09:03:08Z</time>
      </trkpt>
      <trkpt lat="46.144" lon="4.39633">
        <ele>845.4</ele>
        <time>2025-09-28T09:03:09Z</time>
      </trkpt>
      <trkpt lat="46.14402" lon="4.3963">
        <ele>844.6</ele>
        <time>2025-09-28T09:03:10Z</time>
      </trkpt>
      <trkpt lat="46.14405" lon="4.39627">
        <ele>844.6</ele>
        <time>2025-09-28T09:03:11Z</time>
      </trkpt>
      <trkpt lat="46.14405" lon="4.39626">
        <ele>844.6</ele>
        <time>2025-09-28T09:03:12Z</time>
      </trkpt>
      <trkpt lat="46.14405" lon="4.39624">
        <ele>844.6</ele>
        <time>2025-09-28T09:03:13Z</time>
      </trkpt>
      <trkpt lat="46.14406" lon="4.39624">
        <ele>844.6</ele>
        <time>2025-09-28T09:03:14Z</time>
      </trkpt>
      <trkpt lat="46.14406" lon="4.39623">
        <ele>844.4</ele>
        <time>2025-09-28T09:03:15Z</time>
      </trkpt>
      <trkpt lat="46.14406" lon="4.39623">
        <ele>844.4</ele>
        <time>2025-09-28T09:03:16Z</time>
      </trkpt>
      <trkpt lat="46.14411" lon="4.39622">
        <ele>843.6</ele>
        <time>2025-09-28T09:05:59Z</time>
      </trkpt>
      <trkpt lat="46.14411" lon="4.3962">
        <ele>843.6</ele>
        <time>2025-09-28T09:06:00Z</time>
      </trkpt>
      <trkpt lat="46.14411" lon="4.3962">
        <ele>843.2</ele>
        <time>2025-09-28T09:06:01Z</time>
      </trkpt>
      <trkpt lat="46.14419" lon="4.39605">
        <ele>842.4</ele>
        <time>2025-09-28T09:06:03Z</time>
      </trkpt>
      <trkpt lat="46.14421" lon="4.39599">
        <ele>842.4</ele>
        <time>2025-09-28T09:06:04Z</time>
      </trkpt>
      <trkpt lat="46.14423" lon="4.39592">
        <ele>842</ele>
        <time>2025-09-28T09:06:05Z</time>
      </trkpt>
      <trkpt lat="46.14425" lon="4.39585">
        <ele>841.4</ele>
        <time>2025-09-28T09:06:06Z</time>
      </trkpt>
      <trkpt lat="46.14427" lon="4.39578">
        <ele>841</ele>
        <time>2025-09-28T09:06:07Z</time>
      </trkpt>
      <trkpt lat="46.1443" lon="4.39571">
        <ele>840.8</ele>
        <time>2025-09-28T09:06:08Z</time>
      </trkpt>
      <trkpt lat="46.14432" lon="4.39565">
        <ele>840.8</ele>
        <time>2025-09-28T09:06:09Z</time>
      </trkpt>
      <trkpt lat="46.14434" lon="4.39559">
        <ele>839.2</ele>
        <time>2025-09-28T09:06:10Z</time>
      </trkpt>
      <trkpt lat="46.14437" lon="4.39553">
        <ele>838.6</ele>
        <time>2025-09-28T09:06:11Z</time>
      </trkpt>
      <trkpt lat="46.1444" lon="4.39548">
        <ele>838.2</ele>
        <time>2025-09-28T09:06:12Z</time>
      </trkpt>
      <trkpt lat="46.14441" lon="4.39541">
        <ele>838.6</ele>
        <time>2025-09-28T09:06:13Z</time>
      </trkpt>
      <trkpt lat="46.14444" lon="4.39536">
        <ele>838</ele>
        <time>2025-09-28T09:06:14Z</time>
      </trkpt>
      <trkpt lat="46.14447" lon="4.39531">
        <ele>837.6</ele>
        <time>2025-09-28T09:06:15Z</time>
      </trkpt>
      <trkpt lat="46.1445" lon="4.39526">
        <ele>837.4</ele>
        <time>2025-09-28T09:06:16Z</time>
      </trkpt>
      <trkpt lat="46.14454" lon="4.39522">
        <ele>836.8</ele>
        <time>2025-09-28T09:06:17Z</time>
      </trkpt>
      <trkpt lat="46.14457" lon="4.39517">
        <ele>836.6</ele>
        <time>2025-09-28T09:06:18Z</time>
      </trkpt>
      <trkpt lat="46.1446" lon="4.39513">
        <ele>835.8</ele>
        <time>2025-09-28T09:06:19Z</time>
      </trkpt>
      <trkpt lat="46.14463" lon="4.39509">
        <ele>835.2</ele>
        <time>2025-09-28T09:06:20Z</time>
      </trkpt>
      <trkpt lat="46.14465" lon="4.39504">
        <ele>834.8</ele>
        <time>2025-09-28T09:06:21Z</time>
      </trkpt>
      <trkpt lat="46.14468" lon="4.39499">
        <ele>834.2</ele>
        <time>2025-09-28T09:06:22Z</time>
      </trkpt>
      <trkpt lat="46.14471" lon="4.39494">
        <ele>833.8</ele>
        <time>2025-09-28T09:06:23Z</time>
      </trkpt>
      <trkpt lat="46.14474" lon="4.39491">
        <ele>833.4</ele>
        <time>2025-09-28T09:06:24Z</time>
      </trkpt>
      <trkpt lat="46.14477" lon="4.39488">
        <ele>833.4</ele>
        <time>2025-09-28T09:06:25Z</time>
      </trkpt>
      <trkpt lat="46.14477" lon="4.39488">
        <ele>832.8</ele>
        <time>2025-09-28T09:06:26Z</time>
      </trkpt>
      <trkpt lat="46.14484" lon="4.39478">
        <ele>832.2</ele>
        <time>2025-09-28T09:06:27Z</time>
      </trkpt>
      <trkpt lat="46.14487" lon="4.39474">
        <ele>832.2</ele>
        <time>2025-09-28T09:06:28Z</time>
      </trkpt>
      <trkpt lat="46.1449" lon="4.3947">
        <ele>831.4</ele>
        <time>2025-09-28T09:06:29Z</time>
      </trkpt>
      <trkpt lat="46.14492" lon="4.39465">
        <ele>830.4</ele>
        <time>2025-09-28T09:06:30Z</time>
      </trkpt>
      <trkpt lat="46.14496" lon="4.39462">
        <ele>830.2</ele>
        <time>2025-09-28T09:06:31Z</time>
      </trkpt>
      <trkpt lat="46.14499" lon="4.39458">
        <ele>828.6</ele>
        <time>2025-09-28T09:06:32Z</time>
      </trkpt>
      <trkpt lat="46.14502" lon="4.39455">
        <ele>827.2</ele>
        <time>2025-09-28T09:06:33Z</time>
      </trkpt>
      <trkpt lat="46.14504" lon="4.39451">
        <ele>827.2</ele>
        <time>2025-09-28T09:06:34Z</time>
      </trkpt>
      <trkpt lat="46.14506" lon="4.39448">
        <ele>827.4</ele>
        <time>2025-09-28T09:06:35Z</time>
      </trkpt>
      <trkpt lat="46.14508" lon="4.39444">
        <ele>826.8</ele>
        <time>2025-09-28T09:06:36Z</time>
      </trkpt>
      <trkpt lat="46.1451" lon="4.39442">
        <ele>826.4</ele>
        <time>2025-09-28T09:06:37Z</time>
      </trkpt>
      <trkpt lat="46.14513" lon="4.39439">
        <ele>825.8</ele>
        <time>2025-09-28T09:06:38Z</time>
      </trkpt>
      <trkpt lat="46.14516" lon="4.39435">
        <ele>825</ele>
        <time>2025-09-28T09:06:39Z</time>
      </trkpt>
      <trkpt lat="46.14516" lon="4.39435">
        <ele>824.6</ele>
        <time>2025-09-28T09:06:40Z</time>
      </trkpt>
      <trkpt lat="46.14518" lon="4.3943">
        <ele>823.2</ele>
        <time>2025-09-28T09:06:41Z</time>
      </trkpt>
      <trkpt lat="46.1452" lon="4.39425">
        <ele>823.2</ele>
        <time>2025-09-28T09:06:42Z</time>
      </trkpt>
      <trkpt lat="46.14523" lon="4.3942">
        <ele>823.2</ele>
        <time>2025-09-28T09:06:43Z</time>
      </trkpt>
      <trkpt lat="46.14524" lon="4.39415">
        <ele>822.4</ele>
        <time>2025-09-28T09:06:44Z</time>
      </trkpt>
      <trkpt lat="46.14526" lon="4.39408">
        <ele>822</ele>
        <time>2025-09-28T09:06:45Z</time>
      </trkpt>
      <trkpt lat="46.14526" lon="4.39401">
        <ele>821.2</ele>
        <time>2025-09-28T09:06:46Z</time>
      </trkpt>
      <trkpt lat="46.14525" lon="4.39394">
        <ele>820.2</ele>
        <time>2025-09-28T09:06:47Z</time>
      </trkpt>
      <trkpt lat="46.14525" lon="4.39388">
        <ele>820.2</ele>
        <time>2025-09-28T09:06:48Z</time>
      </trkpt>
      <trkpt lat="46.14525" lon="4.39382">
        <ele>820.2</ele>
        <time>2025-09-28T09:06:49Z</time>
      </trkpt>
      <trkpt lat="46.14524" lon="4.39377">
        <ele>819.6</ele>
        <time>2025-09-28T09:06:50Z</time>
      </trkpt>
      <trkpt lat="46.14521" lon="4.39371">
        <ele>818.6</ele>
        <time>2025-09-28T09:06:51Z</time>
      </trkpt>
      <trkpt lat="46.14521" lon="4.39365">
        <ele>818.6</ele>
        <time>2025-09-28T09:06:52Z</time>
      </trkpt>
      <trkpt lat="46.14521" lon="4.39363">
        <ele>818.2</ele>
        <time>2025-09-28T09:06:53Z</time>
      </trkpt>
      <trkpt lat="46.14521" lon="4.39359">
        <ele>817.6</ele>
        <time>2025-09-28T09:06:54Z</time>
      </trkpt>
      <trkpt lat="46.14521" lon="4.39357">
        <ele>817.8</ele>
        <time>2025-09-28T09:06:55Z</time>
      </trkpt>
      <trkpt lat="46.1452" lon="4.39356">
        <ele>817.8</ele>
        <time>2025-09-28T09:06:56Z</time>
      </trkpt>
      <trkpt lat="46.14521" lon="4.39354">
        <ele>817.4</ele>
        <time>2025-09-28T09:06:57Z</time>
      </trkpt>
      <trkpt lat="46.14522" lon="4.3935">
        <ele>817</ele>
        <time>2025-09-28T09:06:58Z</time>
      </trkpt>
      <trkpt lat="46.14523" lon="4.39346">
        <ele>817</ele>
        <time>2025-09-28T09:06:59Z</time>
      </trkpt>
      <trkpt lat="46.14523" lon="4.39343">
        <ele>816.6</ele>
        <time>2025-09-28T09:07:00Z</time>
      </trkpt>
      <trkpt lat="46.14523" lon="4.39341">
        <ele>816.2</ele>
        <time>2025-09-28T09:07:01Z</time>
      </trkpt>
      <trkpt lat="46.1453" lon="4.39331">
        <ele>815.8</ele>
        <time>2025-09-28T09:07:02Z</time>
      </trkpt>
      <trkpt lat="46.14533" lon="4.39326">
        <ele>815</ele>
        <time>2025-09-28T09:07:03Z</time>
      </trkpt>
      <trkpt lat="46.14536" lon="4.39322">
        <ele>814.6</ele>
        <time>2025-09-28T09:07:04Z</time>
      </trkpt>
      <trkpt lat="46.14539" lon="4.39317">
        <ele>813.6</ele>
        <time>2025-09-28T09:07:05Z</time>
      </trkpt>
      <trkpt lat="46.14542" lon="4.39312">
        <ele>813.2</ele>
        <time>2025-09-28T09:07:06Z</time>
      </trkpt>
      <trkpt lat="46.14544" lon="4.39308">
        <ele>812.4</ele>
        <time>2025-09-28T09:07:07Z</time>
      </trkpt>
      <trkpt lat="46.14548" lon="4.39305">
        <ele>811.8</ele>
        <time>2025-09-28T09:07:08Z</time>
      </trkpt>
      <trkpt lat="46.14551" lon="4.39301">
        <ele>811.4</ele>
        <time>2025-09-28T09:07:09Z</time>
      </trkpt>
      <trkpt lat="46.14555" lon="4.39296">
        <ele>811.2</ele>
        <time>2025-09-28T09:07:10Z</time>
      </trkpt>
      <trkpt lat="46.14558" lon="4.39292">
        <ele>810.4</ele>
        <time>2025-09-28T09:07:11Z</time>
      </trkpt>
      <trkpt lat="46.14562" lon="4.39286">
        <ele>810</ele>
        <time>2025-09-28T09:07:12Z</time>
      </trkpt>
      <trkpt lat="46.14565" lon="4.39282">
        <ele>810.8</ele>
        <time>2025-09-28T09:07:13Z</time>
      </trkpt>
      <trkpt lat="46.14573" lon="4.39271">
        <ele>810</ele>
        <time>2025-09-28T09:07:14Z</time>
      </trkpt>
      <trkpt lat="46.14578" lon="4.39267">
        <ele>809.4</ele>
        <time>2025-09-28T09:07:15Z</time>
      </trkpt>
      <trkpt lat="46.14583" lon="4.39261">
        <ele>807.8</ele>
        <time>2025-09-28T09:07:16Z</time>
      </trkpt>
      <trkpt lat="46.14587" lon="4.39256">
        <ele>807.4</ele>
        <time>2025-09-28T09:07:17Z</time>
      </trkpt>
      <trkpt lat="46.14591" lon="4.3925">
        <ele>806.4</ele>
        <time>2025-09-28T09:07:18Z</time>
      </trkpt>
      <trkpt lat="46.14595" lon="4.39245">
        <ele>806</ele>
        <time>2025-09-28T09:07:19Z</time>
      </trkpt>
      <trkpt lat="46.146" lon="4.39239">
        <ele>806</ele>
        <time>2025-09-28T09:07:20Z</time>
      </trkpt>
      <trkpt lat="46.14602" lon="4.39234">
        <ele>805.8</ele>
        <time>2025-09-28T09:07:21Z</time>
      </trkpt>
      <trkpt lat="46.14608" lon="4.39227">
        <ele>805</ele>
        <time>2025-09-28T09:07:22Z</time>
      </trkpt>
      <trkpt lat="46.14612" lon="4.39221">
        <ele>805</ele>
        <time>2025-09-28T09:07:23Z</time>
      </trkpt>
      <trkpt lat="46.14615" lon="4.39214">
        <ele>805</ele>
        <time>2025-09-28T09:07:24Z</time>
      </trkpt>
      <trkpt lat="46.1462" lon="4.39207">
        <ele>803.6</ele>
        <time>2025-09-28T09:07:25Z</time>
      </trkpt>
      <trkpt lat="46.14623" lon="4.39201">
        <ele>802.8</ele>
        <time>2025-09-28T09:07:26Z</time>
      </trkpt>
      <trkpt lat="46.14627" lon="4.39196">
        <ele>802.2</ele>
        <time>2025-09-28T09:07:27Z</time>
      </trkpt>
      <trkpt lat="46.14629" lon="4.39188">
        <ele>801.6</ele>
        <time>2025-09-28T09:07:28Z</time>
      </trkpt>
      <trkpt lat="46.14634" lon="4.39181">
        <ele>800.4</ele>
        <time>2025-09-28T09:07:29Z</time>
      </trkpt>
      <trkpt lat="46.14638" lon="4.39174">
        <ele>800.4</ele>
        <time>2025-09-28T09:07:30Z</time>
      </trkpt>
      <trkpt lat="46.14641" lon="4.39166">
        <ele>799.8</ele>
        <time>2025-09-28T09:07:31Z</time>
      </trkpt>
      <trkpt lat="46.14644" lon="4.3916">
        <ele>799.4</ele>
        <time>2025-09-28T09:07:32Z</time>
      </trkpt>
      <trkpt lat="46.14646" lon="4.39153">
        <ele>799.2</ele>
        <time>2025-09-28T09:07:33Z</time>
      </trkpt>
      <trkpt lat="46.14649" lon="4.39145">
        <ele>799.6</ele>
        <time>2025-09-28T09:07:34Z</time>
      </trkpt>
      <trkpt lat="46.14654" lon="4.39136">
        <ele>799</ele>
        <time>2025-09-28T09:07:35Z</time>
      </trkpt>
      <trkpt lat="46.14658" lon="4.39128">
        <ele>798.6</ele>
        <time>2025-09-28T09:07:36Z</time>
      </trkpt>
      <trkpt lat="46.14663" lon="4.3912">
        <ele>798</ele>
        <time>2025-09-28T09:07:37Z</time>
      </trkpt>
      <trkpt lat="46.14667" lon="4.3911">
        <ele>797.6</ele>
        <time>2025-09-28T09:07:38Z</time>
      </trkpt>
      <trkpt lat="46.1467" lon="4.39101">
        <ele>797.6</ele>
        <time>2025-09-28T09:07:39Z</time>
      </trkpt>
      <trkpt lat="46.14672" lon="4.39093">
        <ele>796.8</ele>
        <time>2025-09-28T09:07:40Z</time>
      </trkpt>
      <trkpt lat="46.14674" lon="4.39085">
        <ele>796.4</ele>
        <time>2025-09-28T09:07:41Z</time>
      </trkpt>
      <trkpt lat="46.14677" lon="4.3908">
        <ele>796.2</ele>
        <time>2025-09-28T09:07:42Z</time>
      </trkpt>
      <trkpt lat="46.14679" lon="4.39076">
        <ele>795.8</ele>
        <time>2025-09-28T09:07:43Z</time>
      </trkpt>
      <trkpt lat="46.14683" lon="4.39071">
        <ele>795.6</ele>
        <time>2025-09-28T09:07:44Z</time>
      </trkpt>
      <trkpt lat="46.14685" lon="4.39066">
        <ele>795.6</ele>
        <time>2025-09-28T09:07:45Z</time>
      </trkpt>
      <trkpt lat="46.14687" lon="4.39061">
        <ele>795.4</ele>
        <time>2025-09-28T09:07:46Z</time>
      </trkpt>
      <trkpt lat="46.1469" lon="4.39057">
        <ele>795</ele>
        <time>2025-09-28T09:07:47Z</time>
      </trkpt>
      <trkpt lat="46.14693" lon="4.39052">
        <ele>794.8</ele>
        <time>2025-09-28T09:07:48Z</time>
      </trkpt>
      <trkpt lat="46.14694" lon="4.39048">
        <ele>794.6</ele>
        <time>2025-09-28T09:07:49Z</time>
      </trkpt>
      <trkpt lat="46.14696" lon="4.39045">
        <ele>794.6</ele>
        <time>2025-09-28T09:07:50Z</time>
      </trkpt>
      <trkpt lat="46.14695" lon="4.39037">
        <ele>794.6</ele>
        <time>2025-09-28T09:07:51Z</time>
      </trkpt>
      <trkpt lat="46.14695" lon="4.39031">
        <ele>794.4</ele>
        <time>2025-09-28T09:07:52Z</time>
      </trkpt>
      <trkpt lat="46.14695" lon="4.39026">
        <ele>794.4</ele>
        <time>2025-09-28T09:07:53Z</time>
      </trkpt>
      <trkpt lat="46.14695" lon="4.39019">
        <ele>793.8</ele>
        <time>2025-09-28T09:07:54Z</time>
      </trkpt>
      <trkpt lat="46.14698" lon="4.39012">
        <ele>793.8</ele>
        <time>2025-09-28T09:07:55Z</time>
      </trkpt>
      <trkpt lat="46.14698" lon="4.39003">
        <ele>793.8</ele>
        <time>2025-09-28T09:07:56Z</time>
      </trkpt>
      <trkpt lat="46.14697" lon="4.38994">
        <ele>793.8</ele>
        <time>2025-09-28T09:07:57Z</time>
      </trkpt>
      <trkpt lat="46.14697" lon="4.38985">
        <ele>792.6</ele>
        <time>2025-09-28T09:07:58Z</time>
      </trkpt>
      <trkpt lat="46.14697" lon="4.38976">
        <ele>792</ele>
        <time>2025-09-28T09:07:59Z</time>
      </trkpt>
      <trkpt lat="46.14696" lon="4.38967">
        <ele>792</ele>
        <time>2025-09-28T09:08:00Z</time>
      </trkpt>
      <trkpt lat="46.14697" lon="4.38959">
        <ele>791.6</ele>
        <time>2025-09-28T09:08:01Z</time>
      </trkpt>
      <trkpt lat="46.14697" lon="4.38951">
        <ele>791.2</ele>
        <time>2025-09-28T09:08:02Z</time>
      </trkpt>
      <trkpt lat="46.14695" lon="4.38942">
        <ele>790.2</ele>
        <time>2025-09-28T09:08:03Z</time>
      </trkpt>
      <trkpt lat="46.14697" lon="4.38932">
        <ele>790.6</ele>
        <time>2025-09-28T09:08:04Z</time>
      </trkpt>
      <trkpt lat="46.14696" lon="4.38922">
        <ele>790.6</ele>
        <time>2025-09-28T09:08:05Z</time>
      </trkpt>
      <trkpt lat="46.14696" lon="4.38912">
        <ele>790.6</ele>
        <time>2025-09-28T09:08:06Z</time>
      </trkpt>
      <trkpt lat="46.14695" lon="4.38906">
        <ele>789.8</ele>
        <time>2025-09-28T09:08:07Z</time>
      </trkpt>
      <trkpt lat="46.14695" lon="4.38897">
        <ele>789.2</ele>
        <time>2025-09-28T09:08:08Z</time>
      </trkpt>
      <trkpt lat="46.14695" lon="4.38888">
        <ele>789.2</ele>
        <time>2025-09-28T09:08:09Z</time>
      </trkpt>
      <trkpt lat="46.14695" lon="4.3888">
        <ele>788.8</ele>
        <time>2025-09-28T09:08:10Z</time>
      </trkpt>
      <trkpt lat="46.14698" lon="4.3887">
        <ele>789</ele>
        <time>2025-09-28T09:08:11Z</time>
      </trkpt>
      <trkpt lat="46.14699" lon="4.38861">
        <ele>788.8</ele>
        <time>2025-09-28T09:08:12Z</time>
      </trkpt>
      <trkpt lat="46.14698" lon="4.38854">
        <ele>789.2</ele>
        <time>2025-09-28T09:08:13Z</time>
      </trkpt>
      <trkpt lat="46.14697" lon="4.38847">
        <ele>788.8</ele>
        <time>2025-09-28T09:08:14Z</time>
      </trkpt>
      <trkpt lat="46.14695" lon="4.3884">
        <ele>789</ele>
        <time>2025-09-28T09:08:15Z</time>
      </trkpt>
      <trkpt lat="46.14694" lon="4.38834">
        <ele>789</ele>
        <time>2025-09-28T09:08:16Z</time>
      </trkpt>
      <trkpt lat="46.14692" lon="4.38827">
        <ele>788.4</ele>
        <time>2025-09-28T09:08:17Z</time>
      </trkpt>
      <trkpt lat="46.1469" lon="4.38819">
        <ele>788.4</ele>
        <time>2025-09-28T09:08:18Z</time>
      </trkpt>
      <trkpt lat="46.14689" lon="4.38813">
        <ele>788.4</ele>
        <time>2025-09-28T09:08:19Z</time>
      </trkpt>
      <trkpt lat="46.14686" lon="4.38806">
        <ele>788.4</ele>
        <time>2025-09-28T09:08:20Z</time>
      </trkpt>
      <trkpt lat="46.14685" lon="4.388">
        <ele>788.4</ele>
        <time>2025-09-28T09:08:21Z</time>
      </trkpt>
      <trkpt lat="46.14684" lon="4.38793">
        <ele>788.4</ele>
        <time>2025-09-28T09:08:22Z</time>
      </trkpt>
      <trkpt lat="46.14682" lon="4.38788">
        <ele>788</ele>
        <time>2025-09-28T09:08:23Z</time>
      </trkpt>
      <trkpt lat="46.14682" lon="4.38783">
        <ele>788</ele>
        <time>2025-09-28T09:08:24Z</time>
      </trkpt>
      <trkpt lat="46.14682" lon="4.38779">
        <ele>788</ele>
        <time>2025-09-28T09:08:25Z</time>
      </trkpt>
      <trkpt lat="46.14681" lon="4.38775">
        <ele>788</ele>
        <time>2025-09-28T09:08:26Z</time>
      </trkpt>
      <trkpt lat="46.14684" lon="4.38771">
        <ele>788.2</ele>
        <time>2025-09-28T09:08:27Z</time>
      </trkpt>
      <trkpt lat="46.14684" lon="4.38767">
        <ele>788.2</ele>
        <time>2025-09-28T09:08:28Z</time>
      </trkpt>
      <trkpt lat="46.14687" lon="4.38763">
        <ele>788.2</ele>
        <time>2025-09-28T09:08:29Z</time>
      </trkpt>
      <trkpt lat="46.14689" lon="4.38759">
        <ele>788</ele>
        <time>2025-09-28T09:08:30Z</time>
      </trkpt>
      <trkpt lat="46.14691" lon="4.38754">
        <ele>788</ele>
        <time>2025-09-28T09:08:31Z</time>
      </trkpt>
      <trkpt lat="46.14692" lon="4.38749">
        <ele>788</ele>
        <time>2025-09-28T09:08:32Z</time>
      </trkpt>
      <trkpt lat="46.14694" lon="4.38743">
        <ele>788</ele>
        <time>2025-09-28T09:08:33Z</time>
      </trkpt>
      <trkpt lat="46.14697" lon="4.38739">
        <ele>788</ele>
        <time>2025-09-28T09:08:34Z</time>
      </trkpt>
      <trkpt lat="46.14698" lon="4.38733">
        <ele>788</ele>
        <time>2025-09-28T09:08:35Z</time>
      </trkpt>
      <trkpt lat="46.14701" lon="4.38728">
        <ele>788</ele>
        <time>2025-09-28T09:08:36Z</time>
      </trkpt>
      <trkpt lat="46.14702" lon="4.38721">
        <ele>788</ele>
        <time>2025-09-28T09:08:37Z</time>
      </trkpt>
      <trkpt lat="46.14704" lon="4.38715">
        <ele>788</ele>
        <time>2025-09-28T09:08:38Z</time>
      </trkpt>
      <trkpt lat="46.14706" lon="4.38708">
        <ele>788.4</ele>
        <time>2025-09-28T09:08:39Z</time>
      </trkpt>
      <trkpt lat="46.14707" lon="4.387">
        <ele>788.4</ele>
        <time>2025-09-28T09:08:40Z</time>
      </trkpt>
      <trkpt lat="46.14709" lon="4.38693">
        <ele>788.4</ele>
        <time>2025-09-28T09:08:41Z</time>
      </trkpt>
      <trkpt lat="46.14711" lon="4.38686">
        <ele>788.8</ele>
        <time>2025-09-28T09:08:42Z</time>
      </trkpt>
      <trkpt lat="46.14713" lon="4.38679">
        <ele>788.8</ele>
        <time>2025-09-28T09:08:43Z</time>
      </trkpt>
      <trkpt lat="46.14715" lon="4.38673">
        <ele>788.8</ele>
        <time>2025-09-28T09:08:44Z</time>
      </trkpt>
      <trkpt lat="46.14718" lon="4.38667">
        <ele>788.8</ele>
        <time>2025-09-28T09:08:45Z</time>
      </trkpt>
      <trkpt lat="46.1472" lon="4.38661">
        <ele>788.8</ele>
        <time>2025-09-28T09:08:46Z</time>
      </trkpt>
      <trkpt lat="46.14723" lon="4.38655">
        <ele>788.8</ele>
        <time>2025-09-28T09:08:47Z</time>
      </trkpt>
      <trkpt lat="46.14725" lon="4.38649">
        <ele>789</ele>
        <time>2025-09-28T09:08:48Z</time>
      </trkpt>
      <trkpt lat="46.14729" lon="4.38644">
        <ele>788.6</ele>
        <time>2025-09-28T09:08:49Z</time>
      </trkpt>
      <trkpt lat="46.14731" lon="4.38638">
        <ele>788.6</ele>
        <time>2025-09-28T09:08:50Z</time>
      </trkpt>
      <trkpt lat="46.14734" lon="4.38633">
        <ele>788.8</ele>
        <time>2025-09-28T09:08:51Z</time>
      </trkpt>
      <trkpt lat="46.14736" lon="4.38627">
        <ele>788.8</ele>
        <time>2025-09-28T09:08:52Z</time>
      </trkpt>
      <trkpt lat="46.14738" lon="4.38622">
        <ele>788.8</ele>
        <time>2025-09-28T09:08:53Z</time>
      </trkpt>
      <trkpt lat="46.1474" lon="4.38618">
        <ele>788.8</ele>
        <time>2025-09-28T09:08:54Z</time>
      </trkpt>
      <trkpt lat="46.14742" lon="4.38612">
        <ele>788.8</ele>
        <time>2025-09-28T09:08:55Z</time>
      </trkpt>
      <trkpt lat="46.14744" lon="4.38607">
        <ele>788.8</ele>
        <time>2025-09-28T09:08:56Z</time>
      </trkpt>
      <trkpt lat="46.14746" lon="4.38601">
        <ele>788.8</ele>
        <time>2025-09-28T09:08:57Z</time>
      </trkpt>
      <trkpt lat="46.14747" lon="4.38595">
        <ele>788.8</ele>
        <time>2025-09-28T09:08:58Z</time>
      </trkpt>
      <trkpt lat="46.1475" lon="4.3859">
        <ele>788.8</ele>
        <time>2025-09-28T09:08:59Z</time>
      </trkpt>
      <trkpt lat="46.14753" lon="4.38584">
        <ele>789.4</ele>
        <time>2025-09-28T09:09:00Z</time>
      </trkpt>
      <trkpt lat="46.14755" lon="4.38578">
        <ele>789.4</ele>
        <time>2025-09-28T09:09:01Z</time>
      </trkpt>
      <trkpt lat="46.14758" lon="4.38573">
        <ele>789</ele>
        <time>2025-09-28T09:09:02Z</time>
      </trkpt>
      <trkpt lat="46.14761" lon="4.38569">
        <ele>789.4</ele>
        <time>2025-09-28T09:09:03Z</time>
      </trkpt>
      <trkpt lat="46.14764" lon="4.38563">
        <ele>789.4</ele>
        <time>2025-09-28T09:09:04Z</time>
      </trkpt>
      <trkpt lat="46.14766" lon="4.38557">
        <ele>789.4</ele>
        <time>2025-09-28T09:09:05Z</time>
      </trkpt>
      <trkpt lat="46.14765" lon="4.38557">
        <ele>789.8</ele>
        <time>2025-09-28T09:09:06Z</time>
      </trkpt>
      <trkpt lat="46.14768" lon="4.3855">
        <ele>790</ele>
        <time>2025-09-28T09:09:07Z</time>
      </trkpt>
      <trkpt lat="46.14768" lon="4.38545">
        <ele>790</ele>
        <time>2025-09-28T09:09:08Z</time>
      </trkpt>
      <trkpt lat="46.14772" lon="4.38538">
        <ele>790</ele>
        <time>2025-09-28T09:09:09Z</time>
      </trkpt>
      <trkpt lat="46.14775" lon="4.38532">
        <ele>790</ele>
        <time>2025-09-28T09:09:10Z</time>
      </trkpt>
      <trkpt lat="46.14776" lon="4.38526">
        <ele>790.4</ele>
        <time>2025-09-28T09:09:11Z</time>
      </trkpt>
      <trkpt lat="46.14778" lon="4.38521">
        <ele>790.8</ele>
        <time>2025-09-28T09:09:12Z</time>
      </trkpt>
      <trkpt lat="46.1478" lon="4.38516">
        <ele>791</ele>
        <time>2025-09-28T09:09:13Z</time>
      </trkpt>
      <trkpt lat="46.14783" lon="4.38508">
        <ele>791.4</ele>
        <time>2025-09-28T09:09:14Z</time>
      </trkpt>
      <trkpt lat="46.14785" lon="4.38503">
        <ele>791.6</ele>
        <time>2025-09-28T09:09:15Z</time>
      </trkpt>
      <trkpt lat="46.14787" lon="4.38498">
        <ele>791.6</ele>
        <time>2025-09-28T09:09:16Z</time>
      </trkpt>
      <trkpt lat="46.1479" lon="4.38492">
        <ele>791.6</ele>
        <time>2025-09-28T09:09:17Z</time>
      </trkpt>
      <trkpt lat="46.14793" lon="4.38488">
        <ele>791.6</ele>
        <time>2025-09-28T09:09:18Z</time>
      </trkpt>
      <trkpt lat="46.14795" lon="4.38483">
        <ele>792</ele>
        <time>2025-09-28T09:09:19Z</time>
      </trkpt>
      <trkpt lat="46.14797" lon="4.38478">
        <ele>792</ele>
        <time>2025-09-28T09:09:20Z</time>
      </trkpt>
      <trkpt lat="46.14799" lon="4.38474">
        <ele>792.2</ele>
        <time>2025-09-28T09:09:21Z</time>
      </trkpt>
      <trkpt lat="46.14803" lon="4.38468">
        <ele>792.4</ele>
        <time>2025-09-28T09:09:22Z</time>
      </trkpt>
      <trkpt lat="46.14808" lon="4.38464">
        <ele>792.4</ele>
        <time>2025-09-28T09:09:23Z</time>
      </trkpt>
      <trkpt lat="46.14809" lon="4.38459">
        <ele>792.4</ele>
        <time>2025-09-28T09:09:24Z</time>
      </trkpt>
      <trkpt lat="46.14813" lon="4.38454">
        <ele>792.2</ele>
        <time>2025-09-28T09:09:25Z</time>
      </trkpt>
      <trkpt lat="46.14814" lon="4.38449">
        <ele>792.4</ele>
        <time>2025-09-28T09:09:26Z</time>
      </trkpt>
      <trkpt lat="46.14816" lon="4.38442">
        <ele>792.8</ele>
        <time>2025-09-28T09:09:27Z</time>
      </trkpt>
      <trkpt lat="46.1482" lon="4.38435">
        <ele>793.2</ele>
        <time>2025-09-28T09:09:28Z</time>
      </trkpt>
      <trkpt lat="46.14823" lon="4.3843">
        <ele>793.4</ele>
        <time>2025-09-28T09:09:29Z</time>
      </trkpt>
      <trkpt lat="46.14825" lon="4.38425">
        <ele>793.6</ele>
        <time>2025-09-28T09:09:30Z</time>
      </trkpt>
      <trkpt lat="46.14826" lon="4.38421">
        <ele>793.6</ele>
        <time>2025-09-28T09:09:31Z</time>
      </trkpt>
      <trkpt lat="46.14829" lon="4.38416">
        <ele>793.6</ele>
        <time>2025-09-28T09:09:32Z</time>
      </trkpt>
      <trkpt lat="46.1483" lon="4.38414">
        <ele>793.6</ele>
        <time>2025-09-28T09:09:33Z</time>
      </trkpt>
      <trkpt lat="46.14831" lon="4.3841">
        <ele>794</ele>
        <time>2025-09-28T09:09:34Z</time>
      </trkpt>
      <trkpt lat="46.14834" lon="4.38406">
        <ele>794.4</ele>
        <time>2025-09-28T09:09:35Z</time>
      </trkpt>
      <trkpt lat="46.14836" lon="4.38402">
        <ele>794.4</ele>
        <time>2025-09-28T09:09:36Z</time>
      </trkpt>
      <trkpt lat="46.14838" lon="4.384">
        <ele>794.6</ele>
        <time>2025-09-28T09:09:37Z</time>
      </trkpt>
      <trkpt lat="46.1484" lon="4.38398">
        <ele>794.6</ele>
        <time>2025-09-28T09:09:38Z</time>
      </trkpt>
      <trkpt lat="46.1484" lon="4.38395">
        <ele>794.6</ele>
        <time>2025-09-28T09:09:39Z</time>
      </trkpt>
      <trkpt lat="46.14841" lon="4.38391">
        <ele>794.8</ele>
        <time>2025-09-28T09:09:40Z</time>
      </trkpt>
      <trkpt lat="46.14841" lon="4.38388">
        <ele>795.2</ele>
        <time>2025-09-28T09:09:41Z</time>
      </trkpt>
      <trkpt lat="46.14843" lon="4.38384">
        <ele>795.2</ele>
        <time>2025-09-28T09:09:42Z</time>
      </trkpt>
      <trkpt lat="46.14845" lon="4.38379">
        <ele>795.6</ele>
        <time>2025-09-28T09:09:43Z</time>
      </trkpt>
      <trkpt lat="46.14847" lon="4.38374">
        <ele>795.6</ele>
        <time>2025-09-28T09:09:44Z</time>
      </trkpt>
      <trkpt lat="46.14849" lon="4.3837">
        <ele>795.8</ele>
        <time>2025-09-28T09:09:45Z</time>
      </trkpt>
      <trkpt lat="46.14852" lon="4.38365">
        <ele>795.8</ele>
        <time>2025-09-28T09:09:46Z</time>
      </trkpt>
      <trkpt lat="46.14854" lon="4.3836">
        <ele>796.2</ele>
        <time>2025-09-28T09:09:47Z</time>
      </trkpt>
      <trkpt lat="46.14855" lon="4.38357">
        <ele>796.6</ele>
        <time>2025-09-28T09:09:48Z</time>
      </trkpt>
      <trkpt lat="46.14857" lon="4.38354">
        <ele>796.8</ele>
        <time>2025-09-28T09:09:49Z</time>
      </trkpt>
      <trkpt lat="46.1486" lon="4.3835">
        <ele>797</ele>
        <time>2025-09-28T09:09:50Z</time>
      </trkpt>
      <trkpt lat="46.14864" lon="4.38347">
        <ele>797.2</ele>
        <time>2025-09-28T09:09:51Z</time>
      </trkpt>
      <trkpt lat="46.14866" lon="4.38343">
        <ele>797.2</ele>
        <time>2025-09-28T09:09:52Z</time>
      </trkpt>
      <trkpt lat="46.14868" lon="4.38338">
        <ele>797.2</ele>
        <time>2025-09-28T09:09:53Z</time>
      </trkpt>
      <trkpt lat="46.1487" lon="4.38334">
        <ele>797.8</ele>
        <time>2025-09-28T09:09:54Z</time>
      </trkpt>
      <trkpt lat="46.14872" lon="4.3833">
        <ele>798</ele>
        <time>2025-09-28T09:09:55Z</time>
      </trkpt>
      <trkpt lat="46.14874" lon="4.38326">
        <ele>798</ele>
        <time>2025-09-28T09:09:56Z</time>
      </trkpt>
      <trkpt lat="46.14876" lon="4.38323">
        <ele>798</ele>
        <time>2025-09-28T09:09:57Z</time>
      </trkpt>
      <trkpt lat="46.14878" lon="4.3832">
        <ele>798.2</ele>
        <time>2025-09-28T09:09:58Z</time>
      </trkpt>
      <trkpt lat="46.1488" lon="4.38315">
        <ele>798.6</ele>
        <time>2025-09-28T09:09:59Z</time>
      </trkpt>
      <trkpt lat="46.14882" lon="4.3831">
        <ele>798.6</ele>
        <time>2025-09-28T09:10:00Z</time>
      </trkpt>
      <trkpt lat="46.14885" lon="4.38306">
        <ele>798.8</ele>
        <time>2025-09-28T09:10:01Z</time>
      </trkpt>
      <trkpt lat="46.14887" lon="4.38303">
        <ele>798.8</ele>
        <time>2025-09-28T09:10:02Z</time>
      </trkpt>
      <trkpt lat="46.14888" lon="4.38294">
        <ele>799.2</ele>
        <time>2025-09-28T09:10:03Z</time>
      </trkpt>
      <trkpt lat="46.14891" lon="4.38291">
        <ele>799.2</ele>
        <time>2025-09-28T09:10:04Z</time>
      </trkpt>
      <trkpt lat="46.14893" lon="4.38287">
        <ele>799.2</ele>
        <time>2025-09-28T09:10:05Z</time>
      </trkpt>
      <trkpt lat="46.14896" lon="4.38282">
        <ele>799.2</ele>
        <time>2025-09-28T09:10:06Z</time>
      </trkpt>
      <trkpt lat="46.14898" lon="4.38276">
        <ele>799.6</ele>
        <time>2025-09-28T09:10:07Z</time>
      </trkpt>
      <trkpt lat="46.149" lon="4.38271">
        <ele>799.8</ele>
        <time>2025-09-28T09:10:08Z</time>
      </trkpt>
      <trkpt lat="46.14903" lon="4.38269">
        <ele>799.8</ele>
        <time>2025-09-28T09:10:09Z</time>
      </trkpt>
      <trkpt lat="46.14904" lon="4.38266">
        <ele>800</ele>
        <time>2025-09-28T09:10:10Z</time>
      </trkpt>
      <trkpt lat="46.14907" lon="4.38262">
        <ele>800</ele>
        <time>2025-09-28T09:10:11Z</time>
      </trkpt>
      <trkpt lat="46.14909" lon="4.38258">
        <ele>800</ele>
        <time>2025-09-28T09:10:12Z</time>
      </trkpt>
      <trkpt lat="46.14911" lon="4.38254">
        <ele>800</ele>
        <time>2025-09-28T09:10:13Z</time>
      </trkpt>
      <trkpt lat="46.14913" lon="4.3825">
        <ele>800</ele>
        <time>2025-09-28T09:10:14Z</time>
      </trkpt>
      <trkpt lat="46.14916" lon="4.38247">
        <ele>800.2</ele>
        <time>2025-09-28T09:10:15Z</time>
      </trkpt>
      <trkpt lat="46.14919" lon="4.38243">
        <ele>800.2</ele>
        <time>2025-09-28T09:10:16Z</time>
      </trkpt>
      <trkpt lat="46.14921" lon="4.38239">
        <ele>800.2</ele>
        <time>2025-09-28T09:10:17Z</time>
      </trkpt>
      <trkpt lat="46.14923" lon="4.38235">
        <ele>800.6</ele>
        <time>2025-09-28T09:10:18Z</time>
      </trkpt>
      <trkpt lat="46.14926" lon="4.38231">
        <ele>800.6</ele>
        <time>2025-09-28T09:10:19Z</time>
      </trkpt>
      <trkpt lat="46.14928" lon="4.38226">
        <ele>800.4</ele>
        <time>2025-09-28T09:10:20Z</time>
      </trkpt>
      <trkpt lat="46.14931" lon="4.38219">
        <ele>800.4</ele>
        <time>2025-09-28T09:10:21Z</time>
      </trkpt>
      <trkpt lat="46.14932" lon="4.38216">
        <ele>800.4</ele>
        <time>2025-09-28T09:10:22Z</time>
      </trkpt>
      <trkpt lat="46.14935" lon="4.38213">
        <ele>800.4</ele>
        <time>2025-09-28T09:10:23Z</time>
      </trkpt>
      <trkpt lat="46.14936" lon="4.38209">
        <ele>800.4</ele>
        <time>2025-09-28T09:10:24Z</time>
      </trkpt>
      <trkpt lat="46.14938" lon="4.38205">
        <ele>800.8</ele>
        <time>2025-09-28T09:10:25Z</time>
      </trkpt>
      <trkpt lat="46.14942" lon="4.382">
        <ele>800.8</ele>
        <time>2025-09-28T09:10:26Z</time>
      </trkpt>
      <trkpt lat="46.14944" lon="4.38196">
        <ele>801</ele>
        <time>2025-09-28T09:10:27Z</time>
      </trkpt>
      <trkpt lat="46.14944" lon="4.38195">
        <ele>801</ele>
        <time>2025-09-28T09:10:28Z</time>
      </trkpt>
      <trkpt lat="46.14943" lon="4.38195">
        <ele>801</ele>
        <time>2025-09-28T09:10:29Z</time>
      </trkpt>
      <trkpt lat="46.14948" lon="4.3819">
        <ele>801</ele>
        <time>2025-09-28T09:10:30Z</time>
      </trkpt>
      <trkpt lat="46.1495" lon="4.38187">
        <ele>801</ele>
        <time>2025-09-28T09:10:31Z</time>
      </trkpt>
      <trkpt lat="46.14953" lon="4.38183">
        <ele>801</ele>
        <time>2025-09-28T09:10:32Z</time>
      </trkpt>
      <trkpt lat="46.14956" lon="4.38182">
        <ele>801</ele>
        <time>2025-09-28T09:10:33Z</time>
      </trkpt>
      <trkpt lat="46.14959" lon="4.3818">
        <ele>801</ele>
        <time>2025-09-28T09:10:34Z</time>
      </trkpt>
      <trkpt lat="46.14962" lon="4.38178">
        <ele>800.8</ele>
        <time>2025-09-28T09:10:35Z</time>
      </trkpt>
      <trkpt lat="46.14965" lon="4.38176">
        <ele>800.8</ele>
        <time>2025-09-28T09:10:36Z</time>
      </trkpt>
      <trkpt lat="46.14969" lon="4.38173">
        <ele>800.8</ele>
        <time>2025-09-28T09:10:37Z</time>
      </trkpt>
      <trkpt lat="46.14977" lon="4.38163">
        <ele>800.8</ele>
        <time>2025-09-28T09:10:38Z</time>
      </trkpt>
      <trkpt lat="46.14982" lon="4.38159">
        <ele>800.4</ele>
        <time>2025-09-28T09:10:39Z</time>
      </trkpt>
      <trkpt lat="46.14985" lon="4.38156">
        <ele>800.4</ele>
        <time>2025-09-28T09:10:40Z</time>
      </trkpt>
      <trkpt lat="46.14989" lon="4.38153">
        <ele>800.4</ele>
        <time>2025-09-28T09:10:41Z</time>
      </trkpt>
      <trkpt lat="46.14991" lon="4.38148">
        <ele>800.4</ele>
        <time>2025-09-28T09:10:42Z</time>
      </trkpt>
      <trkpt lat="46.14988" lon="4.38144">
        <ele>800.4</ele>
        <time>2025-09-28T09:10:43Z</time>
      </trkpt>
      <trkpt lat="46.14996" lon="4.38132">
        <ele>800.2</ele>
        <time>2025-09-28T09:10:44Z</time>
      </trkpt>
      <trkpt lat="46.14997" lon="4.38123">
        <ele>800</ele>
        <time>2025-09-28T09:10:45Z</time>
      </trkpt>
      <trkpt lat="46.14999" lon="4.38116">
        <ele>799.4</ele>
        <time>2025-09-28T09:10:46Z</time>
      </trkpt>
      <trkpt lat="46.15003" lon="4.38106">
        <ele>799</ele>
        <time>2025-09-28T09:10:47Z</time>
      </trkpt>
      <trkpt lat="46.15004" lon="4.38098">
        <ele>798.2</ele>
        <time>2025-09-28T09:10:48Z</time>
      </trkpt>
      <trkpt lat="46.15005" lon="4.3809">
        <ele>797.2</ele>
        <time>2025-09-28T09:10:49Z</time>
      </trkpt>
      <trkpt lat="46.15007" lon="4.38078">
        <ele>796.6</ele>
        <time>2025-09-28T09:10:50Z</time>
      </trkpt>
      <trkpt lat="46.15007" lon="4.38068">
        <ele>795.6</ele>
        <time>2025-09-28T09:10:51Z</time>
      </trkpt>
      <trkpt lat="46.15009" lon="4.38053">
        <ele>795</ele>
        <time>2025-09-28T09:10:52Z</time>
      </trkpt>
      <trkpt lat="46.1501" lon="4.38039">
        <ele>794</ele>
        <time>2025-09-28T09:10:53Z</time>
      </trkpt>
      <trkpt lat="46.15008" lon="4.38029">
        <ele>794</ele>
        <time>2025-09-28T09:10:54Z</time>
      </trkpt>
      <trkpt lat="46.15005" lon="4.38017">
        <ele>793.4</ele>
        <time>2025-09-28T09:10:55Z</time>
      </trkpt>
      <trkpt lat="46.15005" lon="4.38004">
        <ele>792.4</ele>
        <time>2025-09-28T09:10:56Z</time>
      </trkpt>
      <trkpt lat="46.15004" lon="4.37989">
        <ele>791.6</ele>
        <time>2025-09-28T09:10:57Z</time>
      </trkpt>
      <trkpt lat="46.15002" lon="4.37979">
        <ele>790.8</ele>
        <time>2025-09-28T09:10:58Z</time>
      </trkpt>
      <trkpt lat="46.15" lon="4.37968">
        <ele>789.8</ele>
        <time>2025-09-28T09:10:59Z</time>
      </trkpt>
      <trkpt lat="46.14995" lon="4.37958">
        <ele>789</ele>
        <time>2025-09-28T09:11:00Z</time>
      </trkpt>
      <trkpt lat="46.14998" lon="4.37942">
        <ele>788.2</ele>
        <time>2025-09-28T09:11:01Z</time>
      </trkpt>
      <trkpt lat="46.14993" lon="4.37933">
        <ele>787.4</ele>
        <time>2025-09-28T09:11:02Z</time>
      </trkpt>
      <trkpt lat="46.14991" lon="4.37922">
        <ele>786.6</ele>
        <time>2025-09-28T09:11:03Z</time>
      </trkpt>
      <trkpt lat="46.14989" lon="4.37911">
        <ele>785.2</ele>
        <time>2025-09-28T09:11:04Z</time>
      </trkpt>
      <trkpt lat="46.1499" lon="4.379">
        <ele>784.8</ele>
        <time>2025-09-28T09:11:05Z</time>
      </trkpt>
      <trkpt lat="46.14988" lon="4.37886">
        <ele>784.4</ele>
        <time>2025-09-28T09:11:06Z</time>
      </trkpt>
      <trkpt lat="46.14988" lon="4.37875">
        <ele>783.6</ele>
        <time>2025-09-28T09:11:07Z</time>
      </trkpt>
      <trkpt lat="46.14991" lon="4.37863">
        <ele>783.2</ele>
        <time>2025-09-28T09:11:08Z</time>
      </trkpt>
      <trkpt lat="46.14992" lon="4.37852">
        <ele>783.2</ele>
        <time>2025-09-28T09:11:09Z</time>
      </trkpt>
      <trkpt lat="46.14992" lon="4.37843">
        <ele>783.2</ele>
        <time>2025-09-28T09:11:10Z</time>
      </trkpt>
      <trkpt lat="46.14994" lon="4.37834">
        <ele>783.4</ele>
        <time>2025-09-28T09:11:11Z</time>
      </trkpt>
      <trkpt lat="46.14995" lon="4.37825">
        <ele>783</ele>
        <time>2025-09-28T09:11:12Z</time>
      </trkpt>
      <trkpt lat="46.14996" lon="4.37815">
        <ele>783</ele>
        <time>2025-09-28T09:11:13Z</time>
      </trkpt>
      <trkpt lat="46.14997" lon="4.37805">
        <ele>783.4</ele>
        <time>2025-09-28T09:11:14Z</time>
      </trkpt>
      <trkpt lat="46.14997" lon="4.37797">
        <ele>783.4</ele>
        <time>2025-09-28T09:11:15Z</time>
      </trkpt>
      <trkpt lat="46.14999" lon="4.37788">
        <ele>783.4</ele>
        <time>2025-09-28T09:11:16Z</time>
      </trkpt>
      <trkpt lat="46.14999" lon="4.37781">
        <ele>783.4</ele>
        <time>2025-09-28T09:11:17Z</time>
      </trkpt>
      <trkpt lat="46.15001" lon="4.37774">
        <ele>783.6</ele>
        <time>2025-09-28T09:11:18Z</time>
      </trkpt>
      <trkpt lat="46.15001" lon="4.37766">
        <ele>783.6</ele>
        <time>2025-09-28T09:11:19Z</time>
      </trkpt>
      <trkpt lat="46.15003" lon="4.37758">
        <ele>783.4</ele>
        <time>2025-09-28T09:11:20Z</time>
      </trkpt>
      <trkpt lat="46.15005" lon="4.3775">
        <ele>783.6</ele>
        <time>2025-09-28T09:11:21Z</time>
      </trkpt>
      <trkpt lat="46.15005" lon="4.37743">
        <ele>783.6</ele>
        <time>2025-09-28T09:11:22Z</time>
      </trkpt>
      <trkpt lat="46.15004" lon="4.37735">
        <ele>783.6</ele>
        <time>2025-09-28T09:11:23Z</time>
      </trkpt>
      <trkpt lat="46.15002" lon="4.37728">
        <ele>783.6</ele>
        <time>2025-09-28T09:11:24Z</time>
      </trkpt>
      <trkpt lat="46.15001" lon="4.37722">
        <ele>783.4</ele>
        <time>2025-09-28T09:11:25Z</time>
      </trkpt>
      <trkpt lat="46.15001" lon="4.37713">
        <ele>783.4</ele>
        <time>2025-09-28T09:11:26Z</time>
      </trkpt>
      <trkpt lat="46.14999" lon="4.37707">
        <ele>783</ele>
        <time>2025-09-28T09:11:27Z</time>
      </trkpt>
      <trkpt lat="46.14998" lon="4.37698">
        <ele>783</ele>
        <time>2025-09-28T09:11:28Z</time>
      </trkpt>
      <trkpt lat="46.14996" lon="4.37691">
        <ele>783</ele>
        <time>2025-09-28T09:11:29Z</time>
      </trkpt>
      <trkpt lat="46.14994" lon="4.37684">
        <ele>783</ele>
        <time>2025-09-28T09:11:30Z</time>
      </trkpt>
      <trkpt lat="46.14992" lon="4.37677">
        <ele>783</ele>
        <time>2025-09-28T09:11:31Z</time>
      </trkpt>
      <trkpt lat="46.1499" lon="4.37669">
        <ele>783.4</ele>
        <time>2025-09-28T09:11:32Z</time>
      </trkpt>
      <trkpt lat="46.14988" lon="4.37661">
        <ele>783.4</ele>
        <time>2025-09-28T09:11:33Z</time>
      </trkpt>
      <trkpt lat="46.14985" lon="4.37655">
        <ele>783.4</ele>
        <time>2025-09-28T09:11:34Z</time>
      </trkpt>
      <trkpt lat="46.1498" lon="4.3765">
        <ele>783.4</ele>
        <time>2025-09-28T09:11:35Z</time>
      </trkpt>
      <trkpt lat="46.14977" lon="4.37644">
        <ele>783.6</ele>
        <time>2025-09-28T09:11:36Z</time>
      </trkpt>
      <trkpt lat="46.14974" lon="4.37639">
        <ele>783.6</ele>
        <time>2025-09-28T09:11:37Z</time>
      </trkpt>
      <trkpt lat="46.14971" lon="4.37634">
        <ele>784</ele>
        <time>2025-09-28T09:11:38Z</time>
      </trkpt>
      <trkpt lat="46.14967" lon="4.37629">
        <ele>784.2</ele>
        <time>2025-09-28T09:11:39Z</time>
      </trkpt>
      <trkpt lat="46.14964" lon="4.37623">
        <ele>784.6</ele>
        <time>2025-09-28T09:11:40Z</time>
      </trkpt>
      <trkpt lat="46.14962" lon="4.37618">
        <ele>784.6</ele>
        <time>2025-09-28T09:11:41Z</time>
      </trkpt>
      <trkpt lat="46.14958" lon="4.37616">
        <ele>784.6</ele>
        <time>2025-09-28T09:11:42Z</time>
      </trkpt>
      <trkpt lat="46.14954" lon="4.37611">
        <ele>784.6</ele>
        <time>2025-09-28T09:11:43Z</time>
      </trkpt>
      <trkpt lat="46.14954" lon="4.37606">
        <ele>784.6</ele>
        <time>2025-09-28T09:11:44Z</time>
      </trkpt>
      <trkpt lat="46.14949" lon="4.37604">
        <ele>784.6</ele>
        <time>2025-09-28T09:11:45Z</time>
      </trkpt>
      <trkpt lat="46.14945" lon="4.376">
        <ele>784.6</ele>
        <time>2025-09-28T09:11:46Z</time>
      </trkpt>
      <trkpt lat="46.14944" lon="4.37595">
        <ele>784.6</ele>
        <time>2025-09-28T09:11:47Z</time>
      </trkpt>
      <trkpt lat="46.1494" lon="4.37592">
        <ele>785</ele>
        <time>2025-09-28T09:11:48Z</time>
      </trkpt>
      <trkpt lat="46.14938" lon="4.37587">
        <ele>785</ele>
        <time>2025-09-28T09:11:49Z</time>
      </trkpt>
      <trkpt lat="46.14933" lon="4.37584">
        <ele>785.4</ele>
        <time>2025-09-28T09:11:50Z</time>
      </trkpt>
      <trkpt lat="46.14932" lon="4.37578">
        <ele>785.4</ele>
        <time>2025-09-28T09:11:51Z</time>
      </trkpt>
      <trkpt lat="46.14934" lon="4.37573">
        <ele>785.8</ele>
        <time>2025-09-28T09:11:52Z</time>
      </trkpt>
      <trkpt lat="46.14932" lon="4.3757">
        <ele>785.8</ele>
        <time>2025-09-28T09:11:53Z</time>
      </trkpt>
      <trkpt lat="46.14929" lon="4.3757">
        <ele>785.8</ele>
        <time>2025-09-28T09:11:54Z</time>
      </trkpt>
      <trkpt lat="46.14926" lon="4.37569">
        <ele>786.2</ele>
        <time>2025-09-28T09:11:55Z</time>
      </trkpt>
      <trkpt lat="46.14926" lon="4.37568">
        <ele>786.2</ele>
        <time>2025-09-28T09:11:56Z</time>
      </trkpt>
      <trkpt lat="46.14926" lon="4.37567">
        <ele>786.2</ele>
        <time>2025-09-28T09:11:57Z</time>
      </trkpt>
      <trkpt lat="46.14925" lon="4.37564">
        <ele>786.2</ele>
        <time>2025-09-28T09:11:58Z</time>
      </trkpt>
      <trkpt lat="46.14924" lon="4.37562">
        <ele>786.2</ele>
        <time>2025-09-28T09:11:59Z</time>
      </trkpt>
      <trkpt lat="46.14924" lon="4.37561">
        <ele>785.8</ele>
        <time>2025-09-28T09:12:00Z</time>
      </trkpt>
      <trkpt lat="46.14922" lon="4.37558">
        <ele>785.8</ele>
        <time>2025-09-28T09:12:01Z</time>
      </trkpt>
      <trkpt lat="46.14919" lon="4.37554">
        <ele>785.8</ele>
        <time>2025-09-28T09:12:02Z</time>
      </trkpt>
      <trkpt lat="46.14916" lon="4.3755">
        <ele>785.6</ele>
        <time>2025-09-28T09:12:03Z</time>
      </trkpt>
      <trkpt lat="46.14914" lon="4.37547">
        <ele>785.4</ele>
        <time>2025-09-28T09:12:04Z</time>
      </trkpt>
      <trkpt lat="46.14911" lon="4.37545">
        <ele>785.2</ele>
        <time>2025-09-28T09:12:05Z</time>
      </trkpt>
      <trkpt lat="46.14909" lon="4.37542">
        <ele>785.2</ele>
        <time>2025-09-28T09:12:06Z</time>
      </trkpt>
      <trkpt lat="46.14905" lon="4.3754">
        <ele>785.2</ele>
        <time>2025-09-28T09:12:07Z</time>
      </trkpt>
      <trkpt lat="46.14901" lon="4.37537">
        <ele>785</ele>
        <time>2025-09-28T09:12:08Z</time>
      </trkpt>
      <trkpt lat="46.14897" lon="4.37535">
        <ele>784.6</ele>
        <time>2025-09-28T09:12:09Z</time>
      </trkpt>
      <trkpt lat="46.14893" lon="4.37532">
        <ele>784.6</ele>
        <time>2025-09-28T09:12:10Z</time>
      </trkpt>
      <trkpt lat="46.14889" lon="4.37528">
        <ele>784.6</ele>
        <time>2025-09-28T09:12:11Z</time>
      </trkpt>
      <trkpt lat="46.14887" lon="4.37524">
        <ele>784.6</ele>
        <time>2025-09-28T09:12:12Z</time>
      </trkpt>
      <trkpt lat="46.14886" lon="4.37519">
        <ele>784.4</ele>
        <time>2025-09-28T09:12:13Z</time>
      </trkpt>
      <trkpt lat="46.14883" lon="4.37515">
        <ele>783.8</ele>
        <time>2025-09-28T09:12:14Z</time>
      </trkpt>
      <trkpt lat="46.1488" lon="4.37511">
        <ele>783.8</ele>
        <time>2025-09-28T09:12:15Z</time>
      </trkpt>
      <trkpt lat="46.14877" lon="4.37507">
        <ele>783.8</ele>
        <time>2025-09-28T09:12:16Z</time>
      </trkpt>
      <trkpt lat="46.14875" lon="4.37504">
        <ele>784.2</ele>
        <time>2025-09-28T09:12:17Z</time>
      </trkpt>
      <trkpt lat="46.14869" lon="4.37501">
        <ele>784.2</ele>
        <time>2025-09-28T09:12:18Z</time>
      </trkpt>
      <trkpt lat="46.14865" lon="4.37497">
        <ele>783.4</ele>
        <time>2025-09-28T09:12:19Z</time>
      </trkpt>
      <trkpt lat="46.14862" lon="4.37492">
        <ele>783</ele>
        <time>2025-09-28T09:12:20Z</time>
      </trkpt>
      <trkpt lat="46.14861" lon="4.37486">
        <ele>783</ele>
        <time>2025-09-28T09:12:21Z</time>
      </trkpt>
      <trkpt lat="46.14858" lon="4.37482">
        <ele>783</ele>
        <time>2025-09-28T09:12:22Z</time>
      </trkpt>
      <trkpt lat="46.14855" lon="4.37478">
        <ele>783</ele>
        <time>2025-09-28T09:12:23Z</time>
      </trkpt>
      <trkpt lat="46.14854" lon="4.37474">
        <ele>783.4</ele>
        <time>2025-09-28T09:12:24Z</time>
      </trkpt>
      <trkpt lat="46.14852" lon="4.37469">
        <ele>783.4</ele>
        <time>2025-09-28T09:12:25Z</time>
      </trkpt>
      <trkpt lat="46.14851" lon="4.37465">
        <ele>783.4</ele>
        <time>2025-09-28T09:12:26Z</time>
      </trkpt>
      <trkpt lat="46.1485" lon="4.37461">
        <ele>783.8</ele>
        <time>2025-09-28T09:12:27Z</time>
      </trkpt>
      <trkpt lat="46.14849" lon="4.37457">
        <ele>783.4</ele>
        <time>2025-09-28T09:12:28Z</time>
      </trkpt>
      <trkpt lat="46.14849" lon="4.37451">
        <ele>783.4</ele>
        <time>2025-09-28T09:12:29Z</time>
      </trkpt>
      <trkpt lat="46.14849" lon="4.37448">
        <ele>783.4</ele>
        <time>2025-09-28T09:12:30Z</time>
      </trkpt>
      <trkpt lat="46.14848" lon="4.37444">
        <ele>783.4</ele>
        <time>2025-09-28T09:12:31Z</time>
      </trkpt>
      <trkpt lat="46.14847" lon="4.3744">
        <ele>783.6</ele>
        <time>2025-09-28T09:12:32Z</time>
      </trkpt>
      <trkpt lat="46.14847" lon="4.37436">
        <ele>783.6</ele>
        <time>2025-09-28T09:12:33Z</time>
      </trkpt>
      <trkpt lat="46.14846" lon="4.37434">
        <ele>783.6</ele>
        <time>2025-09-28T09:12:34Z</time>
      </trkpt>
      <trkpt lat="46.14845" lon="4.37431">
        <ele>783.6</ele>
        <time>2025-09-28T09:12:35Z</time>
      </trkpt>
      <trkpt lat="46.14844" lon="4.37429">
        <ele>783.6</ele>
        <time>2025-09-28T09:12:36Z</time>
      </trkpt>
      <trkpt lat="46.14843" lon="4.37426">
        <ele>783.6</ele>
        <time>2025-09-28T09:12:37Z</time>
      </trkpt>
      <trkpt lat="46.14842" lon="4.37423">
        <ele>783.6</ele>
        <time>2025-09-28T09:12:38Z</time>
      </trkpt>
      <trkpt lat="46.14841" lon="4.37419">
        <ele>783.6</ele>
        <time>2025-09-28T09:12:39Z</time>
      </trkpt>
      <trkpt lat="46.1484" lon="4.37416">
        <ele>783.6</ele>
        <time>2025-09-28T09:12:40Z</time>
      </trkpt>
      <trkpt lat="46.1484" lon="4.37412">
        <ele>783.6</ele>
        <time>2025-09-28T09:12:41Z</time>
      </trkpt>
      <trkpt lat="46.14839" lon="4.37408">
        <ele>783.4</ele>
        <time>2025-09-28T09:12:42Z</time>
      </trkpt>
      <trkpt lat="46.14838" lon="4.37403">
        <ele>783.4</ele>
        <time>2025-09-28T09:12:43Z</time>
      </trkpt>
      <trkpt lat="46.14838" lon="4.37399">
        <ele>783.2</ele>
        <time>2025-09-28T09:12:44Z</time>
      </trkpt>
      <trkpt lat="46.14837" lon="4.37394">
        <ele>783.2</ele>
        <time>2025-09-28T09:12:45Z</time>
      </trkpt>
      <trkpt lat="46.14836" lon="4.37389">
        <ele>783.2</ele>
        <time>2025-09-28T09:12:46Z</time>
      </trkpt>
      <trkpt lat="46.14835" lon="4.37384">
        <ele>783</ele>
        <time>2025-09-28T09:12:47Z</time>
      </trkpt>
      <trkpt lat="46.14834" lon="4.37379">
        <ele>783</ele>
        <time>2025-09-28T09:12:48Z</time>
      </trkpt>
      <trkpt lat="46.14832" lon="4.37374">
        <ele>782.8</ele>
        <time>2025-09-28T09:12:49Z</time>
      </trkpt>
      <trkpt lat="46.1483" lon="4.37369">
        <ele>782.8</ele>
        <time>2025-09-28T09:12:50Z</time>
      </trkpt>
      <trkpt lat="46.14829" lon="4.37365">
        <ele>782.8</ele>
        <time>2025-09-28T09:12:51Z</time>
      </trkpt>
      <trkpt lat="46.14827" lon="4.3736">
        <ele>782.8</ele>
        <time>2025-09-28T09:12:52Z</time>
      </trkpt>
      <trkpt lat="46.14826" lon="4.37356">
        <ele>782.8</ele>
        <time>2025-09-28T09:12:53Z</time>
      </trkpt>
      <trkpt lat="46.14825" lon="4.37351">
        <ele>782.4</ele>
        <time>2025-09-28T09:12:54Z</time>
      </trkpt>
      <trkpt lat="46.14825" lon="4.37346">
        <ele>782.4</ele>
        <time>2025-09-28T09:12:55Z</time>
      </trkpt>
      <trkpt lat="46.14824" lon="4.37341">
        <ele>782.4</ele>
        <time>2025-09-28T09:12:56Z</time>
      </trkpt>
      <trkpt lat="46.14823" lon="4.37336">
        <ele>782.2</ele>
        <time>2025-09-28T09:12:57Z</time>
      </trkpt>
      <trkpt lat="46.14823" lon="4.37332">
        <ele>782.2</ele>
        <time>2025-09-28T09:12:58Z</time>
      </trkpt>
      <trkpt lat="46.14822" lon="4.37327">
        <ele>782</ele>
        <time>2025-09-28T09:12:59Z</time>
      </trkpt>
      <trkpt lat="46.14822" lon="4.37322">
        <ele>781.6</ele>
        <time>2025-09-28T09:13:00Z</time>
      </trkpt>
      <trkpt lat="46.14821" lon="4.37318">
        <ele>781.6</ele>
        <time>2025-09-28T09:13:01Z</time>
      </trkpt>
      <trkpt lat="46.1482" lon="4.37313">
        <ele>781.6</ele>
        <time>2025-09-28T09:13:02Z</time>
      </trkpt>
      <trkpt lat="46.1482" lon="4.3731">
        <ele>781.4</ele>
        <time>2025-09-28T09:13:03Z</time>
      </trkpt>
      <trkpt lat="46.1482" lon="4.37307">
        <ele>781.4</ele>
        <time>2025-09-28T09:13:04Z</time>
      </trkpt>
      <trkpt lat="46.1482" lon="4.37304">
        <ele>781</ele>
        <time>2025-09-28T09:13:05Z</time>
      </trkpt>
      <trkpt lat="46.1482" lon="4.373">
        <ele>781.2</ele>
        <time>2025-09-28T09:13:06Z</time>
      </trkpt>
      <trkpt lat="46.1482" lon="4.37297">
        <ele>781.2</ele>
        <time>2025-09-28T09:13:07Z</time>
      </trkpt>
      <trkpt lat="46.14822" lon="4.37293">
        <ele>781</ele>
        <time>2025-09-28T09:13:08Z</time>
      </trkpt>
      <trkpt lat="46.14823" lon="4.3729">
        <ele>781</ele>
        <time>2025-09-28T09:13:09Z</time>
      </trkpt>
      <trkpt lat="46.14825" lon="4.37287">
        <ele>781</ele>
        <time>2025-09-28T09:13:10Z</time>
      </trkpt>
      <trkpt lat="46.14827" lon="4.37287">
        <ele>781</ele>
        <time>2025-09-28T09:13:11Z</time>
      </trkpt>
      <trkpt lat="46.14828" lon="4.37287">
        <ele>780.6</ele>
        <time>2025-09-28T09:13:12Z</time>
      </trkpt>
      <trkpt lat="46.14829" lon="4.37288">
        <ele>780.6</ele>
        <time>2025-09-28T09:13:13Z</time>
      </trkpt>
      <trkpt lat="46.14829" lon="4.3729">
        <ele>780.6</ele>
        <time>2025-09-28T09:13:14Z</time>
      </trkpt>
      <trkpt lat="46.14829" lon="4.37291">
        <ele>780.6</ele>
        <time>2025-09-28T09:13:15Z</time>
      </trkpt>
      <trkpt lat="46.14828" lon="4.37292">
        <ele>780.6</ele>
        <time>2025-09-28T09:13:16Z</time>
      </trkpt>
      <trkpt lat="46.14828" lon="4.37293">
        <ele>780.6</ele>
        <time>2025-09-28T09:13:17Z</time>
      </trkpt>
      <trkpt lat="46.14827" lon="4.37293">
        <ele>780.6</ele>
        <time>2025-09-28T09:13:18Z</time>
      </trkpt>
      <trkpt lat="46.14826" lon="4.37295">
        <ele>781.4</ele>
        <time>2025-09-28T09:13:19Z</time>
      </trkpt>
      <trkpt lat="46.14824" lon="4.37296">
        <ele>781.4</ele>
        <time>2025-09-28T09:13:20Z</time>
      </trkpt>
      <trkpt lat="46.14821" lon="4.37296">
        <ele>781.4</ele>
        <time>2025-09-28T09:13:21Z</time>
      </trkpt>
      <trkpt lat="46.14818" lon="4.37295">
        <ele>781.4</ele>
        <time>2025-09-28T09:13:22Z</time>
      </trkpt>
      <trkpt lat="46.14816" lon="4.37293">
        <ele>781.4</ele>
        <time>2025-09-28T09:13:23Z</time>
      </trkpt>
      <trkpt lat="46.14814" lon="4.37289">
        <ele>781</ele>
        <time>2025-09-28T09:13:24Z</time>
      </trkpt>
      <trkpt lat="46.14812" lon="4.37284">
        <ele>781</ele>
        <time>2025-09-28T09:13:25Z</time>
      </trkpt>
      <trkpt lat="46.14811" lon="4.37279">
        <ele>780.8</ele>
        <time>2025-09-28T09:13:26Z</time>
      </trkpt>
      <trkpt lat="46.14811" lon="4.37273">
        <ele>780.8</ele>
        <time>2025-09-28T09:13:27Z</time>
      </trkpt>
      <trkpt lat="46.1481" lon="4.37267">
        <ele>780.8</ele>
        <time>2025-09-28T09:13:28Z</time>
      </trkpt>
      <trkpt lat="46.14808" lon="4.37261">
        <ele>781</ele>
        <time>2025-09-28T09:13:29Z</time>
      </trkpt>
      <trkpt lat="46.14807" lon="4.37256">
        <ele>781</ele>
        <time>2025-09-28T09:13:30Z</time>
      </trkpt>
      <trkpt lat="46.14805" lon="4.3725">
        <ele>781</ele>
        <time>2025-09-28T09:13:31Z</time>
      </trkpt>
      <trkpt lat="46.14803" lon="4.37245">
        <ele>781</ele>
        <time>2025-09-28T09:13:32Z</time>
      </trkpt>
      <trkpt lat="46.14802" lon="4.37239">
        <ele>781</ele>
        <time>2025-09-28T09:13:33Z</time>
      </trkpt>
      <trkpt lat="46.148" lon="4.37234">
        <ele>781.4</ele>
        <time>2025-09-28T09:13:34Z</time>
      </trkpt>
      <trkpt lat="46.14798" lon="4.37227">
        <ele>781.4</ele>
        <time>2025-09-28T09:13:35Z</time>
      </trkpt>
      <trkpt lat="46.14796" lon="4.37221">
        <ele>781.4</ele>
        <time>2025-09-28T09:13:36Z</time>
      </trkpt>
      <trkpt lat="46.14795" lon="4.37215">
        <ele>781.4</ele>
        <time>2025-09-28T09:13:37Z</time>
      </trkpt>
      <trkpt lat="46.14793" lon="4.37209">
        <ele>781.4</ele>
        <time>2025-09-28T09:13:38Z</time>
      </trkpt>
      <trkpt lat="46.14793" lon="4.37203">
        <ele>781.4</ele>
        <time>2025-09-28T09:13:39Z</time>
      </trkpt>
      <trkpt lat="46.14791" lon="4.37197">
        <ele>782</ele>
        <time>2025-09-28T09:13:40Z</time>
      </trkpt>
      <trkpt lat="46.14789" lon="4.37191">
        <ele>782.4</ele>
        <time>2025-09-28T09:13:41Z</time>
      </trkpt>
      <trkpt lat="46.14788" lon="4.37186">
        <ele>782.4</ele>
        <time>2025-09-28T09:13:42Z</time>
      </trkpt>
      <trkpt lat="46.14786" lon="4.3718">
        <ele>781.8</ele>
        <time>2025-09-28T09:13:43Z</time>
      </trkpt>
      <trkpt lat="46.14785" lon="4.37175">
        <ele>781.6</ele>
        <time>2025-09-28T09:13:44Z</time>
      </trkpt>
      <trkpt lat="46.14783" lon="4.37169">
        <ele>782</ele>
        <time>2025-09-28T09:13:45Z</time>
      </trkpt>
      <trkpt lat="46.14782" lon="4.37164">
        <ele>782</ele>
        <time>2025-09-28T09:13:46Z</time>
      </trkpt>
      <trkpt lat="46.14781" lon="4.37158">
        <ele>782.6</ele>
        <time>2025-09-28T09:13:47Z</time>
      </trkpt>
      <trkpt lat="46.14779" lon="4.37154">
        <ele>782.8</ele>
        <time>2025-09-28T09:13:48Z</time>
      </trkpt>
      <trkpt lat="46.14778" lon="4.37149">
        <ele>783.6</ele>
        <time>2025-09-28T09:13:49Z</time>
      </trkpt>
      <trkpt lat="46.14777" lon="4.37144">
        <ele>783.8</ele>
        <time>2025-09-28T09:13:50Z</time>
      </trkpt>
      <trkpt lat="46.14776" lon="4.37139">
        <ele>784.2</ele>
        <time>2025-09-28T09:13:51Z</time>
      </trkpt>
      <trkpt lat="46.14774" lon="4.37135">
        <ele>784.2</ele>
        <time>2025-09-28T09:13:52Z</time>
      </trkpt>
      <trkpt lat="46.14773" lon="4.37131">
        <ele>784.2</ele>
        <time>2025-09-28T09:13:53Z</time>
      </trkpt>
      <trkpt lat="46.14771" lon="4.37127">
        <ele>784.6</ele>
        <time>2025-09-28T09:13:54Z</time>
      </trkpt>
      <trkpt lat="46.14769" lon="4.37124">
        <ele>784.6</ele>
        <time>2025-09-28T09:13:55Z</time>
      </trkpt>
      <trkpt lat="46.14767" lon="4.37121">
        <ele>785</ele>
        <time>2025-09-28T09:13:56Z</time>
      </trkpt>
      <trkpt lat="46.14765" lon="4.37118">
        <ele>785</ele>
        <time>2025-09-28T09:13:57Z</time>
      </trkpt>
      <trkpt lat="46.14763" lon="4.37115">
        <ele>785.6</ele>
        <time>2025-09-28T09:13:58Z</time>
      </trkpt>
      <trkpt lat="46.14762" lon="4.37111">
        <ele>785.6</ele>
        <time>2025-09-28T09:13:59Z</time>
      </trkpt>
      <trkpt lat="46.1476" lon="4.37108">
        <ele>786</ele>
        <time>2025-09-28T09:14:00Z</time>
      </trkpt>
      <trkpt lat="46.14759" lon="4.37105">
        <ele>786</ele>
        <time>2025-09-28T09:14:01Z</time>
      </trkpt>
      <trkpt lat="46.14757" lon="4.37101">
        <ele>786.2</ele>
        <time>2025-09-28T09:14:02Z</time>
      </trkpt>
      <trkpt lat="46.14755" lon="4.37098">
        <ele>786.2</ele>
        <time>2025-09-28T09:14:03Z</time>
      </trkpt>
      <trkpt lat="46.14753" lon="4.37095">
        <ele>786.6</ele>
        <time>2025-09-28T09:14:04Z</time>
      </trkpt>
      <trkpt lat="46.14752" lon="4.37093">
        <ele>787</ele>
        <time>2025-09-28T09:14:05Z</time>
      </trkpt>
      <trkpt lat="46.14751" lon="4.3709">
        <ele>787.2</ele>
        <time>2025-09-28T09:14:06Z</time>
      </trkpt>
      <trkpt lat="46.14751" lon="4.37086">
        <ele>787.2</ele>
        <time>2025-09-28T09:14:07Z</time>
      </trkpt>
      <trkpt lat="46.1475" lon="4.37083">
        <ele>788.2</ele>
        <time>2025-09-28T09:14:08Z</time>
      </trkpt>
      <trkpt lat="46.1475" lon="4.3708">
        <ele>788.8</ele>
        <time>2025-09-28T09:14:09Z</time>
      </trkpt>
      <trkpt lat="46.1475" lon="4.37076">
        <ele>789</ele>
        <time>2025-09-28T09:14:10Z</time>
      </trkpt>
      <trkpt lat="46.1475" lon="4.37073">
        <ele>789</ele>
        <time>2025-09-28T09:14:11Z</time>
      </trkpt>
      <trkpt lat="46.14749" lon="4.37069">
        <ele>789.4</ele>
        <time>2025-09-28T09:14:12Z</time>
      </trkpt>
      <trkpt lat="46.14749" lon="4.37065">
        <ele>789.8</ele>
        <time>2025-09-28T09:14:13Z</time>
      </trkpt>
      <trkpt lat="46.14748" lon="4.37062">
        <ele>789.8</ele>
        <time>2025-09-28T09:14:14Z</time>
      </trkpt>
      <trkpt lat="46.14747" lon="4.37058">
        <ele>789.8</ele>
        <time>2025-09-28T09:14:15Z</time>
      </trkpt>
      <trkpt lat="46.14745" lon="4.37055">
        <ele>790</ele>
        <time>2025-09-28T09:14:16Z</time>
      </trkpt>
      <trkpt lat="46.14743" lon="4.37052">
        <ele>790</ele>
        <time>2025-09-28T09:14:17Z</time>
      </trkpt>
      <trkpt lat="46.14741" lon="4.37049">
        <ele>790</ele>
        <time>2025-09-28T09:14:18Z</time>
      </trkpt>
      <trkpt lat="46.14739" lon="4.37046">
        <ele>790</ele>
        <time>2025-09-28T09:14:19Z</time>
      </trkpt>
      <trkpt lat="46.14737" lon="4.37043">
        <ele>790</ele>
        <time>2025-09-28T09:14:20Z</time>
      </trkpt>
      <trkpt lat="46.14735" lon="4.37039">
        <ele>790</ele>
        <time>2025-09-28T09:14:21Z</time>
      </trkpt>
      <trkpt lat="46.14733" lon="4.37036">
        <ele>790.2</ele>
        <time>2025-09-28T09:14:22Z</time>
      </trkpt>
      <trkpt lat="46.14731" lon="4.37033">
        <ele>790.2</ele>
        <time>2025-09-28T09:14:23Z</time>
      </trkpt>
      <trkpt lat="46.14728" lon="4.37029">
        <ele>790</ele>
        <time>2025-09-28T09:14:24Z</time>
      </trkpt>
      <trkpt lat="46.14727" lon="4.37025">
        <ele>790</ele>
        <time>2025-09-28T09:14:25Z</time>
      </trkpt>
      <trkpt lat="46.14726" lon="4.37021">
        <ele>790.4</ele>
        <time>2025-09-28T09:14:26Z</time>
      </trkpt>
      <trkpt lat="46.14724" lon="4.37018">
        <ele>790.8</ele>
        <time>2025-09-28T09:14:27Z</time>
      </trkpt>
      <trkpt lat="46.14721" lon="4.37014">
        <ele>790.8</ele>
        <time>2025-09-28T09:14:28Z</time>
      </trkpt>
      <trkpt lat="46.14719" lon="4.37011">
        <ele>791.2</ele>
        <time>2025-09-28T09:14:29Z</time>
      </trkpt>
      <trkpt lat="46.14717" lon="4.37008">
        <ele>791.2</ele>
        <time>2025-09-28T09:14:30Z</time>
      </trkpt>
      <trkpt lat="46.14715" lon="4.37004">
        <ele>791.6</ele>
        <time>2025-09-28T09:14:31Z</time>
      </trkpt>
      <trkpt lat="46.14714" lon="4.37">
        <ele>791.8</ele>
        <time>2025-09-28T09:14:32Z</time>
      </trkpt>
      <trkpt lat="46.14713" lon="4.36996">
        <ele>792.2</ele>
        <time>2025-09-28T09:14:33Z</time>
      </trkpt>
      <trkpt lat="46.14711" lon="4.36992">
        <ele>792.2</ele>
        <time>2025-09-28T09:14:34Z</time>
      </trkpt>
      <trkpt lat="46.1471" lon="4.36989">
        <ele>792.4</ele>
        <time>2025-09-28T09:14:35Z</time>
      </trkpt>
      <trkpt lat="46.14708" lon="4.36986">
        <ele>792.4</ele>
        <time>2025-09-28T09:14:36Z</time>
      </trkpt>
      <trkpt lat="46.14706" lon="4.36983">
        <ele>792</ele>
        <time>2025-09-28T09:14:37Z</time>
      </trkpt>
      <trkpt lat="46.14705" lon="4.36981">
        <ele>792</ele>
        <time>2025-09-28T09:14:38Z</time>
      </trkpt>
      <trkpt lat="46.14703" lon="4.36978">
        <ele>792.4</ele>
        <time>2025-09-28T09:14:39Z</time>
      </trkpt>
      <trkpt lat="46.14702" lon="4.36976">
        <ele>792.6</ele>
        <time>2025-09-28T09:14:40Z</time>
      </trkpt>
      <trkpt lat="46.14701" lon="4.36973">
        <ele>792.6</ele>
        <time>2025-09-28T09:14:41Z</time>
      </trkpt>
      <trkpt lat="46.14699" lon="4.3697">
        <ele>793.2</ele>
        <time>2025-09-28T09:14:42Z</time>
      </trkpt>
      <trkpt lat="46.14698" lon="4.36967">
        <ele>793.2</ele>
        <time>2025-09-28T09:14:43Z</time>
      </trkpt>
      <trkpt lat="46.14697" lon="4.36965">
        <ele>793.2</ele>
        <time>2025-09-28T09:14:44Z</time>
      </trkpt>
      <trkpt lat="46.14696" lon="4.36962">
        <ele>793.6</ele>
        <time>2025-09-28T09:14:45Z</time>
      </trkpt>
      <trkpt lat="46.14695" lon="4.36959">
        <ele>793.6</ele>
        <time>2025-09-28T09:14:46Z</time>
      </trkpt>
      <trkpt lat="46.14694" lon="4.36957">
        <ele>794</ele>
        <time>2025-09-28T09:14:47Z</time>
      </trkpt>
      <trkpt lat="46.14692" lon="4.36955">
        <ele>794</ele>
        <time>2025-09-28T09:14:48Z</time>
      </trkpt>
      <trkpt lat="46.14691" lon="4.36953">
        <ele>794.4</ele>
        <time>2025-09-28T09:14:49Z</time>
      </trkpt>
      <trkpt lat="46.1469" lon="4.36951">
        <ele>794</ele>
        <time>2025-09-28T09:14:50Z</time>
      </trkpt>
      <trkpt lat="46.14688" lon="4.36949">
        <ele>794</ele>
        <time>2025-09-28T09:14:51Z</time>
      </trkpt>
      <trkpt lat="46.14687" lon="4.36948">
        <ele>794.6</ele>
        <time>2025-09-28T09:14:52Z</time>
      </trkpt>
      <trkpt lat="46.14685" lon="4.36946">
        <ele>794.8</ele>
        <time>2025-09-28T09:14:53Z</time>
      </trkpt>
      <trkpt lat="46.14684" lon="4.36944">
        <ele>794.8</ele>
        <time>2025-09-28T09:14:54Z</time>
      </trkpt>
      <trkpt lat="46.14682" lon="4.36942">
        <ele>795.2</ele>
        <time>2025-09-28T09:14:55Z</time>
      </trkpt>
      <trkpt lat="46.14681" lon="4.36941">
        <ele>795.2</ele>
        <time>2025-09-28T09:14:56Z</time>
      </trkpt>
      <trkpt lat="46.14681" lon="4.36941">
        <ele>795.6</ele>
        <time>2025-09-28T09:14:57Z</time>
      </trkpt>
      <trkpt lat="46.14681" lon="4.36941">
        <ele>795.6</ele>
        <time>2025-09-28T09:14:58Z</time>
      </trkpt>
      <trkpt lat="46.14679" lon="4.3694">
        <ele>795.8</ele>
        <time>2025-09-28T09:15:07Z</time>
      </trkpt>
      <trkpt lat="46.14677" lon="4.36939">
        <ele>795.8</ele>
        <time>2025-09-28T09:15:08Z</time>
      </trkpt>
      <trkpt lat="46.14674" lon="4.36938">
        <ele>795.8</ele>
        <time>2025-09-28T09:15:09Z</time>
      </trkpt>
      <trkpt lat="46.14672" lon="4.36936">
        <ele>795.8</ele>
        <time>2025-09-28T09:15:10Z</time>
      </trkpt>
      <trkpt lat="46.1467" lon="4.36934">
        <ele>795.8</ele>
        <time>2025-09-28T09:15:11Z</time>
      </trkpt>
      <trkpt lat="46.14669" lon="4.36931">
        <ele>796</ele>
        <time>2025-09-28T09:15:12Z</time>
      </trkpt>
      <trkpt lat="46.14667" lon="4.36928">
        <ele>796</ele>
        <time>2025-09-28T09:15:13Z</time>
      </trkpt>
      <trkpt lat="46.14665" lon="4.36926">
        <ele>796</ele>
        <time>2025-09-28T09:15:14Z</time>
      </trkpt>
      <trkpt lat="46.14663" lon="4.36923">
        <ele>796.4</ele>
        <time>2025-09-28T09:15:15Z</time>
      </trkpt>
      <trkpt lat="46.14662" lon="4.3692">
        <ele>796.4</ele>
        <time>2025-09-28T09:15:16Z</time>
      </trkpt>
      <trkpt lat="46.14659" lon="4.36917">
        <ele>796.6</ele>
        <time>2025-09-28T09:15:17Z</time>
      </trkpt>
      <trkpt lat="46.14657" lon="4.36915">
        <ele>796.6</ele>
        <time>2025-09-28T09:15:18Z</time>
      </trkpt>
      <trkpt lat="46.14655" lon="4.36912">
        <ele>796.6</ele>
        <time>2025-09-28T09:15:19Z</time>
      </trkpt>
      <trkpt lat="46.14652" lon="4.3691">
        <ele>796.8</ele>
        <time>2025-09-28T09:15:20Z</time>
      </trkpt>
      <trkpt lat="46.14649" lon="4.36907">
        <ele>796.8</ele>
        <time>2025-09-28T09:15:21Z</time>
      </trkpt>
      <trkpt lat="46.14646" lon="4.36903">
        <ele>796.6</ele>
        <time>2025-09-28T09:15:22Z</time>
      </trkpt>
      <trkpt lat="46.14643" lon="4.36899">
        <ele>796.8</ele>
        <time>2025-09-28T09:15:23Z</time>
      </trkpt>
      <trkpt lat="46.14641" lon="4.36896">
        <ele>796.8</ele>
        <time>2025-09-28T09:15:24Z</time>
      </trkpt>
      <trkpt lat="46.14638" lon="4.36892">
        <ele>796.8</ele>
        <time>2025-09-28T09:15:25Z</time>
      </trkpt>
      <trkpt lat="46.14635" lon="4.36888">
        <ele>796.8</ele>
        <time>2025-09-28T09:15:26Z</time>
      </trkpt>
      <trkpt lat="46.14631" lon="4.36885">
        <ele>796.8</ele>
        <time>2025-09-28T09:15:27Z</time>
      </trkpt>
      <trkpt lat="46.14628" lon="4.36881">
        <ele>796.8</ele>
        <time>2025-09-28T09:15:28Z</time>
      </trkpt>
      <trkpt lat="46.14624" lon="4.36879">
        <ele>796.8</ele>
        <time>2025-09-28T09:15:29Z</time>
      </trkpt>
      <trkpt lat="46.1462" lon="4.36876">
        <ele>796.8</ele>
        <time>2025-09-28T09:15:30Z</time>
      </trkpt>
      <trkpt lat="46.14617" lon="4.36872">
        <ele>796.8</ele>
        <time>2025-09-28T09:15:31Z</time>
      </trkpt>
      <trkpt lat="46.14613" lon="4.36869">
        <ele>796.8</ele>
        <time>2025-09-28T09:15:32Z</time>
      </trkpt>
      <trkpt lat="46.14609" lon="4.36866">
        <ele>796.6</ele>
        <time>2025-09-28T09:15:33Z</time>
      </trkpt>
      <trkpt lat="46.14605" lon="4.36864">
        <ele>796.6</ele>
        <time>2025-09-28T09:15:34Z</time>
      </trkpt>
      <trkpt lat="46.14601" lon="4.36861">
        <ele>796.6</ele>
        <time>2025-09-28T09:15:35Z</time>
      </trkpt>
      <trkpt lat="46.14596" lon="4.36858">
        <ele>796.6</ele>
        <time>2025-09-28T09:15:36Z</time>
      </trkpt>
      <trkpt lat="46.14592" lon="4.36855">
        <ele>796.8</ele>
        <time>2025-09-28T09:15:37Z</time>
      </trkpt>
      <trkpt lat="46.14588" lon="4.36852">
        <ele>796.6</ele>
        <time>2025-09-28T09:15:38Z</time>
      </trkpt>
      <trkpt lat="46.14584" lon="4.36847">
        <ele>796.6</ele>
        <time>2025-09-28T09:15:39Z</time>
      </trkpt>
      <trkpt lat="46.1458" lon="4.36843">
        <ele>796.6</ele>
        <time>2025-09-28T09:15:40Z</time>
      </trkpt>
      <trkpt lat="46.14576" lon="4.36839">
        <ele>796.6</ele>
        <time>2025-09-28T09:15:41Z</time>
      </trkpt>
      <trkpt lat="46.14572" lon="4.36835">
        <ele>796.6</ele>
        <time>2025-09-28T09:15:42Z</time>
      </trkpt>
      <trkpt lat="46.14568" lon="4.3683">
        <ele>796.6</ele>
        <time>2025-09-28T09:15:43Z</time>
      </trkpt>
      <trkpt lat="46.14564" lon="4.36825">
        <ele>796.6</ele>
        <time>2025-09-28T09:15:44Z</time>
      </trkpt>
      <trkpt lat="46.1456" lon="4.36822">
        <ele>796.8</ele>
        <time>2025-09-28T09:15:45Z</time>
      </trkpt>
      <trkpt lat="46.14557" lon="4.36818">
        <ele>796.6</ele>
        <time>2025-09-28T09:15:46Z</time>
      </trkpt>
      <trkpt lat="46.14554" lon="4.36814">
        <ele>796.8</ele>
        <time>2025-09-28T09:15:47Z</time>
      </trkpt>
      <trkpt lat="46.14552" lon="4.36809">
        <ele>796.8</ele>
        <time>2025-09-28T09:15:48Z</time>
      </trkpt>
      <trkpt lat="46.14549" lon="4.36805">
        <ele>797.2</ele>
        <time>2025-09-28T09:15:49Z</time>
      </trkpt>
      <trkpt lat="46.14545" lon="4.36801">
        <ele>797.4</ele>
        <time>2025-09-28T09:15:50Z</time>
      </trkpt>
      <trkpt lat="46.14542" lon="4.36797">
        <ele>797.8</ele>
        <time>2025-09-28T09:15:51Z</time>
      </trkpt>
      <trkpt lat="46.14538" lon="4.36793">
        <ele>797.6</ele>
        <time>2025-09-28T09:15:52Z</time>
      </trkpt>
      <trkpt lat="46.14535" lon="4.3679">
        <ele>798</ele>
        <time>2025-09-28T09:15:53Z</time>
      </trkpt>
      <trkpt lat="46.14531" lon="4.36786">
        <ele>798</ele>
        <time>2025-09-28T09:15:54Z</time>
      </trkpt>
      <trkpt lat="46.14528" lon="4.36783">
        <ele>798.4</ele>
        <time>2025-09-28T09:15:55Z</time>
      </trkpt>
      <trkpt lat="46.14525" lon="4.36779">
        <ele>798.4</ele>
        <time>2025-09-28T09:15:56Z</time>
      </trkpt>
      <trkpt lat="46.14522" lon="4.36775">
        <ele>798.4</ele>
        <time>2025-09-28T09:15:57Z</time>
      </trkpt>
      <trkpt lat="46.14519" lon="4.36772">
        <ele>798.8</ele>
        <time>2025-09-28T09:15:58Z</time>
      </trkpt>
      <trkpt lat="46.14516" lon="4.36768">
        <ele>798.8</ele>
        <time>2025-09-28T09:15:59Z</time>
      </trkpt>
      <trkpt lat="46.14511" lon="4.36764">
        <ele>798.8</ele>
        <time>2025-09-28T09:16:00Z</time>
      </trkpt>
      <trkpt lat="46.14509" lon="4.36759">
        <ele>798.8</ele>
        <time>2025-09-28T09:16:01Z</time>
      </trkpt>
      <trkpt lat="46.14508" lon="4.36752">
        <ele>798.8</ele>
        <time>2025-09-28T09:16:02Z</time>
      </trkpt>
      <trkpt lat="46.14506" lon="4.36748">
        <ele>799.2</ele>
        <time>2025-09-28T09:16:03Z</time>
      </trkpt>
      <trkpt lat="46.14502" lon="4.36744">
        <ele>799.2</ele>
        <time>2025-09-28T09:16:04Z</time>
      </trkpt>
      <trkpt lat="46.14498" lon="4.36741">
        <ele>799.2</ele>
        <time>2025-09-28T09:16:05Z</time>
      </trkpt>
      <trkpt lat="46.14496" lon="4.36738">
        <ele>799.2</ele>
        <time>2025-09-28T09:16:06Z</time>
      </trkpt>
      <trkpt lat="46.1449" lon="4.36735">
        <ele>799.2</ele>
        <time>2025-09-28T09:16:07Z</time>
      </trkpt>
      <trkpt lat="46.14485" lon="4.36731">
        <ele>798.4</ele>
        <time>2025-09-28T09:16:08Z</time>
      </trkpt>
      <trkpt lat="46.14481" lon="4.36729">
        <ele>798.4</ele>
        <time>2025-09-28T09:16:09Z</time>
      </trkpt>
      <trkpt lat="46.14476" lon="4.36727">
        <ele>798</ele>
        <time>2025-09-28T09:16:10Z</time>
      </trkpt>
      <trkpt lat="46.14471" lon="4.36723">
        <ele>797.4</ele>
        <time>2025-09-28T09:16:11Z</time>
      </trkpt>
      <trkpt lat="46.14466" lon="4.36716">
        <ele>797.4</ele>
        <time>2025-09-28T09:16:12Z</time>
      </trkpt>
      <trkpt lat="46.1446" lon="4.36712">
        <ele>798</ele>
        <time>2025-09-28T09:16:13Z</time>
      </trkpt>
      <trkpt lat="46.14455" lon="4.36707">
        <ele>798</ele>
        <time>2025-09-28T09:16:14Z</time>
      </trkpt>
      <trkpt lat="46.14449" lon="4.36702">
        <ele>797.6</ele>
        <time>2025-09-28T09:16:15Z</time>
      </trkpt>
      <trkpt lat="46.14444" lon="4.36696">
        <ele>797</ele>
        <time>2025-09-28T09:16:16Z</time>
      </trkpt>
      <trkpt lat="46.14438" lon="4.36691">
        <ele>797</ele>
        <time>2025-09-28T09:16:17Z</time>
      </trkpt>
      <trkpt lat="46.14431" lon="4.36687">
        <ele>796.4</ele>
        <time>2025-09-28T09:16:18Z</time>
      </trkpt>
      <trkpt lat="46.14424" lon="4.36683">
        <ele>796.2</ele>
        <time>2025-09-28T09:16:19Z</time>
      </trkpt>
      <trkpt lat="46.14418" lon="4.36679">
        <ele>795.2</ele>
        <time>2025-09-28T09:16:20Z</time>
      </trkpt>
      <trkpt lat="46.14411" lon="4.36676">
        <ele>794.4</ele>
        <time>2025-09-28T09:16:21Z</time>
      </trkpt>
      <trkpt lat="46.14404" lon="4.36672">
        <ele>795</ele>
        <time>2025-09-28T09:16:22Z</time>
      </trkpt>
      <trkpt lat="46.14399" lon="4.36667">
        <ele>794.8</ele>
        <time>2025-09-28T09:16:23Z</time>
      </trkpt>
      <trkpt lat="46.14392" lon="4.36662">
        <ele>794</ele>
        <time>2025-09-28T09:16:24Z</time>
      </trkpt>
      <trkpt lat="46.14386" lon="4.36655">
        <ele>793.2</ele>
        <time>2025-09-28T09:16:25Z</time>
      </trkpt>
      <trkpt lat="46.14381" lon="4.36649">
        <ele>793</ele>
        <time>2025-09-28T09:16:26Z</time>
      </trkpt>
      <trkpt lat="46.14374" lon="4.36643">
        <ele>791.8</ele>
        <time>2025-09-28T09:16:27Z</time>
      </trkpt>
      <trkpt lat="46.14368" lon="4.36637">
        <ele>791.4</ele>
        <time>2025-09-28T09:16:28Z</time>
      </trkpt>
      <trkpt lat="46.14362" lon="4.36631">
        <ele>791.4</ele>
        <time>2025-09-28T09:16:29Z</time>
      </trkpt>
      <trkpt lat="46.14356" lon="4.36625">
        <ele>791</ele>
        <time>2025-09-28T09:16:30Z</time>
      </trkpt>
      <trkpt lat="46.14351" lon="4.36621">
        <ele>790.8</ele>
        <time>2025-09-28T09:16:31Z</time>
      </trkpt>
      <trkpt lat="46.14347" lon="4.36617">
        <ele>790.2</ele>
        <time>2025-09-28T09:16:32Z</time>
      </trkpt>
      <trkpt lat="46.14345" lon="4.36615">
        <ele>790</ele>
        <time>2025-09-28T09:16:33Z</time>
      </trkpt>
      <trkpt lat="46.14344" lon="4.36614">
        <ele>790</ele>
        <time>2025-09-28T09:16:34Z</time>
      </trkpt>
      <trkpt lat="46.14344" lon="4.36613">
        <ele>789.8</ele>
        <time>2025-09-28T09:16:35Z</time>
      </trkpt>
      <trkpt lat="46.14344" lon="4.36613">
        <ele>789.8</ele>
        <time>2025-09-28T09:16:36Z</time>
      </trkpt>
      <trkpt lat="46.14344" lon="4.36613">
        <ele>789.6</ele>
        <time>2025-09-28T09:16:37Z</time>
      </trkpt>
      <trkpt lat="46.14344" lon="4.36613">
        <ele>789.6</ele>
        <time>2025-09-28T09:16:38Z</time>
      </trkpt>
      <trkpt lat="46.14345" lon="4.36613">
        <ele>789.4</ele>
        <time>2025-09-28T09:17:40Z</time>
      </trkpt>
      <trkpt lat="46.14344" lon="4.36612">
        <ele>789.4</ele>
        <time>2025-09-28T09:17:41Z</time>
      </trkpt>
      <trkpt lat="46.14344" lon="4.36613">
        <ele>789.4</ele>
        <time>2025-09-28T09:17:42Z</time>
      </trkpt>
      <trkpt lat="46.14344" lon="4.36613">
        <ele>789.4</ele>
        <time>2025-09-28T09:17:43Z</time>
      </trkpt>
      <trkpt lat="46.1434" lon="4.36611">
        <ele>789.2</ele>
        <time>2025-09-28T09:17:49Z</time>
      </trkpt>
      <trkpt lat="46.14338" lon="4.36609">
        <ele>789.2</ele>
        <time>2025-09-28T09:17:50Z</time>
      </trkpt>
      <trkpt lat="46.14336" lon="4.36607">
        <ele>789</ele>
        <time>2025-09-28T09:17:51Z</time>
      </trkpt>
      <trkpt lat="46.14333" lon="4.36603">
        <ele>788.8</ele>
        <time>2025-09-28T09:17:52Z</time>
      </trkpt>
      <trkpt lat="46.14331" lon="4.366">
        <ele>788.8</ele>
        <time>2025-09-28T09:17:53Z</time>
      </trkpt>
      <trkpt lat="46.14328" lon="4.36596">
        <ele>788.8</ele>
        <time>2025-09-28T09:17:54Z</time>
      </trkpt>
      <trkpt lat="46.14325" lon="4.3659">
        <ele>788.8</ele>
        <time>2025-09-28T09:17:55Z</time>
      </trkpt>
      <trkpt lat="46.14321" lon="4.36586">
        <ele>788.8</ele>
        <time>2025-09-28T09:17:56Z</time>
      </trkpt>
      <trkpt lat="46.14319" lon="4.36583">
        <ele>788.4</ele>
        <time>2025-09-28T09:17:57Z</time>
      </trkpt>
      <trkpt lat="46.14315" lon="4.36578">
        <ele>787.8</ele>
        <time>2025-09-28T09:17:58Z</time>
      </trkpt>
      <trkpt lat="46.14312" lon="4.36573">
        <ele>788</ele>
        <time>2025-09-28T09:17:59Z</time>
      </trkpt>
      <trkpt lat="46.14308" lon="4.36569">
        <ele>788</ele>
        <time>2025-09-28T09:18:00Z</time>
      </trkpt>
      <trkpt lat="46.14305" lon="4.36563">
        <ele>788</ele>
        <time>2025-09-28T09:18:01Z</time>
      </trkpt>
      <trkpt lat="46.14303" lon="4.36557">
        <ele>788</ele>
        <time>2025-09-28T09:18:02Z</time>
      </trkpt>
      <trkpt lat="46.14299" lon="4.36552">
        <ele>788.6</ele>
        <time>2025-09-28T09:18:03Z</time>
      </trkpt>
      <trkpt lat="46.14292" lon="4.3655">
        <ele>787.8</ele>
        <time>2025-09-28T09:18:04Z</time>
      </trkpt>
      <trkpt lat="46.1429" lon="4.36545">
        <ele>787.8</ele>
        <time>2025-09-28T09:18:05Z</time>
      </trkpt>
      <trkpt lat="46.14286" lon="4.36542">
        <ele>786.2</ele>
        <time>2025-09-28T09:18:06Z</time>
      </trkpt>
      <trkpt lat="46.14282" lon="4.36539">
        <ele>786.4</ele>
        <time>2025-09-28T09:18:07Z</time>
      </trkpt>
      <trkpt lat="46.14273" lon="4.36536">
        <ele>786.4</ele>
        <time>2025-09-28T09:18:08Z</time>
      </trkpt>
      <trkpt lat="46.1427" lon="4.36534">
        <ele>786.4</ele>
        <time>2025-09-28T09:18:09Z</time>
      </trkpt>
      <trkpt lat="46.14265" lon="4.36528">
        <ele>786.4</ele>
        <time>2025-09-28T09:18:10Z</time>
      </trkpt>
      <trkpt lat="46.14258" lon="4.36522">
        <ele>786.2</ele>
        <time>2025-09-28T09:18:11Z</time>
      </trkpt>
      <trkpt lat="46.14252" lon="4.36517">
        <ele>786.6</ele>
        <time>2025-09-28T09:18:12Z</time>
      </trkpt>
      <trkpt lat="46.14248" lon="4.36512">
        <ele>786.4</ele>
        <time>2025-09-28T09:18:13Z</time>
      </trkpt>
      <trkpt lat="46.14244" lon="4.36508">
        <ele>787</ele>
        <time>2025-09-28T09:18:14Z</time>
      </trkpt>
      <trkpt lat="46.1424" lon="4.36506">
        <ele>786.6</ele>
        <time>2025-09-28T09:18:15Z</time>
      </trkpt>
      <trkpt lat="46.14236" lon="4.36503">
        <ele>786.2</ele>
        <time>2025-09-28T09:18:16Z</time>
      </trkpt>
      <trkpt lat="46.14229" lon="4.36501">
        <ele>785.6</ele>
        <time>2025-09-28T09:18:17Z</time>
      </trkpt>
      <trkpt lat="46.14226" lon="4.36499">
        <ele>785.6</ele>
        <time>2025-09-28T09:18:18Z</time>
      </trkpt>
      <trkpt lat="46.1422" lon="4.36495">
        <ele>786</ele>
        <time>2025-09-28T09:18:19Z</time>
      </trkpt>
      <trkpt lat="46.14212" lon="4.36493">
        <ele>785</ele>
        <time>2025-09-28T09:18:20Z</time>
      </trkpt>
      <trkpt lat="46.14206" lon="4.36489">
        <ele>784.8</ele>
        <time>2025-09-28T09:18:21Z</time>
      </trkpt>
      <trkpt lat="46.14201" lon="4.36483">
        <ele>784.4</ele>
        <time>2025-09-28T09:18:22Z</time>
      </trkpt>
      <trkpt lat="46.14195" lon="4.36479">
        <ele>783.8</ele>
        <time>2025-09-28T09:18:23Z</time>
      </trkpt>
      <trkpt lat="46.14189" lon="4.36475">
        <ele>783</ele>
        <time>2025-09-28T09:18:24Z</time>
      </trkpt>
      <trkpt lat="46.14182" lon="4.36471">
        <ele>782.8</ele>
        <time>2025-09-28T09:18:25Z</time>
      </trkpt>
      <trkpt lat="46.14182" lon="4.36471">
        <ele>783</ele>
        <time>2025-09-28T09:18:26Z</time>
      </trkpt>
      <trkpt lat="46.14176" lon="4.36466">
        <ele>782.8</ele>
        <time>2025-09-28T09:18:27Z</time>
      </trkpt>
      <trkpt lat="46.14172" lon="4.36462">
        <ele>782.4</ele>
        <time>2025-09-28T09:18:28Z</time>
      </trkpt>
      <trkpt lat="46.1417" lon="4.36458">
        <ele>781.6</ele>
        <time>2025-09-28T09:18:29Z</time>
      </trkpt>
      <trkpt lat="46.14165" lon="4.36454">
        <ele>781.2</ele>
        <time>2025-09-28T09:18:30Z</time>
      </trkpt>
      <trkpt lat="46.1416" lon="4.36449">
        <ele>781</ele>
        <time>2025-09-28T09:18:31Z</time>
      </trkpt>
      <trkpt lat="46.14155" lon="4.36445">
        <ele>781</ele>
        <time>2025-09-28T09:18:32Z</time>
      </trkpt>
      <trkpt lat="46.1415" lon="4.36442">
        <ele>780.2</ele>
        <time>2025-09-28T09:18:33Z</time>
      </trkpt>
      <trkpt lat="46.14146" lon="4.36438">
        <ele>779.8</ele>
        <time>2025-09-28T09:18:34Z</time>
      </trkpt>
      <trkpt lat="46.1414" lon="4.36435">
        <ele>779.8</ele>
        <time>2025-09-28T09:18:35Z</time>
      </trkpt>
      <trkpt lat="46.14136" lon="4.36437">
        <ele>779</ele>
        <time>2025-09-28T09:18:36Z</time>
      </trkpt>
      <trkpt lat="46.1413" lon="4.36437">
        <ele>778.6</ele>
        <time>2025-09-28T09:18:37Z</time>
      </trkpt>
      <trkpt lat="46.14124" lon="4.36439">
        <ele>778</ele>
        <time>2025-09-28T09:18:38Z</time>
      </trkpt>
      <trkpt lat="46.14119" lon="4.36439">
        <ele>777.8</ele>
        <time>2025-09-28T09:18:39Z</time>
      </trkpt>
      <trkpt lat="46.14115" lon="4.36435">
        <ele>777.4</ele>
        <time>2025-09-28T09:18:40Z</time>
      </trkpt>
      <trkpt lat="46.1411" lon="4.3643">
        <ele>776.6</ele>
        <time>2025-09-28T09:18:41Z</time>
      </trkpt>
      <trkpt lat="46.14103" lon="4.36427">
        <ele>776.6</ele>
        <time>2025-09-28T09:18:42Z</time>
      </trkpt>
      <trkpt lat="46.14097" lon="4.36422">
        <ele>776.2</ele>
        <time>2025-09-28T09:18:43Z</time>
      </trkpt>
      <trkpt lat="46.14091" lon="4.36417">
        <ele>776</ele>
        <time>2025-09-28T09:18:44Z</time>
      </trkpt>
      <trkpt lat="46.14086" lon="4.36411">
        <ele>775.4</ele>
        <time>2025-09-28T09:18:45Z</time>
      </trkpt>
      <trkpt lat="46.14082" lon="4.36408">
        <ele>774.8</ele>
        <time>2025-09-28T09:18:46Z</time>
      </trkpt>
      <trkpt lat="46.14079" lon="4.36405">
        <ele>774.6</ele>
        <time>2025-09-28T09:18:47Z</time>
      </trkpt>
      <trkpt lat="46.14077" lon="4.36402">
        <ele>774.4</ele>
        <time>2025-09-28T09:18:48Z</time>
      </trkpt>
      <trkpt lat="46.14076" lon="4.36401">
        <ele>774.4</ele>
        <time>2025-09-28T09:18:49Z</time>
      </trkpt>
      <trkpt lat="46.14075" lon="4.364">
        <ele>773.8</ele>
        <time>2025-09-28T09:18:50Z</time>
      </trkpt>
      <trkpt lat="46.14075" lon="4.36401">
        <ele>773.8</ele>
        <time>2025-09-28T09:18:51Z</time>
      </trkpt>
      <trkpt lat="46.14075" lon="4.364">
        <ele>773.8</ele>
        <time>2025-09-28T09:18:52Z</time>
      </trkpt>
      <trkpt lat="46.14074" lon="4.36399">
        <ele>773.8</ele>
        <time>2025-09-28T09:18:53Z</time>
      </trkpt>
      <trkpt lat="46.14074" lon="4.36399">
        <ele>773.8</ele>
        <time>2025-09-28T09:18:54Z</time>
      </trkpt>
      <trkpt lat="46.14072" lon="4.36398">
        <ele>772.6</ele>
        <time>2025-09-28T09:19:38Z</time>
      </trkpt>
      <trkpt lat="46.14071" lon="4.36396">
        <ele>773.2</ele>
        <time>2025-09-28T09:19:39Z</time>
      </trkpt>
      <trkpt lat="46.1407" lon="4.36393">
        <ele>773.2</ele>
        <time>2025-09-28T09:19:40Z</time>
      </trkpt>
      <trkpt lat="46.1407" lon="4.36391">
        <ele>773.2</ele>
        <time>2025-09-28T09:19:41Z</time>
      </trkpt>
      <trkpt lat="46.14069" lon="4.3639">
        <ele>773.6</ele>
        <time>2025-09-28T09:19:42Z</time>
      </trkpt>
      <trkpt lat="46.14069" lon="4.36389">
        <ele>773.6</ele>
        <time>2025-09-28T09:19:43Z</time>
      </trkpt>
      <trkpt lat="46.14067" lon="4.36388">
        <ele>773.2</ele>
        <time>2025-09-28T09:19:44Z</time>
      </trkpt>
      <trkpt lat="46.14066" lon="4.36386">
        <ele>773</ele>
        <time>2025-09-28T09:19:45Z</time>
      </trkpt>
      <trkpt lat="46.14064" lon="4.36384">
        <ele>772.2</ele>
        <time>2025-09-28T09:19:46Z</time>
      </trkpt>
      <trkpt lat="46.14062" lon="4.36382">
        <ele>772.2</ele>
        <time>2025-09-28T09:19:47Z</time>
      </trkpt>
      <trkpt lat="46.14059" lon="4.36379">
        <ele>772.2</ele>
        <time>2025-09-28T09:19:48Z</time>
      </trkpt>
      <trkpt lat="46.14057" lon="4.36378">
        <ele>772.2</ele>
        <time>2025-09-28T09:19:49Z</time>
      </trkpt>
      <trkpt lat="46.14054" lon="4.36379">
        <ele>772.2</ele>
        <time>2025-09-28T09:19:50Z</time>
      </trkpt>
      <trkpt lat="46.14052" lon="4.3638">
        <ele>772.2</ele>
        <time>2025-09-28T09:19:51Z</time>
      </trkpt>
      <trkpt lat="46.14049" lon="4.36382">
        <ele>772.2</ele>
        <time>2025-09-28T09:19:52Z</time>
      </trkpt>
      <trkpt lat="46.14047" lon="4.36384">
        <ele>772.8</ele>
        <time>2025-09-28T09:19:53Z</time>
      </trkpt>
      <trkpt lat="46.14045" lon="4.36386">
        <ele>772.8</ele>
        <time>2025-09-28T09:19:54Z</time>
      </trkpt>
      <trkpt lat="46.14044" lon="4.36389">
        <ele>772.8</ele>
        <time>2025-09-28T09:19:55Z</time>
      </trkpt>
      <trkpt lat="46.14042" lon="4.36391">
        <ele>773</ele>
        <time>2025-09-28T09:19:56Z</time>
      </trkpt>
      <trkpt lat="46.1404" lon="4.36392">
        <ele>773</ele>
        <time>2025-09-28T09:19:57Z</time>
      </trkpt>
      <trkpt lat="46.14038" lon="4.36394">
        <ele>773.6</ele>
        <time>2025-09-28T09:19:58Z</time>
      </trkpt>
      <trkpt lat="46.14035" lon="4.36395">
        <ele>773.6</ele>
        <time>2025-09-28T09:19:59Z</time>
      </trkpt>
      <trkpt lat="46.14033" lon="4.36396">
        <ele>773.4</ele>
        <time>2025-09-28T09:20:00Z</time>
      </trkpt>
      <trkpt lat="46.1403" lon="4.36397">
        <ele>773</ele>
        <time>2025-09-28T09:20:01Z</time>
      </trkpt>
      <trkpt lat="46.14028" lon="4.36397">
        <ele>773.8</ele>
        <time>2025-09-28T09:20:02Z</time>
      </trkpt>
      <trkpt lat="46.14026" lon="4.36398">
        <ele>773.8</ele>
        <time>2025-09-28T09:20:03Z</time>
      </trkpt>
      <trkpt lat="46.14023" lon="4.36399">
        <ele>773</ele>
        <time>2025-09-28T09:20:04Z</time>
      </trkpt>
      <trkpt lat="46.14021" lon="4.364">
        <ele>773.6</ele>
        <time>2025-09-28T09:20:05Z</time>
      </trkpt>
      <trkpt lat="46.1402" lon="4.36401">
        <ele>774</ele>
        <time>2025-09-28T09:20:06Z</time>
      </trkpt>
      <trkpt lat="46.14018" lon="4.36402">
        <ele>774.2</ele>
        <time>2025-09-28T09:20:07Z</time>
      </trkpt>
      <trkpt lat="46.14016" lon="4.36403">
        <ele>774.6</ele>
        <time>2025-09-28T09:20:08Z</time>
      </trkpt>
      <trkpt lat="46.14014" lon="4.36404">
        <ele>774.6</ele>
        <time>2025-09-28T09:20:09Z</time>
      </trkpt>
      <trkpt lat="46.14011" lon="4.36405">
        <ele>775</ele>
        <time>2025-09-28T09:20:10Z</time>
      </trkpt>
      <trkpt lat="46.14009" lon="4.36406">
        <ele>775</ele>
        <time>2025-09-28T09:20:11Z</time>
      </trkpt>
      <trkpt lat="46.14007" lon="4.36408">
        <ele>775.4</ele>
        <time>2025-09-28T09:20:12Z</time>
      </trkpt>
      <trkpt lat="46.14004" lon="4.36409">
        <ele>775.4</ele>
        <time>2025-09-28T09:20:13Z</time>
      </trkpt>
      <trkpt lat="46.14002" lon="4.3641">
        <ele>775.8</ele>
        <time>2025-09-28T09:20:14Z</time>
      </trkpt>
      <trkpt lat="46.14" lon="4.36411">
        <ele>776</ele>
        <time>2025-09-28T09:20:15Z</time>
      </trkpt>
      <trkpt lat="46.13998" lon="4.36412">
        <ele>776</ele>
        <time>2025-09-28T09:20:16Z</time>
      </trkpt>
      <trkpt lat="46.13995" lon="4.36413">
        <ele>776</ele>
        <time>2025-09-28T09:20:17Z</time>
      </trkpt>
      <trkpt lat="46.13993" lon="4.36414">
        <ele>776.6</ele>
        <time>2025-09-28T09:20:18Z</time>
      </trkpt>
      <trkpt lat="46.13991" lon="4.36414">
        <ele>776.6</ele>
        <time>2025-09-28T09:20:19Z</time>
      </trkpt>
      <trkpt lat="46.13988" lon="4.36415">
        <ele>776.4</ele>
        <time>2025-09-28T09:20:20Z</time>
      </trkpt>
      <trkpt lat="46.13986" lon="4.36416">
        <ele>776.4</ele>
        <time>2025-09-28T09:20:21Z</time>
      </trkpt>
      <trkpt lat="46.13984" lon="4.36417">
        <ele>776.6</ele>
        <time>2025-09-28T09:20:22Z</time>
      </trkpt>
      <trkpt lat="46.13982" lon="4.36418">
        <ele>776.6</ele>
        <time>2025-09-28T09:20:23Z</time>
      </trkpt>
      <trkpt lat="46.13979" lon="4.36419">
        <ele>777.2</ele>
        <time>2025-09-28T09:20:24Z</time>
      </trkpt>
      <trkpt lat="46.13977" lon="4.36419">
        <ele>777.2</ele>
        <time>2025-09-28T09:20:25Z</time>
      </trkpt>
      <trkpt lat="46.13974" lon="4.3642">
        <ele>777.4</ele>
        <time>2025-09-28T09:20:26Z</time>
      </trkpt>
      <trkpt lat="46.13971" lon="4.3642">
        <ele>777.4</ele>
        <time>2025-09-28T09:20:27Z</time>
      </trkpt>
      <trkpt lat="46.13969" lon="4.36421">
        <ele>777.4</ele>
        <time>2025-09-28T09:20:28Z</time>
      </trkpt>
      <trkpt lat="46.13967" lon="4.36422">
        <ele>777.8</ele>
        <time>2025-09-28T09:20:29Z</time>
      </trkpt>
      <trkpt lat="46.13965" lon="4.36423">
        <ele>777.8</ele>
        <time>2025-09-28T09:20:30Z</time>
      </trkpt>
      <trkpt lat="46.13962" lon="4.36424">
        <ele>777.6</ele>
        <time>2025-09-28T09:20:31Z</time>
      </trkpt>
      <trkpt lat="46.1396" lon="4.36425">
        <ele>777.6</ele>
        <time>2025-09-28T09:20:32Z</time>
      </trkpt>
      <trkpt lat="46.13957" lon="4.36426">
        <ele>777.6</ele>
        <time>2025-09-28T09:20:33Z</time>
      </trkpt>
      <trkpt lat="46.13954" lon="4.36426">
        <ele>777.8</ele>
        <time>2025-09-28T09:20:34Z</time>
      </trkpt>
      <trkpt lat="46.13952" lon="4.36427">
        <ele>777.8</ele>
        <time>2025-09-28T09:20:35Z</time>
      </trkpt>
      <trkpt lat="46.13949" lon="4.36427">
        <ele>778.2</ele>
        <time>2025-09-28T09:20:36Z</time>
      </trkpt>
      <trkpt lat="46.13946" lon="4.36428">
        <ele>778.4</ele>
        <time>2025-09-28T09:20:37Z</time>
      </trkpt>
      <trkpt lat="46.13943" lon="4.36429">
        <ele>777.8</ele>
        <time>2025-09-28T09:20:38Z</time>
      </trkpt>
      <trkpt lat="46.13941" lon="4.36429">
        <ele>778.4</ele>
        <time>2025-09-28T09:20:39Z</time>
      </trkpt>
      <trkpt lat="46.13938" lon="4.3643">
        <ele>778.4</ele>
        <time>2025-09-28T09:20:40Z</time>
      </trkpt>
      <trkpt lat="46.13935" lon="4.36431">
        <ele>778.4</ele>
        <time>2025-09-28T09:20:41Z</time>
      </trkpt>
      <trkpt lat="46.13932" lon="4.36431">
        <ele>778.4</ele>
        <time>2025-09-28T09:20:42Z</time>
      </trkpt>
      <trkpt lat="46.13929" lon="4.36432">
        <ele>779</ele>
        <time>2025-09-28T09:20:43Z</time>
      </trkpt>
      <trkpt lat="46.13926" lon="4.36432">
        <ele>779.2</ele>
        <time>2025-09-28T09:20:44Z</time>
      </trkpt>
      <trkpt lat="46.13924" lon="4.36432">
        <ele>779.2</ele>
        <time>2025-09-28T09:20:45Z</time>
      </trkpt>
      <trkpt lat="46.13921" lon="4.36432">
        <ele>779.6</ele>
        <time>2025-09-28T09:20:46Z</time>
      </trkpt>
      <trkpt lat="46.13918" lon="4.36433">
        <ele>779.8</ele>
        <time>2025-09-28T09:20:47Z</time>
      </trkpt>
      <trkpt lat="46.13915" lon="4.36433">
        <ele>780</ele>
        <time>2025-09-28T09:20:48Z</time>
      </trkpt>
      <trkpt lat="46.13913" lon="4.36433">
        <ele>780</ele>
        <time>2025-09-28T09:20:49Z</time>
      </trkpt>
      <trkpt lat="46.1391" lon="4.36433">
        <ele>780.4</ele>
        <time>2025-09-28T09:20:50Z</time>
      </trkpt>
      <trkpt lat="46.13907" lon="4.36434">
        <ele>780.4</ele>
        <time>2025-09-28T09:20:51Z</time>
      </trkpt>
      <trkpt lat="46.13905" lon="4.36434">
        <ele>780.6</ele>
        <time>2025-09-28T09:20:52Z</time>
      </trkpt>
      <trkpt lat="46.13902" lon="4.36434">
        <ele>781</ele>
        <time>2025-09-28T09:20:53Z</time>
      </trkpt>
      <trkpt lat="46.139" lon="4.36435">
        <ele>781.2</ele>
        <time>2025-09-28T09:20:54Z</time>
      </trkpt>
      <trkpt lat="46.13898" lon="4.36436">
        <ele>781.2</ele>
        <time>2025-09-28T09:20:55Z</time>
      </trkpt>
      <trkpt lat="46.13895" lon="4.36437">
        <ele>781.2</ele>
        <time>2025-09-28T09:20:56Z</time>
      </trkpt>
      <trkpt lat="46.13893" lon="4.36437">
        <ele>781.6</ele>
        <time>2025-09-28T09:20:57Z</time>
      </trkpt>
      <trkpt lat="46.1389" lon="4.36438">
        <ele>781.6</ele>
        <time>2025-09-28T09:20:58Z</time>
      </trkpt>
      <trkpt lat="46.13888" lon="4.36438">
        <ele>781.8</ele>
        <time>2025-09-28T09:20:59Z</time>
      </trkpt>
      <trkpt lat="46.13886" lon="4.36439">
        <ele>781.8</ele>
        <time>2025-09-28T09:21:00Z</time>
      </trkpt>
      <trkpt lat="46.13883" lon="4.3644">
        <ele>781.8</ele>
        <time>2025-09-28T09:21:01Z</time>
      </trkpt>
      <trkpt lat="46.1388" lon="4.36441">
        <ele>781.8</ele>
        <time>2025-09-28T09:21:02Z</time>
      </trkpt>
      <trkpt lat="46.13878" lon="4.36442">
        <ele>781.8</ele>
        <time>2025-09-28T09:21:03Z</time>
      </trkpt>
      <trkpt lat="46.13875" lon="4.36442">
        <ele>782.2</ele>
        <time>2025-09-28T09:21:04Z</time>
      </trkpt>
      <trkpt lat="46.13873" lon="4.36443">
        <ele>782.2</ele>
        <time>2025-09-28T09:21:05Z</time>
      </trkpt>
      <trkpt lat="46.1387" lon="4.36445">
        <ele>782.4</ele>
        <time>2025-09-28T09:21:06Z</time>
      </trkpt>
      <trkpt lat="46.13867" lon="4.36446">
        <ele>782.4</ele>
        <time>2025-09-28T09:21:07Z</time>
      </trkpt>
      <trkpt lat="46.13865" lon="4.36448">
        <ele>782.8</ele>
        <time>2025-09-28T09:21:08Z</time>
      </trkpt>
      <trkpt lat="46.13863" lon="4.36449">
        <ele>782.4</ele>
        <time>2025-09-28T09:21:09Z</time>
      </trkpt>
      <trkpt lat="46.1386" lon="4.3645">
        <ele>782.4</ele>
        <time>2025-09-28T09:21:10Z</time>
      </trkpt>
      <trkpt lat="46.13857" lon="4.36451">
        <ele>782.4</ele>
        <time>2025-09-28T09:21:11Z</time>
      </trkpt>
      <trkpt lat="46.13855" lon="4.36452">
        <ele>782.8</ele>
        <time>2025-09-28T09:21:12Z</time>
      </trkpt>
      <trkpt lat="46.13852" lon="4.36454">
        <ele>782.8</ele>
        <time>2025-09-28T09:21:13Z</time>
      </trkpt>
      <trkpt lat="46.1385" lon="4.36455">
        <ele>782.8</ele>
        <time>2025-09-28T09:21:14Z</time>
      </trkpt>
      <trkpt lat="46.13847" lon="4.36456">
        <ele>782.8</ele>
        <time>2025-09-28T09:21:15Z</time>
      </trkpt>
      <trkpt lat="46.13845" lon="4.36457">
        <ele>783.2</ele>
        <time>2025-09-28T09:21:16Z</time>
      </trkpt>
      <trkpt lat="46.13843" lon="4.36458">
        <ele>783.4</ele>
        <time>2025-09-28T09:21:17Z</time>
      </trkpt>
      <trkpt lat="46.1384" lon="4.36458">
        <ele>783.8</ele>
        <time>2025-09-28T09:21:18Z</time>
      </trkpt>
      <trkpt lat="46.13838" lon="4.36459">
        <ele>784</ele>
        <time>2025-09-28T09:21:19Z</time>
      </trkpt>
      <trkpt lat="46.13836" lon="4.3646">
        <ele>784</ele>
        <time>2025-09-28T09:21:20Z</time>
      </trkpt>
      <trkpt lat="46.13834" lon="4.36461">
        <ele>784</ele>
        <time>2025-09-28T09:21:21Z</time>
      </trkpt>
      <trkpt lat="46.13831" lon="4.36461">
        <ele>784</ele>
        <time>2025-09-28T09:21:22Z</time>
      </trkpt>
      <trkpt lat="46.13828" lon="4.36462">
        <ele>784</ele>
        <time>2025-09-28T09:21:23Z</time>
      </trkpt>
      <trkpt lat="46.13825" lon="4.36462">
        <ele>784.2</ele>
        <time>2025-09-28T09:21:24Z</time>
      </trkpt>
      <trkpt lat="46.13821" lon="4.36463">
        <ele>784</ele>
        <time>2025-09-28T09:21:25Z</time>
      </trkpt>
      <trkpt lat="46.13818" lon="4.36463">
        <ele>784.4</ele>
        <time>2025-09-28T09:21:26Z</time>
      </trkpt>
      <trkpt lat="46.13815" lon="4.36463">
        <ele>784.4</ele>
        <time>2025-09-28T09:21:27Z</time>
      </trkpt>
      <trkpt lat="46.13812" lon="4.36463">
        <ele>785</ele>
        <time>2025-09-28T09:21:28Z</time>
      </trkpt>
      <trkpt lat="46.13809" lon="4.36464">
        <ele>785.2</ele>
        <time>2025-09-28T09:21:29Z</time>
      </trkpt>
      <trkpt lat="46.13806" lon="4.36465">
        <ele>785.2</ele>
        <time>2025-09-28T09:21:30Z</time>
      </trkpt>
      <trkpt lat="46.13805" lon="4.36465">
        <ele>785.6</ele>
        <time>2025-09-28T09:21:31Z</time>
      </trkpt>
      <trkpt lat="46.13803" lon="4.36464">
        <ele>785.4</ele>
        <time>2025-09-28T09:21:32Z</time>
      </trkpt>
      <trkpt lat="46.13799" lon="4.36461">
        <ele>785.2</ele>
        <time>2025-09-28T09:21:33Z</time>
      </trkpt>
      <trkpt lat="46.13797" lon="4.36459">
        <ele>785.2</ele>
        <time>2025-09-28T09:21:34Z</time>
      </trkpt>
      <trkpt lat="46.13795" lon="4.36458">
        <ele>784.8</ele>
        <time>2025-09-28T09:21:35Z</time>
      </trkpt>
      <trkpt lat="46.13794" lon="4.36455">
        <ele>785</ele>
        <time>2025-09-28T09:21:36Z</time>
      </trkpt>
      <trkpt lat="46.13792" lon="4.36453">
        <ele>785</ele>
        <time>2025-09-28T09:21:37Z</time>
      </trkpt>
      <trkpt lat="46.13789" lon="4.36451">
        <ele>785.4</ele>
        <time>2025-09-28T09:21:38Z</time>
      </trkpt>
      <trkpt lat="46.13787" lon="4.36449">
        <ele>785.6</ele>
        <time>2025-09-28T09:21:39Z</time>
      </trkpt>
      <trkpt lat="46.13786" lon="4.36447">
        <ele>786</ele>
        <time>2025-09-28T09:21:40Z</time>
      </trkpt>
      <trkpt lat="46.13784" lon="4.36445">
        <ele>786</ele>
        <time>2025-09-28T09:21:41Z</time>
      </trkpt>
      <trkpt lat="46.13783" lon="4.36443">
        <ele>786</ele>
        <time>2025-09-28T09:21:42Z</time>
      </trkpt>
      <trkpt lat="46.13782" lon="4.36441">
        <ele>786.4</ele>
        <time>2025-09-28T09:21:43Z</time>
      </trkpt>
      <trkpt lat="46.1378" lon="4.36441">
        <ele>786.6</ele>
        <time>2025-09-28T09:21:44Z</time>
      </trkpt>
      <trkpt lat="46.13778" lon="4.3644">
        <ele>787</ele>
        <time>2025-09-28T09:21:45Z</time>
      </trkpt>
      <trkpt lat="46.13775" lon="4.36438">
        <ele>787</ele>
        <time>2025-09-28T09:21:46Z</time>
      </trkpt>
      <trkpt lat="46.13774" lon="4.36436">
        <ele>787</ele>
        <time>2025-09-28T09:21:47Z</time>
      </trkpt>
      <trkpt lat="46.13774" lon="4.36434">
        <ele>787</ele>
        <time>2025-09-28T09:21:48Z</time>
      </trkpt>
      <trkpt lat="46.13773" lon="4.36431">
        <ele>787.4</ele>
        <time>2025-09-28T09:21:49Z</time>
      </trkpt>
      <trkpt lat="46.13772" lon="4.36427">
        <ele>787.4</ele>
        <time>2025-09-28T09:21:50Z</time>
      </trkpt>
      <trkpt lat="46.1377" lon="4.36425">
        <ele>787.8</ele>
        <time>2025-09-28T09:21:51Z</time>
      </trkpt>
      <trkpt lat="46.13768" lon="4.36422">
        <ele>787.8</ele>
        <time>2025-09-28T09:21:52Z</time>
      </trkpt>
      <trkpt lat="46.13765" lon="4.36419">
        <ele>788</ele>
        <time>2025-09-28T09:21:53Z</time>
      </trkpt>
      <trkpt lat="46.13763" lon="4.36415">
        <ele>788</ele>
        <time>2025-09-28T09:21:54Z</time>
      </trkpt>
      <trkpt lat="46.1376" lon="4.36412">
        <ele>787.8</ele>
        <time>2025-09-28T09:21:55Z</time>
      </trkpt>
      <trkpt lat="46.13758" lon="4.36409">
        <ele>787.8</ele>
        <time>2025-09-28T09:21:56Z</time>
      </trkpt>
      <trkpt lat="46.13756" lon="4.36406">
        <ele>787.6</ele>
        <time>2025-09-28T09:21:57Z</time>
      </trkpt>
      <trkpt lat="46.13754" lon="4.36402">
        <ele>787.8</ele>
        <time>2025-09-28T09:21:58Z</time>
      </trkpt>
      <trkpt lat="46.13752" lon="4.36399">
        <ele>787.8</ele>
        <time>2025-09-28T09:21:59Z</time>
      </trkpt>
      <trkpt lat="46.13749" lon="4.36395">
        <ele>788</ele>
        <time>2025-09-28T09:22:00Z</time>
      </trkpt>
      <trkpt lat="46.13747" lon="4.36392">
        <ele>788</ele>
        <time>2025-09-28T09:22:01Z</time>
      </trkpt>
      <trkpt lat="46.13744" lon="4.36389">
        <ele>788</ele>
        <time>2025-09-28T09:22:02Z</time>
      </trkpt>
      <trkpt lat="46.13742" lon="4.36385">
        <ele>788.2</ele>
        <time>2025-09-28T09:22:03Z</time>
      </trkpt>
      <trkpt lat="46.1374" lon="4.36382">
        <ele>788.2</ele>
        <time>2025-09-28T09:22:04Z</time>
      </trkpt>
      <trkpt lat="46.13739" lon="4.36378">
        <ele>788.2</ele>
        <time>2025-09-28T09:22:05Z</time>
      </trkpt>
      <trkpt lat="46.13737" lon="4.36374">
        <ele>788.6</ele>
        <time>2025-09-28T09:22:06Z</time>
      </trkpt>
      <trkpt lat="46.13736" lon="4.3637">
        <ele>788.6</ele>
        <time>2025-09-28T09:22:07Z</time>
      </trkpt>
      <trkpt lat="46.13735" lon="4.36367">
        <ele>788.8</ele>
        <time>2025-09-28T09:22:08Z</time>
      </trkpt>
      <trkpt lat="46.13734" lon="4.36364">
        <ele>789</ele>
        <time>2025-09-28T09:22:09Z</time>
      </trkpt>
      <trkpt lat="46.13734" lon="4.36361">
        <ele>789</ele>
        <time>2025-09-28T09:22:10Z</time>
      </trkpt>
      <trkpt lat="46.13733" lon="4.36358">
        <ele>789</ele>
        <time>2025-09-28T09:22:11Z</time>
      </trkpt>
      <trkpt lat="46.13732" lon="4.36354">
        <ele>789.6</ele>
        <time>2025-09-28T09:22:12Z</time>
      </trkpt>
      <trkpt lat="46.13732" lon="4.36351">
        <ele>789.8</ele>
        <time>2025-09-28T09:22:13Z</time>
      </trkpt>
      <trkpt lat="46.13731" lon="4.36348">
        <ele>789.8</ele>
        <time>2025-09-28T09:22:14Z</time>
      </trkpt>
      <trkpt lat="46.13731" lon="4.36344">
        <ele>789.8</ele>
        <time>2025-09-28T09:22:15Z</time>
      </trkpt>
      <trkpt lat="46.13732" lon="4.36341">
        <ele>789.8</ele>
        <time>2025-09-28T09:22:16Z</time>
      </trkpt>
      <trkpt lat="46.13732" lon="4.36337">
        <ele>789.8</ele>
        <time>2025-09-28T09:22:17Z</time>
      </trkpt>
      <trkpt lat="46.13733" lon="4.36334">
        <ele>789.8</ele>
        <time>2025-09-28T09:22:18Z</time>
      </trkpt>
      <trkpt lat="46.13732" lon="4.3633">
        <ele>790</ele>
        <time>2025-09-28T09:22:19Z</time>
      </trkpt>
      <trkpt lat="46.13732" lon="4.36327">
        <ele>790</ele>
        <time>2025-09-28T09:22:20Z</time>
      </trkpt>
      <trkpt lat="46.13731" lon="4.36324">
        <ele>790</ele>
        <time>2025-09-28T09:22:21Z</time>
      </trkpt>
      <trkpt lat="46.1373" lon="4.3632">
        <ele>789.8</ele>
        <time>2025-09-28T09:22:22Z</time>
      </trkpt>
      <trkpt lat="46.13729" lon="4.36317">
        <ele>789.8</ele>
        <time>2025-09-28T09:22:23Z</time>
      </trkpt>
      <trkpt lat="46.13729" lon="4.36314">
        <ele>790.2</ele>
        <time>2025-09-28T09:22:24Z</time>
      </trkpt>
      <trkpt lat="46.13729" lon="4.36311">
        <ele>790.4</ele>
        <time>2025-09-28T09:22:25Z</time>
      </trkpt>
      <trkpt lat="46.13728" lon="4.36307">
        <ele>790.4</ele>
        <time>2025-09-28T09:22:26Z</time>
      </trkpt>
      <trkpt lat="46.13726" lon="4.36303">
        <ele>790.4</ele>
        <time>2025-09-28T09:22:27Z</time>
      </trkpt>
      <trkpt lat="46.13724" lon="4.36299">
        <ele>790.6</ele>
        <time>2025-09-28T09:22:28Z</time>
      </trkpt>
      <trkpt lat="46.13722" lon="4.36295">
        <ele>790.6</ele>
        <time>2025-09-28T09:22:29Z</time>
      </trkpt>
      <trkpt lat="46.13721" lon="4.36291">
        <ele>790.6</ele>
        <time>2025-09-28T09:22:30Z</time>
      </trkpt>
      <trkpt lat="46.1372" lon="4.36288">
        <ele>790.6</ele>
        <time>2025-09-28T09:22:31Z</time>
      </trkpt>
      <trkpt lat="46.13718" lon="4.36284">
        <ele>790.6</ele>
        <time>2025-09-28T09:22:32Z</time>
      </trkpt>
      <trkpt lat="46.13716" lon="4.36279">
        <ele>790.6</ele>
        <time>2025-09-28T09:22:33Z</time>
      </trkpt>
      <trkpt lat="46.13713" lon="4.36276">
        <ele>791</ele>
        <time>2025-09-28T09:22:34Z</time>
      </trkpt>
      <trkpt lat="46.13711" lon="4.36272">
        <ele>791</ele>
        <time>2025-09-28T09:22:35Z</time>
      </trkpt>
      <trkpt lat="46.13709" lon="4.36269">
        <ele>791.2</ele>
        <time>2025-09-28T09:22:36Z</time>
      </trkpt>
      <trkpt lat="46.13707" lon="4.36267">
        <ele>791.2</ele>
        <time>2025-09-28T09:22:37Z</time>
      </trkpt>
      <trkpt lat="46.13705" lon="4.36264">
        <ele>791.2</ele>
        <time>2025-09-28T09:22:38Z</time>
      </trkpt>
      <trkpt lat="46.13702" lon="4.36262">
        <ele>791.6</ele>
        <time>2025-09-28T09:22:39Z</time>
      </trkpt>
      <trkpt lat="46.137" lon="4.36261">
        <ele>791.8</ele>
        <time>2025-09-28T09:22:40Z</time>
      </trkpt>
      <trkpt lat="46.13699" lon="4.3626">
        <ele>792</ele>
        <time>2025-09-28T09:22:41Z</time>
      </trkpt>
      <trkpt lat="46.13696" lon="4.36258">
        <ele>792.4</ele>
        <time>2025-09-28T09:22:42Z</time>
      </trkpt>
      <trkpt lat="46.13695" lon="4.36257">
        <ele>792.4</ele>
        <time>2025-09-28T09:22:43Z</time>
      </trkpt>
      <trkpt lat="46.13693" lon="4.36255">
        <ele>792.4</ele>
        <time>2025-09-28T09:22:44Z</time>
      </trkpt>
      <trkpt lat="46.13691" lon="4.36253">
        <ele>792.6</ele>
        <time>2025-09-28T09:22:45Z</time>
      </trkpt>
      <trkpt lat="46.1369" lon="4.36252">
        <ele>792.8</ele>
        <time>2025-09-28T09:22:46Z</time>
      </trkpt>
      <trkpt lat="46.13688" lon="4.3625">
        <ele>792.8</ele>
        <time>2025-09-28T09:22:47Z</time>
      </trkpt>
      <trkpt lat="46.13687" lon="4.36249">
        <ele>792.8</ele>
        <time>2025-09-28T09:22:48Z</time>
      </trkpt>
      <trkpt lat="46.13686" lon="4.36248">
        <ele>792.8</ele>
        <time>2025-09-28T09:22:49Z</time>
      </trkpt>
      <trkpt lat="46.13683" lon="4.36247">
        <ele>793.2</ele>
        <time>2025-09-28T09:22:50Z</time>
      </trkpt>
      <trkpt lat="46.1368" lon="4.36246">
        <ele>793.2</ele>
        <time>2025-09-28T09:22:51Z</time>
      </trkpt>
      <trkpt lat="46.13677" lon="4.36247">
        <ele>793.2</ele>
        <time>2025-09-28T09:22:52Z</time>
      </trkpt>
      <trkpt lat="46.13673" lon="4.36248">
        <ele>793.2</ele>
        <time>2025-09-28T09:22:53Z</time>
      </trkpt>
      <trkpt lat="46.1367" lon="4.36249">
        <ele>793.6</ele>
        <time>2025-09-28T09:22:54Z</time>
      </trkpt>
      <trkpt lat="46.13667" lon="4.3625">
        <ele>793.6</ele>
        <time>2025-09-28T09:22:55Z</time>
      </trkpt>
      <trkpt lat="46.13663" lon="4.36251">
        <ele>793.8</ele>
        <time>2025-09-28T09:22:56Z</time>
      </trkpt>
      <trkpt lat="46.13658" lon="4.36252">
        <ele>793.8</ele>
        <time>2025-09-28T09:22:57Z</time>
      </trkpt>
      <trkpt lat="46.13653" lon="4.36254">
        <ele>793.8</ele>
        <time>2025-09-28T09:22:58Z</time>
      </trkpt>
      <trkpt lat="46.13649" lon="4.36256">
        <ele>793.8</ele>
        <time>2025-09-28T09:22:59Z</time>
      </trkpt>
      <trkpt lat="46.13646" lon="4.36259">
        <ele>794</ele>
        <time>2025-09-28T09:23:00Z</time>
      </trkpt>
      <trkpt lat="46.13638" lon="4.36263">
        <ele>794</ele>
        <time>2025-09-28T09:23:01Z</time>
      </trkpt>
      <trkpt lat="46.13631" lon="4.36269">
        <ele>794.4</ele>
        <time>2025-09-28T09:23:02Z</time>
      </trkpt>
      <trkpt lat="46.13633" lon="4.36264">
        <ele>794.4</ele>
        <time>2025-09-28T09:23:03Z</time>
      </trkpt>
      <trkpt lat="46.13628" lon="4.36266">
        <ele>794.4</ele>
        <time>2025-09-28T09:23:04Z</time>
      </trkpt>
      <trkpt lat="46.13625" lon="4.36267">
        <ele>794.6</ele>
        <time>2025-09-28T09:23:05Z</time>
      </trkpt>
      <trkpt lat="46.13626" lon="4.36265">
        <ele>794.2</ele>
        <time>2025-09-28T09:23:06Z</time>
      </trkpt>
      <trkpt lat="46.13624" lon="4.36267">
        <ele>794.2</ele>
        <time>2025-09-28T09:23:07Z</time>
      </trkpt>
      <trkpt lat="46.13621" lon="4.36271">
        <ele>794.6</ele>
        <time>2025-09-28T09:23:08Z</time>
      </trkpt>
      <trkpt lat="46.13617" lon="4.36274">
        <ele>794.8</ele>
        <time>2025-09-28T09:23:09Z</time>
      </trkpt>
      <trkpt lat="46.13623" lon="4.36269">
        <ele>794.8</ele>
        <time>2025-09-28T09:23:10Z</time>
      </trkpt>
      <trkpt lat="46.13619" lon="4.36273">
        <ele>795</ele>
        <time>2025-09-28T09:23:11Z</time>
      </trkpt>
      <trkpt lat="46.13617" lon="4.36276">
        <ele>795</ele>
        <time>2025-09-28T09:23:12Z</time>
      </trkpt>
      <trkpt lat="46.13616" lon="4.36277">
        <ele>795.4</ele>
        <time>2025-09-28T09:23:13Z</time>
      </trkpt>
      <trkpt lat="46.13615" lon="4.36278">
        <ele>795.4</ele>
        <time>2025-09-28T09:23:14Z</time>
      </trkpt>
      <trkpt lat="46.13613" lon="4.3628">
        <ele>795.4</ele>
        <time>2025-09-28T09:23:15Z</time>
      </trkpt>
      <trkpt lat="46.13612" lon="4.36282">
        <ele>795.6</ele>
        <time>2025-09-28T09:23:16Z</time>
      </trkpt>
      <trkpt lat="46.1361" lon="4.36283">
        <ele>795.6</ele>
        <time>2025-09-28T09:23:17Z</time>
      </trkpt>
      <trkpt lat="46.13607" lon="4.36286">
        <ele>795.6</ele>
        <time>2025-09-28T09:23:18Z</time>
      </trkpt>
      <trkpt lat="46.13604" lon="4.36287">
        <ele>796</ele>
        <time>2025-09-28T09:23:19Z</time>
      </trkpt>
      <trkpt lat="46.13601" lon="4.3629">
        <ele>796</ele>
        <time>2025-09-28T09:23:20Z</time>
      </trkpt>
      <trkpt lat="46.13598" lon="4.36293">
        <ele>796</ele>
        <time>2025-09-28T09:23:21Z</time>
      </trkpt>
      <trkpt lat="46.13595" lon="4.36296">
        <ele>796.2</ele>
        <time>2025-09-28T09:23:22Z</time>
      </trkpt>
      <trkpt lat="46.1359" lon="4.36302">
        <ele>796.2</ele>
        <time>2025-09-28T09:23:23Z</time>
      </trkpt>
      <trkpt lat="46.13586" lon="4.36307">
        <ele>796.6</ele>
        <time>2025-09-28T09:23:24Z</time>
      </trkpt>
      <trkpt lat="46.13583" lon="4.36311">
        <ele>796.6</ele>
        <time>2025-09-28T09:23:25Z</time>
      </trkpt>
      <trkpt lat="46.13581" lon="4.36315">
        <ele>796.6</ele>
        <time>2025-09-28T09:23:26Z</time>
      </trkpt>
      <trkpt lat="46.13579" lon="4.36318">
        <ele>796.6</ele>
        <time>2025-09-28T09:23:27Z</time>
      </trkpt>
      <trkpt lat="46.13577" lon="4.36321">
        <ele>796.6</ele>
        <time>2025-09-28T09:23:28Z</time>
      </trkpt>
      <trkpt lat="46.13576" lon="4.36324">
        <ele>796.6</ele>
        <time>2025-09-28T09:23:29Z</time>
      </trkpt>
      <trkpt lat="46.13575" lon="4.36327">
        <ele>797.2</ele>
        <time>2025-09-28T09:23:30Z</time>
      </trkpt>
      <trkpt lat="46.13573" lon="4.36329">
        <ele>797.2</ele>
        <time>2025-09-28T09:23:31Z</time>
      </trkpt>
      <trkpt lat="46.13571" lon="4.36332">
        <ele>797.6</ele>
        <time>2025-09-28T09:23:32Z</time>
      </trkpt>
      <trkpt lat="46.13568" lon="4.36334">
        <ele>797.6</ele>
        <time>2025-09-28T09:23:33Z</time>
      </trkpt>
      <trkpt lat="46.13565" lon="4.36337">
        <ele>797.8</ele>
        <time>2025-09-28T09:23:34Z</time>
      </trkpt>
      <trkpt lat="46.13562" lon="4.36339">
        <ele>797.8</ele>
        <time>2025-09-28T09:23:35Z</time>
      </trkpt>
      <trkpt lat="46.1356" lon="4.3634">
        <ele>797.8</ele>
        <time>2025-09-28T09:23:36Z</time>
      </trkpt>
      <trkpt lat="46.13558" lon="4.36341">
        <ele>797.8</ele>
        <time>2025-09-28T09:23:37Z</time>
      </trkpt>
      <trkpt lat="46.13553" lon="4.36344">
        <ele>797.8</ele>
        <time>2025-09-28T09:23:38Z</time>
      </trkpt>
      <trkpt lat="46.13548" lon="4.36347">
        <ele>797.8</ele>
        <time>2025-09-28T09:23:39Z</time>
      </trkpt>
      <trkpt lat="46.13544" lon="4.3635">
        <ele>797.2</ele>
        <time>2025-09-28T09:23:40Z</time>
      </trkpt>
      <trkpt lat="46.13541" lon="4.36351">
        <ele>797.6</ele>
        <time>2025-09-28T09:23:41Z</time>
      </trkpt>
      <trkpt lat="46.13539" lon="4.36352">
        <ele>797.6</ele>
        <time>2025-09-28T09:23:42Z</time>
      </trkpt>
      <trkpt lat="46.13537" lon="4.36353">
        <ele>798</ele>
        <time>2025-09-28T09:23:43Z</time>
      </trkpt>
      <trkpt lat="46.13533" lon="4.36354">
        <ele>798.4</ele>
        <time>2025-09-28T09:23:44Z</time>
      </trkpt>
      <trkpt lat="46.1353" lon="4.36355">
        <ele>798.6</ele>
        <time>2025-09-28T09:23:45Z</time>
      </trkpt>
      <trkpt lat="46.13527" lon="4.36357">
        <ele>799</ele>
        <time>2025-09-28T09:23:46Z</time>
      </trkpt>
      <trkpt lat="46.13524" lon="4.36359">
        <ele>799.2</ele>
        <time>2025-09-28T09:23:47Z</time>
      </trkpt>
      <trkpt lat="46.1352" lon="4.36361">
        <ele>799.4</ele>
        <time>2025-09-28T09:23:48Z</time>
      </trkpt>
      <trkpt lat="46.13517" lon="4.36363">
        <ele>799.6</ele>
        <time>2025-09-28T09:23:49Z</time>
      </trkpt>
      <trkpt lat="46.13514" lon="4.36365">
        <ele>799.6</ele>
        <time>2025-09-28T09:23:50Z</time>
      </trkpt>
      <trkpt lat="46.1351" lon="4.36366">
        <ele>799.6</ele>
        <time>2025-09-28T09:23:51Z</time>
      </trkpt>
      <trkpt lat="46.13508" lon="4.36366">
        <ele>799.6</ele>
        <time>2025-09-28T09:23:52Z</time>
      </trkpt>
      <trkpt lat="46.13506" lon="4.36366">
        <ele>799.6</ele>
        <time>2025-09-28T09:23:53Z</time>
      </trkpt>
      <trkpt lat="46.13501" lon="4.36366">
        <ele>799.6</ele>
        <time>2025-09-28T09:23:54Z</time>
      </trkpt>
      <trkpt lat="46.13497" lon="4.36367">
        <ele>799.6</ele>
        <time>2025-09-28T09:23:55Z</time>
      </trkpt>
      <trkpt lat="46.13493" lon="4.36369">
        <ele>799.8</ele>
        <time>2025-09-28T09:23:56Z</time>
      </trkpt>
      <trkpt lat="46.13488" lon="4.3637">
        <ele>799.8</ele>
        <time>2025-09-28T09:23:57Z</time>
      </trkpt>
      <trkpt lat="46.13484" lon="4.36371">
        <ele>800.2</ele>
        <time>2025-09-28T09:23:58Z</time>
      </trkpt>
      <trkpt lat="46.1348" lon="4.36371">
        <ele>800.4</ele>
        <time>2025-09-28T09:23:59Z</time>
      </trkpt>
      <trkpt lat="46.13477" lon="4.36371">
        <ele>800.4</ele>
        <time>2025-09-28T09:24:00Z</time>
      </trkpt>
      <trkpt lat="46.13475" lon="4.36371">
        <ele>800.4</ele>
        <time>2025-09-28T09:24:01Z</time>
      </trkpt>
      <trkpt lat="46.13473" lon="4.36371">
        <ele>800.4</ele>
        <time>2025-09-28T09:24:02Z</time>
      </trkpt>
      <trkpt lat="46.13471" lon="4.36371">
        <ele>800.4</ele>
        <time>2025-09-28T09:24:03Z</time>
      </trkpt>
      <trkpt lat="46.13468" lon="4.3637">
        <ele>800.8</ele>
        <time>2025-09-28T09:24:04Z</time>
      </trkpt>
      <trkpt lat="46.13465" lon="4.36368">
        <ele>800.8</ele>
        <time>2025-09-28T09:24:05Z</time>
      </trkpt>
      <trkpt lat="46.13462" lon="4.36367">
        <ele>799.8</ele>
        <time>2025-09-28T09:24:06Z</time>
      </trkpt>
      <trkpt lat="46.13459" lon="4.36367">
        <ele>800.2</ele>
        <time>2025-09-28T09:24:07Z</time>
      </trkpt>
      <trkpt lat="46.13456" lon="4.36367">
        <ele>800.4</ele>
        <time>2025-09-28T09:24:08Z</time>
      </trkpt>
      <trkpt lat="46.13453" lon="4.36365">
        <ele>800.6</ele>
        <time>2025-09-28T09:24:09Z</time>
      </trkpt>
      <trkpt lat="46.13451" lon="4.36364">
        <ele>801</ele>
        <time>2025-09-28T09:24:10Z</time>
      </trkpt>
      <trkpt lat="46.1345" lon="4.36362">
        <ele>801.2</ele>
        <time>2025-09-28T09:24:11Z</time>
      </trkpt>
      <trkpt lat="46.13449" lon="4.36361">
        <ele>801.4</ele>
        <time>2025-09-28T09:24:12Z</time>
      </trkpt>
      <trkpt lat="46.13447" lon="4.3636">
        <ele>801.4</ele>
        <time>2025-09-28T09:24:13Z</time>
      </trkpt>
      <trkpt lat="46.13446" lon="4.36359">
        <ele>801.4</ele>
        <time>2025-09-28T09:24:14Z</time>
      </trkpt>
      <trkpt lat="46.13446" lon="4.36358">
        <ele>801.6</ele>
        <time>2025-09-28T09:24:15Z</time>
      </trkpt>
      <trkpt lat="46.13445" lon="4.36357">
        <ele>801.6</ele>
        <time>2025-09-28T09:24:16Z</time>
      </trkpt>
      <trkpt lat="46.13437" lon="4.36354">
        <ele>801</ele>
        <time>2025-09-28T09:24:56Z</time>
      </trkpt>
      <trkpt lat="46.13435" lon="4.36353">
        <ele>801</ele>
        <time>2025-09-28T09:24:57Z</time>
      </trkpt>
      <trkpt lat="46.13433" lon="4.36351">
        <ele>801</ele>
        <time>2025-09-28T09:24:58Z</time>
      </trkpt>
      <trkpt lat="46.13432" lon="4.3635">
        <ele>801</ele>
        <time>2025-09-28T09:24:59Z</time>
      </trkpt>
      <trkpt lat="46.1343" lon="4.36348">
        <ele>801</ele>
        <time>2025-09-28T09:25:00Z</time>
      </trkpt>
      <trkpt lat="46.13429" lon="4.36347">
        <ele>801.4</ele>
        <time>2025-09-28T09:25:01Z</time>
      </trkpt>
      <trkpt lat="46.13428" lon="4.36346">
        <ele>801.4</ele>
        <time>2025-09-28T09:25:02Z</time>
      </trkpt>
      <trkpt lat="46.13427" lon="4.36343">
        <ele>800.8</ele>
        <time>2025-09-28T09:25:03Z</time>
      </trkpt>
      <trkpt lat="46.13423" lon="4.3634">
        <ele>800.8</ele>
        <time>2025-09-28T09:25:04Z</time>
      </trkpt>
      <trkpt lat="46.13419" lon="4.36337">
        <ele>801.2</ele>
        <time>2025-09-28T09:25:05Z</time>
      </trkpt>
      <trkpt lat="46.13415" lon="4.36334">
        <ele>801.6</ele>
        <time>2025-09-28T09:25:06Z</time>
      </trkpt>
      <trkpt lat="46.13412" lon="4.36332">
        <ele>801.6</ele>
        <time>2025-09-28T09:25:07Z</time>
      </trkpt>
      <trkpt lat="46.13408" lon="4.36331">
        <ele>801.6</ele>
        <time>2025-09-28T09:25:08Z</time>
      </trkpt>
      <trkpt lat="46.13406" lon="4.3633">
        <ele>802</ele>
        <time>2025-09-28T09:25:09Z</time>
      </trkpt>
      <trkpt lat="46.13405" lon="4.36329">
        <ele>802</ele>
        <time>2025-09-28T09:25:10Z</time>
      </trkpt>
      <trkpt lat="46.13403" lon="4.36328">
        <ele>802.2</ele>
        <time>2025-09-28T09:25:11Z</time>
      </trkpt>
      <trkpt lat="46.13401" lon="4.36328">
        <ele>802.4</ele>
        <time>2025-09-28T09:25:12Z</time>
      </trkpt>
      <trkpt lat="46.13397" lon="4.36329">
        <ele>802.4</ele>
        <time>2025-09-28T09:25:13Z</time>
      </trkpt>
      <trkpt lat="46.13393" lon="4.36329">
        <ele>802.8</ele>
        <time>2025-09-28T09:25:14Z</time>
      </trkpt>
      <trkpt lat="46.13388" lon="4.3633">
        <ele>803.6</ele>
        <time>2025-09-28T09:25:15Z</time>
      </trkpt>
      <trkpt lat="46.13384" lon="4.36331">
        <ele>803.6</ele>
        <time>2025-09-28T09:25:16Z</time>
      </trkpt>
      <trkpt lat="46.1338" lon="4.36332">
        <ele>803.6</ele>
        <time>2025-09-28T09:25:17Z</time>
      </trkpt>
      <trkpt lat="46.13376" lon="4.36332">
        <ele>802.8</ele>
        <time>2025-09-28T09:25:18Z</time>
      </trkpt>
      <trkpt lat="46.13372" lon="4.36332">
        <ele>802.8</ele>
        <time>2025-09-28T09:25:19Z</time>
      </trkpt>
      <trkpt lat="46.13368" lon="4.36331">
        <ele>802.8</ele>
        <time>2025-09-28T09:25:20Z</time>
      </trkpt>
      <trkpt lat="46.13366" lon="4.3633">
        <ele>802.8</ele>
        <time>2025-09-28T09:25:21Z</time>
      </trkpt>
      <trkpt lat="46.13365" lon="4.36329">
        <ele>802.8</ele>
        <time>2025-09-28T09:25:22Z</time>
      </trkpt>
      <trkpt lat="46.13363" lon="4.36329">
        <ele>803.2</ele>
        <time>2025-09-28T09:25:23Z</time>
      </trkpt>
      <trkpt lat="46.13362" lon="4.36327">
        <ele>803.4</ele>
        <time>2025-09-28T09:25:24Z</time>
      </trkpt>
      <trkpt lat="46.13361" lon="4.36326">
        <ele>803.4</ele>
        <time>2025-09-28T09:25:25Z</time>
      </trkpt>
      <trkpt lat="46.13359" lon="4.36325">
        <ele>803.6</ele>
        <time>2025-09-28T09:25:26Z</time>
      </trkpt>
      <trkpt lat="46.13357" lon="4.36324">
        <ele>803.6</ele>
        <time>2025-09-28T09:25:27Z</time>
      </trkpt>
      <trkpt lat="46.13356" lon="4.36323">
        <ele>803.6</ele>
        <time>2025-09-28T09:25:28Z</time>
      </trkpt>
      <trkpt lat="46.13354" lon="4.36323">
        <ele>804</ele>
        <time>2025-09-28T09:25:29Z</time>
      </trkpt>
      <trkpt lat="46.13352" lon="4.36323">
        <ele>804</ele>
        <time>2025-09-28T09:25:30Z</time>
      </trkpt>
      <trkpt lat="46.13349" lon="4.36325">
        <ele>804.2</ele>
        <time>2025-09-28T09:25:31Z</time>
      </trkpt>
      <trkpt lat="46.13345" lon="4.36327">
        <ele>804.4</ele>
        <time>2025-09-28T09:25:32Z</time>
      </trkpt>
      <trkpt lat="46.13342" lon="4.36329">
        <ele>804.4</ele>
        <time>2025-09-28T09:25:33Z</time>
      </trkpt>
      <trkpt lat="46.13339" lon="4.36331">
        <ele>804.2</ele>
        <time>2025-09-28T09:25:34Z</time>
      </trkpt>
      <trkpt lat="46.13336" lon="4.36333">
        <ele>804.2</ele>
        <time>2025-09-28T09:25:35Z</time>
      </trkpt>
      <trkpt lat="46.13335" lon="4.36336">
        <ele>804.4</ele>
        <time>2025-09-28T09:25:36Z</time>
      </trkpt>
      <trkpt lat="46.13333" lon="4.3634">
        <ele>804.6</ele>
        <time>2025-09-28T09:25:37Z</time>
      </trkpt>
      <trkpt lat="46.13331" lon="4.36343">
        <ele>804.6</ele>
        <time>2025-09-28T09:25:38Z</time>
      </trkpt>
      <trkpt lat="46.1333" lon="4.36347">
        <ele>804.8</ele>
        <time>2025-09-28T09:25:39Z</time>
      </trkpt>
      <trkpt lat="46.13329" lon="4.36349">
        <ele>804.8</ele>
        <time>2025-09-28T09:25:40Z</time>
      </trkpt>
      <trkpt lat="46.13328" lon="4.36351">
        <ele>805.4</ele>
        <time>2025-09-28T09:25:41Z</time>
      </trkpt>
      <trkpt lat="46.13327" lon="4.36353">
        <ele>805.4</ele>
        <time>2025-09-28T09:25:42Z</time>
      </trkpt>
      <trkpt lat="46.13326" lon="4.36355">
        <ele>805.4</ele>
        <time>2025-09-28T09:25:43Z</time>
      </trkpt>
      <trkpt lat="46.13323" lon="4.36358">
        <ele>805.4</ele>
        <time>2025-09-28T09:25:44Z</time>
      </trkpt>
      <trkpt lat="46.1332" lon="4.36362">
        <ele>805.6</ele>
        <time>2025-09-28T09:25:45Z</time>
      </trkpt>
      <trkpt lat="46.13318" lon="4.36365">
        <ele>805.6</ele>
        <time>2025-09-28T09:25:46Z</time>
      </trkpt>
      <trkpt lat="46.13315" lon="4.36369">
        <ele>805.6</ele>
        <time>2025-09-28T09:25:47Z</time>
      </trkpt>
      <trkpt lat="46.13313" lon="4.36372">
        <ele>805.6</ele>
        <time>2025-09-28T09:25:48Z</time>
      </trkpt>
      <trkpt lat="46.1331" lon="4.36374">
        <ele>806</ele>
        <time>2025-09-28T09:25:49Z</time>
      </trkpt>
      <trkpt lat="46.13308" lon="4.36375">
        <ele>806</ele>
        <time>2025-09-28T09:25:50Z</time>
      </trkpt>
      <trkpt lat="46.13307" lon="4.36375">
        <ele>806.2</ele>
        <time>2025-09-28T09:25:51Z</time>
      </trkpt>
      <trkpt lat="46.13305" lon="4.36375">
        <ele>806.2</ele>
        <time>2025-09-28T09:25:52Z</time>
      </trkpt>
      <trkpt lat="46.13303" lon="4.36376">
        <ele>806.2</ele>
        <time>2025-09-28T09:25:53Z</time>
      </trkpt>
      <trkpt lat="46.13301" lon="4.36378">
        <ele>806.8</ele>
        <time>2025-09-28T09:25:54Z</time>
      </trkpt>
      <trkpt lat="46.133" lon="4.36379">
        <ele>806.8</ele>
        <time>2025-09-28T09:25:55Z</time>
      </trkpt>
      <trkpt lat="46.13299" lon="4.36381">
        <ele>806.8</ele>
        <time>2025-09-28T09:25:56Z</time>
      </trkpt>
      <trkpt lat="46.13296" lon="4.36385">
        <ele>806.8</ele>
        <time>2025-09-28T09:25:57Z</time>
      </trkpt>
      <trkpt lat="46.13293" lon="4.36389">
        <ele>807</ele>
        <time>2025-09-28T09:25:58Z</time>
      </trkpt>
      <trkpt lat="46.13291" lon="4.36394">
        <ele>807</ele>
        <time>2025-09-28T09:25:59Z</time>
      </trkpt>
      <trkpt lat="46.13288" lon="4.36397">
        <ele>807</ele>
        <time>2025-09-28T09:26:00Z</time>
      </trkpt>
      <trkpt lat="46.13286" lon="4.364">
        <ele>807.2</ele>
        <time>2025-09-28T09:26:01Z</time>
      </trkpt>
      <trkpt lat="46.13283" lon="4.36404">
        <ele>807.6</ele>
        <time>2025-09-28T09:26:02Z</time>
      </trkpt>
      <trkpt lat="46.1328" lon="4.36408">
        <ele>807.6</ele>
        <time>2025-09-28T09:26:03Z</time>
      </trkpt>
      <trkpt lat="46.13276" lon="4.36413">
        <ele>807.6</ele>
        <time>2025-09-28T09:26:04Z</time>
      </trkpt>
      <trkpt lat="46.13273" lon="4.36418">
        <ele>807.8</ele>
        <time>2025-09-28T09:26:05Z</time>
      </trkpt>
      <trkpt lat="46.13269" lon="4.36423">
        <ele>807.8</ele>
        <time>2025-09-28T09:26:06Z</time>
      </trkpt>
      <trkpt lat="46.13265" lon="4.36427">
        <ele>808.2</ele>
        <time>2025-09-28T09:26:07Z</time>
      </trkpt>
      <trkpt lat="46.13261" lon="4.3643">
        <ele>808</ele>
        <time>2025-09-28T09:26:08Z</time>
      </trkpt>
      <trkpt lat="46.13256" lon="4.36433">
        <ele>808.2</ele>
        <time>2025-09-28T09:26:09Z</time>
      </trkpt>
      <trkpt lat="46.13251" lon="4.36436">
        <ele>808.4</ele>
        <time>2025-09-28T09:26:10Z</time>
      </trkpt>
      <trkpt lat="46.13247" lon="4.36439">
        <ele>808.4</ele>
        <time>2025-09-28T09:26:11Z</time>
      </trkpt>
      <trkpt lat="46.13244" lon="4.36441">
        <ele>808.4</ele>
        <time>2025-09-28T09:26:12Z</time>
      </trkpt>
      <trkpt lat="46.13241" lon="4.36442">
        <ele>808.8</ele>
        <time>2025-09-28T09:26:13Z</time>
      </trkpt>
      <trkpt lat="46.13238" lon="4.36444">
        <ele>809.4</ele>
        <time>2025-09-28T09:26:14Z</time>
      </trkpt>
      <trkpt lat="46.13234" lon="4.36445">
        <ele>809.4</ele>
        <time>2025-09-28T09:26:15Z</time>
      </trkpt>
      <trkpt lat="46.1323" lon="4.36448">
        <ele>809.4</ele>
        <time>2025-09-28T09:26:16Z</time>
      </trkpt>
      <trkpt lat="46.13226" lon="4.36451">
        <ele>809.6</ele>
        <time>2025-09-28T09:26:17Z</time>
      </trkpt>
      <trkpt lat="46.13222" lon="4.36454">
        <ele>809.6</ele>
        <time>2025-09-28T09:26:18Z</time>
      </trkpt>
      <trkpt lat="46.13218" lon="4.36457">
        <ele>809.6</ele>
        <time>2025-09-28T09:26:19Z</time>
      </trkpt>
      <trkpt lat="46.13214" lon="4.36459">
        <ele>809.6</ele>
        <time>2025-09-28T09:26:20Z</time>
      </trkpt>
      <trkpt lat="46.1321" lon="4.36461">
        <ele>809.6</ele>
        <time>2025-09-28T09:26:21Z</time>
      </trkpt>
      <trkpt lat="46.13206" lon="4.36462">
        <ele>809.8</ele>
        <time>2025-09-28T09:26:22Z</time>
      </trkpt>
      <trkpt lat="46.13202" lon="4.36464">
        <ele>809.8</ele>
        <time>2025-09-28T09:26:23Z</time>
      </trkpt>
      <trkpt lat="46.13198" lon="4.36466">
        <ele>809.8</ele>
        <time>2025-09-28T09:26:24Z</time>
      </trkpt>
      <trkpt lat="46.13195" lon="4.36468">
        <ele>809.8</ele>
        <time>2025-09-28T09:26:25Z</time>
      </trkpt>
      <trkpt lat="46.13191" lon="4.36469">
        <ele>809.8</ele>
        <time>2025-09-28T09:26:26Z</time>
      </trkpt>
      <trkpt lat="46.13187" lon="4.36471">
        <ele>810.2</ele>
        <time>2025-09-28T09:26:27Z</time>
      </trkpt>
      <trkpt lat="46.13184" lon="4.36472">
        <ele>809.6</ele>
        <time>2025-09-28T09:26:28Z</time>
      </trkpt>
      <trkpt lat="46.13181" lon="4.36474">
        <ele>809.6</ele>
        <time>2025-09-28T09:26:29Z</time>
      </trkpt>
      <trkpt lat="46.13178" lon="4.36475">
        <ele>810</ele>
        <time>2025-09-28T09:26:30Z</time>
      </trkpt>
      <trkpt lat="46.13174" lon="4.36476">
        <ele>810.2</ele>
        <time>2025-09-28T09:26:31Z</time>
      </trkpt>
      <trkpt lat="46.13171" lon="4.36476">
        <ele>810.2</ele>
        <time>2025-09-28T09:26:32Z</time>
      </trkpt>
      <trkpt lat="46.13167" lon="4.36475">
        <ele>810.6</ele>
        <time>2025-09-28T09:26:33Z</time>
      </trkpt>
      <trkpt lat="46.13164" lon="4.36475">
        <ele>810.6</ele>
        <time>2025-09-28T09:26:34Z</time>
      </trkpt>
      <trkpt lat="46.13161" lon="4.36474">
        <ele>811.2</ele>
        <time>2025-09-28T09:26:35Z</time>
      </trkpt>
      <trkpt lat="46.13158" lon="4.36473">
        <ele>811</ele>
        <time>2025-09-28T09:26:36Z</time>
      </trkpt>
      <trkpt lat="46.13155" lon="4.3647">
        <ele>811</ele>
        <time>2025-09-28T09:26:37Z</time>
      </trkpt>
      <trkpt lat="46.13153" lon="4.36468">
        <ele>811.4</ele>
        <time>2025-09-28T09:26:38Z</time>
      </trkpt>
      <trkpt lat="46.13151" lon="4.36465">
        <ele>811.6</ele>
        <time>2025-09-28T09:26:39Z</time>
      </trkpt>
      <trkpt lat="46.13148" lon="4.36462">
        <ele>811.6</ele>
        <time>2025-09-28T09:26:40Z</time>
      </trkpt>
      <trkpt lat="46.13146" lon="4.36459">
        <ele>811.6</ele>
        <time>2025-09-28T09:26:41Z</time>
      </trkpt>
      <trkpt lat="46.13143" lon="4.36457">
        <ele>811.6</ele>
        <time>2025-09-28T09:26:42Z</time>
      </trkpt>
      <trkpt lat="46.1314" lon="4.36454">
        <ele>811.8</ele>
        <time>2025-09-28T09:26:43Z</time>
      </trkpt>
      <trkpt lat="46.13137" lon="4.36452">
        <ele>811.8</ele>
        <time>2025-09-28T09:26:44Z</time>
      </trkpt>
      <trkpt lat="46.13135" lon="4.36449">
        <ele>812.2</ele>
        <time>2025-09-28T09:26:45Z</time>
      </trkpt>
      <trkpt lat="46.13132" lon="4.36447">
        <ele>812.6</ele>
        <time>2025-09-28T09:26:46Z</time>
      </trkpt>
      <trkpt lat="46.1313" lon="4.36445">
        <ele>812.8</ele>
        <time>2025-09-28T09:26:47Z</time>
      </trkpt>
      <trkpt lat="46.13127" lon="4.36443">
        <ele>812.8</ele>
        <time>2025-09-28T09:26:48Z</time>
      </trkpt>
      <trkpt lat="46.13125" lon="4.36441">
        <ele>812.8</ele>
        <time>2025-09-28T09:26:49Z</time>
      </trkpt>
      <trkpt lat="46.13122" lon="4.36439">
        <ele>812.8</ele>
        <time>2025-09-28T09:26:50Z</time>
      </trkpt>
      <trkpt lat="46.13119" lon="4.36437">
        <ele>813.2</ele>
        <time>2025-09-28T09:26:51Z</time>
      </trkpt>
      <trkpt lat="46.13116" lon="4.36435">
        <ele>813.2</ele>
        <time>2025-09-28T09:26:52Z</time>
      </trkpt>
      <trkpt lat="46.13113" lon="4.36433">
        <ele>813.2</ele>
        <time>2025-09-28T09:26:53Z</time>
      </trkpt>
      <trkpt lat="46.1311" lon="4.3643">
        <ele>813.2</ele>
        <time>2025-09-28T09:26:54Z</time>
      </trkpt>
      <trkpt lat="46.1311" lon="4.3643">
        <ele>813.4</ele>
        <time>2025-09-28T09:26:55Z</time>
      </trkpt>
      <trkpt lat="46.1311" lon="4.3643">
        <ele>813.4</ele>
        <time>2025-09-28T09:26:56Z</time>
      </trkpt>
      <trkpt lat="46.13097" lon="4.36421">
        <ele>813.6</ele>
        <time>2025-09-28T09:26:58Z</time>
      </trkpt>
      <trkpt lat="46.13095" lon="4.3642">
        <ele>813.6</ele>
        <time>2025-09-28T09:26:59Z</time>
      </trkpt>
      <trkpt lat="46.13092" lon="4.36418">
        <ele>813.6</ele>
        <time>2025-09-28T09:27:00Z</time>
      </trkpt>
      <trkpt lat="46.13089" lon="4.36416">
        <ele>814</ele>
        <time>2025-09-28T09:27:01Z</time>
      </trkpt>
      <trkpt lat="46.13086" lon="4.36414">
        <ele>814</ele>
        <time>2025-09-28T09:27:02Z</time>
      </trkpt>
      <trkpt lat="46.13084" lon="4.36412">
        <ele>814.2</ele>
        <time>2025-09-28T09:27:03Z</time>
      </trkpt>
      <trkpt lat="46.13081" lon="4.36409">
        <ele>814</ele>
        <time>2025-09-28T09:27:04Z</time>
      </trkpt>
      <trkpt lat="46.13078" lon="4.36407">
        <ele>814</ele>
        <time>2025-09-28T09:27:05Z</time>
      </trkpt>
      <trkpt lat="46.13074" lon="4.36405">
        <ele>814</ele>
        <time>2025-09-28T09:27:06Z</time>
      </trkpt>
      <trkpt lat="46.13071" lon="4.36404">
        <ele>814.4</ele>
        <time>2025-09-28T09:27:07Z</time>
      </trkpt>
      <trkpt lat="46.13068" lon="4.36403">
        <ele>814.4</ele>
        <time>2025-09-28T09:27:08Z</time>
      </trkpt>
      <trkpt lat="46.13065" lon="4.36401">
        <ele>814.4</ele>
        <time>2025-09-28T09:27:09Z</time>
      </trkpt>
      <trkpt lat="46.13063" lon="4.364">
        <ele>814.6</ele>
        <time>2025-09-28T09:27:10Z</time>
      </trkpt>
      <trkpt lat="46.13061" lon="4.36399">
        <ele>814.6</ele>
        <time>2025-09-28T09:27:11Z</time>
      </trkpt>
      <trkpt lat="46.13058" lon="4.36397">
        <ele>815</ele>
        <time>2025-09-28T09:27:12Z</time>
      </trkpt>
      <trkpt lat="46.13055" lon="4.36396">
        <ele>815</ele>
        <time>2025-09-28T09:27:13Z</time>
      </trkpt>
      <trkpt lat="46.13053" lon="4.36394">
        <ele>815</ele>
        <time>2025-09-28T09:27:14Z</time>
      </trkpt>
      <trkpt lat="46.1305" lon="4.36393">
        <ele>815.4</ele>
        <time>2025-09-28T09:27:15Z</time>
      </trkpt>
      <trkpt lat="46.13048" lon="4.36391">
        <ele>815.4</ele>
        <time>2025-09-28T09:27:16Z</time>
      </trkpt>
      <trkpt lat="46.13045" lon="4.3639">
        <ele>815.6</ele>
        <time>2025-09-28T09:27:17Z</time>
      </trkpt>
      <trkpt lat="46.13041" lon="4.36388">
        <ele>815.6</ele>
        <time>2025-09-28T09:27:18Z</time>
      </trkpt>
      <trkpt lat="46.13037" lon="4.36387">
        <ele>815.6</ele>
        <time>2025-09-28T09:27:19Z</time>
      </trkpt>
      <trkpt lat="46.13034" lon="4.36384">
        <ele>815.8</ele>
        <time>2025-09-28T09:27:20Z</time>
      </trkpt>
      <trkpt lat="46.1303" lon="4.36382">
        <ele>816.2</ele>
        <time>2025-09-28T09:27:21Z</time>
      </trkpt>
      <trkpt lat="46.13028" lon="4.36381">
        <ele>816.6</ele>
        <time>2025-09-28T09:27:22Z</time>
      </trkpt>
      <trkpt lat="46.13025" lon="4.3638">
        <ele>816.6</ele>
        <time>2025-09-28T09:27:23Z</time>
      </trkpt>
      <trkpt lat="46.13022" lon="4.36379">
        <ele>816.6</ele>
        <time>2025-09-28T09:27:24Z</time>
      </trkpt>
      <trkpt lat="46.13019" lon="4.36378">
        <ele>816.6</ele>
        <time>2025-09-28T09:27:25Z</time>
      </trkpt>
      <trkpt lat="46.13016" lon="4.36378">
        <ele>816.6</ele>
        <time>2025-09-28T09:27:26Z</time>
      </trkpt>
      <trkpt lat="46.13013" lon="4.36378">
        <ele>817</ele>
        <time>2025-09-28T09:27:27Z</time>
      </trkpt>
      <trkpt lat="46.1301" lon="4.36378">
        <ele>817</ele>
        <time>2025-09-28T09:27:28Z</time>
      </trkpt>
      <trkpt lat="46.13007" lon="4.36378">
        <ele>817.4</ele>
        <time>2025-09-28T09:27:29Z</time>
      </trkpt>
      <trkpt lat="46.13004" lon="4.36379">
        <ele>817.8</ele>
        <time>2025-09-28T09:27:30Z</time>
      </trkpt>
      <trkpt lat="46.13001" lon="4.3638">
        <ele>817.8</ele>
        <time>2025-09-28T09:27:31Z</time>
      </trkpt>
      <trkpt lat="46.12998" lon="4.36381">
        <ele>817.8</ele>
        <time>2025-09-28T09:27:32Z</time>
      </trkpt>
      <trkpt lat="46.12998" lon="4.36381">
        <ele>818</ele>
        <time>2025-09-28T09:27:33Z</time>
      </trkpt>
      <trkpt lat="46.12998" lon="4.36381">
        <ele>818</ele>
        <time>2025-09-28T09:27:34Z</time>
      </trkpt>
      <trkpt lat="46.12991" lon="4.36382">
        <ele>818.4</ele>
        <time>2025-09-28T09:27:35Z</time>
      </trkpt>
      <trkpt lat="46.12988" lon="4.36382">
        <ele>818.4</ele>
        <time>2025-09-28T09:27:36Z</time>
      </trkpt>
      <trkpt lat="46.12986" lon="4.3638">
        <ele>818.4</ele>
        <time>2025-09-28T09:27:37Z</time>
      </trkpt>
      <trkpt lat="46.12984" lon="4.36379">
        <ele>818.6</ele>
        <time>2025-09-28T09:27:38Z</time>
      </trkpt>
      <trkpt lat="46.12982" lon="4.36378">
        <ele>818.6</ele>
        <time>2025-09-28T09:27:39Z</time>
      </trkpt>
      <trkpt lat="46.1298" lon="4.36377">
        <ele>819</ele>
        <time>2025-09-28T09:27:40Z</time>
      </trkpt>
      <trkpt lat="46.12979" lon="4.36375">
        <ele>819.2</ele>
        <time>2025-09-28T09:27:41Z</time>
      </trkpt>
      <trkpt lat="46.12978" lon="4.36373">
        <ele>819.4</ele>
        <time>2025-09-28T09:27:42Z</time>
      </trkpt>
      <trkpt lat="46.12977" lon="4.36371">
        <ele>819.8</ele>
        <time>2025-09-28T09:27:43Z</time>
      </trkpt>
      <trkpt lat="46.12976" lon="4.36369">
        <ele>820</ele>
        <time>2025-09-28T09:27:44Z</time>
      </trkpt>
      <trkpt lat="46.12975" lon="4.36366">
        <ele>820.2</ele>
        <time>2025-09-28T09:27:45Z</time>
      </trkpt>
      <trkpt lat="46.12975" lon="4.36364">
        <ele>820.2</ele>
        <time>2025-09-28T09:27:46Z</time>
      </trkpt>
      <trkpt lat="46.12975" lon="4.36363">
        <ele>820.8</ele>
        <time>2025-09-28T09:27:47Z</time>
      </trkpt>
      <trkpt lat="46.12975" lon="4.36362">
        <ele>821</ele>
        <time>2025-09-28T09:27:48Z</time>
      </trkpt>
      <trkpt lat="46.12973" lon="4.36361">
        <ele>821</ele>
        <time>2025-09-28T09:27:49Z</time>
      </trkpt>
      <trkpt lat="46.12972" lon="4.36359">
        <ele>821.4</ele>
        <time>2025-09-28T09:27:50Z</time>
      </trkpt>
      <trkpt lat="46.12972" lon="4.36357">
        <ele>821.4</ele>
        <time>2025-09-28T09:27:51Z</time>
      </trkpt>
      <trkpt lat="46.12971" lon="4.36355">
        <ele>821.4</ele>
        <time>2025-09-28T09:27:52Z</time>
      </trkpt>
      <trkpt lat="46.1297" lon="4.36353">
        <ele>821.4</ele>
        <time>2025-09-28T09:27:53Z</time>
      </trkpt>
      <trkpt lat="46.12969" lon="4.36351">
        <ele>821.6</ele>
        <time>2025-09-28T09:27:54Z</time>
      </trkpt>
      <trkpt lat="46.12968" lon="4.3635">
        <ele>821.8</ele>
        <time>2025-09-28T09:27:55Z</time>
      </trkpt>
      <trkpt lat="46.12968" lon="4.36347">
        <ele>821.8</ele>
        <time>2025-09-28T09:27:56Z</time>
      </trkpt>
      <trkpt lat="46.12967" lon="4.36344">
        <ele>822.2</ele>
        <time>2025-09-28T09:27:57Z</time>
      </trkpt>
      <trkpt lat="46.12967" lon="4.36342">
        <ele>822.6</ele>
        <time>2025-09-28T09:27:58Z</time>
      </trkpt>
      <trkpt lat="46.12966" lon="4.3634">
        <ele>822.8</ele>
        <time>2025-09-28T09:27:59Z</time>
      </trkpt>
      <trkpt lat="46.12965" lon="4.36339">
        <ele>822.8</ele>
        <time>2025-09-28T09:28:00Z</time>
      </trkpt>
      <trkpt lat="46.12965" lon="4.36337">
        <ele>823.4</ele>
        <time>2025-09-28T09:28:01Z</time>
      </trkpt>
      <trkpt lat="46.12964" lon="4.36336">
        <ele>823.6</ele>
        <time>2025-09-28T09:28:02Z</time>
      </trkpt>
      <trkpt lat="46.12963" lon="4.36333">
        <ele>824.2</ele>
        <time>2025-09-28T09:28:03Z</time>
      </trkpt>
      <trkpt lat="46.12962" lon="4.3633">
        <ele>824.4</ele>
        <time>2025-09-28T09:28:04Z</time>
      </trkpt>
      <trkpt lat="46.12961" lon="4.36328">
        <ele>824.6</ele>
        <time>2025-09-28T09:28:05Z</time>
      </trkpt>
      <trkpt lat="46.12961" lon="4.36326">
        <ele>824.6</ele>
        <time>2025-09-28T09:28:06Z</time>
      </trkpt>
      <trkpt lat="46.1296" lon="4.36324">
        <ele>824.8</ele>
        <time>2025-09-28T09:28:07Z</time>
      </trkpt>
      <trkpt lat="46.12958" lon="4.36323">
        <ele>825.2</ele>
        <time>2025-09-28T09:28:08Z</time>
      </trkpt>
      <trkpt lat="46.12958" lon="4.36322">
        <ele>825.2</ele>
        <time>2025-09-28T09:28:09Z</time>
      </trkpt>
      <trkpt lat="46.12957" lon="4.3632">
        <ele>825.4</ele>
        <time>2025-09-28T09:28:10Z</time>
      </trkpt>
      <trkpt lat="46.12956" lon="4.36318">
        <ele>825.6</ele>
        <time>2025-09-28T09:28:11Z</time>
      </trkpt>
      <trkpt lat="46.12956" lon="4.36317">
        <ele>825.6</ele>
        <time>2025-09-28T09:28:12Z</time>
      </trkpt>
      <trkpt lat="46.12956" lon="4.36316">
        <ele>826</ele>
        <time>2025-09-28T09:28:13Z</time>
      </trkpt>
      <trkpt lat="46.12955" lon="4.36315">
        <ele>826.2</ele>
        <time>2025-09-28T09:28:14Z</time>
      </trkpt>
      <trkpt lat="46.12954" lon="4.36314">
        <ele>826.4</ele>
        <time>2025-09-28T09:28:15Z</time>
      </trkpt>
      <trkpt lat="46.12954" lon="4.36313">
        <ele>826.8</ele>
        <time>2025-09-28T09:28:16Z</time>
      </trkpt>
      <trkpt lat="46.12953" lon="4.36313">
        <ele>827.2</ele>
        <time>2025-09-28T09:28:17Z</time>
      </trkpt>
      <trkpt lat="46.12952" lon="4.36312">
        <ele>827.4</ele>
        <time>2025-09-28T09:28:18Z</time>
      </trkpt>
      <trkpt lat="46.12952" lon="4.36313">
        <ele>827.4</ele>
        <time>2025-09-28T09:28:19Z</time>
      </trkpt>
      <trkpt lat="46.12952" lon="4.36314">
        <ele>827.6</ele>
        <time>2025-09-28T09:28:20Z</time>
      </trkpt>
      <trkpt lat="46.12951" lon="4.36315">
        <ele>827.6</ele>
        <time>2025-09-28T09:28:24Z</time>
      </trkpt>
      <trkpt lat="46.12951" lon="4.36315">
        <ele>827.6</ele>
        <time>2025-09-28T09:28:25Z</time>
      </trkpt>
      <trkpt lat="46.12954" lon="4.36312">
        <ele>828.2</ele>
        <time>2025-09-28T09:29:03Z</time>
      </trkpt>
      <trkpt lat="46.12954" lon="4.36312">
        <ele>828.2</ele>
        <time>2025-09-28T09:29:04Z</time>
      </trkpt>
      <trkpt lat="46.12954" lon="4.36311">
        <ele>828.4</ele>
        <time>2025-09-28T09:29:05Z</time>
      </trkpt>
      <trkpt lat="46.12954" lon="4.36309">
        <ele>828.4</ele>
        <time>2025-09-28T09:29:06Z</time>
      </trkpt>
      <trkpt lat="46.12954" lon="4.36308">
        <ele>828.4</ele>
        <time>2025-09-28T09:29:07Z</time>
      </trkpt>
      <trkpt lat="46.12954" lon="4.36307">
        <ele>828.4</ele>
        <time>2025-09-28T09:29:08Z</time>
      </trkpt>
      <trkpt lat="46.12955" lon="4.36307">
        <ele>828.4</ele>
        <time>2025-09-28T09:29:09Z</time>
      </trkpt>
      <trkpt lat="46.12953" lon="4.36305">
        <ele>828.6</ele>
        <time>2025-09-28T09:29:14Z</time>
      </trkpt>
      <trkpt lat="46.12951" lon="4.36303">
        <ele>828.6</ele>
        <time>2025-09-28T09:29:15Z</time>
      </trkpt>
      <trkpt lat="46.1295" lon="4.363">
        <ele>828.8</ele>
        <time>2025-09-28T09:29:16Z</time>
      </trkpt>
      <trkpt lat="46.1295" lon="4.36299">
        <ele>829.2</ele>
        <time>2025-09-28T09:29:17Z</time>
      </trkpt>
      <trkpt lat="46.1295" lon="4.36299">
        <ele>829.4</ele>
        <time>2025-09-28T09:29:18Z</time>
      </trkpt>
      <trkpt lat="46.12949" lon="4.36298">
        <ele>829.4</ele>
        <time>2025-09-28T09:29:19Z</time>
      </trkpt>
      <trkpt lat="46.12949" lon="4.36297">
        <ele>829.8</ele>
        <time>2025-09-28T09:29:20Z</time>
      </trkpt>
      <trkpt lat="46.12949" lon="4.36297">
        <ele>829.8</ele>
        <time>2025-09-28T09:29:21Z</time>
      </trkpt>
      <trkpt lat="46.12948" lon="4.36296">
        <ele>830.2</ele>
        <time>2025-09-28T09:29:22Z</time>
      </trkpt>
      <trkpt lat="46.12947" lon="4.36296">
        <ele>830.4</ele>
        <time>2025-09-28T09:29:23Z</time>
      </trkpt>
      <trkpt lat="46.12947" lon="4.36295">
        <ele>830.4</ele>
        <time>2025-09-28T09:29:24Z</time>
      </trkpt>
      <trkpt lat="46.12946" lon="4.36294">
        <ele>830.8</ele>
        <time>2025-09-28T09:29:25Z</time>
      </trkpt>
      <trkpt lat="46.12946" lon="4.36293">
        <ele>830.8</ele>
        <time>2025-09-28T09:29:26Z</time>
      </trkpt>
      <trkpt lat="46.12944" lon="4.36293">
        <ele>831.2</ele>
        <time>2025-09-28T09:29:27Z</time>
      </trkpt>
      <trkpt lat="46.12942" lon="4.36294">
        <ele>831.2</ele>
        <time>2025-09-28T09:29:28Z</time>
      </trkpt>
      <trkpt lat="46.12941" lon="4.36294">
        <ele>831.6</ele>
        <time>2025-09-28T09:29:29Z</time>
      </trkpt>
      <trkpt lat="46.12941" lon="4.36294">
        <ele>831.6</ele>
        <time>2025-09-28T09:29:30Z</time>
      </trkpt>
      <trkpt lat="46.1294" lon="4.36293">
        <ele>832</ele>
        <time>2025-09-28T09:29:31Z</time>
      </trkpt>
      <trkpt lat="46.1294" lon="4.36292">
        <ele>832.2</ele>
        <time>2025-09-28T09:29:32Z</time>
      </trkpt>
      <trkpt lat="46.12939" lon="4.36291">
        <ele>832.6</ele>
        <time>2025-09-28T09:29:33Z</time>
      </trkpt>
      <trkpt lat="46.12939" lon="4.3629">
        <ele>832.8</ele>
        <time>2025-09-28T09:29:34Z</time>
      </trkpt>
      <trkpt lat="46.12937" lon="4.3629">
        <ele>833.2</ele>
        <time>2025-09-28T09:29:35Z</time>
      </trkpt>
      <trkpt lat="46.12936" lon="4.36289">
        <ele>833.4</ele>
        <time>2025-09-28T09:29:36Z</time>
      </trkpt>
      <trkpt lat="46.12936" lon="4.36289">
        <ele>833.4</ele>
        <time>2025-09-28T09:29:37Z</time>
      </trkpt>
      <trkpt lat="46.12935" lon="4.36287">
        <ele>833.8</ele>
        <time>2025-09-28T09:29:38Z</time>
      </trkpt>
      <trkpt lat="46.12935" lon="4.36286">
        <ele>833.8</ele>
        <time>2025-09-28T09:29:39Z</time>
      </trkpt>
      <trkpt lat="46.12934" lon="4.36285">
        <ele>834</ele>
        <time>2025-09-28T09:29:40Z</time>
      </trkpt>
      <trkpt lat="46.12933" lon="4.36285">
        <ele>834.2</ele>
        <time>2025-09-28T09:29:41Z</time>
      </trkpt>
      <trkpt lat="46.12932" lon="4.36285">
        <ele>834.4</ele>
        <time>2025-09-28T09:29:42Z</time>
      </trkpt>
      <trkpt lat="46.1293" lon="4.36285">
        <ele>834.8</ele>
        <time>2025-09-28T09:29:43Z</time>
      </trkpt>
      <trkpt lat="46.1293" lon="4.36284">
        <ele>834.8</ele>
        <time>2025-09-28T09:29:44Z</time>
      </trkpt>
      <trkpt lat="46.12929" lon="4.36283">
        <ele>835.2</ele>
        <time>2025-09-28T09:29:45Z</time>
      </trkpt>
      <trkpt lat="46.12929" lon="4.36282">
        <ele>835.4</ele>
        <time>2025-09-28T09:29:46Z</time>
      </trkpt>
      <trkpt lat="46.12928" lon="4.36281">
        <ele>835.4</ele>
        <time>2025-09-28T09:29:47Z</time>
      </trkpt>
      <trkpt lat="46.12928" lon="4.36279">
        <ele>835.8</ele>
        <time>2025-09-28T09:29:48Z</time>
      </trkpt>
      <trkpt lat="46.12929" lon="4.36277">
        <ele>836</ele>
        <time>2025-09-28T09:29:49Z</time>
      </trkpt>
      <trkpt lat="46.1293" lon="4.36276">
        <ele>836.4</ele>
        <time>2025-09-28T09:29:50Z</time>
      </trkpt>
      <trkpt lat="46.1293" lon="4.36275">
        <ele>836.6</ele>
        <time>2025-09-28T09:29:51Z</time>
      </trkpt>
      <trkpt lat="46.1293" lon="4.36274">
        <ele>836.6</ele>
        <time>2025-09-28T09:29:52Z</time>
      </trkpt>
      <trkpt lat="46.12929" lon="4.36273">
        <ele>837</ele>
        <time>2025-09-28T09:29:53Z</time>
      </trkpt>
      <trkpt lat="46.12929" lon="4.36272">
        <ele>837.2</ele>
        <time>2025-09-28T09:29:54Z</time>
      </trkpt>
      <trkpt lat="46.12928" lon="4.36271">
        <ele>837.4</ele>
        <time>2025-09-28T09:29:55Z</time>
      </trkpt>
      <trkpt lat="46.12928" lon="4.36271">
        <ele>837.6</ele>
        <time>2025-09-28T09:29:56Z</time>
      </trkpt>
      <trkpt lat="46.12927" lon="4.3627">
        <ele>837.8</ele>
        <time>2025-09-28T09:29:57Z</time>
      </trkpt>
      <trkpt lat="46.12926" lon="4.3627">
        <ele>837.8</ele>
        <time>2025-09-28T09:29:58Z</time>
      </trkpt>
      <trkpt lat="46.12925" lon="4.36269">
        <ele>838.2</ele>
        <time>2025-09-28T09:29:59Z</time>
      </trkpt>
      <trkpt lat="46.12925" lon="4.36268">
        <ele>838.2</ele>
        <time>2025-09-28T09:30:00Z</time>
      </trkpt>
      <trkpt lat="46.12925" lon="4.36266">
        <ele>838.2</ele>
        <time>2025-09-28T09:30:01Z</time>
      </trkpt>
      <trkpt lat="46.12924" lon="4.36265">
        <ele>838.6</ele>
        <time>2025-09-28T09:30:02Z</time>
      </trkpt>
      <trkpt lat="46.12924" lon="4.36264">
        <ele>838.6</ele>
        <time>2025-09-28T09:30:03Z</time>
      </trkpt>
      <trkpt lat="46.12924" lon="4.36262">
        <ele>838</ele>
        <time>2025-09-28T09:30:04Z</time>
      </trkpt>
      <trkpt lat="46.12924" lon="4.36261">
        <ele>838.4</ele>
        <time>2025-09-28T09:30:05Z</time>
      </trkpt>
      <trkpt lat="46.12925" lon="4.36259">
        <ele>838.4</ele>
        <time>2025-09-28T09:30:06Z</time>
      </trkpt>
      <trkpt lat="46.12925" lon="4.36259">
        <ele>838.6</ele>
        <time>2025-09-28T09:30:07Z</time>
      </trkpt>
      <trkpt lat="46.12925" lon="4.36257">
        <ele>838.6</ele>
        <time>2025-09-28T09:30:12Z</time>
      </trkpt>
      <trkpt lat="46.12924" lon="4.36256">
        <ele>838.8</ele>
        <time>2025-09-28T09:30:13Z</time>
      </trkpt>
      <trkpt lat="46.12924" lon="4.36255">
        <ele>838.8</ele>
        <time>2025-09-28T09:30:14Z</time>
      </trkpt>
      <trkpt lat="46.12924" lon="4.36253">
        <ele>838.8</ele>
        <time>2025-09-28T09:30:15Z</time>
      </trkpt>
      <trkpt lat="46.12924" lon="4.36252">
        <ele>838.8</ele>
        <time>2025-09-28T09:30:16Z</time>
      </trkpt>
      <trkpt lat="46.12923" lon="4.3625">
        <ele>838.8</ele>
        <time>2025-09-28T09:30:17Z</time>
      </trkpt>
      <trkpt lat="46.12923" lon="4.36249">
        <ele>838.8</ele>
        <time>2025-09-28T09:30:18Z</time>
      </trkpt>
      <trkpt lat="46.12924" lon="4.36248">
        <ele>838.8</ele>
        <time>2025-09-28T09:30:19Z</time>
      </trkpt>
      <trkpt lat="46.12924" lon="4.36246">
        <ele>838.8</ele>
        <time>2025-09-28T09:30:20Z</time>
      </trkpt>
      <trkpt lat="46.12925" lon="4.36245">
        <ele>838.8</ele>
        <time>2025-09-28T09:30:21Z</time>
      </trkpt>
      <trkpt lat="46.12925" lon="4.36244">
        <ele>838.8</ele>
        <time>2025-09-28T09:30:22Z</time>
      </trkpt>
      <trkpt lat="46.12925" lon="4.36244">
        <ele>838.8</ele>
        <time>2025-09-28T09:30:23Z</time>
      </trkpt>
      <trkpt lat="46.12925" lon="4.36244">
        <ele>838.8</ele>
        <time>2025-09-28T09:30:24Z</time>
      </trkpt>
      <trkpt lat="46.12926" lon="4.36242">
        <ele>838.8</ele>
        <time>2025-09-28T09:30:28Z</time>
      </trkpt>
      <trkpt lat="46.12926" lon="4.3624">
        <ele>838.8</ele>
        <time>2025-09-28T09:30:29Z</time>
      </trkpt>
      <trkpt lat="46.12926" lon="4.36238">
        <ele>838.8</ele>
        <time>2025-09-28T09:30:30Z</time>
      </trkpt>
      <trkpt lat="46.12925" lon="4.36236">
        <ele>839</ele>
        <time>2025-09-28T09:30:31Z</time>
      </trkpt>
      <trkpt lat="46.12925" lon="4.36234">
        <ele>839</ele>
        <time>2025-09-28T09:30:32Z</time>
      </trkpt>
      <trkpt lat="46.12925" lon="4.36234">
        <ele>839</ele>
        <time>2025-09-28T09:30:33Z</time>
      </trkpt>
      <trkpt lat="46.12925" lon="4.36235">
        <ele>839</ele>
        <time>2025-09-28T09:30:34Z</time>
      </trkpt>
      <trkpt lat="46.12925" lon="4.36235">
        <ele>839.4</ele>
        <time>2025-09-28T09:30:38Z</time>
      </trkpt>
      <trkpt lat="46.12925" lon="4.36236">
        <ele>839.4</ele>
        <time>2025-09-28T09:30:39Z</time>
      </trkpt>
      <trkpt lat="46.12924" lon="4.36235">
        <ele>840</ele>
        <time>2025-09-28T09:32:05Z</time>
      </trkpt>
      <trkpt lat="46.12924" lon="4.36236">
        <ele>839.8</ele>
        <time>2025-09-28T09:32:06Z</time>
      </trkpt>
      <trkpt lat="46.12923" lon="4.36237">
        <ele>839.8</ele>
        <time>2025-09-28T09:32:07Z</time>
      </trkpt>
      <trkpt lat="46.12922" lon="4.36239">
        <ele>839.8</ele>
        <time>2025-09-28T09:32:08Z</time>
      </trkpt>
      <trkpt lat="46.12922" lon="4.36242">
        <ele>839.6</ele>
        <time>2025-09-28T09:32:09Z</time>
      </trkpt>
      <trkpt lat="46.12921" lon="4.36243">
        <ele>839.6</ele>
        <time>2025-09-28T09:32:10Z</time>
      </trkpt>
      <trkpt lat="46.12921" lon="4.36245">
        <ele>839.2</ele>
        <time>2025-09-28T09:32:11Z</time>
      </trkpt>
      <trkpt lat="46.12922" lon="4.36246">
        <ele>839.2</ele>
        <time>2025-09-28T09:32:12Z</time>
      </trkpt>
      <trkpt lat="46.12921" lon="4.36248">
        <ele>839.6</ele>
        <time>2025-09-28T09:32:13Z</time>
      </trkpt>
      <trkpt lat="46.12921" lon="4.36248">
        <ele>839.6</ele>
        <time>2025-09-28T09:32:14Z</time>
      </trkpt>
      <trkpt lat="46.12921" lon="4.36248">
        <ele>839.6</ele>
        <time>2025-09-28T09:32:15Z</time>
      </trkpt>
      <trkpt lat="46.1292" lon="4.36247">
        <ele>839.6</ele>
        <time>2025-09-28T09:32:16Z</time>
      </trkpt>
      <trkpt lat="46.12923" lon="4.3625">
        <ele>839.8</ele>
        <time>2025-09-28T09:34:21Z</time>
      </trkpt>
      <trkpt lat="46.12923" lon="4.36253">
        <ele>839.8</ele>
        <time>2025-09-28T09:34:22Z</time>
      </trkpt>
      <trkpt lat="46.12924" lon="4.36253">
        <ele>839.8</ele>
        <time>2025-09-28T09:34:23Z</time>
      </trkpt>
      <trkpt lat="46.12924" lon="4.36254">
        <ele>839.2</ele>
        <time>2025-09-28T09:34:26Z</time>
      </trkpt>
      <trkpt lat="46.12923" lon="4.36255">
        <ele>839.2</ele>
        <time>2025-09-28T09:34:27Z</time>
      </trkpt>
      <trkpt lat="46.12923" lon="4.36256">
        <ele>839.2</ele>
        <time>2025-09-28T09:34:28Z</time>
      </trkpt>
      <trkpt lat="46.12922" lon="4.36258">
        <ele>839.2</ele>
        <time>2025-09-28T09:34:29Z</time>
      </trkpt>
      <trkpt lat="46.12921" lon="4.36258">
        <ele>839.2</ele>
        <time>2025-09-28T09:34:30Z</time>
      </trkpt>
      <trkpt lat="46.12921" lon="4.36259">
        <ele>839.2</ele>
        <time>2025-09-28T09:34:31Z</time>
      </trkpt>
      <trkpt lat="46.12922" lon="4.36258">
        <ele>839.2</ele>
        <time>2025-09-28T09:34:32Z</time>
      </trkpt>
      <trkpt lat="46.12927" lon="4.36254">
        <ele>839</ele>
        <time>2025-09-28T09:34:50Z</time>
      </trkpt>
      <trkpt lat="46.12926" lon="4.36252">
        <ele>839</ele>
        <time>2025-09-28T09:34:51Z</time>
      </trkpt>
      <trkpt lat="46.12926" lon="4.3625">
        <ele>839</ele>
        <time>2025-09-28T09:34:52Z</time>
      </trkpt>
      <trkpt lat="46.12925" lon="4.36249">
        <ele>839</ele>
        <time>2025-09-28T09:34:53Z</time>
      </trkpt>
      <trkpt lat="46.12924" lon="4.36247">
        <ele>839</ele>
        <time>2025-09-28T09:34:54Z</time>
      </trkpt>
      <trkpt lat="46.12923" lon="4.36247">
        <ele>839</ele>
        <time>2025-09-28T09:34:55Z</time>
      </trkpt>
      <trkpt lat="46.12922" lon="4.36246">
        <ele>839.4</ele>
        <time>2025-09-28T09:34:56Z</time>
      </trkpt>
      <trkpt lat="46.12921" lon="4.36246">
        <ele>839.4</ele>
        <time>2025-09-28T09:34:57Z</time>
      </trkpt>
      <trkpt lat="46.12921" lon="4.36246">
        <ele>839.4</ele>
        <time>2025-09-28T09:34:58Z</time>
      </trkpt>
      <trkpt lat="46.12921" lon="4.36247">
        <ele>839.4</ele>
        <time>2025-09-28T09:34:59Z</time>
      </trkpt>
      <trkpt lat="46.12919" lon="4.36245">
        <ele>839.8</ele>
        <time>2025-09-28T09:35:02Z</time>
      </trkpt>
      <trkpt lat="46.12918" lon="4.36243">
        <ele>839.8</ele>
        <time>2025-09-28T09:35:03Z</time>
      </trkpt>
      <trkpt lat="46.12917" lon="4.36241">
        <ele>839.6</ele>
        <time>2025-09-28T09:35:04Z</time>
      </trkpt>
      <trkpt lat="46.12915" lon="4.3624">
        <ele>839.6</ele>
        <time>2025-09-28T09:35:05Z</time>
      </trkpt>
      <trkpt lat="46.12913" lon="4.36239">
        <ele>839.6</ele>
        <time>2025-09-28T09:35:06Z</time>
      </trkpt>
      <trkpt lat="46.12911" lon="4.36239">
        <ele>839.6</ele>
        <time>2025-09-28T09:35:07Z</time>
      </trkpt>
      <trkpt lat="46.1291" lon="4.36238">
        <ele>839.8</ele>
        <time>2025-09-28T09:35:08Z</time>
      </trkpt>
      <trkpt lat="46.12908" lon="4.36238">
        <ele>839.8</ele>
        <time>2025-09-28T09:35:09Z</time>
      </trkpt>
      <trkpt lat="46.12905" lon="4.36239">
        <ele>839.8</ele>
        <time>2025-09-28T09:35:10Z</time>
      </trkpt>
      <trkpt lat="46.12903" lon="4.36239">
        <ele>839.8</ele>
        <time>2025-09-28T09:35:11Z</time>
      </trkpt>
      <trkpt lat="46.12902" lon="4.36238">
        <ele>840</ele>
        <time>2025-09-28T09:35:12Z</time>
      </trkpt>
      <trkpt lat="46.129" lon="4.36237">
        <ele>840</ele>
        <time>2025-09-28T09:35:13Z</time>
      </trkpt>
      <trkpt lat="46.12898" lon="4.36236">
        <ele>840</ele>
        <time>2025-09-28T09:35:14Z</time>
      </trkpt>
      <trkpt lat="46.12896" lon="4.36236">
        <ele>840.4</ele>
        <time>2025-09-28T09:35:15Z</time>
      </trkpt>
      <trkpt lat="46.12894" lon="4.36235">
        <ele>840.6</ele>
        <time>2025-09-28T09:35:16Z</time>
      </trkpt>
      <trkpt lat="46.12892" lon="4.36235">
        <ele>840.6</ele>
        <time>2025-09-28T09:35:17Z</time>
      </trkpt>
      <trkpt lat="46.1289" lon="4.36234">
        <ele>840.6</ele>
        <time>2025-09-28T09:35:18Z</time>
      </trkpt>
      <trkpt lat="46.12888" lon="4.36234">
        <ele>840.6</ele>
        <time>2025-09-28T09:35:19Z</time>
      </trkpt>
      <trkpt lat="46.12886" lon="4.36233">
        <ele>841</ele>
        <time>2025-09-28T09:35:20Z</time>
      </trkpt>
      <trkpt lat="46.12885" lon="4.36232">
        <ele>841.2</ele>
        <time>2025-09-28T09:35:21Z</time>
      </trkpt>
      <trkpt lat="46.12883" lon="4.36232">
        <ele>841.2</ele>
        <time>2025-09-28T09:35:22Z</time>
      </trkpt>
      <trkpt lat="46.12881" lon="4.36232">
        <ele>841.2</ele>
        <time>2025-09-28T09:35:23Z</time>
      </trkpt>
      <trkpt lat="46.12879" lon="4.36231">
        <ele>841.4</ele>
        <time>2025-09-28T09:35:24Z</time>
      </trkpt>
      <trkpt lat="46.12877" lon="4.3623">
        <ele>841.6</ele>
        <time>2025-09-28T09:35:25Z</time>
      </trkpt>
      <trkpt lat="46.12876" lon="4.36229">
        <ele>841.8</ele>
        <time>2025-09-28T09:35:26Z</time>
      </trkpt>
      <trkpt lat="46.12874" lon="4.36229">
        <ele>841.8</ele>
        <time>2025-09-28T09:35:27Z</time>
      </trkpt>
      <trkpt lat="46.12872" lon="4.36228">
        <ele>842.2</ele>
        <time>2025-09-28T09:35:28Z</time>
      </trkpt>
      <trkpt lat="46.12869" lon="4.36227">
        <ele>842.2</ele>
        <time>2025-09-28T09:35:29Z</time>
      </trkpt>
      <trkpt lat="46.12868" lon="4.36227">
        <ele>842.6</ele>
        <time>2025-09-28T09:35:30Z</time>
      </trkpt>
      <trkpt lat="46.12865" lon="4.36226">
        <ele>842.6</ele>
        <time>2025-09-28T09:35:31Z</time>
      </trkpt>
      <trkpt lat="46.12863" lon="4.36225">
        <ele>842.6</ele>
        <time>2025-09-28T09:35:32Z</time>
      </trkpt>
      <trkpt lat="46.12861" lon="4.36224">
        <ele>842.8</ele>
        <time>2025-09-28T09:35:33Z</time>
      </trkpt>
      <trkpt lat="46.12859" lon="4.36223">
        <ele>843</ele>
        <time>2025-09-28T09:35:34Z</time>
      </trkpt>
      <trkpt lat="46.12857" lon="4.36223">
        <ele>843</ele>
        <time>2025-09-28T09:35:35Z</time>
      </trkpt>
      <trkpt lat="46.12856" lon="4.36223">
        <ele>843.4</ele>
        <time>2025-09-28T09:35:36Z</time>
      </trkpt>
      <trkpt lat="46.12854" lon="4.36223">
        <ele>843.4</ele>
        <time>2025-09-28T09:35:37Z</time>
      </trkpt>
      <trkpt lat="46.12852" lon="4.36224">
        <ele>843.4</ele>
        <time>2025-09-28T09:35:38Z</time>
      </trkpt>
      <trkpt lat="46.1285" lon="4.36223">
        <ele>843.4</ele>
        <time>2025-09-28T09:35:39Z</time>
      </trkpt>
      <trkpt lat="46.12849" lon="4.36221">
        <ele>843.4</ele>
        <time>2025-09-28T09:35:40Z</time>
      </trkpt>
      <trkpt lat="46.12848" lon="4.3622">
        <ele>843.6</ele>
        <time>2025-09-28T09:35:41Z</time>
      </trkpt>
      <trkpt lat="46.12846" lon="4.36219">
        <ele>843.8</ele>
        <time>2025-09-28T09:35:42Z</time>
      </trkpt>
      <trkpt lat="46.12843" lon="4.36218">
        <ele>844.2</ele>
        <time>2025-09-28T09:35:43Z</time>
      </trkpt>
      <trkpt lat="46.12841" lon="4.36218">
        <ele>844.2</ele>
        <time>2025-09-28T09:35:44Z</time>
      </trkpt>
      <trkpt lat="46.12839" lon="4.36217">
        <ele>844.4</ele>
        <time>2025-09-28T09:35:45Z</time>
      </trkpt>
      <trkpt lat="46.12836" lon="4.36217">
        <ele>844.8</ele>
        <time>2025-09-28T09:35:46Z</time>
      </trkpt>
      <trkpt lat="46.12834" lon="4.36216">
        <ele>845</ele>
        <time>2025-09-28T09:35:47Z</time>
      </trkpt>
      <trkpt lat="46.12832" lon="4.36216">
        <ele>845.4</ele>
        <time>2025-09-28T09:35:48Z</time>
      </trkpt>
      <trkpt lat="46.1283" lon="4.36215">
        <ele>845.4</ele>
        <time>2025-09-28T09:35:49Z</time>
      </trkpt>
      <trkpt lat="46.12829" lon="4.36215">
        <ele>845.4</ele>
        <time>2025-09-28T09:35:50Z</time>
      </trkpt>
      <trkpt lat="46.12827" lon="4.36214">
        <ele>845.4</ele>
        <time>2025-09-28T09:35:51Z</time>
      </trkpt>
      <trkpt lat="46.12826" lon="4.36214">
        <ele>845.8</ele>
        <time>2025-09-28T09:35:52Z</time>
      </trkpt>
      <trkpt lat="46.12824" lon="4.36213">
        <ele>846</ele>
        <time>2025-09-28T09:35:53Z</time>
      </trkpt>
      <trkpt lat="46.12822" lon="4.36213">
        <ele>846</ele>
        <time>2025-09-28T09:35:54Z</time>
      </trkpt>
      <trkpt lat="46.1282" lon="4.36212">
        <ele>846.4</ele>
        <time>2025-09-28T09:35:55Z</time>
      </trkpt>
      <trkpt lat="46.12818" lon="4.36211">
        <ele>846.4</ele>
        <time>2025-09-28T09:35:56Z</time>
      </trkpt>
      <trkpt lat="46.12816" lon="4.3621">
        <ele>846.8</ele>
        <time>2025-09-28T09:35:57Z</time>
      </trkpt>
      <trkpt lat="46.12814" lon="4.36209">
        <ele>846.8</ele>
        <time>2025-09-28T09:35:58Z</time>
      </trkpt>
      <trkpt lat="46.12812" lon="4.36208">
        <ele>847</ele>
        <time>2025-09-28T09:35:59Z</time>
      </trkpt>
      <trkpt lat="46.1281" lon="4.36207">
        <ele>847</ele>
        <time>2025-09-28T09:36:00Z</time>
      </trkpt>
      <trkpt lat="46.12807" lon="4.36206">
        <ele>847</ele>
        <time>2025-09-28T09:36:01Z</time>
      </trkpt>
      <trkpt lat="46.12805" lon="4.36205">
        <ele>847</ele>
        <time>2025-09-28T09:36:02Z</time>
      </trkpt>
      <trkpt lat="46.12803" lon="4.36204">
        <ele>847</ele>
        <time>2025-09-28T09:36:03Z</time>
      </trkpt>
      <trkpt lat="46.128" lon="4.36203">
        <ele>847</ele>
        <time>2025-09-28T09:36:04Z</time>
      </trkpt>
      <trkpt lat="46.12799" lon="4.36202">
        <ele>847</ele>
        <time>2025-09-28T09:36:05Z</time>
      </trkpt>
      <trkpt lat="46.12797" lon="4.36201">
        <ele>847.4</ele>
        <time>2025-09-28T09:36:06Z</time>
      </trkpt>
      <trkpt lat="46.12795" lon="4.36199">
        <ele>847.4</ele>
        <time>2025-09-28T09:36:07Z</time>
      </trkpt>
      <trkpt lat="46.12793" lon="4.36197">
        <ele>847.4</ele>
        <time>2025-09-28T09:36:08Z</time>
      </trkpt>
      <trkpt lat="46.12791" lon="4.36195">
        <ele>847.4</ele>
        <time>2025-09-28T09:36:09Z</time>
      </trkpt>
      <trkpt lat="46.12789" lon="4.36194">
        <ele>847.8</ele>
        <time>2025-09-28T09:36:10Z</time>
      </trkpt>
      <trkpt lat="46.12786" lon="4.36193">
        <ele>847.8</ele>
        <time>2025-09-28T09:36:11Z</time>
      </trkpt>
      <trkpt lat="46.12784" lon="4.36192">
        <ele>847.8</ele>
        <time>2025-09-28T09:36:12Z</time>
      </trkpt>
      <trkpt lat="46.12782" lon="4.36191">
        <ele>847.8</ele>
        <time>2025-09-28T09:36:13Z</time>
      </trkpt>
      <trkpt lat="46.12779" lon="4.3619">
        <ele>848</ele>
        <time>2025-09-28T09:36:14Z</time>
      </trkpt>
      <trkpt lat="46.12777" lon="4.36188">
        <ele>848</ele>
        <time>2025-09-28T09:36:15Z</time>
      </trkpt>
      <trkpt lat="46.12775" lon="4.36187">
        <ele>848.4</ele>
        <time>2025-09-28T09:36:16Z</time>
      </trkpt>
      <trkpt lat="46.12773" lon="4.36186">
        <ele>848.4</ele>
        <time>2025-09-28T09:36:17Z</time>
      </trkpt>
      <trkpt lat="46.12771" lon="4.36184">
        <ele>848.4</ele>
        <time>2025-09-28T09:36:18Z</time>
      </trkpt>
      <trkpt lat="46.12769" lon="4.36183">
        <ele>848.4</ele>
        <time>2025-09-28T09:36:19Z</time>
      </trkpt>
      <trkpt lat="46.12767" lon="4.36182">
        <ele>848.2</ele>
        <time>2025-09-28T09:36:20Z</time>
      </trkpt>
      <trkpt lat="46.12765" lon="4.36181">
        <ele>848.2</ele>
        <time>2025-09-28T09:36:21Z</time>
      </trkpt>
      <trkpt lat="46.12763" lon="4.36179">
        <ele>848.2</ele>
        <time>2025-09-28T09:36:22Z</time>
      </trkpt>
      <trkpt lat="46.12761" lon="4.36178">
        <ele>848.2</ele>
        <time>2025-09-28T09:36:23Z</time>
      </trkpt>
      <trkpt lat="46.12758" lon="4.36176">
        <ele>848.2</ele>
        <time>2025-09-28T09:36:24Z</time>
      </trkpt>
      <trkpt lat="46.12756" lon="4.36174">
        <ele>848</ele>
        <time>2025-09-28T09:36:25Z</time>
      </trkpt>
      <trkpt lat="46.12753" lon="4.36172">
        <ele>848.2</ele>
        <time>2025-09-28T09:36:26Z</time>
      </trkpt>
      <trkpt lat="46.1275" lon="4.3617">
        <ele>848.2</ele>
        <time>2025-09-28T09:36:27Z</time>
      </trkpt>
      <trkpt lat="46.12748" lon="4.36168">
        <ele>848.2</ele>
        <time>2025-09-28T09:36:28Z</time>
      </trkpt>
      <trkpt lat="46.12745" lon="4.36166">
        <ele>848.4</ele>
        <time>2025-09-28T09:36:29Z</time>
      </trkpt>
      <trkpt lat="46.12743" lon="4.36164">
        <ele>848.4</ele>
        <time>2025-09-28T09:36:30Z</time>
      </trkpt>
      <trkpt lat="46.1274" lon="4.36163">
        <ele>848.4</ele>
        <time>2025-09-28T09:36:31Z</time>
      </trkpt>
      <trkpt lat="46.12738" lon="4.3616">
        <ele>848.4</ele>
        <time>2025-09-28T09:36:32Z</time>
      </trkpt>
      <trkpt lat="46.12736" lon="4.36158">
        <ele>848.4</ele>
        <time>2025-09-28T09:36:33Z</time>
      </trkpt>
      <trkpt lat="46.12733" lon="4.36156">
        <ele>848.4</ele>
        <time>2025-09-28T09:36:34Z</time>
      </trkpt>
      <trkpt lat="46.12731" lon="4.36154">
        <ele>848.4</ele>
        <time>2025-09-28T09:36:35Z</time>
      </trkpt>
      <trkpt lat="46.12727" lon="4.36151">
        <ele>848.4</ele>
        <time>2025-09-28T09:36:36Z</time>
      </trkpt>
      <trkpt lat="46.12725" lon="4.36148">
        <ele>848</ele>
        <time>2025-09-28T09:36:37Z</time>
      </trkpt>
      <trkpt lat="46.12722" lon="4.36145">
        <ele>848.2</ele>
        <time>2025-09-28T09:36:38Z</time>
      </trkpt>
      <trkpt lat="46.12719" lon="4.36142">
        <ele>848.2</ele>
        <time>2025-09-28T09:36:39Z</time>
      </trkpt>
      <trkpt lat="46.12716" lon="4.36139">
        <ele>848.2</ele>
        <time>2025-09-28T09:36:40Z</time>
      </trkpt>
      <trkpt lat="46.12714" lon="4.36137">
        <ele>848.2</ele>
        <time>2025-09-28T09:36:41Z</time>
      </trkpt>
      <trkpt lat="46.12711" lon="4.36134">
        <ele>848.2</ele>
        <time>2025-09-28T09:36:42Z</time>
      </trkpt>
      <trkpt lat="46.12709" lon="4.36131">
        <ele>848.6</ele>
        <time>2025-09-28T09:36:43Z</time>
      </trkpt>
      <trkpt lat="46.12706" lon="4.36128">
        <ele>848.6</ele>
        <time>2025-09-28T09:36:44Z</time>
      </trkpt>
      <trkpt lat="46.12704" lon="4.36126">
        <ele>849</ele>
        <time>2025-09-28T09:36:45Z</time>
      </trkpt>
      <trkpt lat="46.12701" lon="4.36123">
        <ele>848.8</ele>
        <time>2025-09-28T09:36:46Z</time>
      </trkpt>
      <trkpt lat="46.12699" lon="4.3612">
        <ele>848.8</ele>
        <time>2025-09-28T09:36:47Z</time>
      </trkpt>
      <trkpt lat="46.12696" lon="4.36116">
        <ele>849</ele>
        <time>2025-09-28T09:36:48Z</time>
      </trkpt>
      <trkpt lat="46.12693" lon="4.36113">
        <ele>848.8</ele>
        <time>2025-09-28T09:36:49Z</time>
      </trkpt>
      <trkpt lat="46.12689" lon="4.3611">
        <ele>848.4</ele>
        <time>2025-09-28T09:36:50Z</time>
      </trkpt>
      <trkpt lat="46.12686" lon="4.36109">
        <ele>848.4</ele>
        <time>2025-09-28T09:36:51Z</time>
      </trkpt>
      <trkpt lat="46.12683" lon="4.36107">
        <ele>848.8</ele>
        <time>2025-09-28T09:36:52Z</time>
      </trkpt>
      <trkpt lat="46.12679" lon="4.36106">
        <ele>848.8</ele>
        <time>2025-09-28T09:36:53Z</time>
      </trkpt>
      <trkpt lat="46.12673" lon="4.36105">
        <ele>849.2</ele>
        <time>2025-09-28T09:36:54Z</time>
      </trkpt>
      <trkpt lat="46.12671" lon="4.36103">
        <ele>849.4</ele>
        <time>2025-09-28T09:36:55Z</time>
      </trkpt>
      <trkpt lat="46.12669" lon="4.36097">
        <ele>849.4</ele>
        <time>2025-09-28T09:36:56Z</time>
      </trkpt>
      <trkpt lat="46.12664" lon="4.3609">
        <ele>849.8</ele>
        <time>2025-09-28T09:36:57Z</time>
      </trkpt>
      <trkpt lat="46.1266" lon="4.36088">
        <ele>849.8</ele>
        <time>2025-09-28T09:36:58Z</time>
      </trkpt>
      <trkpt lat="46.12657" lon="4.36085">
        <ele>850.2</ele>
        <time>2025-09-28T09:36:59Z</time>
      </trkpt>
      <trkpt lat="46.12652" lon="4.36084">
        <ele>850.2</ele>
        <time>2025-09-28T09:37:00Z</time>
      </trkpt>
      <trkpt lat="46.12652" lon="4.36084">
        <ele>850.6</ele>
        <time>2025-09-28T09:37:01Z</time>
      </trkpt>
      <trkpt lat="46.12652" lon="4.36084">
        <ele>850.4</ele>
        <time>2025-09-28T09:37:02Z</time>
      </trkpt>
      <trkpt lat="46.12644" lon="4.36074">
        <ele>851.2</ele>
        <time>2025-09-28T09:37:04Z</time>
      </trkpt>
      <trkpt lat="46.12643" lon="4.36072">
        <ele>851.4</ele>
        <time>2025-09-28T09:37:05Z</time>
      </trkpt>
      <trkpt lat="46.12641" lon="4.36071">
        <ele>851.4</ele>
        <time>2025-09-28T09:37:06Z</time>
      </trkpt>
      <trkpt lat="46.12639" lon="4.36068">
        <ele>852</ele>
        <time>2025-09-28T09:37:07Z</time>
      </trkpt>
      <trkpt lat="46.12637" lon="4.36065">
        <ele>852</ele>
        <time>2025-09-28T09:37:08Z</time>
      </trkpt>
      <trkpt lat="46.12635" lon="4.36063">
        <ele>852.4</ele>
        <time>2025-09-28T09:37:09Z</time>
      </trkpt>
      <trkpt lat="46.12631" lon="4.3606">
        <ele>852.8</ele>
        <time>2025-09-28T09:37:10Z</time>
      </trkpt>
      <trkpt lat="46.12627" lon="4.36058">
        <ele>852.8</ele>
        <time>2025-09-28T09:37:11Z</time>
      </trkpt>
      <trkpt lat="46.12624" lon="4.36056">
        <ele>853.2</ele>
        <time>2025-09-28T09:37:12Z</time>
      </trkpt>
      <trkpt lat="46.12621" lon="4.36055">
        <ele>853.2</ele>
        <time>2025-09-28T09:37:13Z</time>
      </trkpt>
      <trkpt lat="46.12619" lon="4.36054">
        <ele>852.8</ele>
        <time>2025-09-28T09:37:14Z</time>
      </trkpt>
      <trkpt lat="46.12616" lon="4.36053">
        <ele>852.8</ele>
        <time>2025-09-28T09:37:15Z</time>
      </trkpt>
      <trkpt lat="46.12613" lon="4.36051">
        <ele>853</ele>
        <time>2025-09-28T09:37:16Z</time>
      </trkpt>
      <trkpt lat="46.1261" lon="4.36049">
        <ele>853.2</ele>
        <time>2025-09-28T09:37:17Z</time>
      </trkpt>
      <trkpt lat="46.12607" lon="4.36048">
        <ele>853.2</ele>
        <time>2025-09-28T09:37:18Z</time>
      </trkpt>
      <trkpt lat="46.12604" lon="4.36047">
        <ele>853.6</ele>
        <time>2025-09-28T09:37:19Z</time>
      </trkpt>
      <trkpt lat="46.12601" lon="4.36045">
        <ele>854</ele>
        <time>2025-09-28T09:37:20Z</time>
      </trkpt>
      <trkpt lat="46.12598" lon="4.36044">
        <ele>854</ele>
        <time>2025-09-28T09:37:21Z</time>
      </trkpt>
      <trkpt lat="46.12596" lon="4.36042">
        <ele>854.4</ele>
        <time>2025-09-28T09:37:22Z</time>
      </trkpt>
      <trkpt lat="46.12594" lon="4.3604">
        <ele>854.8</ele>
        <time>2025-09-28T09:37:23Z</time>
      </trkpt>
      <trkpt lat="46.12592" lon="4.36038">
        <ele>854.8</ele>
        <time>2025-09-28T09:37:24Z</time>
      </trkpt>
      <trkpt lat="46.12589" lon="4.36036">
        <ele>854.8</ele>
        <time>2025-09-28T09:37:25Z</time>
      </trkpt>
      <trkpt lat="46.12586" lon="4.36034">
        <ele>854.8</ele>
        <time>2025-09-28T09:37:26Z</time>
      </trkpt>
      <trkpt lat="46.12583" lon="4.36033">
        <ele>855.2</ele>
        <time>2025-09-28T09:37:27Z</time>
      </trkpt>
      <trkpt lat="46.1258" lon="4.36032">
        <ele>855.2</ele>
        <time>2025-09-28T09:37:28Z</time>
      </trkpt>
      <trkpt lat="46.12577" lon="4.36031">
        <ele>855.6</ele>
        <time>2025-09-28T09:37:29Z</time>
      </trkpt>
      <trkpt lat="46.12576" lon="4.3603">
        <ele>855.6</ele>
        <time>2025-09-28T09:37:30Z</time>
      </trkpt>
      <trkpt lat="46.12576" lon="4.3603">
        <ele>855.6</ele>
        <time>2025-09-28T09:37:31Z</time>
      </trkpt>
      <trkpt lat="46.12576" lon="4.3603">
        <ele>855.6</ele>
        <time>2025-09-28T09:37:32Z</time>
      </trkpt>
      <trkpt lat="46.12571" lon="4.36027">
        <ele>855</ele>
        <time>2025-09-28T09:37:33Z</time>
      </trkpt>
      <trkpt lat="46.12568" lon="4.36025">
        <ele>855</ele>
        <time>2025-09-28T09:37:34Z</time>
      </trkpt>
      <trkpt lat="46.12563" lon="4.36022">
        <ele>855</ele>
        <time>2025-09-28T09:37:35Z</time>
      </trkpt>
      <trkpt lat="46.12559" lon="4.3602">
        <ele>854.8</ele>
        <time>2025-09-28T09:37:36Z</time>
      </trkpt>
      <trkpt lat="46.12555" lon="4.36019">
        <ele>854.8</ele>
        <time>2025-09-28T09:37:37Z</time>
      </trkpt>
      <trkpt lat="46.12551" lon="4.36018">
        <ele>854.2</ele>
        <time>2025-09-28T09:37:38Z</time>
      </trkpt>
      <trkpt lat="46.12546" lon="4.36018">
        <ele>854.2</ele>
        <time>2025-09-28T09:37:39Z</time>
      </trkpt>
      <trkpt lat="46.12542" lon="4.36017">
        <ele>854.2</ele>
        <time>2025-09-28T09:37:40Z</time>
      </trkpt>
      <trkpt lat="46.12535" lon="4.36014">
        <ele>853.8</ele>
        <time>2025-09-28T09:37:41Z</time>
      </trkpt>
      <trkpt lat="46.12529" lon="4.36009">
        <ele>853.8</ele>
        <time>2025-09-28T09:37:42Z</time>
      </trkpt>
      <trkpt lat="46.12525" lon="4.36007">
        <ele>853.8</ele>
        <time>2025-09-28T09:37:43Z</time>
      </trkpt>
      <trkpt lat="46.12521" lon="4.36006">
        <ele>853.8</ele>
        <time>2025-09-28T09:37:44Z</time>
      </trkpt>
      <trkpt lat="46.12516" lon="4.36004">
        <ele>853</ele>
        <time>2025-09-28T09:37:45Z</time>
      </trkpt>
      <trkpt lat="46.12511" lon="4.36006">
        <ele>852.6</ele>
        <time>2025-09-28T09:37:46Z</time>
      </trkpt>
      <trkpt lat="46.12507" lon="4.36005">
        <ele>852.4</ele>
        <time>2025-09-28T09:37:47Z</time>
      </trkpt>
      <trkpt lat="46.12505" lon="4.36003">
        <ele>852.4</ele>
        <time>2025-09-28T09:37:48Z</time>
      </trkpt>
      <trkpt lat="46.12502" lon="4.36002">
        <ele>852.4</ele>
        <time>2025-09-28T09:37:49Z</time>
      </trkpt>
      <trkpt lat="46.12498" lon="4.36001">
        <ele>852</ele>
        <time>2025-09-28T09:37:50Z</time>
      </trkpt>
      <trkpt lat="46.12494" lon="4.35999">
        <ele>852</ele>
        <time>2025-09-28T09:37:51Z</time>
      </trkpt>
      <trkpt lat="46.12492" lon="4.35997">
        <ele>851.6</ele>
        <time>2025-09-28T09:37:52Z</time>
      </trkpt>
      <trkpt lat="46.12486" lon="4.35995">
        <ele>851.6</ele>
        <time>2025-09-28T09:37:53Z</time>
      </trkpt>
      <trkpt lat="46.12484" lon="4.35994">
        <ele>851.2</ele>
        <time>2025-09-28T09:37:54Z</time>
      </trkpt>
      <trkpt lat="46.12479" lon="4.35993">
        <ele>850.8</ele>
        <time>2025-09-28T09:37:55Z</time>
      </trkpt>
      <trkpt lat="46.12475" lon="4.35992">
        <ele>850.4</ele>
        <time>2025-09-28T09:37:56Z</time>
      </trkpt>
      <trkpt lat="46.12471" lon="4.3599">
        <ele>848.2</ele>
        <time>2025-09-28T09:37:57Z</time>
      </trkpt>
      <trkpt lat="46.12467" lon="4.35987">
        <ele>849</ele>
        <time>2025-09-28T09:37:58Z</time>
      </trkpt>
      <trkpt lat="46.12462" lon="4.35987">
        <ele>848.6</ele>
        <time>2025-09-28T09:37:59Z</time>
      </trkpt>
      <trkpt lat="46.12457" lon="4.35985">
        <ele>848.6</ele>
        <time>2025-09-28T09:38:00Z</time>
      </trkpt>
      <trkpt lat="46.12449" lon="4.35984">
        <ele>848.6</ele>
        <time>2025-09-28T09:38:01Z</time>
      </trkpt>
      <trkpt lat="46.12444" lon="4.35983">
        <ele>848.2</ele>
        <time>2025-09-28T09:38:02Z</time>
      </trkpt>
      <trkpt lat="46.12439" lon="4.35984">
        <ele>848.4</ele>
        <time>2025-09-28T09:38:03Z</time>
      </trkpt>
      <trkpt lat="46.12435" lon="4.35986">
        <ele>848</ele>
        <time>2025-09-28T09:38:04Z</time>
      </trkpt>
      <trkpt lat="46.1243" lon="4.35987">
        <ele>848</ele>
        <time>2025-09-28T09:38:05Z</time>
      </trkpt>
      <trkpt lat="46.12422" lon="4.3599">
        <ele>848.2</ele>
        <time>2025-09-28T09:38:06Z</time>
      </trkpt>
      <trkpt lat="46.12417" lon="4.35991">
        <ele>848.2</ele>
        <time>2025-09-28T09:38:07Z</time>
      </trkpt>
      <trkpt lat="46.12414" lon="4.35992">
        <ele>847.4</ele>
        <time>2025-09-28T09:38:08Z</time>
      </trkpt>
      <trkpt lat="46.12412" lon="4.35992">
        <ele>847.4</ele>
        <time>2025-09-28T09:38:09Z</time>
      </trkpt>
      <trkpt lat="46.12411" lon="4.35991">
        <ele>847</ele>
        <time>2025-09-28T09:38:10Z</time>
      </trkpt>
      <trkpt lat="46.12411" lon="4.35992">
        <ele>847</ele>
        <time>2025-09-28T09:38:11Z</time>
      </trkpt>
      <trkpt lat="46.12411" lon="4.35992">
        <ele>846.6</ele>
        <time>2025-09-28T09:38:12Z</time>
      </trkpt>
      <trkpt lat="46.12411" lon="4.35992">
        <ele>846.6</ele>
        <time>2025-09-28T09:38:13Z</time>
      </trkpt>
      <trkpt lat="46.12407" lon="4.35993">
        <ele>846.2</ele>
        <time>2025-09-28T09:38:24Z</time>
      </trkpt>
      <trkpt lat="46.12404" lon="4.35993">
        <ele>846</ele>
        <time>2025-09-28T09:38:25Z</time>
      </trkpt>
      <trkpt lat="46.12401" lon="4.35994">
        <ele>845.6</ele>
        <time>2025-09-28T09:38:26Z</time>
      </trkpt>
      <trkpt lat="46.12398" lon="4.35995">
        <ele>845.2</ele>
        <time>2025-09-28T09:38:27Z</time>
      </trkpt>
      <trkpt lat="46.12394" lon="4.35995">
        <ele>845.2</ele>
        <time>2025-09-28T09:38:28Z</time>
      </trkpt>
      <trkpt lat="46.1239" lon="4.35996">
        <ele>844.6</ele>
        <time>2025-09-28T09:38:29Z</time>
      </trkpt>
      <trkpt lat="46.12387" lon="4.35996">
        <ele>844.2</ele>
        <time>2025-09-28T09:38:30Z</time>
      </trkpt>
      <trkpt lat="46.12383" lon="4.35996">
        <ele>844</ele>
        <time>2025-09-28T09:38:31Z</time>
      </trkpt>
      <trkpt lat="46.1238" lon="4.35996">
        <ele>843.8</ele>
        <time>2025-09-28T09:38:32Z</time>
      </trkpt>
      <trkpt lat="46.12376" lon="4.35996">
        <ele>843.4</ele>
        <time>2025-09-28T09:38:33Z</time>
      </trkpt>
      <trkpt lat="46.12374" lon="4.35997">
        <ele>843.4</ele>
        <time>2025-09-28T09:38:34Z</time>
      </trkpt>
      <trkpt lat="46.12371" lon="4.35997">
        <ele>843.2</ele>
        <time>2025-09-28T09:38:35Z</time>
      </trkpt>
      <trkpt lat="46.12367" lon="4.35997">
        <ele>843</ele>
        <time>2025-09-28T09:38:36Z</time>
      </trkpt>
      <trkpt lat="46.12364" lon="4.35997">
        <ele>841.8</ele>
        <time>2025-09-28T09:38:37Z</time>
      </trkpt>
      <trkpt lat="46.1236" lon="4.35998">
        <ele>841.4</ele>
        <time>2025-09-28T09:38:38Z</time>
      </trkpt>
      <trkpt lat="46.12357" lon="4.35998">
        <ele>840</ele>
        <time>2025-09-28T09:38:39Z</time>
      </trkpt>
      <trkpt lat="46.12353" lon="4.35999">
        <ele>840</ele>
        <time>2025-09-28T09:38:40Z</time>
      </trkpt>
      <trkpt lat="46.12349" lon="4.36001">
        <ele>839.6</ele>
        <time>2025-09-28T09:38:41Z</time>
      </trkpt>
      <trkpt lat="46.12344" lon="4.36004">
        <ele>839</ele>
        <time>2025-09-28T09:38:42Z</time>
      </trkpt>
      <trkpt lat="46.12341" lon="4.36006">
        <ele>838.8</ele>
        <time>2025-09-28T09:38:43Z</time>
      </trkpt>
      <trkpt lat="46.12338" lon="4.36007">
        <ele>838.4</ele>
        <time>2025-09-28T09:38:44Z</time>
      </trkpt>
      <trkpt lat="46.12335" lon="4.36008">
        <ele>838.2</ele>
        <time>2025-09-28T09:38:45Z</time>
      </trkpt>
      <trkpt lat="46.12331" lon="4.3601">
        <ele>837.8</ele>
        <time>2025-09-28T09:38:46Z</time>
      </trkpt>
      <trkpt lat="46.12326" lon="4.36013">
        <ele>837.4</ele>
        <time>2025-09-28T09:38:47Z</time>
      </trkpt>
      <trkpt lat="46.12322" lon="4.36015">
        <ele>835</ele>
        <time>2025-09-28T09:38:48Z</time>
      </trkpt>
      <trkpt lat="46.12319" lon="4.36018">
        <ele>835</ele>
        <time>2025-09-28T09:38:49Z</time>
      </trkpt>
      <trkpt lat="46.12315" lon="4.3602">
        <ele>835</ele>
        <time>2025-09-28T09:38:50Z</time>
      </trkpt>
      <trkpt lat="46.12311" lon="4.36024">
        <ele>835</ele>
        <time>2025-09-28T09:38:51Z</time>
      </trkpt>
      <trkpt lat="46.12307" lon="4.36026">
        <ele>835</ele>
        <time>2025-09-28T09:38:52Z</time>
      </trkpt>
      <trkpt lat="46.12303" lon="4.36028">
        <ele>834.4</ele>
        <time>2025-09-28T09:38:53Z</time>
      </trkpt>
      <trkpt lat="46.12299" lon="4.36031">
        <ele>834.4</ele>
        <time>2025-09-28T09:38:54Z</time>
      </trkpt>
      <trkpt lat="46.12296" lon="4.36033">
        <ele>833.8</ele>
        <time>2025-09-28T09:38:55Z</time>
      </trkpt>
      <trkpt lat="46.12291" lon="4.36036">
        <ele>832.8</ele>
        <time>2025-09-28T09:38:56Z</time>
      </trkpt>
      <trkpt lat="46.12288" lon="4.36038">
        <ele>832.4</ele>
        <time>2025-09-28T09:38:57Z</time>
      </trkpt>
      <trkpt lat="46.12283" lon="4.36042">
        <ele>832.4</ele>
        <time>2025-09-28T09:38:58Z</time>
      </trkpt>
      <trkpt lat="46.1228" lon="4.36045">
        <ele>832.4</ele>
        <time>2025-09-28T09:38:59Z</time>
      </trkpt>
      <trkpt lat="46.12278" lon="4.36047">
        <ele>831.8</ele>
        <time>2025-09-28T09:39:00Z</time>
      </trkpt>
      <trkpt lat="46.12275" lon="4.3605">
        <ele>832.2</ele>
        <time>2025-09-28T09:39:01Z</time>
      </trkpt>
      <trkpt lat="46.12272" lon="4.36052">
        <ele>831.4</ele>
        <time>2025-09-28T09:39:02Z</time>
      </trkpt>
      <trkpt lat="46.12268" lon="4.36054">
        <ele>830.8</ele>
        <time>2025-09-28T09:39:03Z</time>
      </trkpt>
      <trkpt lat="46.12266" lon="4.36055">
        <ele>830</ele>
        <time>2025-09-28T09:39:04Z</time>
      </trkpt>
      <trkpt lat="46.12263" lon="4.36056">
        <ele>829.8</ele>
        <time>2025-09-28T09:39:05Z</time>
      </trkpt>
      <trkpt lat="46.12259" lon="4.36058">
        <ele>829.6</ele>
        <time>2025-09-28T09:39:06Z</time>
      </trkpt>
      <trkpt lat="46.12257" lon="4.3606">
        <ele>829.6</ele>
        <time>2025-09-28T09:39:07Z</time>
      </trkpt>
      <trkpt lat="46.12255" lon="4.36062">
        <ele>829</ele>
        <time>2025-09-28T09:39:08Z</time>
      </trkpt>
      <trkpt lat="46.12251" lon="4.36065">
        <ele>829</ele>
        <time>2025-09-28T09:39:09Z</time>
      </trkpt>
      <trkpt lat="46.12249" lon="4.36066">
        <ele>828.8</ele>
        <time>2025-09-28T09:39:10Z</time>
      </trkpt>
      <trkpt lat="46.12246" lon="4.36068">
        <ele>828.8</ele>
        <time>2025-09-28T09:39:11Z</time>
      </trkpt>
      <trkpt lat="46.12243" lon="4.3607">
        <ele>827.8</ele>
        <time>2025-09-28T09:39:12Z</time>
      </trkpt>
      <trkpt lat="46.12238" lon="4.36075">
        <ele>827.4</ele>
        <time>2025-09-28T09:39:13Z</time>
      </trkpt>
      <trkpt lat="46.12233" lon="4.36077">
        <ele>826.4</ele>
        <time>2025-09-28T09:39:14Z</time>
      </trkpt>
      <trkpt lat="46.1223" lon="4.36078">
        <ele>826.4</ele>
        <time>2025-09-28T09:39:15Z</time>
      </trkpt>
      <trkpt lat="46.12227" lon="4.36079">
        <ele>826.2</ele>
        <time>2025-09-28T09:39:16Z</time>
      </trkpt>
      <trkpt lat="46.12225" lon="4.3608">
        <ele>825.8</ele>
        <time>2025-09-28T09:39:17Z</time>
      </trkpt>
      <trkpt lat="46.12222" lon="4.36081">
        <ele>824.8</ele>
        <time>2025-09-28T09:39:18Z</time>
      </trkpt>
      <trkpt lat="46.12219" lon="4.36082">
        <ele>824.8</ele>
        <time>2025-09-28T09:39:19Z</time>
      </trkpt>
      <trkpt lat="46.12215" lon="4.36084">
        <ele>824</ele>
        <time>2025-09-28T09:39:20Z</time>
      </trkpt>
      <trkpt lat="46.12211" lon="4.36085">
        <ele>823.8</ele>
        <time>2025-09-28T09:39:21Z</time>
      </trkpt>
      <trkpt lat="46.12208" lon="4.36085">
        <ele>823.2</ele>
        <time>2025-09-28T09:39:22Z</time>
      </trkpt>
      <trkpt lat="46.12203" lon="4.36085">
        <ele>822.6</ele>
        <time>2025-09-28T09:39:23Z</time>
      </trkpt>
      <trkpt lat="46.12198" lon="4.36085">
        <ele>822.2</ele>
        <time>2025-09-28T09:39:24Z</time>
      </trkpt>
      <trkpt lat="46.12194" lon="4.36085">
        <ele>822.2</ele>
        <time>2025-09-28T09:39:25Z</time>
      </trkpt>
      <trkpt lat="46.1219" lon="4.36085">
        <ele>821.8</ele>
        <time>2025-09-28T09:39:26Z</time>
      </trkpt>
      <trkpt lat="46.12185" lon="4.36084">
        <ele>821.4</ele>
        <time>2025-09-28T09:39:27Z</time>
      </trkpt>
      <trkpt lat="46.12181" lon="4.36084">
        <ele>820.8</ele>
        <time>2025-09-28T09:39:28Z</time>
      </trkpt>
      <trkpt lat="46.12177" lon="4.36083">
        <ele>819</ele>
        <time>2025-09-28T09:39:29Z</time>
      </trkpt>
      <trkpt lat="46.12174" lon="4.36083">
        <ele>818.2</ele>
        <time>2025-09-28T09:39:30Z</time>
      </trkpt>
      <trkpt lat="46.1217" lon="4.36083">
        <ele>817.4</ele>
        <time>2025-09-28T09:39:31Z</time>
      </trkpt>
      <trkpt lat="46.12165" lon="4.36082">
        <ele>816.8</ele>
        <time>2025-09-28T09:39:32Z</time>
      </trkpt>
      <trkpt lat="46.1216" lon="4.36082">
        <ele>816.6</ele>
        <time>2025-09-28T09:39:33Z</time>
      </trkpt>
      <trkpt lat="46.12155" lon="4.36082">
        <ele>816</ele>
        <time>2025-09-28T09:39:34Z</time>
      </trkpt>
      <trkpt lat="46.12152" lon="4.36081">
        <ele>815.2</ele>
        <time>2025-09-28T09:39:35Z</time>
      </trkpt>
      <trkpt lat="46.12149" lon="4.36081">
        <ele>814.8</ele>
        <time>2025-09-28T09:39:36Z</time>
      </trkpt>
      <trkpt lat="46.12147" lon="4.3608">
        <ele>814.8</ele>
        <time>2025-09-28T09:39:37Z</time>
      </trkpt>
      <trkpt lat="46.12145" lon="4.3608">
        <ele>814.4</ele>
        <time>2025-09-28T09:39:38Z</time>
      </trkpt>
      <trkpt lat="46.12144" lon="4.3608">
        <ele>814</ele>
        <time>2025-09-28T09:39:39Z</time>
      </trkpt>
      <trkpt lat="46.12145" lon="4.3608">
        <ele>814</ele>
        <time>2025-09-28T09:39:40Z</time>
      </trkpt>
      <trkpt lat="46.12145" lon="4.3608">
        <ele>813.6</ele>
        <time>2025-09-28T09:39:41Z</time>
      </trkpt>
      <trkpt lat="46.12142" lon="4.36082">
        <ele>812.8</ele>
        <time>2025-09-28T09:39:52Z</time>
      </trkpt>
      <trkpt lat="46.1214" lon="4.36081">
        <ele>812.6</ele>
        <time>2025-09-28T09:39:53Z</time>
      </trkpt>
      <trkpt lat="46.12139" lon="4.3608">
        <ele>812.6</ele>
        <time>2025-09-28T09:39:54Z</time>
      </trkpt>
      <trkpt lat="46.12139" lon="4.3608">
        <ele>812.2</ele>
        <time>2025-09-28T09:39:55Z</time>
      </trkpt>
      <trkpt lat="46.1214" lon="4.3608">
        <ele>812.2</ele>
        <time>2025-09-28T09:39:56Z</time>
      </trkpt>
      <trkpt lat="46.12139" lon="4.36082">
        <ele>812</ele>
        <time>2025-09-28T09:39:57Z</time>
      </trkpt>
      <trkpt lat="46.12137" lon="4.36083">
        <ele>812</ele>
        <time>2025-09-28T09:39:58Z</time>
      </trkpt>
      <trkpt lat="46.12137" lon="4.36084">
        <ele>811.8</ele>
        <time>2025-09-28T09:39:59Z</time>
      </trkpt>
      <trkpt lat="46.12132" lon="4.36083">
        <ele>811.8</ele>
        <time>2025-09-28T09:41:04Z</time>
      </trkpt>
      <trkpt lat="46.1213" lon="4.36083">
        <ele>811.8</ele>
        <time>2025-09-28T09:41:05Z</time>
      </trkpt>
      <trkpt lat="46.12129" lon="4.36083">
        <ele>811.6</ele>
        <time>2025-09-28T09:41:06Z</time>
      </trkpt>
      <trkpt lat="46.12128" lon="4.36082">
        <ele>811.6</ele>
        <time>2025-09-28T09:41:07Z</time>
      </trkpt>
      <trkpt lat="46.12126" lon="4.36081">
        <ele>811.2</ele>
        <time>2025-09-28T09:41:08Z</time>
      </trkpt>
      <trkpt lat="46.12125" lon="4.36081">
        <ele>810.6</ele>
        <time>2025-09-28T09:41:09Z</time>
      </trkpt>
      <trkpt lat="46.12124" lon="4.3608">
        <ele>810</ele>
        <time>2025-09-28T09:41:10Z</time>
      </trkpt>
      <trkpt lat="46.12122" lon="4.3608">
        <ele>810</ele>
        <time>2025-09-28T09:41:11Z</time>
      </trkpt>
      <trkpt lat="46.12119" lon="4.36079">
        <ele>809.6</ele>
        <time>2025-09-28T09:41:12Z</time>
      </trkpt>
      <trkpt lat="46.12116" lon="4.36077">
        <ele>809.2</ele>
        <time>2025-09-28T09:41:13Z</time>
      </trkpt>
      <trkpt lat="46.12112" lon="4.36075">
        <ele>809.2</ele>
        <time>2025-09-28T09:41:14Z</time>
      </trkpt>
      <trkpt lat="46.12109" lon="4.36072">
        <ele>808.4</ele>
        <time>2025-09-28T09:41:15Z</time>
      </trkpt>
      <trkpt lat="46.12106" lon="4.3607">
        <ele>807.8</ele>
        <time>2025-09-28T09:41:16Z</time>
      </trkpt>
      <trkpt lat="46.12103" lon="4.36067">
        <ele>807.2</ele>
        <time>2025-09-28T09:41:17Z</time>
      </trkpt>
      <trkpt lat="46.121" lon="4.36065">
        <ele>806.8</ele>
        <time>2025-09-28T09:41:18Z</time>
      </trkpt>
      <trkpt lat="46.12093" lon="4.36061">
        <ele>805.8</ele>
        <time>2025-09-28T09:41:19Z</time>
      </trkpt>
      <trkpt lat="46.12088" lon="4.36064">
        <ele>805.2</ele>
        <time>2025-09-28T09:41:20Z</time>
      </trkpt>
      <trkpt lat="46.12082" lon="4.36065">
        <ele>804.4</ele>
        <time>2025-09-28T09:41:21Z</time>
      </trkpt>
      <trkpt lat="46.12078" lon="4.36064">
        <ele>804</ele>
        <time>2025-09-28T09:41:22Z</time>
      </trkpt>
      <trkpt lat="46.12072" lon="4.36063">
        <ele>803.6</ele>
        <time>2025-09-28T09:41:23Z</time>
      </trkpt>
      <trkpt lat="46.12067" lon="4.36062">
        <ele>803</ele>
        <time>2025-09-28T09:41:24Z</time>
      </trkpt>
      <trkpt lat="46.12062" lon="4.3606">
        <ele>802.2</ele>
        <time>2025-09-28T09:41:25Z</time>
      </trkpt>
      <trkpt lat="46.12058" lon="4.3606">
        <ele>802.6</ele>
        <time>2025-09-28T09:41:26Z</time>
      </trkpt>
      <trkpt lat="46.12052" lon="4.36059">
        <ele>802.2</ele>
        <time>2025-09-28T09:41:27Z</time>
      </trkpt>
      <trkpt lat="46.12047" lon="4.36057">
        <ele>801.6</ele>
        <time>2025-09-28T09:41:28Z</time>
      </trkpt>
      <trkpt lat="46.12042" lon="4.36057">
        <ele>801.2</ele>
        <time>2025-09-28T09:41:29Z</time>
      </trkpt>
      <trkpt lat="46.12036" lon="4.36053">
        <ele>800.2</ele>
        <time>2025-09-28T09:41:30Z</time>
      </trkpt>
      <trkpt lat="46.1203" lon="4.36051">
        <ele>800</ele>
        <time>2025-09-28T09:41:31Z</time>
      </trkpt>
      <trkpt lat="46.12025" lon="4.36049">
        <ele>799.6</ele>
        <time>2025-09-28T09:41:32Z</time>
      </trkpt>
      <trkpt lat="46.1202" lon="4.36046">
        <ele>798.8</ele>
        <time>2025-09-28T09:41:33Z</time>
      </trkpt>
      <trkpt lat="46.12015" lon="4.36044">
        <ele>798.8</ele>
        <time>2025-09-28T09:41:34Z</time>
      </trkpt>
      <trkpt lat="46.12009" lon="4.3604">
        <ele>798.8</ele>
        <time>2025-09-28T09:41:35Z</time>
      </trkpt>
      <trkpt lat="46.12004" lon="4.36038">
        <ele>798.6</ele>
        <time>2025-09-28T09:41:36Z</time>
      </trkpt>
      <trkpt lat="46.11999" lon="4.36037">
        <ele>798</ele>
        <time>2025-09-28T09:41:37Z</time>
      </trkpt>
      <trkpt lat="46.11994" lon="4.36034">
        <ele>798.2</ele>
        <time>2025-09-28T09:41:38Z</time>
      </trkpt>
      <trkpt lat="46.11989" lon="4.36031">
        <ele>798.2</ele>
        <time>2025-09-28T09:41:39Z</time>
      </trkpt>
      <trkpt lat="46.11985" lon="4.36026">
        <ele>797.8</ele>
        <time>2025-09-28T09:41:40Z</time>
      </trkpt>
      <trkpt lat="46.11982" lon="4.36022">
        <ele>797.2</ele>
        <time>2025-09-28T09:41:41Z</time>
      </trkpt>
      <trkpt lat="46.11979" lon="4.36018">
        <ele>796.2</ele>
        <time>2025-09-28T09:41:42Z</time>
      </trkpt>
      <trkpt lat="46.11974" lon="4.36013">
        <ele>795.6</ele>
        <time>2025-09-28T09:41:43Z</time>
      </trkpt>
      <trkpt lat="46.1197" lon="4.36008">
        <ele>795.2</ele>
        <time>2025-09-28T09:41:44Z</time>
      </trkpt>
      <trkpt lat="46.11965" lon="4.36004">
        <ele>794.4</ele>
        <time>2025-09-28T09:41:45Z</time>
      </trkpt>
      <trkpt lat="46.1196" lon="4.35999">
        <ele>794</ele>
        <time>2025-09-28T09:41:46Z</time>
      </trkpt>
      <trkpt lat="46.11954" lon="4.35993">
        <ele>794</ele>
        <time>2025-09-28T09:41:47Z</time>
      </trkpt>
      <trkpt lat="46.11947" lon="4.35988">
        <ele>793.2</ele>
        <time>2025-09-28T09:41:48Z</time>
      </trkpt>
      <trkpt lat="46.11942" lon="4.35984">
        <ele>792.2</ele>
        <time>2025-09-28T09:41:49Z</time>
      </trkpt>
      <trkpt lat="46.11935" lon="4.35981">
        <ele>792.2</ele>
        <time>2025-09-28T09:41:50Z</time>
      </trkpt>
      <trkpt lat="46.11931" lon="4.3598">
        <ele>791.4</ele>
        <time>2025-09-28T09:41:51Z</time>
      </trkpt>
      <trkpt lat="46.11926" lon="4.35977">
        <ele>791.2</ele>
        <time>2025-09-28T09:41:52Z</time>
      </trkpt>
      <trkpt lat="46.11922" lon="4.35977">
        <ele>790.8</ele>
        <time>2025-09-28T09:41:53Z</time>
      </trkpt>
      <trkpt lat="46.1192" lon="4.35974">
        <ele>790.8</ele>
        <time>2025-09-28T09:41:54Z</time>
      </trkpt>
      <trkpt lat="46.11918" lon="4.35975">
        <ele>790.6</ele>
        <time>2025-09-28T09:41:55Z</time>
      </trkpt>
      <trkpt lat="46.11914" lon="4.35975">
        <ele>790.2</ele>
        <time>2025-09-28T09:41:56Z</time>
      </trkpt>
      <trkpt lat="46.11911" lon="4.35974">
        <ele>790.2</ele>
        <time>2025-09-28T09:41:57Z</time>
      </trkpt>
      <trkpt lat="46.11911" lon="4.35969">
        <ele>790.2</ele>
        <time>2025-09-28T09:41:58Z</time>
      </trkpt>
      <trkpt lat="46.11909" lon="4.35969">
        <ele>790.2</ele>
        <time>2025-09-28T09:41:59Z</time>
      </trkpt>
      <trkpt lat="46.11907" lon="4.35967">
        <ele>790.2</ele>
        <time>2025-09-28T09:42:00Z</time>
      </trkpt>
      <trkpt lat="46.11904" lon="4.35965">
        <ele>790.2</ele>
        <time>2025-09-28T09:42:01Z</time>
      </trkpt>
      <trkpt lat="46.119" lon="4.35962">
        <ele>790.2</ele>
        <time>2025-09-28T09:42:02Z</time>
      </trkpt>
      <trkpt lat="46.11895" lon="4.3596">
        <ele>790.2</ele>
        <time>2025-09-28T09:42:03Z</time>
      </trkpt>
      <trkpt lat="46.11892" lon="4.35957">
        <ele>790</ele>
        <time>2025-09-28T09:42:04Z</time>
      </trkpt>
      <trkpt lat="46.11889" lon="4.35955">
        <ele>789.8</ele>
        <time>2025-09-28T09:42:05Z</time>
      </trkpt>
      <trkpt lat="46.11885" lon="4.35954">
        <ele>789.8</ele>
        <time>2025-09-28T09:42:06Z</time>
      </trkpt>
      <trkpt lat="46.11882" lon="4.35952">
        <ele>789.8</ele>
        <time>2025-09-28T09:42:07Z</time>
      </trkpt>
      <trkpt lat="46.11878" lon="4.35951">
        <ele>789.6</ele>
        <time>2025-09-28T09:42:08Z</time>
      </trkpt>
      <trkpt lat="46.11875" lon="4.35949">
        <ele>789.2</ele>
        <time>2025-09-28T09:42:09Z</time>
      </trkpt>
      <trkpt lat="46.11872" lon="4.35948">
        <ele>789</ele>
        <time>2025-09-28T09:42:10Z</time>
      </trkpt>
      <trkpt lat="46.11867" lon="4.35946">
        <ele>789</ele>
        <time>2025-09-28T09:42:11Z</time>
      </trkpt>
      <trkpt lat="46.11863" lon="4.35944">
        <ele>788.8</ele>
        <time>2025-09-28T09:42:12Z</time>
      </trkpt>
      <trkpt lat="46.11859" lon="4.35943">
        <ele>788.4</ele>
        <time>2025-09-28T09:42:13Z</time>
      </trkpt>
      <trkpt lat="46.11856" lon="4.35943">
        <ele>788.4</ele>
        <time>2025-09-28T09:42:14Z</time>
      </trkpt>
      <trkpt lat="46.11854" lon="4.35942">
        <ele>788.2</ele>
        <time>2025-09-28T09:42:15Z</time>
      </trkpt>
      <trkpt lat="46.11851" lon="4.35941">
        <ele>788.6</ele>
        <time>2025-09-28T09:42:16Z</time>
      </trkpt>
      <trkpt lat="46.11848" lon="4.35939">
        <ele>788.6</ele>
        <time>2025-09-28T09:42:17Z</time>
      </trkpt>
      <trkpt lat="46.11845" lon="4.35938">
        <ele>788.6</ele>
        <time>2025-09-28T09:42:18Z</time>
      </trkpt>
      <trkpt lat="46.11841" lon="4.35937">
        <ele>788.6</ele>
        <time>2025-09-28T09:42:19Z</time>
      </trkpt>
      <trkpt lat="46.11838" lon="4.35935">
        <ele>788.2</ele>
        <time>2025-09-28T09:42:20Z</time>
      </trkpt>
      <trkpt lat="46.11834" lon="4.35934">
        <ele>788.2</ele>
        <time>2025-09-28T09:42:21Z</time>
      </trkpt>
      <trkpt lat="46.1183" lon="4.35933">
        <ele>788.2</ele>
        <time>2025-09-28T09:42:22Z</time>
      </trkpt>
      <trkpt lat="46.11825" lon="4.35932">
        <ele>788.2</ele>
        <time>2025-09-28T09:42:23Z</time>
      </trkpt>
      <trkpt lat="46.11821" lon="4.3593">
        <ele>787.8</ele>
        <time>2025-09-28T09:42:24Z</time>
      </trkpt>
      <trkpt lat="46.11817" lon="4.35929">
        <ele>787.4</ele>
        <time>2025-09-28T09:42:25Z</time>
      </trkpt>
      <trkpt lat="46.11813" lon="4.35927">
        <ele>787.4</ele>
        <time>2025-09-28T09:42:26Z</time>
      </trkpt>
      <trkpt lat="46.11809" lon="4.35924">
        <ele>787</ele>
        <time>2025-09-28T09:42:27Z</time>
      </trkpt>
      <trkpt lat="46.11806" lon="4.35922">
        <ele>787</ele>
        <time>2025-09-28T09:42:28Z</time>
      </trkpt>
      <trkpt lat="46.11803" lon="4.3592">
        <ele>787</ele>
        <time>2025-09-28T09:42:29Z</time>
      </trkpt>
      <trkpt lat="46.11796" lon="4.35916">
        <ele>787</ele>
        <time>2025-09-28T09:42:30Z</time>
      </trkpt>
      <trkpt lat="46.11793" lon="4.35913">
        <ele>786.2</ele>
        <time>2025-09-28T09:42:31Z</time>
      </trkpt>
      <trkpt lat="46.11788" lon="4.35912">
        <ele>786</ele>
        <time>2025-09-28T09:42:32Z</time>
      </trkpt>
      <trkpt lat="46.11779" lon="4.35908">
        <ele>785.6</ele>
        <time>2025-09-28T09:42:33Z</time>
      </trkpt>
      <trkpt lat="46.11776" lon="4.35908">
        <ele>785</ele>
        <time>2025-09-28T09:42:34Z</time>
      </trkpt>
      <trkpt lat="46.1177" lon="4.35906">
        <ele>785</ele>
        <time>2025-09-28T09:42:35Z</time>
      </trkpt>
      <trkpt lat="46.11764" lon="4.35906">
        <ele>784.2</ele>
        <time>2025-09-28T09:42:36Z</time>
      </trkpt>
      <trkpt lat="46.11756" lon="4.35902">
        <ele>783.4</ele>
        <time>2025-09-28T09:42:37Z</time>
      </trkpt>
      <trkpt lat="46.11747" lon="4.35897">
        <ele>783</ele>
        <time>2025-09-28T09:42:38Z</time>
      </trkpt>
      <trkpt lat="46.1174" lon="4.35897">
        <ele>782.6</ele>
        <time>2025-09-28T09:42:39Z</time>
      </trkpt>
      <trkpt lat="46.11733" lon="4.35893">
        <ele>782.2</ele>
        <time>2025-09-28T09:42:40Z</time>
      </trkpt>
      <trkpt lat="46.11726" lon="4.35891">
        <ele>781.8</ele>
        <time>2025-09-28T09:42:41Z</time>
      </trkpt>
      <trkpt lat="46.11719" lon="4.35888">
        <ele>781.6</ele>
        <time>2025-09-28T09:42:42Z</time>
      </trkpt>
      <trkpt lat="46.11713" lon="4.35886">
        <ele>781.4</ele>
        <time>2025-09-28T09:42:43Z</time>
      </trkpt>
      <trkpt lat="46.11707" lon="4.35883">
        <ele>781.4</ele>
        <time>2025-09-28T09:42:44Z</time>
      </trkpt>
      <trkpt lat="46.11701" lon="4.35883">
        <ele>780.8</ele>
        <time>2025-09-28T09:42:45Z</time>
      </trkpt>
      <trkpt lat="46.11695" lon="4.35883">
        <ele>780.6</ele>
        <time>2025-09-28T09:42:46Z</time>
      </trkpt>
      <trkpt lat="46.11689" lon="4.35884">
        <ele>780.8</ele>
        <time>2025-09-28T09:42:47Z</time>
      </trkpt>
      <trkpt lat="46.11683" lon="4.35886">
        <ele>781</ele>
        <time>2025-09-28T09:42:48Z</time>
      </trkpt>
      <trkpt lat="46.11678" lon="4.35885">
        <ele>781</ele>
        <time>2025-09-28T09:42:49Z</time>
      </trkpt>
      <trkpt lat="46.11675" lon="4.35886">
        <ele>781.4</ele>
        <time>2025-09-28T09:42:50Z</time>
      </trkpt>
      <trkpt lat="46.11671" lon="4.35886">
        <ele>781.4</ele>
        <time>2025-09-28T09:42:51Z</time>
      </trkpt>
      <trkpt lat="46.11667" lon="4.35886">
        <ele>781.4</ele>
        <time>2025-09-28T09:42:52Z</time>
      </trkpt>
      <trkpt lat="46.11662" lon="4.35887">
        <ele>781.4</ele>
        <time>2025-09-28T09:42:53Z</time>
      </trkpt>
      <trkpt lat="46.11658" lon="4.35887">
        <ele>782</ele>
        <time>2025-09-28T09:42:54Z</time>
      </trkpt>
      <trkpt lat="46.11653" lon="4.35888">
        <ele>782</ele>
        <time>2025-09-28T09:42:55Z</time>
      </trkpt>
      <trkpt lat="46.11649" lon="4.35888">
        <ele>782</ele>
        <time>2025-09-28T09:42:56Z</time>
      </trkpt>
      <trkpt lat="46.11645" lon="4.35889">
        <ele>782</ele>
        <time>2025-09-28T09:42:57Z</time>
      </trkpt>
      <trkpt lat="46.11641" lon="4.35888">
        <ele>782</ele>
        <time>2025-09-28T09:42:58Z</time>
      </trkpt>
      <trkpt lat="46.11637" lon="4.35889">
        <ele>782</ele>
        <time>2025-09-28T09:42:59Z</time>
      </trkpt>
      <trkpt lat="46.11633" lon="4.35889">
        <ele>782.4</ele>
        <time>2025-09-28T09:43:00Z</time>
      </trkpt>
      <trkpt lat="46.1163" lon="4.3589">
        <ele>782.4</ele>
        <time>2025-09-28T09:43:01Z</time>
      </trkpt>
      <trkpt lat="46.11626" lon="4.3589">
        <ele>782.4</ele>
        <time>2025-09-28T09:43:02Z</time>
      </trkpt>
      <trkpt lat="46.11622" lon="4.35889">
        <ele>783.4</ele>
        <time>2025-09-28T09:43:03Z</time>
      </trkpt>
      <trkpt lat="46.11618" lon="4.35889">
        <ele>783.4</ele>
        <time>2025-09-28T09:43:04Z</time>
      </trkpt>
      <trkpt lat="46.11615" lon="4.35888">
        <ele>783</ele>
        <time>2025-09-28T09:43:05Z</time>
      </trkpt>
      <trkpt lat="46.11613" lon="4.35888">
        <ele>783</ele>
        <time>2025-09-28T09:43:06Z</time>
      </trkpt>
      <trkpt lat="46.11613" lon="4.35889">
        <ele>783</ele>
        <time>2025-09-28T09:43:07Z</time>
      </trkpt>
      <trkpt lat="46.11614" lon="4.35888">
        <ele>783</ele>
        <time>2025-09-28T09:43:08Z</time>
      </trkpt>
      <trkpt lat="46.11612" lon="4.35891">
        <ele>782.2</ele>
        <time>2025-09-28T09:43:16Z</time>
      </trkpt>
      <trkpt lat="46.11609" lon="4.35891">
        <ele>782.4</ele>
        <time>2025-09-28T09:43:17Z</time>
      </trkpt>
      <trkpt lat="46.11607" lon="4.35891">
        <ele>782.4</ele>
        <time>2025-09-28T09:43:18Z</time>
      </trkpt>
      <trkpt lat="46.11604" lon="4.35891">
        <ele>782.4</ele>
        <time>2025-09-28T09:43:19Z</time>
      </trkpt>
      <trkpt lat="46.11599" lon="4.3589">
        <ele>782.4</ele>
        <time>2025-09-28T09:43:20Z</time>
      </trkpt>
      <trkpt lat="46.11595" lon="4.3589">
        <ele>782.4</ele>
        <time>2025-09-28T09:43:21Z</time>
      </trkpt>
      <trkpt lat="46.1159" lon="4.3589">
        <ele>782.2</ele>
        <time>2025-09-28T09:43:22Z</time>
      </trkpt>
      <trkpt lat="46.11586" lon="4.3589">
        <ele>782.2</ele>
        <time>2025-09-28T09:43:23Z</time>
      </trkpt>
      <trkpt lat="46.11582" lon="4.3589">
        <ele>782.2</ele>
        <time>2025-09-28T09:43:24Z</time>
      </trkpt>
      <trkpt lat="46.11578" lon="4.35889">
        <ele>782.2</ele>
        <time>2025-09-28T09:43:25Z</time>
      </trkpt>
      <trkpt lat="46.11574" lon="4.35889">
        <ele>782.2</ele>
        <time>2025-09-28T09:43:26Z</time>
      </trkpt>
      <trkpt lat="46.1157" lon="4.35889">
        <ele>782</ele>
        <time>2025-09-28T09:43:27Z</time>
      </trkpt>
      <trkpt lat="46.11565" lon="4.35889">
        <ele>782</ele>
        <time>2025-09-28T09:43:28Z</time>
      </trkpt>
      <trkpt lat="46.1156" lon="4.35891">
        <ele>782.2</ele>
        <time>2025-09-28T09:43:29Z</time>
      </trkpt>
      <trkpt lat="46.11555" lon="4.35893">
        <ele>782</ele>
        <time>2025-09-28T09:43:30Z</time>
      </trkpt>
      <trkpt lat="46.11549" lon="4.35893">
        <ele>781.6</ele>
        <time>2025-09-28T09:43:31Z</time>
      </trkpt>
      <trkpt lat="46.11543" lon="4.35895">
        <ele>781</ele>
        <time>2025-09-28T09:43:32Z</time>
      </trkpt>
      <trkpt lat="46.11539" lon="4.35895">
        <ele>780.8</ele>
        <time>2025-09-28T09:43:33Z</time>
      </trkpt>
      <trkpt lat="46.11535" lon="4.35896">
        <ele>780.6</ele>
        <time>2025-09-28T09:43:34Z</time>
      </trkpt>
      <trkpt lat="46.11529" lon="4.35897">
        <ele>780.6</ele>
        <time>2025-09-28T09:43:35Z</time>
      </trkpt>
      <trkpt lat="46.11524" lon="4.35897">
        <ele>780.4</ele>
        <time>2025-09-28T09:43:36Z</time>
      </trkpt>
      <trkpt lat="46.11519" lon="4.35898">
        <ele>779.8</ele>
        <time>2025-09-28T09:43:37Z</time>
      </trkpt>
      <trkpt lat="46.11514" lon="4.359">
        <ele>778.8</ele>
        <time>2025-09-28T09:43:38Z</time>
      </trkpt>
      <trkpt lat="46.11508" lon="4.35902">
        <ele>779.2</ele>
        <time>2025-09-28T09:43:39Z</time>
      </trkpt>
      <trkpt lat="46.11501" lon="4.35903">
        <ele>778.6</ele>
        <time>2025-09-28T09:43:40Z</time>
      </trkpt>
      <trkpt lat="46.11494" lon="4.35904">
        <ele>778.6</ele>
        <time>2025-09-28T09:43:41Z</time>
      </trkpt>
      <trkpt lat="46.11489" lon="4.35905">
        <ele>777.2</ele>
        <time>2025-09-28T09:43:42Z</time>
      </trkpt>
      <trkpt lat="46.11486" lon="4.35907">
        <ele>777.4</ele>
        <time>2025-09-28T09:43:43Z</time>
      </trkpt>
      <trkpt lat="46.11478" lon="4.3591">
        <ele>777.4</ele>
        <time>2025-09-28T09:43:44Z</time>
      </trkpt>
      <trkpt lat="46.11472" lon="4.35912">
        <ele>777</ele>
        <time>2025-09-28T09:43:45Z</time>
      </trkpt>
      <trkpt lat="46.11467" lon="4.35917">
        <ele>775.6</ele>
        <time>2025-09-28T09:43:46Z</time>
      </trkpt>
      <trkpt lat="46.11463" lon="4.35916">
        <ele>775</ele>
        <time>2025-09-28T09:43:47Z</time>
      </trkpt>
      <trkpt lat="46.11457" lon="4.3592">
        <ele>775</ele>
        <time>2025-09-28T09:43:48Z</time>
      </trkpt>
      <trkpt lat="46.11451" lon="4.35922">
        <ele>775.2</ele>
        <time>2025-09-28T09:43:49Z</time>
      </trkpt>
      <trkpt lat="46.11447" lon="4.35927">
        <ele>774</ele>
        <time>2025-09-28T09:43:50Z</time>
      </trkpt>
      <trkpt lat="46.11441" lon="4.35929">
        <ele>773.6</ele>
        <time>2025-09-28T09:43:51Z</time>
      </trkpt>
      <trkpt lat="46.11438" lon="4.35931">
        <ele>773.6</ele>
        <time>2025-09-28T09:43:52Z</time>
      </trkpt>
      <trkpt lat="46.11434" lon="4.35933">
        <ele>774.6</ele>
        <time>2025-09-28T09:43:53Z</time>
      </trkpt>
      <trkpt lat="46.11429" lon="4.35934">
        <ele>773.8</ele>
        <time>2025-09-28T09:43:54Z</time>
      </trkpt>
      <trkpt lat="46.11426" lon="4.35937">
        <ele>773.6</ele>
        <time>2025-09-28T09:43:55Z</time>
      </trkpt>
      <trkpt lat="46.11422" lon="4.3594">
        <ele>773.4</ele>
        <time>2025-09-28T09:43:56Z</time>
      </trkpt>
      <trkpt lat="46.11417" lon="4.35942">
        <ele>773.4</ele>
        <time>2025-09-28T09:43:57Z</time>
      </trkpt>
      <trkpt lat="46.11413" lon="4.35945">
        <ele>772.6</ele>
        <time>2025-09-28T09:43:58Z</time>
      </trkpt>
      <trkpt lat="46.11409" lon="4.35946">
        <ele>772.6</ele>
        <time>2025-09-28T09:43:59Z</time>
      </trkpt>
      <trkpt lat="46.11405" lon="4.35951">
        <ele>772.2</ele>
        <time>2025-09-28T09:44:00Z</time>
      </trkpt>
      <trkpt lat="46.11401" lon="4.35955">
        <ele>771.8</ele>
        <time>2025-09-28T09:44:01Z</time>
      </trkpt>
      <trkpt lat="46.11396" lon="4.35958">
        <ele>771.4</ele>
        <time>2025-09-28T09:44:02Z</time>
      </trkpt>
      <trkpt lat="46.11392" lon="4.35963">
        <ele>771.4</ele>
        <time>2025-09-28T09:44:03Z</time>
      </trkpt>
      <trkpt lat="46.11387" lon="4.35967">
        <ele>771.4</ele>
        <time>2025-09-28T09:44:04Z</time>
      </trkpt>
      <trkpt lat="46.11383" lon="4.35971">
        <ele>771.4</ele>
        <time>2025-09-28T09:44:05Z</time>
      </trkpt>
      <trkpt lat="46.11379" lon="4.35975">
        <ele>771.2</ele>
        <time>2025-09-28T09:44:06Z</time>
      </trkpt>
      <trkpt lat="46.11375" lon="4.35979">
        <ele>770.8</ele>
        <time>2025-09-28T09:44:07Z</time>
      </trkpt>
      <trkpt lat="46.11371" lon="4.35983">
        <ele>770.8</ele>
        <time>2025-09-28T09:44:08Z</time>
      </trkpt>
      <trkpt lat="46.11367" lon="4.35986">
        <ele>770.8</ele>
        <time>2025-09-28T09:44:09Z</time>
      </trkpt>
      <trkpt lat="46.11363" lon="4.3599">
        <ele>770.8</ele>
        <time>2025-09-28T09:44:10Z</time>
      </trkpt>
      <trkpt lat="46.11359" lon="4.35994">
        <ele>770.8</ele>
        <time>2025-09-28T09:44:11Z</time>
      </trkpt>
      <trkpt lat="46.11355" lon="4.35997">
        <ele>771.2</ele>
        <time>2025-09-28T09:44:12Z</time>
      </trkpt>
      <trkpt lat="46.11352" lon="4.36002">
        <ele>771.2</ele>
        <time>2025-09-28T09:44:13Z</time>
      </trkpt>
      <trkpt lat="46.11348" lon="4.36007">
        <ele>771.2</ele>
        <time>2025-09-28T09:44:14Z</time>
      </trkpt>
      <trkpt lat="46.11348" lon="4.36009">
        <ele>771.2</ele>
        <time>2025-09-28T09:44:15Z</time>
      </trkpt>
      <trkpt lat="46.11345" lon="4.36012">
        <ele>771.4</ele>
        <time>2025-09-28T09:44:16Z</time>
      </trkpt>
      <trkpt lat="46.11343" lon="4.36015">
        <ele>771.8</ele>
        <time>2025-09-28T09:44:17Z</time>
      </trkpt>
      <trkpt lat="46.11342" lon="4.36017">
        <ele>771.8</ele>
        <time>2025-09-28T09:44:18Z</time>
      </trkpt>
      <trkpt lat="46.11342" lon="4.36018">
        <ele>772</ele>
        <time>2025-09-28T09:44:19Z</time>
      </trkpt>
      <trkpt lat="46.11341" lon="4.3602">
        <ele>772.2</ele>
        <time>2025-09-28T09:44:20Z</time>
      </trkpt>
      <trkpt lat="46.11341" lon="4.3602">
        <ele>772.2</ele>
        <time>2025-09-28T09:44:21Z</time>
      </trkpt>
      <trkpt lat="46.11353" lon="4.3602">
        <ele>772.2</ele>
        <time>2025-09-28T09:45:46Z</time>
      </trkpt>
      <trkpt lat="46.11351" lon="4.36019">
        <ele>772.2</ele>
        <time>2025-09-28T09:45:47Z</time>
      </trkpt>
      <trkpt lat="46.11349" lon="4.36019">
        <ele>772.2</ele>
        <time>2025-09-28T09:45:48Z</time>
      </trkpt>
      <trkpt lat="46.11347" lon="4.3602">
        <ele>772.2</ele>
        <time>2025-09-28T09:45:49Z</time>
      </trkpt>
      <trkpt lat="46.11344" lon="4.36021">
        <ele>772.2</ele>
        <time>2025-09-28T09:45:50Z</time>
      </trkpt>
      <trkpt lat="46.11342" lon="4.36022">
        <ele>772.2</ele>
        <time>2025-09-28T09:45:51Z</time>
      </trkpt>
      <trkpt lat="46.1134" lon="4.36023">
        <ele>772.2</ele>
        <time>2025-09-28T09:45:52Z</time>
      </trkpt>
      <trkpt lat="46.11337" lon="4.36024">
        <ele>772.2</ele>
        <time>2025-09-28T09:45:53Z</time>
      </trkpt>
      <trkpt lat="46.11334" lon="4.36025">
        <ele>772.4</ele>
        <time>2025-09-28T09:45:54Z</time>
      </trkpt>
      <trkpt lat="46.11331" lon="4.36026">
        <ele>772.4</ele>
        <time>2025-09-28T09:45:55Z</time>
      </trkpt>
      <trkpt lat="46.11328" lon="4.36028">
        <ele>772.4</ele>
        <time>2025-09-28T09:45:56Z</time>
      </trkpt>
      <trkpt lat="46.11326" lon="4.36029">
        <ele>772.4</ele>
        <time>2025-09-28T09:45:57Z</time>
      </trkpt>
      <trkpt lat="46.11323" lon="4.3603">
        <ele>772.6</ele>
        <time>2025-09-28T09:45:58Z</time>
      </trkpt>
      <trkpt lat="46.11321" lon="4.36031">
        <ele>772.6</ele>
        <time>2025-09-28T09:45:59Z</time>
      </trkpt>
      <trkpt lat="46.11319" lon="4.36032">
        <ele>772.8</ele>
        <time>2025-09-28T09:46:00Z</time>
      </trkpt>
      <trkpt lat="46.11316" lon="4.36033">
        <ele>772.6</ele>
        <time>2025-09-28T09:46:01Z</time>
      </trkpt>
      <trkpt lat="46.11313" lon="4.36034">
        <ele>772.8</ele>
        <time>2025-09-28T09:46:02Z</time>
      </trkpt>
      <trkpt lat="46.11311" lon="4.36036">
        <ele>772.4</ele>
        <time>2025-09-28T09:46:03Z</time>
      </trkpt>
      <trkpt lat="46.11309" lon="4.36038">
        <ele>772.4</ele>
        <time>2025-09-28T09:46:04Z</time>
      </trkpt>
      <trkpt lat="46.11306" lon="4.36041">
        <ele>772.8</ele>
        <time>2025-09-28T09:46:05Z</time>
      </trkpt>
      <trkpt lat="46.11303" lon="4.36042">
        <ele>772.8</ele>
        <time>2025-09-28T09:46:06Z</time>
      </trkpt>
      <trkpt lat="46.11301" lon="4.36044">
        <ele>773.2</ele>
        <time>2025-09-28T09:46:07Z</time>
      </trkpt>
      <trkpt lat="46.11297" lon="4.36045">
        <ele>773</ele>
        <time>2025-09-28T09:46:08Z</time>
      </trkpt>
      <trkpt lat="46.11295" lon="4.36047">
        <ele>773.2</ele>
        <time>2025-09-28T09:46:09Z</time>
      </trkpt>
      <trkpt lat="46.11291" lon="4.36047">
        <ele>772.4</ele>
        <time>2025-09-28T09:46:10Z</time>
      </trkpt>
      <trkpt lat="46.11289" lon="4.36048">
        <ele>772.4</ele>
        <time>2025-09-28T09:46:11Z</time>
      </trkpt>
      <trkpt lat="46.11286" lon="4.36048">
        <ele>772.4</ele>
        <time>2025-09-28T09:46:12Z</time>
      </trkpt>
      <trkpt lat="46.11283" lon="4.36049">
        <ele>772.4</ele>
        <time>2025-09-28T09:46:13Z</time>
      </trkpt>
      <trkpt lat="46.11277" lon="4.3605">
        <ele>772.4</ele>
        <time>2025-09-28T09:46:14Z</time>
      </trkpt>
      <trkpt lat="46.11272" lon="4.36051">
        <ele>771.4</ele>
        <time>2025-09-28T09:46:15Z</time>
      </trkpt>
      <trkpt lat="46.11267" lon="4.36054">
        <ele>771.4</ele>
        <time>2025-09-28T09:46:16Z</time>
      </trkpt>
      <trkpt lat="46.11262" lon="4.36058">
        <ele>771.8</ele>
        <time>2025-09-28T09:46:17Z</time>
      </trkpt>
      <trkpt lat="46.11258" lon="4.36061">
        <ele>771.8</ele>
        <time>2025-09-28T09:46:18Z</time>
      </trkpt>
      <trkpt lat="46.11254" lon="4.36063">
        <ele>770.2</ele>
        <time>2025-09-28T09:46:19Z</time>
      </trkpt>
      <trkpt lat="46.11249" lon="4.36065">
        <ele>769.8</ele>
        <time>2025-09-28T09:46:20Z</time>
      </trkpt>
      <trkpt lat="46.11245" lon="4.36068">
        <ele>770.2</ele>
        <time>2025-09-28T09:46:21Z</time>
      </trkpt>
      <trkpt lat="46.1124" lon="4.3607">
        <ele>769.8</ele>
        <time>2025-09-28T09:46:22Z</time>
      </trkpt>
      <trkpt lat="46.11233" lon="4.36073">
        <ele>770.2</ele>
        <time>2025-09-28T09:46:23Z</time>
      </trkpt>
      <trkpt lat="46.11226" lon="4.36075">
        <ele>770.2</ele>
        <time>2025-09-28T09:46:24Z</time>
      </trkpt>
      <trkpt lat="46.11221" lon="4.36077">
        <ele>769.4</ele>
        <time>2025-09-28T09:46:25Z</time>
      </trkpt>
      <trkpt lat="46.11215" lon="4.36079">
        <ele>769.2</ele>
        <time>2025-09-28T09:46:26Z</time>
      </trkpt>
      <trkpt lat="46.1121" lon="4.36082">
        <ele>769.6</ele>
        <time>2025-09-28T09:46:27Z</time>
      </trkpt>
      <trkpt lat="46.11207" lon="4.36081">
        <ele>769</ele>
        <time>2025-09-28T09:46:28Z</time>
      </trkpt>
      <trkpt lat="46.11203" lon="4.36084">
        <ele>769</ele>
        <time>2025-09-28T09:46:29Z</time>
      </trkpt>
      <trkpt lat="46.112" lon="4.36086">
        <ele>769</ele>
        <time>2025-09-28T09:46:30Z</time>
      </trkpt>
      <trkpt lat="46.11197" lon="4.36087">
        <ele>769</ele>
        <time>2025-09-28T09:46:31Z</time>
      </trkpt>
      <trkpt lat="46.11193" lon="4.36089">
        <ele>769</ele>
        <time>2025-09-28T09:46:32Z</time>
      </trkpt>
      <trkpt lat="46.1119" lon="4.36093">
        <ele>769</ele>
        <time>2025-09-28T09:46:33Z</time>
      </trkpt>
      <trkpt lat="46.11189" lon="4.36097">
        <ele>769</ele>
        <time>2025-09-28T09:46:34Z</time>
      </trkpt>
      <trkpt lat="46.11187" lon="4.361">
        <ele>768.6</ele>
        <time>2025-09-28T09:46:35Z</time>
      </trkpt>
      <trkpt lat="46.11185" lon="4.36101">
        <ele>768.8</ele>
        <time>2025-09-28T09:46:36Z</time>
      </trkpt>
      <trkpt lat="46.11183" lon="4.36103">
        <ele>768.8</ele>
        <time>2025-09-28T09:46:37Z</time>
      </trkpt>
      <trkpt lat="46.11179" lon="4.36105">
        <ele>769</ele>
        <time>2025-09-28T09:46:38Z</time>
      </trkpt>
      <trkpt lat="46.11176" lon="4.36108">
        <ele>769.4</ele>
        <time>2025-09-28T09:46:39Z</time>
      </trkpt>
      <trkpt lat="46.11173" lon="4.3611">
        <ele>769.4</ele>
        <time>2025-09-28T09:46:40Z</time>
      </trkpt>
      <trkpt lat="46.1117" lon="4.36112">
        <ele>769.6</ele>
        <time>2025-09-28T09:46:41Z</time>
      </trkpt>
      <trkpt lat="46.11168" lon="4.36115">
        <ele>769.6</ele>
        <time>2025-09-28T09:46:42Z</time>
      </trkpt>
      <trkpt lat="46.11165" lon="4.36117">
        <ele>770</ele>
        <time>2025-09-28T09:46:43Z</time>
      </trkpt>
      <trkpt lat="46.11163" lon="4.3612">
        <ele>770.2</ele>
        <time>2025-09-28T09:46:44Z</time>
      </trkpt>
      <trkpt lat="46.1116" lon="4.36122">
        <ele>770.2</ele>
        <time>2025-09-28T09:46:45Z</time>
      </trkpt>
      <trkpt lat="46.11158" lon="4.36124">
        <ele>771</ele>
        <time>2025-09-28T09:46:46Z</time>
      </trkpt>
      <trkpt lat="46.11156" lon="4.36126">
        <ele>771.4</ele>
        <time>2025-09-28T09:46:47Z</time>
      </trkpt>
      <trkpt lat="46.11155" lon="4.36128">
        <ele>771.4</ele>
        <time>2025-09-28T09:46:48Z</time>
      </trkpt>
      <trkpt lat="46.11154" lon="4.36129">
        <ele>772</ele>
        <time>2025-09-28T09:46:49Z</time>
      </trkpt>
      <trkpt lat="46.11153" lon="4.36131">
        <ele>772.6</ele>
        <time>2025-09-28T09:46:50Z</time>
      </trkpt>
      <trkpt lat="46.11151" lon="4.36132">
        <ele>772.4</ele>
        <time>2025-09-28T09:46:51Z</time>
      </trkpt>
      <trkpt lat="46.1115" lon="4.36135">
        <ele>772.6</ele>
        <time>2025-09-28T09:46:52Z</time>
      </trkpt>
      <trkpt lat="46.11148" lon="4.36137">
        <ele>773</ele>
        <time>2025-09-28T09:46:53Z</time>
      </trkpt>
      <trkpt lat="46.11146" lon="4.36139">
        <ele>773</ele>
        <time>2025-09-28T09:46:54Z</time>
      </trkpt>
      <trkpt lat="46.11144" lon="4.36141">
        <ele>773.6</ele>
        <time>2025-09-28T09:46:55Z</time>
      </trkpt>
      <trkpt lat="46.11142" lon="4.36143">
        <ele>774</ele>
        <time>2025-09-28T09:46:56Z</time>
      </trkpt>
      <trkpt lat="46.11139" lon="4.36144">
        <ele>774.2</ele>
        <time>2025-09-28T09:46:57Z</time>
      </trkpt>
      <trkpt lat="46.11137" lon="4.36146">
        <ele>774.4</ele>
        <time>2025-09-28T09:46:58Z</time>
      </trkpt>
      <trkpt lat="46.11135" lon="4.36147">
        <ele>774.4</ele>
        <time>2025-09-28T09:46:59Z</time>
      </trkpt>
      <trkpt lat="46.11133" lon="4.36149">
        <ele>774.4</ele>
        <time>2025-09-28T09:47:00Z</time>
      </trkpt>
      <trkpt lat="46.11131" lon="4.3615">
        <ele>774.6</ele>
        <time>2025-09-28T09:47:01Z</time>
      </trkpt>
      <trkpt lat="46.1113" lon="4.36151">
        <ele>775</ele>
        <time>2025-09-28T09:47:02Z</time>
      </trkpt>
      <trkpt lat="46.11128" lon="4.36152">
        <ele>775.2</ele>
        <time>2025-09-28T09:47:03Z</time>
      </trkpt>
      <trkpt lat="46.11126" lon="4.36153">
        <ele>775.8</ele>
        <time>2025-09-28T09:47:04Z</time>
      </trkpt>
      <trkpt lat="46.11124" lon="4.36154">
        <ele>775.8</ele>
        <time>2025-09-28T09:47:05Z</time>
      </trkpt>
      <trkpt lat="46.11123" lon="4.36155">
        <ele>775.8</ele>
        <time>2025-09-28T09:47:06Z</time>
      </trkpt>
      <trkpt lat="46.11121" lon="4.36156">
        <ele>776.2</ele>
        <time>2025-09-28T09:47:07Z</time>
      </trkpt>
      <trkpt lat="46.1112" lon="4.36156">
        <ele>776.2</ele>
        <time>2025-09-28T09:47:08Z</time>
      </trkpt>
      <trkpt lat="46.11119" lon="4.36158">
        <ele>776.2</ele>
        <time>2025-09-28T09:47:09Z</time>
      </trkpt>
      <trkpt lat="46.11117" lon="4.3616">
        <ele>776.6</ele>
        <time>2025-09-28T09:47:10Z</time>
      </trkpt>
      <trkpt lat="46.11115" lon="4.36161">
        <ele>776.8</ele>
        <time>2025-09-28T09:47:11Z</time>
      </trkpt>
      <trkpt lat="46.11112" lon="4.36163">
        <ele>776.8</ele>
        <time>2025-09-28T09:47:12Z</time>
      </trkpt>
      <trkpt lat="46.11109" lon="4.36165">
        <ele>777.2</ele>
        <time>2025-09-28T09:47:13Z</time>
      </trkpt>
      <trkpt lat="46.11108" lon="4.36166">
        <ele>777.2</ele>
        <time>2025-09-28T09:47:14Z</time>
      </trkpt>
      <trkpt lat="46.11107" lon="4.36167">
        <ele>777.2</ele>
        <time>2025-09-28T09:47:15Z</time>
      </trkpt>
      <trkpt lat="46.11106" lon="4.36167">
        <ele>777.2</ele>
        <time>2025-09-28T09:47:16Z</time>
      </trkpt>
      <trkpt lat="46.11105" lon="4.36168">
        <ele>777.6</ele>
        <time>2025-09-28T09:47:17Z</time>
      </trkpt>
      <trkpt lat="46.11103" lon="4.3617">
        <ele>777.6</ele>
        <time>2025-09-28T09:47:18Z</time>
      </trkpt>
      <trkpt lat="46.11102" lon="4.36172">
        <ele>777.8</ele>
        <time>2025-09-28T09:47:19Z</time>
      </trkpt>
      <trkpt lat="46.11101" lon="4.36174">
        <ele>777.8</ele>
        <time>2025-09-28T09:47:20Z</time>
      </trkpt>
      <trkpt lat="46.11099" lon="4.36176">
        <ele>778.2</ele>
        <time>2025-09-28T09:47:21Z</time>
      </trkpt>
      <trkpt lat="46.11097" lon="4.36178">
        <ele>778.4</ele>
        <time>2025-09-28T09:47:22Z</time>
      </trkpt>
      <trkpt lat="46.11097" lon="4.36178">
        <ele>778.8</ele>
        <time>2025-09-28T09:47:23Z</time>
      </trkpt>
      <trkpt lat="46.11096" lon="4.36179">
        <ele>778.8</ele>
        <time>2025-09-28T09:47:24Z</time>
      </trkpt>
      <trkpt lat="46.11095" lon="4.36181">
        <ele>779</ele>
        <time>2025-09-28T09:47:25Z</time>
      </trkpt>
      <trkpt lat="46.11094" lon="4.36183">
        <ele>779</ele>
        <time>2025-09-28T09:47:26Z</time>
      </trkpt>
      <trkpt lat="46.11094" lon="4.36185">
        <ele>779.2</ele>
        <time>2025-09-28T09:47:27Z</time>
      </trkpt>
      <trkpt lat="46.11092" lon="4.36185">
        <ele>779.6</ele>
        <time>2025-09-28T09:47:28Z</time>
      </trkpt>
      <trkpt lat="46.1109" lon="4.36185">
        <ele>779.6</ele>
        <time>2025-09-28T09:47:29Z</time>
      </trkpt>
      <trkpt lat="46.11089" lon="4.36185">
        <ele>779.8</ele>
        <time>2025-09-28T09:47:30Z</time>
      </trkpt>
      <trkpt lat="46.11088" lon="4.36186">
        <ele>780.2</ele>
        <time>2025-09-28T09:47:31Z</time>
      </trkpt>
      <trkpt lat="46.11087" lon="4.36187">
        <ele>780.2</ele>
        <time>2025-09-28T09:47:32Z</time>
      </trkpt>
      <trkpt lat="46.11086" lon="4.36189">
        <ele>780.6</ele>
        <time>2025-09-28T09:47:33Z</time>
      </trkpt>
      <trkpt lat="46.11084" lon="4.36191">
        <ele>780.6</ele>
        <time>2025-09-28T09:47:34Z</time>
      </trkpt>
      <trkpt lat="46.11083" lon="4.36193">
        <ele>780.6</ele>
        <time>2025-09-28T09:47:35Z</time>
      </trkpt>
      <trkpt lat="46.11081" lon="4.36195">
        <ele>781</ele>
        <time>2025-09-28T09:47:36Z</time>
      </trkpt>
      <trkpt lat="46.1108" lon="4.36198">
        <ele>781</ele>
        <time>2025-09-28T09:47:37Z</time>
      </trkpt>
      <trkpt lat="46.11078" lon="4.36201">
        <ele>781</ele>
        <time>2025-09-28T09:47:38Z</time>
      </trkpt>
      <trkpt lat="46.11076" lon="4.36203">
        <ele>781</ele>
        <time>2025-09-28T09:47:39Z</time>
      </trkpt>
      <trkpt lat="46.11075" lon="4.36206">
        <ele>781.4</ele>
        <time>2025-09-28T09:47:40Z</time>
      </trkpt>
      <trkpt lat="46.11074" lon="4.36209">
        <ele>781.8</ele>
        <time>2025-09-28T09:47:41Z</time>
      </trkpt>
      <trkpt lat="46.11073" lon="4.36211">
        <ele>781.8</ele>
        <time>2025-09-28T09:47:42Z</time>
      </trkpt>
      <trkpt lat="46.11071" lon="4.36214">
        <ele>781.8</ele>
        <time>2025-09-28T09:47:43Z</time>
      </trkpt>
      <trkpt lat="46.1107" lon="4.36216">
        <ele>781.8</ele>
        <time>2025-09-28T09:47:44Z</time>
      </trkpt>
      <trkpt lat="46.11069" lon="4.36217">
        <ele>782</ele>
        <time>2025-09-28T09:47:45Z</time>
      </trkpt>
      <trkpt lat="46.11068" lon="4.36218">
        <ele>782</ele>
        <time>2025-09-28T09:47:46Z</time>
      </trkpt>
      <trkpt lat="46.11067" lon="4.3622">
        <ele>782</ele>
        <time>2025-09-28T09:47:47Z</time>
      </trkpt>
      <trkpt lat="46.11066" lon="4.36221">
        <ele>782</ele>
        <time>2025-09-28T09:47:48Z</time>
      </trkpt>
      <trkpt lat="46.11064" lon="4.36222">
        <ele>782</ele>
        <time>2025-09-28T09:47:49Z</time>
      </trkpt>
      <trkpt lat="46.11062" lon="4.36223">
        <ele>782.4</ele>
        <time>2025-09-28T09:47:50Z</time>
      </trkpt>
      <trkpt lat="46.1106" lon="4.36224">
        <ele>782.6</ele>
        <time>2025-09-28T09:47:51Z</time>
      </trkpt>
      <trkpt lat="46.11059" lon="4.36226">
        <ele>782.6</ele>
        <time>2025-09-28T09:47:52Z</time>
      </trkpt>
      <trkpt lat="46.11058" lon="4.36227">
        <ele>782.8</ele>
        <time>2025-09-28T09:47:53Z</time>
      </trkpt>
      <trkpt lat="46.11056" lon="4.36229">
        <ele>782.8</ele>
        <time>2025-09-28T09:47:54Z</time>
      </trkpt>
      <trkpt lat="46.11055" lon="4.36231">
        <ele>783.2</ele>
        <time>2025-09-28T09:47:55Z</time>
      </trkpt>
      <trkpt lat="46.11054" lon="4.36233">
        <ele>783.2</ele>
        <time>2025-09-28T09:47:56Z</time>
      </trkpt>
      <trkpt lat="46.11053" lon="4.36234">
        <ele>783.6</ele>
        <time>2025-09-28T09:47:57Z</time>
      </trkpt>
      <trkpt lat="46.11052" lon="4.36235">
        <ele>783.8</ele>
        <time>2025-09-28T09:47:58Z</time>
      </trkpt>
      <trkpt lat="46.1105" lon="4.36237">
        <ele>784</ele>
        <time>2025-09-28T09:47:59Z</time>
      </trkpt>
      <trkpt lat="46.11049" lon="4.3624">
        <ele>784</ele>
        <time>2025-09-28T09:48:00Z</time>
      </trkpt>
      <trkpt lat="46.11047" lon="4.36243">
        <ele>784.2</ele>
        <time>2025-09-28T09:48:01Z</time>
      </trkpt>
      <trkpt lat="46.11045" lon="4.36246">
        <ele>784.2</ele>
        <time>2025-09-28T09:48:02Z</time>
      </trkpt>
      <trkpt lat="46.11044" lon="4.36248">
        <ele>784.2</ele>
        <time>2025-09-28T09:48:03Z</time>
      </trkpt>
      <trkpt lat="46.11042" lon="4.36251">
        <ele>784.6</ele>
        <time>2025-09-28T09:48:04Z</time>
      </trkpt>
      <trkpt lat="46.11042" lon="4.36251">
        <ele>784.6</ele>
        <time>2025-09-28T09:48:05Z</time>
      </trkpt>
      <trkpt lat="46.11039" lon="4.36256">
        <ele>785</ele>
        <time>2025-09-28T09:48:06Z</time>
      </trkpt>
      <trkpt lat="46.11039" lon="4.36256">
        <ele>785</ele>
        <time>2025-09-28T09:48:07Z</time>
      </trkpt>
      <trkpt lat="46.11037" lon="4.36258">
        <ele>785.2</ele>
        <time>2025-09-28T09:48:08Z</time>
      </trkpt>
      <trkpt lat="46.11036" lon="4.3626">
        <ele>785.2</ele>
        <time>2025-09-28T09:48:09Z</time>
      </trkpt>
      <trkpt lat="46.11034" lon="4.36261">
        <ele>785.2</ele>
        <time>2025-09-28T09:48:10Z</time>
      </trkpt>
      <trkpt lat="46.11032" lon="4.36263">
        <ele>785.8</ele>
        <time>2025-09-28T09:48:11Z</time>
      </trkpt>
      <trkpt lat="46.11031" lon="4.36265">
        <ele>786</ele>
        <time>2025-09-28T09:48:12Z</time>
      </trkpt>
      <trkpt lat="46.1103" lon="4.36266">
        <ele>786</ele>
        <time>2025-09-28T09:48:13Z</time>
      </trkpt>
      <trkpt lat="46.11029" lon="4.36268">
        <ele>786</ele>
        <time>2025-09-28T09:48:14Z</time>
      </trkpt>
      <trkpt lat="46.11027" lon="4.3627">
        <ele>786.2</ele>
        <time>2025-09-28T09:48:15Z</time>
      </trkpt>
      <trkpt lat="46.11026" lon="4.36272">
        <ele>786.2</ele>
        <time>2025-09-28T09:48:16Z</time>
      </trkpt>
      <trkpt lat="46.11024" lon="4.36274">
        <ele>786.2</ele>
        <time>2025-09-28T09:48:17Z</time>
      </trkpt>
      <trkpt lat="46.11021" lon="4.36277">
        <ele>786.4</ele>
        <time>2025-09-28T09:48:18Z</time>
      </trkpt>
      <trkpt lat="46.11019" lon="4.3628">
        <ele>786.8</ele>
        <time>2025-09-28T09:48:19Z</time>
      </trkpt>
      <trkpt lat="46.11017" lon="4.36283">
        <ele>786.8</ele>
        <time>2025-09-28T09:48:20Z</time>
      </trkpt>
      <trkpt lat="46.11016" lon="4.36285">
        <ele>787</ele>
        <time>2025-09-28T09:48:21Z</time>
      </trkpt>
      <trkpt lat="46.11014" lon="4.36288">
        <ele>787</ele>
        <time>2025-09-28T09:48:22Z</time>
      </trkpt>
      <trkpt lat="46.11013" lon="4.3629">
        <ele>787</ele>
        <time>2025-09-28T09:48:23Z</time>
      </trkpt>
      <trkpt lat="46.11012" lon="4.36293">
        <ele>787.2</ele>
        <time>2025-09-28T09:48:24Z</time>
      </trkpt>
      <trkpt lat="46.1101" lon="4.36296">
        <ele>787.2</ele>
        <time>2025-09-28T09:48:25Z</time>
      </trkpt>
      <trkpt lat="46.11009" lon="4.36299">
        <ele>787.2</ele>
        <time>2025-09-28T09:48:26Z</time>
      </trkpt>
      <trkpt lat="46.11007" lon="4.36301">
        <ele>787.2</ele>
        <time>2025-09-28T09:48:27Z</time>
      </trkpt>
      <trkpt lat="46.11006" lon="4.36304">
        <ele>787.6</ele>
        <time>2025-09-28T09:48:28Z</time>
      </trkpt>
      <trkpt lat="46.11005" lon="4.36306">
        <ele>787.6</ele>
        <time>2025-09-28T09:48:29Z</time>
      </trkpt>
      <trkpt lat="46.11004" lon="4.3631">
        <ele>787.6</ele>
        <time>2025-09-28T09:48:30Z</time>
      </trkpt>
      <trkpt lat="46.11003" lon="4.36313">
        <ele>787.8</ele>
        <time>2025-09-28T09:48:31Z</time>
      </trkpt>
      <trkpt lat="46.11001" lon="4.36315">
        <ele>787.8</ele>
        <time>2025-09-28T09:48:32Z</time>
      </trkpt>
      <trkpt lat="46.10999" lon="4.36318">
        <ele>788.2</ele>
        <time>2025-09-28T09:48:33Z</time>
      </trkpt>
      <trkpt lat="46.10998" lon="4.36321">
        <ele>788.2</ele>
        <time>2025-09-28T09:48:34Z</time>
      </trkpt>
      <trkpt lat="46.10997" lon="4.36323">
        <ele>788.4</ele>
        <time>2025-09-28T09:48:35Z</time>
      </trkpt>
      <trkpt lat="46.10996" lon="4.36327">
        <ele>788.4</ele>
        <time>2025-09-28T09:48:36Z</time>
      </trkpt>
      <trkpt lat="46.10994" lon="4.36329">
        <ele>788.4</ele>
        <time>2025-09-28T09:48:37Z</time>
      </trkpt>
      <trkpt lat="46.10992" lon="4.36331">
        <ele>788.4</ele>
        <time>2025-09-28T09:48:38Z</time>
      </trkpt>
      <trkpt lat="46.10989" lon="4.36333">
        <ele>788.8</ele>
        <time>2025-09-28T09:48:39Z</time>
      </trkpt>
      <trkpt lat="46.10987" lon="4.36335">
        <ele>788.8</ele>
        <time>2025-09-28T09:48:40Z</time>
      </trkpt>
      <trkpt lat="46.10985" lon="4.36338">
        <ele>789.2</ele>
        <time>2025-09-28T09:48:41Z</time>
      </trkpt>
      <trkpt lat="46.10983" lon="4.36341">
        <ele>789.2</ele>
        <time>2025-09-28T09:48:42Z</time>
      </trkpt>
      <trkpt lat="46.10981" lon="4.36344">
        <ele>789.6</ele>
        <time>2025-09-28T09:48:43Z</time>
      </trkpt>
      <trkpt lat="46.1098" lon="4.36346">
        <ele>789.6</ele>
        <time>2025-09-28T09:48:44Z</time>
      </trkpt>
      <trkpt lat="46.10978" lon="4.36349">
        <ele>789.6</ele>
        <time>2025-09-28T09:48:45Z</time>
      </trkpt>
      <trkpt lat="46.10977" lon="4.36352">
        <ele>789.6</ele>
        <time>2025-09-28T09:48:46Z</time>
      </trkpt>
      <trkpt lat="46.10974" lon="4.36355">
        <ele>789.6</ele>
        <time>2025-09-28T09:48:47Z</time>
      </trkpt>
      <trkpt lat="46.10972" lon="4.36358">
        <ele>789.6</ele>
        <time>2025-09-28T09:48:48Z</time>
      </trkpt>
      <trkpt lat="46.10969" lon="4.36361">
        <ele>789.2</ele>
        <time>2025-09-28T09:48:49Z</time>
      </trkpt>
      <trkpt lat="46.10967" lon="4.36365">
        <ele>789.2</ele>
        <time>2025-09-28T09:48:50Z</time>
      </trkpt>
      <trkpt lat="46.10964" lon="4.36368">
        <ele>789.2</ele>
        <time>2025-09-28T09:48:51Z</time>
      </trkpt>
      <trkpt lat="46.10961" lon="4.36371">
        <ele>789.2</ele>
        <time>2025-09-28T09:48:52Z</time>
      </trkpt>
      <trkpt lat="46.10958" lon="4.36374">
        <ele>789.2</ele>
        <time>2025-09-28T09:48:53Z</time>
      </trkpt>
      <trkpt lat="46.10955" lon="4.36376">
        <ele>789.6</ele>
        <time>2025-09-28T09:48:54Z</time>
      </trkpt>
      <trkpt lat="46.10952" lon="4.36378">
        <ele>789.6</ele>
        <time>2025-09-28T09:48:55Z</time>
      </trkpt>
      <trkpt lat="46.10949" lon="4.3638">
        <ele>789.6</ele>
        <time>2025-09-28T09:48:56Z</time>
      </trkpt>
      <trkpt lat="46.10946" lon="4.36382">
        <ele>789.6</ele>
        <time>2025-09-28T09:48:57Z</time>
      </trkpt>
      <trkpt lat="46.10944" lon="4.36385">
        <ele>789.6</ele>
        <time>2025-09-28T09:48:58Z</time>
      </trkpt>
      <trkpt lat="46.10941" lon="4.36388">
        <ele>790</ele>
        <time>2025-09-28T09:48:59Z</time>
      </trkpt>
      <trkpt lat="46.10939" lon="4.36391">
        <ele>790</ele>
        <time>2025-09-28T09:49:00Z</time>
      </trkpt>
      <trkpt lat="46.10936" lon="4.36393">
        <ele>790</ele>
        <time>2025-09-28T09:49:01Z</time>
      </trkpt>
      <trkpt lat="46.10934" lon="4.36395">
        <ele>790</ele>
        <time>2025-09-28T09:49:02Z</time>
      </trkpt>
      <trkpt lat="46.10931" lon="4.36398">
        <ele>790</ele>
        <time>2025-09-28T09:49:03Z</time>
      </trkpt>
      <trkpt lat="46.10928" lon="4.36399">
        <ele>790</ele>
        <time>2025-09-28T09:49:04Z</time>
      </trkpt>
      <trkpt lat="46.10925" lon="4.36401">
        <ele>790</ele>
        <time>2025-09-28T09:49:05Z</time>
      </trkpt>
      <trkpt lat="46.10923" lon="4.36403">
        <ele>790</ele>
        <time>2025-09-28T09:49:06Z</time>
      </trkpt>
      <trkpt lat="46.1092" lon="4.36405">
        <ele>790</ele>
        <time>2025-09-28T09:49:07Z</time>
      </trkpt>
      <trkpt lat="46.10917" lon="4.36407">
        <ele>790.2</ele>
        <time>2025-09-28T09:49:08Z</time>
      </trkpt>
      <trkpt lat="46.10913" lon="4.36409">
        <ele>790.2</ele>
        <time>2025-09-28T09:49:09Z</time>
      </trkpt>
      <trkpt lat="46.1091" lon="4.3641">
        <ele>790.4</ele>
        <time>2025-09-28T09:49:10Z</time>
      </trkpt>
      <trkpt lat="46.10907" lon="4.36411">
        <ele>790.4</ele>
        <time>2025-09-28T09:49:11Z</time>
      </trkpt>
      <trkpt lat="46.10905" lon="4.36413">
        <ele>790.4</ele>
        <time>2025-09-28T09:49:12Z</time>
      </trkpt>
      <trkpt lat="46.10902" lon="4.36414">
        <ele>790.6</ele>
        <time>2025-09-28T09:49:13Z</time>
      </trkpt>
      <trkpt lat="46.10899" lon="4.36415">
        <ele>790.6</ele>
        <time>2025-09-28T09:49:14Z</time>
      </trkpt>
      <trkpt lat="46.10896" lon="4.36417">
        <ele>790.6</ele>
        <time>2025-09-28T09:49:15Z</time>
      </trkpt>
      <trkpt lat="46.10893" lon="4.36418">
        <ele>790.6</ele>
        <time>2025-09-28T09:49:16Z</time>
      </trkpt>
      <trkpt lat="46.1089" lon="4.3642">
        <ele>790.6</ele>
        <time>2025-09-28T09:49:17Z</time>
      </trkpt>
      <trkpt lat="46.10885" lon="4.36423">
        <ele>790.6</ele>
        <time>2025-09-28T09:49:18Z</time>
      </trkpt>
      <trkpt lat="46.10882" lon="4.36425">
        <ele>790.6</ele>
        <time>2025-09-28T09:49:19Z</time>
      </trkpt>
      <trkpt lat="46.10879" lon="4.36427">
        <ele>790</ele>
        <time>2025-09-28T09:49:20Z</time>
      </trkpt>
      <trkpt lat="46.10875" lon="4.3643">
        <ele>789.8</ele>
        <time>2025-09-28T09:49:21Z</time>
      </trkpt>
      <trkpt lat="46.10874" lon="4.36431">
        <ele>789.6</ele>
        <time>2025-09-28T09:49:22Z</time>
      </trkpt>
      <trkpt lat="46.1087" lon="4.36434">
        <ele>789.6</ele>
        <time>2025-09-28T09:49:23Z</time>
      </trkpt>
      <trkpt lat="46.10867" lon="4.36437">
        <ele>789.6</ele>
        <time>2025-09-28T09:49:24Z</time>
      </trkpt>
      <trkpt lat="46.10864" lon="4.3644">
        <ele>789.6</ele>
        <time>2025-09-28T09:49:25Z</time>
      </trkpt>
      <trkpt lat="46.10861" lon="4.36444">
        <ele>789.6</ele>
        <time>2025-09-28T09:49:26Z</time>
      </trkpt>
      <trkpt lat="46.10855" lon="4.36448">
        <ele>789.6</ele>
        <time>2025-09-28T09:49:27Z</time>
      </trkpt>
      <trkpt lat="46.10851" lon="4.36448">
        <ele>789.6</ele>
        <time>2025-09-28T09:49:28Z</time>
      </trkpt>
      <trkpt lat="46.10847" lon="4.36452">
        <ele>789.6</ele>
        <time>2025-09-28T09:49:29Z</time>
      </trkpt>
      <trkpt lat="46.10844" lon="4.36455">
        <ele>790</ele>
        <time>2025-09-28T09:49:30Z</time>
      </trkpt>
      <trkpt lat="46.1084" lon="4.36459">
        <ele>790</ele>
        <time>2025-09-28T09:49:31Z</time>
      </trkpt>
      <trkpt lat="46.10837" lon="4.36461">
        <ele>790</ele>
        <time>2025-09-28T09:49:32Z</time>
      </trkpt>
      <trkpt lat="46.10833" lon="4.36464">
        <ele>790.2</ele>
        <time>2025-09-28T09:49:33Z</time>
      </trkpt>
      <trkpt lat="46.10828" lon="4.3647">
        <ele>790.6</ele>
        <time>2025-09-28T09:49:34Z</time>
      </trkpt>
      <trkpt lat="46.10824" lon="4.36474">
        <ele>791</ele>
        <time>2025-09-28T09:49:35Z</time>
      </trkpt>
      <trkpt lat="46.10821" lon="4.36477">
        <ele>791.2</ele>
        <time>2025-09-28T09:49:36Z</time>
      </trkpt>
      <trkpt lat="46.10818" lon="4.3648">
        <ele>791.2</ele>
        <time>2025-09-28T09:49:37Z</time>
      </trkpt>
      <trkpt lat="46.10816" lon="4.36481">
        <ele>791.2</ele>
        <time>2025-09-28T09:49:38Z</time>
      </trkpt>
      <trkpt lat="46.10812" lon="4.36484">
        <ele>791.2</ele>
        <time>2025-09-28T09:49:39Z</time>
      </trkpt>
      <trkpt lat="46.10809" lon="4.36485">
        <ele>791.4</ele>
        <time>2025-09-28T09:49:40Z</time>
      </trkpt>
      <trkpt lat="46.10805" lon="4.36487">
        <ele>791.4</ele>
        <time>2025-09-28T09:49:41Z</time>
      </trkpt>
      <trkpt lat="46.10802" lon="4.36491">
        <ele>791.4</ele>
        <time>2025-09-28T09:49:42Z</time>
      </trkpt>
      <trkpt lat="46.10799" lon="4.36492">
        <ele>791.4</ele>
        <time>2025-09-28T09:49:43Z</time>
      </trkpt>
      <trkpt lat="46.10796" lon="4.36494">
        <ele>791.4</ele>
        <time>2025-09-28T09:49:44Z</time>
      </trkpt>
      <trkpt lat="46.10794" lon="4.36495">
        <ele>791.2</ele>
        <time>2025-09-28T09:49:45Z</time>
      </trkpt>
      <trkpt lat="46.10791" lon="4.36499">
        <ele>790.8</ele>
        <time>2025-09-28T09:49:46Z</time>
      </trkpt>
      <trkpt lat="46.10787" lon="4.36501">
        <ele>791.2</ele>
        <time>2025-09-28T09:49:47Z</time>
      </trkpt>
      <trkpt lat="46.10784" lon="4.36501">
        <ele>791.2</ele>
        <time>2025-09-28T09:49:48Z</time>
      </trkpt>
      <trkpt lat="46.1078" lon="4.36504">
        <ele>791.6</ele>
        <time>2025-09-28T09:49:49Z</time>
      </trkpt>
      <trkpt lat="46.10777" lon="4.36506">
        <ele>791.6</ele>
        <time>2025-09-28T09:49:50Z</time>
      </trkpt>
      <trkpt lat="46.10773" lon="4.36508">
        <ele>791.6</ele>
        <time>2025-09-28T09:49:51Z</time>
      </trkpt>
      <trkpt lat="46.10769" lon="4.36508">
        <ele>791.6</ele>
        <time>2025-09-28T09:49:52Z</time>
      </trkpt>
      <trkpt lat="46.10766" lon="4.36508">
        <ele>791.6</ele>
        <time>2025-09-28T09:49:53Z</time>
      </trkpt>
      <trkpt lat="46.10763" lon="4.36509">
        <ele>791.6</ele>
        <time>2025-09-28T09:49:54Z</time>
      </trkpt>
      <trkpt lat="46.10759" lon="4.36512">
        <ele>791.6</ele>
        <time>2025-09-28T09:49:55Z</time>
      </trkpt>
      <trkpt lat="46.10757" lon="4.36514">
        <ele>792</ele>
        <time>2025-09-28T09:49:56Z</time>
      </trkpt>
      <trkpt lat="46.10754" lon="4.36515">
        <ele>792.2</ele>
        <time>2025-09-28T09:49:57Z</time>
      </trkpt>
      <trkpt lat="46.10751" lon="4.36516">
        <ele>792.6</ele>
        <time>2025-09-28T09:49:58Z</time>
      </trkpt>
      <trkpt lat="46.10748" lon="4.36516">
        <ele>792.6</ele>
        <time>2025-09-28T09:49:59Z</time>
      </trkpt>
      <trkpt lat="46.10745" lon="4.36517">
        <ele>793</ele>
        <time>2025-09-28T09:50:00Z</time>
      </trkpt>
      <trkpt lat="46.10743" lon="4.36518">
        <ele>793.4</ele>
        <time>2025-09-28T09:50:01Z</time>
      </trkpt>
      <trkpt lat="46.1074" lon="4.36519">
        <ele>793.4</ele>
        <time>2025-09-28T09:50:02Z</time>
      </trkpt>
      <trkpt lat="46.10738" lon="4.3652">
        <ele>793.6</ele>
        <time>2025-09-28T09:50:03Z</time>
      </trkpt>
      <trkpt lat="46.10735" lon="4.36519">
        <ele>793.8</ele>
        <time>2025-09-28T09:50:04Z</time>
      </trkpt>
      <trkpt lat="46.10734" lon="4.36519">
        <ele>794</ele>
        <time>2025-09-28T09:50:05Z</time>
      </trkpt>
      <trkpt lat="46.10732" lon="4.36518">
        <ele>794.2</ele>
        <time>2025-09-28T09:50:06Z</time>
      </trkpt>
      <trkpt lat="46.1073" lon="4.36517">
        <ele>795</ele>
        <time>2025-09-28T09:50:07Z</time>
      </trkpt>
      <trkpt lat="46.1073" lon="4.36517">
        <ele>795</ele>
        <time>2025-09-28T09:50:08Z</time>
      </trkpt>
      <trkpt lat="46.10722" lon="4.36512">
        <ele>795.6</ele>
        <time>2025-09-28T09:50:11Z</time>
      </trkpt>
      <trkpt lat="46.1072" lon="4.36511">
        <ele>795.6</ele>
        <time>2025-09-28T09:50:12Z</time>
      </trkpt>
      <trkpt lat="46.10719" lon="4.3651">
        <ele>795.6</ele>
        <time>2025-09-28T09:50:13Z</time>
      </trkpt>
      <trkpt lat="46.10719" lon="4.36507">
        <ele>796</ele>
        <time>2025-09-28T09:50:14Z</time>
      </trkpt>
      <trkpt lat="46.10718" lon="4.36506">
        <ele>796</ele>
        <time>2025-09-28T09:50:15Z</time>
      </trkpt>
      <trkpt lat="46.10717" lon="4.36504">
        <ele>796.4</ele>
        <time>2025-09-28T09:50:16Z</time>
      </trkpt>
      <trkpt lat="46.10716" lon="4.36503">
        <ele>796.4</ele>
        <time>2025-09-28T09:50:17Z</time>
      </trkpt>
      <trkpt lat="46.10715" lon="4.36503">
        <ele>796.6</ele>
        <time>2025-09-28T09:50:18Z</time>
      </trkpt>
      <trkpt lat="46.10713" lon="4.36503">
        <ele>797</ele>
        <time>2025-09-28T09:50:19Z</time>
      </trkpt>
      <trkpt lat="46.10711" lon="4.36504">
        <ele>797.2</ele>
        <time>2025-09-28T09:50:20Z</time>
      </trkpt>
      <trkpt lat="46.10709" lon="4.36504">
        <ele>797.4</ele>
        <time>2025-09-28T09:50:21Z</time>
      </trkpt>
      <trkpt lat="46.10707" lon="4.36504">
        <ele>797.4</ele>
        <time>2025-09-28T09:50:22Z</time>
      </trkpt>
      <trkpt lat="46.10705" lon="4.36504">
        <ele>797.8</ele>
        <time>2025-09-28T09:50:23Z</time>
      </trkpt>
      <trkpt lat="46.10703" lon="4.36503">
        <ele>798</ele>
        <time>2025-09-28T09:50:24Z</time>
      </trkpt>
      <trkpt lat="46.10702" lon="4.36502">
        <ele>798</ele>
        <time>2025-09-28T09:50:25Z</time>
      </trkpt>
      <trkpt lat="46.107" lon="4.365">
        <ele>798.4</ele>
        <time>2025-09-28T09:50:26Z</time>
      </trkpt>
      <trkpt lat="46.10699" lon="4.365">
        <ele>798.4</ele>
        <time>2025-09-28T09:50:27Z</time>
      </trkpt>
      <trkpt lat="46.10697" lon="4.36499">
        <ele>798.6</ele>
        <time>2025-09-28T09:50:28Z</time>
      </trkpt>
      <trkpt lat="46.10696" lon="4.36499">
        <ele>798.8</ele>
        <time>2025-09-28T09:50:29Z</time>
      </trkpt>
      <trkpt lat="46.10694" lon="4.36499">
        <ele>798.8</ele>
        <time>2025-09-28T09:50:30Z</time>
      </trkpt>
      <trkpt lat="46.10691" lon="4.36499">
        <ele>799.4</ele>
        <time>2025-09-28T09:50:31Z</time>
      </trkpt>
      <trkpt lat="46.10689" lon="4.36499">
        <ele>799.6</ele>
        <time>2025-09-28T09:50:32Z</time>
      </trkpt>
      <trkpt lat="46.10687" lon="4.36499">
        <ele>799.8</ele>
        <time>2025-09-28T09:50:33Z</time>
      </trkpt>
      <trkpt lat="46.10686" lon="4.36499">
        <ele>799.8</ele>
        <time>2025-09-28T09:50:34Z</time>
      </trkpt>
      <trkpt lat="46.10685" lon="4.36499">
        <ele>800</ele>
        <time>2025-09-28T09:50:35Z</time>
      </trkpt>
      <trkpt lat="46.10684" lon="4.36499">
        <ele>800.4</ele>
        <time>2025-09-28T09:50:36Z</time>
      </trkpt>
      <trkpt lat="46.10683" lon="4.36499">
        <ele>800.4</ele>
        <time>2025-09-28T09:50:37Z</time>
      </trkpt>
      <trkpt lat="46.10682" lon="4.36499">
        <ele>800.4</ele>
        <time>2025-09-28T09:50:38Z</time>
      </trkpt>
      <trkpt lat="46.10679" lon="4.365">
        <ele>800.6</ele>
        <time>2025-09-28T09:50:39Z</time>
      </trkpt>
      <trkpt lat="46.10676" lon="4.365">
        <ele>800.6</ele>
        <time>2025-09-28T09:50:40Z</time>
      </trkpt>
      <trkpt lat="46.10674" lon="4.365">
        <ele>800.8</ele>
        <time>2025-09-28T09:50:41Z</time>
      </trkpt>
      <trkpt lat="46.10673" lon="4.36499">
        <ele>800.8</ele>
        <time>2025-09-28T09:50:42Z</time>
      </trkpt>
      <trkpt lat="46.10671" lon="4.36498">
        <ele>800.8</ele>
        <time>2025-09-28T09:50:43Z</time>
      </trkpt>
      <trkpt lat="46.1067" lon="4.36498">
        <ele>800.8</ele>
        <time>2025-09-28T09:50:44Z</time>
      </trkpt>
      <trkpt lat="46.10668" lon="4.36497">
        <ele>801.2</ele>
        <time>2025-09-28T09:50:45Z</time>
      </trkpt>
      <trkpt lat="46.10667" lon="4.36496">
        <ele>801.4</ele>
        <time>2025-09-28T09:50:46Z</time>
      </trkpt>
      <trkpt lat="46.10666" lon="4.36496">
        <ele>801.8</ele>
        <time>2025-09-28T09:50:47Z</time>
      </trkpt>
      <trkpt lat="46.10664" lon="4.36496">
        <ele>801.8</ele>
        <time>2025-09-28T09:50:48Z</time>
      </trkpt>
      <trkpt lat="46.10661" lon="4.36495">
        <ele>802.2</ele>
        <time>2025-09-28T09:50:49Z</time>
      </trkpt>
      <trkpt lat="46.1066" lon="4.36495">
        <ele>802.4</ele>
        <time>2025-09-28T09:50:50Z</time>
      </trkpt>
      <trkpt lat="46.1066" lon="4.36495">
        <ele>802.8</ele>
        <time>2025-09-28T09:50:51Z</time>
      </trkpt>
      <trkpt lat="46.1066" lon="4.36495">
        <ele>803</ele>
        <time>2025-09-28T09:50:52Z</time>
      </trkpt>
      <trkpt lat="46.10656" lon="4.36491">
        <ele>803.2</ele>
        <time>2025-09-28T09:50:53Z</time>
      </trkpt>
      <trkpt lat="46.10655" lon="4.3649">
        <ele>803.4</ele>
        <time>2025-09-28T09:50:54Z</time>
      </trkpt>
      <trkpt lat="46.10653" lon="4.36489">
        <ele>803.6</ele>
        <time>2025-09-28T09:50:55Z</time>
      </trkpt>
      <trkpt lat="46.10651" lon="4.36488">
        <ele>804</ele>
        <time>2025-09-28T09:50:56Z</time>
      </trkpt>
      <trkpt lat="46.1065" lon="4.36487">
        <ele>804</ele>
        <time>2025-09-28T09:50:57Z</time>
      </trkpt>
      <trkpt lat="46.10649" lon="4.36487">
        <ele>804.4</ele>
        <time>2025-09-28T09:50:58Z</time>
      </trkpt>
      <trkpt lat="46.10648" lon="4.36486">
        <ele>804.6</ele>
        <time>2025-09-28T09:50:59Z</time>
      </trkpt>
      <trkpt lat="46.10647" lon="4.36486">
        <ele>804.6</ele>
        <time>2025-09-28T09:51:00Z</time>
      </trkpt>
      <trkpt lat="46.10646" lon="4.36485">
        <ele>805.2</ele>
        <time>2025-09-28T09:51:01Z</time>
      </trkpt>
      <trkpt lat="46.10645" lon="4.36484">
        <ele>805.6</ele>
        <time>2025-09-28T09:51:02Z</time>
      </trkpt>
      <trkpt lat="46.10644" lon="4.36483">
        <ele>805.6</ele>
        <time>2025-09-28T09:51:03Z</time>
      </trkpt>
      <trkpt lat="46.10643" lon="4.36482">
        <ele>806</ele>
        <time>2025-09-28T09:51:04Z</time>
      </trkpt>
      <trkpt lat="46.10641" lon="4.36481">
        <ele>806</ele>
        <time>2025-09-28T09:51:05Z</time>
      </trkpt>
      <trkpt lat="46.10641" lon="4.3648">
        <ele>806.4</ele>
        <time>2025-09-28T09:51:06Z</time>
      </trkpt>
      <trkpt lat="46.10639" lon="4.36478">
        <ele>806.4</ele>
        <time>2025-09-28T09:51:07Z</time>
      </trkpt>
      <trkpt lat="46.10638" lon="4.36477">
        <ele>806.8</ele>
        <time>2025-09-28T09:51:08Z</time>
      </trkpt>
      <trkpt lat="46.10637" lon="4.36476">
        <ele>807</ele>
        <time>2025-09-28T09:51:09Z</time>
      </trkpt>
      <trkpt lat="46.10636" lon="4.36475">
        <ele>807</ele>
        <time>2025-09-28T09:51:10Z</time>
      </trkpt>
      <trkpt lat="46.10635" lon="4.36474">
        <ele>807.2</ele>
        <time>2025-09-28T09:51:11Z</time>
      </trkpt>
      <trkpt lat="46.10634" lon="4.36473">
        <ele>807.2</ele>
        <time>2025-09-28T09:51:12Z</time>
      </trkpt>
      <trkpt lat="46.10633" lon="4.36472">
        <ele>807.2</ele>
        <time>2025-09-28T09:51:13Z</time>
      </trkpt>
      <trkpt lat="46.10631" lon="4.36471">
        <ele>808</ele>
        <time>2025-09-28T09:51:14Z</time>
      </trkpt>
      <trkpt lat="46.1063" lon="4.36469">
        <ele>808</ele>
        <time>2025-09-28T09:51:15Z</time>
      </trkpt>
      <trkpt lat="46.10628" lon="4.36467">
        <ele>808.2</ele>
        <time>2025-09-28T09:51:16Z</time>
      </trkpt>
      <trkpt lat="46.10627" lon="4.36465">
        <ele>808.2</ele>
        <time>2025-09-28T09:51:17Z</time>
      </trkpt>
      <trkpt lat="46.10626" lon="4.36464">
        <ele>808.4</ele>
        <time>2025-09-28T09:51:18Z</time>
      </trkpt>
      <trkpt lat="46.10625" lon="4.36462">
        <ele>808.4</ele>
        <time>2025-09-28T09:51:19Z</time>
      </trkpt>
      <trkpt lat="46.10624" lon="4.3646">
        <ele>808.4</ele>
        <time>2025-09-28T09:51:20Z</time>
      </trkpt>
      <trkpt lat="46.10623" lon="4.36459">
        <ele>808.6</ele>
        <time>2025-09-28T09:51:21Z</time>
      </trkpt>
      <trkpt lat="46.10622" lon="4.36457">
        <ele>808.6</ele>
        <time>2025-09-28T09:51:22Z</time>
      </trkpt>
      <trkpt lat="46.1062" lon="4.36455">
        <ele>808.6</ele>
        <time>2025-09-28T09:51:23Z</time>
      </trkpt>
      <trkpt lat="46.10618" lon="4.36453">
        <ele>808.6</ele>
        <time>2025-09-28T09:51:24Z</time>
      </trkpt>
      <trkpt lat="46.10617" lon="4.36452">
        <ele>808.6</ele>
        <time>2025-09-28T09:51:25Z</time>
      </trkpt>
      <trkpt lat="46.10615" lon="4.36451">
        <ele>809</ele>
        <time>2025-09-28T09:51:26Z</time>
      </trkpt>
      <trkpt lat="46.10613" lon="4.36449">
        <ele>809</ele>
        <time>2025-09-28T09:51:27Z</time>
      </trkpt>
      <trkpt lat="46.10611" lon="4.36447">
        <ele>809.2</ele>
        <time>2025-09-28T09:51:28Z</time>
      </trkpt>
      <trkpt lat="46.1061" lon="4.36445">
        <ele>809.2</ele>
        <time>2025-09-28T09:51:29Z</time>
      </trkpt>
      <trkpt lat="46.10608" lon="4.36443">
        <ele>809.2</ele>
        <time>2025-09-28T09:51:30Z</time>
      </trkpt>
      <trkpt lat="46.10607" lon="4.36441">
        <ele>809.2</ele>
        <time>2025-09-28T09:51:31Z</time>
      </trkpt>
      <trkpt lat="46.10605" lon="4.3644">
        <ele>809.2</ele>
        <time>2025-09-28T09:51:32Z</time>
      </trkpt>
      <trkpt lat="46.10603" lon="4.36438">
        <ele>809.2</ele>
        <time>2025-09-28T09:51:33Z</time>
      </trkpt>
      <trkpt lat="46.10601" lon="4.36436">
        <ele>809.2</ele>
        <time>2025-09-28T09:51:34Z</time>
      </trkpt>
      <trkpt lat="46.10599" lon="4.36434">
        <ele>809</ele>
        <time>2025-09-28T09:51:35Z</time>
      </trkpt>
      <trkpt lat="46.10597" lon="4.36431">
        <ele>809</ele>
        <time>2025-09-28T09:51:36Z</time>
      </trkpt>
      <trkpt lat="46.10596" lon="4.3643">
        <ele>809</ele>
        <time>2025-09-28T09:51:37Z</time>
      </trkpt>
      <trkpt lat="46.10595" lon="4.36429">
        <ele>809</ele>
        <time>2025-09-28T09:51:38Z</time>
      </trkpt>
      <trkpt lat="46.10595" lon="4.36429">
        <ele>809</ele>
        <time>2025-09-28T09:51:39Z</time>
      </trkpt>
      <trkpt lat="46.10594" lon="4.36429">
        <ele>809</ele>
        <time>2025-09-28T09:51:40Z</time>
      </trkpt>
      <trkpt lat="46.10592" lon="4.36428">
        <ele>808.8</ele>
        <time>2025-09-28T09:52:42Z</time>
      </trkpt>
      <trkpt lat="46.10591" lon="4.36426">
        <ele>808.8</ele>
        <time>2025-09-28T09:52:43Z</time>
      </trkpt>
      <trkpt lat="46.10589" lon="4.36423">
        <ele>808.8</ele>
        <time>2025-09-28T09:52:44Z</time>
      </trkpt>
      <trkpt lat="46.10587" lon="4.36419">
        <ele>808.6</ele>
        <time>2025-09-28T09:52:45Z</time>
      </trkpt>
      <trkpt lat="46.10586" lon="4.36414">
        <ele>808.4</ele>
        <time>2025-09-28T09:52:46Z</time>
      </trkpt>
      <trkpt lat="46.10585" lon="4.3641">
        <ele>808.4</ele>
        <time>2025-09-28T09:52:47Z</time>
      </trkpt>
      <trkpt lat="46.10583" lon="4.36405">
        <ele>808</ele>
        <time>2025-09-28T09:52:48Z</time>
      </trkpt>
      <trkpt lat="46.10579" lon="4.364">
        <ele>808</ele>
        <time>2025-09-28T09:52:49Z</time>
      </trkpt>
      <trkpt lat="46.10576" lon="4.36395">
        <ele>807.6</ele>
        <time>2025-09-28T09:52:50Z</time>
      </trkpt>
      <trkpt lat="46.10574" lon="4.3639">
        <ele>807.4</ele>
        <time>2025-09-28T09:52:51Z</time>
      </trkpt>
      <trkpt lat="46.10571" lon="4.36384">
        <ele>807</ele>
        <time>2025-09-28T09:52:52Z</time>
      </trkpt>
      <trkpt lat="46.10569" lon="4.36379">
        <ele>806.6</ele>
        <time>2025-09-28T09:52:53Z</time>
      </trkpt>
      <trkpt lat="46.10567" lon="4.36373">
        <ele>806.2</ele>
        <time>2025-09-28T09:52:54Z</time>
      </trkpt>
      <trkpt lat="46.10561" lon="4.36362">
        <ele>805.6</ele>
        <time>2025-09-28T09:52:55Z</time>
      </trkpt>
      <trkpt lat="46.1056" lon="4.36356">
        <ele>804.6</ele>
        <time>2025-09-28T09:52:56Z</time>
      </trkpt>
      <trkpt lat="46.10557" lon="4.36353">
        <ele>804.4</ele>
        <time>2025-09-28T09:52:57Z</time>
      </trkpt>
      <trkpt lat="46.10556" lon="4.36348">
        <ele>804.4</ele>
        <time>2025-09-28T09:52:58Z</time>
      </trkpt>
      <trkpt lat="46.10555" lon="4.36343">
        <ele>803.6</ele>
        <time>2025-09-28T09:52:59Z</time>
      </trkpt>
      <trkpt lat="46.10553" lon="4.36338">
        <ele>802.6</ele>
        <time>2025-09-28T09:53:00Z</time>
      </trkpt>
      <trkpt lat="46.1055" lon="4.36333">
        <ele>802.2</ele>
        <time>2025-09-28T09:53:01Z</time>
      </trkpt>
      <trkpt lat="46.10547" lon="4.36328">
        <ele>802.4</ele>
        <time>2025-09-28T09:53:02Z</time>
      </trkpt>
      <trkpt lat="46.10544" lon="4.36322">
        <ele>803.2</ele>
        <time>2025-09-28T09:53:03Z</time>
      </trkpt>
      <trkpt lat="46.1054" lon="4.36319">
        <ele>802.4</ele>
        <time>2025-09-28T09:53:04Z</time>
      </trkpt>
      <trkpt lat="46.10536" lon="4.36315">
        <ele>801.8</ele>
        <time>2025-09-28T09:53:05Z</time>
      </trkpt>
      <trkpt lat="46.10532" lon="4.36312">
        <ele>801.8</ele>
        <time>2025-09-28T09:53:06Z</time>
      </trkpt>
      <trkpt lat="46.10528" lon="4.3631">
        <ele>801.4</ele>
        <time>2025-09-28T09:53:07Z</time>
      </trkpt>
      <trkpt lat="46.10524" lon="4.36307">
        <ele>799.6</ele>
        <time>2025-09-28T09:53:08Z</time>
      </trkpt>
      <trkpt lat="46.10522" lon="4.36307">
        <ele>799.2</ele>
        <time>2025-09-28T09:53:09Z</time>
      </trkpt>
      <trkpt lat="46.10518" lon="4.36304">
        <ele>798.8</ele>
        <time>2025-09-28T09:53:10Z</time>
      </trkpt>
      <trkpt lat="46.10515" lon="4.36304">
        <ele>799</ele>
        <time>2025-09-28T09:53:11Z</time>
      </trkpt>
      <trkpt lat="46.10511" lon="4.36303">
        <ele>798.4</ele>
        <time>2025-09-28T09:53:12Z</time>
      </trkpt>
      <trkpt lat="46.10507" lon="4.36301">
        <ele>798</ele>
        <time>2025-09-28T09:53:13Z</time>
      </trkpt>
      <trkpt lat="46.10503" lon="4.363">
        <ele>796.4</ele>
        <time>2025-09-28T09:53:14Z</time>
      </trkpt>
      <trkpt lat="46.10499" lon="4.36299">
        <ele>795</ele>
        <time>2025-09-28T09:53:15Z</time>
      </trkpt>
      <trkpt lat="46.10495" lon="4.36298">
        <ele>795</ele>
        <time>2025-09-28T09:53:16Z</time>
      </trkpt>
      <trkpt lat="46.10491" lon="4.36296">
        <ele>794.2</ele>
        <time>2025-09-28T09:53:17Z</time>
      </trkpt>
      <trkpt lat="46.10487" lon="4.36295">
        <ele>794.6</ele>
        <time>2025-09-28T09:53:18Z</time>
      </trkpt>
      <trkpt lat="46.10482" lon="4.36294">
        <ele>794.2</ele>
        <time>2025-09-28T09:53:19Z</time>
      </trkpt>
      <trkpt lat="46.10478" lon="4.36293">
        <ele>793.4</ele>
        <time>2025-09-28T09:53:20Z</time>
      </trkpt>
      <trkpt lat="46.10474" lon="4.36291">
        <ele>793.4</ele>
        <time>2025-09-28T09:53:21Z</time>
      </trkpt>
      <trkpt lat="46.1047" lon="4.36289">
        <ele>792.8</ele>
        <time>2025-09-28T09:53:22Z</time>
      </trkpt>
      <trkpt lat="46.10464" lon="4.36287">
        <ele>792.2</ele>
        <time>2025-09-28T09:53:23Z</time>
      </trkpt>
      <trkpt lat="46.10462" lon="4.36288">
        <ele>792</ele>
        <time>2025-09-28T09:53:24Z</time>
      </trkpt>
      <trkpt lat="46.10458" lon="4.36288">
        <ele>792.2</ele>
        <time>2025-09-28T09:53:25Z</time>
      </trkpt>
      <trkpt lat="46.10453" lon="4.36288">
        <ele>791.6</ele>
        <time>2025-09-28T09:53:26Z</time>
      </trkpt>
      <trkpt lat="46.10449" lon="4.36288">
        <ele>790.8</ele>
        <time>2025-09-28T09:53:27Z</time>
      </trkpt>
      <trkpt lat="46.10446" lon="4.36289">
        <ele>790.2</ele>
        <time>2025-09-28T09:53:28Z</time>
      </trkpt>
      <trkpt lat="46.10441" lon="4.36289">
        <ele>789.4</ele>
        <time>2025-09-28T09:53:29Z</time>
      </trkpt>
      <trkpt lat="46.10435" lon="4.36289">
        <ele>788.8</ele>
        <time>2025-09-28T09:53:30Z</time>
      </trkpt>
      <trkpt lat="46.10429" lon="4.36284">
        <ele>788.4</ele>
        <time>2025-09-28T09:53:31Z</time>
      </trkpt>
      <trkpt lat="46.10425" lon="4.36281">
        <ele>787.6</ele>
        <time>2025-09-28T09:53:32Z</time>
      </trkpt>
      <trkpt lat="46.1042" lon="4.36278">
        <ele>786.6</ele>
        <time>2025-09-28T09:53:33Z</time>
      </trkpt>
      <trkpt lat="46.10415" lon="4.36277">
        <ele>786.6</ele>
        <time>2025-09-28T09:53:34Z</time>
      </trkpt>
      <trkpt lat="46.1041" lon="4.36273">
        <ele>786</ele>
        <time>2025-09-28T09:53:35Z</time>
      </trkpt>
      <trkpt lat="46.10405" lon="4.36271">
        <ele>786</ele>
        <time>2025-09-28T09:53:36Z</time>
      </trkpt>
      <trkpt lat="46.104" lon="4.36268">
        <ele>785.4</ele>
        <time>2025-09-28T09:53:37Z</time>
      </trkpt>
      <trkpt lat="46.10395" lon="4.36264">
        <ele>784.8</ele>
        <time>2025-09-28T09:53:38Z</time>
      </trkpt>
      <trkpt lat="46.1039" lon="4.36261">
        <ele>785.2</ele>
        <time>2025-09-28T09:53:39Z</time>
      </trkpt>
      <trkpt lat="46.10385" lon="4.36257">
        <ele>784.6</ele>
        <time>2025-09-28T09:53:40Z</time>
      </trkpt>
      <trkpt lat="46.10382" lon="4.3625">
        <ele>784</ele>
        <time>2025-09-28T09:53:41Z</time>
      </trkpt>
      <trkpt lat="46.10376" lon="4.36248">
        <ele>782.8</ele>
        <time>2025-09-28T09:53:42Z</time>
      </trkpt>
      <trkpt lat="46.10372" lon="4.36242">
        <ele>782.8</ele>
        <time>2025-09-28T09:53:43Z</time>
      </trkpt>
      <trkpt lat="46.10368" lon="4.3624">
        <ele>782.6</ele>
        <time>2025-09-28T09:53:44Z</time>
      </trkpt>
      <trkpt lat="46.10361" lon="4.36236">
        <ele>782.6</ele>
        <time>2025-09-28T09:53:45Z</time>
      </trkpt>
      <trkpt lat="46.10355" lon="4.36234">
        <ele>781.8</ele>
        <time>2025-09-28T09:53:46Z</time>
      </trkpt>
      <trkpt lat="46.1035" lon="4.36234">
        <ele>781.2</ele>
        <time>2025-09-28T09:53:47Z</time>
      </trkpt>
      <trkpt lat="46.10345" lon="4.36233">
        <ele>780.8</ele>
        <time>2025-09-28T09:53:48Z</time>
      </trkpt>
      <trkpt lat="46.1034" lon="4.36231">
        <ele>780.2</ele>
        <time>2025-09-28T09:53:49Z</time>
      </trkpt>
      <trkpt lat="46.10335" lon="4.36229">
        <ele>780.2</ele>
        <time>2025-09-28T09:53:50Z</time>
      </trkpt>
      <trkpt lat="46.10331" lon="4.36226">
        <ele>781.6</ele>
        <time>2025-09-28T09:53:51Z</time>
      </trkpt>
      <trkpt lat="46.10326" lon="4.36225">
        <ele>781.6</ele>
        <time>2025-09-28T09:53:52Z</time>
      </trkpt>
      <trkpt lat="46.1032" lon="4.36222">
        <ele>781</ele>
        <time>2025-09-28T09:53:53Z</time>
      </trkpt>
      <trkpt lat="46.10315" lon="4.3622">
        <ele>780.2</ele>
        <time>2025-09-28T09:53:54Z</time>
      </trkpt>
      <trkpt lat="46.10312" lon="4.36217">
        <ele>779.2</ele>
        <time>2025-09-28T09:53:55Z</time>
      </trkpt>
      <trkpt lat="46.10308" lon="4.36216">
        <ele>779</ele>
        <time>2025-09-28T09:53:56Z</time>
      </trkpt>
      <trkpt lat="46.10304" lon="4.36215">
        <ele>778.6</ele>
        <time>2025-09-28T09:53:57Z</time>
      </trkpt>
      <trkpt lat="46.103" lon="4.36214">
        <ele>779</ele>
        <time>2025-09-28T09:53:58Z</time>
      </trkpt>
      <trkpt lat="46.10297" lon="4.36213">
        <ele>779</ele>
        <time>2025-09-28T09:53:59Z</time>
      </trkpt>
      <trkpt lat="46.10293" lon="4.3621">
        <ele>779</ele>
        <time>2025-09-28T09:54:00Z</time>
      </trkpt>
      <trkpt lat="46.1029" lon="4.36209">
        <ele>778</ele>
        <time>2025-09-28T09:54:01Z</time>
      </trkpt>
      <trkpt lat="46.10288" lon="4.36207">
        <ele>777.8</ele>
        <time>2025-09-28T09:54:02Z</time>
      </trkpt>
      <trkpt lat="46.10286" lon="4.36204">
        <ele>777.8</ele>
        <time>2025-09-28T09:54:03Z</time>
      </trkpt>
      <trkpt lat="46.10284" lon="4.36204">
        <ele>777.8</ele>
        <time>2025-09-28T09:54:04Z</time>
      </trkpt>
      <trkpt lat="46.1028" lon="4.36202">
        <ele>777.8</ele>
        <time>2025-09-28T09:54:05Z</time>
      </trkpt>
      <trkpt lat="46.10277" lon="4.362">
        <ele>777.8</ele>
        <time>2025-09-28T09:54:06Z</time>
      </trkpt>
      <trkpt lat="46.10275" lon="4.36198">
        <ele>777.8</ele>
        <time>2025-09-28T09:54:07Z</time>
      </trkpt>
      <trkpt lat="46.10273" lon="4.36196">
        <ele>777.8</ele>
        <time>2025-09-28T09:54:08Z</time>
      </trkpt>
      <trkpt lat="46.1027" lon="4.36195">
        <ele>777.8</ele>
        <time>2025-09-28T09:54:09Z</time>
      </trkpt>
      <trkpt lat="46.10266" lon="4.36193">
        <ele>777.4</ele>
        <time>2025-09-28T09:54:10Z</time>
      </trkpt>
      <trkpt lat="46.10262" lon="4.36192">
        <ele>777</ele>
        <time>2025-09-28T09:54:11Z</time>
      </trkpt>
      <trkpt lat="46.10259" lon="4.3619">
        <ele>777</ele>
        <time>2025-09-28T09:54:12Z</time>
      </trkpt>
      <trkpt lat="46.10254" lon="4.36189">
        <ele>777</ele>
        <time>2025-09-28T09:54:13Z</time>
      </trkpt>
      <trkpt lat="46.10251" lon="4.36188">
        <ele>777</ele>
        <time>2025-09-28T09:54:14Z</time>
      </trkpt>
      <trkpt lat="46.10249" lon="4.36188">
        <ele>777</ele>
        <time>2025-09-28T09:54:15Z</time>
      </trkpt>
      <trkpt lat="46.10244" lon="4.36187">
        <ele>777</ele>
        <time>2025-09-28T09:54:16Z</time>
      </trkpt>
      <trkpt lat="46.10239" lon="4.36185">
        <ele>777</ele>
        <time>2025-09-28T09:54:17Z</time>
      </trkpt>
      <trkpt lat="46.10236" lon="4.36184">
        <ele>777</ele>
        <time>2025-09-28T09:54:18Z</time>
      </trkpt>
      <trkpt lat="46.10233" lon="4.36183">
        <ele>777</ele>
        <time>2025-09-28T09:54:19Z</time>
      </trkpt>
      <trkpt lat="46.1023" lon="4.36182">
        <ele>777.2</ele>
        <time>2025-09-28T09:54:20Z</time>
      </trkpt>
      <trkpt lat="46.10227" lon="4.3618">
        <ele>777.2</ele>
        <time>2025-09-28T09:54:21Z</time>
      </trkpt>
      <trkpt lat="46.10223" lon="4.36178">
        <ele>777.2</ele>
        <time>2025-09-28T09:54:22Z</time>
      </trkpt>
      <trkpt lat="46.10219" lon="4.36177">
        <ele>777.2</ele>
        <time>2025-09-28T09:54:23Z</time>
      </trkpt>
      <trkpt lat="46.10217" lon="4.36177">
        <ele>777.2</ele>
        <time>2025-09-28T09:54:24Z</time>
      </trkpt>
      <trkpt lat="46.10214" lon="4.36176">
        <ele>777.2</ele>
        <time>2025-09-28T09:54:25Z</time>
      </trkpt>
      <trkpt lat="46.10212" lon="4.36176">
        <ele>777.2</ele>
        <time>2025-09-28T09:54:26Z</time>
      </trkpt>
      <trkpt lat="46.10208" lon="4.36176">
        <ele>777.4</ele>
        <time>2025-09-28T09:54:27Z</time>
      </trkpt>
      <trkpt lat="46.10204" lon="4.36176">
        <ele>777</ele>
        <time>2025-09-28T09:54:28Z</time>
      </trkpt>
      <trkpt lat="46.102" lon="4.36175">
        <ele>777</ele>
        <time>2025-09-28T09:54:29Z</time>
      </trkpt>
      <trkpt lat="46.10196" lon="4.36173">
        <ele>777.6</ele>
        <time>2025-09-28T09:54:30Z</time>
      </trkpt>
      <trkpt lat="46.10192" lon="4.36171">
        <ele>777.6</ele>
        <time>2025-09-28T09:54:31Z</time>
      </trkpt>
      <trkpt lat="46.10189" lon="4.36169">
        <ele>777.6</ele>
        <time>2025-09-28T09:54:32Z</time>
      </trkpt>
      <trkpt lat="46.10187" lon="4.36167">
        <ele>778</ele>
        <time>2025-09-28T09:54:33Z</time>
      </trkpt>
      <trkpt lat="46.10184" lon="4.36164">
        <ele>778</ele>
        <time>2025-09-28T09:54:34Z</time>
      </trkpt>
      <trkpt lat="46.10181" lon="4.36162">
        <ele>776.4</ele>
        <time>2025-09-28T09:54:35Z</time>
      </trkpt>
      <trkpt lat="46.10178" lon="4.36159">
        <ele>775</ele>
        <time>2025-09-28T09:54:36Z</time>
      </trkpt>
      <trkpt lat="46.10176" lon="4.36157">
        <ele>775</ele>
        <time>2025-09-28T09:54:37Z</time>
      </trkpt>
      <trkpt lat="46.10173" lon="4.36155">
        <ele>774.8</ele>
        <time>2025-09-28T09:54:38Z</time>
      </trkpt>
      <trkpt lat="46.10171" lon="4.36153">
        <ele>774.8</ele>
        <time>2025-09-28T09:54:39Z</time>
      </trkpt>
      <trkpt lat="46.10167" lon="4.3615">
        <ele>773.6</ele>
        <time>2025-09-28T09:54:40Z</time>
      </trkpt>
      <trkpt lat="46.10162" lon="4.36147">
        <ele>774</ele>
        <time>2025-09-28T09:54:41Z</time>
      </trkpt>
      <trkpt lat="46.10157" lon="4.36145">
        <ele>774.2</ele>
        <time>2025-09-28T09:54:42Z</time>
      </trkpt>
      <trkpt lat="46.10147" lon="4.3614">
        <ele>774.2</ele>
        <time>2025-09-28T09:54:43Z</time>
      </trkpt>
      <trkpt lat="46.10141" lon="4.36137">
        <ele>774.8</ele>
        <time>2025-09-28T09:54:44Z</time>
      </trkpt>
      <trkpt lat="46.10137" lon="4.36134">
        <ele>774.4</ele>
        <time>2025-09-28T09:54:45Z</time>
      </trkpt>
      <trkpt lat="46.10132" lon="4.36131">
        <ele>774.4</ele>
        <time>2025-09-28T09:54:46Z</time>
      </trkpt>
      <trkpt lat="46.10127" lon="4.36128">
        <ele>773.8</ele>
        <time>2025-09-28T09:54:47Z</time>
      </trkpt>
      <trkpt lat="46.10122" lon="4.36123">
        <ele>773.4</ele>
        <time>2025-09-28T09:54:48Z</time>
      </trkpt>
      <trkpt lat="46.10115" lon="4.36119">
        <ele>773.4</ele>
        <time>2025-09-28T09:54:49Z</time>
      </trkpt>
      <trkpt lat="46.10111" lon="4.36117">
        <ele>773</ele>
        <time>2025-09-28T09:54:50Z</time>
      </trkpt>
      <trkpt lat="46.10106" lon="4.36114">
        <ele>773</ele>
        <time>2025-09-28T09:54:51Z</time>
      </trkpt>
      <trkpt lat="46.10101" lon="4.36111">
        <ele>772.6</ele>
        <time>2025-09-28T09:54:52Z</time>
      </trkpt>
      <trkpt lat="46.10096" lon="4.36112">
        <ele>772.6</ele>
        <time>2025-09-28T09:54:53Z</time>
      </trkpt>
      <trkpt lat="46.10092" lon="4.3611">
        <ele>772</ele>
        <time>2025-09-28T09:54:54Z</time>
      </trkpt>
      <trkpt lat="46.10085" lon="4.36108">
        <ele>772</ele>
        <time>2025-09-28T09:54:55Z</time>
      </trkpt>
      <trkpt lat="46.10085" lon="4.36105">
        <ele>771.6</ele>
        <time>2025-09-28T09:54:56Z</time>
      </trkpt>
      <trkpt lat="46.10079" lon="4.36103">
        <ele>771.2</ele>
        <time>2025-09-28T09:54:57Z</time>
      </trkpt>
      <trkpt lat="46.10075" lon="4.36098">
        <ele>771.6</ele>
        <time>2025-09-28T09:54:58Z</time>
      </trkpt>
      <trkpt lat="46.10068" lon="4.36093">
        <ele>771.6</ele>
        <time>2025-09-28T09:54:59Z</time>
      </trkpt>
      <trkpt lat="46.10062" lon="4.36089">
        <ele>771.8</ele>
        <time>2025-09-28T09:55:00Z</time>
      </trkpt>
      <trkpt lat="46.10057" lon="4.36086">
        <ele>771.8</ele>
        <time>2025-09-28T09:55:01Z</time>
      </trkpt>
      <trkpt lat="46.10052" lon="4.36081">
        <ele>771.8</ele>
        <time>2025-09-28T09:55:02Z</time>
      </trkpt>
      <trkpt lat="46.10047" lon="4.3608">
        <ele>771.4</ele>
        <time>2025-09-28T09:55:03Z</time>
      </trkpt>
      <trkpt lat="46.10042" lon="4.36075">
        <ele>771.4</ele>
        <time>2025-09-28T09:55:04Z</time>
      </trkpt>
      <trkpt lat="46.10037" lon="4.36071">
        <ele>771</ele>
        <time>2025-09-28T09:55:05Z</time>
      </trkpt>
      <trkpt lat="46.10035" lon="4.36069">
        <ele>770.6</ele>
        <time>2025-09-28T09:55:06Z</time>
      </trkpt>
      <trkpt lat="46.10031" lon="4.36066">
        <ele>770.6</ele>
        <time>2025-09-28T09:55:07Z</time>
      </trkpt>
      <trkpt lat="46.10027" lon="4.36063">
        <ele>770</ele>
        <time>2025-09-28T09:55:08Z</time>
      </trkpt>
      <trkpt lat="46.10025" lon="4.3606">
        <ele>770</ele>
        <time>2025-09-28T09:55:09Z</time>
      </trkpt>
      <trkpt lat="46.10022" lon="4.36057">
        <ele>769.2</ele>
        <time>2025-09-28T09:55:10Z</time>
      </trkpt>
      <trkpt lat="46.10019" lon="4.36054">
        <ele>769.2</ele>
        <time>2025-09-28T09:55:11Z</time>
      </trkpt>
      <trkpt lat="46.10014" lon="4.3605">
        <ele>770.2</ele>
        <time>2025-09-28T09:55:12Z</time>
      </trkpt>
      <trkpt lat="46.10011" lon="4.36047">
        <ele>769.4</ele>
        <time>2025-09-28T09:55:13Z</time>
      </trkpt>
      <trkpt lat="46.10007" lon="4.36045">
        <ele>768.6</ele>
        <time>2025-09-28T09:55:14Z</time>
      </trkpt>
      <trkpt lat="46.10003" lon="4.36044">
        <ele>768</ele>
        <time>2025-09-28T09:55:15Z</time>
      </trkpt>
      <trkpt lat="46.09999" lon="4.36043">
        <ele>767.2</ele>
        <time>2025-09-28T09:55:16Z</time>
      </trkpt>
      <trkpt lat="46.09995" lon="4.36041">
        <ele>767</ele>
        <time>2025-09-28T09:55:17Z</time>
      </trkpt>
      <trkpt lat="46.09992" lon="4.36041">
        <ele>766.6</ele>
        <time>2025-09-28T09:55:18Z</time>
      </trkpt>
      <trkpt lat="46.09989" lon="4.3604">
        <ele>766.6</ele>
        <time>2025-09-28T09:55:19Z</time>
      </trkpt>
      <trkpt lat="46.09984" lon="4.3604">
        <ele>766</ele>
        <time>2025-09-28T09:55:20Z</time>
      </trkpt>
      <trkpt lat="46.09981" lon="4.3604">
        <ele>766</ele>
        <time>2025-09-28T09:55:21Z</time>
      </trkpt>
      <trkpt lat="46.09977" lon="4.36039">
        <ele>765.4</ele>
        <time>2025-09-28T09:55:22Z</time>
      </trkpt>
      <trkpt lat="46.09972" lon="4.36039">
        <ele>764.8</ele>
        <time>2025-09-28T09:55:23Z</time>
      </trkpt>
      <trkpt lat="46.09969" lon="4.36037">
        <ele>764.8</ele>
        <time>2025-09-28T09:55:24Z</time>
      </trkpt>
      <trkpt lat="46.09966" lon="4.36038">
        <ele>764.2</ele>
        <time>2025-09-28T09:55:25Z</time>
      </trkpt>
      <trkpt lat="46.09963" lon="4.36037">
        <ele>763.8</ele>
        <time>2025-09-28T09:55:26Z</time>
      </trkpt>
      <trkpt lat="46.09961" lon="4.36037">
        <ele>763.4</ele>
        <time>2025-09-28T09:55:27Z</time>
      </trkpt>
      <trkpt lat="46.09958" lon="4.36038">
        <ele>764</ele>
        <time>2025-09-28T09:55:28Z</time>
      </trkpt>
      <trkpt lat="46.09956" lon="4.36037">
        <ele>763.2</ele>
        <time>2025-09-28T09:55:29Z</time>
      </trkpt>
      <trkpt lat="46.09953" lon="4.36037">
        <ele>763.2</ele>
        <time>2025-09-28T09:55:30Z</time>
      </trkpt>
      <trkpt lat="46.09951" lon="4.36037">
        <ele>763.4</ele>
        <time>2025-09-28T09:55:31Z</time>
      </trkpt>
      <trkpt lat="46.09948" lon="4.36038">
        <ele>762.8</ele>
        <time>2025-09-28T09:55:32Z</time>
      </trkpt>
      <trkpt lat="46.09944" lon="4.3604">
        <ele>762.6</ele>
        <time>2025-09-28T09:55:33Z</time>
      </trkpt>
      <trkpt lat="46.0994" lon="4.36039">
        <ele>763.2</ele>
        <time>2025-09-28T09:55:34Z</time>
      </trkpt>
      <trkpt lat="46.09937" lon="4.36039">
        <ele>762.6</ele>
        <time>2025-09-28T09:55:35Z</time>
      </trkpt>
      <trkpt lat="46.09933" lon="4.36038">
        <ele>762.4</ele>
        <time>2025-09-28T09:55:36Z</time>
      </trkpt>
      <trkpt lat="46.09929" lon="4.36038">
        <ele>762</ele>
        <time>2025-09-28T09:55:37Z</time>
      </trkpt>
      <trkpt lat="46.09926" lon="4.36037">
        <ele>761.8</ele>
        <time>2025-09-28T09:55:38Z</time>
      </trkpt>
      <trkpt lat="46.09922" lon="4.36035">
        <ele>761.2</ele>
        <time>2025-09-28T09:55:39Z</time>
      </trkpt>
      <trkpt lat="46.09917" lon="4.36033">
        <ele>760.6</ele>
        <time>2025-09-28T09:55:40Z</time>
      </trkpt>
      <trkpt lat="46.09912" lon="4.36031">
        <ele>759.8</ele>
        <time>2025-09-28T09:55:41Z</time>
      </trkpt>
      <trkpt lat="46.09908" lon="4.3603">
        <ele>759.4</ele>
        <time>2025-09-28T09:55:42Z</time>
      </trkpt>
      <trkpt lat="46.09904" lon="4.36029">
        <ele>758.8</ele>
        <time>2025-09-28T09:55:43Z</time>
      </trkpt>
      <trkpt lat="46.09901" lon="4.36031">
        <ele>758</ele>
        <time>2025-09-28T09:55:44Z</time>
      </trkpt>
      <trkpt lat="46.099" lon="4.36031">
        <ele>757.4</ele>
        <time>2025-09-28T09:55:45Z</time>
      </trkpt>
      <trkpt lat="46.09896" lon="4.36028">
        <ele>757</ele>
        <time>2025-09-28T09:55:46Z</time>
      </trkpt>
      <trkpt lat="46.09893" lon="4.36027">
        <ele>757.6</ele>
        <time>2025-09-28T09:55:47Z</time>
      </trkpt>
      <trkpt lat="46.09891" lon="4.36026">
        <ele>757.6</ele>
        <time>2025-09-28T09:55:48Z</time>
      </trkpt>
      <trkpt lat="46.09886" lon="4.36025">
        <ele>757</ele>
        <time>2025-09-28T09:55:49Z</time>
      </trkpt>
      <trkpt lat="46.09884" lon="4.36023">
        <ele>756.8</ele>
        <time>2025-09-28T09:55:50Z</time>
      </trkpt>
      <trkpt lat="46.09882" lon="4.36019">
        <ele>756.4</ele>
        <time>2025-09-28T09:55:51Z</time>
      </trkpt>
      <trkpt lat="46.09879" lon="4.36018">
        <ele>756.6</ele>
        <time>2025-09-28T09:55:52Z</time>
      </trkpt>
      <trkpt lat="46.09875" lon="4.36017">
        <ele>755.8</ele>
        <time>2025-09-28T09:55:53Z</time>
      </trkpt>
      <trkpt lat="46.09873" lon="4.36015">
        <ele>755</ele>
        <time>2025-09-28T09:55:54Z</time>
      </trkpt>
      <trkpt lat="46.0987" lon="4.36014">
        <ele>754.8</ele>
        <time>2025-09-28T09:55:55Z</time>
      </trkpt>
      <trkpt lat="46.09868" lon="4.36013">
        <ele>754.4</ele>
        <time>2025-09-28T09:55:56Z</time>
      </trkpt>
      <trkpt lat="46.09865" lon="4.36012">
        <ele>754.8</ele>
        <time>2025-09-28T09:55:57Z</time>
      </trkpt>
      <trkpt lat="46.09862" lon="4.36011">
        <ele>754.6</ele>
        <time>2025-09-28T09:55:58Z</time>
      </trkpt>
      <trkpt lat="46.0986" lon="4.36011">
        <ele>754.6</ele>
        <time>2025-09-28T09:55:59Z</time>
      </trkpt>
      <trkpt lat="46.09859" lon="4.3601">
        <ele>754.4</ele>
        <time>2025-09-28T09:56:00Z</time>
      </trkpt>
      <trkpt lat="46.09857" lon="4.36008">
        <ele>754.4</ele>
        <time>2025-09-28T09:56:01Z</time>
      </trkpt>
      <trkpt lat="46.09854" lon="4.36007">
        <ele>754</ele>
        <time>2025-09-28T09:56:02Z</time>
      </trkpt>
      <trkpt lat="46.09851" lon="4.36007">
        <ele>754</ele>
        <time>2025-09-28T09:56:03Z</time>
      </trkpt>
      <trkpt lat="46.09848" lon="4.36006">
        <ele>753.2</ele>
        <time>2025-09-28T09:56:04Z</time>
      </trkpt>
      <trkpt lat="46.09844" lon="4.36005">
        <ele>753</ele>
        <time>2025-09-28T09:56:05Z</time>
      </trkpt>
      <trkpt lat="46.09841" lon="4.36003">
        <ele>753</ele>
        <time>2025-09-28T09:56:06Z</time>
      </trkpt>
      <trkpt lat="46.09838" lon="4.36002">
        <ele>752.6</ele>
        <time>2025-09-28T09:56:07Z</time>
      </trkpt>
      <trkpt lat="46.09835" lon="4.36">
        <ele>751.8</ele>
        <time>2025-09-28T09:56:08Z</time>
      </trkpt>
      <trkpt lat="46.09832" lon="4.35998">
        <ele>751.8</ele>
        <time>2025-09-28T09:56:09Z</time>
      </trkpt>
      <trkpt lat="46.0983" lon="4.35997">
        <ele>752.2</ele>
        <time>2025-09-28T09:56:10Z</time>
      </trkpt>
      <trkpt lat="46.09828" lon="4.35995">
        <ele>752.2</ele>
        <time>2025-09-28T09:56:11Z</time>
      </trkpt>
      <trkpt lat="46.09825" lon="4.35994">
        <ele>752.2</ele>
        <time>2025-09-28T09:56:12Z</time>
      </trkpt>
      <trkpt lat="46.09822" lon="4.35993">
        <ele>752.2</ele>
        <time>2025-09-28T09:56:13Z</time>
      </trkpt>
      <trkpt lat="46.0982" lon="4.35992">
        <ele>752.2</ele>
        <time>2025-09-28T09:56:14Z</time>
      </trkpt>
      <trkpt lat="46.09818" lon="4.35992">
        <ele>752.2</ele>
        <time>2025-09-28T09:56:15Z</time>
      </trkpt>
      <trkpt lat="46.09815" lon="4.3599">
        <ele>751.8</ele>
        <time>2025-09-28T09:56:16Z</time>
      </trkpt>
      <trkpt lat="46.09812" lon="4.35989">
        <ele>751.8</ele>
        <time>2025-09-28T09:56:17Z</time>
      </trkpt>
      <trkpt lat="46.09809" lon="4.35991">
        <ele>751.8</ele>
        <time>2025-09-28T09:56:18Z</time>
      </trkpt>
      <trkpt lat="46.09807" lon="4.35993">
        <ele>751.6</ele>
        <time>2025-09-28T09:56:19Z</time>
      </trkpt>
      <trkpt lat="46.09805" lon="4.35997">
        <ele>751.6</ele>
        <time>2025-09-28T09:56:20Z</time>
      </trkpt>
      <trkpt lat="46.09803" lon="4.36001">
        <ele>751.6</ele>
        <time>2025-09-28T09:56:21Z</time>
      </trkpt>
      <trkpt lat="46.09801" lon="4.36003">
        <ele>751.6</ele>
        <time>2025-09-28T09:56:22Z</time>
      </trkpt>
      <trkpt lat="46.09799" lon="4.36006">
        <ele>751.6</ele>
        <time>2025-09-28T09:56:23Z</time>
      </trkpt>
      <trkpt lat="46.09797" lon="4.36009">
        <ele>751.6</ele>
        <time>2025-09-28T09:56:24Z</time>
      </trkpt>
      <trkpt lat="46.09794" lon="4.36012">
        <ele>751.6</ele>
        <time>2025-09-28T09:56:25Z</time>
      </trkpt>
      <trkpt lat="46.09792" lon="4.36014">
        <ele>751.8</ele>
        <time>2025-09-28T09:56:26Z</time>
      </trkpt>
      <trkpt lat="46.0979" lon="4.36017">
        <ele>751.8</ele>
        <time>2025-09-28T09:56:27Z</time>
      </trkpt>
      <trkpt lat="46.09788" lon="4.36019">
        <ele>752.2</ele>
        <time>2025-09-28T09:56:28Z</time>
      </trkpt>
      <trkpt lat="46.09787" lon="4.36021">
        <ele>752.2</ele>
        <time>2025-09-28T09:56:29Z</time>
      </trkpt>
      <trkpt lat="46.09785" lon="4.36022">
        <ele>752.6</ele>
        <time>2025-09-28T09:56:30Z</time>
      </trkpt>
      <trkpt lat="46.09783" lon="4.36022">
        <ele>752.6</ele>
        <time>2025-09-28T09:56:31Z</time>
      </trkpt>
      <trkpt lat="46.09781" lon="4.36022">
        <ele>752.6</ele>
        <time>2025-09-28T09:56:32Z</time>
      </trkpt>
      <trkpt lat="46.09778" lon="4.36022">
        <ele>752.8</ele>
        <time>2025-09-28T09:56:33Z</time>
      </trkpt>
      <trkpt lat="46.09775" lon="4.36022">
        <ele>752.4</ele>
        <time>2025-09-28T09:56:34Z</time>
      </trkpt>
      <trkpt lat="46.09772" lon="4.36022">
        <ele>752.8</ele>
        <time>2025-09-28T09:56:35Z</time>
      </trkpt>
      <trkpt lat="46.09768" lon="4.36022">
        <ele>752.8</ele>
        <time>2025-09-28T09:56:36Z</time>
      </trkpt>
      <trkpt lat="46.09765" lon="4.3602">
        <ele>752.8</ele>
        <time>2025-09-28T09:56:37Z</time>
      </trkpt>
      <trkpt lat="46.09763" lon="4.36019">
        <ele>753</ele>
        <time>2025-09-28T09:56:38Z</time>
      </trkpt>
      <trkpt lat="46.09759" lon="4.36018">
        <ele>753</ele>
        <time>2025-09-28T09:56:39Z</time>
      </trkpt>
      <trkpt lat="46.09755" lon="4.36017">
        <ele>753.4</ele>
        <time>2025-09-28T09:56:40Z</time>
      </trkpt>
      <trkpt lat="46.09752" lon="4.36017">
        <ele>753.4</ele>
        <time>2025-09-28T09:56:41Z</time>
      </trkpt>
      <trkpt lat="46.09748" lon="4.36017">
        <ele>753.6</ele>
        <time>2025-09-28T09:56:42Z</time>
      </trkpt>
      <trkpt lat="46.09745" lon="4.36016">
        <ele>753.4</ele>
        <time>2025-09-28T09:56:43Z</time>
      </trkpt>
      <trkpt lat="46.09741" lon="4.36014">
        <ele>753.4</ele>
        <time>2025-09-28T09:56:44Z</time>
      </trkpt>
      <trkpt lat="46.09738" lon="4.36012">
        <ele>753.6</ele>
        <time>2025-09-28T09:56:45Z</time>
      </trkpt>
      <trkpt lat="46.09736" lon="4.3601">
        <ele>753.6</ele>
        <time>2025-09-28T09:56:46Z</time>
      </trkpt>
      <trkpt lat="46.09734" lon="4.36008">
        <ele>754.6</ele>
        <time>2025-09-28T09:56:47Z</time>
      </trkpt>
      <trkpt lat="46.09731" lon="4.36006">
        <ele>755</ele>
        <time>2025-09-28T09:56:48Z</time>
      </trkpt>
      <trkpt lat="46.09728" lon="4.36005">
        <ele>755</ele>
        <time>2025-09-28T09:56:49Z</time>
      </trkpt>
      <trkpt lat="46.09725" lon="4.36003">
        <ele>755</ele>
        <time>2025-09-28T09:56:50Z</time>
      </trkpt>
      <trkpt lat="46.09721" lon="4.35999">
        <ele>755.2</ele>
        <time>2025-09-28T09:56:51Z</time>
      </trkpt>
      <trkpt lat="46.09719" lon="4.35997">
        <ele>755.2</ele>
        <time>2025-09-28T09:56:52Z</time>
      </trkpt>
      <trkpt lat="46.09716" lon="4.35994">
        <ele>755.2</ele>
        <time>2025-09-28T09:56:53Z</time>
      </trkpt>
      <trkpt lat="46.09714" lon="4.35991">
        <ele>755.2</ele>
        <time>2025-09-28T09:56:54Z</time>
      </trkpt>
      <trkpt lat="46.09711" lon="4.35988">
        <ele>755.6</ele>
        <time>2025-09-28T09:56:55Z</time>
      </trkpt>
      <trkpt lat="46.09709" lon="4.35986">
        <ele>755.6</ele>
        <time>2025-09-28T09:56:56Z</time>
      </trkpt>
      <trkpt lat="46.09708" lon="4.35984">
        <ele>755.6</ele>
        <time>2025-09-28T09:56:57Z</time>
      </trkpt>
      <trkpt lat="46.09706" lon="4.35982">
        <ele>755.8</ele>
        <time>2025-09-28T09:56:58Z</time>
      </trkpt>
      <trkpt lat="46.09705" lon="4.35979">
        <ele>755.8</ele>
        <time>2025-09-28T09:56:59Z</time>
      </trkpt>
      <trkpt lat="46.09703" lon="4.35975">
        <ele>755.8</ele>
        <time>2025-09-28T09:57:00Z</time>
      </trkpt>
      <trkpt lat="46.09702" lon="4.35971">
        <ele>755.8</ele>
        <time>2025-09-28T09:57:01Z</time>
      </trkpt>
      <trkpt lat="46.097" lon="4.35968">
        <ele>755.8</ele>
        <time>2025-09-28T09:57:02Z</time>
      </trkpt>
      <trkpt lat="46.09698" lon="4.35966">
        <ele>756.2</ele>
        <time>2025-09-28T09:57:03Z</time>
      </trkpt>
      <trkpt lat="46.09696" lon="4.35963">
        <ele>756.2</ele>
        <time>2025-09-28T09:57:04Z</time>
      </trkpt>
      <trkpt lat="46.09694" lon="4.35961">
        <ele>756.4</ele>
        <time>2025-09-28T09:57:05Z</time>
      </trkpt>
      <trkpt lat="46.09692" lon="4.35959">
        <ele>756.4</ele>
        <time>2025-09-28T09:57:06Z</time>
      </trkpt>
      <trkpt lat="46.0969" lon="4.35957">
        <ele>756.4</ele>
        <time>2025-09-28T09:57:07Z</time>
      </trkpt>
      <trkpt lat="46.09687" lon="4.35954">
        <ele>756.4</ele>
        <time>2025-09-28T09:57:08Z</time>
      </trkpt>
      <trkpt lat="46.09684" lon="4.35951">
        <ele>756.4</ele>
        <time>2025-09-28T09:57:09Z</time>
      </trkpt>
      <trkpt lat="46.09682" lon="4.35948">
        <ele>756.4</ele>
        <time>2025-09-28T09:57:10Z</time>
      </trkpt>
      <trkpt lat="46.0968" lon="4.35946">
        <ele>756.4</ele>
        <time>2025-09-28T09:57:11Z</time>
      </trkpt>
      <trkpt lat="46.09678" lon="4.35943">
        <ele>756.2</ele>
        <time>2025-09-28T09:57:12Z</time>
      </trkpt>
      <trkpt lat="46.09675" lon="4.3594">
        <ele>756.4</ele>
        <time>2025-09-28T09:57:13Z</time>
      </trkpt>
      <trkpt lat="46.09673" lon="4.35937">
        <ele>756.4</ele>
        <time>2025-09-28T09:57:14Z</time>
      </trkpt>
      <trkpt lat="46.09671" lon="4.35935">
        <ele>756.8</ele>
        <time>2025-09-28T09:57:15Z</time>
      </trkpt>
      <trkpt lat="46.0967" lon="4.35932">
        <ele>756.8</ele>
        <time>2025-09-28T09:57:16Z</time>
      </trkpt>
      <trkpt lat="46.09668" lon="4.3593">
        <ele>757.2</ele>
        <time>2025-09-28T09:57:17Z</time>
      </trkpt>
      <trkpt lat="46.09667" lon="4.35928">
        <ele>757.2</ele>
        <time>2025-09-28T09:57:18Z</time>
      </trkpt>
      <trkpt lat="46.09665" lon="4.35926">
        <ele>757.2</ele>
        <time>2025-09-28T09:57:19Z</time>
      </trkpt>
      <trkpt lat="46.09664" lon="4.35923">
        <ele>757.2</ele>
        <time>2025-09-28T09:57:20Z</time>
      </trkpt>
      <trkpt lat="46.09662" lon="4.35921">
        <ele>757.4</ele>
        <time>2025-09-28T09:57:21Z</time>
      </trkpt>
      <trkpt lat="46.09661" lon="4.3592">
        <ele>757.6</ele>
        <time>2025-09-28T09:57:22Z</time>
      </trkpt>
      <trkpt lat="46.0966" lon="4.35918">
        <ele>757.6</ele>
        <time>2025-09-28T09:57:23Z</time>
      </trkpt>
      <trkpt lat="46.09659" lon="4.35917">
        <ele>757.8</ele>
        <time>2025-09-28T09:57:24Z</time>
      </trkpt>
      <trkpt lat="46.09658" lon="4.35915">
        <ele>757.8</ele>
        <time>2025-09-28T09:57:25Z</time>
      </trkpt>
      <trkpt lat="46.09656" lon="4.35912">
        <ele>758.6</ele>
        <time>2025-09-28T09:57:26Z</time>
      </trkpt>
      <trkpt lat="46.09656" lon="4.3591">
        <ele>758.6</ele>
        <time>2025-09-28T09:57:27Z</time>
      </trkpt>
      <trkpt lat="46.09654" lon="4.35908">
        <ele>758.6</ele>
        <time>2025-09-28T09:57:28Z</time>
      </trkpt>
      <trkpt lat="46.09652" lon="4.35906">
        <ele>758.6</ele>
        <time>2025-09-28T09:57:29Z</time>
      </trkpt>
      <trkpt lat="46.09651" lon="4.35904">
        <ele>758.6</ele>
        <time>2025-09-28T09:57:30Z</time>
      </trkpt>
      <trkpt lat="46.0965" lon="4.35902">
        <ele>758.6</ele>
        <time>2025-09-28T09:57:31Z</time>
      </trkpt>
      <trkpt lat="46.09649" lon="4.35901">
        <ele>759</ele>
        <time>2025-09-28T09:57:32Z</time>
      </trkpt>
      <trkpt lat="46.09648" lon="4.35899">
        <ele>759</ele>
        <time>2025-09-28T09:57:33Z</time>
      </trkpt>
      <trkpt lat="46.09647" lon="4.35897">
        <ele>759</ele>
        <time>2025-09-28T09:57:34Z</time>
      </trkpt>
      <trkpt lat="46.09646" lon="4.35895">
        <ele>759.2</ele>
        <time>2025-09-28T09:57:35Z</time>
      </trkpt>
      <trkpt lat="46.09644" lon="4.35893">
        <ele>759.8</ele>
        <time>2025-09-28T09:57:36Z</time>
      </trkpt>
      <trkpt lat="46.09643" lon="4.35892">
        <ele>760</ele>
        <time>2025-09-28T09:57:37Z</time>
      </trkpt>
      <trkpt lat="46.09641" lon="4.3589">
        <ele>760.4</ele>
        <time>2025-09-28T09:57:38Z</time>
      </trkpt>
      <trkpt lat="46.0964" lon="4.35889">
        <ele>760.6</ele>
        <time>2025-09-28T09:57:39Z</time>
      </trkpt>
      <trkpt lat="46.09638" lon="4.35888">
        <ele>760.6</ele>
        <time>2025-09-28T09:57:40Z</time>
      </trkpt>
      <trkpt lat="46.09637" lon="4.35887">
        <ele>760.4</ele>
        <time>2025-09-28T09:57:41Z</time>
      </trkpt>
      <trkpt lat="46.09635" lon="4.35885">
        <ele>760.8</ele>
        <time>2025-09-28T09:57:42Z</time>
      </trkpt>
      <trkpt lat="46.09633" lon="4.35884">
        <ele>761.2</ele>
        <time>2025-09-28T09:57:43Z</time>
      </trkpt>
      <trkpt lat="46.09632" lon="4.35882">
        <ele>761.2</ele>
        <time>2025-09-28T09:57:44Z</time>
      </trkpt>
      <trkpt lat="46.0963" lon="4.3588">
        <ele>761.2</ele>
        <time>2025-09-28T09:57:45Z</time>
      </trkpt>
      <trkpt lat="46.09629" lon="4.35879">
        <ele>761.4</ele>
        <time>2025-09-28T09:57:46Z</time>
      </trkpt>
      <trkpt lat="46.09627" lon="4.35878">
        <ele>761.4</ele>
        <time>2025-09-28T09:57:47Z</time>
      </trkpt>
      <trkpt lat="46.09626" lon="4.35876">
        <ele>761.8</ele>
        <time>2025-09-28T09:57:48Z</time>
      </trkpt>
      <trkpt lat="46.09625" lon="4.35875">
        <ele>762</ele>
        <time>2025-09-28T09:57:49Z</time>
      </trkpt>
      <trkpt lat="46.09624" lon="4.35873">
        <ele>762</ele>
        <time>2025-09-28T09:57:50Z</time>
      </trkpt>
      <trkpt lat="46.09622" lon="4.35871">
        <ele>762.4</ele>
        <time>2025-09-28T09:57:51Z</time>
      </trkpt>
      <trkpt lat="46.09621" lon="4.3587">
        <ele>762.8</ele>
        <time>2025-09-28T09:57:52Z</time>
      </trkpt>
      <trkpt lat="46.0962" lon="4.35868">
        <ele>763</ele>
        <time>2025-09-28T09:57:53Z</time>
      </trkpt>
      <trkpt lat="46.09619" lon="4.35868">
        <ele>763.2</ele>
        <time>2025-09-28T09:57:54Z</time>
      </trkpt>
      <trkpt lat="46.09617" lon="4.35867">
        <ele>763.2</ele>
        <time>2025-09-28T09:57:55Z</time>
      </trkpt>
      <trkpt lat="46.09616" lon="4.35866">
        <ele>763.2</ele>
        <time>2025-09-28T09:57:56Z</time>
      </trkpt>
      <trkpt lat="46.09615" lon="4.35865">
        <ele>763.8</ele>
        <time>2025-09-28T09:57:57Z</time>
      </trkpt>
      <trkpt lat="46.09613" lon="4.35864">
        <ele>764</ele>
        <time>2025-09-28T09:57:58Z</time>
      </trkpt>
      <trkpt lat="46.09612" lon="4.35863">
        <ele>764</ele>
        <time>2025-09-28T09:57:59Z</time>
      </trkpt>
      <trkpt lat="46.09611" lon="4.35862">
        <ele>764</ele>
        <time>2025-09-28T09:58:00Z</time>
      </trkpt>
      <trkpt lat="46.0961" lon="4.35861">
        <ele>764.4</ele>
        <time>2025-09-28T09:58:01Z</time>
      </trkpt>
      <trkpt lat="46.09609" lon="4.3586">
        <ele>764.8</ele>
        <time>2025-09-28T09:58:02Z</time>
      </trkpt>
      <trkpt lat="46.09608" lon="4.35859">
        <ele>764.8</ele>
        <time>2025-09-28T09:58:03Z</time>
      </trkpt>
      <trkpt lat="46.09606" lon="4.35858">
        <ele>764.8</ele>
        <time>2025-09-28T09:58:04Z</time>
      </trkpt>
      <trkpt lat="46.09605" lon="4.35857">
        <ele>765.2</ele>
        <time>2025-09-28T09:58:05Z</time>
      </trkpt>
      <trkpt lat="46.09604" lon="4.35857">
        <ele>765.6</ele>
        <time>2025-09-28T09:58:06Z</time>
      </trkpt>
      <trkpt lat="46.09602" lon="4.35856">
        <ele>765.6</ele>
        <time>2025-09-28T09:58:07Z</time>
      </trkpt>
      <trkpt lat="46.09601" lon="4.35855">
        <ele>766</ele>
        <time>2025-09-28T09:58:08Z</time>
      </trkpt>
      <trkpt lat="46.09599" lon="4.35855">
        <ele>766</ele>
        <time>2025-09-28T09:58:09Z</time>
      </trkpt>
      <trkpt lat="46.09598" lon="4.35854">
        <ele>766.4</ele>
        <time>2025-09-28T09:58:10Z</time>
      </trkpt>
      <trkpt lat="46.09597" lon="4.35854">
        <ele>766.6</ele>
        <time>2025-09-28T09:58:11Z</time>
      </trkpt>
      <trkpt lat="46.09595" lon="4.35854">
        <ele>766.6</ele>
        <time>2025-09-28T09:58:12Z</time>
      </trkpt>
      <trkpt lat="46.09593" lon="4.35855">
        <ele>767.2</ele>
        <time>2025-09-28T09:58:13Z</time>
      </trkpt>
      <trkpt lat="46.09591" lon="4.35855">
        <ele>767.2</ele>
        <time>2025-09-28T09:58:14Z</time>
      </trkpt>
      <trkpt lat="46.0959" lon="4.35855">
        <ele>767.2</ele>
        <time>2025-09-28T09:58:15Z</time>
      </trkpt>
      <trkpt lat="46.09588" lon="4.35855">
        <ele>767.2</ele>
        <time>2025-09-28T09:58:16Z</time>
      </trkpt>
      <trkpt lat="46.09586" lon="4.35855">
        <ele>767.6</ele>
        <time>2025-09-28T09:58:17Z</time>
      </trkpt>
      <trkpt lat="46.09585" lon="4.35855">
        <ele>767.6</ele>
        <time>2025-09-28T09:58:18Z</time>
      </trkpt>
      <trkpt lat="46.09583" lon="4.35855">
        <ele>767.8</ele>
        <time>2025-09-28T09:58:19Z</time>
      </trkpt>
      <trkpt lat="46.09582" lon="4.35854">
        <ele>767.8</ele>
        <time>2025-09-28T09:58:20Z</time>
      </trkpt>
      <trkpt lat="46.09581" lon="4.35854">
        <ele>768</ele>
        <time>2025-09-28T09:58:21Z</time>
      </trkpt>
      <trkpt lat="46.0958" lon="4.35852">
        <ele>768</ele>
        <time>2025-09-28T09:58:22Z</time>
      </trkpt>
      <trkpt lat="46.09579" lon="4.35851">
        <ele>768.4</ele>
        <time>2025-09-28T09:58:23Z</time>
      </trkpt>
      <trkpt lat="46.09578" lon="4.3585">
        <ele>768.6</ele>
        <time>2025-09-28T09:58:24Z</time>
      </trkpt>
      <trkpt lat="46.09577" lon="4.35849">
        <ele>768.6</ele>
        <time>2025-09-28T09:58:25Z</time>
      </trkpt>
      <trkpt lat="46.09576" lon="4.35848">
        <ele>768.6</ele>
        <time>2025-09-28T09:58:26Z</time>
      </trkpt>
      <trkpt lat="46.09574" lon="4.35848">
        <ele>769.2</ele>
        <time>2025-09-28T09:58:27Z</time>
      </trkpt>
      <trkpt lat="46.09572" lon="4.35847">
        <ele>769.6</ele>
        <time>2025-09-28T09:58:28Z</time>
      </trkpt>
      <trkpt lat="46.0957" lon="4.35846">
        <ele>769.6</ele>
        <time>2025-09-28T09:58:29Z</time>
      </trkpt>
      <trkpt lat="46.09569" lon="4.35845">
        <ele>769.6</ele>
        <time>2025-09-28T09:58:30Z</time>
      </trkpt>
      <trkpt lat="46.09568" lon="4.35844">
        <ele>769.8</ele>
        <time>2025-09-28T09:58:31Z</time>
      </trkpt>
      <trkpt lat="46.09567" lon="4.35843">
        <ele>769.8</ele>
        <time>2025-09-28T09:58:32Z</time>
      </trkpt>
      <trkpt lat="46.09565" lon="4.35842">
        <ele>770.2</ele>
        <time>2025-09-28T09:58:33Z</time>
      </trkpt>
      <trkpt lat="46.09562" lon="4.35841">
        <ele>770.2</ele>
        <time>2025-09-28T09:58:34Z</time>
      </trkpt>
      <trkpt lat="46.09561" lon="4.35841">
        <ele>770.2</ele>
        <time>2025-09-28T09:58:35Z</time>
      </trkpt>
      <trkpt lat="46.0956" lon="4.35841">
        <ele>770.4</ele>
        <time>2025-09-28T09:58:36Z</time>
      </trkpt>
      <trkpt lat="46.09558" lon="4.35841">
        <ele>770.4</ele>
        <time>2025-09-28T09:58:37Z</time>
      </trkpt>
      <trkpt lat="46.09556" lon="4.35841">
        <ele>770.8</ele>
        <time>2025-09-28T09:58:38Z</time>
      </trkpt>
      <trkpt lat="46.09555" lon="4.35841">
        <ele>771.2</ele>
        <time>2025-09-28T09:58:39Z</time>
      </trkpt>
      <trkpt lat="46.09553" lon="4.35841">
        <ele>771.2</ele>
        <time>2025-09-28T09:58:40Z</time>
      </trkpt>
      <trkpt lat="46.09551" lon="4.35841">
        <ele>771.2</ele>
        <time>2025-09-28T09:58:41Z</time>
      </trkpt>
      <trkpt lat="46.0955" lon="4.35841">
        <ele>771.4</ele>
        <time>2025-09-28T09:58:42Z</time>
      </trkpt>
      <trkpt lat="46.09548" lon="4.3584">
        <ele>771.4</ele>
        <time>2025-09-28T09:58:43Z</time>
      </trkpt>
      <trkpt lat="46.09547" lon="4.3584">
        <ele>771.8</ele>
        <time>2025-09-28T09:58:44Z</time>
      </trkpt>
      <trkpt lat="46.09545" lon="4.35839">
        <ele>772</ele>
        <time>2025-09-28T09:58:45Z</time>
      </trkpt>
      <trkpt lat="46.09544" lon="4.35838">
        <ele>772</ele>
        <time>2025-09-28T09:58:46Z</time>
      </trkpt>
      <trkpt lat="46.09544" lon="4.35839">
        <ele>772</ele>
        <time>2025-09-28T09:58:47Z</time>
      </trkpt>
      <trkpt lat="46.09544" lon="4.35839">
        <ele>772.2</ele>
        <time>2025-09-28T09:58:48Z</time>
      </trkpt>
      <trkpt lat="46.0954" lon="4.35838">
        <ele>772.4</ele>
        <time>2025-09-28T09:59:27Z</time>
      </trkpt>
      <trkpt lat="46.09538" lon="4.35837">
        <ele>772.4</ele>
        <time>2025-09-28T09:59:28Z</time>
      </trkpt>
      <trkpt lat="46.09535" lon="4.35837">
        <ele>772.4</ele>
        <time>2025-09-28T09:59:29Z</time>
      </trkpt>
      <trkpt lat="46.09531" lon="4.35836">
        <ele>772.4</ele>
        <time>2025-09-28T09:59:30Z</time>
      </trkpt>
      <trkpt lat="46.09529" lon="4.35835">
        <ele>772.4</ele>
        <time>2025-09-28T09:59:31Z</time>
      </trkpt>
      <trkpt lat="46.09527" lon="4.35834">
        <ele>772.8</ele>
        <time>2025-09-28T09:59:32Z</time>
      </trkpt>
      <trkpt lat="46.09525" lon="4.35833">
        <ele>773.2</ele>
        <time>2025-09-28T09:59:33Z</time>
      </trkpt>
      <trkpt lat="46.09523" lon="4.35832">
        <ele>773.2</ele>
        <time>2025-09-28T09:59:34Z</time>
      </trkpt>
      <trkpt lat="46.09521" lon="4.35832">
        <ele>773.2</ele>
        <time>2025-09-28T09:59:35Z</time>
      </trkpt>
      <trkpt lat="46.09519" lon="4.35832">
        <ele>773.2</ele>
        <time>2025-09-28T09:59:36Z</time>
      </trkpt>
      <trkpt lat="46.09517" lon="4.35831">
        <ele>773.2</ele>
        <time>2025-09-28T09:59:37Z</time>
      </trkpt>
      <trkpt lat="46.09515" lon="4.35831">
        <ele>773.4</ele>
        <time>2025-09-28T09:59:38Z</time>
      </trkpt>
      <trkpt lat="46.09513" lon="4.3583">
        <ele>773.4</ele>
        <time>2025-09-28T09:59:39Z</time>
      </trkpt>
      <trkpt lat="46.09511" lon="4.35829">
        <ele>773.6</ele>
        <time>2025-09-28T09:59:40Z</time>
      </trkpt>
      <trkpt lat="46.09509" lon="4.35827">
        <ele>773.6</ele>
        <time>2025-09-28T09:59:41Z</time>
      </trkpt>
      <trkpt lat="46.09508" lon="4.35826">
        <ele>773.6</ele>
        <time>2025-09-28T09:59:42Z</time>
      </trkpt>
      <trkpt lat="46.09505" lon="4.35824">
        <ele>773.6</ele>
        <time>2025-09-28T09:59:43Z</time>
      </trkpt>
      <trkpt lat="46.09503" lon="4.35824">
        <ele>774.2</ele>
        <time>2025-09-28T09:59:44Z</time>
      </trkpt>
      <trkpt lat="46.09501" lon="4.35823">
        <ele>774.6</ele>
        <time>2025-09-28T09:59:45Z</time>
      </trkpt>
      <trkpt lat="46.09499" lon="4.35823">
        <ele>774.6</ele>
        <time>2025-09-28T09:59:46Z</time>
      </trkpt>
      <trkpt lat="46.09496" lon="4.35823">
        <ele>774.6</ele>
        <time>2025-09-28T09:59:47Z</time>
      </trkpt>
      <trkpt lat="46.09495" lon="4.35823">
        <ele>774.8</ele>
        <time>2025-09-28T09:59:48Z</time>
      </trkpt>
      <trkpt lat="46.09494" lon="4.35823">
        <ele>774.8</ele>
        <time>2025-09-28T09:59:49Z</time>
      </trkpt>
      <trkpt lat="46.09493" lon="4.35823">
        <ele>775.2</ele>
        <time>2025-09-28T09:59:50Z</time>
      </trkpt>
      <trkpt lat="46.09492" lon="4.35822">
        <ele>775.2</ele>
        <time>2025-09-28T09:59:51Z</time>
      </trkpt>
      <trkpt lat="46.0949" lon="4.35821">
        <ele>775.6</ele>
        <time>2025-09-28T09:59:52Z</time>
      </trkpt>
      <trkpt lat="46.09487" lon="4.3582">
        <ele>775.8</ele>
        <time>2025-09-28T09:59:53Z</time>
      </trkpt>
      <trkpt lat="46.09485" lon="4.35819">
        <ele>775.8</ele>
        <time>2025-09-28T09:59:54Z</time>
      </trkpt>
      <trkpt lat="46.09483" lon="4.35819">
        <ele>776.2</ele>
        <time>2025-09-28T09:59:55Z</time>
      </trkpt>
      <trkpt lat="46.0948" lon="4.35818">
        <ele>776.2</ele>
        <time>2025-09-28T09:59:56Z</time>
      </trkpt>
      <trkpt lat="46.09477" lon="4.35818">
        <ele>776.2</ele>
        <time>2025-09-28T09:59:57Z</time>
      </trkpt>
      <trkpt lat="46.09474" lon="4.35818">
        <ele>775.8</ele>
        <time>2025-09-28T09:59:58Z</time>
      </trkpt>
      <trkpt lat="46.09472" lon="4.35819">
        <ele>774.6</ele>
        <time>2025-09-28T09:59:59Z</time>
      </trkpt>
      <trkpt lat="46.0947" lon="4.35819">
        <ele>775.2</ele>
        <time>2025-09-28T10:00:00Z</time>
      </trkpt>
      <trkpt lat="46.09468" lon="4.3582">
        <ele>775.2</ele>
        <time>2025-09-28T10:00:01Z</time>
      </trkpt>
      <trkpt lat="46.09466" lon="4.35821">
        <ele>775.8</ele>
        <time>2025-09-28T10:00:02Z</time>
      </trkpt>
      <trkpt lat="46.09464" lon="4.35822">
        <ele>776</ele>
        <time>2025-09-28T10:00:03Z</time>
      </trkpt>
      <trkpt lat="46.09463" lon="4.35823">
        <ele>776</ele>
        <time>2025-09-28T10:00:04Z</time>
      </trkpt>
      <trkpt lat="46.09462" lon="4.35825">
        <ele>776.4</ele>
        <time>2025-09-28T10:00:05Z</time>
      </trkpt>
      <trkpt lat="46.0946" lon="4.35825">
        <ele>776.8</ele>
        <time>2025-09-28T10:00:06Z</time>
      </trkpt>
      <trkpt lat="46.09459" lon="4.35825">
        <ele>777</ele>
        <time>2025-09-28T10:00:07Z</time>
      </trkpt>
      <trkpt lat="46.09456" lon="4.35824">
        <ele>777</ele>
        <time>2025-09-28T10:00:08Z</time>
      </trkpt>
      <trkpt lat="46.09454" lon="4.35823">
        <ele>777.4</ele>
        <time>2025-09-28T10:00:09Z</time>
      </trkpt>
      <trkpt lat="46.09451" lon="4.35823">
        <ele>777.4</ele>
        <time>2025-09-28T10:00:10Z</time>
      </trkpt>
      <trkpt lat="46.09449" lon="4.35823">
        <ele>777.8</ele>
        <time>2025-09-28T10:00:11Z</time>
      </trkpt>
      <trkpt lat="46.09449" lon="4.35823">
        <ele>778</ele>
        <time>2025-09-28T10:00:12Z</time>
      </trkpt>
      <trkpt lat="46.09449" lon="4.35823">
        <ele>778.2</ele>
        <time>2025-09-28T10:00:13Z</time>
      </trkpt>
      <trkpt lat="46.09441" lon="4.35824">
        <ele>778.4</ele>
        <time>2025-09-28T10:00:15Z</time>
      </trkpt>
      <trkpt lat="46.0944" lon="4.35823">
        <ele>779</ele>
        <time>2025-09-28T10:00:16Z</time>
      </trkpt>
      <trkpt lat="46.09438" lon="4.35824">
        <ele>779</ele>
        <time>2025-09-28T10:00:17Z</time>
      </trkpt>
      <trkpt lat="46.09436" lon="4.35825">
        <ele>779.2</ele>
        <time>2025-09-28T10:00:18Z</time>
      </trkpt>
      <trkpt lat="46.09434" lon="4.35826">
        <ele>779.2</ele>
        <time>2025-09-28T10:00:19Z</time>
      </trkpt>
      <trkpt lat="46.09432" lon="4.35827">
        <ele>779.2</ele>
        <time>2025-09-28T10:00:20Z</time>
      </trkpt>
      <trkpt lat="46.09429" lon="4.35828">
        <ele>779.2</ele>
        <time>2025-09-28T10:00:21Z</time>
      </trkpt>
      <trkpt lat="46.09427" lon="4.35828">
        <ele>779.2</ele>
        <time>2025-09-28T10:00:22Z</time>
      </trkpt>
      <trkpt lat="46.09426" lon="4.35829">
        <ele>779.6</ele>
        <time>2025-09-28T10:00:23Z</time>
      </trkpt>
      <trkpt lat="46.09424" lon="4.35828">
        <ele>779.6</ele>
        <time>2025-09-28T10:00:24Z</time>
      </trkpt>
      <trkpt lat="46.09422" lon="4.35828">
        <ele>779.8</ele>
        <time>2025-09-28T10:00:25Z</time>
      </trkpt>
      <trkpt lat="46.0942" lon="4.35827">
        <ele>779.8</ele>
        <time>2025-09-28T10:00:26Z</time>
      </trkpt>
      <trkpt lat="46.09419" lon="4.35826">
        <ele>780.2</ele>
        <time>2025-09-28T10:00:27Z</time>
      </trkpt>
      <trkpt lat="46.09417" lon="4.35824">
        <ele>780.2</ele>
        <time>2025-09-28T10:00:28Z</time>
      </trkpt>
      <trkpt lat="46.09416" lon="4.35822">
        <ele>780.4</ele>
        <time>2025-09-28T10:00:29Z</time>
      </trkpt>
      <trkpt lat="46.09413" lon="4.3582">
        <ele>780.4</ele>
        <time>2025-09-28T10:00:30Z</time>
      </trkpt>
      <trkpt lat="46.0941" lon="4.35818">
        <ele>780.4</ele>
        <time>2025-09-28T10:00:31Z</time>
      </trkpt>
      <trkpt lat="46.09407" lon="4.35818">
        <ele>781</ele>
        <time>2025-09-28T10:00:32Z</time>
      </trkpt>
      <trkpt lat="46.09405" lon="4.35817">
        <ele>781</ele>
        <time>2025-09-28T10:00:33Z</time>
      </trkpt>
      <trkpt lat="46.09403" lon="4.35816">
        <ele>781</ele>
        <time>2025-09-28T10:00:34Z</time>
      </trkpt>
      <trkpt lat="46.094" lon="4.35815">
        <ele>781.4</ele>
        <time>2025-09-28T10:00:35Z</time>
      </trkpt>
      <trkpt lat="46.09397" lon="4.35814">
        <ele>781.4</ele>
        <time>2025-09-28T10:00:36Z</time>
      </trkpt>
      <trkpt lat="46.09394" lon="4.35813">
        <ele>781.6</ele>
        <time>2025-09-28T10:00:37Z</time>
      </trkpt>
      <trkpt lat="46.09392" lon="4.35812">
        <ele>781.6</ele>
        <time>2025-09-28T10:00:38Z</time>
      </trkpt>
      <trkpt lat="46.0939" lon="4.35811">
        <ele>782</ele>
        <time>2025-09-28T10:00:39Z</time>
      </trkpt>
      <trkpt lat="46.09388" lon="4.3581">
        <ele>782</ele>
        <time>2025-09-28T10:00:40Z</time>
      </trkpt>
      <trkpt lat="46.09387" lon="4.35808">
        <ele>782.2</ele>
        <time>2025-09-28T10:00:41Z</time>
      </trkpt>
      <trkpt lat="46.09385" lon="4.35807">
        <ele>782.6</ele>
        <time>2025-09-28T10:00:42Z</time>
      </trkpt>
      <trkpt lat="46.09383" lon="4.35806">
        <ele>782.6</ele>
        <time>2025-09-28T10:00:43Z</time>
      </trkpt>
      <trkpt lat="46.0938" lon="4.35805">
        <ele>782.6</ele>
        <time>2025-09-28T10:00:44Z</time>
      </trkpt>
      <trkpt lat="46.09377" lon="4.35804">
        <ele>782.6</ele>
        <time>2025-09-28T10:00:45Z</time>
      </trkpt>
      <trkpt lat="46.09375" lon="4.35803">
        <ele>783</ele>
        <time>2025-09-28T10:00:46Z</time>
      </trkpt>
      <trkpt lat="46.09375" lon="4.35803">
        <ele>783</ele>
        <time>2025-09-28T10:00:47Z</time>
      </trkpt>
      <trkpt lat="46.09375" lon="4.35803">
        <ele>783.2</ele>
        <time>2025-09-28T10:00:48Z</time>
      </trkpt>
      <trkpt lat="46.0937" lon="4.358">
        <ele>783.2</ele>
        <time>2025-09-28T10:00:49Z</time>
      </trkpt>
      <trkpt lat="46.09368" lon="4.35799">
        <ele>783.2</ele>
        <time>2025-09-28T10:00:50Z</time>
      </trkpt>
      <trkpt lat="46.09366" lon="4.35797">
        <ele>783.2</ele>
        <time>2025-09-28T10:00:51Z</time>
      </trkpt>
      <trkpt lat="46.09363" lon="4.35796">
        <ele>783.2</ele>
        <time>2025-09-28T10:00:52Z</time>
      </trkpt>
      <trkpt lat="46.0936" lon="4.35795">
        <ele>783.2</ele>
        <time>2025-09-28T10:00:53Z</time>
      </trkpt>
      <trkpt lat="46.09357" lon="4.35794">
        <ele>783.2</ele>
        <time>2025-09-28T10:00:54Z</time>
      </trkpt>
      <trkpt lat="46.09355" lon="4.35793">
        <ele>783.2</ele>
        <time>2025-09-28T10:00:55Z</time>
      </trkpt>
      <trkpt lat="46.09353" lon="4.35792">
        <ele>783.4</ele>
        <time>2025-09-28T10:00:56Z</time>
      </trkpt>
      <trkpt lat="46.09351" lon="4.35791">
        <ele>783.4</ele>
        <time>2025-09-28T10:00:57Z</time>
      </trkpt>
      <trkpt lat="46.09349" lon="4.35789">
        <ele>783.4</ele>
        <time>2025-09-28T10:00:58Z</time>
      </trkpt>
      <trkpt lat="46.09347" lon="4.35788">
        <ele>783.4</ele>
        <time>2025-09-28T10:00:59Z</time>
      </trkpt>
      <trkpt lat="46.09345" lon="4.35788">
        <ele>783.8</ele>
        <time>2025-09-28T10:01:00Z</time>
      </trkpt>
      <trkpt lat="46.09343" lon="4.35788">
        <ele>783.8</ele>
        <time>2025-09-28T10:01:01Z</time>
      </trkpt>
      <trkpt lat="46.09339" lon="4.35787">
        <ele>783.8</ele>
        <time>2025-09-28T10:01:02Z</time>
      </trkpt>
      <trkpt lat="46.09336" lon="4.35786">
        <ele>783.8</ele>
        <time>2025-09-28T10:01:03Z</time>
      </trkpt>
      <trkpt lat="46.09333" lon="4.35786">
        <ele>783.8</ele>
        <time>2025-09-28T10:01:04Z</time>
      </trkpt>
      <trkpt lat="46.0933" lon="4.35785">
        <ele>783.8</ele>
        <time>2025-09-28T10:01:05Z</time>
      </trkpt>
      <trkpt lat="46.09323" lon="4.35789">
        <ele>783.6</ele>
        <time>2025-09-28T10:01:06Z</time>
      </trkpt>
      <trkpt lat="46.09319" lon="4.35793">
        <ele>783</ele>
        <time>2025-09-28T10:01:07Z</time>
      </trkpt>
      <trkpt lat="46.09315" lon="4.35792">
        <ele>783</ele>
        <time>2025-09-28T10:01:08Z</time>
      </trkpt>
      <trkpt lat="46.09311" lon="4.35792">
        <ele>783</ele>
        <time>2025-09-28T10:01:09Z</time>
      </trkpt>
      <trkpt lat="46.09309" lon="4.35794">
        <ele>782</ele>
        <time>2025-09-28T10:01:10Z</time>
      </trkpt>
      <trkpt lat="46.09305" lon="4.35795">
        <ele>781.4</ele>
        <time>2025-09-28T10:01:11Z</time>
      </trkpt>
      <trkpt lat="46.09301" lon="4.35797">
        <ele>780.8</ele>
        <time>2025-09-28T10:01:12Z</time>
      </trkpt>
      <trkpt lat="46.09294" lon="4.35798">
        <ele>780.8</ele>
        <time>2025-09-28T10:01:13Z</time>
      </trkpt>
      <trkpt lat="46.09292" lon="4.358">
        <ele>780.2</ele>
        <time>2025-09-28T10:01:14Z</time>
      </trkpt>
      <trkpt lat="46.09289" lon="4.35801">
        <ele>778.8</ele>
        <time>2025-09-28T10:01:15Z</time>
      </trkpt>
      <trkpt lat="46.09287" lon="4.35801">
        <ele>778.2</ele>
        <time>2025-09-28T10:01:16Z</time>
      </trkpt>
      <trkpt lat="46.09283" lon="4.35801">
        <ele>778.8</ele>
        <time>2025-09-28T10:01:17Z</time>
      </trkpt>
      <trkpt lat="46.09279" lon="4.35801">
        <ele>777.8</ele>
        <time>2025-09-28T10:01:18Z</time>
      </trkpt>
      <trkpt lat="46.09274" lon="4.35801">
        <ele>778.2</ele>
        <time>2025-09-28T10:01:19Z</time>
      </trkpt>
      <trkpt lat="46.0927" lon="4.35799">
        <ele>778.2</ele>
        <time>2025-09-28T10:01:20Z</time>
      </trkpt>
      <trkpt lat="46.09266" lon="4.35798">
        <ele>778.2</ele>
        <time>2025-09-28T10:01:21Z</time>
      </trkpt>
      <trkpt lat="46.09262" lon="4.35799">
        <ele>778.2</ele>
        <time>2025-09-28T10:01:22Z</time>
      </trkpt>
      <trkpt lat="46.09258" lon="4.35798">
        <ele>778.2</ele>
        <time>2025-09-28T10:01:23Z</time>
      </trkpt>
      <trkpt lat="46.09253" lon="4.35798">
        <ele>778.2</ele>
        <time>2025-09-28T10:01:24Z</time>
      </trkpt>
      <trkpt lat="46.0925" lon="4.35796">
        <ele>778.2</ele>
        <time>2025-09-28T10:01:25Z</time>
      </trkpt>
      <trkpt lat="46.09249" lon="4.35796">
        <ele>778.6</ele>
        <time>2025-09-28T10:01:26Z</time>
      </trkpt>
      <trkpt lat="46.09247" lon="4.35797">
        <ele>778.2</ele>
        <time>2025-09-28T10:01:27Z</time>
      </trkpt>
      <trkpt lat="46.09245" lon="4.35797">
        <ele>777.6</ele>
        <time>2025-09-28T10:01:28Z</time>
      </trkpt>
      <trkpt lat="46.09243" lon="4.35796">
        <ele>778</ele>
        <time>2025-09-28T10:01:29Z</time>
      </trkpt>
      <trkpt lat="46.0924" lon="4.35796">
        <ele>778</ele>
        <time>2025-09-28T10:01:30Z</time>
      </trkpt>
      <trkpt lat="46.09238" lon="4.35795">
        <ele>776.8</ele>
        <time>2025-09-28T10:01:31Z</time>
      </trkpt>
      <trkpt lat="46.09234" lon="4.35796">
        <ele>776.4</ele>
        <time>2025-09-28T10:01:32Z</time>
      </trkpt>
      <trkpt lat="46.09231" lon="4.35795">
        <ele>776.2</ele>
        <time>2025-09-28T10:01:33Z</time>
      </trkpt>
      <trkpt lat="46.09227" lon="4.35797">
        <ele>776.6</ele>
        <time>2025-09-28T10:01:34Z</time>
      </trkpt>
      <trkpt lat="46.09223" lon="4.35798">
        <ele>775.8</ele>
        <time>2025-09-28T10:01:35Z</time>
      </trkpt>
      <trkpt lat="46.09217" lon="4.35797">
        <ele>776.2</ele>
        <time>2025-09-28T10:01:36Z</time>
      </trkpt>
      <trkpt lat="46.09212" lon="4.35797">
        <ele>775.2</ele>
        <time>2025-09-28T10:01:37Z</time>
      </trkpt>
      <trkpt lat="46.09208" lon="4.35796">
        <ele>773.4</ele>
        <time>2025-09-28T10:01:38Z</time>
      </trkpt>
      <trkpt lat="46.09203" lon="4.35797">
        <ele>773.6</ele>
        <time>2025-09-28T10:01:39Z</time>
      </trkpt>
      <trkpt lat="46.09197" lon="4.35799">
        <ele>773.2</ele>
        <time>2025-09-28T10:01:40Z</time>
      </trkpt>
      <trkpt lat="46.09192" lon="4.35799">
        <ele>773.2</ele>
        <time>2025-09-28T10:01:41Z</time>
      </trkpt>
      <trkpt lat="46.09188" lon="4.35799">
        <ele>773.2</ele>
        <time>2025-09-28T10:01:42Z</time>
      </trkpt>
      <trkpt lat="46.09183" lon="4.35799">
        <ele>773.6</ele>
        <time>2025-09-28T10:01:43Z</time>
      </trkpt>
      <trkpt lat="46.09178" lon="4.358">
        <ele>773</ele>
        <time>2025-09-28T10:01:44Z</time>
      </trkpt>
      <trkpt lat="46.09172" lon="4.35801">
        <ele>773</ele>
        <time>2025-09-28T10:01:45Z</time>
      </trkpt>
      <trkpt lat="46.09167" lon="4.35801">
        <ele>772.6</ele>
        <time>2025-09-28T10:01:46Z</time>
      </trkpt>
      <trkpt lat="46.09163" lon="4.35801">
        <ele>772.8</ele>
        <time>2025-09-28T10:01:47Z</time>
      </trkpt>
      <trkpt lat="46.09158" lon="4.35802">
        <ele>772.8</ele>
        <time>2025-09-28T10:01:48Z</time>
      </trkpt>
      <trkpt lat="46.09153" lon="4.358">
        <ele>772.8</ele>
        <time>2025-09-28T10:01:49Z</time>
      </trkpt>
      <trkpt lat="46.09149" lon="4.358">
        <ele>772.8</ele>
        <time>2025-09-28T10:01:50Z</time>
      </trkpt>
      <trkpt lat="46.09144" lon="4.35802">
        <ele>772.8</ele>
        <time>2025-09-28T10:01:51Z</time>
      </trkpt>
      <trkpt lat="46.09139" lon="4.35804">
        <ele>772.6</ele>
        <time>2025-09-28T10:01:52Z</time>
      </trkpt>
      <trkpt lat="46.09135" lon="4.35803">
        <ele>772.6</ele>
        <time>2025-09-28T10:01:53Z</time>
      </trkpt>
      <trkpt lat="46.09131" lon="4.35806">
        <ele>772.6</ele>
        <time>2025-09-28T10:01:54Z</time>
      </trkpt>
      <trkpt lat="46.09124" lon="4.35807">
        <ele>772.2</ele>
        <time>2025-09-28T10:01:55Z</time>
      </trkpt>
      <trkpt lat="46.0912" lon="4.35808">
        <ele>772.2</ele>
        <time>2025-09-28T10:01:56Z</time>
      </trkpt>
      <trkpt lat="46.09115" lon="4.35809">
        <ele>771.6</ele>
        <time>2025-09-28T10:01:57Z</time>
      </trkpt>
      <trkpt lat="46.09111" lon="4.35809">
        <ele>771.6</ele>
        <time>2025-09-28T10:01:58Z</time>
      </trkpt>
      <trkpt lat="46.09105" lon="4.3581">
        <ele>771.2</ele>
        <time>2025-09-28T10:01:59Z</time>
      </trkpt>
      <trkpt lat="46.091" lon="4.35813">
        <ele>770.8</ele>
        <time>2025-09-28T10:02:00Z</time>
      </trkpt>
      <trkpt lat="46.09095" lon="4.35812">
        <ele>770.8</ele>
        <time>2025-09-28T10:02:01Z</time>
      </trkpt>
      <trkpt lat="46.09091" lon="4.35814">
        <ele>770.8</ele>
        <time>2025-09-28T10:02:02Z</time>
      </trkpt>
      <trkpt lat="46.09088" lon="4.35816">
        <ele>770.8</ele>
        <time>2025-09-28T10:02:03Z</time>
      </trkpt>
      <trkpt lat="46.09084" lon="4.35818">
        <ele>771</ele>
        <time>2025-09-28T10:02:04Z</time>
      </trkpt>
      <trkpt lat="46.0908" lon="4.35817">
        <ele>771.2</ele>
        <time>2025-09-28T10:02:05Z</time>
      </trkpt>
      <trkpt lat="46.09075" lon="4.35818">
        <ele>771.2</ele>
        <time>2025-09-28T10:02:06Z</time>
      </trkpt>
      <trkpt lat="46.0907" lon="4.35817">
        <ele>771.6</ele>
        <time>2025-09-28T10:02:07Z</time>
      </trkpt>
      <trkpt lat="46.09065" lon="4.35817">
        <ele>771.6</ele>
        <time>2025-09-28T10:02:08Z</time>
      </trkpt>
      <trkpt lat="46.0906" lon="4.35817">
        <ele>771.6</ele>
        <time>2025-09-28T10:02:09Z</time>
      </trkpt>
      <trkpt lat="46.09058" lon="4.35812">
        <ele>772</ele>
        <time>2025-09-28T10:02:10Z</time>
      </trkpt>
      <trkpt lat="46.09052" lon="4.35815">
        <ele>772</ele>
        <time>2025-09-28T10:02:11Z</time>
      </trkpt>
      <trkpt lat="46.0905" lon="4.35816">
        <ele>772</ele>
        <time>2025-09-28T10:02:12Z</time>
      </trkpt>
      <trkpt lat="46.09046" lon="4.35815">
        <ele>772</ele>
        <time>2025-09-28T10:02:13Z</time>
      </trkpt>
      <trkpt lat="46.09042" lon="4.35815">
        <ele>772</ele>
        <time>2025-09-28T10:02:14Z</time>
      </trkpt>
      <trkpt lat="46.0904" lon="4.35815">
        <ele>772</ele>
        <time>2025-09-28T10:02:15Z</time>
      </trkpt>
      <trkpt lat="46.09036" lon="4.35816">
        <ele>771.8</ele>
        <time>2025-09-28T10:02:16Z</time>
      </trkpt>
      <trkpt lat="46.09033" lon="4.35818">
        <ele>771.8</ele>
        <time>2025-09-28T10:02:17Z</time>
      </trkpt>
      <trkpt lat="46.09029" lon="4.35816">
        <ele>771.8</ele>
        <time>2025-09-28T10:02:18Z</time>
      </trkpt>
      <trkpt lat="46.09024" lon="4.35817">
        <ele>772.2</ele>
        <time>2025-09-28T10:02:19Z</time>
      </trkpt>
      <trkpt lat="46.09022" lon="4.35817">
        <ele>772.2</ele>
        <time>2025-09-28T10:02:20Z</time>
      </trkpt>
      <trkpt lat="46.0902" lon="4.35816">
        <ele>772.2</ele>
        <time>2025-09-28T10:02:21Z</time>
      </trkpt>
      <trkpt lat="46.09017" lon="4.35816">
        <ele>772.4</ele>
        <time>2025-09-28T10:02:22Z</time>
      </trkpt>
      <trkpt lat="46.09015" lon="4.35817">
        <ele>772.4</ele>
        <time>2025-09-28T10:02:23Z</time>
      </trkpt>
      <trkpt lat="46.09012" lon="4.35818">
        <ele>772.4</ele>
        <time>2025-09-28T10:02:24Z</time>
      </trkpt>
      <trkpt lat="46.0901" lon="4.3582">
        <ele>772</ele>
        <time>2025-09-28T10:02:25Z</time>
      </trkpt>
      <trkpt lat="46.09008" lon="4.35821">
        <ele>772</ele>
        <time>2025-09-28T10:02:26Z</time>
      </trkpt>
      <trkpt lat="46.09005" lon="4.35822">
        <ele>772.8</ele>
        <time>2025-09-28T10:02:27Z</time>
      </trkpt>
      <trkpt lat="46.09002" lon="4.35823">
        <ele>772.8</ele>
        <time>2025-09-28T10:02:28Z</time>
      </trkpt>
      <trkpt lat="46.08999" lon="4.35824">
        <ele>772.8</ele>
        <time>2025-09-28T10:02:29Z</time>
      </trkpt>
      <trkpt lat="46.08997" lon="4.35824">
        <ele>773.4</ele>
        <time>2025-09-28T10:02:30Z</time>
      </trkpt>
      <trkpt lat="46.08994" lon="4.35825">
        <ele>774</ele>
        <time>2025-09-28T10:02:31Z</time>
      </trkpt>
      <trkpt lat="46.0899" lon="4.35825">
        <ele>773.8</ele>
        <time>2025-09-28T10:02:32Z</time>
      </trkpt>
      <trkpt lat="46.08987" lon="4.35825">
        <ele>774</ele>
        <time>2025-09-28T10:02:33Z</time>
      </trkpt>
      <trkpt lat="46.08985" lon="4.35826">
        <ele>774</ele>
        <time>2025-09-28T10:02:34Z</time>
      </trkpt>
      <trkpt lat="46.08982" lon="4.35826">
        <ele>774.4</ele>
        <time>2025-09-28T10:02:35Z</time>
      </trkpt>
      <trkpt lat="46.08979" lon="4.35826">
        <ele>774.6</ele>
        <time>2025-09-28T10:02:36Z</time>
      </trkpt>
      <trkpt lat="46.08976" lon="4.35826">
        <ele>774.8</ele>
        <time>2025-09-28T10:02:37Z</time>
      </trkpt>
      <trkpt lat="46.08974" lon="4.35826">
        <ele>775.2</ele>
        <time>2025-09-28T10:02:38Z</time>
      </trkpt>
      <trkpt lat="46.08971" lon="4.35827">
        <ele>775.2</ele>
        <time>2025-09-28T10:02:39Z</time>
      </trkpt>
      <trkpt lat="46.08968" lon="4.35828">
        <ele>775.2</ele>
        <time>2025-09-28T10:02:40Z</time>
      </trkpt>
      <trkpt lat="46.08965" lon="4.35828">
        <ele>775.6</ele>
        <time>2025-09-28T10:02:41Z</time>
      </trkpt>
      <trkpt lat="46.08962" lon="4.3583">
        <ele>775.2</ele>
        <time>2025-09-28T10:02:42Z</time>
      </trkpt>
      <trkpt lat="46.08959" lon="4.35831">
        <ele>775.2</ele>
        <time>2025-09-28T10:02:43Z</time>
      </trkpt>
      <trkpt lat="46.08956" lon="4.35834">
        <ele>775.2</ele>
        <time>2025-09-28T10:02:44Z</time>
      </trkpt>
      <trkpt lat="46.08953" lon="4.35836">
        <ele>775.2</ele>
        <time>2025-09-28T10:02:45Z</time>
      </trkpt>
      <trkpt lat="46.0895" lon="4.35839">
        <ele>775.2</ele>
        <time>2025-09-28T10:02:46Z</time>
      </trkpt>
      <trkpt lat="46.08947" lon="4.35841">
        <ele>775.6</ele>
        <time>2025-09-28T10:02:47Z</time>
      </trkpt>
      <trkpt lat="46.08944" lon="4.35844">
        <ele>775.6</ele>
        <time>2025-09-28T10:02:48Z</time>
      </trkpt>
      <trkpt lat="46.08941" lon="4.35845">
        <ele>775.6</ele>
        <time>2025-09-28T10:02:49Z</time>
      </trkpt>
      <trkpt lat="46.08939" lon="4.35847">
        <ele>775.8</ele>
        <time>2025-09-28T10:02:50Z</time>
      </trkpt>
      <trkpt lat="46.08937" lon="4.35848">
        <ele>776.2</ele>
        <time>2025-09-28T10:02:51Z</time>
      </trkpt>
      <trkpt lat="46.08935" lon="4.35849">
        <ele>776.2</ele>
        <time>2025-09-28T10:02:52Z</time>
      </trkpt>
      <trkpt lat="46.08934" lon="4.35849">
        <ele>776.2</ele>
        <time>2025-09-28T10:02:53Z</time>
      </trkpt>
      <trkpt lat="46.08933" lon="4.3585">
        <ele>776.6</ele>
        <time>2025-09-28T10:02:54Z</time>
      </trkpt>
      <trkpt lat="46.08931" lon="4.3585">
        <ele>776.6</ele>
        <time>2025-09-28T10:02:55Z</time>
      </trkpt>
      <trkpt lat="46.0893" lon="4.35851">
        <ele>776.8</ele>
        <time>2025-09-28T10:02:56Z</time>
      </trkpt>
      <trkpt lat="46.0893" lon="4.35851">
        <ele>776.8</ele>
        <time>2025-09-28T10:02:57Z</time>
      </trkpt>
      <trkpt lat="46.0893" lon="4.35851">
        <ele>776.8</ele>
        <time>2025-09-28T10:02:58Z</time>
      </trkpt>
      <trkpt lat="46.08931" lon="4.3585">
        <ele>776.8</ele>
        <time>2025-09-28T10:02:59Z</time>
      </trkpt>
      <trkpt lat="46.08924" lon="4.35836">
        <ele>776.8</ele>
        <time>2025-09-28T10:07:44Z</time>
      </trkpt>
      <trkpt lat="46.08924" lon="4.35836">
        <ele>776.8</ele>
        <time>2025-09-28T10:07:45Z</time>
      </trkpt>
      <trkpt lat="46.08925" lon="4.35837">
        <ele>776.8</ele>
        <time>2025-09-28T10:07:46Z</time>
      </trkpt>
      <trkpt lat="46.08925" lon="4.35837">
        <ele>776.8</ele>
        <time>2025-09-28T10:07:47Z</time>
      </trkpt>
      <trkpt lat="46.08924" lon="4.3584">
        <ele>776.6</ele>
        <time>2025-09-28T10:07:51Z</time>
      </trkpt>
      <trkpt lat="46.08924" lon="4.35841">
        <ele>776.6</ele>
        <time>2025-09-28T10:07:52Z</time>
      </trkpt>
      <trkpt lat="46.08924" lon="4.35842">
        <ele>776.6</ele>
        <time>2025-09-28T10:07:53Z</time>
      </trkpt>
      <trkpt lat="46.08925" lon="4.35843">
        <ele>776.6</ele>
        <time>2025-09-28T10:07:54Z</time>
      </trkpt>
      <trkpt lat="46.08925" lon="4.35844">
        <ele>776.6</ele>
        <time>2025-09-28T10:07:55Z</time>
      </trkpt>
      <trkpt lat="46.08929" lon="4.35847">
        <ele>776.8</ele>
        <time>2025-09-28T10:08:18Z</time>
      </trkpt>
      <trkpt lat="46.08928" lon="4.35848">
        <ele>776.8</ele>
        <time>2025-09-28T10:08:19Z</time>
      </trkpt>
      <trkpt lat="46.08926" lon="4.35851">
        <ele>776.8</ele>
        <time>2025-09-28T10:08:20Z</time>
      </trkpt>
      <trkpt lat="46.08925" lon="4.35855">
        <ele>776.8</ele>
        <time>2025-09-28T10:08:21Z</time>
      </trkpt>
      <trkpt lat="46.08924" lon="4.35858">
        <ele>776.8</ele>
        <time>2025-09-28T10:08:22Z</time>
      </trkpt>
      <trkpt lat="46.08923" lon="4.3586">
        <ele>776.8</ele>
        <time>2025-09-28T10:08:23Z</time>
      </trkpt>
      <trkpt lat="46.08922" lon="4.35863">
        <ele>776.8</ele>
        <time>2025-09-28T10:08:24Z</time>
      </trkpt>
      <trkpt lat="46.0892" lon="4.35865">
        <ele>776.8</ele>
        <time>2025-09-28T10:08:25Z</time>
      </trkpt>
      <trkpt lat="46.08919" lon="4.35868">
        <ele>776.8</ele>
        <time>2025-09-28T10:08:26Z</time>
      </trkpt>
      <trkpt lat="46.08917" lon="4.35871">
        <ele>776.8</ele>
        <time>2025-09-28T10:08:27Z</time>
      </trkpt>
      <trkpt lat="46.08915" lon="4.35874">
        <ele>776.8</ele>
        <time>2025-09-28T10:08:28Z</time>
      </trkpt>
      <trkpt lat="46.08913" lon="4.35877">
        <ele>776.8</ele>
        <time>2025-09-28T10:08:29Z</time>
      </trkpt>
      <trkpt lat="46.08911" lon="4.3588">
        <ele>776.8</ele>
        <time>2025-09-28T10:08:30Z</time>
      </trkpt>
      <trkpt lat="46.08909" lon="4.35884">
        <ele>776.8</ele>
        <time>2025-09-28T10:08:31Z</time>
      </trkpt>
      <trkpt lat="46.08907" lon="4.35887">
        <ele>776.8</ele>
        <time>2025-09-28T10:08:32Z</time>
      </trkpt>
      <trkpt lat="46.08905" lon="4.35891">
        <ele>776.8</ele>
        <time>2025-09-28T10:08:33Z</time>
      </trkpt>
      <trkpt lat="46.08903" lon="4.35894">
        <ele>776.8</ele>
        <time>2025-09-28T10:08:34Z</time>
      </trkpt>
      <trkpt lat="46.08902" lon="4.35897">
        <ele>777</ele>
        <time>2025-09-28T10:08:35Z</time>
      </trkpt>
      <trkpt lat="46.089" lon="4.35901">
        <ele>777</ele>
        <time>2025-09-28T10:08:36Z</time>
      </trkpt>
      <trkpt lat="46.08898" lon="4.35905">
        <ele>777</ele>
        <time>2025-09-28T10:08:37Z</time>
      </trkpt>
      <trkpt lat="46.08896" lon="4.35908">
        <ele>777.2</ele>
        <time>2025-09-28T10:08:38Z</time>
      </trkpt>
      <trkpt lat="46.08894" lon="4.35911">
        <ele>777.2</ele>
        <time>2025-09-28T10:08:39Z</time>
      </trkpt>
      <trkpt lat="46.08891" lon="4.35915">
        <ele>777.6</ele>
        <time>2025-09-28T10:08:40Z</time>
      </trkpt>
      <trkpt lat="46.08889" lon="4.35918">
        <ele>777.6</ele>
        <time>2025-09-28T10:08:41Z</time>
      </trkpt>
      <trkpt lat="46.08888" lon="4.35922">
        <ele>777.6</ele>
        <time>2025-09-28T10:08:42Z</time>
      </trkpt>
      <trkpt lat="46.08886" lon="4.35925">
        <ele>777.6</ele>
        <time>2025-09-28T10:08:43Z</time>
      </trkpt>
      <trkpt lat="46.08885" lon="4.35929">
        <ele>777.6</ele>
        <time>2025-09-28T10:08:44Z</time>
      </trkpt>
      <trkpt lat="46.08883" lon="4.35933">
        <ele>777.6</ele>
        <time>2025-09-28T10:08:45Z</time>
      </trkpt>
      <trkpt lat="46.08881" lon="4.35937">
        <ele>777.2</ele>
        <time>2025-09-28T10:08:46Z</time>
      </trkpt>
      <trkpt lat="46.08879" lon="4.35941">
        <ele>777.2</ele>
        <time>2025-09-28T10:08:47Z</time>
      </trkpt>
      <trkpt lat="46.08877" lon="4.35944">
        <ele>777.2</ele>
        <time>2025-09-28T10:08:48Z</time>
      </trkpt>
      <trkpt lat="46.08875" lon="4.35948">
        <ele>777.6</ele>
        <time>2025-09-28T10:08:49Z</time>
      </trkpt>
      <trkpt lat="46.08873" lon="4.35953">
        <ele>777.6</ele>
        <time>2025-09-28T10:08:50Z</time>
      </trkpt>
      <trkpt lat="46.08872" lon="4.35957">
        <ele>778</ele>
        <time>2025-09-28T10:08:51Z</time>
      </trkpt>
      <trkpt lat="46.08871" lon="4.3596">
        <ele>778</ele>
        <time>2025-09-28T10:08:52Z</time>
      </trkpt>
      <trkpt lat="46.08869" lon="4.35964">
        <ele>778</ele>
        <time>2025-09-28T10:08:53Z</time>
      </trkpt>
      <trkpt lat="46.08867" lon="4.35967">
        <ele>778.2</ele>
        <time>2025-09-28T10:08:54Z</time>
      </trkpt>
      <trkpt lat="46.08865" lon="4.3597">
        <ele>778.2</ele>
        <time>2025-09-28T10:08:55Z</time>
      </trkpt>
      <trkpt lat="46.08863" lon="4.35973">
        <ele>778.6</ele>
        <time>2025-09-28T10:08:56Z</time>
      </trkpt>
      <trkpt lat="46.08862" lon="4.35976">
        <ele>778.6</ele>
        <time>2025-09-28T10:08:57Z</time>
      </trkpt>
      <trkpt lat="46.0886" lon="4.35979">
        <ele>778.8</ele>
        <time>2025-09-28T10:08:58Z</time>
      </trkpt>
      <trkpt lat="46.08858" lon="4.35983">
        <ele>778.8</ele>
        <time>2025-09-28T10:08:59Z</time>
      </trkpt>
      <trkpt lat="46.08856" lon="4.35985">
        <ele>779.2</ele>
        <time>2025-09-28T10:09:00Z</time>
      </trkpt>
      <trkpt lat="46.08854" lon="4.35987">
        <ele>779.2</ele>
        <time>2025-09-28T10:09:01Z</time>
      </trkpt>
      <trkpt lat="46.08853" lon="4.35989">
        <ele>779.2</ele>
        <time>2025-09-28T10:09:02Z</time>
      </trkpt>
      <trkpt lat="46.08851" lon="4.35991">
        <ele>779.8</ele>
        <time>2025-09-28T10:09:03Z</time>
      </trkpt>
      <trkpt lat="46.08849" lon="4.35993">
        <ele>780</ele>
        <time>2025-09-28T10:09:04Z</time>
      </trkpt>
      <trkpt lat="46.08847" lon="4.35996">
        <ele>780.2</ele>
        <time>2025-09-28T10:09:05Z</time>
      </trkpt>
      <trkpt lat="46.08846" lon="4.35998">
        <ele>780.8</ele>
        <time>2025-09-28T10:09:06Z</time>
      </trkpt>
      <trkpt lat="46.08845" lon="4.36">
        <ele>780.8</ele>
        <time>2025-09-28T10:09:07Z</time>
      </trkpt>
      <trkpt lat="46.08844" lon="4.36002">
        <ele>781</ele>
        <time>2025-09-28T10:09:08Z</time>
      </trkpt>
      <trkpt lat="46.08842" lon="4.36003">
        <ele>780.8</ele>
        <time>2025-09-28T10:09:09Z</time>
      </trkpt>
      <trkpt lat="46.0884" lon="4.36005">
        <ele>780.8</ele>
        <time>2025-09-28T10:09:10Z</time>
      </trkpt>
      <trkpt lat="46.08838" lon="4.36006">
        <ele>781</ele>
        <time>2025-09-28T10:09:11Z</time>
      </trkpt>
      <trkpt lat="46.08836" lon="4.36008">
        <ele>781.4</ele>
        <time>2025-09-28T10:09:12Z</time>
      </trkpt>
      <trkpt lat="46.08834" lon="4.3601">
        <ele>781.4</ele>
        <time>2025-09-28T10:09:13Z</time>
      </trkpt>
      <trkpt lat="46.08832" lon="4.36012">
        <ele>781.6</ele>
        <time>2025-09-28T10:09:14Z</time>
      </trkpt>
      <trkpt lat="46.08831" lon="4.36014">
        <ele>781.6</ele>
        <time>2025-09-28T10:09:15Z</time>
      </trkpt>
      <trkpt lat="46.08829" lon="4.36015">
        <ele>782.2</ele>
        <time>2025-09-28T10:09:16Z</time>
      </trkpt>
      <trkpt lat="46.08829" lon="4.36017">
        <ele>782.2</ele>
        <time>2025-09-28T10:09:17Z</time>
      </trkpt>
      <trkpt lat="46.08827" lon="4.3602">
        <ele>782.6</ele>
        <time>2025-09-28T10:09:18Z</time>
      </trkpt>
      <trkpt lat="46.08825" lon="4.36023">
        <ele>782.6</ele>
        <time>2025-09-28T10:09:19Z</time>
      </trkpt>
      <trkpt lat="46.08822" lon="4.36026">
        <ele>783.2</ele>
        <time>2025-09-28T10:09:20Z</time>
      </trkpt>
      <trkpt lat="46.0882" lon="4.36028">
        <ele>783.2</ele>
        <time>2025-09-28T10:09:21Z</time>
      </trkpt>
      <trkpt lat="46.08818" lon="4.36031">
        <ele>783.2</ele>
        <time>2025-09-28T10:09:22Z</time>
      </trkpt>
      <trkpt lat="46.08817" lon="4.36033">
        <ele>782.8</ele>
        <time>2025-09-28T10:09:23Z</time>
      </trkpt>
      <trkpt lat="46.08816" lon="4.36035">
        <ele>782.8</ele>
        <time>2025-09-28T10:09:24Z</time>
      </trkpt>
      <trkpt lat="46.08815" lon="4.36038">
        <ele>782.8</ele>
        <time>2025-09-28T10:09:25Z</time>
      </trkpt>
      <trkpt lat="46.08813" lon="4.36042">
        <ele>782.8</ele>
        <time>2025-09-28T10:09:26Z</time>
      </trkpt>
      <trkpt lat="46.08811" lon="4.36045">
        <ele>782.8</ele>
        <time>2025-09-28T10:09:27Z</time>
      </trkpt>
      <trkpt lat="46.0881" lon="4.36049">
        <ele>783.2</ele>
        <time>2025-09-28T10:09:28Z</time>
      </trkpt>
      <trkpt lat="46.08809" lon="4.36052">
        <ele>783.4</ele>
        <time>2025-09-28T10:09:29Z</time>
      </trkpt>
      <trkpt lat="46.08807" lon="4.36055">
        <ele>783.4</ele>
        <time>2025-09-28T10:09:30Z</time>
      </trkpt>
      <trkpt lat="46.08807" lon="4.36058">
        <ele>783.4</ele>
        <time>2025-09-28T10:09:31Z</time>
      </trkpt>
      <trkpt lat="46.08806" lon="4.3606">
        <ele>783.4</ele>
        <time>2025-09-28T10:09:32Z</time>
      </trkpt>
      <trkpt lat="46.08805" lon="4.36063">
        <ele>783.6</ele>
        <time>2025-09-28T10:09:33Z</time>
      </trkpt>
      <trkpt lat="46.08804" lon="4.36067">
        <ele>783.6</ele>
        <time>2025-09-28T10:09:34Z</time>
      </trkpt>
      <trkpt lat="46.08803" lon="4.36071">
        <ele>784.2</ele>
        <time>2025-09-28T10:09:35Z</time>
      </trkpt>
      <trkpt lat="46.08802" lon="4.36075">
        <ele>784.2</ele>
        <time>2025-09-28T10:09:36Z</time>
      </trkpt>
      <trkpt lat="46.08802" lon="4.36077">
        <ele>784.2</ele>
        <time>2025-09-28T10:09:37Z</time>
      </trkpt>
      <trkpt lat="46.08801" lon="4.36081">
        <ele>784.2</ele>
        <time>2025-09-28T10:09:38Z</time>
      </trkpt>
      <trkpt lat="46.088" lon="4.36084">
        <ele>784.2</ele>
        <time>2025-09-28T10:09:39Z</time>
      </trkpt>
      <trkpt lat="46.08799" lon="4.36088">
        <ele>784.2</ele>
        <time>2025-09-28T10:09:40Z</time>
      </trkpt>
      <trkpt lat="46.08798" lon="4.36091">
        <ele>784.4</ele>
        <time>2025-09-28T10:09:41Z</time>
      </trkpt>
      <trkpt lat="46.08797" lon="4.36094">
        <ele>784.4</ele>
        <time>2025-09-28T10:09:42Z</time>
      </trkpt>
      <trkpt lat="46.08795" lon="4.36097">
        <ele>784.4</ele>
        <time>2025-09-28T10:09:43Z</time>
      </trkpt>
      <trkpt lat="46.08794" lon="4.36101">
        <ele>784.4</ele>
        <time>2025-09-28T10:09:44Z</time>
      </trkpt>
      <trkpt lat="46.08793" lon="4.36104">
        <ele>784.4</ele>
        <time>2025-09-28T10:09:45Z</time>
      </trkpt>
      <trkpt lat="46.08791" lon="4.36107">
        <ele>784.4</ele>
        <time>2025-09-28T10:09:46Z</time>
      </trkpt>
      <trkpt lat="46.0879" lon="4.3611">
        <ele>784.6</ele>
        <time>2025-09-28T10:09:47Z</time>
      </trkpt>
      <trkpt lat="46.08788" lon="4.36113">
        <ele>784.6</ele>
        <time>2025-09-28T10:09:48Z</time>
      </trkpt>
      <trkpt lat="46.08787" lon="4.36117">
        <ele>784.6</ele>
        <time>2025-09-28T10:09:49Z</time>
      </trkpt>
      <trkpt lat="46.08785" lon="4.3612">
        <ele>784.6</ele>
        <time>2025-09-28T10:09:50Z</time>
      </trkpt>
      <trkpt lat="46.08783" lon="4.36122">
        <ele>785.2</ele>
        <time>2025-09-28T10:09:51Z</time>
      </trkpt>
      <trkpt lat="46.08781" lon="4.36125">
        <ele>785.2</ele>
        <time>2025-09-28T10:09:52Z</time>
      </trkpt>
      <trkpt lat="46.0878" lon="4.36128">
        <ele>785.2</ele>
        <time>2025-09-28T10:09:53Z</time>
      </trkpt>
      <trkpt lat="46.08778" lon="4.3613">
        <ele>785.2</ele>
        <time>2025-09-28T10:09:54Z</time>
      </trkpt>
      <trkpt lat="46.08777" lon="4.36133">
        <ele>785.2</ele>
        <time>2025-09-28T10:09:55Z</time>
      </trkpt>
      <trkpt lat="46.08776" lon="4.36136">
        <ele>785.4</ele>
        <time>2025-09-28T10:09:56Z</time>
      </trkpt>
      <trkpt lat="46.08774" lon="4.36139">
        <ele>785.4</ele>
        <time>2025-09-28T10:09:57Z</time>
      </trkpt>
      <trkpt lat="46.08773" lon="4.36141">
        <ele>786</ele>
        <time>2025-09-28T10:09:58Z</time>
      </trkpt>
      <trkpt lat="46.08771" lon="4.36143">
        <ele>786.2</ele>
        <time>2025-09-28T10:09:59Z</time>
      </trkpt>
      <trkpt lat="46.0877" lon="4.36146">
        <ele>786.2</ele>
        <time>2025-09-28T10:10:00Z</time>
      </trkpt>
      <trkpt lat="46.08769" lon="4.36148">
        <ele>786.6</ele>
        <time>2025-09-28T10:10:01Z</time>
      </trkpt>
      <trkpt lat="46.08767" lon="4.36151">
        <ele>786.6</ele>
        <time>2025-09-28T10:10:02Z</time>
      </trkpt>
      <trkpt lat="46.08766" lon="4.36154">
        <ele>786.8</ele>
        <time>2025-09-28T10:10:03Z</time>
      </trkpt>
      <trkpt lat="46.08764" lon="4.36156">
        <ele>787.2</ele>
        <time>2025-09-28T10:10:04Z</time>
      </trkpt>
      <trkpt lat="46.08762" lon="4.36159">
        <ele>787.4</ele>
        <time>2025-09-28T10:10:05Z</time>
      </trkpt>
      <trkpt lat="46.0876" lon="4.36161">
        <ele>787.4</ele>
        <time>2025-09-28T10:10:06Z</time>
      </trkpt>
      <trkpt lat="46.08758" lon="4.36163">
        <ele>787.8</ele>
        <time>2025-09-28T10:10:07Z</time>
      </trkpt>
      <trkpt lat="46.08757" lon="4.36166">
        <ele>787.8</ele>
        <time>2025-09-28T10:10:08Z</time>
      </trkpt>
      <trkpt lat="46.08755" lon="4.36169">
        <ele>788</ele>
        <time>2025-09-28T10:10:09Z</time>
      </trkpt>
      <trkpt lat="46.08754" lon="4.36171">
        <ele>788.2</ele>
        <time>2025-09-28T10:10:10Z</time>
      </trkpt>
      <trkpt lat="46.08752" lon="4.36174">
        <ele>788.2</ele>
        <time>2025-09-28T10:10:11Z</time>
      </trkpt>
      <trkpt lat="46.08751" lon="4.36176">
        <ele>788.6</ele>
        <time>2025-09-28T10:10:12Z</time>
      </trkpt>
      <trkpt lat="46.08749" lon="4.36179">
        <ele>788.6</ele>
        <time>2025-09-28T10:10:13Z</time>
      </trkpt>
      <trkpt lat="46.08747" lon="4.36182">
        <ele>789</ele>
        <time>2025-09-28T10:10:14Z</time>
      </trkpt>
      <trkpt lat="46.08745" lon="4.36184">
        <ele>789</ele>
        <time>2025-09-28T10:10:15Z</time>
      </trkpt>
      <trkpt lat="46.08744" lon="4.36186">
        <ele>789</ele>
        <time>2025-09-28T10:10:16Z</time>
      </trkpt>
      <trkpt lat="46.08742" lon="4.36188">
        <ele>789</ele>
        <time>2025-09-28T10:10:17Z</time>
      </trkpt>
      <trkpt lat="46.0874" lon="4.36191">
        <ele>789</ele>
        <time>2025-09-28T10:10:18Z</time>
      </trkpt>
      <trkpt lat="46.08739" lon="4.36193">
        <ele>789</ele>
        <time>2025-09-28T10:10:19Z</time>
      </trkpt>
      <trkpt lat="46.08738" lon="4.36195">
        <ele>789.4</ele>
        <time>2025-09-28T10:10:20Z</time>
      </trkpt>
      <trkpt lat="46.08736" lon="4.36197">
        <ele>789.4</ele>
        <time>2025-09-28T10:10:21Z</time>
      </trkpt>
      <trkpt lat="46.08734" lon="4.362">
        <ele>789.4</ele>
        <time>2025-09-28T10:10:22Z</time>
      </trkpt>
      <trkpt lat="46.08733" lon="4.36202">
        <ele>789.4</ele>
        <time>2025-09-28T10:10:23Z</time>
      </trkpt>
      <trkpt lat="46.08731" lon="4.36204">
        <ele>789.6</ele>
        <time>2025-09-28T10:10:24Z</time>
      </trkpt>
      <trkpt lat="46.08729" lon="4.36207">
        <ele>789.6</ele>
        <time>2025-09-28T10:10:25Z</time>
      </trkpt>
      <trkpt lat="46.08727" lon="4.36209">
        <ele>789.6</ele>
        <time>2025-09-28T10:10:26Z</time>
      </trkpt>
      <trkpt lat="46.08725" lon="4.36211">
        <ele>789.6</ele>
        <time>2025-09-28T10:10:27Z</time>
      </trkpt>
      <trkpt lat="46.08724" lon="4.36212">
        <ele>789.6</ele>
        <time>2025-09-28T10:10:28Z</time>
      </trkpt>
      <trkpt lat="46.08723" lon="4.36214">
        <ele>789.6</ele>
        <time>2025-09-28T10:10:29Z</time>
      </trkpt>
      <trkpt lat="46.08722" lon="4.36216">
        <ele>789.6</ele>
        <time>2025-09-28T10:10:30Z</time>
      </trkpt>
      <trkpt lat="46.08722" lon="4.36216">
        <ele>789.6</ele>
        <time>2025-09-28T10:10:31Z</time>
      </trkpt>
      <trkpt lat="46.08722" lon="4.36217">
        <ele>789.6</ele>
        <time>2025-09-28T10:10:32Z</time>
      </trkpt>
      <trkpt lat="46.08721" lon="4.3622">
        <ele>789.6</ele>
        <time>2025-09-28T10:10:33Z</time>
      </trkpt>
      <trkpt lat="46.08719" lon="4.36223">
        <ele>789.6</ele>
        <time>2025-09-28T10:10:34Z</time>
      </trkpt>
      <trkpt lat="46.08717" lon="4.36225">
        <ele>789.6</ele>
        <time>2025-09-28T10:10:35Z</time>
      </trkpt>
      <trkpt lat="46.08716" lon="4.36226">
        <ele>789.6</ele>
        <time>2025-09-28T10:10:36Z</time>
      </trkpt>
      <trkpt lat="46.08715" lon="4.36227">
        <ele>789</ele>
        <time>2025-09-28T10:10:37Z</time>
      </trkpt>
      <trkpt lat="46.08714" lon="4.36228">
        <ele>789</ele>
        <time>2025-09-28T10:10:38Z</time>
      </trkpt>
      <trkpt lat="46.08713" lon="4.36232">
        <ele>788.6</ele>
        <time>2025-09-28T10:10:39Z</time>
      </trkpt>
      <trkpt lat="46.08712" lon="4.36235">
        <ele>788.6</ele>
        <time>2025-09-28T10:10:40Z</time>
      </trkpt>
      <trkpt lat="46.0871" lon="4.36239">
        <ele>788.6</ele>
        <time>2025-09-28T10:10:41Z</time>
      </trkpt>
      <trkpt lat="46.08706" lon="4.36243">
        <ele>787.8</ele>
        <time>2025-09-28T10:10:42Z</time>
      </trkpt>
      <trkpt lat="46.08703" lon="4.36248">
        <ele>787.6</ele>
        <time>2025-09-28T10:10:43Z</time>
      </trkpt>
      <trkpt lat="46.08699" lon="4.36252">
        <ele>787.2</ele>
        <time>2025-09-28T10:10:44Z</time>
      </trkpt>
      <trkpt lat="46.08696" lon="4.36256">
        <ele>787</ele>
        <time>2025-09-28T10:10:45Z</time>
      </trkpt>
      <trkpt lat="46.08692" lon="4.36261">
        <ele>786.4</ele>
        <time>2025-09-28T10:10:46Z</time>
      </trkpt>
      <trkpt lat="46.08686" lon="4.36271">
        <ele>785.8</ele>
        <time>2025-09-28T10:10:47Z</time>
      </trkpt>
      <trkpt lat="46.08683" lon="4.36275">
        <ele>786.2</ele>
        <time>2025-09-28T10:10:48Z</time>
      </trkpt>
      <trkpt lat="46.0868" lon="4.36281">
        <ele>786.2</ele>
        <time>2025-09-28T10:10:49Z</time>
      </trkpt>
      <trkpt lat="46.08677" lon="4.36287">
        <ele>785.4</ele>
        <time>2025-09-28T10:10:50Z</time>
      </trkpt>
      <trkpt lat="46.0867" lon="4.36296">
        <ele>784.6</ele>
        <time>2025-09-28T10:10:51Z</time>
      </trkpt>
      <trkpt lat="46.08665" lon="4.36303">
        <ele>783.8</ele>
        <time>2025-09-28T10:10:52Z</time>
      </trkpt>
      <trkpt lat="46.08659" lon="4.36311">
        <ele>783.4</ele>
        <time>2025-09-28T10:10:53Z</time>
      </trkpt>
      <trkpt lat="46.08653" lon="4.3632">
        <ele>782.8</ele>
        <time>2025-09-28T10:10:54Z</time>
      </trkpt>
      <trkpt lat="46.08648" lon="4.36326">
        <ele>782.8</ele>
        <time>2025-09-28T10:10:55Z</time>
      </trkpt>
      <trkpt lat="46.08642" lon="4.36334">
        <ele>781.8</ele>
        <time>2025-09-28T10:10:56Z</time>
      </trkpt>
      <trkpt lat="46.08636" lon="4.36337">
        <ele>781.8</ele>
        <time>2025-09-28T10:10:57Z</time>
      </trkpt>
      <trkpt lat="46.0863" lon="4.36346">
        <ele>781.4</ele>
        <time>2025-09-28T10:10:58Z</time>
      </trkpt>
      <trkpt lat="46.08627" lon="4.36354">
        <ele>781</ele>
        <time>2025-09-28T10:10:59Z</time>
      </trkpt>
      <trkpt lat="46.08623" lon="4.36362">
        <ele>780.2</ele>
        <time>2025-09-28T10:11:00Z</time>
      </trkpt>
      <trkpt lat="46.08619" lon="4.36367">
        <ele>780.6</ele>
        <time>2025-09-28T10:11:01Z</time>
      </trkpt>
      <trkpt lat="46.08616" lon="4.36377">
        <ele>779.8</ele>
        <time>2025-09-28T10:11:02Z</time>
      </trkpt>
      <trkpt lat="46.08612" lon="4.36383">
        <ele>779.2</ele>
        <time>2025-09-28T10:11:03Z</time>
      </trkpt>
      <trkpt lat="46.08609" lon="4.36394">
        <ele>779.2</ele>
        <time>2025-09-28T10:11:04Z</time>
      </trkpt>
      <trkpt lat="46.08606" lon="4.36401">
        <ele>779.2</ele>
        <time>2025-09-28T10:11:05Z</time>
      </trkpt>
      <trkpt lat="46.08603" lon="4.36409">
        <ele>778.8</ele>
        <time>2025-09-28T10:11:06Z</time>
      </trkpt>
      <trkpt lat="46.08599" lon="4.36418">
        <ele>778.8</ele>
        <time>2025-09-28T10:11:07Z</time>
      </trkpt>
      <trkpt lat="46.08596" lon="4.36427">
        <ele>778.8</ele>
        <time>2025-09-28T10:11:08Z</time>
      </trkpt>
      <trkpt lat="46.08593" lon="4.36434">
        <ele>778.4</ele>
        <time>2025-09-28T10:11:09Z</time>
      </trkpt>
      <trkpt lat="46.08591" lon="4.36439">
        <ele>778.4</ele>
        <time>2025-09-28T10:11:10Z</time>
      </trkpt>
      <trkpt lat="46.08589" lon="4.36446">
        <ele>778.2</ele>
        <time>2025-09-28T10:11:11Z</time>
      </trkpt>
      <trkpt lat="46.08586" lon="4.36453">
        <ele>778.8</ele>
        <time>2025-09-28T10:11:12Z</time>
      </trkpt>
      <trkpt lat="46.08585" lon="4.36458">
        <ele>778.8</ele>
        <time>2025-09-28T10:11:13Z</time>
      </trkpt>
      <trkpt lat="46.08585" lon="4.36458">
        <ele>778.8</ele>
        <time>2025-09-28T10:11:14Z</time>
      </trkpt>
      <trkpt lat="46.08585" lon="4.36458">
        <ele>778.2</ele>
        <time>2025-09-28T10:11:15Z</time>
      </trkpt>
      <trkpt lat="46.08578" lon="4.36481">
        <ele>778.6</ele>
        <time>2025-09-28T10:11:17Z</time>
      </trkpt>
      <trkpt lat="46.08577" lon="4.36488">
        <ele>779.2</ele>
        <time>2025-09-28T10:11:18Z</time>
      </trkpt>
      <trkpt lat="46.08576" lon="4.36492">
        <ele>779.2</ele>
        <time>2025-09-28T10:11:19Z</time>
      </trkpt>
      <trkpt lat="46.08573" lon="4.365">
        <ele>779.4</ele>
        <time>2025-09-28T10:11:20Z</time>
      </trkpt>
      <trkpt lat="46.08573" lon="4.36507">
        <ele>779.4</ele>
        <time>2025-09-28T10:11:21Z</time>
      </trkpt>
      <trkpt lat="46.08573" lon="4.36513">
        <ele>779</ele>
        <time>2025-09-28T10:11:22Z</time>
      </trkpt>
      <trkpt lat="46.08573" lon="4.36518">
        <ele>779</ele>
        <time>2025-09-28T10:11:23Z</time>
      </trkpt>
      <trkpt lat="46.08571" lon="4.36522">
        <ele>779</ele>
        <time>2025-09-28T10:11:24Z</time>
      </trkpt>
      <trkpt lat="46.08569" lon="4.36528">
        <ele>779.2</ele>
        <time>2025-09-28T10:11:25Z</time>
      </trkpt>
      <trkpt lat="46.08568" lon="4.36533">
        <ele>779.2</ele>
        <time>2025-09-28T10:11:26Z</time>
      </trkpt>
      <trkpt lat="46.08566" lon="4.36538">
        <ele>779.2</ele>
        <time>2025-09-28T10:11:27Z</time>
      </trkpt>
      <trkpt lat="46.08565" lon="4.36543">
        <ele>779.2</ele>
        <time>2025-09-28T10:11:28Z</time>
      </trkpt>
      <trkpt lat="46.08564" lon="4.36548">
        <ele>779.4</ele>
        <time>2025-09-28T10:11:29Z</time>
      </trkpt>
      <trkpt lat="46.08564" lon="4.36554">
        <ele>779.4</ele>
        <time>2025-09-28T10:11:30Z</time>
      </trkpt>
      <trkpt lat="46.08564" lon="4.3656">
        <ele>779.4</ele>
        <time>2025-09-28T10:11:31Z</time>
      </trkpt>
      <trkpt lat="46.08564" lon="4.36566">
        <ele>778.8</ele>
        <time>2025-09-28T10:11:32Z</time>
      </trkpt>
      <trkpt lat="46.08565" lon="4.36572">
        <ele>778.4</ele>
        <time>2025-09-28T10:11:33Z</time>
      </trkpt>
      <trkpt lat="46.08565" lon="4.36578">
        <ele>778.6</ele>
        <time>2025-09-28T10:11:34Z</time>
      </trkpt>
      <trkpt lat="46.08566" lon="4.36583">
        <ele>779</ele>
        <time>2025-09-28T10:11:35Z</time>
      </trkpt>
      <trkpt lat="46.08567" lon="4.36589">
        <ele>779</ele>
        <time>2025-09-28T10:11:36Z</time>
      </trkpt>
      <trkpt lat="46.08568" lon="4.36595">
        <ele>779.2</ele>
        <time>2025-09-28T10:11:37Z</time>
      </trkpt>
      <trkpt lat="46.08569" lon="4.36601">
        <ele>779.6</ele>
        <time>2025-09-28T10:11:38Z</time>
      </trkpt>
      <trkpt lat="46.0857" lon="4.36606">
        <ele>779.8</ele>
        <time>2025-09-28T10:11:39Z</time>
      </trkpt>
      <trkpt lat="46.08571" lon="4.36612">
        <ele>780.2</ele>
        <time>2025-09-28T10:11:40Z</time>
      </trkpt>
      <trkpt lat="46.0857" lon="4.36618">
        <ele>780.2</ele>
        <time>2025-09-28T10:11:41Z</time>
      </trkpt>
      <trkpt lat="46.08573" lon="4.36624">
        <ele>780.2</ele>
        <time>2025-09-28T10:11:42Z</time>
      </trkpt>
      <trkpt lat="46.08573" lon="4.3663">
        <ele>780.4</ele>
        <time>2025-09-28T10:11:43Z</time>
      </trkpt>
      <trkpt lat="46.08574" lon="4.36635">
        <ele>780.6</ele>
        <time>2025-09-28T10:11:44Z</time>
      </trkpt>
      <trkpt lat="46.08574" lon="4.36639">
        <ele>780.6</ele>
        <time>2025-09-28T10:11:45Z</time>
      </trkpt>
      <trkpt lat="46.08574" lon="4.36645">
        <ele>780.6</ele>
        <time>2025-09-28T10:11:46Z</time>
      </trkpt>
      <trkpt lat="46.08574" lon="4.3665">
        <ele>781</ele>
        <time>2025-09-28T10:11:47Z</time>
      </trkpt>
      <trkpt lat="46.08576" lon="4.36654">
        <ele>781.4</ele>
        <time>2025-09-28T10:11:48Z</time>
      </trkpt>
      <trkpt lat="46.08576" lon="4.3666">
        <ele>781.6</ele>
        <time>2025-09-28T10:11:49Z</time>
      </trkpt>
      <trkpt lat="46.08575" lon="4.36664">
        <ele>781.8</ele>
        <time>2025-09-28T10:11:50Z</time>
      </trkpt>
      <trkpt lat="46.08575" lon="4.36667">
        <ele>782.4</ele>
        <time>2025-09-28T10:11:51Z</time>
      </trkpt>
      <trkpt lat="46.08574" lon="4.36671">
        <ele>782.4</ele>
        <time>2025-09-28T10:11:52Z</time>
      </trkpt>
      <trkpt lat="46.08573" lon="4.36675">
        <ele>782.6</ele>
        <time>2025-09-28T10:11:53Z</time>
      </trkpt>
      <trkpt lat="46.08573" lon="4.36675">
        <ele>782.6</ele>
        <time>2025-09-28T10:11:54Z</time>
      </trkpt>
      <trkpt lat="46.08573" lon="4.36675">
        <ele>783.2</ele>
        <time>2025-09-28T10:11:55Z</time>
      </trkpt>
      <trkpt lat="46.08572" lon="4.36683">
        <ele>783.6</ele>
        <time>2025-09-28T10:11:56Z</time>
      </trkpt>
      <trkpt lat="46.08572" lon="4.36686">
        <ele>784</ele>
        <time>2025-09-28T10:11:57Z</time>
      </trkpt>
      <trkpt lat="46.08573" lon="4.36689">
        <ele>784</ele>
        <time>2025-09-28T10:11:58Z</time>
      </trkpt>
      <trkpt lat="46.08573" lon="4.36692">
        <ele>784</ele>
        <time>2025-09-28T10:11:59Z</time>
      </trkpt>
      <trkpt lat="46.08573" lon="4.36696">
        <ele>784.2</ele>
        <time>2025-09-28T10:12:00Z</time>
      </trkpt>
      <trkpt lat="46.08574" lon="4.36704">
        <ele>784.2</ele>
        <time>2025-09-28T10:12:01Z</time>
      </trkpt>
      <trkpt lat="46.08574" lon="4.36708">
        <ele>784.6</ele>
        <time>2025-09-28T10:12:02Z</time>
      </trkpt>
      <trkpt lat="46.08574" lon="4.36714">
        <ele>784.8</ele>
        <time>2025-09-28T10:12:03Z</time>
      </trkpt>
      <trkpt lat="46.08573" lon="4.36719">
        <ele>784.8</ele>
        <time>2025-09-28T10:12:04Z</time>
      </trkpt>
      <trkpt lat="46.08573" lon="4.36722">
        <ele>784.8</ele>
        <time>2025-09-28T10:12:05Z</time>
      </trkpt>
      <trkpt lat="46.08572" lon="4.36727">
        <ele>784.8</ele>
        <time>2025-09-28T10:12:06Z</time>
      </trkpt>
      <trkpt lat="46.08572" lon="4.36731">
        <ele>785.2</ele>
        <time>2025-09-28T10:12:07Z</time>
      </trkpt>
      <trkpt lat="46.08571" lon="4.36736">
        <ele>785</ele>
        <time>2025-09-28T10:12:08Z</time>
      </trkpt>
      <trkpt lat="46.0857" lon="4.3674">
        <ele>784.8</ele>
        <time>2025-09-28T10:12:09Z</time>
      </trkpt>
      <trkpt lat="46.0857" lon="4.36745">
        <ele>784.8</ele>
        <time>2025-09-28T10:12:10Z</time>
      </trkpt>
      <trkpt lat="46.0857" lon="4.3675">
        <ele>784</ele>
        <time>2025-09-28T10:12:11Z</time>
      </trkpt>
      <trkpt lat="46.0857" lon="4.36756">
        <ele>784</ele>
        <time>2025-09-28T10:12:12Z</time>
      </trkpt>
      <trkpt lat="46.0857" lon="4.36761">
        <ele>784</ele>
        <time>2025-09-28T10:12:13Z</time>
      </trkpt>
      <trkpt lat="46.08569" lon="4.36765">
        <ele>783.8</ele>
        <time>2025-09-28T10:12:14Z</time>
      </trkpt>
      <trkpt lat="46.08567" lon="4.3677">
        <ele>783.8</ele>
        <time>2025-09-28T10:12:15Z</time>
      </trkpt>
      <trkpt lat="46.08565" lon="4.36776">
        <ele>783.8</ele>
        <time>2025-09-28T10:12:16Z</time>
      </trkpt>
      <trkpt lat="46.08562" lon="4.36781">
        <ele>783.8</ele>
        <time>2025-09-28T10:12:17Z</time>
      </trkpt>
      <trkpt lat="46.08559" lon="4.36786">
        <ele>783.4</ele>
        <time>2025-09-28T10:12:18Z</time>
      </trkpt>
      <trkpt lat="46.08557" lon="4.36791">
        <ele>783.4</ele>
        <time>2025-09-28T10:12:19Z</time>
      </trkpt>
      <trkpt lat="46.08554" lon="4.36796">
        <ele>783.2</ele>
        <time>2025-09-28T10:12:20Z</time>
      </trkpt>
      <trkpt lat="46.08547" lon="4.36801">
        <ele>783.2</ele>
        <time>2025-09-28T10:12:21Z</time>
      </trkpt>
      <trkpt lat="46.08544" lon="4.36806">
        <ele>783.2</ele>
        <time>2025-09-28T10:12:22Z</time>
      </trkpt>
      <trkpt lat="46.08541" lon="4.36812">
        <ele>782.8</ele>
        <time>2025-09-28T10:12:23Z</time>
      </trkpt>
      <trkpt lat="46.08537" lon="4.36816">
        <ele>782.8</ele>
        <time>2025-09-28T10:12:24Z</time>
      </trkpt>
      <trkpt lat="46.08535" lon="4.3682">
        <ele>782.8</ele>
        <time>2025-09-28T10:12:25Z</time>
      </trkpt>
      <trkpt lat="46.08531" lon="4.36823">
        <ele>782.8</ele>
        <time>2025-09-28T10:12:26Z</time>
      </trkpt>
      <trkpt lat="46.08525" lon="4.36824">
        <ele>782.8</ele>
        <time>2025-09-28T10:12:27Z</time>
      </trkpt>
      <trkpt lat="46.08521" lon="4.36828">
        <ele>782.8</ele>
        <time>2025-09-28T10:12:28Z</time>
      </trkpt>
      <trkpt lat="46.08516" lon="4.3683">
        <ele>782.8</ele>
        <time>2025-09-28T10:12:29Z</time>
      </trkpt>
      <trkpt lat="46.08512" lon="4.36834">
        <ele>782.8</ele>
        <time>2025-09-28T10:12:30Z</time>
      </trkpt>
      <trkpt lat="46.0851" lon="4.36839">
        <ele>782.8</ele>
        <time>2025-09-28T10:12:31Z</time>
      </trkpt>
      <trkpt lat="46.08506" lon="4.36842">
        <ele>782.6</ele>
        <time>2025-09-28T10:12:32Z</time>
      </trkpt>
      <trkpt lat="46.08502" lon="4.36844">
        <ele>782.2</ele>
        <time>2025-09-28T10:12:33Z</time>
      </trkpt>
      <trkpt lat="46.08497" lon="4.36849">
        <ele>782</ele>
        <time>2025-09-28T10:12:34Z</time>
      </trkpt>
      <trkpt lat="46.08491" lon="4.3685">
        <ele>781.6</ele>
        <time>2025-09-28T10:12:35Z</time>
      </trkpt>
      <trkpt lat="46.08486" lon="4.36855">
        <ele>781.6</ele>
        <time>2025-09-28T10:12:36Z</time>
      </trkpt>
      <trkpt lat="46.08482" lon="4.36858">
        <ele>781.8</ele>
        <time>2025-09-28T10:12:37Z</time>
      </trkpt>
      <trkpt lat="46.08476" lon="4.36861">
        <ele>781.6</ele>
        <time>2025-09-28T10:12:38Z</time>
      </trkpt>
      <trkpt lat="46.08469" lon="4.36861">
        <ele>781.2</ele>
        <time>2025-09-28T10:12:39Z</time>
      </trkpt>
      <trkpt lat="46.08463" lon="4.36865">
        <ele>780.8</ele>
        <time>2025-09-28T10:12:40Z</time>
      </trkpt>
      <trkpt lat="46.08456" lon="4.36867">
        <ele>780.6</ele>
        <time>2025-09-28T10:12:41Z</time>
      </trkpt>
      <trkpt lat="46.0845" lon="4.36871">
        <ele>780.2</ele>
        <time>2025-09-28T10:12:42Z</time>
      </trkpt>
      <trkpt lat="46.08444" lon="4.36875">
        <ele>779.6</ele>
        <time>2025-09-28T10:12:43Z</time>
      </trkpt>
      <trkpt lat="46.0844" lon="4.36878">
        <ele>779.8</ele>
        <time>2025-09-28T10:12:44Z</time>
      </trkpt>
      <trkpt lat="46.08437" lon="4.3688">
        <ele>779.2</ele>
        <time>2025-09-28T10:12:45Z</time>
      </trkpt>
      <trkpt lat="46.08431" lon="4.36884">
        <ele>779.2</ele>
        <time>2025-09-28T10:12:46Z</time>
      </trkpt>
      <trkpt lat="46.08426" lon="4.36887">
        <ele>779.2</ele>
        <time>2025-09-28T10:12:47Z</time>
      </trkpt>
      <trkpt lat="46.0842" lon="4.36891">
        <ele>778.4</ele>
        <time>2025-09-28T10:12:48Z</time>
      </trkpt>
      <trkpt lat="46.08416" lon="4.36897">
        <ele>779</ele>
        <time>2025-09-28T10:12:49Z</time>
      </trkpt>
      <trkpt lat="46.0841" lon="4.369">
        <ele>779.2</ele>
        <time>2025-09-28T10:12:50Z</time>
      </trkpt>
      <trkpt lat="46.08405" lon="4.36907">
        <ele>779.2</ele>
        <time>2025-09-28T10:12:51Z</time>
      </trkpt>
      <trkpt lat="46.084" lon="4.36911">
        <ele>778.8</ele>
        <time>2025-09-28T10:12:52Z</time>
      </trkpt>
      <trkpt lat="46.08395" lon="4.36914">
        <ele>778.8</ele>
        <time>2025-09-28T10:12:53Z</time>
      </trkpt>
      <trkpt lat="46.0839" lon="4.36915">
        <ele>778.6</ele>
        <time>2025-09-28T10:12:54Z</time>
      </trkpt>
      <trkpt lat="46.08386" lon="4.36918">
        <ele>778.6</ele>
        <time>2025-09-28T10:12:55Z</time>
      </trkpt>
      <trkpt lat="46.08381" lon="4.36921">
        <ele>779</ele>
        <time>2025-09-28T10:12:56Z</time>
      </trkpt>
      <trkpt lat="46.08375" lon="4.36923">
        <ele>779.2</ele>
        <time>2025-09-28T10:12:57Z</time>
      </trkpt>
      <trkpt lat="46.08371" lon="4.36925">
        <ele>779.2</ele>
        <time>2025-09-28T10:12:58Z</time>
      </trkpt>
      <trkpt lat="46.08366" lon="4.36929">
        <ele>778.8</ele>
        <time>2025-09-28T10:12:59Z</time>
      </trkpt>
      <trkpt lat="46.08361" lon="4.36933">
        <ele>778.6</ele>
        <time>2025-09-28T10:13:00Z</time>
      </trkpt>
      <trkpt lat="46.08358" lon="4.36935">
        <ele>778.2</ele>
        <time>2025-09-28T10:13:01Z</time>
      </trkpt>
      <trkpt lat="46.08356" lon="4.36935">
        <ele>778.2</ele>
        <time>2025-09-28T10:13:02Z</time>
      </trkpt>
      <trkpt lat="46.08355" lon="4.36939">
        <ele>778</ele>
        <time>2025-09-28T10:13:03Z</time>
      </trkpt>
      <trkpt lat="46.08352" lon="4.36941">
        <ele>777.6</ele>
        <time>2025-09-28T10:13:04Z</time>
      </trkpt>
      <trkpt lat="46.0835" lon="4.36943">
        <ele>777.2</ele>
        <time>2025-09-28T10:13:05Z</time>
      </trkpt>
      <trkpt lat="46.0835" lon="4.36943">
        <ele>777.2</ele>
        <time>2025-09-28T10:13:06Z</time>
      </trkpt>
      <trkpt lat="46.08348" lon="4.36945">
        <ele>777.2</ele>
        <time>2025-09-28T10:13:07Z</time>
      </trkpt>
      <trkpt lat="46.08348" lon="4.36944">
        <ele>777.2</ele>
        <time>2025-09-28T10:13:08Z</time>
      </trkpt>
      <trkpt lat="46.08347" lon="4.36943">
        <ele>777.2</ele>
        <time>2025-09-28T10:13:09Z</time>
      </trkpt>
      <trkpt lat="46.08348" lon="4.36944">
        <ele>777.2</ele>
        <time>2025-09-28T10:13:10Z</time>
      </trkpt>
      <trkpt lat="46.08344" lon="4.36949">
        <ele>776.6</ele>
        <time>2025-09-28T10:13:16Z</time>
      </trkpt>
      <trkpt lat="46.08343" lon="4.36951">
        <ele>776.6</ele>
        <time>2025-09-28T10:13:17Z</time>
      </trkpt>
      <trkpt lat="46.08342" lon="4.36952">
        <ele>777.2</ele>
        <time>2025-09-28T10:13:18Z</time>
      </trkpt>
      <trkpt lat="46.0834" lon="4.36955">
        <ele>777.2</ele>
        <time>2025-09-28T10:13:19Z</time>
      </trkpt>
      <trkpt lat="46.08338" lon="4.36958">
        <ele>776.6</ele>
        <time>2025-09-28T10:13:20Z</time>
      </trkpt>
      <trkpt lat="46.08335" lon="4.36961">
        <ele>776.6</ele>
        <time>2025-09-28T10:13:21Z</time>
      </trkpt>
      <trkpt lat="46.08331" lon="4.36964">
        <ele>776.4</ele>
        <time>2025-09-28T10:13:22Z</time>
      </trkpt>
      <trkpt lat="46.08328" lon="4.36967">
        <ele>776</ele>
        <time>2025-09-28T10:13:23Z</time>
      </trkpt>
      <trkpt lat="46.08325" lon="4.3697">
        <ele>776</ele>
        <time>2025-09-28T10:13:24Z</time>
      </trkpt>
      <trkpt lat="46.08322" lon="4.36973">
        <ele>776</ele>
        <time>2025-09-28T10:13:25Z</time>
      </trkpt>
      <trkpt lat="46.08318" lon="4.36977">
        <ele>775.8</ele>
        <time>2025-09-28T10:13:26Z</time>
      </trkpt>
      <trkpt lat="46.08315" lon="4.3698">
        <ele>775.4</ele>
        <time>2025-09-28T10:13:27Z</time>
      </trkpt>
      <trkpt lat="46.08311" lon="4.36984">
        <ele>775</ele>
        <time>2025-09-28T10:13:28Z</time>
      </trkpt>
      <trkpt lat="46.08307" lon="4.36989">
        <ele>775</ele>
        <time>2025-09-28T10:13:29Z</time>
      </trkpt>
      <trkpt lat="46.08303" lon="4.36993">
        <ele>774.4</ele>
        <time>2025-09-28T10:13:30Z</time>
      </trkpt>
      <trkpt lat="46.08299" lon="4.36996">
        <ele>773.8</ele>
        <time>2025-09-28T10:13:31Z</time>
      </trkpt>
      <trkpt lat="46.08294" lon="4.36999">
        <ele>773.8</ele>
        <time>2025-09-28T10:13:32Z</time>
      </trkpt>
      <trkpt lat="46.08289" lon="4.37001">
        <ele>773.2</ele>
        <time>2025-09-28T10:13:33Z</time>
      </trkpt>
      <trkpt lat="46.08284" lon="4.37006">
        <ele>772.4</ele>
        <time>2025-09-28T10:13:34Z</time>
      </trkpt>
      <trkpt lat="46.08278" lon="4.3701">
        <ele>771.8</ele>
        <time>2025-09-28T10:13:35Z</time>
      </trkpt>
      <trkpt lat="46.08273" lon="4.37014">
        <ele>771.4</ele>
        <time>2025-09-28T10:13:36Z</time>
      </trkpt>
      <trkpt lat="46.08265" lon="4.3702">
        <ele>771</ele>
        <time>2025-09-28T10:13:37Z</time>
      </trkpt>
      <trkpt lat="46.08258" lon="4.37024">
        <ele>770.2</ele>
        <time>2025-09-28T10:13:38Z</time>
      </trkpt>
      <trkpt lat="46.08251" lon="4.37029">
        <ele>769.8</ele>
        <time>2025-09-28T10:13:39Z</time>
      </trkpt>
      <trkpt lat="46.08244" lon="4.37034">
        <ele>769</ele>
        <time>2025-09-28T10:13:40Z</time>
      </trkpt>
      <trkpt lat="46.08235" lon="4.37038">
        <ele>768.6</ele>
        <time>2025-09-28T10:13:41Z</time>
      </trkpt>
      <trkpt lat="46.08227" lon="4.37044">
        <ele>768</ele>
        <time>2025-09-28T10:13:42Z</time>
      </trkpt>
      <trkpt lat="46.0822" lon="4.3705">
        <ele>767</ele>
        <time>2025-09-28T10:13:43Z</time>
      </trkpt>
      <trkpt lat="46.08215" lon="4.37054">
        <ele>766.6</ele>
        <time>2025-09-28T10:13:44Z</time>
      </trkpt>
      <trkpt lat="46.08209" lon="4.37059">
        <ele>766.4</ele>
        <time>2025-09-28T10:13:45Z</time>
      </trkpt>
      <trkpt lat="46.08206" lon="4.37061">
        <ele>766.4</ele>
        <time>2025-09-28T10:13:46Z</time>
      </trkpt>
      <trkpt lat="46.08203" lon="4.37062">
        <ele>766.4</ele>
        <time>2025-09-28T10:13:47Z</time>
      </trkpt>
      <trkpt lat="46.08202" lon="4.37064">
        <ele>766</ele>
        <time>2025-09-28T10:13:48Z</time>
      </trkpt>
      <trkpt lat="46.082" lon="4.37066">
        <ele>766</ele>
        <time>2025-09-28T10:13:49Z</time>
      </trkpt>
      <trkpt lat="46.08198" lon="4.37068">
        <ele>765.8</ele>
        <time>2025-09-28T10:13:50Z</time>
      </trkpt>
      <trkpt lat="46.08197" lon="4.37071">
        <ele>765.8</ele>
        <time>2025-09-28T10:13:51Z</time>
      </trkpt>
      <trkpt lat="46.08195" lon="4.37073">
        <ele>765.6</ele>
        <time>2025-09-28T10:13:52Z</time>
      </trkpt>
      <trkpt lat="46.08194" lon="4.37074">
        <ele>765.6</ele>
        <time>2025-09-28T10:13:53Z</time>
      </trkpt>
      <trkpt lat="46.08193" lon="4.37075">
        <ele>765.6</ele>
        <time>2025-09-28T10:13:54Z</time>
      </trkpt>
      <trkpt lat="46.08193" lon="4.37075">
        <ele>765.6</ele>
        <time>2025-09-28T10:13:55Z</time>
      </trkpt>
      <trkpt lat="46.08194" lon="4.37075">
        <ele>765.6</ele>
        <time>2025-09-28T10:13:56Z</time>
      </trkpt>
      <trkpt lat="46.08194" lon="4.37075">
        <ele>765.6</ele>
        <time>2025-09-28T10:13:57Z</time>
      </trkpt>
      <trkpt lat="46.08192" lon="4.37077">
        <ele>765.6</ele>
        <time>2025-09-28T10:15:07Z</time>
      </trkpt>
      <trkpt lat="46.08192" lon="4.37079">
        <ele>765.8</ele>
        <time>2025-09-28T10:15:08Z</time>
      </trkpt>
      <trkpt lat="46.0819" lon="4.3708">
        <ele>765.8</ele>
        <time>2025-09-28T10:15:09Z</time>
      </trkpt>
      <trkpt lat="46.08189" lon="4.37083">
        <ele>765.6</ele>
        <time>2025-09-28T10:15:10Z</time>
      </trkpt>
      <trkpt lat="46.08188" lon="4.37087">
        <ele>765.8</ele>
        <time>2025-09-28T10:15:11Z</time>
      </trkpt>
      <trkpt lat="46.08187" lon="4.37092">
        <ele>766.4</ele>
        <time>2025-09-28T10:15:12Z</time>
      </trkpt>
      <trkpt lat="46.08187" lon="4.37096">
        <ele>766</ele>
        <time>2025-09-28T10:15:13Z</time>
      </trkpt>
      <trkpt lat="46.08186" lon="4.371">
        <ele>766.2</ele>
        <time>2025-09-28T10:15:14Z</time>
      </trkpt>
      <trkpt lat="46.08186" lon="4.37105">
        <ele>766.6</ele>
        <time>2025-09-28T10:15:15Z</time>
      </trkpt>
      <trkpt lat="46.08185" lon="4.3711">
        <ele>766.6</ele>
        <time>2025-09-28T10:15:16Z</time>
      </trkpt>
      <trkpt lat="46.08185" lon="4.37114">
        <ele>766.6</ele>
        <time>2025-09-28T10:15:17Z</time>
      </trkpt>
      <trkpt lat="46.08185" lon="4.37118">
        <ele>766.6</ele>
        <time>2025-09-28T10:15:18Z</time>
      </trkpt>
      <trkpt lat="46.08184" lon="4.37123">
        <ele>766.6</ele>
        <time>2025-09-28T10:15:19Z</time>
      </trkpt>
      <trkpt lat="46.08184" lon="4.37128">
        <ele>766.6</ele>
        <time>2025-09-28T10:15:20Z</time>
      </trkpt>
      <trkpt lat="46.08184" lon="4.37132">
        <ele>766.6</ele>
        <time>2025-09-28T10:15:21Z</time>
      </trkpt>
      <trkpt lat="46.08184" lon="4.37137">
        <ele>766.8</ele>
        <time>2025-09-28T10:15:22Z</time>
      </trkpt>
      <trkpt lat="46.08184" lon="4.37141">
        <ele>766.8</ele>
        <time>2025-09-28T10:15:23Z</time>
      </trkpt>
      <trkpt lat="46.08185" lon="4.37146">
        <ele>766.8</ele>
        <time>2025-09-28T10:15:24Z</time>
      </trkpt>
      <trkpt lat="46.08185" lon="4.3715">
        <ele>767.4</ele>
        <time>2025-09-28T10:15:25Z</time>
      </trkpt>
      <trkpt lat="46.08186" lon="4.37154">
        <ele>766.6</ele>
        <time>2025-09-28T10:15:26Z</time>
      </trkpt>
      <trkpt lat="46.08186" lon="4.37158">
        <ele>766.6</ele>
        <time>2025-09-28T10:15:27Z</time>
      </trkpt>
      <trkpt lat="46.08186" lon="4.37161">
        <ele>766.6</ele>
        <time>2025-09-28T10:15:28Z</time>
      </trkpt>
      <trkpt lat="46.08186" lon="4.37163">
        <ele>766.8</ele>
        <time>2025-09-28T10:15:29Z</time>
      </trkpt>
      <trkpt lat="46.08185" lon="4.37166">
        <ele>766.8</ele>
        <time>2025-09-28T10:15:30Z</time>
      </trkpt>
      <trkpt lat="46.08183" lon="4.37169">
        <ele>766.8</ele>
        <time>2025-09-28T10:15:31Z</time>
      </trkpt>
      <trkpt lat="46.08181" lon="4.37172">
        <ele>766.8</ele>
        <time>2025-09-28T10:15:32Z</time>
      </trkpt>
      <trkpt lat="46.08179" lon="4.37175">
        <ele>766.6</ele>
        <time>2025-09-28T10:15:33Z</time>
      </trkpt>
      <trkpt lat="46.08177" lon="4.37178">
        <ele>766.6</ele>
        <time>2025-09-28T10:15:34Z</time>
      </trkpt>
      <trkpt lat="46.08175" lon="4.37181">
        <ele>766.6</ele>
        <time>2025-09-28T10:15:35Z</time>
      </trkpt>
      <trkpt lat="46.08173" lon="4.37185">
        <ele>766</ele>
        <time>2025-09-28T10:15:36Z</time>
      </trkpt>
      <trkpt lat="46.08172" lon="4.37188">
        <ele>765.6</ele>
        <time>2025-09-28T10:15:37Z</time>
      </trkpt>
      <trkpt lat="46.08171" lon="4.3719">
        <ele>765.6</ele>
        <time>2025-09-28T10:15:38Z</time>
      </trkpt>
      <trkpt lat="46.0817" lon="4.37192">
        <ele>765.6</ele>
        <time>2025-09-28T10:15:39Z</time>
      </trkpt>
      <trkpt lat="46.08169" lon="4.37193">
        <ele>765.4</ele>
        <time>2025-09-28T10:15:40Z</time>
      </trkpt>
      <trkpt lat="46.08168" lon="4.37195">
        <ele>765</ele>
        <time>2025-09-28T10:15:41Z</time>
      </trkpt>
      <trkpt lat="46.08167" lon="4.37196">
        <ele>765</ele>
        <time>2025-09-28T10:15:42Z</time>
      </trkpt>
      <trkpt lat="46.08165" lon="4.37199">
        <ele>764.8</ele>
        <time>2025-09-28T10:15:43Z</time>
      </trkpt>
      <trkpt lat="46.08163" lon="4.37201">
        <ele>764.8</ele>
        <time>2025-09-28T10:15:44Z</time>
      </trkpt>
      <trkpt lat="46.08162" lon="4.37204">
        <ele>764.8</ele>
        <time>2025-09-28T10:15:45Z</time>
      </trkpt>
      <trkpt lat="46.0816" lon="4.37206">
        <ele>764.8</ele>
        <time>2025-09-28T10:15:46Z</time>
      </trkpt>
      <trkpt lat="46.08159" lon="4.37207">
        <ele>764.4</ele>
        <time>2025-09-28T10:15:47Z</time>
      </trkpt>
      <trkpt lat="46.08158" lon="4.3721">
        <ele>764.2</ele>
        <time>2025-09-28T10:15:48Z</time>
      </trkpt>
      <trkpt lat="46.08157" lon="4.37212">
        <ele>763.8</ele>
        <time>2025-09-28T10:15:49Z</time>
      </trkpt>
      <trkpt lat="46.08156" lon="4.37213">
        <ele>763.8</ele>
        <time>2025-09-28T10:15:50Z</time>
      </trkpt>
      <trkpt lat="46.08156" lon="4.37215">
        <ele>763.4</ele>
        <time>2025-09-28T10:15:51Z</time>
      </trkpt>
      <trkpt lat="46.08155" lon="4.37216">
        <ele>763.4</ele>
        <time>2025-09-28T10:15:52Z</time>
      </trkpt>
      <trkpt lat="46.08155" lon="4.37217">
        <ele>762.8</ele>
        <time>2025-09-28T10:15:53Z</time>
      </trkpt>
      <trkpt lat="46.08154" lon="4.37218">
        <ele>763.2</ele>
        <time>2025-09-28T10:15:54Z</time>
      </trkpt>
      <trkpt lat="46.08152" lon="4.3722">
        <ele>763</ele>
        <time>2025-09-28T10:15:55Z</time>
      </trkpt>
      <trkpt lat="46.0815" lon="4.37222">
        <ele>763</ele>
        <time>2025-09-28T10:15:56Z</time>
      </trkpt>
      <trkpt lat="46.08148" lon="4.37225">
        <ele>763</ele>
        <time>2025-09-28T10:15:57Z</time>
      </trkpt>
      <trkpt lat="46.08146" lon="4.37228">
        <ele>762.6</ele>
        <time>2025-09-28T10:15:58Z</time>
      </trkpt>
      <trkpt lat="46.08144" lon="4.37232">
        <ele>762.6</ele>
        <time>2025-09-28T10:15:59Z</time>
      </trkpt>
      <trkpt lat="46.08142" lon="4.37235">
        <ele>762.2</ele>
        <time>2025-09-28T10:16:00Z</time>
      </trkpt>
      <trkpt lat="46.0814" lon="4.3724">
        <ele>762.2</ele>
        <time>2025-09-28T10:16:01Z</time>
      </trkpt>
      <trkpt lat="46.08138" lon="4.37244">
        <ele>762</ele>
        <time>2025-09-28T10:16:02Z</time>
      </trkpt>
      <trkpt lat="46.08136" lon="4.37249">
        <ele>762</ele>
        <time>2025-09-28T10:16:03Z</time>
      </trkpt>
      <trkpt lat="46.08134" lon="4.37254">
        <ele>761.6</ele>
        <time>2025-09-28T10:16:04Z</time>
      </trkpt>
      <trkpt lat="46.08133" lon="4.3726">
        <ele>761.6</ele>
        <time>2025-09-28T10:16:05Z</time>
      </trkpt>
      <trkpt lat="46.08131" lon="4.37266">
        <ele>761.6</ele>
        <time>2025-09-28T10:16:06Z</time>
      </trkpt>
      <trkpt lat="46.08128" lon="4.37272">
        <ele>760.8</ele>
        <time>2025-09-28T10:16:07Z</time>
      </trkpt>
      <trkpt lat="46.08126" lon="4.37278">
        <ele>760.4</ele>
        <time>2025-09-28T10:16:08Z</time>
      </trkpt>
      <trkpt lat="46.08124" lon="4.37284">
        <ele>760.4</ele>
        <time>2025-09-28T10:16:09Z</time>
      </trkpt>
      <trkpt lat="46.08121" lon="4.3729">
        <ele>760</ele>
        <time>2025-09-28T10:16:10Z</time>
      </trkpt>
      <trkpt lat="46.08117" lon="4.37297">
        <ele>760</ele>
        <time>2025-09-28T10:16:11Z</time>
      </trkpt>
      <trkpt lat="46.08113" lon="4.37305">
        <ele>759.6</ele>
        <time>2025-09-28T10:16:12Z</time>
      </trkpt>
      <trkpt lat="46.08114" lon="4.37311">
        <ele>759.2</ele>
        <time>2025-09-28T10:16:13Z</time>
      </trkpt>
      <trkpt lat="46.0811" lon="4.3732">
        <ele>758.4</ele>
        <time>2025-09-28T10:16:14Z</time>
      </trkpt>
      <trkpt lat="46.08108" lon="4.37328">
        <ele>758.4</ele>
        <time>2025-09-28T10:16:15Z</time>
      </trkpt>
      <trkpt lat="46.08107" lon="4.37335">
        <ele>757.6</ele>
        <time>2025-09-28T10:16:16Z</time>
      </trkpt>
      <trkpt lat="46.08104" lon="4.37341">
        <ele>757.6</ele>
        <time>2025-09-28T10:16:17Z</time>
      </trkpt>
      <trkpt lat="46.08105" lon="4.37348">
        <ele>758</ele>
        <time>2025-09-28T10:16:18Z</time>
      </trkpt>
      <trkpt lat="46.08103" lon="4.37354">
        <ele>758</ele>
        <time>2025-09-28T10:16:19Z</time>
      </trkpt>
      <trkpt lat="46.081" lon="4.37361">
        <ele>757.4</ele>
        <time>2025-09-28T10:16:20Z</time>
      </trkpt>
      <trkpt lat="46.08095" lon="4.37368">
        <ele>757.4</ele>
        <time>2025-09-28T10:16:21Z</time>
      </trkpt>
      <trkpt lat="46.08093" lon="4.37372">
        <ele>757.8</ele>
        <time>2025-09-28T10:16:22Z</time>
      </trkpt>
      <trkpt lat="46.08093" lon="4.37374">
        <ele>757.8</ele>
        <time>2025-09-28T10:16:23Z</time>
      </trkpt>
      <trkpt lat="46.08093" lon="4.37378">
        <ele>757.8</ele>
        <time>2025-09-28T10:16:24Z</time>
      </trkpt>
      <trkpt lat="46.0809" lon="4.37385">
        <ele>757.8</ele>
        <time>2025-09-28T10:16:25Z</time>
      </trkpt>
      <trkpt lat="46.08088" lon="4.37392">
        <ele>757.8</ele>
        <time>2025-09-28T10:16:26Z</time>
      </trkpt>
      <trkpt lat="46.08086" lon="4.37397">
        <ele>758.2</ele>
        <time>2025-09-28T10:16:27Z</time>
      </trkpt>
      <trkpt lat="46.08084" lon="4.37402">
        <ele>757.8</ele>
        <time>2025-09-28T10:16:28Z</time>
      </trkpt>
      <trkpt lat="46.08083" lon="4.3741">
        <ele>757.8</ele>
        <time>2025-09-28T10:16:29Z</time>
      </trkpt>
      <trkpt lat="46.0808" lon="4.37417">
        <ele>757.8</ele>
        <time>2025-09-28T10:16:30Z</time>
      </trkpt>
      <trkpt lat="46.08077" lon="4.37424">
        <ele>757.4</ele>
        <time>2025-09-28T10:16:31Z</time>
      </trkpt>
      <trkpt lat="46.08074" lon="4.3743">
        <ele>757.4</ele>
        <time>2025-09-28T10:16:32Z</time>
      </trkpt>
      <trkpt lat="46.08071" lon="4.37436">
        <ele>757.8</ele>
        <time>2025-09-28T10:16:33Z</time>
      </trkpt>
      <trkpt lat="46.0807" lon="4.37441">
        <ele>758.2</ele>
        <time>2025-09-28T10:16:34Z</time>
      </trkpt>
      <trkpt lat="46.08067" lon="4.37446">
        <ele>758.6</ele>
        <time>2025-09-28T10:16:35Z</time>
      </trkpt>
      <trkpt lat="46.08065" lon="4.37451">
        <ele>758.6</ele>
        <time>2025-09-28T10:16:36Z</time>
      </trkpt>
      <trkpt lat="46.08064" lon="4.37457">
        <ele>758.6</ele>
        <time>2025-09-28T10:16:37Z</time>
      </trkpt>
      <trkpt lat="46.08062" lon="4.37463">
        <ele>759.4</ele>
        <time>2025-09-28T10:16:38Z</time>
      </trkpt>
      <trkpt lat="46.0806" lon="4.37468">
        <ele>759.4</ele>
        <time>2025-09-28T10:16:39Z</time>
      </trkpt>
      <trkpt lat="46.0806" lon="4.37474">
        <ele>760</ele>
        <time>2025-09-28T10:16:40Z</time>
      </trkpt>
      <trkpt lat="46.08061" lon="4.37478">
        <ele>760</ele>
        <time>2025-09-28T10:16:41Z</time>
      </trkpt>
      <trkpt lat="46.08062" lon="4.37484">
        <ele>760.2</ele>
        <time>2025-09-28T10:16:42Z</time>
      </trkpt>
      <trkpt lat="46.08063" lon="4.37489">
        <ele>760.2</ele>
        <time>2025-09-28T10:16:43Z</time>
      </trkpt>
      <trkpt lat="46.08061" lon="4.37498">
        <ele>760.4</ele>
        <time>2025-09-28T10:16:44Z</time>
      </trkpt>
      <trkpt lat="46.0806" lon="4.37503">
        <ele>760.4</ele>
        <time>2025-09-28T10:16:45Z</time>
      </trkpt>
      <trkpt lat="46.08059" lon="4.37509">
        <ele>760.4</ele>
        <time>2025-09-28T10:16:46Z</time>
      </trkpt>
      <trkpt lat="46.08056" lon="4.37515">
        <ele>760.4</ele>
        <time>2025-09-28T10:16:47Z</time>
      </trkpt>
      <trkpt lat="46.08056" lon="4.37521">
        <ele>760.4</ele>
        <time>2025-09-28T10:16:48Z</time>
      </trkpt>
      <trkpt lat="46.08054" lon="4.37525">
        <ele>760.4</ele>
        <time>2025-09-28T10:16:49Z</time>
      </trkpt>
      <trkpt lat="46.08052" lon="4.37527">
        <ele>760.2</ele>
        <time>2025-09-28T10:16:50Z</time>
      </trkpt>
      <trkpt lat="46.08052" lon="4.37529">
        <ele>760.2</ele>
        <time>2025-09-28T10:16:51Z</time>
      </trkpt>
      <trkpt lat="46.0805" lon="4.37532">
        <ele>760.2</ele>
        <time>2025-09-28T10:16:52Z</time>
      </trkpt>
      <trkpt lat="46.0805" lon="4.37535">
        <ele>760.2</ele>
        <time>2025-09-28T10:16:53Z</time>
      </trkpt>
      <trkpt lat="46.0805" lon="4.37537">
        <ele>760.2</ele>
        <time>2025-09-28T10:16:54Z</time>
      </trkpt>
      <trkpt lat="46.08049" lon="4.37539">
        <ele>760.2</ele>
        <time>2025-09-28T10:16:55Z</time>
      </trkpt>
      <trkpt lat="46.08048" lon="4.37538">
        <ele>760.2</ele>
        <time>2025-09-28T10:16:56Z</time>
      </trkpt>
      <trkpt lat="46.08048" lon="4.37538">
        <ele>760.2</ele>
        <time>2025-09-28T10:16:57Z</time>
      </trkpt>
      <trkpt lat="46.08048" lon="4.3754">
        <ele>760.2</ele>
        <time>2025-09-28T10:16:58Z</time>
      </trkpt>
      <trkpt lat="46.08048" lon="4.3754">
        <ele>760.2</ele>
        <time>2025-09-28T10:16:59Z</time>
      </trkpt>
      <trkpt lat="46.08048" lon="4.3754">
        <ele>760.2</ele>
        <time>2025-09-28T10:17:00Z</time>
      </trkpt>
      <trkpt lat="46.08048" lon="4.3754">
        <ele>760.2</ele>
        <time>2025-09-28T10:17:01Z</time>
      </trkpt>
      <trkpt lat="46.08058" lon="4.37547">
        <ele>759.6</ele>
        <time>2025-09-28T10:18:04Z</time>
      </trkpt>
      <trkpt lat="46.08056" lon="4.3755">
        <ele>759.2</ele>
        <time>2025-09-28T10:18:05Z</time>
      </trkpt>
      <trkpt lat="46.08055" lon="4.37552">
        <ele>758.8</ele>
        <time>2025-09-28T10:18:06Z</time>
      </trkpt>
      <trkpt lat="46.08053" lon="4.37555">
        <ele>758.2</ele>
        <time>2025-09-28T10:18:07Z</time>
      </trkpt>
      <trkpt lat="46.08051" lon="4.3756">
        <ele>758.2</ele>
        <time>2025-09-28T10:18:08Z</time>
      </trkpt>
      <trkpt lat="46.08048" lon="4.37564">
        <ele>758.6</ele>
        <time>2025-09-28T10:18:09Z</time>
      </trkpt>
      <trkpt lat="46.08046" lon="4.37569">
        <ele>758.4</ele>
        <time>2025-09-28T10:18:10Z</time>
      </trkpt>
      <trkpt lat="46.08041" lon="4.37575">
        <ele>758.8</ele>
        <time>2025-09-28T10:18:11Z</time>
      </trkpt>
      <trkpt lat="46.08039" lon="4.37582">
        <ele>758.2</ele>
        <time>2025-09-28T10:18:12Z</time>
      </trkpt>
      <trkpt lat="46.08037" lon="4.37588">
        <ele>758</ele>
        <time>2025-09-28T10:18:13Z</time>
      </trkpt>
      <trkpt lat="46.08035" lon="4.37593">
        <ele>758</ele>
        <time>2025-09-28T10:18:14Z</time>
      </trkpt>
      <trkpt lat="46.08033" lon="4.37599">
        <ele>757.6</ele>
        <time>2025-09-28T10:18:15Z</time>
      </trkpt>
      <trkpt lat="46.0803" lon="4.37605">
        <ele>757</ele>
        <time>2025-09-28T10:18:16Z</time>
      </trkpt>
      <trkpt lat="46.08026" lon="4.37607">
        <ele>757</ele>
        <time>2025-09-28T10:18:17Z</time>
      </trkpt>
      <trkpt lat="46.08026" lon="4.37611">
        <ele>756.4</ele>
        <time>2025-09-28T10:18:18Z</time>
      </trkpt>
      <trkpt lat="46.08022" lon="4.37614">
        <ele>756.4</ele>
        <time>2025-09-28T10:18:19Z</time>
      </trkpt>
      <trkpt lat="46.08019" lon="4.37618">
        <ele>756.4</ele>
        <time>2025-09-28T10:18:20Z</time>
      </trkpt>
      <trkpt lat="46.08017" lon="4.37622">
        <ele>756.4</ele>
        <time>2025-09-28T10:18:21Z</time>
      </trkpt>
      <trkpt lat="46.08016" lon="4.37625">
        <ele>756.4</ele>
        <time>2025-09-28T10:18:22Z</time>
      </trkpt>
      <trkpt lat="46.08012" lon="4.37631">
        <ele>756</ele>
        <time>2025-09-28T10:18:23Z</time>
      </trkpt>
      <trkpt lat="46.0801" lon="4.37635">
        <ele>756</ele>
        <time>2025-09-28T10:18:24Z</time>
      </trkpt>
      <trkpt lat="46.0801" lon="4.37639">
        <ele>755.6</ele>
        <time>2025-09-28T10:18:25Z</time>
      </trkpt>
      <trkpt lat="46.0801" lon="4.3764">
        <ele>755.6</ele>
        <time>2025-09-28T10:18:26Z</time>
      </trkpt>
      <trkpt lat="46.08011" lon="4.37643">
        <ele>754.8</ele>
        <time>2025-09-28T10:18:27Z</time>
      </trkpt>
      <trkpt lat="46.08011" lon="4.37645">
        <ele>754.2</ele>
        <time>2025-09-28T10:18:28Z</time>
      </trkpt>
      <trkpt lat="46.0801" lon="4.37648">
        <ele>754.2</ele>
        <time>2025-09-28T10:18:29Z</time>
      </trkpt>
      <trkpt lat="46.08008" lon="4.37651">
        <ele>754.6</ele>
        <time>2025-09-28T10:18:30Z</time>
      </trkpt>
      <trkpt lat="46.08006" lon="4.37655">
        <ele>754.6</ele>
        <time>2025-09-28T10:18:31Z</time>
      </trkpt>
      <trkpt lat="46.08003" lon="4.37663">
        <ele>754.6</ele>
        <time>2025-09-28T10:18:32Z</time>
      </trkpt>
      <trkpt lat="46.08005" lon="4.37657">
        <ele>754.2</ele>
        <time>2025-09-28T10:18:33Z</time>
      </trkpt>
      <trkpt lat="46.08005" lon="4.37661">
        <ele>754</ele>
        <time>2025-09-28T10:18:34Z</time>
      </trkpt>
      <trkpt lat="46.07995" lon="4.37676">
        <ele>753.4</ele>
        <time>2025-09-28T10:18:35Z</time>
      </trkpt>
      <trkpt lat="46.07993" lon="4.3768">
        <ele>753</ele>
        <time>2025-09-28T10:18:36Z</time>
      </trkpt>
      <trkpt lat="46.07993" lon="4.3768">
        <ele>753</ele>
        <time>2025-09-28T10:18:37Z</time>
      </trkpt>
      <trkpt lat="46.07988" lon="4.37684">
        <ele>751.8</ele>
        <time>2025-09-28T10:18:38Z</time>
      </trkpt>
      <trkpt lat="46.07984" lon="4.37687">
        <ele>751.8</ele>
        <time>2025-09-28T10:18:39Z</time>
      </trkpt>
      <trkpt lat="46.0798" lon="4.37695">
        <ele>751.8</ele>
        <time>2025-09-28T10:18:40Z</time>
      </trkpt>
      <trkpt lat="46.07978" lon="4.37693">
        <ele>752.4</ele>
        <time>2025-09-28T10:18:41Z</time>
      </trkpt>
      <trkpt lat="46.07974" lon="4.37699">
        <ele>752</ele>
        <time>2025-09-28T10:18:42Z</time>
      </trkpt>
      <trkpt lat="46.07971" lon="4.37705">
        <ele>751.4</ele>
        <time>2025-09-28T10:18:43Z</time>
      </trkpt>
      <trkpt lat="46.07968" lon="4.3771">
        <ele>751</ele>
        <time>2025-09-28T10:18:44Z</time>
      </trkpt>
      <trkpt lat="46.07965" lon="4.37724">
        <ele>750.2</ele>
        <time>2025-09-28T10:18:45Z</time>
      </trkpt>
      <trkpt lat="46.07962" lon="4.37721">
        <ele>749.4</ele>
        <time>2025-09-28T10:18:46Z</time>
      </trkpt>
      <trkpt lat="46.07963" lon="4.37727">
        <ele>748.8</ele>
        <time>2025-09-28T10:18:47Z</time>
      </trkpt>
      <trkpt lat="46.07962" lon="4.37728">
        <ele>748.4</ele>
        <time>2025-09-28T10:18:48Z</time>
      </trkpt>
      <trkpt lat="46.07961" lon="4.37733">
        <ele>747.8</ele>
        <time>2025-09-28T10:18:49Z</time>
      </trkpt>
      <trkpt lat="46.0796" lon="4.37737">
        <ele>747.4</ele>
        <time>2025-09-28T10:18:50Z</time>
      </trkpt>
      <trkpt lat="46.07958" lon="4.37745">
        <ele>747</ele>
        <time>2025-09-28T10:18:51Z</time>
      </trkpt>
      <trkpt lat="46.07958" lon="4.37747">
        <ele>746.6</ele>
        <time>2025-09-28T10:18:52Z</time>
      </trkpt>
      <trkpt lat="46.07958" lon="4.37748">
        <ele>746.6</ele>
        <time>2025-09-28T10:18:53Z</time>
      </trkpt>
      <trkpt lat="46.07956" lon="4.37749">
        <ele>746.2</ele>
        <time>2025-09-28T10:18:54Z</time>
      </trkpt>
      <trkpt lat="46.07956" lon="4.37751">
        <ele>746</ele>
        <time>2025-09-28T10:18:55Z</time>
      </trkpt>
      <trkpt lat="46.07955" lon="4.37752">
        <ele>745.8</ele>
        <time>2025-09-28T10:18:56Z</time>
      </trkpt>
      <trkpt lat="46.07954" lon="4.37757">
        <ele>745.6</ele>
        <time>2025-09-28T10:19:15Z</time>
      </trkpt>
      <trkpt lat="46.07953" lon="4.37759">
        <ele>745.6</ele>
        <time>2025-09-28T10:19:16Z</time>
      </trkpt>
      <trkpt lat="46.07951" lon="4.37763">
        <ele>745</ele>
        <time>2025-09-28T10:19:17Z</time>
      </trkpt>
      <trkpt lat="46.0795" lon="4.37766">
        <ele>744.4</ele>
        <time>2025-09-28T10:19:18Z</time>
      </trkpt>
      <trkpt lat="46.07948" lon="4.37769">
        <ele>744</ele>
        <time>2025-09-28T10:19:19Z</time>
      </trkpt>
      <trkpt lat="46.07945" lon="4.37773">
        <ele>744.6</ele>
        <time>2025-09-28T10:19:20Z</time>
      </trkpt>
      <trkpt lat="46.07943" lon="4.37775">
        <ele>743.8</ele>
        <time>2025-09-28T10:19:21Z</time>
      </trkpt>
      <trkpt lat="46.07942" lon="4.37777">
        <ele>743.4</ele>
        <time>2025-09-28T10:19:22Z</time>
      </trkpt>
      <trkpt lat="46.07942" lon="4.3778">
        <ele>743</ele>
        <time>2025-09-28T10:19:23Z</time>
      </trkpt>
      <trkpt lat="46.07942" lon="4.37784">
        <ele>742.4</ele>
        <time>2025-09-28T10:19:24Z</time>
      </trkpt>
      <trkpt lat="46.07941" lon="4.37787">
        <ele>742</ele>
        <time>2025-09-28T10:19:25Z</time>
      </trkpt>
      <trkpt lat="46.0794" lon="4.37791">
        <ele>741.6</ele>
        <time>2025-09-28T10:19:26Z</time>
      </trkpt>
      <trkpt lat="46.07939" lon="4.37794">
        <ele>741.2</ele>
        <time>2025-09-28T10:19:27Z</time>
      </trkpt>
      <trkpt lat="46.07938" lon="4.37797">
        <ele>740.8</ele>
        <time>2025-09-28T10:19:28Z</time>
      </trkpt>
      <trkpt lat="46.07937" lon="4.37799">
        <ele>740.4</ele>
        <time>2025-09-28T10:19:29Z</time>
      </trkpt>
      <trkpt lat="46.07935" lon="4.37801">
        <ele>740.2</ele>
        <time>2025-09-28T10:19:30Z</time>
      </trkpt>
      <trkpt lat="46.07934" lon="4.37803">
        <ele>740</ele>
        <time>2025-09-28T10:19:31Z</time>
      </trkpt>
      <trkpt lat="46.07934" lon="4.37804">
        <ele>739.6</ele>
        <time>2025-09-28T10:19:32Z</time>
      </trkpt>
      <trkpt lat="46.07934" lon="4.37805">
        <ele>739.4</ele>
        <time>2025-09-28T10:19:33Z</time>
      </trkpt>
      <trkpt lat="46.07934" lon="4.37808">
        <ele>738.8</ele>
        <time>2025-09-28T10:19:34Z</time>
      </trkpt>
      <trkpt lat="46.07934" lon="4.3781">
        <ele>738.2</ele>
        <time>2025-09-28T10:19:35Z</time>
      </trkpt>
      <trkpt lat="46.07934" lon="4.37813">
        <ele>738</ele>
        <time>2025-09-28T10:19:36Z</time>
      </trkpt>
      <trkpt lat="46.07933" lon="4.37816">
        <ele>738</ele>
        <time>2025-09-28T10:19:37Z</time>
      </trkpt>
      <trkpt lat="46.07933" lon="4.37818">
        <ele>738</ele>
        <time>2025-09-28T10:19:38Z</time>
      </trkpt>
      <trkpt lat="46.07932" lon="4.37818">
        <ele>738</ele>
        <time>2025-09-28T10:19:39Z</time>
      </trkpt>
      <trkpt lat="46.07934" lon="4.37819">
        <ele>737</ele>
        <time>2025-09-28T10:19:48Z</time>
      </trkpt>
      <trkpt lat="46.07934" lon="4.37821">
        <ele>737</ele>
        <time>2025-09-28T10:19:49Z</time>
      </trkpt>
      <trkpt lat="46.07934" lon="4.37824">
        <ele>736.6</ele>
        <time>2025-09-28T10:19:50Z</time>
      </trkpt>
      <trkpt lat="46.07934" lon="4.37826">
        <ele>736.2</ele>
        <time>2025-09-28T10:19:51Z</time>
      </trkpt>
      <trkpt lat="46.07934" lon="4.37829">
        <ele>735.6</ele>
        <time>2025-09-28T10:19:52Z</time>
      </trkpt>
      <trkpt lat="46.07934" lon="4.37832">
        <ele>735.6</ele>
        <time>2025-09-28T10:19:53Z</time>
      </trkpt>
      <trkpt lat="46.07934" lon="4.37836">
        <ele>735.2</ele>
        <time>2025-09-28T10:19:54Z</time>
      </trkpt>
      <trkpt lat="46.07933" lon="4.37839">
        <ele>734.6</ele>
        <time>2025-09-28T10:19:55Z</time>
      </trkpt>
      <trkpt lat="46.07933" lon="4.37842">
        <ele>733.8</ele>
        <time>2025-09-28T10:19:56Z</time>
      </trkpt>
      <trkpt lat="46.07932" lon="4.37851">
        <ele>733.6</ele>
        <time>2025-09-28T10:19:57Z</time>
      </trkpt>
      <trkpt lat="46.07933" lon="4.37856">
        <ele>732.8</ele>
        <time>2025-09-28T10:19:58Z</time>
      </trkpt>
      <trkpt lat="46.07934" lon="4.37863">
        <ele>732.4</ele>
        <time>2025-09-28T10:19:59Z</time>
      </trkpt>
      <trkpt lat="46.07933" lon="4.37869">
        <ele>732</ele>
        <time>2025-09-28T10:20:00Z</time>
      </trkpt>
      <trkpt lat="46.07934" lon="4.37874">
        <ele>731.2</ele>
        <time>2025-09-28T10:20:01Z</time>
      </trkpt>
      <trkpt lat="46.07936" lon="4.37877">
        <ele>731.2</ele>
        <time>2025-09-28T10:20:02Z</time>
      </trkpt>
      <trkpt lat="46.07937" lon="4.37878">
        <ele>730.6</ele>
        <time>2025-09-28T10:20:03Z</time>
      </trkpt>
      <trkpt lat="46.07937" lon="4.37882">
        <ele>730</ele>
        <time>2025-09-28T10:20:04Z</time>
      </trkpt>
      <trkpt lat="46.07937" lon="4.37886">
        <ele>730</ele>
        <time>2025-09-28T10:20:05Z</time>
      </trkpt>
      <trkpt lat="46.07935" lon="4.37891">
        <ele>729</ele>
        <time>2025-09-28T10:20:06Z</time>
      </trkpt>
      <trkpt lat="46.07936" lon="4.37892">
        <ele>728.8</ele>
        <time>2025-09-28T10:20:07Z</time>
      </trkpt>
      <trkpt lat="46.07936" lon="4.37894">
        <ele>728.4</ele>
        <time>2025-09-28T10:20:08Z</time>
      </trkpt>
      <trkpt lat="46.07936" lon="4.37897">
        <ele>727.6</ele>
        <time>2025-09-28T10:20:09Z</time>
      </trkpt>
      <trkpt lat="46.07936" lon="4.379">
        <ele>727.2</ele>
        <time>2025-09-28T10:20:10Z</time>
      </trkpt>
      <trkpt lat="46.07937" lon="4.37905">
        <ele>726.4</ele>
        <time>2025-09-28T10:20:11Z</time>
      </trkpt>
      <trkpt lat="46.07937" lon="4.37909">
        <ele>726.2</ele>
        <time>2025-09-28T10:20:12Z</time>
      </trkpt>
      <trkpt lat="46.07937" lon="4.37914">
        <ele>725</ele>
        <time>2025-09-28T10:20:13Z</time>
      </trkpt>
      <trkpt lat="46.07937" lon="4.3792">
        <ele>724.4</ele>
        <time>2025-09-28T10:20:14Z</time>
      </trkpt>
      <trkpt lat="46.07936" lon="4.37931">
        <ele>723.6</ele>
        <time>2025-09-28T10:20:15Z</time>
      </trkpt>
      <trkpt lat="46.07935" lon="4.37939">
        <ele>723.2</ele>
        <time>2025-09-28T10:20:16Z</time>
      </trkpt>
      <trkpt lat="46.07934" lon="4.37945">
        <ele>722.8</ele>
        <time>2025-09-28T10:20:17Z</time>
      </trkpt>
      <trkpt lat="46.07932" lon="4.37954">
        <ele>722.2</ele>
        <time>2025-09-28T10:20:18Z</time>
      </trkpt>
      <trkpt lat="46.07931" lon="4.37961">
        <ele>721.8</ele>
        <time>2025-09-28T10:20:19Z</time>
      </trkpt>
      <trkpt lat="46.0793" lon="4.37969">
        <ele>721.2</ele>
        <time>2025-09-28T10:20:20Z</time>
      </trkpt>
      <trkpt lat="46.07929" lon="4.37976">
        <ele>720.4</ele>
        <time>2025-09-28T10:20:21Z</time>
      </trkpt>
      <trkpt lat="46.07928" lon="4.37984">
        <ele>719.6</ele>
        <time>2025-09-28T10:20:22Z</time>
      </trkpt>
      <trkpt lat="46.07927" lon="4.37988">
        <ele>719.4</ele>
        <time>2025-09-28T10:20:23Z</time>
      </trkpt>
      <trkpt lat="46.07926" lon="4.37992">
        <ele>719</ele>
        <time>2025-09-28T10:20:24Z</time>
      </trkpt>
      <trkpt lat="46.07926" lon="4.37996">
        <ele>718.8</ele>
        <time>2025-09-28T10:20:25Z</time>
      </trkpt>
      <trkpt lat="46.07924" lon="4.38">
        <ele>718.4</ele>
        <time>2025-09-28T10:20:26Z</time>
      </trkpt>
      <trkpt lat="46.07922" lon="4.38004">
        <ele>717.6</ele>
        <time>2025-09-28T10:20:27Z</time>
      </trkpt>
      <trkpt lat="46.07921" lon="4.38007">
        <ele>717.4</ele>
        <time>2025-09-28T10:20:28Z</time>
      </trkpt>
      <trkpt lat="46.07919" lon="4.3801">
        <ele>716.8</ele>
        <time>2025-09-28T10:20:29Z</time>
      </trkpt>
      <trkpt lat="46.07917" lon="4.38014">
        <ele>716.4</ele>
        <time>2025-09-28T10:20:30Z</time>
      </trkpt>
      <trkpt lat="46.07915" lon="4.38019">
        <ele>716</ele>
        <time>2025-09-28T10:20:31Z</time>
      </trkpt>
      <trkpt lat="46.07915" lon="4.38024">
        <ele>715.4</ele>
        <time>2025-09-28T10:20:32Z</time>
      </trkpt>
      <trkpt lat="46.07914" lon="4.38029">
        <ele>715.4</ele>
        <time>2025-09-28T10:20:33Z</time>
      </trkpt>
      <trkpt lat="46.07913" lon="4.38035">
        <ele>715.4</ele>
        <time>2025-09-28T10:20:34Z</time>
      </trkpt>
      <trkpt lat="46.07912" lon="4.38038">
        <ele>715</ele>
        <time>2025-09-28T10:20:35Z</time>
      </trkpt>
      <trkpt lat="46.07912" lon="4.38042">
        <ele>714.2</ele>
        <time>2025-09-28T10:20:36Z</time>
      </trkpt>
      <trkpt lat="46.07913" lon="4.38046">
        <ele>713.6</ele>
        <time>2025-09-28T10:20:37Z</time>
      </trkpt>
      <trkpt lat="46.07912" lon="4.3805">
        <ele>713.2</ele>
        <time>2025-09-28T10:20:38Z</time>
      </trkpt>
      <trkpt lat="46.07911" lon="4.38054">
        <ele>713.2</ele>
        <time>2025-09-28T10:20:39Z</time>
      </trkpt>
      <trkpt lat="46.07909" lon="4.38057">
        <ele>712.4</ele>
        <time>2025-09-28T10:20:40Z</time>
      </trkpt>
      <trkpt lat="46.07908" lon="4.3806">
        <ele>711.8</ele>
        <time>2025-09-28T10:20:41Z</time>
      </trkpt>
      <trkpt lat="46.07907" lon="4.38065">
        <ele>711.8</ele>
        <time>2025-09-28T10:20:42Z</time>
      </trkpt>
      <trkpt lat="46.07905" lon="4.38069">
        <ele>711.4</ele>
        <time>2025-09-28T10:20:43Z</time>
      </trkpt>
      <trkpt lat="46.07903" lon="4.38074">
        <ele>711</ele>
        <time>2025-09-28T10:20:44Z</time>
      </trkpt>
      <trkpt lat="46.07901" lon="4.3808">
        <ele>709.8</ele>
        <time>2025-09-28T10:20:45Z</time>
      </trkpt>
      <trkpt lat="46.07899" lon="4.38086">
        <ele>709.4</ele>
        <time>2025-09-28T10:20:46Z</time>
      </trkpt>
      <trkpt lat="46.07897" lon="4.38092">
        <ele>709</ele>
        <time>2025-09-28T10:20:47Z</time>
      </trkpt>
      <trkpt lat="46.07892" lon="4.38103">
        <ele>708.4</ele>
        <time>2025-09-28T10:20:48Z</time>
      </trkpt>
      <trkpt lat="46.0789" lon="4.38105">
        <ele>708.2</ele>
        <time>2025-09-28T10:20:49Z</time>
      </trkpt>
      <trkpt lat="46.07889" lon="4.38109">
        <ele>707.4</ele>
        <time>2025-09-28T10:20:50Z</time>
      </trkpt>
      <trkpt lat="46.07888" lon="4.38113">
        <ele>707.2</ele>
        <time>2025-09-28T10:20:51Z</time>
      </trkpt>
      <trkpt lat="46.07886" lon="4.38116">
        <ele>706.4</ele>
        <time>2025-09-28T10:20:52Z</time>
      </trkpt>
      <trkpt lat="46.07885" lon="4.38121">
        <ele>705.8</ele>
        <time>2025-09-28T10:20:53Z</time>
      </trkpt>
      <trkpt lat="46.07883" lon="4.38124">
        <ele>705.6</ele>
        <time>2025-09-28T10:20:54Z</time>
      </trkpt>
      <trkpt lat="46.07882" lon="4.38129">
        <ele>705.2</ele>
        <time>2025-09-28T10:20:55Z</time>
      </trkpt>
      <trkpt lat="46.07881" lon="4.38133">
        <ele>704.6</ele>
        <time>2025-09-28T10:20:56Z</time>
      </trkpt>
      <trkpt lat="46.07879" lon="4.38139">
        <ele>704.6</ele>
        <time>2025-09-28T10:20:57Z</time>
      </trkpt>
      <trkpt lat="46.07878" lon="4.38144">
        <ele>704.2</ele>
        <time>2025-09-28T10:20:58Z</time>
      </trkpt>
      <trkpt lat="46.07877" lon="4.38146">
        <ele>704.2</ele>
        <time>2025-09-28T10:20:59Z</time>
      </trkpt>
      <trkpt lat="46.07875" lon="4.3815">
        <ele>703.4</ele>
        <time>2025-09-28T10:21:00Z</time>
      </trkpt>
      <trkpt lat="46.07874" lon="4.38153">
        <ele>702.8</ele>
        <time>2025-09-28T10:21:01Z</time>
      </trkpt>
      <trkpt lat="46.07873" lon="4.38157">
        <ele>702.2</ele>
        <time>2025-09-28T10:21:02Z</time>
      </trkpt>
      <trkpt lat="46.07872" lon="4.3816">
        <ele>702</ele>
        <time>2025-09-28T10:21:03Z</time>
      </trkpt>
      <trkpt lat="46.07871" lon="4.38161">
        <ele>701.6</ele>
        <time>2025-09-28T10:21:04Z</time>
      </trkpt>
      <trkpt lat="46.0787" lon="4.38164">
        <ele>701.6</ele>
        <time>2025-09-28T10:21:05Z</time>
      </trkpt>
      <trkpt lat="46.07868" lon="4.38168">
        <ele>701</ele>
        <time>2025-09-28T10:21:06Z</time>
      </trkpt>
      <trkpt lat="46.07867" lon="4.38172">
        <ele>700.4</ele>
        <time>2025-09-28T10:21:07Z</time>
      </trkpt>
      <trkpt lat="46.07865" lon="4.38176">
        <ele>700.2</ele>
        <time>2025-09-28T10:21:08Z</time>
      </trkpt>
      <trkpt lat="46.07864" lon="4.3818">
        <ele>699.8</ele>
        <time>2025-09-28T10:21:09Z</time>
      </trkpt>
      <trkpt lat="46.07863" lon="4.38182">
        <ele>699.4</ele>
        <time>2025-09-28T10:21:10Z</time>
      </trkpt>
      <trkpt lat="46.07862" lon="4.38183">
        <ele>699.4</ele>
        <time>2025-09-28T10:21:11Z</time>
      </trkpt>
      <trkpt lat="46.07861" lon="4.38183">
        <ele>699.2</ele>
        <time>2025-09-28T10:21:12Z</time>
      </trkpt>
      <trkpt lat="46.07861" lon="4.38183">
        <ele>699.2</ele>
        <time>2025-09-28T10:21:13Z</time>
      </trkpt>
      <trkpt lat="46.07861" lon="4.38181">
        <ele>698.4</ele>
        <time>2025-09-28T10:22:59Z</time>
      </trkpt>
      <trkpt lat="46.07861" lon="4.38182">
        <ele>698.4</ele>
        <time>2025-09-28T10:23:00Z</time>
      </trkpt>
      <trkpt lat="46.0786" lon="4.38185">
        <ele>698.2</ele>
        <time>2025-09-28T10:23:01Z</time>
      </trkpt>
      <trkpt lat="46.07859" lon="4.38188">
        <ele>698.2</ele>
        <time>2025-09-28T10:23:02Z</time>
      </trkpt>
      <trkpt lat="46.07858" lon="4.3819">
        <ele>697.8</ele>
        <time>2025-09-28T10:23:03Z</time>
      </trkpt>
      <trkpt lat="46.07856" lon="4.38193">
        <ele>697.4</ele>
        <time>2025-09-28T10:23:04Z</time>
      </trkpt>
      <trkpt lat="46.07855" lon="4.38195">
        <ele>697.2</ele>
        <time>2025-09-28T10:23:05Z</time>
      </trkpt>
      <trkpt lat="46.07854" lon="4.38196">
        <ele>697.2</ele>
        <time>2025-09-28T10:23:06Z</time>
      </trkpt>
      <trkpt lat="46.07853" lon="4.38199">
        <ele>696.8</ele>
        <time>2025-09-28T10:23:07Z</time>
      </trkpt>
      <trkpt lat="46.07851" lon="4.38201">
        <ele>696.2</ele>
        <time>2025-09-28T10:23:08Z</time>
      </trkpt>
      <trkpt lat="46.0785" lon="4.38204">
        <ele>695.8</ele>
        <time>2025-09-28T10:23:09Z</time>
      </trkpt>
      <trkpt lat="46.07849" lon="4.38206">
        <ele>695.4</ele>
        <time>2025-09-28T10:23:10Z</time>
      </trkpt>
      <trkpt lat="46.07848" lon="4.38208">
        <ele>695</ele>
        <time>2025-09-28T10:23:11Z</time>
      </trkpt>
      <trkpt lat="46.07846" lon="4.3821">
        <ele>694.6</ele>
        <time>2025-09-28T10:23:12Z</time>
      </trkpt>
      <trkpt lat="46.07845" lon="4.38214">
        <ele>694.4</ele>
        <time>2025-09-28T10:23:13Z</time>
      </trkpt>
      <trkpt lat="46.07843" lon="4.38216">
        <ele>693.8</ele>
        <time>2025-09-28T10:23:14Z</time>
      </trkpt>
      <trkpt lat="46.07842" lon="4.38218">
        <ele>693.2</ele>
        <time>2025-09-28T10:23:15Z</time>
      </trkpt>
      <trkpt lat="46.07841" lon="4.3822">
        <ele>692.8</ele>
        <time>2025-09-28T10:23:16Z</time>
      </trkpt>
      <trkpt lat="46.07839" lon="4.38223">
        <ele>692.4</ele>
        <time>2025-09-28T10:23:17Z</time>
      </trkpt>
      <trkpt lat="46.07838" lon="4.38225">
        <ele>692</ele>
        <time>2025-09-28T10:23:18Z</time>
      </trkpt>
      <trkpt lat="46.07838" lon="4.38227">
        <ele>692</ele>
        <time>2025-09-28T10:23:19Z</time>
      </trkpt>
      <trkpt lat="46.07837" lon="4.3823">
        <ele>691.2</ele>
        <time>2025-09-28T10:23:20Z</time>
      </trkpt>
      <trkpt lat="46.07836" lon="4.38232">
        <ele>690.8</ele>
        <time>2025-09-28T10:23:21Z</time>
      </trkpt>
      <trkpt lat="46.07835" lon="4.38234">
        <ele>690.6</ele>
        <time>2025-09-28T10:23:22Z</time>
      </trkpt>
      <trkpt lat="46.07835" lon="4.38236">
        <ele>690.2</ele>
        <time>2025-09-28T10:23:23Z</time>
      </trkpt>
      <trkpt lat="46.07834" lon="4.38237">
        <ele>690</ele>
        <time>2025-09-28T10:23:24Z</time>
      </trkpt>
      <trkpt lat="46.07833" lon="4.38238">
        <ele>690</ele>
        <time>2025-09-28T10:23:25Z</time>
      </trkpt>
      <trkpt lat="46.07833" lon="4.38238">
        <ele>689.8</ele>
        <time>2025-09-28T10:23:26Z</time>
      </trkpt>
      <trkpt lat="46.07833" lon="4.38238">
        <ele>689.8</ele>
        <time>2025-09-28T10:23:27Z</time>
      </trkpt>
      <trkpt lat="46.07832" lon="4.38241">
        <ele>689</ele>
        <time>2025-09-28T10:23:40Z</time>
      </trkpt>
      <trkpt lat="46.07832" lon="4.38241">
        <ele>689</ele>
        <time>2025-09-28T10:23:41Z</time>
      </trkpt>
      <trkpt lat="46.07832" lon="4.38241">
        <ele>689</ele>
        <time>2025-09-28T10:23:42Z</time>
      </trkpt>
      <trkpt lat="46.07832" lon="4.3824">
        <ele>689</ele>
        <time>2025-09-28T10:23:46Z</time>
      </trkpt>
      <trkpt lat="46.07832" lon="4.3824">
        <ele>688.8</ele>
        <time>2025-09-28T10:23:47Z</time>
      </trkpt>
      <trkpt lat="46.07832" lon="4.3824">
        <ele>688.8</ele>
        <time>2025-09-28T10:23:48Z</time>
      </trkpt>
      <trkpt lat="46.07832" lon="4.38241">
        <ele>688.8</ele>
        <time>2025-09-28T10:23:49Z</time>
      </trkpt>
      <trkpt lat="46.07833" lon="4.38242">
        <ele>688.8</ele>
        <time>2025-09-28T10:23:50Z</time>
      </trkpt>
      <trkpt lat="46.07832" lon="4.38242">
        <ele>688.8</ele>
        <time>2025-09-28T10:23:51Z</time>
      </trkpt>
      <trkpt lat="46.07831" lon="4.3824">
        <ele>688.8</ele>
        <time>2025-09-28T10:24:01Z</time>
      </trkpt>
      <trkpt lat="46.07831" lon="4.3824">
        <ele>688.8</ele>
        <time>2025-09-28T10:24:02Z</time>
      </trkpt>
      <trkpt lat="46.07831" lon="4.3824">
        <ele>688.8</ele>
        <time>2025-09-28T10:24:03Z</time>
      </trkpt>
      <trkpt lat="46.0783" lon="4.38241">
        <ele>688.8</ele>
        <time>2025-09-28T10:24:04Z</time>
      </trkpt>
      <trkpt lat="46.0783" lon="4.38242">
        <ele>688.8</ele>
        <time>2025-09-28T10:24:05Z</time>
      </trkpt>
      <trkpt lat="46.0783" lon="4.38242">
        <ele>688.8</ele>
        <time>2025-09-28T10:24:06Z</time>
      </trkpt>
      <trkpt lat="46.07833" lon="4.38242">
        <ele>690.2</ele>
        <time>2025-09-28T10:38:49Z</time>
      </trkpt>
      <trkpt lat="46.07833" lon="4.38242">
        <ele>690.2</ele>
        <time>2025-09-28T10:38:50Z</time>
      </trkpt>
      <trkpt lat="46.07833" lon="4.38242">
        <ele>690.2</ele>
        <time>2025-09-28T10:38:51Z</time>
      </trkpt>
      <trkpt lat="46.07833" lon="4.38241">
        <ele>690.2</ele>
        <time>2025-09-28T10:38:53Z</time>
      </trkpt>
      <trkpt lat="46.07833" lon="4.38241">
        <ele>690.8</ele>
        <time>2025-09-28T10:42:45Z</time>
      </trkpt>
      <trkpt lat="46.07833" lon="4.38242">
        <ele>690.8</ele>
        <time>2025-09-28T10:42:46Z</time>
      </trkpt>
      <trkpt lat="46.07833" lon="4.38242">
        <ele>690.8</ele>
        <time>2025-09-28T10:42:47Z</time>
      </trkpt>
      <trkpt lat="46.0783" lon="4.38246">
        <ele>690.6</ele>
        <time>2025-09-28T10:43:48Z</time>
      </trkpt>
      <trkpt lat="46.07829" lon="4.38248">
        <ele>690.6</ele>
        <time>2025-09-28T10:43:49Z</time>
      </trkpt>
      <trkpt lat="46.07826" lon="4.38249">
        <ele>690.6</ele>
        <time>2025-09-28T10:43:50Z</time>
      </trkpt>
      <trkpt lat="46.07825" lon="4.38249">
        <ele>690.2</ele>
        <time>2025-09-28T10:43:51Z</time>
      </trkpt>
      <trkpt lat="46.07821" lon="4.3825">
        <ele>690</ele>
        <time>2025-09-28T10:43:52Z</time>
      </trkpt>
      <trkpt lat="46.07817" lon="4.3825">
        <ele>689.8</ele>
        <time>2025-09-28T10:43:53Z</time>
      </trkpt>
      <trkpt lat="46.07813" lon="4.3825">
        <ele>689.8</ele>
        <time>2025-09-28T10:43:54Z</time>
      </trkpt>
      <trkpt lat="46.0781" lon="4.38251">
        <ele>689.4</ele>
        <time>2025-09-28T10:43:55Z</time>
      </trkpt>
      <trkpt lat="46.07806" lon="4.38252">
        <ele>689</ele>
        <time>2025-09-28T10:43:56Z</time>
      </trkpt>
      <trkpt lat="46.07802" lon="4.38253">
        <ele>688.6</ele>
        <time>2025-09-28T10:43:57Z</time>
      </trkpt>
      <trkpt lat="46.07797" lon="4.38254">
        <ele>688.2</ele>
        <time>2025-09-28T10:43:58Z</time>
      </trkpt>
      <trkpt lat="46.07793" lon="4.38255">
        <ele>687.8</ele>
        <time>2025-09-28T10:43:59Z</time>
      </trkpt>
      <trkpt lat="46.07788" lon="4.38255">
        <ele>687.8</ele>
        <time>2025-09-28T10:44:00Z</time>
      </trkpt>
      <trkpt lat="46.07784" lon="4.38256">
        <ele>687.6</ele>
        <time>2025-09-28T10:44:01Z</time>
      </trkpt>
      <trkpt lat="46.0778" lon="4.38256">
        <ele>687.2</ele>
        <time>2025-09-28T10:44:02Z</time>
      </trkpt>
      <trkpt lat="46.07776" lon="4.38256">
        <ele>686.8</ele>
        <time>2025-09-28T10:44:03Z</time>
      </trkpt>
      <trkpt lat="46.07772" lon="4.38257">
        <ele>686.6</ele>
        <time>2025-09-28T10:44:04Z</time>
      </trkpt>
      <trkpt lat="46.07768" lon="4.38258">
        <ele>686.2</ele>
        <time>2025-09-28T10:44:05Z</time>
      </trkpt>
      <trkpt lat="46.07764" lon="4.3826">
        <ele>685.8</ele>
        <time>2025-09-28T10:44:06Z</time>
      </trkpt>
      <trkpt lat="46.07761" lon="4.38263">
        <ele>685.4</ele>
        <time>2025-09-28T10:44:07Z</time>
      </trkpt>
      <trkpt lat="46.07757" lon="4.38264">
        <ele>685.2</ele>
        <time>2025-09-28T10:44:08Z</time>
      </trkpt>
      <trkpt lat="46.07755" lon="4.38267">
        <ele>685</ele>
        <time>2025-09-28T10:44:09Z</time>
      </trkpt>
      <trkpt lat="46.07752" lon="4.38269">
        <ele>684.6</ele>
        <time>2025-09-28T10:44:10Z</time>
      </trkpt>
      <trkpt lat="46.0775" lon="4.38271">
        <ele>684.2</ele>
        <time>2025-09-28T10:44:11Z</time>
      </trkpt>
      <trkpt lat="46.07747" lon="4.38273">
        <ele>683.8</ele>
        <time>2025-09-28T10:44:12Z</time>
      </trkpt>
      <trkpt lat="46.07744" lon="4.38277">
        <ele>683.4</ele>
        <time>2025-09-28T10:44:13Z</time>
      </trkpt>
      <trkpt lat="46.07741" lon="4.38279">
        <ele>682.6</ele>
        <time>2025-09-28T10:44:14Z</time>
      </trkpt>
      <trkpt lat="46.07738" lon="4.38281">
        <ele>682.2</ele>
        <time>2025-09-28T10:44:15Z</time>
      </trkpt>
      <trkpt lat="46.07735" lon="4.38283">
        <ele>682</ele>
        <time>2025-09-28T10:44:16Z</time>
      </trkpt>
      <trkpt lat="46.07733" lon="4.38285">
        <ele>682</ele>
        <time>2025-09-28T10:44:17Z</time>
      </trkpt>
      <trkpt lat="46.07731" lon="4.38286">
        <ele>681.6</ele>
        <time>2025-09-28T10:44:18Z</time>
      </trkpt>
      <trkpt lat="46.07728" lon="4.38288">
        <ele>681.4</ele>
        <time>2025-09-28T10:44:19Z</time>
      </trkpt>
      <trkpt lat="46.07726" lon="4.38289">
        <ele>681.2</ele>
        <time>2025-09-28T10:44:20Z</time>
      </trkpt>
      <trkpt lat="46.07724" lon="4.38289">
        <ele>681.2</ele>
        <time>2025-09-28T10:44:21Z</time>
      </trkpt>
      <trkpt lat="46.07721" lon="4.38289">
        <ele>681.2</ele>
        <time>2025-09-28T10:44:22Z</time>
      </trkpt>
      <trkpt lat="46.07719" lon="4.38289">
        <ele>680.8</ele>
        <time>2025-09-28T10:44:23Z</time>
      </trkpt>
      <trkpt lat="46.07718" lon="4.38288">
        <ele>680.8</ele>
        <time>2025-09-28T10:44:24Z</time>
      </trkpt>
      <trkpt lat="46.07718" lon="4.38287">
        <ele>680.8</ele>
        <time>2025-09-28T10:44:25Z</time>
      </trkpt>
      <trkpt lat="46.07718" lon="4.38287">
        <ele>680.8</ele>
        <time>2025-09-28T10:44:26Z</time>
      </trkpt>
      <trkpt lat="46.07718" lon="4.38287">
        <ele>680.8</ele>
        <time>2025-09-28T10:44:27Z</time>
      </trkpt>
      <trkpt lat="46.0772" lon="4.38283">
        <ele>680.4</ele>
        <time>2025-09-28T10:46:31Z</time>
      </trkpt>
      <trkpt lat="46.0772" lon="4.38281">
        <ele>680.4</ele>
        <time>2025-09-28T10:46:32Z</time>
      </trkpt>
      <trkpt lat="46.0772" lon="4.38278">
        <ele>680</ele>
        <time>2025-09-28T10:46:33Z</time>
      </trkpt>
      <trkpt lat="46.0772" lon="4.38275">
        <ele>680</ele>
        <time>2025-09-28T10:46:34Z</time>
      </trkpt>
      <trkpt lat="46.0772" lon="4.38272">
        <ele>680</ele>
        <time>2025-09-28T10:46:35Z</time>
      </trkpt>
      <trkpt lat="46.0772" lon="4.38268">
        <ele>679.6</ele>
        <time>2025-09-28T10:46:36Z</time>
      </trkpt>
      <trkpt lat="46.0772" lon="4.38265">
        <ele>679.6</ele>
        <time>2025-09-28T10:46:37Z</time>
      </trkpt>
      <trkpt lat="46.0772" lon="4.38262">
        <ele>679.8</ele>
        <time>2025-09-28T10:46:38Z</time>
      </trkpt>
      <trkpt lat="46.0772" lon="4.38259">
        <ele>679.8</ele>
        <time>2025-09-28T10:46:39Z</time>
      </trkpt>
      <trkpt lat="46.0772" lon="4.38256">
        <ele>679.6</ele>
        <time>2025-09-28T10:46:40Z</time>
      </trkpt>
      <trkpt lat="46.07721" lon="4.38252">
        <ele>679.6</ele>
        <time>2025-09-28T10:46:41Z</time>
      </trkpt>
      <trkpt lat="46.07721" lon="4.38249">
        <ele>679.6</ele>
        <time>2025-09-28T10:46:42Z</time>
      </trkpt>
      <trkpt lat="46.07722" lon="4.38245">
        <ele>679.6</ele>
        <time>2025-09-28T10:46:43Z</time>
      </trkpt>
      <trkpt lat="46.07723" lon="4.38241">
        <ele>679.6</ele>
        <time>2025-09-28T10:46:44Z</time>
      </trkpt>
      <trkpt lat="46.07724" lon="4.38238">
        <ele>679.6</ele>
        <time>2025-09-28T10:46:45Z</time>
      </trkpt>
      <trkpt lat="46.07725" lon="4.38235">
        <ele>679.6</ele>
        <time>2025-09-28T10:46:46Z</time>
      </trkpt>
      <trkpt lat="46.07726" lon="4.38232">
        <ele>679.4</ele>
        <time>2025-09-28T10:46:47Z</time>
      </trkpt>
      <trkpt lat="46.07727" lon="4.38228">
        <ele>679.4</ele>
        <time>2025-09-28T10:46:48Z</time>
      </trkpt>
      <trkpt lat="46.07727" lon="4.38225">
        <ele>679</ele>
        <time>2025-09-28T10:46:49Z</time>
      </trkpt>
      <trkpt lat="46.07728" lon="4.38221">
        <ele>679</ele>
        <time>2025-09-28T10:46:50Z</time>
      </trkpt>
      <trkpt lat="46.0773" lon="4.38217">
        <ele>678.8</ele>
        <time>2025-09-28T10:46:51Z</time>
      </trkpt>
      <trkpt lat="46.07731" lon="4.38213">
        <ele>678.4</ele>
        <time>2025-09-28T10:46:52Z</time>
      </trkpt>
      <trkpt lat="46.07731" lon="4.38209">
        <ele>677.8</ele>
        <time>2025-09-28T10:46:53Z</time>
      </trkpt>
      <trkpt lat="46.07732" lon="4.38204">
        <ele>677</ele>
        <time>2025-09-28T10:46:54Z</time>
      </trkpt>
      <trkpt lat="46.07732" lon="4.38198">
        <ele>677</ele>
        <time>2025-09-28T10:46:55Z</time>
      </trkpt>
      <trkpt lat="46.07732" lon="4.38194">
        <ele>675.6</ele>
        <time>2025-09-28T10:46:56Z</time>
      </trkpt>
      <trkpt lat="46.07732" lon="4.38189">
        <ele>674.8</ele>
        <time>2025-09-28T10:46:57Z</time>
      </trkpt>
      <trkpt lat="46.07732" lon="4.38184">
        <ele>674.6</ele>
        <time>2025-09-28T10:46:58Z</time>
      </trkpt>
      <trkpt lat="46.07732" lon="4.38179">
        <ele>674</ele>
        <time>2025-09-28T10:46:59Z</time>
      </trkpt>
      <trkpt lat="46.07732" lon="4.38175">
        <ele>673.6</ele>
        <time>2025-09-28T10:47:00Z</time>
      </trkpt>
      <trkpt lat="46.07732" lon="4.38171">
        <ele>673.6</ele>
        <time>2025-09-28T10:47:01Z</time>
      </trkpt>
      <trkpt lat="46.07732" lon="4.38166">
        <ele>673</ele>
        <time>2025-09-28T10:47:02Z</time>
      </trkpt>
      <trkpt lat="46.07732" lon="4.38161">
        <ele>672.4</ele>
        <time>2025-09-28T10:47:03Z</time>
      </trkpt>
      <trkpt lat="46.07732" lon="4.38157">
        <ele>671.4</ele>
        <time>2025-09-28T10:47:04Z</time>
      </trkpt>
      <trkpt lat="46.07733" lon="4.38153">
        <ele>670.6</ele>
        <time>2025-09-28T10:47:05Z</time>
      </trkpt>
      <trkpt lat="46.07733" lon="4.38149">
        <ele>670.6</ele>
        <time>2025-09-28T10:47:06Z</time>
      </trkpt>
      <trkpt lat="46.07733" lon="4.38144">
        <ele>670.2</ele>
        <time>2025-09-28T10:47:07Z</time>
      </trkpt>
      <trkpt lat="46.07733" lon="4.3814">
        <ele>669.8</ele>
        <time>2025-09-28T10:47:08Z</time>
      </trkpt>
      <trkpt lat="46.07733" lon="4.38135">
        <ele>669.4</ele>
        <time>2025-09-28T10:47:09Z</time>
      </trkpt>
      <trkpt lat="46.07733" lon="4.38131">
        <ele>668.8</ele>
        <time>2025-09-28T10:47:10Z</time>
      </trkpt>
      <trkpt lat="46.07734" lon="4.38127">
        <ele>668.2</ele>
        <time>2025-09-28T10:47:11Z</time>
      </trkpt>
      <trkpt lat="46.07734" lon="4.38122">
        <ele>667.8</ele>
        <time>2025-09-28T10:47:12Z</time>
      </trkpt>
      <trkpt lat="46.07734" lon="4.38117">
        <ele>667</ele>
        <time>2025-09-28T10:47:13Z</time>
      </trkpt>
      <trkpt lat="46.07734" lon="4.38113">
        <ele>666.2</ele>
        <time>2025-09-28T10:47:14Z</time>
      </trkpt>
      <trkpt lat="46.07734" lon="4.38108">
        <ele>665.6</ele>
        <time>2025-09-28T10:47:15Z</time>
      </trkpt>
      <trkpt lat="46.07735" lon="4.38103">
        <ele>665.4</ele>
        <time>2025-09-28T10:47:16Z</time>
      </trkpt>
      <trkpt lat="46.07735" lon="4.38098">
        <ele>664.8</ele>
        <time>2025-09-28T10:47:17Z</time>
      </trkpt>
      <trkpt lat="46.07735" lon="4.38094">
        <ele>664.4</ele>
        <time>2025-09-28T10:47:18Z</time>
      </trkpt>
      <trkpt lat="46.07735" lon="4.3809">
        <ele>663.8</ele>
        <time>2025-09-28T10:47:19Z</time>
      </trkpt>
      <trkpt lat="46.07735" lon="4.38086">
        <ele>663.4</ele>
        <time>2025-09-28T10:47:20Z</time>
      </trkpt>
      <trkpt lat="46.07735" lon="4.38083">
        <ele>663</ele>
        <time>2025-09-28T10:47:21Z</time>
      </trkpt>
      <trkpt lat="46.07735" lon="4.38079">
        <ele>663</ele>
        <time>2025-09-28T10:47:22Z</time>
      </trkpt>
      <trkpt lat="46.07736" lon="4.38074">
        <ele>662</ele>
        <time>2025-09-28T10:47:23Z</time>
      </trkpt>
      <trkpt lat="46.07736" lon="4.3807">
        <ele>662</ele>
        <time>2025-09-28T10:47:24Z</time>
      </trkpt>
      <trkpt lat="46.07736" lon="4.38065">
        <ele>661.6</ele>
        <time>2025-09-28T10:47:25Z</time>
      </trkpt>
      <trkpt lat="46.07736" lon="4.3806">
        <ele>661</ele>
        <time>2025-09-28T10:47:26Z</time>
      </trkpt>
      <trkpt lat="46.07737" lon="4.38056">
        <ele>660.6</ele>
        <time>2025-09-28T10:47:27Z</time>
      </trkpt>
      <trkpt lat="46.07736" lon="4.38051">
        <ele>659.8</ele>
        <time>2025-09-28T10:47:28Z</time>
      </trkpt>
      <trkpt lat="46.07736" lon="4.38047">
        <ele>659.8</ele>
        <time>2025-09-28T10:47:29Z</time>
      </trkpt>
      <trkpt lat="46.07736" lon="4.38042">
        <ele>659</ele>
        <time>2025-09-28T10:47:30Z</time>
      </trkpt>
      <trkpt lat="46.07737" lon="4.38037">
        <ele>658.4</ele>
        <time>2025-09-28T10:47:31Z</time>
      </trkpt>
      <trkpt lat="46.07737" lon="4.38032">
        <ele>657.6</ele>
        <time>2025-09-28T10:47:32Z</time>
      </trkpt>
      <trkpt lat="46.07737" lon="4.38027">
        <ele>657.4</ele>
        <time>2025-09-28T10:47:33Z</time>
      </trkpt>
      <trkpt lat="46.07737" lon="4.38022">
        <ele>656.6</ele>
        <time>2025-09-28T10:47:34Z</time>
      </trkpt>
      <trkpt lat="46.07737" lon="4.38017">
        <ele>656</ele>
        <time>2025-09-28T10:47:35Z</time>
      </trkpt>
      <trkpt lat="46.07737" lon="4.38011">
        <ele>655.4</ele>
        <time>2025-09-28T10:47:36Z</time>
      </trkpt>
      <trkpt lat="46.07737" lon="4.38007">
        <ele>654.8</ele>
        <time>2025-09-28T10:47:37Z</time>
      </trkpt>
      <trkpt lat="46.07736" lon="4.38003">
        <ele>654</ele>
        <time>2025-09-28T10:47:38Z</time>
      </trkpt>
      <trkpt lat="46.07735" lon="4.37999">
        <ele>654.4</ele>
        <time>2025-09-28T10:47:39Z</time>
      </trkpt>
      <trkpt lat="46.07733" lon="4.37994">
        <ele>653.6</ele>
        <time>2025-09-28T10:47:40Z</time>
      </trkpt>
      <trkpt lat="46.07731" lon="4.3799">
        <ele>653</ele>
        <time>2025-09-28T10:47:41Z</time>
      </trkpt>
      <trkpt lat="46.07729" lon="4.37987">
        <ele>652.6</ele>
        <time>2025-09-28T10:47:42Z</time>
      </trkpt>
      <trkpt lat="46.07727" lon="4.37983">
        <ele>652.6</ele>
        <time>2025-09-28T10:47:43Z</time>
      </trkpt>
      <trkpt lat="46.07725" lon="4.3798">
        <ele>651.8</ele>
        <time>2025-09-28T10:47:44Z</time>
      </trkpt>
      <trkpt lat="46.07722" lon="4.37976">
        <ele>651.4</ele>
        <time>2025-09-28T10:47:45Z</time>
      </trkpt>
      <trkpt lat="46.07719" lon="4.37972">
        <ele>650.8</ele>
        <time>2025-09-28T10:47:46Z</time>
      </trkpt>
      <trkpt lat="46.07716" lon="4.37967">
        <ele>650.4</ele>
        <time>2025-09-28T10:47:47Z</time>
      </trkpt>
      <trkpt lat="46.07714" lon="4.37962">
        <ele>649.6</ele>
        <time>2025-09-28T10:47:48Z</time>
      </trkpt>
      <trkpt lat="46.07712" lon="4.37956">
        <ele>649.4</ele>
        <time>2025-09-28T10:47:49Z</time>
      </trkpt>
      <trkpt lat="46.0771" lon="4.37952">
        <ele>649.2</ele>
        <time>2025-09-28T10:47:50Z</time>
      </trkpt>
      <trkpt lat="46.07709" lon="4.37947">
        <ele>648.8</ele>
        <time>2025-09-28T10:47:51Z</time>
      </trkpt>
      <trkpt lat="46.07707" lon="4.37941">
        <ele>648.6</ele>
        <time>2025-09-28T10:47:52Z</time>
      </trkpt>
      <trkpt lat="46.07705" lon="4.37937">
        <ele>648</ele>
        <time>2025-09-28T10:47:53Z</time>
      </trkpt>
      <trkpt lat="46.07703" lon="4.37932">
        <ele>647.8</ele>
        <time>2025-09-28T10:47:54Z</time>
      </trkpt>
      <trkpt lat="46.07701" lon="4.37929">
        <ele>647.4</ele>
        <time>2025-09-28T10:47:55Z</time>
      </trkpt>
      <trkpt lat="46.07698" lon="4.37924">
        <ele>646.8</ele>
        <time>2025-09-28T10:47:56Z</time>
      </trkpt>
      <trkpt lat="46.07697" lon="4.37921">
        <ele>646.4</ele>
        <time>2025-09-28T10:47:57Z</time>
      </trkpt>
      <trkpt lat="46.07694" lon="4.37918">
        <ele>645.8</ele>
        <time>2025-09-28T10:47:58Z</time>
      </trkpt>
      <trkpt lat="46.07691" lon="4.37915">
        <ele>645.4</ele>
        <time>2025-09-28T10:47:59Z</time>
      </trkpt>
      <trkpt lat="46.07688" lon="4.37913">
        <ele>644.8</ele>
        <time>2025-09-28T10:48:00Z</time>
      </trkpt>
      <trkpt lat="46.07686" lon="4.37911">
        <ele>644.4</ele>
        <time>2025-09-28T10:48:01Z</time>
      </trkpt>
      <trkpt lat="46.07685" lon="4.3791">
        <ele>644</ele>
        <time>2025-09-28T10:48:02Z</time>
      </trkpt>
      <trkpt lat="46.07684" lon="4.37909">
        <ele>643.6</ele>
        <time>2025-09-28T10:48:03Z</time>
      </trkpt>
      <trkpt lat="46.07682" lon="4.37909">
        <ele>643.2</ele>
        <time>2025-09-28T10:48:04Z</time>
      </trkpt>
      <trkpt lat="46.07681" lon="4.37908">
        <ele>643</ele>
        <time>2025-09-28T10:48:05Z</time>
      </trkpt>
      <trkpt lat="46.0768" lon="4.37908">
        <ele>642.6</ele>
        <time>2025-09-28T10:48:06Z</time>
      </trkpt>
      <trkpt lat="46.07679" lon="4.37907">
        <ele>642.4</ele>
        <time>2025-09-28T10:48:07Z</time>
      </trkpt>
      <trkpt lat="46.07679" lon="4.37907">
        <ele>642.4</ele>
        <time>2025-09-28T10:48:08Z</time>
      </trkpt>
      <trkpt lat="46.07679" lon="4.37907">
        <ele>642.2</ele>
        <time>2025-09-28T10:48:09Z</time>
      </trkpt>
      <trkpt lat="46.07679" lon="4.37907">
        <ele>642.2</ele>
        <time>2025-09-28T10:48:10Z</time>
      </trkpt>
      <trkpt lat="46.07679" lon="4.37911">
        <ele>641.4</ele>
        <time>2025-09-28T10:49:01Z</time>
      </trkpt>
      <trkpt lat="46.07679" lon="4.37913">
        <ele>641.4</ele>
        <time>2025-09-28T10:49:02Z</time>
      </trkpt>
      <trkpt lat="46.07679" lon="4.37914">
        <ele>641.2</ele>
        <time>2025-09-28T10:49:03Z</time>
      </trkpt>
      <trkpt lat="46.07679" lon="4.37915">
        <ele>641.2</ele>
        <time>2025-09-28T10:49:04Z</time>
      </trkpt>
      <trkpt lat="46.07679" lon="4.37917">
        <ele>641.2</ele>
        <time>2025-09-28T10:49:05Z</time>
      </trkpt>
      <trkpt lat="46.07678" lon="4.37919">
        <ele>641.2</ele>
        <time>2025-09-28T10:49:06Z</time>
      </trkpt>
      <trkpt lat="46.07677" lon="4.37921">
        <ele>641</ele>
        <time>2025-09-28T10:49:07Z</time>
      </trkpt>
      <trkpt lat="46.07677" lon="4.37922">
        <ele>641</ele>
        <time>2025-09-28T10:49:08Z</time>
      </trkpt>
      <trkpt lat="46.07676" lon="4.37924">
        <ele>640.8</ele>
        <time>2025-09-28T10:49:09Z</time>
      </trkpt>
      <trkpt lat="46.07676" lon="4.37924">
        <ele>640.8</ele>
        <time>2025-09-28T10:49:10Z</time>
      </trkpt>
      <trkpt lat="46.07676" lon="4.37925">
        <ele>640.8</ele>
        <time>2025-09-28T10:49:11Z</time>
      </trkpt>
      <trkpt lat="46.07676" lon="4.37925">
        <ele>640.4</ele>
        <time>2025-09-28T10:49:12Z</time>
      </trkpt>
      <trkpt lat="46.07676" lon="4.37925">
        <ele>640.2</ele>
        <time>2025-09-28T10:49:13Z</time>
      </trkpt>
      <trkpt lat="46.07678" lon="4.37933">
        <ele>639.6</ele>
        <time>2025-09-28T10:49:54Z</time>
      </trkpt>
      <trkpt lat="46.07678" lon="4.37937">
        <ele>639.6</ele>
        <time>2025-09-28T10:49:55Z</time>
      </trkpt>
      <trkpt lat="46.07679" lon="4.37942">
        <ele>639.4</ele>
        <time>2025-09-28T10:49:56Z</time>
      </trkpt>
      <trkpt lat="46.0768" lon="4.37947">
        <ele>639.4</ele>
        <time>2025-09-28T10:49:57Z</time>
      </trkpt>
      <trkpt lat="46.0768" lon="4.37954">
        <ele>639</ele>
        <time>2025-09-28T10:49:58Z</time>
      </trkpt>
      <trkpt lat="46.07681" lon="4.37961">
        <ele>638.8</ele>
        <time>2025-09-28T10:49:59Z</time>
      </trkpt>
      <trkpt lat="46.0768" lon="4.37969">
        <ele>638.4</ele>
        <time>2025-09-28T10:50:00Z</time>
      </trkpt>
      <trkpt lat="46.07679" lon="4.37977">
        <ele>638.2</ele>
        <time>2025-09-28T10:50:01Z</time>
      </trkpt>
      <trkpt lat="46.07678" lon="4.37986">
        <ele>637.8</ele>
        <time>2025-09-28T10:50:02Z</time>
      </trkpt>
      <trkpt lat="46.07675" lon="4.37995">
        <ele>637.4</ele>
        <time>2025-09-28T10:50:03Z</time>
      </trkpt>
      <trkpt lat="46.07673" lon="4.38003">
        <ele>637.2</ele>
        <time>2025-09-28T10:50:04Z</time>
      </trkpt>
      <trkpt lat="46.0767" lon="4.38011">
        <ele>636.8</ele>
        <time>2025-09-28T10:50:05Z</time>
      </trkpt>
      <trkpt lat="46.07665" lon="4.38019">
        <ele>636.6</ele>
        <time>2025-09-28T10:50:06Z</time>
      </trkpt>
      <trkpt lat="46.0766" lon="4.38027">
        <ele>636</ele>
        <time>2025-09-28T10:50:07Z</time>
      </trkpt>
      <trkpt lat="46.07655" lon="4.38035">
        <ele>635</ele>
        <time>2025-09-28T10:50:08Z</time>
      </trkpt>
      <trkpt lat="46.07649" lon="4.38043">
        <ele>634.6</ele>
        <time>2025-09-28T10:50:09Z</time>
      </trkpt>
      <trkpt lat="46.07642" lon="4.38051">
        <ele>633.8</ele>
        <time>2025-09-28T10:50:10Z</time>
      </trkpt>
      <trkpt lat="46.07636" lon="4.38058">
        <ele>633</ele>
        <time>2025-09-28T10:50:11Z</time>
      </trkpt>
      <trkpt lat="46.07629" lon="4.38066">
        <ele>632.6</ele>
        <time>2025-09-28T10:50:12Z</time>
      </trkpt>
      <trkpt lat="46.07629" lon="4.38066">
        <ele>631.8</ele>
        <time>2025-09-28T10:50:13Z</time>
      </trkpt>
      <trkpt lat="46.07616" lon="4.38082">
        <ele>631.4</ele>
        <time>2025-09-28T10:50:14Z</time>
      </trkpt>
      <trkpt lat="46.07609" lon="4.38089">
        <ele>630.8</ele>
        <time>2025-09-28T10:50:15Z</time>
      </trkpt>
      <trkpt lat="46.07601" lon="4.38097">
        <ele>630.2</ele>
        <time>2025-09-28T10:50:16Z</time>
      </trkpt>
      <trkpt lat="46.07595" lon="4.38104">
        <ele>629.6</ele>
        <time>2025-09-28T10:50:17Z</time>
      </trkpt>
      <trkpt lat="46.07588" lon="4.38111">
        <ele>629</ele>
        <time>2025-09-28T10:50:18Z</time>
      </trkpt>
      <trkpt lat="46.07581" lon="4.38119">
        <ele>628.6</ele>
        <time>2025-09-28T10:50:19Z</time>
      </trkpt>
      <trkpt lat="46.07574" lon="4.38127">
        <ele>628</ele>
        <time>2025-09-28T10:50:20Z</time>
      </trkpt>
      <trkpt lat="46.07567" lon="4.38135">
        <ele>627.4</ele>
        <time>2025-09-28T10:50:21Z</time>
      </trkpt>
      <trkpt lat="46.07567" lon="4.38135">
        <ele>627</ele>
        <time>2025-09-28T10:50:22Z</time>
      </trkpt>
      <trkpt lat="46.0756" lon="4.38144">
        <ele>626.2</ele>
        <time>2025-09-28T10:50:23Z</time>
      </trkpt>
      <trkpt lat="46.07554" lon="4.38152">
        <ele>625.6</ele>
        <time>2025-09-28T10:50:24Z</time>
      </trkpt>
      <trkpt lat="46.07548" lon="4.38162">
        <ele>625</ele>
        <time>2025-09-28T10:50:25Z</time>
      </trkpt>
      <trkpt lat="46.07543" lon="4.38172">
        <ele>624.4</ele>
        <time>2025-09-28T10:50:26Z</time>
      </trkpt>
      <trkpt lat="46.07538" lon="4.38182">
        <ele>623.6</ele>
        <time>2025-09-28T10:50:27Z</time>
      </trkpt>
      <trkpt lat="46.07533" lon="4.38193">
        <ele>622.8</ele>
        <time>2025-09-28T10:50:28Z</time>
      </trkpt>
      <trkpt lat="46.07528" lon="4.38205">
        <ele>622</ele>
        <time>2025-09-28T10:50:29Z</time>
      </trkpt>
      <trkpt lat="46.07524" lon="4.38217">
        <ele>621.2</ele>
        <time>2025-09-28T10:50:30Z</time>
      </trkpt>
      <trkpt lat="46.0752" lon="4.38229">
        <ele>620.2</ele>
        <time>2025-09-28T10:50:31Z</time>
      </trkpt>
      <trkpt lat="46.07517" lon="4.3824">
        <ele>619.2</ele>
        <time>2025-09-28T10:50:32Z</time>
      </trkpt>
      <trkpt lat="46.07513" lon="4.3825">
        <ele>618.4</ele>
        <time>2025-09-28T10:50:33Z</time>
      </trkpt>
      <trkpt lat="46.07509" lon="4.38261">
        <ele>617.8</ele>
        <time>2025-09-28T10:50:34Z</time>
      </trkpt>
      <trkpt lat="46.07505" lon="4.38272">
        <ele>617.4</ele>
        <time>2025-09-28T10:50:35Z</time>
      </trkpt>
      <trkpt lat="46.07503" lon="4.38283">
        <ele>617</ele>
        <time>2025-09-28T10:50:36Z</time>
      </trkpt>
      <trkpt lat="46.075" lon="4.38293">
        <ele>616.4</ele>
        <time>2025-09-28T10:50:37Z</time>
      </trkpt>
      <trkpt lat="46.07499" lon="4.38304">
        <ele>615.6</ele>
        <time>2025-09-28T10:50:38Z</time>
      </trkpt>
      <trkpt lat="46.07497" lon="4.38315">
        <ele>615.2</ele>
        <time>2025-09-28T10:50:39Z</time>
      </trkpt>
      <trkpt lat="46.07496" lon="4.38326">
        <ele>614.6</ele>
        <time>2025-09-28T10:50:40Z</time>
      </trkpt>
      <trkpt lat="46.07493" lon="4.38337">
        <ele>614.2</ele>
        <time>2025-09-28T10:50:41Z</time>
      </trkpt>
      <trkpt lat="46.07491" lon="4.38349">
        <ele>613.8</ele>
        <time>2025-09-28T10:50:42Z</time>
      </trkpt>
      <trkpt lat="46.07486" lon="4.3836">
        <ele>613.2</ele>
        <time>2025-09-28T10:50:43Z</time>
      </trkpt>
      <trkpt lat="46.07482" lon="4.3837">
        <ele>612.6</ele>
        <time>2025-09-28T10:50:44Z</time>
      </trkpt>
      <trkpt lat="46.07477" lon="4.3838">
        <ele>612</ele>
        <time>2025-09-28T10:50:45Z</time>
      </trkpt>
      <trkpt lat="46.07471" lon="4.38389">
        <ele>611.2</ele>
        <time>2025-09-28T10:50:46Z</time>
      </trkpt>
      <trkpt lat="46.07464" lon="4.38398">
        <ele>610.8</ele>
        <time>2025-09-28T10:50:47Z</time>
      </trkpt>
      <trkpt lat="46.07458" lon="4.38406">
        <ele>610.4</ele>
        <time>2025-09-28T10:50:48Z</time>
      </trkpt>
      <trkpt lat="46.07451" lon="4.38414">
        <ele>609.8</ele>
        <time>2025-09-28T10:50:49Z</time>
      </trkpt>
      <trkpt lat="46.07445" lon="4.38421">
        <ele>609.4</ele>
        <time>2025-09-28T10:50:50Z</time>
      </trkpt>
      <trkpt lat="46.07439" lon="4.38428">
        <ele>609</ele>
        <time>2025-09-28T10:50:51Z</time>
      </trkpt>
      <trkpt lat="46.07432" lon="4.38436">
        <ele>608.6</ele>
        <time>2025-09-28T10:50:52Z</time>
      </trkpt>
      <trkpt lat="46.07426" lon="4.38445">
        <ele>608.2</ele>
        <time>2025-09-28T10:50:53Z</time>
      </trkpt>
      <trkpt lat="46.0742" lon="4.38454">
        <ele>607.6</ele>
        <time>2025-09-28T10:50:54Z</time>
      </trkpt>
      <trkpt lat="46.07416" lon="4.38464">
        <ele>607.2</ele>
        <time>2025-09-28T10:50:55Z</time>
      </trkpt>
      <trkpt lat="46.07413" lon="4.38475">
        <ele>606.4</ele>
        <time>2025-09-28T10:50:56Z</time>
      </trkpt>
      <trkpt lat="46.0741" lon="4.38487">
        <ele>606</ele>
        <time>2025-09-28T10:50:57Z</time>
      </trkpt>
      <trkpt lat="46.07408" lon="4.38498">
        <ele>605.6</ele>
        <time>2025-09-28T10:50:58Z</time>
      </trkpt>
      <trkpt lat="46.07407" lon="4.38509">
        <ele>605.2</ele>
        <time>2025-09-28T10:50:59Z</time>
      </trkpt>
      <trkpt lat="46.07407" lon="4.38523">
        <ele>604.8</ele>
        <time>2025-09-28T10:51:00Z</time>
      </trkpt>
      <trkpt lat="46.07407" lon="4.38534">
        <ele>604.4</ele>
        <time>2025-09-28T10:51:01Z</time>
      </trkpt>
      <trkpt lat="46.07408" lon="4.38545">
        <ele>604.4</ele>
        <time>2025-09-28T10:51:02Z</time>
      </trkpt>
      <trkpt lat="46.07407" lon="4.38556">
        <ele>603.8</ele>
        <time>2025-09-28T10:51:03Z</time>
      </trkpt>
      <trkpt lat="46.07409" lon="4.38563">
        <ele>603.4</ele>
        <time>2025-09-28T10:51:04Z</time>
      </trkpt>
      <trkpt lat="46.0741" lon="4.38572">
        <ele>603</ele>
        <time>2025-09-28T10:51:05Z</time>
      </trkpt>
      <trkpt lat="46.07412" lon="4.38579">
        <ele>602.4</ele>
        <time>2025-09-28T10:51:06Z</time>
      </trkpt>
      <trkpt lat="46.07415" lon="4.38586">
        <ele>601.6</ele>
        <time>2025-09-28T10:51:07Z</time>
      </trkpt>
      <trkpt lat="46.07418" lon="4.38594">
        <ele>601.2</ele>
        <time>2025-09-28T10:51:08Z</time>
      </trkpt>
      <trkpt lat="46.0742" lon="4.386">
        <ele>600.8</ele>
        <time>2025-09-28T10:51:09Z</time>
      </trkpt>
      <trkpt lat="46.07423" lon="4.38607">
        <ele>600.6</ele>
        <time>2025-09-28T10:51:10Z</time>
      </trkpt>
      <trkpt lat="46.07423" lon="4.38611">
        <ele>600.2</ele>
        <time>2025-09-28T10:51:11Z</time>
      </trkpt>
      <trkpt lat="46.07424" lon="4.38614">
        <ele>599.4</ele>
        <time>2025-09-28T10:51:12Z</time>
      </trkpt>
      <trkpt lat="46.07425" lon="4.38618">
        <ele>599.2</ele>
        <time>2025-09-28T10:51:13Z</time>
      </trkpt>
      <trkpt lat="46.07426" lon="4.3862">
        <ele>599.4</ele>
        <time>2025-09-28T10:51:14Z</time>
      </trkpt>
      <trkpt lat="46.07428" lon="4.38622">
        <ele>599.2</ele>
        <time>2025-09-28T10:51:15Z</time>
      </trkpt>
      <trkpt lat="46.07429" lon="4.38625">
        <ele>599.2</ele>
        <time>2025-09-28T10:51:16Z</time>
      </trkpt>
      <trkpt lat="46.0743" lon="4.38628">
        <ele>598.8</ele>
        <time>2025-09-28T10:51:17Z</time>
      </trkpt>
      <trkpt lat="46.07431" lon="4.38632">
        <ele>598.6</ele>
        <time>2025-09-28T10:51:18Z</time>
      </trkpt>
      <trkpt lat="46.07433" lon="4.38635">
        <ele>598.2</ele>
        <time>2025-09-28T10:51:19Z</time>
      </trkpt>
      <trkpt lat="46.07434" lon="4.38639">
        <ele>597.8</ele>
        <time>2025-09-28T10:51:20Z</time>
      </trkpt>
      <trkpt lat="46.07436" lon="4.38643">
        <ele>597.4</ele>
        <time>2025-09-28T10:51:21Z</time>
      </trkpt>
      <trkpt lat="46.07439" lon="4.38647">
        <ele>597</ele>
        <time>2025-09-28T10:51:22Z</time>
      </trkpt>
      <trkpt lat="46.07441" lon="4.38652">
        <ele>597</ele>
        <time>2025-09-28T10:51:23Z</time>
      </trkpt>
      <trkpt lat="46.07442" lon="4.38658">
        <ele>596.4</ele>
        <time>2025-09-28T10:51:24Z</time>
      </trkpt>
      <trkpt lat="46.07444" lon="4.38664">
        <ele>596.2</ele>
        <time>2025-09-28T10:51:25Z</time>
      </trkpt>
      <trkpt lat="46.07447" lon="4.38671">
        <ele>595.8</ele>
        <time>2025-09-28T10:51:26Z</time>
      </trkpt>
      <trkpt lat="46.0745" lon="4.38677">
        <ele>595.6</ele>
        <time>2025-09-28T10:51:27Z</time>
      </trkpt>
      <trkpt lat="46.07453" lon="4.38685">
        <ele>595.4</ele>
        <time>2025-09-28T10:51:28Z</time>
      </trkpt>
      <trkpt lat="46.07454" lon="4.38692">
        <ele>594.8</ele>
        <time>2025-09-28T10:51:29Z</time>
      </trkpt>
      <trkpt lat="46.07457" lon="4.387">
        <ele>594.2</ele>
        <time>2025-09-28T10:51:30Z</time>
      </trkpt>
      <trkpt lat="46.07459" lon="4.38708">
        <ele>593.8</ele>
        <time>2025-09-28T10:51:31Z</time>
      </trkpt>
      <trkpt lat="46.07461" lon="4.38716">
        <ele>593.4</ele>
        <time>2025-09-28T10:51:32Z</time>
      </trkpt>
      <trkpt lat="46.07464" lon="4.38723">
        <ele>593</ele>
        <time>2025-09-28T10:51:33Z</time>
      </trkpt>
      <trkpt lat="46.07468" lon="4.38731">
        <ele>592.4</ele>
        <time>2025-09-28T10:51:34Z</time>
      </trkpt>
      <trkpt lat="46.0747" lon="4.3874">
        <ele>591.8</ele>
        <time>2025-09-28T10:51:35Z</time>
      </trkpt>
      <trkpt lat="46.07472" lon="4.38745">
        <ele>591.4</ele>
        <time>2025-09-28T10:51:36Z</time>
      </trkpt>
      <trkpt lat="46.07475" lon="4.38751">
        <ele>591</ele>
        <time>2025-09-28T10:51:37Z</time>
      </trkpt>
      <trkpt lat="46.07476" lon="4.38755">
        <ele>590.4</ele>
        <time>2025-09-28T10:51:38Z</time>
      </trkpt>
      <trkpt lat="46.0748" lon="4.38758">
        <ele>590</ele>
        <time>2025-09-28T10:51:39Z</time>
      </trkpt>
      <trkpt lat="46.07485" lon="4.3876">
        <ele>589.4</ele>
        <time>2025-09-28T10:51:40Z</time>
      </trkpt>
      <trkpt lat="46.0749" lon="4.38763">
        <ele>589</ele>
        <time>2025-09-28T10:51:41Z</time>
      </trkpt>
      <trkpt lat="46.07495" lon="4.38764">
        <ele>588.4</ele>
        <time>2025-09-28T10:51:42Z</time>
      </trkpt>
      <trkpt lat="46.07501" lon="4.38766">
        <ele>588</ele>
        <time>2025-09-28T10:51:43Z</time>
      </trkpt>
      <trkpt lat="46.07506" lon="4.38768">
        <ele>587.4</ele>
        <time>2025-09-28T10:51:44Z</time>
      </trkpt>
      <trkpt lat="46.07512" lon="4.38769">
        <ele>587</ele>
        <time>2025-09-28T10:51:45Z</time>
      </trkpt>
      <trkpt lat="46.07518" lon="4.3877">
        <ele>586.8</ele>
        <time>2025-09-28T10:51:46Z</time>
      </trkpt>
      <trkpt lat="46.07525" lon="4.38769">
        <ele>586.6</ele>
        <time>2025-09-28T10:51:47Z</time>
      </trkpt>
      <trkpt lat="46.07531" lon="4.3877">
        <ele>586.4</ele>
        <time>2025-09-28T10:51:48Z</time>
      </trkpt>
      <trkpt lat="46.07538" lon="4.3877">
        <ele>586.4</ele>
        <time>2025-09-28T10:51:49Z</time>
      </trkpt>
      <trkpt lat="46.07544" lon="4.3877">
        <ele>586</ele>
        <time>2025-09-28T10:51:50Z</time>
      </trkpt>
      <trkpt lat="46.07551" lon="4.38769">
        <ele>586</ele>
        <time>2025-09-28T10:51:51Z</time>
      </trkpt>
      <trkpt lat="46.07556" lon="4.3877">
        <ele>585.6</ele>
        <time>2025-09-28T10:51:52Z</time>
      </trkpt>
      <trkpt lat="46.07563" lon="4.38769">
        <ele>585.4</ele>
        <time>2025-09-28T10:51:53Z</time>
      </trkpt>
      <trkpt lat="46.0757" lon="4.3877">
        <ele>585</ele>
        <time>2025-09-28T10:51:54Z</time>
      </trkpt>
      <trkpt lat="46.07576" lon="4.3877">
        <ele>584.8</ele>
        <time>2025-09-28T10:51:55Z</time>
      </trkpt>
      <trkpt lat="46.07582" lon="4.38773">
        <ele>584.4</ele>
        <time>2025-09-28T10:51:56Z</time>
      </trkpt>
      <trkpt lat="46.07587" lon="4.38778">
        <ele>584.4</ele>
        <time>2025-09-28T10:51:57Z</time>
      </trkpt>
      <trkpt lat="46.07593" lon="4.38782">
        <ele>584</ele>
        <time>2025-09-28T10:51:58Z</time>
      </trkpt>
      <trkpt lat="46.07599" lon="4.38786">
        <ele>583.8</ele>
        <time>2025-09-28T10:51:59Z</time>
      </trkpt>
      <trkpt lat="46.07605" lon="4.38789">
        <ele>583.6</ele>
        <time>2025-09-28T10:52:00Z</time>
      </trkpt>
      <trkpt lat="46.07611" lon="4.38793">
        <ele>583.6</ele>
        <time>2025-09-28T10:52:01Z</time>
      </trkpt>
      <trkpt lat="46.07618" lon="4.38796">
        <ele>583.4</ele>
        <time>2025-09-28T10:52:02Z</time>
      </trkpt>
      <trkpt lat="46.07625" lon="4.38798">
        <ele>583.2</ele>
        <time>2025-09-28T10:52:03Z</time>
      </trkpt>
      <trkpt lat="46.07633" lon="4.38798">
        <ele>582.6</ele>
        <time>2025-09-28T10:52:04Z</time>
      </trkpt>
      <trkpt lat="46.07641" lon="4.38798">
        <ele>582.2</ele>
        <time>2025-09-28T10:52:05Z</time>
      </trkpt>
      <trkpt lat="46.07648" lon="4.38797">
        <ele>581.8</ele>
        <time>2025-09-28T10:52:06Z</time>
      </trkpt>
      <trkpt lat="46.07656" lon="4.38795">
        <ele>581.4</ele>
        <time>2025-09-28T10:52:07Z</time>
      </trkpt>
      <trkpt lat="46.07663" lon="4.38792">
        <ele>581</ele>
        <time>2025-09-28T10:52:08Z</time>
      </trkpt>
      <trkpt lat="46.0767" lon="4.3879">
        <ele>580.8</ele>
        <time>2025-09-28T10:52:09Z</time>
      </trkpt>
      <trkpt lat="46.07677" lon="4.38787">
        <ele>580.2</ele>
        <time>2025-09-28T10:52:10Z</time>
      </trkpt>
      <trkpt lat="46.07684" lon="4.38785">
        <ele>579.8</ele>
        <time>2025-09-28T10:52:11Z</time>
      </trkpt>
      <trkpt lat="46.07692" lon="4.38783">
        <ele>579.2</ele>
        <time>2025-09-28T10:52:12Z</time>
      </trkpt>
      <trkpt lat="46.07699" lon="4.38781">
        <ele>578.6</ele>
        <time>2025-09-28T10:52:13Z</time>
      </trkpt>
      <trkpt lat="46.07706" lon="4.3878">
        <ele>578.2</ele>
        <time>2025-09-28T10:52:14Z</time>
      </trkpt>
      <trkpt lat="46.07712" lon="4.3878">
        <ele>577.8</ele>
        <time>2025-09-28T10:52:15Z</time>
      </trkpt>
      <trkpt lat="46.07718" lon="4.3878">
        <ele>577.6</ele>
        <time>2025-09-28T10:52:16Z</time>
      </trkpt>
      <trkpt lat="46.07724" lon="4.38781">
        <ele>577.4</ele>
        <time>2025-09-28T10:52:17Z</time>
      </trkpt>
      <trkpt lat="46.0773" lon="4.3878">
        <ele>577.4</ele>
        <time>2025-09-28T10:52:18Z</time>
      </trkpt>
      <trkpt lat="46.07735" lon="4.38782">
        <ele>577</ele>
        <time>2025-09-28T10:52:19Z</time>
      </trkpt>
      <trkpt lat="46.07741" lon="4.38784">
        <ele>577</ele>
        <time>2025-09-28T10:52:20Z</time>
      </trkpt>
      <trkpt lat="46.07746" lon="4.38785">
        <ele>576.6</ele>
        <time>2025-09-28T10:52:21Z</time>
      </trkpt>
      <trkpt lat="46.07752" lon="4.38786">
        <ele>576.4</ele>
        <time>2025-09-28T10:52:22Z</time>
      </trkpt>
      <trkpt lat="46.07758" lon="4.38786">
        <ele>576.2</ele>
        <time>2025-09-28T10:52:23Z</time>
      </trkpt>
      <trkpt lat="46.07765" lon="4.38786">
        <ele>575.8</ele>
        <time>2025-09-28T10:52:24Z</time>
      </trkpt>
      <trkpt lat="46.07771" lon="4.38783">
        <ele>575.6</ele>
        <time>2025-09-28T10:52:25Z</time>
      </trkpt>
      <trkpt lat="46.07777" lon="4.38779">
        <ele>575.2</ele>
        <time>2025-09-28T10:52:26Z</time>
      </trkpt>
      <trkpt lat="46.07783" lon="4.38775">
        <ele>575</ele>
        <time>2025-09-28T10:52:27Z</time>
      </trkpt>
      <trkpt lat="46.07789" lon="4.38768">
        <ele>574.6</ele>
        <time>2025-09-28T10:52:28Z</time>
      </trkpt>
      <trkpt lat="46.07795" lon="4.3876">
        <ele>574.4</ele>
        <time>2025-09-28T10:52:29Z</time>
      </trkpt>
      <trkpt lat="46.078" lon="4.38752">
        <ele>573.8</ele>
        <time>2025-09-28T10:52:30Z</time>
      </trkpt>
      <trkpt lat="46.07805" lon="4.38745">
        <ele>573.2</ele>
        <time>2025-09-28T10:52:31Z</time>
      </trkpt>
      <trkpt lat="46.07811" lon="4.38736">
        <ele>572.8</ele>
        <time>2025-09-28T10:52:32Z</time>
      </trkpt>
      <trkpt lat="46.07817" lon="4.38729">
        <ele>572.4</ele>
        <time>2025-09-28T10:52:33Z</time>
      </trkpt>
      <trkpt lat="46.07821" lon="4.38722">
        <ele>571.2</ele>
        <time>2025-09-28T10:52:34Z</time>
      </trkpt>
      <trkpt lat="46.07826" lon="4.38716">
        <ele>571</ele>
        <time>2025-09-28T10:52:35Z</time>
      </trkpt>
      <trkpt lat="46.0783" lon="4.3871">
        <ele>570.8</ele>
        <time>2025-09-28T10:52:36Z</time>
      </trkpt>
      <trkpt lat="46.07836" lon="4.38704">
        <ele>570.8</ele>
        <time>2025-09-28T10:52:37Z</time>
      </trkpt>
      <trkpt lat="46.07841" lon="4.38698">
        <ele>570.2</ele>
        <time>2025-09-28T10:52:38Z</time>
      </trkpt>
      <trkpt lat="46.07847" lon="4.38695">
        <ele>570</ele>
        <time>2025-09-28T10:52:39Z</time>
      </trkpt>
      <trkpt lat="46.07854" lon="4.38695">
        <ele>569.6</ele>
        <time>2025-09-28T10:52:40Z</time>
      </trkpt>
      <trkpt lat="46.0786" lon="4.387">
        <ele>569.2</ele>
        <time>2025-09-28T10:52:41Z</time>
      </trkpt>
      <trkpt lat="46.07865" lon="4.38708">
        <ele>568.8</ele>
        <time>2025-09-28T10:52:42Z</time>
      </trkpt>
      <trkpt lat="46.07867" lon="4.38718">
        <ele>568.2</ele>
        <time>2025-09-28T10:52:43Z</time>
      </trkpt>
      <trkpt lat="46.07869" lon="4.38729">
        <ele>567.6</ele>
        <time>2025-09-28T10:52:44Z</time>
      </trkpt>
      <trkpt lat="46.0787" lon="4.3874">
        <ele>567</ele>
        <time>2025-09-28T10:52:45Z</time>
      </trkpt>
      <trkpt lat="46.0787" lon="4.38751">
        <ele>566.6</ele>
        <time>2025-09-28T10:52:46Z</time>
      </trkpt>
      <trkpt lat="46.07868" lon="4.38762">
        <ele>566.2</ele>
        <time>2025-09-28T10:52:47Z</time>
      </trkpt>
      <trkpt lat="46.07867" lon="4.38773">
        <ele>565.6</ele>
        <time>2025-09-28T10:52:48Z</time>
      </trkpt>
      <trkpt lat="46.07864" lon="4.38784">
        <ele>565</ele>
        <time>2025-09-28T10:52:49Z</time>
      </trkpt>
      <trkpt lat="46.07862" lon="4.38793">
        <ele>564.4</ele>
        <time>2025-09-28T10:52:50Z</time>
      </trkpt>
      <trkpt lat="46.07859" lon="4.38803">
        <ele>564.2</ele>
        <time>2025-09-28T10:52:51Z</time>
      </trkpt>
      <trkpt lat="46.07857" lon="4.38814">
        <ele>563.8</ele>
        <time>2025-09-28T10:52:52Z</time>
      </trkpt>
      <trkpt lat="46.07857" lon="4.38825">
        <ele>563.4</ele>
        <time>2025-09-28T10:52:53Z</time>
      </trkpt>
      <trkpt lat="46.07857" lon="4.38836">
        <ele>563.4</ele>
        <time>2025-09-28T10:52:54Z</time>
      </trkpt>
      <trkpt lat="46.07858" lon="4.38847">
        <ele>563.8</ele>
        <time>2025-09-28T10:52:55Z</time>
      </trkpt>
      <trkpt lat="46.0786" lon="4.38857">
        <ele>563.8</ele>
        <time>2025-09-28T10:52:56Z</time>
      </trkpt>
      <trkpt lat="46.07862" lon="4.38865">
        <ele>564</ele>
        <time>2025-09-28T10:52:57Z</time>
      </trkpt>
      <trkpt lat="46.0787" lon="4.38879">
        <ele>564</ele>
        <time>2025-09-28T10:52:58Z</time>
      </trkpt>
      <trkpt lat="46.07874" lon="4.38885">
        <ele>564</ele>
        <time>2025-09-28T10:52:59Z</time>
      </trkpt>
      <trkpt lat="46.07878" lon="4.3889">
        <ele>564</ele>
        <time>2025-09-28T10:53:00Z</time>
      </trkpt>
      <trkpt lat="46.07882" lon="4.38896">
        <ele>564.2</ele>
        <time>2025-09-28T10:53:01Z</time>
      </trkpt>
      <trkpt lat="46.07887" lon="4.38901">
        <ele>564.2</ele>
        <time>2025-09-28T10:53:02Z</time>
      </trkpt>
      <trkpt lat="46.07893" lon="4.38905">
        <ele>564.2</ele>
        <time>2025-09-28T10:53:03Z</time>
      </trkpt>
      <trkpt lat="46.07898" lon="4.3891">
        <ele>564</ele>
        <time>2025-09-28T10:53:04Z</time>
      </trkpt>
      <trkpt lat="46.07905" lon="4.3891">
        <ele>563.6</ele>
        <time>2025-09-28T10:53:05Z</time>
      </trkpt>
      <trkpt lat="46.07911" lon="4.38912">
        <ele>563.4</ele>
        <time>2025-09-28T10:53:06Z</time>
      </trkpt>
      <trkpt lat="46.07918" lon="4.38915">
        <ele>563</ele>
        <time>2025-09-28T10:53:07Z</time>
      </trkpt>
      <trkpt lat="46.07926" lon="4.38915">
        <ele>562.6</ele>
        <time>2025-09-28T10:53:08Z</time>
      </trkpt>
      <trkpt lat="46.0793" lon="4.38916">
        <ele>562.4</ele>
        <time>2025-09-28T10:53:09Z</time>
      </trkpt>
      <trkpt lat="46.07937" lon="4.38919">
        <ele>562</ele>
        <time>2025-09-28T10:53:10Z</time>
      </trkpt>
      <trkpt lat="46.07943" lon="4.3892">
        <ele>561.8</ele>
        <time>2025-09-28T10:53:11Z</time>
      </trkpt>
      <trkpt lat="46.0795" lon="4.38922">
        <ele>561.4</ele>
        <time>2025-09-28T10:53:12Z</time>
      </trkpt>
      <trkpt lat="46.07958" lon="4.38924">
        <ele>560.8</ele>
        <time>2025-09-28T10:53:13Z</time>
      </trkpt>
      <trkpt lat="46.07965" lon="4.38925">
        <ele>560.4</ele>
        <time>2025-09-28T10:53:14Z</time>
      </trkpt>
      <trkpt lat="46.07972" lon="4.38927">
        <ele>560</ele>
        <time>2025-09-28T10:53:15Z</time>
      </trkpt>
      <trkpt lat="46.07981" lon="4.38926">
        <ele>559.6</ele>
        <time>2025-09-28T10:53:16Z</time>
      </trkpt>
      <trkpt lat="46.0799" lon="4.38926">
        <ele>559</ele>
        <time>2025-09-28T10:53:17Z</time>
      </trkpt>
      <trkpt lat="46.07999" lon="4.38926">
        <ele>558.2</ele>
        <time>2025-09-28T10:53:18Z</time>
      </trkpt>
      <trkpt lat="46.08008" lon="4.38925">
        <ele>557.8</ele>
        <time>2025-09-28T10:53:19Z</time>
      </trkpt>
      <trkpt lat="46.08017" lon="4.38923">
        <ele>557.2</ele>
        <time>2025-09-28T10:53:20Z</time>
      </trkpt>
      <trkpt lat="46.08026" lon="4.38921">
        <ele>556.4</ele>
        <time>2025-09-28T10:53:21Z</time>
      </trkpt>
      <trkpt lat="46.08036" lon="4.38917">
        <ele>555.6</ele>
        <time>2025-09-28T10:53:22Z</time>
      </trkpt>
      <trkpt lat="46.08045" lon="4.38913">
        <ele>555</ele>
        <time>2025-09-28T10:53:23Z</time>
      </trkpt>
      <trkpt lat="46.08055" lon="4.38909">
        <ele>554.2</ele>
        <time>2025-09-28T10:53:24Z</time>
      </trkpt>
      <trkpt lat="46.08064" lon="4.38903">
        <ele>553.6</ele>
        <time>2025-09-28T10:53:25Z</time>
      </trkpt>
      <trkpt lat="46.08073" lon="4.38896">
        <ele>553</ele>
        <time>2025-09-28T10:53:26Z</time>
      </trkpt>
      <trkpt lat="46.08082" lon="4.38888">
        <ele>552.2</ele>
        <time>2025-09-28T10:53:27Z</time>
      </trkpt>
      <trkpt lat="46.08089" lon="4.38877">
        <ele>551.6</ele>
        <time>2025-09-28T10:53:28Z</time>
      </trkpt>
      <trkpt lat="46.08096" lon="4.38867">
        <ele>550.8</ele>
        <time>2025-09-28T10:53:29Z</time>
      </trkpt>
      <trkpt lat="46.08103" lon="4.38858">
        <ele>550.2</ele>
        <time>2025-09-28T10:53:30Z</time>
      </trkpt>
      <trkpt lat="46.08108" lon="4.3885">
        <ele>549.6</ele>
        <time>2025-09-28T10:53:31Z</time>
      </trkpt>
      <trkpt lat="46.08115" lon="4.38844">
        <ele>549.6</ele>
        <time>2025-09-28T10:53:32Z</time>
      </trkpt>
      <trkpt lat="46.08123" lon="4.38843">
        <ele>549</ele>
        <time>2025-09-28T10:53:33Z</time>
      </trkpt>
      <trkpt lat="46.08132" lon="4.38845">
        <ele>548.4</ele>
        <time>2025-09-28T10:53:34Z</time>
      </trkpt>
      <trkpt lat="46.0814" lon="4.38851">
        <ele>547.8</ele>
        <time>2025-09-28T10:53:35Z</time>
      </trkpt>
      <trkpt lat="46.08148" lon="4.38857">
        <ele>547</ele>
        <time>2025-09-28T10:53:36Z</time>
      </trkpt>
      <trkpt lat="46.08156" lon="4.38862">
        <ele>546.6</ele>
        <time>2025-09-28T10:53:37Z</time>
      </trkpt>
      <trkpt lat="46.08165" lon="4.38865">
        <ele>546.2</ele>
        <time>2025-09-28T10:53:38Z</time>
      </trkpt>
      <trkpt lat="46.08175" lon="4.38865">
        <ele>545.8</ele>
        <time>2025-09-28T10:53:39Z</time>
      </trkpt>
      <trkpt lat="46.08185" lon="4.38862">
        <ele>545.4</ele>
        <time>2025-09-28T10:53:40Z</time>
      </trkpt>
      <trkpt lat="46.08194" lon="4.38857">
        <ele>544.8</ele>
        <time>2025-09-28T10:53:41Z</time>
      </trkpt>
      <trkpt lat="46.08202" lon="4.3885">
        <ele>544</ele>
        <time>2025-09-28T10:53:42Z</time>
      </trkpt>
      <trkpt lat="46.08211" lon="4.38842">
        <ele>543.2</ele>
        <time>2025-09-28T10:53:43Z</time>
      </trkpt>
      <trkpt lat="46.08219" lon="4.38835">
        <ele>542.4</ele>
        <time>2025-09-28T10:53:44Z</time>
      </trkpt>
      <trkpt lat="46.08229" lon="4.38828">
        <ele>542</ele>
        <time>2025-09-28T10:53:45Z</time>
      </trkpt>
      <trkpt lat="46.08238" lon="4.38822">
        <ele>541.2</ele>
        <time>2025-09-28T10:53:46Z</time>
      </trkpt>
      <trkpt lat="46.08247" lon="4.38816">
        <ele>540.2</ele>
        <time>2025-09-28T10:53:47Z</time>
      </trkpt>
      <trkpt lat="46.08256" lon="4.38812">
        <ele>539.4</ele>
        <time>2025-09-28T10:53:48Z</time>
      </trkpt>
      <trkpt lat="46.08265" lon="4.38809">
        <ele>538.6</ele>
        <time>2025-09-28T10:53:49Z</time>
      </trkpt>
      <trkpt lat="46.08274" lon="4.38808">
        <ele>538</ele>
        <time>2025-09-28T10:53:50Z</time>
      </trkpt>
      <trkpt lat="46.08283" lon="4.38805">
        <ele>537.2</ele>
        <time>2025-09-28T10:53:51Z</time>
      </trkpt>
      <trkpt lat="46.08289" lon="4.38803">
        <ele>536.4</ele>
        <time>2025-09-28T10:53:52Z</time>
      </trkpt>
      <trkpt lat="46.08296" lon="4.38801">
        <ele>535.8</ele>
        <time>2025-09-28T10:53:53Z</time>
      </trkpt>
      <trkpt lat="46.08303" lon="4.38799">
        <ele>535.2</ele>
        <time>2025-09-28T10:53:54Z</time>
      </trkpt>
      <trkpt lat="46.08309" lon="4.38798">
        <ele>534.6</ele>
        <time>2025-09-28T10:53:55Z</time>
      </trkpt>
      <trkpt lat="46.08316" lon="4.38804">
        <ele>534.2</ele>
        <time>2025-09-28T10:53:56Z</time>
      </trkpt>
      <trkpt lat="46.08323" lon="4.38809">
        <ele>533.6</ele>
        <time>2025-09-28T10:53:57Z</time>
      </trkpt>
      <trkpt lat="46.0833" lon="4.38815">
        <ele>532.8</ele>
        <time>2025-09-28T10:53:58Z</time>
      </trkpt>
      <trkpt lat="46.08334" lon="4.38826">
        <ele>532.2</ele>
        <time>2025-09-28T10:53:59Z</time>
      </trkpt>
      <trkpt lat="46.08338" lon="4.38835">
        <ele>531.8</ele>
        <time>2025-09-28T10:54:00Z</time>
      </trkpt>
      <trkpt lat="46.08341" lon="4.38845">
        <ele>531.6</ele>
        <time>2025-09-28T10:54:01Z</time>
      </trkpt>
      <trkpt lat="46.08344" lon="4.38855">
        <ele>531.2</ele>
        <time>2025-09-28T10:54:02Z</time>
      </trkpt>
      <trkpt lat="46.08347" lon="4.38862">
        <ele>531.2</ele>
        <time>2025-09-28T10:54:03Z</time>
      </trkpt>
      <trkpt lat="46.08349" lon="4.3887">
        <ele>531.2</ele>
        <time>2025-09-28T10:54:04Z</time>
      </trkpt>
      <trkpt lat="46.08351" lon="4.38876">
        <ele>531.2</ele>
        <time>2025-09-28T10:54:05Z</time>
      </trkpt>
      <trkpt lat="46.08352" lon="4.38882">
        <ele>531.2</ele>
        <time>2025-09-28T10:54:06Z</time>
      </trkpt>
      <trkpt lat="46.08352" lon="4.38886">
        <ele>531.4</ele>
        <time>2025-09-28T10:54:07Z</time>
      </trkpt>
      <trkpt lat="46.08352" lon="4.38891">
        <ele>531.4</ele>
        <time>2025-09-28T10:54:08Z</time>
      </trkpt>
      <trkpt lat="46.0835" lon="4.38895">
        <ele>531.4</ele>
        <time>2025-09-28T10:54:09Z</time>
      </trkpt>
      <trkpt lat="46.08349" lon="4.38897">
        <ele>531.4</ele>
        <time>2025-09-28T10:54:10Z</time>
      </trkpt>
      <trkpt lat="46.08347" lon="4.38898">
        <ele>531.4</ele>
        <time>2025-09-28T10:54:11Z</time>
      </trkpt>
      <trkpt lat="46.08347" lon="4.389">
        <ele>531.4</ele>
        <time>2025-09-28T10:54:12Z</time>
      </trkpt>
      <trkpt lat="46.08346" lon="4.38901">
        <ele>531.2</ele>
        <time>2025-09-28T10:54:13Z</time>
      </trkpt>
      <trkpt lat="46.08346" lon="4.38904">
        <ele>531.2</ele>
        <time>2025-09-28T10:54:14Z</time>
      </trkpt>
      <trkpt lat="46.08345" lon="4.38905">
        <ele>531.2</ele>
        <time>2025-09-28T10:54:15Z</time>
      </trkpt>
      <trkpt lat="46.08346" lon="4.38909">
        <ele>531.2</ele>
        <time>2025-09-28T10:54:16Z</time>
      </trkpt>
      <trkpt lat="46.08347" lon="4.38912">
        <ele>531.4</ele>
        <time>2025-09-28T10:54:17Z</time>
      </trkpt>
      <trkpt lat="46.08348" lon="4.38915">
        <ele>531.4</ele>
        <time>2025-09-28T10:54:18Z</time>
      </trkpt>
      <trkpt lat="46.0835" lon="4.38918">
        <ele>531.4</ele>
        <time>2025-09-28T10:54:19Z</time>
      </trkpt>
      <trkpt lat="46.08351" lon="4.3892">
        <ele>531.4</ele>
        <time>2025-09-28T10:54:20Z</time>
      </trkpt>
      <trkpt lat="46.08351" lon="4.38924">
        <ele>531.4</ele>
        <time>2025-09-28T10:54:21Z</time>
      </trkpt>
      <trkpt lat="46.08351" lon="4.38928">
        <ele>531.4</ele>
        <time>2025-09-28T10:54:22Z</time>
      </trkpt>
      <trkpt lat="46.08349" lon="4.38931">
        <ele>531.6</ele>
        <time>2025-09-28T10:54:23Z</time>
      </trkpt>
      <trkpt lat="46.08347" lon="4.38934">
        <ele>531.6</ele>
        <time>2025-09-28T10:54:24Z</time>
      </trkpt>
      <trkpt lat="46.08345" lon="4.38936">
        <ele>531.6</ele>
        <time>2025-09-28T10:54:25Z</time>
      </trkpt>
      <trkpt lat="46.08344" lon="4.38939">
        <ele>531.8</ele>
        <time>2025-09-28T10:54:26Z</time>
      </trkpt>
      <trkpt lat="46.08343" lon="4.38942">
        <ele>531.8</ele>
        <time>2025-09-28T10:54:27Z</time>
      </trkpt>
      <trkpt lat="46.08342" lon="4.38944">
        <ele>532</ele>
        <time>2025-09-28T10:54:28Z</time>
      </trkpt>
      <trkpt lat="46.0834" lon="4.38947">
        <ele>532</ele>
        <time>2025-09-28T10:54:29Z</time>
      </trkpt>
      <trkpt lat="46.08338" lon="4.3895">
        <ele>532.4</ele>
        <time>2025-09-28T10:54:30Z</time>
      </trkpt>
      <trkpt lat="46.08336" lon="4.38953">
        <ele>532.4</ele>
        <time>2025-09-28T10:54:31Z</time>
      </trkpt>
      <trkpt lat="46.08334" lon="4.38955">
        <ele>532.8</ele>
        <time>2025-09-28T10:54:32Z</time>
      </trkpt>
      <trkpt lat="46.08332" lon="4.38958">
        <ele>533.2</ele>
        <time>2025-09-28T10:54:33Z</time>
      </trkpt>
      <trkpt lat="46.0833" lon="4.38961">
        <ele>533.2</ele>
        <time>2025-09-28T10:54:34Z</time>
      </trkpt>
      <trkpt lat="46.08328" lon="4.38963">
        <ele>533.4</ele>
        <time>2025-09-28T10:54:35Z</time>
      </trkpt>
      <trkpt lat="46.08326" lon="4.38965">
        <ele>533.4</ele>
        <time>2025-09-28T10:54:36Z</time>
      </trkpt>
      <trkpt lat="46.08324" lon="4.38967">
        <ele>533.8</ele>
        <time>2025-09-28T10:54:37Z</time>
      </trkpt>
      <trkpt lat="46.08322" lon="4.3897">
        <ele>534</ele>
        <time>2025-09-28T10:54:38Z</time>
      </trkpt>
      <trkpt lat="46.0832" lon="4.38971">
        <ele>534</ele>
        <time>2025-09-28T10:54:39Z</time>
      </trkpt>
      <trkpt lat="46.08318" lon="4.38973">
        <ele>534.6</ele>
        <time>2025-09-28T10:54:40Z</time>
      </trkpt>
      <trkpt lat="46.08316" lon="4.38975">
        <ele>534.6</ele>
        <time>2025-09-28T10:54:41Z</time>
      </trkpt>
      <trkpt lat="46.08314" lon="4.38977">
        <ele>534.8</ele>
        <time>2025-09-28T10:54:42Z</time>
      </trkpt>
      <trkpt lat="46.08312" lon="4.38979">
        <ele>534.8</ele>
        <time>2025-09-28T10:54:43Z</time>
      </trkpt>
      <trkpt lat="46.0831" lon="4.38981">
        <ele>534.8</ele>
        <time>2025-09-28T10:54:44Z</time>
      </trkpt>
      <trkpt lat="46.08308" lon="4.38982">
        <ele>535.2</ele>
        <time>2025-09-28T10:54:45Z</time>
      </trkpt>
      <trkpt lat="46.08306" lon="4.38985">
        <ele>535.2</ele>
        <time>2025-09-28T10:54:46Z</time>
      </trkpt>
      <trkpt lat="46.08304" lon="4.38987">
        <ele>535.8</ele>
        <time>2025-09-28T10:54:47Z</time>
      </trkpt>
      <trkpt lat="46.08302" lon="4.38989">
        <ele>535.8</ele>
        <time>2025-09-28T10:54:48Z</time>
      </trkpt>
      <trkpt lat="46.083" lon="4.38991">
        <ele>535.8</ele>
        <time>2025-09-28T10:54:49Z</time>
      </trkpt>
      <trkpt lat="46.08298" lon="4.38993">
        <ele>535.8</ele>
        <time>2025-09-28T10:54:50Z</time>
      </trkpt>
      <trkpt lat="46.08296" lon="4.38995">
        <ele>536</ele>
        <time>2025-09-28T10:54:51Z</time>
      </trkpt>
      <trkpt lat="46.08295" lon="4.38996">
        <ele>536</ele>
        <time>2025-09-28T10:54:52Z</time>
      </trkpt>
      <trkpt lat="46.08293" lon="4.38998">
        <ele>536.4</ele>
        <time>2025-09-28T10:54:53Z</time>
      </trkpt>
      <trkpt lat="46.08291" lon="4.39">
        <ele>536.4</ele>
        <time>2025-09-28T10:54:54Z</time>
      </trkpt>
      <trkpt lat="46.08289" lon="4.39002">
        <ele>536.6</ele>
        <time>2025-09-28T10:54:55Z</time>
      </trkpt>
      <trkpt lat="46.08288" lon="4.39003">
        <ele>536.8</ele>
        <time>2025-09-28T10:54:56Z</time>
      </trkpt>
      <trkpt lat="46.08286" lon="4.39005">
        <ele>537.2</ele>
        <time>2025-09-28T10:54:57Z</time>
      </trkpt>
      <trkpt lat="46.08285" lon="4.39007">
        <ele>537.4</ele>
        <time>2025-09-28T10:54:58Z</time>
      </trkpt>
      <trkpt lat="46.08284" lon="4.39009">
        <ele>537.4</ele>
        <time>2025-09-28T10:54:59Z</time>
      </trkpt>
      <trkpt lat="46.08283" lon="4.39011">
        <ele>537.4</ele>
        <time>2025-09-28T10:55:00Z</time>
      </trkpt>
      <trkpt lat="46.08281" lon="4.39014">
        <ele>537.8</ele>
        <time>2025-09-28T10:55:01Z</time>
      </trkpt>
      <trkpt lat="46.0828" lon="4.39016">
        <ele>537.8</ele>
        <time>2025-09-28T10:55:02Z</time>
      </trkpt>
      <trkpt lat="46.08279" lon="4.39019">
        <ele>537.8</ele>
        <time>2025-09-28T10:55:03Z</time>
      </trkpt>
      <trkpt lat="46.08278" lon="4.39023">
        <ele>538</ele>
        <time>2025-09-28T10:55:04Z</time>
      </trkpt>
      <trkpt lat="46.08278" lon="4.39026">
        <ele>538</ele>
        <time>2025-09-28T10:55:05Z</time>
      </trkpt>
      <trkpt lat="46.08279" lon="4.39029">
        <ele>538.4</ele>
        <time>2025-09-28T10:55:06Z</time>
      </trkpt>
      <trkpt lat="46.08279" lon="4.39033">
        <ele>538.4</ele>
        <time>2025-09-28T10:55:07Z</time>
      </trkpt>
      <trkpt lat="46.0828" lon="4.39036">
        <ele>538.4</ele>
        <time>2025-09-28T10:55:08Z</time>
      </trkpt>
      <trkpt lat="46.08281" lon="4.39039">
        <ele>538.4</ele>
        <time>2025-09-28T10:55:09Z</time>
      </trkpt>
      <trkpt lat="46.08283" lon="4.39042">
        <ele>539</ele>
        <time>2025-09-28T10:55:10Z</time>
      </trkpt>
      <trkpt lat="46.08284" lon="4.39045">
        <ele>539.4</ele>
        <time>2025-09-28T10:55:11Z</time>
      </trkpt>
      <trkpt lat="46.08285" lon="4.39048">
        <ele>539.6</ele>
        <time>2025-09-28T10:55:12Z</time>
      </trkpt>
      <trkpt lat="46.08286" lon="4.39051">
        <ele>539.6</ele>
        <time>2025-09-28T10:55:13Z</time>
      </trkpt>
      <trkpt lat="46.08288" lon="4.39053">
        <ele>539.6</ele>
        <time>2025-09-28T10:55:14Z</time>
      </trkpt>
      <trkpt lat="46.0829" lon="4.39056">
        <ele>539.6</ele>
        <time>2025-09-28T10:55:15Z</time>
      </trkpt>
      <trkpt lat="46.08292" lon="4.39058">
        <ele>539.6</ele>
        <time>2025-09-28T10:55:16Z</time>
      </trkpt>
      <trkpt lat="46.08294" lon="4.39061">
        <ele>539.8</ele>
        <time>2025-09-28T10:55:17Z</time>
      </trkpt>
      <trkpt lat="46.08295" lon="4.39064">
        <ele>539.8</ele>
        <time>2025-09-28T10:55:18Z</time>
      </trkpt>
      <trkpt lat="46.08297" lon="4.39067">
        <ele>539.8</ele>
        <time>2025-09-28T10:55:19Z</time>
      </trkpt>
      <trkpt lat="46.08299" lon="4.39069">
        <ele>540.2</ele>
        <time>2025-09-28T10:55:20Z</time>
      </trkpt>
      <trkpt lat="46.08301" lon="4.39072">
        <ele>540.2</ele>
        <time>2025-09-28T10:55:21Z</time>
      </trkpt>
      <trkpt lat="46.08302" lon="4.39074">
        <ele>540.4</ele>
        <time>2025-09-28T10:55:22Z</time>
      </trkpt>
      <trkpt lat="46.08304" lon="4.39077">
        <ele>540.4</ele>
        <time>2025-09-28T10:55:23Z</time>
      </trkpt>
      <trkpt lat="46.08305" lon="4.3908">
        <ele>540.8</ele>
        <time>2025-09-28T10:55:24Z</time>
      </trkpt>
      <trkpt lat="46.08306" lon="4.39082">
        <ele>540.8</ele>
        <time>2025-09-28T10:55:25Z</time>
      </trkpt>
      <trkpt lat="46.08308" lon="4.39086">
        <ele>541</ele>
        <time>2025-09-28T10:55:26Z</time>
      </trkpt>
      <trkpt lat="46.08309" lon="4.39089">
        <ele>541</ele>
        <time>2025-09-28T10:55:27Z</time>
      </trkpt>
      <trkpt lat="46.0831" lon="4.39092">
        <ele>541.4</ele>
        <time>2025-09-28T10:55:28Z</time>
      </trkpt>
      <trkpt lat="46.08312" lon="4.39095">
        <ele>541.4</ele>
        <time>2025-09-28T10:55:29Z</time>
      </trkpt>
      <trkpt lat="46.08313" lon="4.39098">
        <ele>541.8</ele>
        <time>2025-09-28T10:55:30Z</time>
      </trkpt>
      <trkpt lat="46.08314" lon="4.39101">
        <ele>542</ele>
        <time>2025-09-28T10:55:31Z</time>
      </trkpt>
      <trkpt lat="46.08316" lon="4.39103">
        <ele>542</ele>
        <time>2025-09-28T10:55:32Z</time>
      </trkpt>
      <trkpt lat="46.08317" lon="4.39106">
        <ele>542.2</ele>
        <time>2025-09-28T10:55:33Z</time>
      </trkpt>
      <trkpt lat="46.08318" lon="4.39109">
        <ele>542.6</ele>
        <time>2025-09-28T10:55:34Z</time>
      </trkpt>
      <trkpt lat="46.0832" lon="4.39112">
        <ele>542.6</ele>
        <time>2025-09-28T10:55:35Z</time>
      </trkpt>
      <trkpt lat="46.08321" lon="4.39115">
        <ele>542.6</ele>
        <time>2025-09-28T10:55:36Z</time>
      </trkpt>
      <trkpt lat="46.08322" lon="4.39118">
        <ele>542.8</ele>
        <time>2025-09-28T10:55:37Z</time>
      </trkpt>
      <trkpt lat="46.08323" lon="4.39121">
        <ele>542.8</ele>
        <time>2025-09-28T10:55:38Z</time>
      </trkpt>
      <trkpt lat="46.08324" lon="4.39125">
        <ele>543.2</ele>
        <time>2025-09-28T10:55:39Z</time>
      </trkpt>
      <trkpt lat="46.08325" lon="4.39128">
        <ele>543.4</ele>
        <time>2025-09-28T10:55:40Z</time>
      </trkpt>
      <trkpt lat="46.08326" lon="4.39131">
        <ele>543.4</ele>
        <time>2025-09-28T10:55:41Z</time>
      </trkpt>
      <trkpt lat="46.08327" lon="4.39135">
        <ele>543.8</ele>
        <time>2025-09-28T10:55:42Z</time>
      </trkpt>
      <trkpt lat="46.08328" lon="4.39138">
        <ele>543.8</ele>
        <time>2025-09-28T10:55:43Z</time>
      </trkpt>
      <trkpt lat="46.08329" lon="4.39142">
        <ele>544</ele>
        <time>2025-09-28T10:55:44Z</time>
      </trkpt>
      <trkpt lat="46.0833" lon="4.39145">
        <ele>544</ele>
        <time>2025-09-28T10:55:45Z</time>
      </trkpt>
      <trkpt lat="46.08331" lon="4.39149">
        <ele>544.2</ele>
        <time>2025-09-28T10:55:46Z</time>
      </trkpt>
      <trkpt lat="46.08331" lon="4.39152">
        <ele>544.2</ele>
        <time>2025-09-28T10:55:47Z</time>
      </trkpt>
      <trkpt lat="46.08332" lon="4.39155">
        <ele>544.4</ele>
        <time>2025-09-28T10:55:48Z</time>
      </trkpt>
      <trkpt lat="46.08333" lon="4.39159">
        <ele>544.4</ele>
        <time>2025-09-28T10:55:49Z</time>
      </trkpt>
      <trkpt lat="46.08334" lon="4.39162">
        <ele>544.8</ele>
        <time>2025-09-28T10:55:50Z</time>
      </trkpt>
      <trkpt lat="46.08334" lon="4.39165">
        <ele>545</ele>
        <time>2025-09-28T10:55:51Z</time>
      </trkpt>
      <trkpt lat="46.08335" lon="4.39169">
        <ele>545</ele>
        <time>2025-09-28T10:55:52Z</time>
      </trkpt>
      <trkpt lat="46.08335" lon="4.39172">
        <ele>545.6</ele>
        <time>2025-09-28T10:55:53Z</time>
      </trkpt>
      <trkpt lat="46.08336" lon="4.39175">
        <ele>545.8</ele>
        <time>2025-09-28T10:55:54Z</time>
      </trkpt>
      <trkpt lat="46.08336" lon="4.39178">
        <ele>546</ele>
        <time>2025-09-28T10:55:55Z</time>
      </trkpt>
      <trkpt lat="46.08337" lon="4.39181">
        <ele>546.2</ele>
        <time>2025-09-28T10:55:56Z</time>
      </trkpt>
      <trkpt lat="46.08337" lon="4.39185">
        <ele>546.2</ele>
        <time>2025-09-28T10:55:57Z</time>
      </trkpt>
      <trkpt lat="46.08337" lon="4.39188">
        <ele>546.6</ele>
        <time>2025-09-28T10:55:58Z</time>
      </trkpt>
      <trkpt lat="46.08338" lon="4.39191">
        <ele>546.6</ele>
        <time>2025-09-28T10:55:59Z</time>
      </trkpt>
      <trkpt lat="46.08338" lon="4.39194">
        <ele>547</ele>
        <time>2025-09-28T10:56:00Z</time>
      </trkpt>
      <trkpt lat="46.08338" lon="4.39197">
        <ele>547</ele>
        <time>2025-09-28T10:56:01Z</time>
      </trkpt>
      <trkpt lat="46.08339" lon="4.392">
        <ele>547.6</ele>
        <time>2025-09-28T10:56:02Z</time>
      </trkpt>
      <trkpt lat="46.08339" lon="4.39201">
        <ele>547.8</ele>
        <time>2025-09-28T10:56:03Z</time>
      </trkpt>
      <trkpt lat="46.0834" lon="4.39204">
        <ele>547.8</ele>
        <time>2025-09-28T10:56:04Z</time>
      </trkpt>
      <trkpt lat="46.0834" lon="4.39208">
        <ele>547.8</ele>
        <time>2025-09-28T10:56:05Z</time>
      </trkpt>
      <trkpt lat="46.0834" lon="4.39211">
        <ele>548</ele>
        <time>2025-09-28T10:56:06Z</time>
      </trkpt>
      <trkpt lat="46.0834" lon="4.39215">
        <ele>548</ele>
        <time>2025-09-28T10:56:07Z</time>
      </trkpt>
      <trkpt lat="46.0834" lon="4.39218">
        <ele>548.4</ele>
        <time>2025-09-28T10:56:08Z</time>
      </trkpt>
      <trkpt lat="46.08341" lon="4.39221">
        <ele>548.4</ele>
        <time>2025-09-28T10:56:09Z</time>
      </trkpt>
      <trkpt lat="46.08341" lon="4.39224">
        <ele>548.6</ele>
        <time>2025-09-28T10:56:10Z</time>
      </trkpt>
      <trkpt lat="46.08341" lon="4.39227">
        <ele>548.8</ele>
        <time>2025-09-28T10:56:11Z</time>
      </trkpt>
      <trkpt lat="46.08341" lon="4.3923">
        <ele>548.8</ele>
        <time>2025-09-28T10:56:12Z</time>
      </trkpt>
      <trkpt lat="46.08341" lon="4.39233">
        <ele>549.2</ele>
        <time>2025-09-28T10:56:13Z</time>
      </trkpt>
      <trkpt lat="46.08341" lon="4.39236">
        <ele>549.4</ele>
        <time>2025-09-28T10:56:14Z</time>
      </trkpt>
      <trkpt lat="46.08341" lon="4.39239">
        <ele>549.4</ele>
        <time>2025-09-28T10:56:15Z</time>
      </trkpt>
      <trkpt lat="46.08341" lon="4.39242">
        <ele>549.6</ele>
        <time>2025-09-28T10:56:16Z</time>
      </trkpt>
      <trkpt lat="46.08342" lon="4.39244">
        <ele>549.6</ele>
        <time>2025-09-28T10:56:17Z</time>
      </trkpt>
      <trkpt lat="46.08342" lon="4.39247">
        <ele>550</ele>
        <time>2025-09-28T10:56:18Z</time>
      </trkpt>
      <trkpt lat="46.08342" lon="4.3925">
        <ele>550</ele>
        <time>2025-09-28T10:56:19Z</time>
      </trkpt>
      <trkpt lat="46.08342" lon="4.39253">
        <ele>550</ele>
        <time>2025-09-28T10:56:20Z</time>
      </trkpt>
      <trkpt lat="46.08343" lon="4.39256">
        <ele>550.4</ele>
        <time>2025-09-28T10:56:21Z</time>
      </trkpt>
      <trkpt lat="46.08343" lon="4.39259">
        <ele>550.6</ele>
        <time>2025-09-28T10:56:22Z</time>
      </trkpt>
      <trkpt lat="46.08343" lon="4.39262">
        <ele>550.6</ele>
        <time>2025-09-28T10:56:23Z</time>
      </trkpt>
      <trkpt lat="46.08344" lon="4.39265">
        <ele>550.6</ele>
        <time>2025-09-28T10:56:24Z</time>
      </trkpt>
      <trkpt lat="46.08344" lon="4.39268">
        <ele>551</ele>
        <time>2025-09-28T10:56:25Z</time>
      </trkpt>
      <trkpt lat="46.08345" lon="4.39271">
        <ele>551</ele>
        <time>2025-09-28T10:56:26Z</time>
      </trkpt>
      <trkpt lat="46.08346" lon="4.39274">
        <ele>551.2</ele>
        <time>2025-09-28T10:56:27Z</time>
      </trkpt>
      <trkpt lat="46.08347" lon="4.39277">
        <ele>551.2</ele>
        <time>2025-09-28T10:56:28Z</time>
      </trkpt>
      <trkpt lat="46.08348" lon="4.3928">
        <ele>551.2</ele>
        <time>2025-09-28T10:56:29Z</time>
      </trkpt>
      <trkpt lat="46.08349" lon="4.39282">
        <ele>551.2</ele>
        <time>2025-09-28T10:56:30Z</time>
      </trkpt>
      <trkpt lat="46.0835" lon="4.39285">
        <ele>551.4</ele>
        <time>2025-09-28T10:56:31Z</time>
      </trkpt>
      <trkpt lat="46.08351" lon="4.39288">
        <ele>551.4</ele>
        <time>2025-09-28T10:56:32Z</time>
      </trkpt>
      <trkpt lat="46.08352" lon="4.39291">
        <ele>551.8</ele>
        <time>2025-09-28T10:56:33Z</time>
      </trkpt>
      <trkpt lat="46.08353" lon="4.39294">
        <ele>552</ele>
        <time>2025-09-28T10:56:34Z</time>
      </trkpt>
      <trkpt lat="46.08354" lon="4.39297">
        <ele>552.4</ele>
        <time>2025-09-28T10:56:35Z</time>
      </trkpt>
      <trkpt lat="46.08355" lon="4.393">
        <ele>552.6</ele>
        <time>2025-09-28T10:56:36Z</time>
      </trkpt>
      <trkpt lat="46.08356" lon="4.39303">
        <ele>552.6</ele>
        <time>2025-09-28T10:56:37Z</time>
      </trkpt>
      <trkpt lat="46.08357" lon="4.39306">
        <ele>552.6</ele>
        <time>2025-09-28T10:56:38Z</time>
      </trkpt>
      <trkpt lat="46.08358" lon="4.39308">
        <ele>553</ele>
        <time>2025-09-28T10:56:39Z</time>
      </trkpt>
      <trkpt lat="46.08359" lon="4.39311">
        <ele>553</ele>
        <time>2025-09-28T10:56:40Z</time>
      </trkpt>
      <trkpt lat="46.0836" lon="4.39314">
        <ele>553.2</ele>
        <time>2025-09-28T10:56:41Z</time>
      </trkpt>
      <trkpt lat="46.08361" lon="4.39316">
        <ele>553.2</ele>
        <time>2025-09-28T10:56:42Z</time>
      </trkpt>
      <trkpt lat="46.08362" lon="4.39319">
        <ele>553.4</ele>
        <time>2025-09-28T10:56:43Z</time>
      </trkpt>
      <trkpt lat="46.08363" lon="4.39322">
        <ele>553.4</ele>
        <time>2025-09-28T10:56:44Z</time>
      </trkpt>
      <trkpt lat="46.08365" lon="4.39325">
        <ele>553.6</ele>
        <time>2025-09-28T10:56:45Z</time>
      </trkpt>
      <trkpt lat="46.08366" lon="4.39328">
        <ele>553.6</ele>
        <time>2025-09-28T10:56:46Z</time>
      </trkpt>
      <trkpt lat="46.08367" lon="4.3933">
        <ele>553.8</ele>
        <time>2025-09-28T10:56:47Z</time>
      </trkpt>
      <trkpt lat="46.08368" lon="4.39333">
        <ele>553.8</ele>
        <time>2025-09-28T10:56:48Z</time>
      </trkpt>
      <trkpt lat="46.08369" lon="4.39336">
        <ele>554</ele>
        <time>2025-09-28T10:56:49Z</time>
      </trkpt>
      <trkpt lat="46.08371" lon="4.39338">
        <ele>554.2</ele>
        <time>2025-09-28T10:56:50Z</time>
      </trkpt>
      <trkpt lat="46.08372" lon="4.39341">
        <ele>554.2</ele>
        <time>2025-09-28T10:56:51Z</time>
      </trkpt>
      <trkpt lat="46.08373" lon="4.39344">
        <ele>554.6</ele>
        <time>2025-09-28T10:56:52Z</time>
      </trkpt>
      <trkpt lat="46.08374" lon="4.39346">
        <ele>554.6</ele>
        <time>2025-09-28T10:56:53Z</time>
      </trkpt>
      <trkpt lat="46.08375" lon="4.39349">
        <ele>554.8</ele>
        <time>2025-09-28T10:56:54Z</time>
      </trkpt>
      <trkpt lat="46.08376" lon="4.39352">
        <ele>554.8</ele>
        <time>2025-09-28T10:56:55Z</time>
      </trkpt>
      <trkpt lat="46.08378" lon="4.39355">
        <ele>555.2</ele>
        <time>2025-09-28T10:56:56Z</time>
      </trkpt>
      <trkpt lat="46.0838" lon="4.39357">
        <ele>555.2</ele>
        <time>2025-09-28T10:56:57Z</time>
      </trkpt>
      <trkpt lat="46.08381" lon="4.3936">
        <ele>555.2</ele>
        <time>2025-09-28T10:56:58Z</time>
      </trkpt>
      <trkpt lat="46.08382" lon="4.39362">
        <ele>555.2</ele>
        <time>2025-09-28T10:56:59Z</time>
      </trkpt>
      <trkpt lat="46.08384" lon="4.39364">
        <ele>555.4</ele>
        <time>2025-09-28T10:57:00Z</time>
      </trkpt>
      <trkpt lat="46.08385" lon="4.39367">
        <ele>555.4</ele>
        <time>2025-09-28T10:57:01Z</time>
      </trkpt>
      <trkpt lat="46.08387" lon="4.39369">
        <ele>555.4</ele>
        <time>2025-09-28T10:57:02Z</time>
      </trkpt>
      <trkpt lat="46.08388" lon="4.39371">
        <ele>555.8</ele>
        <time>2025-09-28T10:57:03Z</time>
      </trkpt>
      <trkpt lat="46.0839" lon="4.39373">
        <ele>555.8</ele>
        <time>2025-09-28T10:57:04Z</time>
      </trkpt>
      <trkpt lat="46.08391" lon="4.39375">
        <ele>556.2</ele>
        <time>2025-09-28T10:57:05Z</time>
      </trkpt>
      <trkpt lat="46.08393" lon="4.39378">
        <ele>556.2</ele>
        <time>2025-09-28T10:57:06Z</time>
      </trkpt>
      <trkpt lat="46.08394" lon="4.3938">
        <ele>556.4</ele>
        <time>2025-09-28T10:57:07Z</time>
      </trkpt>
      <trkpt lat="46.08395" lon="4.39382">
        <ele>556.4</ele>
        <time>2025-09-28T10:57:08Z</time>
      </trkpt>
      <trkpt lat="46.08396" lon="4.39384">
        <ele>556.6</ele>
        <time>2025-09-28T10:57:09Z</time>
      </trkpt>
      <trkpt lat="46.08398" lon="4.39386">
        <ele>556.6</ele>
        <time>2025-09-28T10:57:10Z</time>
      </trkpt>
      <trkpt lat="46.084" lon="4.39388">
        <ele>557</ele>
        <time>2025-09-28T10:57:11Z</time>
      </trkpt>
      <trkpt lat="46.08401" lon="4.3939">
        <ele>557.2</ele>
        <time>2025-09-28T10:57:12Z</time>
      </trkpt>
      <trkpt lat="46.08403" lon="4.39392">
        <ele>557.2</ele>
        <time>2025-09-28T10:57:13Z</time>
      </trkpt>
      <trkpt lat="46.08405" lon="4.39395">
        <ele>557.4</ele>
        <time>2025-09-28T10:57:14Z</time>
      </trkpt>
      <trkpt lat="46.08406" lon="4.39397">
        <ele>557.8</ele>
        <time>2025-09-28T10:57:15Z</time>
      </trkpt>
      <trkpt lat="46.08408" lon="4.39399">
        <ele>558</ele>
        <time>2025-09-28T10:57:16Z</time>
      </trkpt>
      <trkpt lat="46.0841" lon="4.39401">
        <ele>558</ele>
        <time>2025-09-28T10:57:17Z</time>
      </trkpt>
      <trkpt lat="46.08412" lon="4.39403">
        <ele>558</ele>
        <time>2025-09-28T10:57:18Z</time>
      </trkpt>
      <trkpt lat="46.08414" lon="4.39405">
        <ele>558</ele>
        <time>2025-09-28T10:57:19Z</time>
      </trkpt>
      <trkpt lat="46.08416" lon="4.39408">
        <ele>558</ele>
        <time>2025-09-28T10:57:20Z</time>
      </trkpt>
      <trkpt lat="46.08418" lon="4.3941">
        <ele>558</ele>
        <time>2025-09-28T10:57:21Z</time>
      </trkpt>
      <trkpt lat="46.08419" lon="4.39411">
        <ele>558.6</ele>
        <time>2025-09-28T10:57:22Z</time>
      </trkpt>
      <trkpt lat="46.08421" lon="4.39413">
        <ele>558.8</ele>
        <time>2025-09-28T10:57:23Z</time>
      </trkpt>
      <trkpt lat="46.08423" lon="4.39415">
        <ele>558.8</ele>
        <time>2025-09-28T10:57:24Z</time>
      </trkpt>
      <trkpt lat="46.08425" lon="4.39417">
        <ele>559</ele>
        <time>2025-09-28T10:57:25Z</time>
      </trkpt>
      <trkpt lat="46.08426" lon="4.39419">
        <ele>559</ele>
        <time>2025-09-28T10:57:26Z</time>
      </trkpt>
      <trkpt lat="46.08428" lon="4.39421">
        <ele>559.4</ele>
        <time>2025-09-28T10:57:27Z</time>
      </trkpt>
      <trkpt lat="46.08429" lon="4.39423">
        <ele>559.6</ele>
        <time>2025-09-28T10:57:28Z</time>
      </trkpt>
      <trkpt lat="46.08431" lon="4.39425">
        <ele>559.6</ele>
        <time>2025-09-28T10:57:29Z</time>
      </trkpt>
      <trkpt lat="46.08433" lon="4.39427">
        <ele>559.8</ele>
        <time>2025-09-28T10:57:30Z</time>
      </trkpt>
      <trkpt lat="46.08434" lon="4.39429">
        <ele>559.8</ele>
        <time>2025-09-28T10:57:31Z</time>
      </trkpt>
      <trkpt lat="46.08436" lon="4.39431">
        <ele>560.2</ele>
        <time>2025-09-28T10:57:32Z</time>
      </trkpt>
      <trkpt lat="46.08437" lon="4.39433">
        <ele>560.2</ele>
        <time>2025-09-28T10:57:33Z</time>
      </trkpt>
      <trkpt lat="46.08439" lon="4.39435">
        <ele>560.6</ele>
        <time>2025-09-28T10:57:34Z</time>
      </trkpt>
      <trkpt lat="46.0844" lon="4.39438">
        <ele>560.6</ele>
        <time>2025-09-28T10:57:35Z</time>
      </trkpt>
      <trkpt lat="46.08442" lon="4.39441">
        <ele>560.8</ele>
        <time>2025-09-28T10:57:36Z</time>
      </trkpt>
      <trkpt lat="46.08443" lon="4.39444">
        <ele>560.8</ele>
        <time>2025-09-28T10:57:37Z</time>
      </trkpt>
      <trkpt lat="46.08443" lon="4.39447">
        <ele>561.2</ele>
        <time>2025-09-28T10:57:38Z</time>
      </trkpt>
      <trkpt lat="46.08444" lon="4.39451">
        <ele>561.2</ele>
        <time>2025-09-28T10:57:39Z</time>
      </trkpt>
      <trkpt lat="46.08444" lon="4.39454">
        <ele>561.2</ele>
        <time>2025-09-28T10:57:40Z</time>
      </trkpt>
      <trkpt lat="46.08445" lon="4.39457">
        <ele>561.4</ele>
        <time>2025-09-28T10:57:41Z</time>
      </trkpt>
      <trkpt lat="46.08445" lon="4.3946">
        <ele>561.4</ele>
        <time>2025-09-28T10:57:42Z</time>
      </trkpt>
      <trkpt lat="46.08444" lon="4.39463">
        <ele>561.8</ele>
        <time>2025-09-28T10:57:43Z</time>
      </trkpt>
      <trkpt lat="46.08444" lon="4.39466">
        <ele>562</ele>
        <time>2025-09-28T10:57:44Z</time>
      </trkpt>
      <trkpt lat="46.08443" lon="4.39469">
        <ele>562</ele>
        <time>2025-09-28T10:57:45Z</time>
      </trkpt>
      <trkpt lat="46.08442" lon="4.39471">
        <ele>562.4</ele>
        <time>2025-09-28T10:57:46Z</time>
      </trkpt>
      <trkpt lat="46.08442" lon="4.39474">
        <ele>562.6</ele>
        <time>2025-09-28T10:57:47Z</time>
      </trkpt>
      <trkpt lat="46.08441" lon="4.39476">
        <ele>562.8</ele>
        <time>2025-09-28T10:57:48Z</time>
      </trkpt>
      <trkpt lat="46.0844" lon="4.39479">
        <ele>563</ele>
        <time>2025-09-28T10:57:49Z</time>
      </trkpt>
      <trkpt lat="46.08439" lon="4.39481">
        <ele>563</ele>
        <time>2025-09-28T10:57:50Z</time>
      </trkpt>
      <trkpt lat="46.08439" lon="4.39483">
        <ele>563.4</ele>
        <time>2025-09-28T10:57:51Z</time>
      </trkpt>
      <trkpt lat="46.08438" lon="4.39486">
        <ele>563.6</ele>
        <time>2025-09-28T10:57:52Z</time>
      </trkpt>
      <trkpt lat="46.08438" lon="4.39488">
        <ele>563.6</ele>
        <time>2025-09-28T10:57:53Z</time>
      </trkpt>
      <trkpt lat="46.08438" lon="4.39491">
        <ele>563.8</ele>
        <time>2025-09-28T10:57:54Z</time>
      </trkpt>
      <trkpt lat="46.08437" lon="4.39493">
        <ele>563.8</ele>
        <time>2025-09-28T10:57:55Z</time>
      </trkpt>
      <trkpt lat="46.08437" lon="4.39496">
        <ele>564.2</ele>
        <time>2025-09-28T10:57:56Z</time>
      </trkpt>
      <trkpt lat="46.08437" lon="4.39498">
        <ele>564.2</ele>
        <time>2025-09-28T10:57:57Z</time>
      </trkpt>
      <trkpt lat="46.08436" lon="4.39501">
        <ele>564.2</ele>
        <time>2025-09-28T10:57:58Z</time>
      </trkpt>
      <trkpt lat="46.08436" lon="4.39503">
        <ele>564.4</ele>
        <time>2025-09-28T10:57:59Z</time>
      </trkpt>
      <trkpt lat="46.08436" lon="4.39506">
        <ele>564.4</ele>
        <time>2025-09-28T10:58:00Z</time>
      </trkpt>
      <trkpt lat="46.08436" lon="4.39509">
        <ele>564.4</ele>
        <time>2025-09-28T10:58:01Z</time>
      </trkpt>
      <trkpt lat="46.08437" lon="4.39511">
        <ele>564.8</ele>
        <time>2025-09-28T10:58:02Z</time>
      </trkpt>
      <trkpt lat="46.08437" lon="4.39514">
        <ele>565.2</ele>
        <time>2025-09-28T10:58:03Z</time>
      </trkpt>
      <trkpt lat="46.08438" lon="4.39516">
        <ele>565.4</ele>
        <time>2025-09-28T10:58:04Z</time>
      </trkpt>
      <trkpt lat="46.08438" lon="4.3952">
        <ele>565.4</ele>
        <time>2025-09-28T10:58:05Z</time>
      </trkpt>
      <trkpt lat="46.08439" lon="4.39523">
        <ele>565.4</ele>
        <time>2025-09-28T10:58:06Z</time>
      </trkpt>
      <trkpt lat="46.08439" lon="4.39526">
        <ele>565.6</ele>
        <time>2025-09-28T10:58:07Z</time>
      </trkpt>
      <trkpt lat="46.0844" lon="4.39529">
        <ele>565.6</ele>
        <time>2025-09-28T10:58:08Z</time>
      </trkpt>
      <trkpt lat="46.0844" lon="4.39532">
        <ele>565.6</ele>
        <time>2025-09-28T10:58:09Z</time>
      </trkpt>
      <trkpt lat="46.08441" lon="4.39535">
        <ele>566</ele>
        <time>2025-09-28T10:58:10Z</time>
      </trkpt>
      <trkpt lat="46.08441" lon="4.39539">
        <ele>566</ele>
        <time>2025-09-28T10:58:11Z</time>
      </trkpt>
      <trkpt lat="46.08442" lon="4.39542">
        <ele>566</ele>
        <time>2025-09-28T10:58:12Z</time>
      </trkpt>
      <trkpt lat="46.08442" lon="4.39545">
        <ele>566.4</ele>
        <time>2025-09-28T10:58:13Z</time>
      </trkpt>
      <trkpt lat="46.08443" lon="4.39549">
        <ele>566.4</ele>
        <time>2025-09-28T10:58:14Z</time>
      </trkpt>
      <trkpt lat="46.08443" lon="4.39552">
        <ele>566.4</ele>
        <time>2025-09-28T10:58:15Z</time>
      </trkpt>
      <trkpt lat="46.08443" lon="4.39555">
        <ele>566.4</ele>
        <time>2025-09-28T10:58:16Z</time>
      </trkpt>
      <trkpt lat="46.08443" lon="4.39559">
        <ele>566.4</ele>
        <time>2025-09-28T10:58:17Z</time>
      </trkpt>
      <trkpt lat="46.08443" lon="4.39562">
        <ele>566.4</ele>
        <time>2025-09-28T10:58:18Z</time>
      </trkpt>
      <trkpt lat="46.08443" lon="4.39566">
        <ele>566.4</ele>
        <time>2025-09-28T10:58:19Z</time>
      </trkpt>
      <trkpt lat="46.08443" lon="4.39569">
        <ele>566.4</ele>
        <time>2025-09-28T10:58:20Z</time>
      </trkpt>
      <trkpt lat="46.08442" lon="4.39573">
        <ele>566.8</ele>
        <time>2025-09-28T10:58:21Z</time>
      </trkpt>
      <trkpt lat="46.08441" lon="4.39576">
        <ele>566.8</ele>
        <time>2025-09-28T10:58:22Z</time>
      </trkpt>
      <trkpt lat="46.0844" lon="4.39579">
        <ele>567.4</ele>
        <time>2025-09-28T10:58:23Z</time>
      </trkpt>
      <trkpt lat="46.0844" lon="4.39581">
        <ele>567.6</ele>
        <time>2025-09-28T10:58:24Z</time>
      </trkpt>
      <trkpt lat="46.08439" lon="4.39584">
        <ele>567.8</ele>
        <time>2025-09-28T10:58:25Z</time>
      </trkpt>
      <trkpt lat="46.08438" lon="4.39587">
        <ele>568.2</ele>
        <time>2025-09-28T10:58:26Z</time>
      </trkpt>
      <trkpt lat="46.08437" lon="4.3959">
        <ele>568.4</ele>
        <time>2025-09-28T10:58:27Z</time>
      </trkpt>
      <trkpt lat="46.08436" lon="4.39592">
        <ele>568.6</ele>
        <time>2025-09-28T10:58:28Z</time>
      </trkpt>
      <trkpt lat="46.08435" lon="4.39595">
        <ele>568.6</ele>
        <time>2025-09-28T10:58:29Z</time>
      </trkpt>
      <trkpt lat="46.08434" lon="4.39597">
        <ele>568.8</ele>
        <time>2025-09-28T10:58:30Z</time>
      </trkpt>
      <trkpt lat="46.08433" lon="4.396">
        <ele>569.2</ele>
        <time>2025-09-28T10:58:31Z</time>
      </trkpt>
      <trkpt lat="46.08432" lon="4.39603">
        <ele>569.2</ele>
        <time>2025-09-28T10:58:32Z</time>
      </trkpt>
      <trkpt lat="46.08431" lon="4.39605">
        <ele>569.4</ele>
        <time>2025-09-28T10:58:33Z</time>
      </trkpt>
      <trkpt lat="46.0843" lon="4.39608">
        <ele>569.4</ele>
        <time>2025-09-28T10:58:34Z</time>
      </trkpt>
      <trkpt lat="46.08429" lon="4.39611">
        <ele>569.8</ele>
        <time>2025-09-28T10:58:35Z</time>
      </trkpt>
      <trkpt lat="46.08428" lon="4.39614">
        <ele>570</ele>
        <time>2025-09-28T10:58:36Z</time>
      </trkpt>
      <trkpt lat="46.08427" lon="4.39617">
        <ele>570</ele>
        <time>2025-09-28T10:58:37Z</time>
      </trkpt>
      <trkpt lat="46.08426" lon="4.3962">
        <ele>570.4</ele>
        <time>2025-09-28T10:58:38Z</time>
      </trkpt>
      <trkpt lat="46.08425" lon="4.39623">
        <ele>570.6</ele>
        <time>2025-09-28T10:58:39Z</time>
      </trkpt>
      <trkpt lat="46.08424" lon="4.39626">
        <ele>570.6</ele>
        <time>2025-09-28T10:58:40Z</time>
      </trkpt>
      <trkpt lat="46.08424" lon="4.39629">
        <ele>570.6</ele>
        <time>2025-09-28T10:58:41Z</time>
      </trkpt>
      <trkpt lat="46.08423" lon="4.39632">
        <ele>570.8</ele>
        <time>2025-09-28T10:58:42Z</time>
      </trkpt>
      <trkpt lat="46.08422" lon="4.39635">
        <ele>570.8</ele>
        <time>2025-09-28T10:58:43Z</time>
      </trkpt>
      <trkpt lat="46.08421" lon="4.39638">
        <ele>571.2</ele>
        <time>2025-09-28T10:58:44Z</time>
      </trkpt>
      <trkpt lat="46.0842" lon="4.39641">
        <ele>571.2</ele>
        <time>2025-09-28T10:58:45Z</time>
      </trkpt>
      <trkpt lat="46.08419" lon="4.39644">
        <ele>571.4</ele>
        <time>2025-09-28T10:58:46Z</time>
      </trkpt>
      <trkpt lat="46.08418" lon="4.39647">
        <ele>571.4</ele>
        <time>2025-09-28T10:58:47Z</time>
      </trkpt>
      <trkpt lat="46.08417" lon="4.39649">
        <ele>571.6</ele>
        <time>2025-09-28T10:58:48Z</time>
      </trkpt>
      <trkpt lat="46.08417" lon="4.39652">
        <ele>571.6</ele>
        <time>2025-09-28T10:58:49Z</time>
      </trkpt>
      <trkpt lat="46.08416" lon="4.39654">
        <ele>571.6</ele>
        <time>2025-09-28T10:58:50Z</time>
      </trkpt>
      <trkpt lat="46.08415" lon="4.39657">
        <ele>571.8</ele>
        <time>2025-09-28T10:58:51Z</time>
      </trkpt>
      <trkpt lat="46.08414" lon="4.3966">
        <ele>571.8</ele>
        <time>2025-09-28T10:58:52Z</time>
      </trkpt>
      <trkpt lat="46.08413" lon="4.39663">
        <ele>572.2</ele>
        <time>2025-09-28T10:58:53Z</time>
      </trkpt>
      <trkpt lat="46.08413" lon="4.39666">
        <ele>572.2</ele>
        <time>2025-09-28T10:58:54Z</time>
      </trkpt>
      <trkpt lat="46.08412" lon="4.39668">
        <ele>572.2</ele>
        <time>2025-09-28T10:58:55Z</time>
      </trkpt>
      <trkpt lat="46.08411" lon="4.39671">
        <ele>572.2</ele>
        <time>2025-09-28T10:58:56Z</time>
      </trkpt>
      <trkpt lat="46.0841" lon="4.39674">
        <ele>572.6</ele>
        <time>2025-09-28T10:58:57Z</time>
      </trkpt>
      <trkpt lat="46.08409" lon="4.39677">
        <ele>572.6</ele>
        <time>2025-09-28T10:58:58Z</time>
      </trkpt>
      <trkpt lat="46.08408" lon="4.3968">
        <ele>572.8</ele>
        <time>2025-09-28T10:58:59Z</time>
      </trkpt>
      <trkpt lat="46.08407" lon="4.39683">
        <ele>572.8</ele>
        <time>2025-09-28T10:59:00Z</time>
      </trkpt>
      <trkpt lat="46.08406" lon="4.39685">
        <ele>572.8</ele>
        <time>2025-09-28T10:59:01Z</time>
      </trkpt>
      <trkpt lat="46.08405" lon="4.39688">
        <ele>572.8</ele>
        <time>2025-09-28T10:59:02Z</time>
      </trkpt>
      <trkpt lat="46.08405" lon="4.39691">
        <ele>573.2</ele>
        <time>2025-09-28T10:59:03Z</time>
      </trkpt>
      <trkpt lat="46.08404" lon="4.39694">
        <ele>573.4</ele>
        <time>2025-09-28T10:59:04Z</time>
      </trkpt>
      <trkpt lat="46.08403" lon="4.39697">
        <ele>573.4</ele>
        <time>2025-09-28T10:59:05Z</time>
      </trkpt>
      <trkpt lat="46.08402" lon="4.397">
        <ele>573.6</ele>
        <time>2025-09-28T10:59:06Z</time>
      </trkpt>
      <trkpt lat="46.08401" lon="4.39703">
        <ele>573.6</ele>
        <time>2025-09-28T10:59:07Z</time>
      </trkpt>
      <trkpt lat="46.08401" lon="4.39706">
        <ele>573.8</ele>
        <time>2025-09-28T10:59:08Z</time>
      </trkpt>
      <trkpt lat="46.084" lon="4.39709">
        <ele>574</ele>
        <time>2025-09-28T10:59:09Z</time>
      </trkpt>
      <trkpt lat="46.08399" lon="4.39712">
        <ele>574</ele>
        <time>2025-09-28T10:59:10Z</time>
      </trkpt>
      <trkpt lat="46.08398" lon="4.39715">
        <ele>574.4</ele>
        <time>2025-09-28T10:59:11Z</time>
      </trkpt>
      <trkpt lat="46.08397" lon="4.39718">
        <ele>574.4</ele>
        <time>2025-09-28T10:59:12Z</time>
      </trkpt>
      <trkpt lat="46.08396" lon="4.3972">
        <ele>574.4</ele>
        <time>2025-09-28T10:59:13Z</time>
      </trkpt>
      <trkpt lat="46.08395" lon="4.39723">
        <ele>574.8</ele>
        <time>2025-09-28T10:59:14Z</time>
      </trkpt>
      <trkpt lat="46.08394" lon="4.39726">
        <ele>574.8</ele>
        <time>2025-09-28T10:59:15Z</time>
      </trkpt>
      <trkpt lat="46.08393" lon="4.39729">
        <ele>575</ele>
        <time>2025-09-28T10:59:16Z</time>
      </trkpt>
      <trkpt lat="46.08392" lon="4.39731">
        <ele>575</ele>
        <time>2025-09-28T10:59:17Z</time>
      </trkpt>
      <trkpt lat="46.08391" lon="4.39734">
        <ele>575.4</ele>
        <time>2025-09-28T10:59:18Z</time>
      </trkpt>
      <trkpt lat="46.0839" lon="4.39737">
        <ele>575.6</ele>
        <time>2025-09-28T10:59:19Z</time>
      </trkpt>
      <trkpt lat="46.0839" lon="4.3974">
        <ele>575.6</ele>
        <time>2025-09-28T10:59:20Z</time>
      </trkpt>
      <trkpt lat="46.08389" lon="4.39743">
        <ele>576</ele>
        <time>2025-09-28T10:59:21Z</time>
      </trkpt>
      <trkpt lat="46.08388" lon="4.39745">
        <ele>576.2</ele>
        <time>2025-09-28T10:59:22Z</time>
      </trkpt>
      <trkpt lat="46.08387" lon="4.39748">
        <ele>576.2</ele>
        <time>2025-09-28T10:59:23Z</time>
      </trkpt>
      <trkpt lat="46.08387" lon="4.39752">
        <ele>576.4</ele>
        <time>2025-09-28T10:59:24Z</time>
      </trkpt>
      <trkpt lat="46.08386" lon="4.39755">
        <ele>576.4</ele>
        <time>2025-09-28T10:59:25Z</time>
      </trkpt>
      <trkpt lat="46.08386" lon="4.39758">
        <ele>576.4</ele>
        <time>2025-09-28T10:59:26Z</time>
      </trkpt>
      <trkpt lat="46.08386" lon="4.39762">
        <ele>576.8</ele>
        <time>2025-09-28T10:59:27Z</time>
      </trkpt>
      <trkpt lat="46.08385" lon="4.39765">
        <ele>576.8</ele>
        <time>2025-09-28T10:59:28Z</time>
      </trkpt>
      <trkpt lat="46.08385" lon="4.39769">
        <ele>576.8</ele>
        <time>2025-09-28T10:59:29Z</time>
      </trkpt>
      <trkpt lat="46.08385" lon="4.39772">
        <ele>577</ele>
        <time>2025-09-28T10:59:30Z</time>
      </trkpt>
      <trkpt lat="46.08385" lon="4.39775">
        <ele>577</ele>
        <time>2025-09-28T10:59:31Z</time>
      </trkpt>
      <trkpt lat="46.08386" lon="4.39779">
        <ele>577</ele>
        <time>2025-09-28T10:59:32Z</time>
      </trkpt>
      <trkpt lat="46.08386" lon="4.39782">
        <ele>577.4</ele>
        <time>2025-09-28T10:59:33Z</time>
      </trkpt>
      <trkpt lat="46.08387" lon="4.39785">
        <ele>577.4</ele>
        <time>2025-09-28T10:59:34Z</time>
      </trkpt>
      <trkpt lat="46.08387" lon="4.39789">
        <ele>577.8</ele>
        <time>2025-09-28T10:59:35Z</time>
      </trkpt>
      <trkpt lat="46.08388" lon="4.39792">
        <ele>577.8</ele>
        <time>2025-09-28T10:59:36Z</time>
      </trkpt>
      <trkpt lat="46.08389" lon="4.39795">
        <ele>578</ele>
        <time>2025-09-28T10:59:37Z</time>
      </trkpt>
      <trkpt lat="46.0839" lon="4.39798">
        <ele>578.4</ele>
        <time>2025-09-28T10:59:38Z</time>
      </trkpt>
      <trkpt lat="46.08392" lon="4.39801">
        <ele>578.6</ele>
        <time>2025-09-28T10:59:39Z</time>
      </trkpt>
      <trkpt lat="46.08393" lon="4.39804">
        <ele>578.8</ele>
        <time>2025-09-28T10:59:40Z</time>
      </trkpt>
      <trkpt lat="46.08394" lon="4.39806">
        <ele>578.8</ele>
        <time>2025-09-28T10:59:41Z</time>
      </trkpt>
      <trkpt lat="46.08395" lon="4.39809">
        <ele>578.8</ele>
        <time>2025-09-28T10:59:42Z</time>
      </trkpt>
      <trkpt lat="46.08397" lon="4.39811">
        <ele>578.8</ele>
        <time>2025-09-28T10:59:43Z</time>
      </trkpt>
      <trkpt lat="46.08398" lon="4.39814">
        <ele>579.2</ele>
        <time>2025-09-28T10:59:44Z</time>
      </trkpt>
      <trkpt lat="46.084" lon="4.39816">
        <ele>579.4</ele>
        <time>2025-09-28T10:59:45Z</time>
      </trkpt>
      <trkpt lat="46.08401" lon="4.39818">
        <ele>579.4</ele>
        <time>2025-09-28T10:59:46Z</time>
      </trkpt>
      <trkpt lat="46.08402" lon="4.3982">
        <ele>579.6</ele>
        <time>2025-09-28T10:59:47Z</time>
      </trkpt>
      <trkpt lat="46.08403" lon="4.39822">
        <ele>579.6</ele>
        <time>2025-09-28T10:59:48Z</time>
      </trkpt>
      <trkpt lat="46.08405" lon="4.39825">
        <ele>579.6</ele>
        <time>2025-09-28T10:59:49Z</time>
      </trkpt>
      <trkpt lat="46.08407" lon="4.39827">
        <ele>579.6</ele>
        <time>2025-09-28T10:59:50Z</time>
      </trkpt>
      <trkpt lat="46.08409" lon="4.39829">
        <ele>580</ele>
        <time>2025-09-28T10:59:51Z</time>
      </trkpt>
      <trkpt lat="46.08411" lon="4.39832">
        <ele>580.2</ele>
        <time>2025-09-28T10:59:52Z</time>
      </trkpt>
      <trkpt lat="46.08412" lon="4.39834">
        <ele>580.2</ele>
        <time>2025-09-28T10:59:53Z</time>
      </trkpt>
      <trkpt lat="46.08414" lon="4.39836">
        <ele>580.2</ele>
        <time>2025-09-28T10:59:54Z</time>
      </trkpt>
      <trkpt lat="46.08416" lon="4.39839">
        <ele>580.6</ele>
        <time>2025-09-28T10:59:55Z</time>
      </trkpt>
      <trkpt lat="46.08417" lon="4.39841">
        <ele>580.6</ele>
        <time>2025-09-28T10:59:56Z</time>
      </trkpt>
      <trkpt lat="46.08418" lon="4.39843">
        <ele>580.8</ele>
        <time>2025-09-28T10:59:57Z</time>
      </trkpt>
      <trkpt lat="46.08419" lon="4.39846">
        <ele>580.8</ele>
        <time>2025-09-28T10:59:58Z</time>
      </trkpt>
      <trkpt lat="46.08421" lon="4.39849">
        <ele>580.8</ele>
        <time>2025-09-28T10:59:59Z</time>
      </trkpt>
      <trkpt lat="46.08422" lon="4.39851">
        <ele>581.2</ele>
        <time>2025-09-28T11:00:00Z</time>
      </trkpt>
      <trkpt lat="46.08424" lon="4.39854">
        <ele>581.2</ele>
        <time>2025-09-28T11:00:01Z</time>
      </trkpt>
      <trkpt lat="46.08426" lon="4.39856">
        <ele>581.4</ele>
        <time>2025-09-28T11:00:02Z</time>
      </trkpt>
      <trkpt lat="46.08428" lon="4.39858">
        <ele>581.4</ele>
        <time>2025-09-28T11:00:03Z</time>
      </trkpt>
      <trkpt lat="46.08429" lon="4.3986">
        <ele>581.8</ele>
        <time>2025-09-28T11:00:04Z</time>
      </trkpt>
      <trkpt lat="46.08431" lon="4.39863">
        <ele>581.8</ele>
        <time>2025-09-28T11:00:05Z</time>
      </trkpt>
      <trkpt lat="46.08433" lon="4.39866">
        <ele>582</ele>
        <time>2025-09-28T11:00:06Z</time>
      </trkpt>
      <trkpt lat="46.08434" lon="4.39869">
        <ele>582.2</ele>
        <time>2025-09-28T11:00:07Z</time>
      </trkpt>
      <trkpt lat="46.08436" lon="4.39871">
        <ele>582.2</ele>
        <time>2025-09-28T11:00:08Z</time>
      </trkpt>
      <trkpt lat="46.08437" lon="4.39873">
        <ele>582.2</ele>
        <time>2025-09-28T11:00:09Z</time>
      </trkpt>
      <trkpt lat="46.08438" lon="4.39875">
        <ele>582.6</ele>
        <time>2025-09-28T11:00:10Z</time>
      </trkpt>
      <trkpt lat="46.08439" lon="4.39878">
        <ele>582.6</ele>
        <time>2025-09-28T11:00:11Z</time>
      </trkpt>
      <trkpt lat="46.0844" lon="4.3988">
        <ele>582.6</ele>
        <time>2025-09-28T11:00:12Z</time>
      </trkpt>
      <trkpt lat="46.08441" lon="4.39882">
        <ele>583</ele>
        <time>2025-09-28T11:00:13Z</time>
      </trkpt>
      <trkpt lat="46.08443" lon="4.39885">
        <ele>583.4</ele>
        <time>2025-09-28T11:00:14Z</time>
      </trkpt>
      <trkpt lat="46.08444" lon="4.39887">
        <ele>583.4</ele>
        <time>2025-09-28T11:00:15Z</time>
      </trkpt>
      <trkpt lat="46.08445" lon="4.39889">
        <ele>583.6</ele>
        <time>2025-09-28T11:00:16Z</time>
      </trkpt>
      <trkpt lat="46.08446" lon="4.39891">
        <ele>583.6</ele>
        <time>2025-09-28T11:00:17Z</time>
      </trkpt>
      <trkpt lat="46.08447" lon="4.39893">
        <ele>583.6</ele>
        <time>2025-09-28T11:00:18Z</time>
      </trkpt>
      <trkpt lat="46.08448" lon="4.39895">
        <ele>583.8</ele>
        <time>2025-09-28T11:00:19Z</time>
      </trkpt>
      <trkpt lat="46.0845" lon="4.39897">
        <ele>583.8</ele>
        <time>2025-09-28T11:00:20Z</time>
      </trkpt>
      <trkpt lat="46.08451" lon="4.399">
        <ele>584.4</ele>
        <time>2025-09-28T11:00:21Z</time>
      </trkpt>
      <trkpt lat="46.08453" lon="4.39902">
        <ele>584.6</ele>
        <time>2025-09-28T11:00:22Z</time>
      </trkpt>
      <trkpt lat="46.08454" lon="4.39905">
        <ele>584.8</ele>
        <time>2025-09-28T11:00:23Z</time>
      </trkpt>
      <trkpt lat="46.08456" lon="4.39907">
        <ele>585</ele>
        <time>2025-09-28T11:00:24Z</time>
      </trkpt>
      <trkpt lat="46.08457" lon="4.3991">
        <ele>585</ele>
        <time>2025-09-28T11:00:25Z</time>
      </trkpt>
      <trkpt lat="46.08459" lon="4.39912">
        <ele>585</ele>
        <time>2025-09-28T11:00:26Z</time>
      </trkpt>
      <trkpt lat="46.0846" lon="4.39914">
        <ele>585.4</ele>
        <time>2025-09-28T11:00:27Z</time>
      </trkpt>
      <trkpt lat="46.08461" lon="4.39916">
        <ele>585.8</ele>
        <time>2025-09-28T11:00:28Z</time>
      </trkpt>
      <trkpt lat="46.08462" lon="4.39919">
        <ele>585.8</ele>
        <time>2025-09-28T11:00:29Z</time>
      </trkpt>
      <trkpt lat="46.08464" lon="4.39921">
        <ele>586</ele>
        <time>2025-09-28T11:00:30Z</time>
      </trkpt>
      <trkpt lat="46.08465" lon="4.39924">
        <ele>586</ele>
        <time>2025-09-28T11:00:31Z</time>
      </trkpt>
      <trkpt lat="46.08466" lon="4.39926">
        <ele>586</ele>
        <time>2025-09-28T11:00:32Z</time>
      </trkpt>
      <trkpt lat="46.08467" lon="4.39928">
        <ele>586.4</ele>
        <time>2025-09-28T11:00:33Z</time>
      </trkpt>
      <trkpt lat="46.08468" lon="4.3993">
        <ele>586.4</ele>
        <time>2025-09-28T11:00:34Z</time>
      </trkpt>
      <trkpt lat="46.08469" lon="4.39933">
        <ele>586.6</ele>
        <time>2025-09-28T11:00:35Z</time>
      </trkpt>
      <trkpt lat="46.0847" lon="4.39935">
        <ele>586.8</ele>
        <time>2025-09-28T11:00:36Z</time>
      </trkpt>
      <trkpt lat="46.08471" lon="4.39937">
        <ele>586.8</ele>
        <time>2025-09-28T11:00:37Z</time>
      </trkpt>
      <trkpt lat="46.08473" lon="4.3994">
        <ele>587</ele>
        <time>2025-09-28T11:00:38Z</time>
      </trkpt>
      <trkpt lat="46.08474" lon="4.39943">
        <ele>587</ele>
        <time>2025-09-28T11:00:39Z</time>
      </trkpt>
      <trkpt lat="46.08474" lon="4.39943">
        <ele>587.2</ele>
        <time>2025-09-28T11:00:40Z</time>
      </trkpt>
      <trkpt lat="46.08474" lon="4.39943">
        <ele>587.6</ele>
        <time>2025-09-28T11:00:41Z</time>
      </trkpt>
      <trkpt lat="46.08479" lon="4.39954">
        <ele>587.6</ele>
        <time>2025-09-28T11:00:44Z</time>
      </trkpt>
      <trkpt lat="46.08481" lon="4.39958">
        <ele>587.6</ele>
        <time>2025-09-28T11:00:45Z</time>
      </trkpt>
      <trkpt lat="46.08482" lon="4.39961">
        <ele>587.6</ele>
        <time>2025-09-28T11:00:46Z</time>
      </trkpt>
      <trkpt lat="46.08484" lon="4.39963">
        <ele>587.8</ele>
        <time>2025-09-28T11:00:47Z</time>
      </trkpt>
      <trkpt lat="46.08485" lon="4.39966">
        <ele>587.8</ele>
        <time>2025-09-28T11:00:48Z</time>
      </trkpt>
      <trkpt lat="46.08487" lon="4.39969">
        <ele>587.8</ele>
        <time>2025-09-28T11:00:49Z</time>
      </trkpt>
      <trkpt lat="46.08488" lon="4.39972">
        <ele>588.2</ele>
        <time>2025-09-28T11:00:50Z</time>
      </trkpt>
      <trkpt lat="46.08489" lon="4.39974">
        <ele>588.4</ele>
        <time>2025-09-28T11:00:51Z</time>
      </trkpt>
      <trkpt lat="46.0849" lon="4.39977">
        <ele>588.4</ele>
        <time>2025-09-28T11:00:52Z</time>
      </trkpt>
      <trkpt lat="46.08492" lon="4.3998">
        <ele>588.4</ele>
        <time>2025-09-28T11:00:53Z</time>
      </trkpt>
      <trkpt lat="46.08493" lon="4.39984">
        <ele>588.6</ele>
        <time>2025-09-28T11:00:54Z</time>
      </trkpt>
      <trkpt lat="46.08493" lon="4.39987">
        <ele>588.6</ele>
        <time>2025-09-28T11:00:55Z</time>
      </trkpt>
      <trkpt lat="46.08494" lon="4.3999">
        <ele>589</ele>
        <time>2025-09-28T11:00:56Z</time>
      </trkpt>
      <trkpt lat="46.08495" lon="4.39992">
        <ele>589.2</ele>
        <time>2025-09-28T11:00:57Z</time>
      </trkpt>
      <trkpt lat="46.08496" lon="4.39995">
        <ele>589.2</ele>
        <time>2025-09-28T11:00:58Z</time>
      </trkpt>
      <trkpt lat="46.08497" lon="4.39998">
        <ele>589.2</ele>
        <time>2025-09-28T11:00:59Z</time>
      </trkpt>
      <trkpt lat="46.08498" lon="4.40001">
        <ele>589.4</ele>
        <time>2025-09-28T11:01:00Z</time>
      </trkpt>
      <trkpt lat="46.08498" lon="4.40001">
        <ele>589.4</ele>
        <time>2025-09-28T11:01:01Z</time>
      </trkpt>
      <trkpt lat="46.085" lon="4.40006">
        <ele>590</ele>
        <time>2025-09-28T11:01:02Z</time>
      </trkpt>
      <trkpt lat="46.085" lon="4.40009">
        <ele>590</ele>
        <time>2025-09-28T11:01:03Z</time>
      </trkpt>
      <trkpt lat="46.08501" lon="4.40011">
        <ele>590.2</ele>
        <time>2025-09-28T11:01:04Z</time>
      </trkpt>
      <trkpt lat="46.08502" lon="4.40014">
        <ele>590.2</ele>
        <time>2025-09-28T11:01:05Z</time>
      </trkpt>
      <trkpt lat="46.08503" lon="4.40017">
        <ele>590.4</ele>
        <time>2025-09-28T11:01:06Z</time>
      </trkpt>
      <trkpt lat="46.08504" lon="4.4002">
        <ele>590.4</ele>
        <time>2025-09-28T11:01:07Z</time>
      </trkpt>
      <trkpt lat="46.08505" lon="4.40023">
        <ele>590.6</ele>
        <time>2025-09-28T11:01:08Z</time>
      </trkpt>
      <trkpt lat="46.08506" lon="4.40026">
        <ele>590.6</ele>
        <time>2025-09-28T11:01:09Z</time>
      </trkpt>
      <trkpt lat="46.08507" lon="4.40028">
        <ele>591</ele>
        <time>2025-09-28T11:01:10Z</time>
      </trkpt>
      <trkpt lat="46.08507" lon="4.40031">
        <ele>591</ele>
        <time>2025-09-28T11:01:11Z</time>
      </trkpt>
      <trkpt lat="46.08508" lon="4.40034">
        <ele>591.4</ele>
        <time>2025-09-28T11:01:12Z</time>
      </trkpt>
      <trkpt lat="46.08509" lon="4.40036">
        <ele>591.6</ele>
        <time>2025-09-28T11:01:13Z</time>
      </trkpt>
      <trkpt lat="46.0851" lon="4.40039">
        <ele>591.6</ele>
        <time>2025-09-28T11:01:14Z</time>
      </trkpt>
      <trkpt lat="46.08511" lon="4.40042">
        <ele>592</ele>
        <time>2025-09-28T11:01:15Z</time>
      </trkpt>
      <trkpt lat="46.08512" lon="4.40044">
        <ele>592</ele>
        <time>2025-09-28T11:01:16Z</time>
      </trkpt>
      <trkpt lat="46.08513" lon="4.40047">
        <ele>592.2</ele>
        <time>2025-09-28T11:01:17Z</time>
      </trkpt>
      <trkpt lat="46.08514" lon="4.4005">
        <ele>592.2</ele>
        <time>2025-09-28T11:01:18Z</time>
      </trkpt>
      <trkpt lat="46.08515" lon="4.40053">
        <ele>592.6</ele>
        <time>2025-09-28T11:01:19Z</time>
      </trkpt>
      <trkpt lat="46.08516" lon="4.40056">
        <ele>592.6</ele>
        <time>2025-09-28T11:01:20Z</time>
      </trkpt>
      <trkpt lat="46.08516" lon="4.40059">
        <ele>592.8</ele>
        <time>2025-09-28T11:01:21Z</time>
      </trkpt>
      <trkpt lat="46.08517" lon="4.40062">
        <ele>593</ele>
        <time>2025-09-28T11:01:22Z</time>
      </trkpt>
      <trkpt lat="46.08518" lon="4.40066">
        <ele>593</ele>
        <time>2025-09-28T11:01:23Z</time>
      </trkpt>
      <trkpt lat="46.08519" lon="4.40069">
        <ele>593.4</ele>
        <time>2025-09-28T11:01:24Z</time>
      </trkpt>
      <trkpt lat="46.0852" lon="4.40072">
        <ele>593.4</ele>
        <time>2025-09-28T11:01:25Z</time>
      </trkpt>
      <trkpt lat="46.0852" lon="4.40075">
        <ele>593.8</ele>
        <time>2025-09-28T11:01:26Z</time>
      </trkpt>
      <trkpt lat="46.08521" lon="4.40077">
        <ele>594</ele>
        <time>2025-09-28T11:01:27Z</time>
      </trkpt>
      <trkpt lat="46.08522" lon="4.4008">
        <ele>594</ele>
        <time>2025-09-28T11:01:28Z</time>
      </trkpt>
      <trkpt lat="46.08523" lon="4.40082">
        <ele>594.4</ele>
        <time>2025-09-28T11:01:29Z</time>
      </trkpt>
      <trkpt lat="46.08523" lon="4.40085">
        <ele>594.4</ele>
        <time>2025-09-28T11:01:30Z</time>
      </trkpt>
      <trkpt lat="46.08524" lon="4.40086">
        <ele>594.8</ele>
        <time>2025-09-28T11:01:31Z</time>
      </trkpt>
      <trkpt lat="46.08524" lon="4.40089">
        <ele>594.8</ele>
        <time>2025-09-28T11:01:32Z</time>
      </trkpt>
      <trkpt lat="46.08525" lon="4.40091">
        <ele>594.8</ele>
        <time>2025-09-28T11:01:33Z</time>
      </trkpt>
      <trkpt lat="46.08526" lon="4.40093">
        <ele>595</ele>
        <time>2025-09-28T11:01:34Z</time>
      </trkpt>
      <trkpt lat="46.08527" lon="4.40096">
        <ele>595.2</ele>
        <time>2025-09-28T11:01:35Z</time>
      </trkpt>
      <trkpt lat="46.08527" lon="4.40098">
        <ele>595.2</ele>
        <time>2025-09-28T11:01:36Z</time>
      </trkpt>
      <trkpt lat="46.08528" lon="4.401">
        <ele>595.6</ele>
        <time>2025-09-28T11:01:37Z</time>
      </trkpt>
      <trkpt lat="46.08529" lon="4.40103">
        <ele>595.6</ele>
        <time>2025-09-28T11:01:38Z</time>
      </trkpt>
      <trkpt lat="46.0853" lon="4.40105">
        <ele>595.6</ele>
        <time>2025-09-28T11:01:39Z</time>
      </trkpt>
      <trkpt lat="46.08531" lon="4.40107">
        <ele>596</ele>
        <time>2025-09-28T11:01:40Z</time>
      </trkpt>
      <trkpt lat="46.08532" lon="4.4011">
        <ele>596</ele>
        <time>2025-09-28T11:01:41Z</time>
      </trkpt>
      <trkpt lat="46.08533" lon="4.40112">
        <ele>596.4</ele>
        <time>2025-09-28T11:01:42Z</time>
      </trkpt>
      <trkpt lat="46.08534" lon="4.40114">
        <ele>596.6</ele>
        <time>2025-09-28T11:01:43Z</time>
      </trkpt>
      <trkpt lat="46.08534" lon="4.40117">
        <ele>596.6</ele>
        <time>2025-09-28T11:01:44Z</time>
      </trkpt>
      <trkpt lat="46.08535" lon="4.4012">
        <ele>596.8</ele>
        <time>2025-09-28T11:01:45Z</time>
      </trkpt>
      <trkpt lat="46.08535" lon="4.40123">
        <ele>596.8</ele>
        <time>2025-09-28T11:01:46Z</time>
      </trkpt>
      <trkpt lat="46.08536" lon="4.40125">
        <ele>596.8</ele>
        <time>2025-09-28T11:01:47Z</time>
      </trkpt>
      <trkpt lat="46.08537" lon="4.40127">
        <ele>597</ele>
        <time>2025-09-28T11:01:48Z</time>
      </trkpt>
      <trkpt lat="46.08538" lon="4.4013">
        <ele>597</ele>
        <time>2025-09-28T11:01:49Z</time>
      </trkpt>
      <trkpt lat="46.08538" lon="4.40132">
        <ele>597.2</ele>
        <time>2025-09-28T11:01:50Z</time>
      </trkpt>
      <trkpt lat="46.08539" lon="4.40135">
        <ele>597.2</ele>
        <time>2025-09-28T11:01:51Z</time>
      </trkpt>
      <trkpt lat="46.0854" lon="4.40138">
        <ele>597.6</ele>
        <time>2025-09-28T11:01:52Z</time>
      </trkpt>
      <trkpt lat="46.0854" lon="4.4014">
        <ele>597.8</ele>
        <time>2025-09-28T11:01:53Z</time>
      </trkpt>
      <trkpt lat="46.0854" lon="4.40143">
        <ele>597.8</ele>
        <time>2025-09-28T11:01:54Z</time>
      </trkpt>
      <trkpt lat="46.0854" lon="4.40146">
        <ele>598.2</ele>
        <time>2025-09-28T11:01:55Z</time>
      </trkpt>
      <trkpt lat="46.0854" lon="4.40149">
        <ele>598.2</ele>
        <time>2025-09-28T11:01:56Z</time>
      </trkpt>
      <trkpt lat="46.08539" lon="4.40152">
        <ele>598.6</ele>
        <time>2025-09-28T11:01:57Z</time>
      </trkpt>
      <trkpt lat="46.08538" lon="4.40155">
        <ele>598.6</ele>
        <time>2025-09-28T11:01:58Z</time>
      </trkpt>
      <trkpt lat="46.08537" lon="4.40158">
        <ele>598.6</ele>
        <time>2025-09-28T11:01:59Z</time>
      </trkpt>
      <trkpt lat="46.08535" lon="4.4016">
        <ele>598.8</ele>
        <time>2025-09-28T11:02:00Z</time>
      </trkpt>
      <trkpt lat="46.08533" lon="4.40161">
        <ele>598.8</ele>
        <time>2025-09-28T11:02:01Z</time>
      </trkpt>
      <trkpt lat="46.08532" lon="4.40162">
        <ele>599.2</ele>
        <time>2025-09-28T11:02:02Z</time>
      </trkpt>
      <trkpt lat="46.0853" lon="4.40163">
        <ele>599.4</ele>
        <time>2025-09-28T11:02:03Z</time>
      </trkpt>
      <trkpt lat="46.08528" lon="4.40164">
        <ele>599.4</ele>
        <time>2025-09-28T11:02:04Z</time>
      </trkpt>
      <trkpt lat="46.08526" lon="4.40164">
        <ele>599.8</ele>
        <time>2025-09-28T11:02:05Z</time>
      </trkpt>
      <trkpt lat="46.08524" lon="4.40164">
        <ele>600.2</ele>
        <time>2025-09-28T11:02:06Z</time>
      </trkpt>
      <trkpt lat="46.08522" lon="4.40163">
        <ele>600.2</ele>
        <time>2025-09-28T11:02:07Z</time>
      </trkpt>
      <trkpt lat="46.08521" lon="4.40162">
        <ele>600.6</ele>
        <time>2025-09-28T11:02:08Z</time>
      </trkpt>
      <trkpt lat="46.08519" lon="4.40161">
        <ele>600.6</ele>
        <time>2025-09-28T11:02:09Z</time>
      </trkpt>
      <trkpt lat="46.08517" lon="4.4016">
        <ele>600.8</ele>
        <time>2025-09-28T11:02:10Z</time>
      </trkpt>
      <trkpt lat="46.08515" lon="4.40159">
        <ele>601</ele>
        <time>2025-09-28T11:02:11Z</time>
      </trkpt>
      <trkpt lat="46.08513" lon="4.40158">
        <ele>601</ele>
        <time>2025-09-28T11:02:12Z</time>
      </trkpt>
      <trkpt lat="46.08512" lon="4.40157">
        <ele>601.4</ele>
        <time>2025-09-28T11:02:13Z</time>
      </trkpt>
      <trkpt lat="46.0851" lon="4.40156">
        <ele>601.4</ele>
        <time>2025-09-28T11:02:14Z</time>
      </trkpt>
      <trkpt lat="46.08508" lon="4.40155">
        <ele>601.8</ele>
        <time>2025-09-28T11:02:15Z</time>
      </trkpt>
      <trkpt lat="46.08507" lon="4.40154">
        <ele>601.8</ele>
        <time>2025-09-28T11:02:16Z</time>
      </trkpt>
      <trkpt lat="46.08505" lon="4.40153">
        <ele>601.8</ele>
        <time>2025-09-28T11:02:17Z</time>
      </trkpt>
      <trkpt lat="46.08504" lon="4.40151">
        <ele>602</ele>
        <time>2025-09-28T11:02:18Z</time>
      </trkpt>
      <trkpt lat="46.08502" lon="4.4015">
        <ele>602</ele>
        <time>2025-09-28T11:02:19Z</time>
      </trkpt>
      <trkpt lat="46.08501" lon="4.40149">
        <ele>602.4</ele>
        <time>2025-09-28T11:02:20Z</time>
      </trkpt>
      <trkpt lat="46.08499" lon="4.40147">
        <ele>602.4</ele>
        <time>2025-09-28T11:02:21Z</time>
      </trkpt>
      <trkpt lat="46.08498" lon="4.40146">
        <ele>602.4</ele>
        <time>2025-09-28T11:02:22Z</time>
      </trkpt>
      <trkpt lat="46.08497" lon="4.40146">
        <ele>602.6</ele>
        <time>2025-09-28T11:02:23Z</time>
      </trkpt>
      <trkpt lat="46.08496" lon="4.40145">
        <ele>602.6</ele>
        <time>2025-09-28T11:02:24Z</time>
      </trkpt>
      <trkpt lat="46.08494" lon="4.40144">
        <ele>603</ele>
        <time>2025-09-28T11:02:25Z</time>
      </trkpt>
      <trkpt lat="46.08492" lon="4.40143">
        <ele>603</ele>
        <time>2025-09-28T11:02:26Z</time>
      </trkpt>
      <trkpt lat="46.08491" lon="4.40143">
        <ele>603</ele>
        <time>2025-09-28T11:02:27Z</time>
      </trkpt>
      <trkpt lat="46.08489" lon="4.40141">
        <ele>603.4</ele>
        <time>2025-09-28T11:02:28Z</time>
      </trkpt>
      <trkpt lat="46.08487" lon="4.4014">
        <ele>603.4</ele>
        <time>2025-09-28T11:02:29Z</time>
      </trkpt>
      <trkpt lat="46.08486" lon="4.40139">
        <ele>603.6</ele>
        <time>2025-09-28T11:02:30Z</time>
      </trkpt>
      <trkpt lat="46.08484" lon="4.40138">
        <ele>603.6</ele>
        <time>2025-09-28T11:02:31Z</time>
      </trkpt>
      <trkpt lat="46.08482" lon="4.40137">
        <ele>603.8</ele>
        <time>2025-09-28T11:02:32Z</time>
      </trkpt>
      <trkpt lat="46.0848" lon="4.40136">
        <ele>603.8</ele>
        <time>2025-09-28T11:02:33Z</time>
      </trkpt>
      <trkpt lat="46.08478" lon="4.40135">
        <ele>604</ele>
        <time>2025-09-28T11:02:34Z</time>
      </trkpt>
      <trkpt lat="46.08476" lon="4.40134">
        <ele>604</ele>
        <time>2025-09-28T11:02:35Z</time>
      </trkpt>
      <trkpt lat="46.08474" lon="4.40133">
        <ele>604.4</ele>
        <time>2025-09-28T11:02:36Z</time>
      </trkpt>
      <trkpt lat="46.08472" lon="4.40133">
        <ele>604.4</ele>
        <time>2025-09-28T11:02:37Z</time>
      </trkpt>
      <trkpt lat="46.0847" lon="4.40132">
        <ele>604.6</ele>
        <time>2025-09-28T11:02:38Z</time>
      </trkpt>
      <trkpt lat="46.08468" lon="4.40131">
        <ele>604.6</ele>
        <time>2025-09-28T11:02:39Z</time>
      </trkpt>
      <trkpt lat="46.08466" lon="4.4013">
        <ele>605</ele>
        <time>2025-09-28T11:02:40Z</time>
      </trkpt>
      <trkpt lat="46.08464" lon="4.4013">
        <ele>605</ele>
        <time>2025-09-28T11:02:41Z</time>
      </trkpt>
      <trkpt lat="46.08462" lon="4.4013">
        <ele>605</ele>
        <time>2025-09-28T11:02:42Z</time>
      </trkpt>
      <trkpt lat="46.0846" lon="4.40129">
        <ele>605.2</ele>
        <time>2025-09-28T11:02:43Z</time>
      </trkpt>
      <trkpt lat="46.08458" lon="4.40129">
        <ele>605.2</ele>
        <time>2025-09-28T11:02:44Z</time>
      </trkpt>
      <trkpt lat="46.08456" lon="4.40129">
        <ele>605.2</ele>
        <time>2025-09-28T11:02:45Z</time>
      </trkpt>
      <trkpt lat="46.08454" lon="4.40129">
        <ele>605.4</ele>
        <time>2025-09-28T11:02:46Z</time>
      </trkpt>
      <trkpt lat="46.08452" lon="4.40129">
        <ele>605.4</ele>
        <time>2025-09-28T11:02:47Z</time>
      </trkpt>
      <trkpt lat="46.0845" lon="4.40129">
        <ele>605.4</ele>
        <time>2025-09-28T11:02:48Z</time>
      </trkpt>
      <trkpt lat="46.08448" lon="4.40129">
        <ele>605.6</ele>
        <time>2025-09-28T11:02:49Z</time>
      </trkpt>
      <trkpt lat="46.08446" lon="4.40129">
        <ele>605.6</ele>
        <time>2025-09-28T11:02:50Z</time>
      </trkpt>
      <trkpt lat="46.08444" lon="4.40129">
        <ele>605.8</ele>
        <time>2025-09-28T11:02:51Z</time>
      </trkpt>
      <trkpt lat="46.08442" lon="4.40129">
        <ele>605.8</ele>
        <time>2025-09-28T11:02:52Z</time>
      </trkpt>
      <trkpt lat="46.0844" lon="4.40129">
        <ele>606</ele>
        <time>2025-09-28T11:02:53Z</time>
      </trkpt>
      <trkpt lat="46.08438" lon="4.40129">
        <ele>606.4</ele>
        <time>2025-09-28T11:02:54Z</time>
      </trkpt>
      <trkpt lat="46.08436" lon="4.4013">
        <ele>606.4</ele>
        <time>2025-09-28T11:02:55Z</time>
      </trkpt>
      <trkpt lat="46.08434" lon="4.4013">
        <ele>606.6</ele>
        <time>2025-09-28T11:02:56Z</time>
      </trkpt>
      <trkpt lat="46.08432" lon="4.4013">
        <ele>606.6</ele>
        <time>2025-09-28T11:02:57Z</time>
      </trkpt>
      <trkpt lat="46.0843" lon="4.4013">
        <ele>607</ele>
        <time>2025-09-28T11:02:58Z</time>
      </trkpt>
      <trkpt lat="46.08428" lon="4.4013">
        <ele>607</ele>
        <time>2025-09-28T11:02:59Z</time>
      </trkpt>
      <trkpt lat="46.08426" lon="4.40129">
        <ele>607.4</ele>
        <time>2025-09-28T11:03:00Z</time>
      </trkpt>
      <trkpt lat="46.08425" lon="4.40129">
        <ele>607.4</ele>
        <time>2025-09-28T11:03:01Z</time>
      </trkpt>
      <trkpt lat="46.08423" lon="4.40129">
        <ele>607.4</ele>
        <time>2025-09-28T11:03:02Z</time>
      </trkpt>
      <trkpt lat="46.08421" lon="4.4013">
        <ele>607.8</ele>
        <time>2025-09-28T11:03:03Z</time>
      </trkpt>
      <trkpt lat="46.0842" lon="4.4013">
        <ele>607.8</ele>
        <time>2025-09-28T11:03:04Z</time>
      </trkpt>
      <trkpt lat="46.08418" lon="4.40129">
        <ele>608</ele>
        <time>2025-09-28T11:03:05Z</time>
      </trkpt>
      <trkpt lat="46.08416" lon="4.40129">
        <ele>608</ele>
        <time>2025-09-28T11:03:06Z</time>
      </trkpt>
      <trkpt lat="46.08415" lon="4.40129">
        <ele>608.2</ele>
        <time>2025-09-28T11:03:07Z</time>
      </trkpt>
      <trkpt lat="46.08413" lon="4.40129">
        <ele>608.2</ele>
        <time>2025-09-28T11:03:08Z</time>
      </trkpt>
      <trkpt lat="46.08411" lon="4.40128">
        <ele>608.2</ele>
        <time>2025-09-28T11:03:09Z</time>
      </trkpt>
      <trkpt lat="46.0841" lon="4.40128">
        <ele>608.6</ele>
        <time>2025-09-28T11:03:10Z</time>
      </trkpt>
      <trkpt lat="46.08408" lon="4.40127">
        <ele>608.6</ele>
        <time>2025-09-28T11:03:11Z</time>
      </trkpt>
      <trkpt lat="46.08406" lon="4.40127">
        <ele>608.8</ele>
        <time>2025-09-28T11:03:12Z</time>
      </trkpt>
      <trkpt lat="46.08404" lon="4.40126">
        <ele>609.2</ele>
        <time>2025-09-28T11:03:13Z</time>
      </trkpt>
      <trkpt lat="46.08403" lon="4.40125">
        <ele>609.4</ele>
        <time>2025-09-28T11:03:14Z</time>
      </trkpt>
      <trkpt lat="46.08401" lon="4.40124">
        <ele>609.4</ele>
        <time>2025-09-28T11:03:15Z</time>
      </trkpt>
      <trkpt lat="46.084" lon="4.40123">
        <ele>609.4</ele>
        <time>2025-09-28T11:03:16Z</time>
      </trkpt>
      <trkpt lat="46.08398" lon="4.40122">
        <ele>609.4</ele>
        <time>2025-09-28T11:03:17Z</time>
      </trkpt>
      <trkpt lat="46.08397" lon="4.4012">
        <ele>609.6</ele>
        <time>2025-09-28T11:03:18Z</time>
      </trkpt>
      <trkpt lat="46.08395" lon="4.40118">
        <ele>609.6</ele>
        <time>2025-09-28T11:03:19Z</time>
      </trkpt>
      <trkpt lat="46.08394" lon="4.40116">
        <ele>610</ele>
        <time>2025-09-28T11:03:20Z</time>
      </trkpt>
      <trkpt lat="46.08393" lon="4.40114">
        <ele>610</ele>
        <time>2025-09-28T11:03:21Z</time>
      </trkpt>
      <trkpt lat="46.08392" lon="4.40112">
        <ele>610</ele>
        <time>2025-09-28T11:03:22Z</time>
      </trkpt>
      <trkpt lat="46.08391" lon="4.4011">
        <ele>610</ele>
        <time>2025-09-28T11:03:23Z</time>
      </trkpt>
      <trkpt lat="46.0839" lon="4.40107">
        <ele>610.2</ele>
        <time>2025-09-28T11:03:24Z</time>
      </trkpt>
      <trkpt lat="46.0839" lon="4.40105">
        <ele>610.2</ele>
        <time>2025-09-28T11:03:25Z</time>
      </trkpt>
      <trkpt lat="46.08389" lon="4.40102">
        <ele>610.6</ele>
        <time>2025-09-28T11:03:26Z</time>
      </trkpt>
      <trkpt lat="46.08388" lon="4.40099">
        <ele>610.6</ele>
        <time>2025-09-28T11:03:27Z</time>
      </trkpt>
      <trkpt lat="46.08388" lon="4.40097">
        <ele>610.6</ele>
        <time>2025-09-28T11:03:28Z</time>
      </trkpt>
      <trkpt lat="46.08387" lon="4.40094">
        <ele>610.6</ele>
        <time>2025-09-28T11:03:29Z</time>
      </trkpt>
      <trkpt lat="46.08386" lon="4.40091">
        <ele>610.6</ele>
        <time>2025-09-28T11:03:30Z</time>
      </trkpt>
      <trkpt lat="46.08386" lon="4.40088">
        <ele>610.8</ele>
        <time>2025-09-28T11:03:31Z</time>
      </trkpt>
      <trkpt lat="46.08385" lon="4.40085">
        <ele>610.8</ele>
        <time>2025-09-28T11:03:32Z</time>
      </trkpt>
      <trkpt lat="46.08384" lon="4.40083">
        <ele>611.2</ele>
        <time>2025-09-28T11:03:33Z</time>
      </trkpt>
      <trkpt lat="46.08383" lon="4.4008">
        <ele>611.2</ele>
        <time>2025-09-28T11:03:34Z</time>
      </trkpt>
      <trkpt lat="46.08383" lon="4.40077">
        <ele>611.4</ele>
        <time>2025-09-28T11:03:35Z</time>
      </trkpt>
      <trkpt lat="46.08382" lon="4.40074">
        <ele>611.6</ele>
        <time>2025-09-28T11:03:36Z</time>
      </trkpt>
      <trkpt lat="46.08381" lon="4.40072">
        <ele>611.6</ele>
        <time>2025-09-28T11:03:37Z</time>
      </trkpt>
      <trkpt lat="46.0838" lon="4.4007">
        <ele>612</ele>
        <time>2025-09-28T11:03:38Z</time>
      </trkpt>
      <trkpt lat="46.08379" lon="4.40067">
        <ele>612</ele>
        <time>2025-09-28T11:03:39Z</time>
      </trkpt>
      <trkpt lat="46.08378" lon="4.40064">
        <ele>612.2</ele>
        <time>2025-09-28T11:03:40Z</time>
      </trkpt>
      <trkpt lat="46.08378" lon="4.40062">
        <ele>612.2</ele>
        <time>2025-09-28T11:03:41Z</time>
      </trkpt>
      <trkpt lat="46.08376" lon="4.40059">
        <ele>612.2</ele>
        <time>2025-09-28T11:03:42Z</time>
      </trkpt>
      <trkpt lat="46.08375" lon="4.40057">
        <ele>612.6</ele>
        <time>2025-09-28T11:03:43Z</time>
      </trkpt>
      <trkpt lat="46.08374" lon="4.40055">
        <ele>612.6</ele>
        <time>2025-09-28T11:03:44Z</time>
      </trkpt>
      <trkpt lat="46.08373" lon="4.40052">
        <ele>613</ele>
        <time>2025-09-28T11:03:45Z</time>
      </trkpt>
      <trkpt lat="46.08372" lon="4.4005">
        <ele>613</ele>
        <time>2025-09-28T11:03:46Z</time>
      </trkpt>
      <trkpt lat="46.08371" lon="4.40047">
        <ele>613</ele>
        <time>2025-09-28T11:03:47Z</time>
      </trkpt>
      <trkpt lat="46.0837" lon="4.40045">
        <ele>613.2</ele>
        <time>2025-09-28T11:03:48Z</time>
      </trkpt>
      <trkpt lat="46.08368" lon="4.40042">
        <ele>613.2</ele>
        <time>2025-09-28T11:03:49Z</time>
      </trkpt>
      <trkpt lat="46.08367" lon="4.40039">
        <ele>613.6</ele>
        <time>2025-09-28T11:03:50Z</time>
      </trkpt>
      <trkpt lat="46.08365" lon="4.40037">
        <ele>613.6</ele>
        <time>2025-09-28T11:03:51Z</time>
      </trkpt>
      <trkpt lat="46.08364" lon="4.40035">
        <ele>613.8</ele>
        <time>2025-09-28T11:03:52Z</time>
      </trkpt>
      <trkpt lat="46.08363" lon="4.40033">
        <ele>613.8</ele>
        <time>2025-09-28T11:03:53Z</time>
      </trkpt>
      <trkpt lat="46.08362" lon="4.40031">
        <ele>613.8</ele>
        <time>2025-09-28T11:03:54Z</time>
      </trkpt>
      <trkpt lat="46.0836" lon="4.40029">
        <ele>613.8</ele>
        <time>2025-09-28T11:03:55Z</time>
      </trkpt>
      <trkpt lat="46.08359" lon="4.40027">
        <ele>614</ele>
        <time>2025-09-28T11:03:56Z</time>
      </trkpt>
      <trkpt lat="46.08357" lon="4.40025">
        <ele>614</ele>
        <time>2025-09-28T11:03:57Z</time>
      </trkpt>
      <trkpt lat="46.08356" lon="4.40023">
        <ele>614.2</ele>
        <time>2025-09-28T11:03:58Z</time>
      </trkpt>
      <trkpt lat="46.08355" lon="4.40021">
        <ele>614.2</ele>
        <time>2025-09-28T11:03:59Z</time>
      </trkpt>
      <trkpt lat="46.08354" lon="4.40018">
        <ele>614.4</ele>
        <time>2025-09-28T11:04:00Z</time>
      </trkpt>
      <trkpt lat="46.08353" lon="4.40016">
        <ele>614.4</ele>
        <time>2025-09-28T11:04:01Z</time>
      </trkpt>
      <trkpt lat="46.08351" lon="4.40015">
        <ele>614.4</ele>
        <time>2025-09-28T11:04:02Z</time>
      </trkpt>
      <trkpt lat="46.0835" lon="4.40013">
        <ele>614.8</ele>
        <time>2025-09-28T11:04:03Z</time>
      </trkpt>
      <trkpt lat="46.08349" lon="4.40011">
        <ele>614.8</ele>
        <time>2025-09-28T11:04:04Z</time>
      </trkpt>
      <trkpt lat="46.08347" lon="4.40009">
        <ele>615.2</ele>
        <time>2025-09-28T11:04:05Z</time>
      </trkpt>
      <trkpt lat="46.08346" lon="4.40008">
        <ele>615.2</ele>
        <time>2025-09-28T11:04:06Z</time>
      </trkpt>
      <trkpt lat="46.08345" lon="4.40006">
        <ele>615.4</ele>
        <time>2025-09-28T11:04:07Z</time>
      </trkpt>
      <trkpt lat="46.08343" lon="4.40005">
        <ele>615.4</ele>
        <time>2025-09-28T11:04:08Z</time>
      </trkpt>
      <trkpt lat="46.08342" lon="4.40004">
        <ele>615.8</ele>
        <time>2025-09-28T11:04:09Z</time>
      </trkpt>
      <trkpt lat="46.0834" lon="4.40002">
        <ele>616</ele>
        <time>2025-09-28T11:04:10Z</time>
      </trkpt>
      <trkpt lat="46.08339" lon="4.4">
        <ele>616</ele>
        <time>2025-09-28T11:04:11Z</time>
      </trkpt>
      <trkpt lat="46.08337" lon="4.39998">
        <ele>616.2</ele>
        <time>2025-09-28T11:04:12Z</time>
      </trkpt>
      <trkpt lat="46.08335" lon="4.39997">
        <ele>616.2</ele>
        <time>2025-09-28T11:04:13Z</time>
      </trkpt>
      <trkpt lat="46.08333" lon="4.39995">
        <ele>616.2</ele>
        <time>2025-09-28T11:04:14Z</time>
      </trkpt>
      <trkpt lat="46.08332" lon="4.39994">
        <ele>616.6</ele>
        <time>2025-09-28T11:04:15Z</time>
      </trkpt>
      <trkpt lat="46.0833" lon="4.39992">
        <ele>616.6</ele>
        <time>2025-09-28T11:04:16Z</time>
      </trkpt>
      <trkpt lat="46.08328" lon="4.39991">
        <ele>616.8</ele>
        <time>2025-09-28T11:04:17Z</time>
      </trkpt>
      <trkpt lat="46.08326" lon="4.39989">
        <ele>616.8</ele>
        <time>2025-09-28T11:04:18Z</time>
      </trkpt>
      <trkpt lat="46.08325" lon="4.39988">
        <ele>616.8</ele>
        <time>2025-09-28T11:04:19Z</time>
      </trkpt>
      <trkpt lat="46.08323" lon="4.39987">
        <ele>617.2</ele>
        <time>2025-09-28T11:04:20Z</time>
      </trkpt>
      <trkpt lat="46.08321" lon="4.39985">
        <ele>617.2</ele>
        <time>2025-09-28T11:04:21Z</time>
      </trkpt>
      <trkpt lat="46.08319" lon="4.39984">
        <ele>617.6</ele>
        <time>2025-09-28T11:04:22Z</time>
      </trkpt>
      <trkpt lat="46.08318" lon="4.39983">
        <ele>617.6</ele>
        <time>2025-09-28T11:04:23Z</time>
      </trkpt>
      <trkpt lat="46.08316" lon="4.39981">
        <ele>617.8</ele>
        <time>2025-09-28T11:04:24Z</time>
      </trkpt>
      <trkpt lat="46.08315" lon="4.3998">
        <ele>617.8</ele>
        <time>2025-09-28T11:04:25Z</time>
      </trkpt>
      <trkpt lat="46.08313" lon="4.39979">
        <ele>618</ele>
        <time>2025-09-28T11:04:26Z</time>
      </trkpt>
      <trkpt lat="46.08311" lon="4.39977">
        <ele>618</ele>
        <time>2025-09-28T11:04:27Z</time>
      </trkpt>
      <trkpt lat="46.08309" lon="4.39976">
        <ele>618</ele>
        <time>2025-09-28T11:04:28Z</time>
      </trkpt>
      <trkpt lat="46.08307" lon="4.39976">
        <ele>618</ele>
        <time>2025-09-28T11:04:29Z</time>
      </trkpt>
      <trkpt lat="46.08306" lon="4.39974">
        <ele>618.4</ele>
        <time>2025-09-28T11:04:30Z</time>
      </trkpt>
      <trkpt lat="46.08304" lon="4.39973">
        <ele>618.4</ele>
        <time>2025-09-28T11:04:31Z</time>
      </trkpt>
      <trkpt lat="46.08302" lon="4.39972">
        <ele>618.6</ele>
        <time>2025-09-28T11:04:32Z</time>
      </trkpt>
      <trkpt lat="46.083" lon="4.3997">
        <ele>618.6</ele>
        <time>2025-09-28T11:04:33Z</time>
      </trkpt>
      <trkpt lat="46.08299" lon="4.39969">
        <ele>618.6</ele>
        <time>2025-09-28T11:04:34Z</time>
      </trkpt>
      <trkpt lat="46.08297" lon="4.39967">
        <ele>619</ele>
        <time>2025-09-28T11:04:35Z</time>
      </trkpt>
      <trkpt lat="46.08295" lon="4.39966">
        <ele>619</ele>
        <time>2025-09-28T11:04:36Z</time>
      </trkpt>
      <trkpt lat="46.08293" lon="4.39965">
        <ele>619</ele>
        <time>2025-09-28T11:04:37Z</time>
      </trkpt>
      <trkpt lat="46.08292" lon="4.39963">
        <ele>619</ele>
        <time>2025-09-28T11:04:38Z</time>
      </trkpt>
      <trkpt lat="46.0829" lon="4.39961">
        <ele>619.2</ele>
        <time>2025-09-28T11:04:39Z</time>
      </trkpt>
      <trkpt lat="46.08288" lon="4.3996">
        <ele>619.2</ele>
        <time>2025-09-28T11:04:40Z</time>
      </trkpt>
      <trkpt lat="46.08286" lon="4.39958">
        <ele>619.4</ele>
        <time>2025-09-28T11:04:41Z</time>
      </trkpt>
      <trkpt lat="46.08285" lon="4.39956">
        <ele>619.4</ele>
        <time>2025-09-28T11:04:42Z</time>
      </trkpt>
      <trkpt lat="46.08283" lon="4.39954">
        <ele>619.8</ele>
        <time>2025-09-28T11:04:43Z</time>
      </trkpt>
      <trkpt lat="46.08281" lon="4.39952">
        <ele>619.8</ele>
        <time>2025-09-28T11:04:44Z</time>
      </trkpt>
      <trkpt lat="46.0828" lon="4.3995">
        <ele>620</ele>
        <time>2025-09-28T11:04:45Z</time>
      </trkpt>
      <trkpt lat="46.08278" lon="4.39948">
        <ele>620</ele>
        <time>2025-09-28T11:04:46Z</time>
      </trkpt>
      <trkpt lat="46.08276" lon="4.39946">
        <ele>620.4</ele>
        <time>2025-09-28T11:04:47Z</time>
      </trkpt>
      <trkpt lat="46.08275" lon="4.39944">
        <ele>620.4</ele>
        <time>2025-09-28T11:04:48Z</time>
      </trkpt>
      <trkpt lat="46.08273" lon="4.39942">
        <ele>620.6</ele>
        <time>2025-09-28T11:04:49Z</time>
      </trkpt>
      <trkpt lat="46.08272" lon="4.3994">
        <ele>620.6</ele>
        <time>2025-09-28T11:04:50Z</time>
      </trkpt>
      <trkpt lat="46.08271" lon="4.39938">
        <ele>620.8</ele>
        <time>2025-09-28T11:04:51Z</time>
      </trkpt>
      <trkpt lat="46.08269" lon="4.39936">
        <ele>621</ele>
        <time>2025-09-28T11:04:52Z</time>
      </trkpt>
      <trkpt lat="46.08268" lon="4.39934">
        <ele>621</ele>
        <time>2025-09-28T11:04:53Z</time>
      </trkpt>
      <trkpt lat="46.08267" lon="4.39931">
        <ele>621.2</ele>
        <time>2025-09-28T11:04:54Z</time>
      </trkpt>
      <trkpt lat="46.08265" lon="4.39929">
        <ele>621.2</ele>
        <time>2025-09-28T11:04:55Z</time>
      </trkpt>
      <trkpt lat="46.08264" lon="4.39927">
        <ele>621.2</ele>
        <time>2025-09-28T11:04:56Z</time>
      </trkpt>
      <trkpt lat="46.08262" lon="4.39925">
        <ele>621.4</ele>
        <time>2025-09-28T11:04:57Z</time>
      </trkpt>
      <trkpt lat="46.08261" lon="4.39923">
        <ele>621.4</ele>
        <time>2025-09-28T11:04:58Z</time>
      </trkpt>
      <trkpt lat="46.0826" lon="4.3992">
        <ele>621.6</ele>
        <time>2025-09-28T11:04:59Z</time>
      </trkpt>
      <trkpt lat="46.08259" lon="4.39918">
        <ele>621.6</ele>
        <time>2025-09-28T11:05:00Z</time>
      </trkpt>
      <trkpt lat="46.08258" lon="4.39915">
        <ele>621.6</ele>
        <time>2025-09-28T11:05:01Z</time>
      </trkpt>
      <trkpt lat="46.08257" lon="4.39913">
        <ele>622.2</ele>
        <time>2025-09-28T11:05:02Z</time>
      </trkpt>
      <trkpt lat="46.08255" lon="4.39911">
        <ele>622.2</ele>
        <time>2025-09-28T11:05:03Z</time>
      </trkpt>
      <trkpt lat="46.08254" lon="4.39908">
        <ele>622.4</ele>
        <time>2025-09-28T11:05:04Z</time>
      </trkpt>
      <trkpt lat="46.08253" lon="4.39906">
        <ele>622.4</ele>
        <time>2025-09-28T11:05:05Z</time>
      </trkpt>
      <trkpt lat="46.08252" lon="4.39904">
        <ele>622.8</ele>
        <time>2025-09-28T11:05:06Z</time>
      </trkpt>
      <trkpt lat="46.0825" lon="4.39902">
        <ele>622.8</ele>
        <time>2025-09-28T11:05:07Z</time>
      </trkpt>
      <trkpt lat="46.08249" lon="4.399">
        <ele>623.2</ele>
        <time>2025-09-28T11:05:08Z</time>
      </trkpt>
      <trkpt lat="46.08248" lon="4.39898">
        <ele>623.2</ele>
        <time>2025-09-28T11:05:09Z</time>
      </trkpt>
      <trkpt lat="46.08247" lon="4.39896">
        <ele>623.4</ele>
        <time>2025-09-28T11:05:10Z</time>
      </trkpt>
      <trkpt lat="46.08245" lon="4.39893">
        <ele>623.4</ele>
        <time>2025-09-28T11:05:11Z</time>
      </trkpt>
      <trkpt lat="46.08244" lon="4.39891">
        <ele>623.4</ele>
        <time>2025-09-28T11:05:12Z</time>
      </trkpt>
      <trkpt lat="46.08243" lon="4.39889">
        <ele>623.6</ele>
        <time>2025-09-28T11:05:13Z</time>
      </trkpt>
      <trkpt lat="46.08241" lon="4.39887">
        <ele>624</ele>
        <time>2025-09-28T11:05:14Z</time>
      </trkpt>
      <trkpt lat="46.0824" lon="4.39886">
        <ele>624</ele>
        <time>2025-09-28T11:05:15Z</time>
      </trkpt>
      <trkpt lat="46.08238" lon="4.39884">
        <ele>624.4</ele>
        <time>2025-09-28T11:05:16Z</time>
      </trkpt>
      <trkpt lat="46.08236" lon="4.39883">
        <ele>624.4</ele>
        <time>2025-09-28T11:05:17Z</time>
      </trkpt>
      <trkpt lat="46.08235" lon="4.39881">
        <ele>624.8</ele>
        <time>2025-09-28T11:05:18Z</time>
      </trkpt>
      <trkpt lat="46.08233" lon="4.39879">
        <ele>624.8</ele>
        <time>2025-09-28T11:05:19Z</time>
      </trkpt>
      <trkpt lat="46.08232" lon="4.39877">
        <ele>625</ele>
        <time>2025-09-28T11:05:20Z</time>
      </trkpt>
      <trkpt lat="46.0823" lon="4.39875">
        <ele>625</ele>
        <time>2025-09-28T11:05:21Z</time>
      </trkpt>
      <trkpt lat="46.08229" lon="4.39874">
        <ele>625.2</ele>
        <time>2025-09-28T11:05:22Z</time>
      </trkpt>
      <trkpt lat="46.08228" lon="4.39871">
        <ele>625.2</ele>
        <time>2025-09-28T11:05:23Z</time>
      </trkpt>
      <trkpt lat="46.08226" lon="4.39869">
        <ele>625.6</ele>
        <time>2025-09-28T11:05:24Z</time>
      </trkpt>
      <trkpt lat="46.08225" lon="4.39867">
        <ele>625.6</ele>
        <time>2025-09-28T11:05:25Z</time>
      </trkpt>
      <trkpt lat="46.08224" lon="4.39865">
        <ele>626</ele>
        <time>2025-09-28T11:05:26Z</time>
      </trkpt>
      <trkpt lat="46.08222" lon="4.39863">
        <ele>626</ele>
        <time>2025-09-28T11:05:27Z</time>
      </trkpt>
      <trkpt lat="46.08221" lon="4.39862">
        <ele>626</ele>
        <time>2025-09-28T11:05:28Z</time>
      </trkpt>
      <trkpt lat="46.08219" lon="4.39861">
        <ele>626.4</ele>
        <time>2025-09-28T11:05:29Z</time>
      </trkpt>
      <trkpt lat="46.08217" lon="4.39859">
        <ele>626.6</ele>
        <time>2025-09-28T11:05:30Z</time>
      </trkpt>
      <trkpt lat="46.08216" lon="4.39858">
        <ele>626.6</ele>
        <time>2025-09-28T11:05:31Z</time>
      </trkpt>
      <trkpt lat="46.08214" lon="4.39857">
        <ele>626.8</ele>
        <time>2025-09-28T11:05:32Z</time>
      </trkpt>
      <trkpt lat="46.08213" lon="4.39856">
        <ele>626.8</ele>
        <time>2025-09-28T11:05:33Z</time>
      </trkpt>
      <trkpt lat="46.08211" lon="4.39855">
        <ele>627</ele>
        <time>2025-09-28T11:05:34Z</time>
      </trkpt>
      <trkpt lat="46.08209" lon="4.39853">
        <ele>627</ele>
        <time>2025-09-28T11:05:35Z</time>
      </trkpt>
      <trkpt lat="46.08207" lon="4.39852">
        <ele>627.4</ele>
        <time>2025-09-28T11:05:36Z</time>
      </trkpt>
      <trkpt lat="46.08205" lon="4.39851">
        <ele>627.4</ele>
        <time>2025-09-28T11:05:37Z</time>
      </trkpt>
      <trkpt lat="46.08203" lon="4.3985">
        <ele>627.4</ele>
        <time>2025-09-28T11:05:38Z</time>
      </trkpt>
      <trkpt lat="46.08201" lon="4.39849">
        <ele>627.6</ele>
        <time>2025-09-28T11:05:39Z</time>
      </trkpt>
      <trkpt lat="46.08199" lon="4.39848">
        <ele>627.6</ele>
        <time>2025-09-28T11:05:40Z</time>
      </trkpt>
      <trkpt lat="46.08198" lon="4.39846">
        <ele>627.6</ele>
        <time>2025-09-28T11:05:41Z</time>
      </trkpt>
      <trkpt lat="46.08196" lon="4.39844">
        <ele>627.8</ele>
        <time>2025-09-28T11:05:42Z</time>
      </trkpt>
      <trkpt lat="46.08194" lon="4.39843">
        <ele>628</ele>
        <time>2025-09-28T11:05:43Z</time>
      </trkpt>
      <trkpt lat="46.08192" lon="4.39842">
        <ele>628</ele>
        <time>2025-09-28T11:05:44Z</time>
      </trkpt>
      <trkpt lat="46.0819" lon="4.39841">
        <ele>628.4</ele>
        <time>2025-09-28T11:05:45Z</time>
      </trkpt>
      <trkpt lat="46.08189" lon="4.3984">
        <ele>628.4</ele>
        <time>2025-09-28T11:05:46Z</time>
      </trkpt>
      <trkpt lat="46.08187" lon="4.39839">
        <ele>628.4</ele>
        <time>2025-09-28T11:05:47Z</time>
      </trkpt>
      <trkpt lat="46.08186" lon="4.39837">
        <ele>628.8</ele>
        <time>2025-09-28T11:05:48Z</time>
      </trkpt>
      <trkpt lat="46.08184" lon="4.39836">
        <ele>628.8</ele>
        <time>2025-09-28T11:05:49Z</time>
      </trkpt>
      <trkpt lat="46.08182" lon="4.39834">
        <ele>628.8</ele>
        <time>2025-09-28T11:05:50Z</time>
      </trkpt>
      <trkpt lat="46.08181" lon="4.39833">
        <ele>628.8</ele>
        <time>2025-09-28T11:05:51Z</time>
      </trkpt>
      <trkpt lat="46.08179" lon="4.39832">
        <ele>628.8</ele>
        <time>2025-09-28T11:05:52Z</time>
      </trkpt>
      <trkpt lat="46.08177" lon="4.39831">
        <ele>629.2</ele>
        <time>2025-09-28T11:05:53Z</time>
      </trkpt>
      <trkpt lat="46.08176" lon="4.3983">
        <ele>629.2</ele>
        <time>2025-09-28T11:05:54Z</time>
      </trkpt>
      <trkpt lat="46.08174" lon="4.39829">
        <ele>629.4</ele>
        <time>2025-09-28T11:05:55Z</time>
      </trkpt>
      <trkpt lat="46.08172" lon="4.39827">
        <ele>629.4</ele>
        <time>2025-09-28T11:05:56Z</time>
      </trkpt>
      <trkpt lat="46.08171" lon="4.39826">
        <ele>629.8</ele>
        <time>2025-09-28T11:05:57Z</time>
      </trkpt>
      <trkpt lat="46.08169" lon="4.39825">
        <ele>629.8</ele>
        <time>2025-09-28T11:05:58Z</time>
      </trkpt>
      <trkpt lat="46.08168" lon="4.39823">
        <ele>630</ele>
        <time>2025-09-28T11:05:59Z</time>
      </trkpt>
      <trkpt lat="46.08166" lon="4.39822">
        <ele>630</ele>
        <time>2025-09-28T11:06:00Z</time>
      </trkpt>
      <trkpt lat="46.08164" lon="4.39821">
        <ele>630</ele>
        <time>2025-09-28T11:06:01Z</time>
      </trkpt>
      <trkpt lat="46.08162" lon="4.3982">
        <ele>630.2</ele>
        <time>2025-09-28T11:06:02Z</time>
      </trkpt>
      <trkpt lat="46.08161" lon="4.39819">
        <ele>630.2</ele>
        <time>2025-09-28T11:06:03Z</time>
      </trkpt>
      <trkpt lat="46.08159" lon="4.39818">
        <ele>630.6</ele>
        <time>2025-09-28T11:06:04Z</time>
      </trkpt>
      <trkpt lat="46.08157" lon="4.39817">
        <ele>630.6</ele>
        <time>2025-09-28T11:06:05Z</time>
      </trkpt>
      <trkpt lat="46.08155" lon="4.39815">
        <ele>630.8</ele>
        <time>2025-09-28T11:06:06Z</time>
      </trkpt>
      <trkpt lat="46.08153" lon="4.39814">
        <ele>630.8</ele>
        <time>2025-09-28T11:06:07Z</time>
      </trkpt>
      <trkpt lat="46.08151" lon="4.39812">
        <ele>630.8</ele>
        <time>2025-09-28T11:06:08Z</time>
      </trkpt>
      <trkpt lat="46.0815" lon="4.39811">
        <ele>631.2</ele>
        <time>2025-09-28T11:06:09Z</time>
      </trkpt>
      <trkpt lat="46.08148" lon="4.39809">
        <ele>631.2</ele>
        <time>2025-09-28T11:06:10Z</time>
      </trkpt>
      <trkpt lat="46.08146" lon="4.39808">
        <ele>631.2</ele>
        <time>2025-09-28T11:06:11Z</time>
      </trkpt>
      <trkpt lat="46.08144" lon="4.39807">
        <ele>631.4</ele>
        <time>2025-09-28T11:06:12Z</time>
      </trkpt>
      <trkpt lat="46.08143" lon="4.39806">
        <ele>631.6</ele>
        <time>2025-09-28T11:06:13Z</time>
      </trkpt>
      <trkpt lat="46.08141" lon="4.39804">
        <ele>632</ele>
        <time>2025-09-28T11:06:14Z</time>
      </trkpt>
      <trkpt lat="46.08139" lon="4.39802">
        <ele>632</ele>
        <time>2025-09-28T11:06:15Z</time>
      </trkpt>
      <trkpt lat="46.08137" lon="4.39801">
        <ele>632</ele>
        <time>2025-09-28T11:06:16Z</time>
      </trkpt>
      <trkpt lat="46.08136" lon="4.398">
        <ele>632.2</ele>
        <time>2025-09-28T11:06:17Z</time>
      </trkpt>
      <trkpt lat="46.08134" lon="4.39798">
        <ele>632.2</ele>
        <time>2025-09-28T11:06:18Z</time>
      </trkpt>
      <trkpt lat="46.08133" lon="4.39797">
        <ele>632.4</ele>
        <time>2025-09-28T11:06:19Z</time>
      </trkpt>
      <trkpt lat="46.08131" lon="4.39795">
        <ele>632.4</ele>
        <time>2025-09-28T11:06:20Z</time>
      </trkpt>
      <trkpt lat="46.08129" lon="4.39794">
        <ele>632.6</ele>
        <time>2025-09-28T11:06:21Z</time>
      </trkpt>
      <trkpt lat="46.08128" lon="4.39793">
        <ele>632.6</ele>
        <time>2025-09-28T11:06:22Z</time>
      </trkpt>
      <trkpt lat="46.08126" lon="4.39792">
        <ele>633</ele>
        <time>2025-09-28T11:06:23Z</time>
      </trkpt>
      <trkpt lat="46.08124" lon="4.39791">
        <ele>633</ele>
        <time>2025-09-28T11:06:24Z</time>
      </trkpt>
      <trkpt lat="46.08123" lon="4.3979">
        <ele>633</ele>
        <time>2025-09-28T11:06:25Z</time>
      </trkpt>
      <trkpt lat="46.08121" lon="4.39789">
        <ele>633.2</ele>
        <time>2025-09-28T11:06:26Z</time>
      </trkpt>
      <trkpt lat="46.0812" lon="4.39788">
        <ele>633.2</ele>
        <time>2025-09-28T11:06:27Z</time>
      </trkpt>
      <trkpt lat="46.08118" lon="4.39787">
        <ele>633.6</ele>
        <time>2025-09-28T11:06:28Z</time>
      </trkpt>
      <trkpt lat="46.08117" lon="4.39786">
        <ele>633.6</ele>
        <time>2025-09-28T11:06:29Z</time>
      </trkpt>
      <trkpt lat="46.08115" lon="4.39786">
        <ele>633.8</ele>
        <time>2025-09-28T11:06:30Z</time>
      </trkpt>
      <trkpt lat="46.08114" lon="4.39785">
        <ele>634</ele>
        <time>2025-09-28T11:06:31Z</time>
      </trkpt>
      <trkpt lat="46.08112" lon="4.39784">
        <ele>634</ele>
        <time>2025-09-28T11:06:32Z</time>
      </trkpt>
      <trkpt lat="46.0811" lon="4.39784">
        <ele>634.4</ele>
        <time>2025-09-28T11:06:33Z</time>
      </trkpt>
      <trkpt lat="46.08108" lon="4.39784">
        <ele>634.4</ele>
        <time>2025-09-28T11:06:34Z</time>
      </trkpt>
      <trkpt lat="46.08107" lon="4.39783">
        <ele>634.6</ele>
        <time>2025-09-28T11:06:35Z</time>
      </trkpt>
      <trkpt lat="46.08105" lon="4.39783">
        <ele>634.6</ele>
        <time>2025-09-28T11:06:36Z</time>
      </trkpt>
      <trkpt lat="46.08103" lon="4.39783">
        <ele>634.8</ele>
        <time>2025-09-28T11:06:37Z</time>
      </trkpt>
      <trkpt lat="46.08101" lon="4.39783">
        <ele>634.8</ele>
        <time>2025-09-28T11:06:38Z</time>
      </trkpt>
      <trkpt lat="46.08099" lon="4.39783">
        <ele>635</ele>
        <time>2025-09-28T11:06:39Z</time>
      </trkpt>
      <trkpt lat="46.08098" lon="4.39783">
        <ele>635</ele>
        <time>2025-09-28T11:06:40Z</time>
      </trkpt>
      <trkpt lat="46.08096" lon="4.39784">
        <ele>635</ele>
        <time>2025-09-28T11:06:41Z</time>
      </trkpt>
      <trkpt lat="46.08094" lon="4.39785">
        <ele>635</ele>
        <time>2025-09-28T11:06:42Z</time>
      </trkpt>
      <trkpt lat="46.08092" lon="4.39786">
        <ele>635.4</ele>
        <time>2025-09-28T11:06:43Z</time>
      </trkpt>
      <trkpt lat="46.0809" lon="4.39788">
        <ele>635.4</ele>
        <time>2025-09-28T11:06:44Z</time>
      </trkpt>
      <trkpt lat="46.08088" lon="4.39789">
        <ele>635.4</ele>
        <time>2025-09-28T11:06:45Z</time>
      </trkpt>
      <trkpt lat="46.08087" lon="4.39791">
        <ele>635.4</ele>
        <time>2025-09-28T11:06:46Z</time>
      </trkpt>
      <trkpt lat="46.08085" lon="4.39792">
        <ele>635.8</ele>
        <time>2025-09-28T11:06:47Z</time>
      </trkpt>
      <trkpt lat="46.08083" lon="4.39793">
        <ele>636</ele>
        <time>2025-09-28T11:06:48Z</time>
      </trkpt>
      <trkpt lat="46.08082" lon="4.39795">
        <ele>636</ele>
        <time>2025-09-28T11:06:49Z</time>
      </trkpt>
      <trkpt lat="46.0808" lon="4.39797">
        <ele>636.6</ele>
        <time>2025-09-28T11:06:50Z</time>
      </trkpt>
      <trkpt lat="46.08078" lon="4.39799">
        <ele>636.8</ele>
        <time>2025-09-28T11:06:51Z</time>
      </trkpt>
      <trkpt lat="46.08077" lon="4.39801">
        <ele>636.8</ele>
        <time>2025-09-28T11:06:52Z</time>
      </trkpt>
      <trkpt lat="46.08076" lon="4.39802">
        <ele>637</ele>
        <time>2025-09-28T11:06:53Z</time>
      </trkpt>
      <trkpt lat="46.08075" lon="4.39804">
        <ele>637</ele>
        <time>2025-09-28T11:06:54Z</time>
      </trkpt>
      <trkpt lat="46.08073" lon="4.39807">
        <ele>637</ele>
        <time>2025-09-28T11:06:55Z</time>
      </trkpt>
      <trkpt lat="46.08072" lon="4.39809">
        <ele>637.4</ele>
        <time>2025-09-28T11:06:56Z</time>
      </trkpt>
      <trkpt lat="46.08071" lon="4.39811">
        <ele>637.4</ele>
        <time>2025-09-28T11:06:57Z</time>
      </trkpt>
      <trkpt lat="46.0807" lon="4.39813">
        <ele>637.6</ele>
        <time>2025-09-28T11:06:58Z</time>
      </trkpt>
      <trkpt lat="46.08069" lon="4.39816">
        <ele>637.6</ele>
        <time>2025-09-28T11:06:59Z</time>
      </trkpt>
      <trkpt lat="46.08068" lon="4.39819">
        <ele>637.6</ele>
        <time>2025-09-28T11:07:00Z</time>
      </trkpt>
      <trkpt lat="46.08068" lon="4.39821">
        <ele>638</ele>
        <time>2025-09-28T11:07:01Z</time>
      </trkpt>
      <trkpt lat="46.08067" lon="4.39824">
        <ele>638</ele>
        <time>2025-09-28T11:07:02Z</time>
      </trkpt>
      <trkpt lat="46.08066" lon="4.39826">
        <ele>638.2</ele>
        <time>2025-09-28T11:07:03Z</time>
      </trkpt>
      <trkpt lat="46.08065" lon="4.39829">
        <ele>638.2</ele>
        <time>2025-09-28T11:07:04Z</time>
      </trkpt>
      <trkpt lat="46.08064" lon="4.39832">
        <ele>638.4</ele>
        <time>2025-09-28T11:07:05Z</time>
      </trkpt>
      <trkpt lat="46.08064" lon="4.39835">
        <ele>638.4</ele>
        <time>2025-09-28T11:07:06Z</time>
      </trkpt>
      <trkpt lat="46.08064" lon="4.39838">
        <ele>638.8</ele>
        <time>2025-09-28T11:07:07Z</time>
      </trkpt>
      <trkpt lat="46.08063" lon="4.39841">
        <ele>638.8</ele>
        <time>2025-09-28T11:07:08Z</time>
      </trkpt>
      <trkpt lat="46.08063" lon="4.39843">
        <ele>639</ele>
        <time>2025-09-28T11:07:09Z</time>
      </trkpt>
      <trkpt lat="46.08062" lon="4.39846">
        <ele>639</ele>
        <time>2025-09-28T11:07:10Z</time>
      </trkpt>
      <trkpt lat="46.08062" lon="4.39849">
        <ele>639.2</ele>
        <time>2025-09-28T11:07:11Z</time>
      </trkpt>
      <trkpt lat="46.08061" lon="4.39852">
        <ele>639.2</ele>
        <time>2025-09-28T11:07:12Z</time>
      </trkpt>
      <trkpt lat="46.08061" lon="4.39854">
        <ele>639.4</ele>
        <time>2025-09-28T11:07:13Z</time>
      </trkpt>
      <trkpt lat="46.0806" lon="4.39857">
        <ele>639.4</ele>
        <time>2025-09-28T11:07:14Z</time>
      </trkpt>
      <trkpt lat="46.08059" lon="4.3986">
        <ele>639.4</ele>
        <time>2025-09-28T11:07:15Z</time>
      </trkpt>
      <trkpt lat="46.08058" lon="4.39862">
        <ele>639.4</ele>
        <time>2025-09-28T11:07:16Z</time>
      </trkpt>
      <trkpt lat="46.08058" lon="4.39865">
        <ele>639.8</ele>
        <time>2025-09-28T11:07:17Z</time>
      </trkpt>
      <trkpt lat="46.08057" lon="4.39868">
        <ele>639.8</ele>
        <time>2025-09-28T11:07:18Z</time>
      </trkpt>
      <trkpt lat="46.08057" lon="4.3987">
        <ele>639.8</ele>
        <time>2025-09-28T11:07:19Z</time>
      </trkpt>
      <trkpt lat="46.08057" lon="4.39873">
        <ele>639.8</ele>
        <time>2025-09-28T11:07:20Z</time>
      </trkpt>
      <trkpt lat="46.08057" lon="4.39876">
        <ele>640</ele>
        <time>2025-09-28T11:07:21Z</time>
      </trkpt>
      <trkpt lat="46.08056" lon="4.39878">
        <ele>640</ele>
        <time>2025-09-28T11:07:22Z</time>
      </trkpt>
      <trkpt lat="46.08056" lon="4.39881">
        <ele>640.4</ele>
        <time>2025-09-28T11:07:23Z</time>
      </trkpt>
      <trkpt lat="46.08055" lon="4.39884">
        <ele>640.4</ele>
        <time>2025-09-28T11:07:24Z</time>
      </trkpt>
      <trkpt lat="46.08055" lon="4.39886">
        <ele>640.6</ele>
        <time>2025-09-28T11:07:25Z</time>
      </trkpt>
      <trkpt lat="46.08054" lon="4.39889">
        <ele>640.6</ele>
        <time>2025-09-28T11:07:26Z</time>
      </trkpt>
      <trkpt lat="46.08053" lon="4.39891">
        <ele>641</ele>
        <time>2025-09-28T11:07:27Z</time>
      </trkpt>
      <trkpt lat="46.08053" lon="4.39894">
        <ele>641</ele>
        <time>2025-09-28T11:07:28Z</time>
      </trkpt>
      <trkpt lat="46.08052" lon="4.39897">
        <ele>641.2</ele>
        <time>2025-09-28T11:07:29Z</time>
      </trkpt>
      <trkpt lat="46.08052" lon="4.39899">
        <ele>641.2</ele>
        <time>2025-09-28T11:07:30Z</time>
      </trkpt>
      <trkpt lat="46.08051" lon="4.39902">
        <ele>641.4</ele>
        <time>2025-09-28T11:07:31Z</time>
      </trkpt>
      <trkpt lat="46.08051" lon="4.39905">
        <ele>641.4</ele>
        <time>2025-09-28T11:07:32Z</time>
      </trkpt>
      <trkpt lat="46.0805" lon="4.39908">
        <ele>641.4</ele>
        <time>2025-09-28T11:07:33Z</time>
      </trkpt>
      <trkpt lat="46.08049" lon="4.3991">
        <ele>641.8</ele>
        <time>2025-09-28T11:07:34Z</time>
      </trkpt>
      <trkpt lat="46.08049" lon="4.39913">
        <ele>641.8</ele>
        <time>2025-09-28T11:07:35Z</time>
      </trkpt>
      <trkpt lat="46.08048" lon="4.39916">
        <ele>641.8</ele>
        <time>2025-09-28T11:07:36Z</time>
      </trkpt>
      <trkpt lat="46.08048" lon="4.39919">
        <ele>642</ele>
        <time>2025-09-28T11:07:37Z</time>
      </trkpt>
      <trkpt lat="46.08048" lon="4.39921">
        <ele>642</ele>
        <time>2025-09-28T11:07:38Z</time>
      </trkpt>
      <trkpt lat="46.08047" lon="4.39924">
        <ele>642.4</ele>
        <time>2025-09-28T11:07:39Z</time>
      </trkpt>
      <trkpt lat="46.08047" lon="4.39926">
        <ele>642.4</ele>
        <time>2025-09-28T11:07:40Z</time>
      </trkpt>
      <trkpt lat="46.08046" lon="4.39929">
        <ele>642.6</ele>
        <time>2025-09-28T11:07:41Z</time>
      </trkpt>
      <trkpt lat="46.08046" lon="4.39932">
        <ele>642.6</ele>
        <time>2025-09-28T11:07:42Z</time>
      </trkpt>
      <trkpt lat="46.08045" lon="4.39935">
        <ele>643</ele>
        <time>2025-09-28T11:07:43Z</time>
      </trkpt>
      <trkpt lat="46.08045" lon="4.39937">
        <ele>643</ele>
        <time>2025-09-28T11:07:44Z</time>
      </trkpt>
      <trkpt lat="46.08044" lon="4.3994">
        <ele>643.4</ele>
        <time>2025-09-28T11:07:45Z</time>
      </trkpt>
      <trkpt lat="46.08044" lon="4.39943">
        <ele>643.4</ele>
        <time>2025-09-28T11:07:46Z</time>
      </trkpt>
      <trkpt lat="46.08043" lon="4.39946">
        <ele>643.6</ele>
        <time>2025-09-28T11:07:47Z</time>
      </trkpt>
      <trkpt lat="46.08043" lon="4.39948">
        <ele>643.6</ele>
        <time>2025-09-28T11:07:48Z</time>
      </trkpt>
      <trkpt lat="46.08042" lon="4.39951">
        <ele>643.6</ele>
        <time>2025-09-28T11:07:49Z</time>
      </trkpt>
      <trkpt lat="46.08042" lon="4.39954">
        <ele>643.8</ele>
        <time>2025-09-28T11:07:50Z</time>
      </trkpt>
      <trkpt lat="46.08041" lon="4.39956">
        <ele>643.8</ele>
        <time>2025-09-28T11:07:51Z</time>
      </trkpt>
      <trkpt lat="46.0804" lon="4.39959">
        <ele>643.8</ele>
        <time>2025-09-28T11:07:52Z</time>
      </trkpt>
      <trkpt lat="46.0804" lon="4.39962">
        <ele>644</ele>
        <time>2025-09-28T11:07:53Z</time>
      </trkpt>
      <trkpt lat="46.0804" lon="4.39965">
        <ele>644</ele>
        <time>2025-09-28T11:07:54Z</time>
      </trkpt>
      <trkpt lat="46.08039" lon="4.39968">
        <ele>644</ele>
        <time>2025-09-28T11:07:55Z</time>
      </trkpt>
      <trkpt lat="46.08039" lon="4.39971">
        <ele>644.4</ele>
        <time>2025-09-28T11:07:56Z</time>
      </trkpt>
      <trkpt lat="46.08038" lon="4.39974">
        <ele>644.4</ele>
        <time>2025-09-28T11:07:57Z</time>
      </trkpt>
      <trkpt lat="46.08037" lon="4.39977">
        <ele>644.4</ele>
        <time>2025-09-28T11:07:58Z</time>
      </trkpt>
      <trkpt lat="46.08037" lon="4.3998">
        <ele>644.4</ele>
        <time>2025-09-28T11:07:59Z</time>
      </trkpt>
      <trkpt lat="46.08036" lon="4.39983">
        <ele>644.4</ele>
        <time>2025-09-28T11:08:00Z</time>
      </trkpt>
      <trkpt lat="46.08035" lon="4.39986">
        <ele>644.4</ele>
        <time>2025-09-28T11:08:01Z</time>
      </trkpt>
      <trkpt lat="46.08035" lon="4.39989">
        <ele>644.4</ele>
        <time>2025-09-28T11:08:02Z</time>
      </trkpt>
      <trkpt lat="46.08034" lon="4.39992">
        <ele>644.6</ele>
        <time>2025-09-28T11:08:03Z</time>
      </trkpt>
      <trkpt lat="46.08034" lon="4.39995">
        <ele>644.6</ele>
        <time>2025-09-28T11:08:04Z</time>
      </trkpt>
      <trkpt lat="46.08033" lon="4.39998">
        <ele>644.6</ele>
        <time>2025-09-28T11:08:05Z</time>
      </trkpt>
      <trkpt lat="46.08032" lon="4.40001">
        <ele>645</ele>
        <time>2025-09-28T11:08:06Z</time>
      </trkpt>
      <trkpt lat="46.08032" lon="4.40003">
        <ele>645.2</ele>
        <time>2025-09-28T11:08:07Z</time>
      </trkpt>
      <trkpt lat="46.08031" lon="4.40006">
        <ele>645.2</ele>
        <time>2025-09-28T11:08:08Z</time>
      </trkpt>
      <trkpt lat="46.0803" lon="4.40009">
        <ele>645.6</ele>
        <time>2025-09-28T11:08:09Z</time>
      </trkpt>
      <trkpt lat="46.0803" lon="4.40012">
        <ele>645.6</ele>
        <time>2025-09-28T11:08:10Z</time>
      </trkpt>
      <trkpt lat="46.08029" lon="4.40015">
        <ele>645.8</ele>
        <time>2025-09-28T11:08:11Z</time>
      </trkpt>
      <trkpt lat="46.08029" lon="4.40018">
        <ele>645.8</ele>
        <time>2025-09-28T11:08:12Z</time>
      </trkpt>
      <trkpt lat="46.08028" lon="4.40021">
        <ele>645.8</ele>
        <time>2025-09-28T11:08:13Z</time>
      </trkpt>
      <trkpt lat="46.08027" lon="4.40024">
        <ele>646</ele>
        <time>2025-09-28T11:08:14Z</time>
      </trkpt>
      <trkpt lat="46.08026" lon="4.40027">
        <ele>646</ele>
        <time>2025-09-28T11:08:15Z</time>
      </trkpt>
      <trkpt lat="46.08026" lon="4.4003">
        <ele>646</ele>
        <time>2025-09-28T11:08:16Z</time>
      </trkpt>
      <trkpt lat="46.08025" lon="4.40033">
        <ele>646</ele>
        <time>2025-09-28T11:08:17Z</time>
      </trkpt>
      <trkpt lat="46.08024" lon="4.40035">
        <ele>646</ele>
        <time>2025-09-28T11:08:18Z</time>
      </trkpt>
      <trkpt lat="46.08023" lon="4.40039">
        <ele>646</ele>
        <time>2025-09-28T11:08:19Z</time>
      </trkpt>
      <trkpt lat="46.08022" lon="4.40042">
        <ele>646</ele>
        <time>2025-09-28T11:08:20Z</time>
      </trkpt>
      <trkpt lat="46.08021" lon="4.40045">
        <ele>646</ele>
        <time>2025-09-28T11:08:21Z</time>
      </trkpt>
      <trkpt lat="46.0802" lon="4.40048">
        <ele>646</ele>
        <time>2025-09-28T11:08:22Z</time>
      </trkpt>
      <trkpt lat="46.08019" lon="4.40051">
        <ele>646.4</ele>
        <time>2025-09-28T11:08:23Z</time>
      </trkpt>
      <trkpt lat="46.08018" lon="4.40053">
        <ele>646.4</ele>
        <time>2025-09-28T11:08:24Z</time>
      </trkpt>
      <trkpt lat="46.08017" lon="4.40056">
        <ele>646.4</ele>
        <time>2025-09-28T11:08:25Z</time>
      </trkpt>
      <trkpt lat="46.08016" lon="4.40059">
        <ele>646.4</ele>
        <time>2025-09-28T11:08:26Z</time>
      </trkpt>
      <trkpt lat="46.08016" lon="4.40062">
        <ele>646.4</ele>
        <time>2025-09-28T11:08:27Z</time>
      </trkpt>
      <trkpt lat="46.08015" lon="4.40066">
        <ele>646.4</ele>
        <time>2025-09-28T11:08:28Z</time>
      </trkpt>
      <trkpt lat="46.08014" lon="4.40068">
        <ele>646.4</ele>
        <time>2025-09-28T11:08:29Z</time>
      </trkpt>
      <trkpt lat="46.08013" lon="4.40072">
        <ele>646.4</ele>
        <time>2025-09-28T11:08:30Z</time>
      </trkpt>
      <trkpt lat="46.08012" lon="4.40074">
        <ele>646.4</ele>
        <time>2025-09-28T11:08:31Z</time>
      </trkpt>
      <trkpt lat="46.08011" lon="4.40076">
        <ele>646.4</ele>
        <time>2025-09-28T11:08:32Z</time>
      </trkpt>
      <trkpt lat="46.08011" lon="4.40078">
        <ele>646.4</ele>
        <time>2025-09-28T11:08:33Z</time>
      </trkpt>
      <trkpt lat="46.0801" lon="4.4008">
        <ele>646.6</ele>
        <time>2025-09-28T11:08:34Z</time>
      </trkpt>
      <trkpt lat="46.0801" lon="4.40081">
        <ele>646.6</ele>
        <time>2025-09-28T11:08:35Z</time>
      </trkpt>
      <trkpt lat="46.08009" lon="4.40083">
        <ele>646.8</ele>
        <time>2025-09-28T11:08:36Z</time>
      </trkpt>
      <trkpt lat="46.08008" lon="4.40085">
        <ele>646.8</ele>
        <time>2025-09-28T11:08:37Z</time>
      </trkpt>
      <trkpt lat="46.08007" lon="4.40086">
        <ele>646.8</ele>
        <time>2025-09-28T11:08:38Z</time>
      </trkpt>
      <trkpt lat="46.08007" lon="4.40085">
        <ele>646.8</ele>
        <time>2025-09-28T11:08:39Z</time>
      </trkpt>
      <trkpt lat="46.08007" lon="4.40085">
        <ele>646.8</ele>
        <time>2025-09-28T11:08:40Z</time>
      </trkpt>
      <trkpt lat="46.08007" lon="4.40085">
        <ele>646.8</ele>
        <time>2025-09-28T11:08:41Z</time>
      </trkpt>
      <trkpt lat="46.08006" lon="4.40087">
        <ele>646.8</ele>
        <time>2025-09-28T11:09:07Z</time>
      </trkpt>
      <trkpt lat="46.08005" lon="4.40088">
        <ele>646.8</ele>
        <time>2025-09-28T11:09:08Z</time>
      </trkpt>
      <trkpt lat="46.08005" lon="4.4009">
        <ele>646.8</ele>
        <time>2025-09-28T11:09:09Z</time>
      </trkpt>
      <trkpt lat="46.08004" lon="4.40093">
        <ele>646.8</ele>
        <time>2025-09-28T11:09:10Z</time>
      </trkpt>
      <trkpt lat="46.08003" lon="4.40096">
        <ele>646.8</ele>
        <time>2025-09-28T11:09:11Z</time>
      </trkpt>
      <trkpt lat="46.08002" lon="4.401">
        <ele>646.8</ele>
        <time>2025-09-28T11:09:12Z</time>
      </trkpt>
      <trkpt lat="46.08001" lon="4.40103">
        <ele>646.8</ele>
        <time>2025-09-28T11:09:13Z</time>
      </trkpt>
      <trkpt lat="46.07999" lon="4.40107">
        <ele>646.8</ele>
        <time>2025-09-28T11:09:14Z</time>
      </trkpt>
      <trkpt lat="46.07998" lon="4.4011">
        <ele>646.8</ele>
        <time>2025-09-28T11:09:15Z</time>
      </trkpt>
      <trkpt lat="46.07997" lon="4.40114">
        <ele>646.8</ele>
        <time>2025-09-28T11:09:16Z</time>
      </trkpt>
      <trkpt lat="46.07995" lon="4.40116">
        <ele>647</ele>
        <time>2025-09-28T11:09:17Z</time>
      </trkpt>
      <trkpt lat="46.07994" lon="4.40119">
        <ele>647</ele>
        <time>2025-09-28T11:09:18Z</time>
      </trkpt>
      <trkpt lat="46.07992" lon="4.40122">
        <ele>647</ele>
        <time>2025-09-28T11:09:19Z</time>
      </trkpt>
      <trkpt lat="46.07991" lon="4.40125">
        <ele>647</ele>
        <time>2025-09-28T11:09:20Z</time>
      </trkpt>
      <trkpt lat="46.0799" lon="4.40129">
        <ele>647</ele>
        <time>2025-09-28T11:09:21Z</time>
      </trkpt>
      <trkpt lat="46.07989" lon="4.40132">
        <ele>647.4</ele>
        <time>2025-09-28T11:09:22Z</time>
      </trkpt>
      <trkpt lat="46.07987" lon="4.40135">
        <ele>647.4</ele>
        <time>2025-09-28T11:09:23Z</time>
      </trkpt>
      <trkpt lat="46.07986" lon="4.40138">
        <ele>647.6</ele>
        <time>2025-09-28T11:09:24Z</time>
      </trkpt>
      <trkpt lat="46.07985" lon="4.40141">
        <ele>647.6</ele>
        <time>2025-09-28T11:09:25Z</time>
      </trkpt>
      <trkpt lat="46.07983" lon="4.40144">
        <ele>647.6</ele>
        <time>2025-09-28T11:09:26Z</time>
      </trkpt>
      <trkpt lat="46.07982" lon="4.40147">
        <ele>647.6</ele>
        <time>2025-09-28T11:09:27Z</time>
      </trkpt>
      <trkpt lat="46.07981" lon="4.4015">
        <ele>647.6</ele>
        <time>2025-09-28T11:09:28Z</time>
      </trkpt>
      <trkpt lat="46.0798" lon="4.40153">
        <ele>648</ele>
        <time>2025-09-28T11:09:29Z</time>
      </trkpt>
      <trkpt lat="46.07978" lon="4.40157">
        <ele>648</ele>
        <time>2025-09-28T11:09:30Z</time>
      </trkpt>
      <trkpt lat="46.07977" lon="4.4016">
        <ele>648</ele>
        <time>2025-09-28T11:09:31Z</time>
      </trkpt>
      <trkpt lat="46.07975" lon="4.40163">
        <ele>648</ele>
        <time>2025-09-28T11:09:32Z</time>
      </trkpt>
      <trkpt lat="46.07973" lon="4.40167">
        <ele>648</ele>
        <time>2025-09-28T11:09:33Z</time>
      </trkpt>
      <trkpt lat="46.07971" lon="4.4017">
        <ele>648</ele>
        <time>2025-09-28T11:09:34Z</time>
      </trkpt>
      <trkpt lat="46.0797" lon="4.40173">
        <ele>648</ele>
        <time>2025-09-28T11:09:35Z</time>
      </trkpt>
      <trkpt lat="46.07968" lon="4.40177">
        <ele>648.2</ele>
        <time>2025-09-28T11:09:36Z</time>
      </trkpt>
      <trkpt lat="46.07967" lon="4.4018">
        <ele>648.4</ele>
        <time>2025-09-28T11:09:37Z</time>
      </trkpt>
      <trkpt lat="46.07965" lon="4.40183">
        <ele>648.6</ele>
        <time>2025-09-28T11:09:38Z</time>
      </trkpt>
      <trkpt lat="46.07964" lon="4.40186">
        <ele>649</ele>
        <time>2025-09-28T11:09:39Z</time>
      </trkpt>
      <trkpt lat="46.07962" lon="4.40189">
        <ele>649.2</ele>
        <time>2025-09-28T11:09:40Z</time>
      </trkpt>
      <trkpt lat="46.07961" lon="4.40192">
        <ele>649.2</ele>
        <time>2025-09-28T11:09:41Z</time>
      </trkpt>
      <trkpt lat="46.0796" lon="4.40195">
        <ele>649.2</ele>
        <time>2025-09-28T11:09:42Z</time>
      </trkpt>
      <trkpt lat="46.07959" lon="4.40198">
        <ele>649.4</ele>
        <time>2025-09-28T11:09:43Z</time>
      </trkpt>
      <trkpt lat="46.07957" lon="4.40201">
        <ele>649.4</ele>
        <time>2025-09-28T11:09:44Z</time>
      </trkpt>
      <trkpt lat="46.07956" lon="4.40204">
        <ele>649.8</ele>
        <time>2025-09-28T11:09:45Z</time>
      </trkpt>
      <trkpt lat="46.07954" lon="4.40207">
        <ele>649.8</ele>
        <time>2025-09-28T11:09:46Z</time>
      </trkpt>
      <trkpt lat="46.07952" lon="4.4021">
        <ele>650.2</ele>
        <time>2025-09-28T11:09:47Z</time>
      </trkpt>
      <trkpt lat="46.07951" lon="4.40212">
        <ele>650.2</ele>
        <time>2025-09-28T11:09:48Z</time>
      </trkpt>
      <trkpt lat="46.07949" lon="4.40215">
        <ele>650.6</ele>
        <time>2025-09-28T11:09:49Z</time>
      </trkpt>
      <trkpt lat="46.07947" lon="4.40218">
        <ele>651</ele>
        <time>2025-09-28T11:09:50Z</time>
      </trkpt>
      <trkpt lat="46.07946" lon="4.40221">
        <ele>651</ele>
        <time>2025-09-28T11:09:51Z</time>
      </trkpt>
      <trkpt lat="46.07944" lon="4.40224">
        <ele>651.2</ele>
        <time>2025-09-28T11:09:52Z</time>
      </trkpt>
      <trkpt lat="46.07943" lon="4.40227">
        <ele>651.2</ele>
        <time>2025-09-28T11:09:53Z</time>
      </trkpt>
      <trkpt lat="46.07941" lon="4.40229">
        <ele>651.2</ele>
        <time>2025-09-28T11:09:54Z</time>
      </trkpt>
      <trkpt lat="46.07939" lon="4.40232">
        <ele>651.8</ele>
        <time>2025-09-28T11:09:55Z</time>
      </trkpt>
      <trkpt lat="46.07937" lon="4.40234">
        <ele>651.8</ele>
        <time>2025-09-28T11:09:56Z</time>
      </trkpt>
      <trkpt lat="46.07936" lon="4.40237">
        <ele>652</ele>
        <time>2025-09-28T11:09:57Z</time>
      </trkpt>
      <trkpt lat="46.07934" lon="4.4024">
        <ele>652</ele>
        <time>2025-09-28T11:09:58Z</time>
      </trkpt>
      <trkpt lat="46.07933" lon="4.40243">
        <ele>652.2</ele>
        <time>2025-09-28T11:09:59Z</time>
      </trkpt>
      <trkpt lat="46.07931" lon="4.40245">
        <ele>652.2</ele>
        <time>2025-09-28T11:10:00Z</time>
      </trkpt>
      <trkpt lat="46.0793" lon="4.40248">
        <ele>652.2</ele>
        <time>2025-09-28T11:10:01Z</time>
      </trkpt>
      <trkpt lat="46.07928" lon="4.40251">
        <ele>652.6</ele>
        <time>2025-09-28T11:10:02Z</time>
      </trkpt>
      <trkpt lat="46.07926" lon="4.40253">
        <ele>652.6</ele>
        <time>2025-09-28T11:10:03Z</time>
      </trkpt>
      <trkpt lat="46.07925" lon="4.40255">
        <ele>652.8</ele>
        <time>2025-09-28T11:10:04Z</time>
      </trkpt>
      <trkpt lat="46.07923" lon="4.40258">
        <ele>653</ele>
        <time>2025-09-28T11:10:05Z</time>
      </trkpt>
      <trkpt lat="46.07922" lon="4.4026">
        <ele>653</ele>
        <time>2025-09-28T11:10:06Z</time>
      </trkpt>
      <trkpt lat="46.0792" lon="4.40263">
        <ele>653.4</ele>
        <time>2025-09-28T11:10:07Z</time>
      </trkpt>
      <trkpt lat="46.07919" lon="4.40265">
        <ele>653.4</ele>
        <time>2025-09-28T11:10:08Z</time>
      </trkpt>
      <trkpt lat="46.07918" lon="4.40267">
        <ele>653.6</ele>
        <time>2025-09-28T11:10:09Z</time>
      </trkpt>
      <trkpt lat="46.07916" lon="4.4027">
        <ele>653.6</ele>
        <time>2025-09-28T11:10:10Z</time>
      </trkpt>
      <trkpt lat="46.07915" lon="4.40272">
        <ele>653.8</ele>
        <time>2025-09-28T11:10:11Z</time>
      </trkpt>
      <trkpt lat="46.07914" lon="4.40274">
        <ele>653.8</ele>
        <time>2025-09-28T11:10:12Z</time>
      </trkpt>
      <trkpt lat="46.07913" lon="4.40277">
        <ele>654.2</ele>
        <time>2025-09-28T11:10:13Z</time>
      </trkpt>
      <trkpt lat="46.07912" lon="4.40279">
        <ele>654.2</ele>
        <time>2025-09-28T11:10:14Z</time>
      </trkpt>
      <trkpt lat="46.07911" lon="4.40282">
        <ele>654.2</ele>
        <time>2025-09-28T11:10:15Z</time>
      </trkpt>
      <trkpt lat="46.0791" lon="4.40284">
        <ele>654.6</ele>
        <time>2025-09-28T11:10:16Z</time>
      </trkpt>
      <trkpt lat="46.07909" lon="4.40287">
        <ele>654.8</ele>
        <time>2025-09-28T11:10:17Z</time>
      </trkpt>
      <trkpt lat="46.07908" lon="4.4029">
        <ele>654.8</ele>
        <time>2025-09-28T11:10:18Z</time>
      </trkpt>
      <trkpt lat="46.07907" lon="4.40293">
        <ele>654.8</ele>
        <time>2025-09-28T11:10:19Z</time>
      </trkpt>
      <trkpt lat="46.07906" lon="4.40296">
        <ele>655.2</ele>
        <time>2025-09-28T11:10:20Z</time>
      </trkpt>
      <trkpt lat="46.07906" lon="4.40299">
        <ele>655.2</ele>
        <time>2025-09-28T11:10:21Z</time>
      </trkpt>
      <trkpt lat="46.07906" lon="4.40303">
        <ele>655.2</ele>
        <time>2025-09-28T11:10:22Z</time>
      </trkpt>
      <trkpt lat="46.07906" lon="4.40307">
        <ele>655.2</ele>
        <time>2025-09-28T11:10:23Z</time>
      </trkpt>
      <trkpt lat="46.07905" lon="4.40311">
        <ele>655.4</ele>
        <time>2025-09-28T11:10:24Z</time>
      </trkpt>
      <trkpt lat="46.07905" lon="4.40314">
        <ele>655.4</ele>
        <time>2025-09-28T11:10:25Z</time>
      </trkpt>
      <trkpt lat="46.07905" lon="4.40318">
        <ele>655.4</ele>
        <time>2025-09-28T11:10:26Z</time>
      </trkpt>
      <trkpt lat="46.07905" lon="4.40323">
        <ele>655.4</ele>
        <time>2025-09-28T11:10:27Z</time>
      </trkpt>
      <trkpt lat="46.07906" lon="4.40327">
        <ele>655.4</ele>
        <time>2025-09-28T11:10:28Z</time>
      </trkpt>
      <trkpt lat="46.07906" lon="4.4033">
        <ele>655.4</ele>
        <time>2025-09-28T11:10:29Z</time>
      </trkpt>
      <trkpt lat="46.07907" lon="4.40334">
        <ele>655.4</ele>
        <time>2025-09-28T11:10:30Z</time>
      </trkpt>
      <trkpt lat="46.07908" lon="4.40339">
        <ele>655.4</ele>
        <time>2025-09-28T11:10:31Z</time>
      </trkpt>
      <trkpt lat="46.07909" lon="4.40343">
        <ele>655.4</ele>
        <time>2025-09-28T11:10:32Z</time>
      </trkpt>
      <trkpt lat="46.07911" lon="4.40347">
        <ele>655.4</ele>
        <time>2025-09-28T11:10:33Z</time>
      </trkpt>
      <trkpt lat="46.07912" lon="4.40352">
        <ele>655</ele>
        <time>2025-09-28T11:10:34Z</time>
      </trkpt>
      <trkpt lat="46.07914" lon="4.40357">
        <ele>655</ele>
        <time>2025-09-28T11:10:35Z</time>
      </trkpt>
      <trkpt lat="46.07916" lon="4.40361">
        <ele>655.4</ele>
        <time>2025-09-28T11:10:36Z</time>
      </trkpt>
      <trkpt lat="46.07918" lon="4.40365">
        <ele>655.4</ele>
        <time>2025-09-28T11:10:37Z</time>
      </trkpt>
      <trkpt lat="46.0792" lon="4.40369">
        <ele>655.4</ele>
        <time>2025-09-28T11:10:38Z</time>
      </trkpt>
      <trkpt lat="46.07922" lon="4.40373">
        <ele>655</ele>
        <time>2025-09-28T11:10:39Z</time>
      </trkpt>
      <trkpt lat="46.07924" lon="4.40377">
        <ele>654.8</ele>
        <time>2025-09-28T11:10:40Z</time>
      </trkpt>
      <trkpt lat="46.07925" lon="4.40379">
        <ele>654.8</ele>
        <time>2025-09-28T11:10:41Z</time>
      </trkpt>
      <trkpt lat="46.07927" lon="4.40381">
        <ele>654.8</ele>
        <time>2025-09-28T11:10:42Z</time>
      </trkpt>
      <trkpt lat="46.07929" lon="4.40383">
        <ele>654.8</ele>
        <time>2025-09-28T11:10:43Z</time>
      </trkpt>
      <trkpt lat="46.07931" lon="4.40385">
        <ele>654.6</ele>
        <time>2025-09-28T11:10:44Z</time>
      </trkpt>
      <trkpt lat="46.07933" lon="4.40387">
        <ele>654.6</ele>
        <time>2025-09-28T11:10:45Z</time>
      </trkpt>
      <trkpt lat="46.07935" lon="4.40389">
        <ele>654.4</ele>
        <time>2025-09-28T11:10:46Z</time>
      </trkpt>
      <trkpt lat="46.07936" lon="4.40392">
        <ele>654.4</ele>
        <time>2025-09-28T11:10:47Z</time>
      </trkpt>
      <trkpt lat="46.07939" lon="4.40394">
        <ele>654.2</ele>
        <time>2025-09-28T11:10:48Z</time>
      </trkpt>
      <trkpt lat="46.07942" lon="4.40396">
        <ele>654.2</ele>
        <time>2025-09-28T11:10:49Z</time>
      </trkpt>
      <trkpt lat="46.07945" lon="4.40398">
        <ele>654.2</ele>
        <time>2025-09-28T11:10:50Z</time>
      </trkpt>
      <trkpt lat="46.07948" lon="4.404">
        <ele>653.8</ele>
        <time>2025-09-28T11:10:51Z</time>
      </trkpt>
      <trkpt lat="46.07951" lon="4.40402">
        <ele>653.8</ele>
        <time>2025-09-28T11:10:52Z</time>
      </trkpt>
      <trkpt lat="46.07954" lon="4.40405">
        <ele>653.8</ele>
        <time>2025-09-28T11:10:53Z</time>
      </trkpt>
      <trkpt lat="46.07957" lon="4.40409">
        <ele>653.4</ele>
        <time>2025-09-28T11:10:54Z</time>
      </trkpt>
      <trkpt lat="46.0796" lon="4.40412">
        <ele>653.4</ele>
        <time>2025-09-28T11:10:55Z</time>
      </trkpt>
      <trkpt lat="46.07962" lon="4.40416">
        <ele>653.4</ele>
        <time>2025-09-28T11:10:56Z</time>
      </trkpt>
      <trkpt lat="46.07966" lon="4.4042">
        <ele>653.2</ele>
        <time>2025-09-28T11:10:57Z</time>
      </trkpt>
      <trkpt lat="46.07969" lon="4.40426">
        <ele>653</ele>
        <time>2025-09-28T11:10:58Z</time>
      </trkpt>
      <trkpt lat="46.07972" lon="4.40432">
        <ele>653</ele>
        <time>2025-09-28T11:10:59Z</time>
      </trkpt>
      <trkpt lat="46.07974" lon="4.40438">
        <ele>653</ele>
        <time>2025-09-28T11:11:00Z</time>
      </trkpt>
      <trkpt lat="46.07976" lon="4.40444">
        <ele>653</ele>
        <time>2025-09-28T11:11:01Z</time>
      </trkpt>
      <trkpt lat="46.07978" lon="4.40451">
        <ele>652.6</ele>
        <time>2025-09-28T11:11:02Z</time>
      </trkpt>
      <trkpt lat="46.0798" lon="4.40458">
        <ele>652.6</ele>
        <time>2025-09-28T11:11:03Z</time>
      </trkpt>
      <trkpt lat="46.07983" lon="4.40465">
        <ele>652.6</ele>
        <time>2025-09-28T11:11:04Z</time>
      </trkpt>
      <trkpt lat="46.07985" lon="4.40472">
        <ele>652.6</ele>
        <time>2025-09-28T11:11:05Z</time>
      </trkpt>
      <trkpt lat="46.07987" lon="4.4048">
        <ele>652.4</ele>
        <time>2025-09-28T11:11:06Z</time>
      </trkpt>
      <trkpt lat="46.07989" lon="4.40487">
        <ele>652.4</ele>
        <time>2025-09-28T11:11:07Z</time>
      </trkpt>
      <trkpt lat="46.0799" lon="4.40496">
        <ele>652.4</ele>
        <time>2025-09-28T11:11:08Z</time>
      </trkpt>
      <trkpt lat="46.07992" lon="4.40504">
        <ele>652.4</ele>
        <time>2025-09-28T11:11:09Z</time>
      </trkpt>
      <trkpt lat="46.07993" lon="4.40512">
        <ele>652.4</ele>
        <time>2025-09-28T11:11:10Z</time>
      </trkpt>
      <trkpt lat="46.07994" lon="4.40519">
        <ele>652.4</ele>
        <time>2025-09-28T11:11:11Z</time>
      </trkpt>
      <trkpt lat="46.08" lon="4.40527">
        <ele>652.4</ele>
        <time>2025-09-28T11:11:12Z</time>
      </trkpt>
      <trkpt lat="46.07999" lon="4.40534">
        <ele>652.4</ele>
        <time>2025-09-28T11:11:13Z</time>
      </trkpt>
      <trkpt lat="46.08001" lon="4.40542">
        <ele>652.4</ele>
        <time>2025-09-28T11:11:14Z</time>
      </trkpt>
      <trkpt lat="46.08002" lon="4.4055">
        <ele>652.4</ele>
        <time>2025-09-28T11:11:15Z</time>
      </trkpt>
      <trkpt lat="46.08004" lon="4.40558">
        <ele>652.8</ele>
        <time>2025-09-28T11:11:16Z</time>
      </trkpt>
      <trkpt lat="46.08005" lon="4.40565">
        <ele>652.8</ele>
        <time>2025-09-28T11:11:17Z</time>
      </trkpt>
      <trkpt lat="46.08005" lon="4.40565">
        <ele>653.2</ele>
        <time>2025-09-28T11:11:18Z</time>
      </trkpt>
      <trkpt lat="46.0801" lon="4.40592">
        <ele>653.6</ele>
        <time>2025-09-28T11:11:20Z</time>
      </trkpt>
      <trkpt lat="46.08012" lon="4.40598">
        <ele>653.8</ele>
        <time>2025-09-28T11:11:21Z</time>
      </trkpt>
      <trkpt lat="46.08013" lon="4.40605">
        <ele>653.8</ele>
        <time>2025-09-28T11:11:22Z</time>
      </trkpt>
      <trkpt lat="46.08014" lon="4.40612">
        <ele>653.8</ele>
        <time>2025-09-28T11:11:23Z</time>
      </trkpt>
      <trkpt lat="46.08016" lon="4.40618">
        <ele>654.2</ele>
        <time>2025-09-28T11:11:24Z</time>
      </trkpt>
      <trkpt lat="46.08017" lon="4.40625">
        <ele>654.6</ele>
        <time>2025-09-28T11:11:25Z</time>
      </trkpt>
      <trkpt lat="46.08018" lon="4.40631">
        <ele>654.6</ele>
        <time>2025-09-28T11:11:26Z</time>
      </trkpt>
      <trkpt lat="46.08021" lon="4.40638">
        <ele>654.8</ele>
        <time>2025-09-28T11:11:27Z</time>
      </trkpt>
      <trkpt lat="46.08022" lon="4.40646">
        <ele>654.8</ele>
        <time>2025-09-28T11:11:28Z</time>
      </trkpt>
      <trkpt lat="46.08023" lon="4.40652">
        <ele>655.2</ele>
        <time>2025-09-28T11:11:29Z</time>
      </trkpt>
      <trkpt lat="46.08025" lon="4.40658">
        <ele>655.4</ele>
        <time>2025-09-28T11:11:30Z</time>
      </trkpt>
      <trkpt lat="46.08027" lon="4.40664">
        <ele>655.4</ele>
        <time>2025-09-28T11:11:31Z</time>
      </trkpt>
      <trkpt lat="46.08029" lon="4.40669">
        <ele>655.8</ele>
        <time>2025-09-28T11:11:32Z</time>
      </trkpt>
      <trkpt lat="46.08032" lon="4.40675">
        <ele>654.4</ele>
        <time>2025-09-28T11:11:33Z</time>
      </trkpt>
      <trkpt lat="46.08034" lon="4.40681">
        <ele>655.2</ele>
        <time>2025-09-28T11:11:34Z</time>
      </trkpt>
      <trkpt lat="46.08036" lon="4.40686">
        <ele>655.2</ele>
        <time>2025-09-28T11:11:35Z</time>
      </trkpt>
      <trkpt lat="46.08038" lon="4.4069">
        <ele>655.6</ele>
        <time>2025-09-28T11:11:36Z</time>
      </trkpt>
      <trkpt lat="46.08041" lon="4.40696">
        <ele>655.6</ele>
        <time>2025-09-28T11:11:37Z</time>
      </trkpt>
      <trkpt lat="46.08043" lon="4.40701">
        <ele>655.6</ele>
        <time>2025-09-28T11:11:38Z</time>
      </trkpt>
      <trkpt lat="46.08045" lon="4.40705">
        <ele>655.6</ele>
        <time>2025-09-28T11:11:39Z</time>
      </trkpt>
      <trkpt lat="46.08047" lon="4.40711">
        <ele>655.8</ele>
        <time>2025-09-28T11:11:40Z</time>
      </trkpt>
      <trkpt lat="46.08049" lon="4.40715">
        <ele>655.8</ele>
        <time>2025-09-28T11:11:41Z</time>
      </trkpt>
      <trkpt lat="46.08051" lon="4.4072">
        <ele>656.2</ele>
        <time>2025-09-28T11:11:42Z</time>
      </trkpt>
      <trkpt lat="46.08054" lon="4.40725">
        <ele>656.2</ele>
        <time>2025-09-28T11:11:43Z</time>
      </trkpt>
      <trkpt lat="46.08056" lon="4.4073">
        <ele>656.6</ele>
        <time>2025-09-28T11:11:44Z</time>
      </trkpt>
      <trkpt lat="46.08058" lon="4.40734">
        <ele>656.6</ele>
        <time>2025-09-28T11:11:45Z</time>
      </trkpt>
      <trkpt lat="46.08058" lon="4.40734">
        <ele>656.8</ele>
        <time>2025-09-28T11:11:46Z</time>
      </trkpt>
      <trkpt lat="46.08062" lon="4.40743">
        <ele>656.8</ele>
        <time>2025-09-28T11:11:47Z</time>
      </trkpt>
      <trkpt lat="46.08064" lon="4.40747">
        <ele>657.2</ele>
        <time>2025-09-28T11:11:48Z</time>
      </trkpt>
      <trkpt lat="46.08066" lon="4.40751">
        <ele>657.4</ele>
        <time>2025-09-28T11:11:49Z</time>
      </trkpt>
      <trkpt lat="46.08068" lon="4.40755">
        <ele>657.4</ele>
        <time>2025-09-28T11:11:50Z</time>
      </trkpt>
      <trkpt lat="46.0807" lon="4.40759">
        <ele>657.8</ele>
        <time>2025-09-28T11:11:51Z</time>
      </trkpt>
      <trkpt lat="46.08072" lon="4.40763">
        <ele>657.8</ele>
        <time>2025-09-28T11:11:52Z</time>
      </trkpt>
      <trkpt lat="46.08074" lon="4.40767">
        <ele>658.2</ele>
        <time>2025-09-28T11:11:53Z</time>
      </trkpt>
      <trkpt lat="46.08076" lon="4.4077">
        <ele>657.8</ele>
        <time>2025-09-28T11:11:54Z</time>
      </trkpt>
      <trkpt lat="46.08078" lon="4.40774">
        <ele>658.6</ele>
        <time>2025-09-28T11:11:55Z</time>
      </trkpt>
      <trkpt lat="46.0808" lon="4.40777">
        <ele>658.6</ele>
        <time>2025-09-28T11:11:56Z</time>
      </trkpt>
      <trkpt lat="46.08082" lon="4.40781">
        <ele>659</ele>
        <time>2025-09-28T11:11:57Z</time>
      </trkpt>
      <trkpt lat="46.08083" lon="4.40784">
        <ele>659</ele>
        <time>2025-09-28T11:11:58Z</time>
      </trkpt>
      <trkpt lat="46.08085" lon="4.40787">
        <ele>659</ele>
        <time>2025-09-28T11:11:59Z</time>
      </trkpt>
      <trkpt lat="46.08086" lon="4.4079">
        <ele>659.4</ele>
        <time>2025-09-28T11:12:00Z</time>
      </trkpt>
      <trkpt lat="46.08087" lon="4.40794">
        <ele>659</ele>
        <time>2025-09-28T11:12:01Z</time>
      </trkpt>
      <trkpt lat="46.08089" lon="4.40797">
        <ele>659.8</ele>
        <time>2025-09-28T11:12:02Z</time>
      </trkpt>
      <trkpt lat="46.08091" lon="4.408">
        <ele>659.8</ele>
        <time>2025-09-28T11:12:03Z</time>
      </trkpt>
      <trkpt lat="46.08092" lon="4.40803">
        <ele>660</ele>
        <time>2025-09-28T11:12:04Z</time>
      </trkpt>
      <trkpt lat="46.08094" lon="4.40806">
        <ele>660</ele>
        <time>2025-09-28T11:12:05Z</time>
      </trkpt>
      <trkpt lat="46.08095" lon="4.40809">
        <ele>660.4</ele>
        <time>2025-09-28T11:12:06Z</time>
      </trkpt>
      <trkpt lat="46.08097" lon="4.40812">
        <ele>660.6</ele>
        <time>2025-09-28T11:12:07Z</time>
      </trkpt>
      <trkpt lat="46.08098" lon="4.40815">
        <ele>660.8</ele>
        <time>2025-09-28T11:12:08Z</time>
      </trkpt>
      <trkpt lat="46.08099" lon="4.40818">
        <ele>660.8</ele>
        <time>2025-09-28T11:12:09Z</time>
      </trkpt>
      <trkpt lat="46.08101" lon="4.40821">
        <ele>661</ele>
        <time>2025-09-28T11:12:10Z</time>
      </trkpt>
      <trkpt lat="46.08102" lon="4.40824">
        <ele>661</ele>
        <time>2025-09-28T11:12:11Z</time>
      </trkpt>
      <trkpt lat="46.08103" lon="4.40826">
        <ele>661.4</ele>
        <time>2025-09-28T11:12:12Z</time>
      </trkpt>
      <trkpt lat="46.08105" lon="4.40829">
        <ele>661.4</ele>
        <time>2025-09-28T11:12:13Z</time>
      </trkpt>
      <trkpt lat="46.08106" lon="4.40831">
        <ele>661.6</ele>
        <time>2025-09-28T11:12:14Z</time>
      </trkpt>
      <trkpt lat="46.08108" lon="4.40834">
        <ele>661.6</ele>
        <time>2025-09-28T11:12:15Z</time>
      </trkpt>
      <trkpt lat="46.08109" lon="4.40837">
        <ele>662</ele>
        <time>2025-09-28T11:12:16Z</time>
      </trkpt>
      <trkpt lat="46.08111" lon="4.40839">
        <ele>662</ele>
        <time>2025-09-28T11:12:17Z</time>
      </trkpt>
      <trkpt lat="46.08112" lon="4.40842">
        <ele>662</ele>
        <time>2025-09-28T11:12:18Z</time>
      </trkpt>
      <trkpt lat="46.08114" lon="4.40844">
        <ele>662.6</ele>
        <time>2025-09-28T11:12:19Z</time>
      </trkpt>
      <trkpt lat="46.08115" lon="4.40847">
        <ele>662.6</ele>
        <time>2025-09-28T11:12:20Z</time>
      </trkpt>
      <trkpt lat="46.08117" lon="4.4085">
        <ele>662.8</ele>
        <time>2025-09-28T11:12:21Z</time>
      </trkpt>
      <trkpt lat="46.08118" lon="4.40853">
        <ele>662.8</ele>
        <time>2025-09-28T11:12:22Z</time>
      </trkpt>
      <trkpt lat="46.08119" lon="4.40855">
        <ele>662.8</ele>
        <time>2025-09-28T11:12:23Z</time>
      </trkpt>
      <trkpt lat="46.08121" lon="4.40858">
        <ele>662.8</ele>
        <time>2025-09-28T11:12:24Z</time>
      </trkpt>
      <trkpt lat="46.08122" lon="4.4086">
        <ele>662.8</ele>
        <time>2025-09-28T11:12:25Z</time>
      </trkpt>
      <trkpt lat="46.08124" lon="4.40863">
        <ele>663.2</ele>
        <time>2025-09-28T11:12:26Z</time>
      </trkpt>
      <trkpt lat="46.08126" lon="4.40865">
        <ele>663.2</ele>
        <time>2025-09-28T11:12:27Z</time>
      </trkpt>
      <trkpt lat="46.08127" lon="4.40867">
        <ele>663.4</ele>
        <time>2025-09-28T11:12:28Z</time>
      </trkpt>
      <trkpt lat="46.08129" lon="4.40869">
        <ele>663.4</ele>
        <time>2025-09-28T11:12:29Z</time>
      </trkpt>
      <trkpt lat="46.08131" lon="4.40872">
        <ele>663.8</ele>
        <time>2025-09-28T11:12:30Z</time>
      </trkpt>
      <trkpt lat="46.08132" lon="4.40874">
        <ele>663.8</ele>
        <time>2025-09-28T11:12:31Z</time>
      </trkpt>
      <trkpt lat="46.08134" lon="4.40877">
        <ele>664</ele>
        <time>2025-09-28T11:12:32Z</time>
      </trkpt>
      <trkpt lat="46.08135" lon="4.40879">
        <ele>664</ele>
        <time>2025-09-28T11:12:33Z</time>
      </trkpt>
      <trkpt lat="46.08137" lon="4.40881">
        <ele>664.2</ele>
        <time>2025-09-28T11:12:34Z</time>
      </trkpt>
      <trkpt lat="46.08139" lon="4.40884">
        <ele>664.2</ele>
        <time>2025-09-28T11:12:35Z</time>
      </trkpt>
      <trkpt lat="46.0814" lon="4.40886">
        <ele>664.6</ele>
        <time>2025-09-28T11:12:36Z</time>
      </trkpt>
      <trkpt lat="46.08142" lon="4.40888">
        <ele>664.6</ele>
        <time>2025-09-28T11:12:37Z</time>
      </trkpt>
      <trkpt lat="46.08144" lon="4.40891">
        <ele>664.6</ele>
        <time>2025-09-28T11:12:38Z</time>
      </trkpt>
      <trkpt lat="46.08146" lon="4.40893">
        <ele>665</ele>
        <time>2025-09-28T11:12:39Z</time>
      </trkpt>
      <trkpt lat="46.08148" lon="4.40895">
        <ele>665.2</ele>
        <time>2025-09-28T11:12:40Z</time>
      </trkpt>
      <trkpt lat="46.08149" lon="4.40897">
        <ele>665.4</ele>
        <time>2025-09-28T11:12:41Z</time>
      </trkpt>
      <trkpt lat="46.08151" lon="4.40899">
        <ele>665.4</ele>
        <time>2025-09-28T11:12:42Z</time>
      </trkpt>
      <trkpt lat="46.08153" lon="4.40901">
        <ele>665.4</ele>
        <time>2025-09-28T11:12:43Z</time>
      </trkpt>
      <trkpt lat="46.08155" lon="4.40903">
        <ele>666</ele>
        <time>2025-09-28T11:12:44Z</time>
      </trkpt>
      <trkpt lat="46.08157" lon="4.40905">
        <ele>666.2</ele>
        <time>2025-09-28T11:12:45Z</time>
      </trkpt>
      <trkpt lat="46.08158" lon="4.40907">
        <ele>666.4</ele>
        <time>2025-09-28T11:12:46Z</time>
      </trkpt>
      <trkpt lat="46.0816" lon="4.40909">
        <ele>666.6</ele>
        <time>2025-09-28T11:12:47Z</time>
      </trkpt>
      <trkpt lat="46.08162" lon="4.40911">
        <ele>666.6</ele>
        <time>2025-09-28T11:12:48Z</time>
      </trkpt>
      <trkpt lat="46.08164" lon="4.40913">
        <ele>667</ele>
        <time>2025-09-28T11:12:49Z</time>
      </trkpt>
      <trkpt lat="46.08166" lon="4.40916">
        <ele>667</ele>
        <time>2025-09-28T11:12:50Z</time>
      </trkpt>
      <trkpt lat="46.08167" lon="4.40919">
        <ele>667</ele>
        <time>2025-09-28T11:12:51Z</time>
      </trkpt>
      <trkpt lat="46.08169" lon="4.40922">
        <ele>667</ele>
        <time>2025-09-28T11:12:52Z</time>
      </trkpt>
      <trkpt lat="46.0817" lon="4.40925">
        <ele>667.2</ele>
        <time>2025-09-28T11:12:53Z</time>
      </trkpt>
      <trkpt lat="46.08171" lon="4.40928">
        <ele>667.2</ele>
        <time>2025-09-28T11:12:54Z</time>
      </trkpt>
      <trkpt lat="46.08171" lon="4.40931">
        <ele>667.6</ele>
        <time>2025-09-28T11:12:55Z</time>
      </trkpt>
      <trkpt lat="46.08172" lon="4.40935">
        <ele>668</ele>
        <time>2025-09-28T11:12:56Z</time>
      </trkpt>
      <trkpt lat="46.08172" lon="4.40938">
        <ele>668</ele>
        <time>2025-09-28T11:12:57Z</time>
      </trkpt>
      <trkpt lat="46.08173" lon="4.40942">
        <ele>668.2</ele>
        <time>2025-09-28T11:12:58Z</time>
      </trkpt>
      <trkpt lat="46.08173" lon="4.40946">
        <ele>668.2</ele>
        <time>2025-09-28T11:12:59Z</time>
      </trkpt>
      <trkpt lat="46.08173" lon="4.4095">
        <ele>668.2</ele>
        <time>2025-09-28T11:13:00Z</time>
      </trkpt>
      <trkpt lat="46.08173" lon="4.40953">
        <ele>668.4</ele>
        <time>2025-09-28T11:13:01Z</time>
      </trkpt>
      <trkpt lat="46.08173" lon="4.40957">
        <ele>668.4</ele>
        <time>2025-09-28T11:13:02Z</time>
      </trkpt>
      <trkpt lat="46.08173" lon="4.40961">
        <ele>668.4</ele>
        <time>2025-09-28T11:13:03Z</time>
      </trkpt>
      <trkpt lat="46.08172" lon="4.40965">
        <ele>668.6</ele>
        <time>2025-09-28T11:13:04Z</time>
      </trkpt>
      <trkpt lat="46.08171" lon="4.40968">
        <ele>668.6</ele>
        <time>2025-09-28T11:13:05Z</time>
      </trkpt>
      <trkpt lat="46.0817" lon="4.40972">
        <ele>669</ele>
        <time>2025-09-28T11:13:06Z</time>
      </trkpt>
      <trkpt lat="46.08169" lon="4.40976">
        <ele>669.2</ele>
        <time>2025-09-28T11:13:07Z</time>
      </trkpt>
      <trkpt lat="46.08168" lon="4.40981">
        <ele>669.2</ele>
        <time>2025-09-28T11:13:08Z</time>
      </trkpt>
      <trkpt lat="46.08166" lon="4.40985">
        <ele>669.2</ele>
        <time>2025-09-28T11:13:09Z</time>
      </trkpt>
      <trkpt lat="46.08164" lon="4.40989">
        <ele>669.2</ele>
        <time>2025-09-28T11:13:10Z</time>
      </trkpt>
      <trkpt lat="46.08163" lon="4.40994">
        <ele>669.2</ele>
        <time>2025-09-28T11:13:11Z</time>
      </trkpt>
      <trkpt lat="46.08162" lon="4.40998">
        <ele>669.2</ele>
        <time>2025-09-28T11:13:12Z</time>
      </trkpt>
      <trkpt lat="46.0816" lon="4.41002">
        <ele>669.4</ele>
        <time>2025-09-28T11:13:13Z</time>
      </trkpt>
      <trkpt lat="46.08159" lon="4.41007">
        <ele>669.4</ele>
        <time>2025-09-28T11:13:14Z</time>
      </trkpt>
      <trkpt lat="46.08157" lon="4.41012">
        <ele>669.8</ele>
        <time>2025-09-28T11:13:15Z</time>
      </trkpt>
      <trkpt lat="46.08156" lon="4.41016">
        <ele>669.8</ele>
        <time>2025-09-28T11:13:16Z</time>
      </trkpt>
      <trkpt lat="46.08155" lon="4.4102">
        <ele>669.8</ele>
        <time>2025-09-28T11:13:17Z</time>
      </trkpt>
      <trkpt lat="46.08153" lon="4.41024">
        <ele>669.8</ele>
        <time>2025-09-28T11:13:18Z</time>
      </trkpt>
      <trkpt lat="46.08152" lon="4.41029">
        <ele>669.8</ele>
        <time>2025-09-28T11:13:19Z</time>
      </trkpt>
      <trkpt lat="46.0815" lon="4.41033">
        <ele>670.2</ele>
        <time>2025-09-28T11:13:20Z</time>
      </trkpt>
      <trkpt lat="46.08149" lon="4.41037">
        <ele>670.2</ele>
        <time>2025-09-28T11:13:21Z</time>
      </trkpt>
      <trkpt lat="46.08148" lon="4.41041">
        <ele>670.2</ele>
        <time>2025-09-28T11:13:22Z</time>
      </trkpt>
      <trkpt lat="46.08147" lon="4.41046">
        <ele>670.4</ele>
        <time>2025-09-28T11:13:23Z</time>
      </trkpt>
      <trkpt lat="46.08145" lon="4.4105">
        <ele>670.4</ele>
        <time>2025-09-28T11:13:24Z</time>
      </trkpt>
      <trkpt lat="46.08144" lon="4.41055">
        <ele>670.4</ele>
        <time>2025-09-28T11:13:25Z</time>
      </trkpt>
      <trkpt lat="46.08143" lon="4.41059">
        <ele>670.8</ele>
        <time>2025-09-28T11:13:26Z</time>
      </trkpt>
      <trkpt lat="46.08142" lon="4.41064">
        <ele>670.8</ele>
        <time>2025-09-28T11:13:27Z</time>
      </trkpt>
      <trkpt lat="46.0814" lon="4.41068">
        <ele>670.8</ele>
        <time>2025-09-28T11:13:28Z</time>
      </trkpt>
      <trkpt lat="46.08139" lon="4.41073">
        <ele>671</ele>
        <time>2025-09-28T11:13:29Z</time>
      </trkpt>
      <trkpt lat="46.08138" lon="4.41078">
        <ele>671</ele>
        <time>2025-09-28T11:13:30Z</time>
      </trkpt>
      <trkpt lat="46.08137" lon="4.41082">
        <ele>671.2</ele>
        <time>2025-09-28T11:13:31Z</time>
      </trkpt>
      <trkpt lat="46.08136" lon="4.41087">
        <ele>671.2</ele>
        <time>2025-09-28T11:13:32Z</time>
      </trkpt>
      <trkpt lat="46.08135" lon="4.41091">
        <ele>671.2</ele>
        <time>2025-09-28T11:13:33Z</time>
      </trkpt>
      <trkpt lat="46.08134" lon="4.41096">
        <ele>671.2</ele>
        <time>2025-09-28T11:13:34Z</time>
      </trkpt>
      <trkpt lat="46.08134" lon="4.41101">
        <ele>671.6</ele>
        <time>2025-09-28T11:13:35Z</time>
      </trkpt>
      <trkpt lat="46.08133" lon="4.41106">
        <ele>671.6</ele>
        <time>2025-09-28T11:13:36Z</time>
      </trkpt>
      <trkpt lat="46.08132" lon="4.41111">
        <ele>672</ele>
        <time>2025-09-28T11:13:37Z</time>
      </trkpt>
      <trkpt lat="46.08132" lon="4.41115">
        <ele>672.2</ele>
        <time>2025-09-28T11:13:38Z</time>
      </trkpt>
      <trkpt lat="46.08132" lon="4.4112">
        <ele>672.4</ele>
        <time>2025-09-28T11:13:39Z</time>
      </trkpt>
      <trkpt lat="46.08131" lon="4.41124">
        <ele>672.4</ele>
        <time>2025-09-28T11:13:40Z</time>
      </trkpt>
      <trkpt lat="46.08132" lon="4.41129">
        <ele>672.6</ele>
        <time>2025-09-28T11:13:41Z</time>
      </trkpt>
      <trkpt lat="46.08132" lon="4.41133">
        <ele>672.6</ele>
        <time>2025-09-28T11:13:42Z</time>
      </trkpt>
      <trkpt lat="46.08132" lon="4.41138">
        <ele>672.6</ele>
        <time>2025-09-28T11:13:43Z</time>
      </trkpt>
      <trkpt lat="46.08132" lon="4.41142">
        <ele>673</ele>
        <time>2025-09-28T11:13:44Z</time>
      </trkpt>
      <trkpt lat="46.08132" lon="4.41146">
        <ele>673</ele>
        <time>2025-09-28T11:13:45Z</time>
      </trkpt>
      <trkpt lat="46.08132" lon="4.41151">
        <ele>673</ele>
        <time>2025-09-28T11:13:46Z</time>
      </trkpt>
      <trkpt lat="46.08133" lon="4.41156">
        <ele>673.2</ele>
        <time>2025-09-28T11:13:47Z</time>
      </trkpt>
      <trkpt lat="46.08133" lon="4.4116">
        <ele>673.2</ele>
        <time>2025-09-28T11:13:48Z</time>
      </trkpt>
      <trkpt lat="46.08134" lon="4.41165">
        <ele>673.6</ele>
        <time>2025-09-28T11:13:49Z</time>
      </trkpt>
      <trkpt lat="46.08134" lon="4.41169">
        <ele>673.8</ele>
        <time>2025-09-28T11:13:50Z</time>
      </trkpt>
      <trkpt lat="46.08135" lon="4.41174">
        <ele>673.8</ele>
        <time>2025-09-28T11:13:51Z</time>
      </trkpt>
      <trkpt lat="46.08135" lon="4.41178">
        <ele>673.8</ele>
        <time>2025-09-28T11:13:52Z</time>
      </trkpt>
      <trkpt lat="46.08136" lon="4.41183">
        <ele>673.8</ele>
        <time>2025-09-28T11:13:53Z</time>
      </trkpt>
      <trkpt lat="46.08136" lon="4.41188">
        <ele>673.8</ele>
        <time>2025-09-28T11:13:54Z</time>
      </trkpt>
      <trkpt lat="46.08137" lon="4.41193">
        <ele>674</ele>
        <time>2025-09-28T11:13:55Z</time>
      </trkpt>
      <trkpt lat="46.08137" lon="4.41197">
        <ele>674</ele>
        <time>2025-09-28T11:13:56Z</time>
      </trkpt>
      <trkpt lat="46.08138" lon="4.41202">
        <ele>674.4</ele>
        <time>2025-09-28T11:13:57Z</time>
      </trkpt>
      <trkpt lat="46.08138" lon="4.41207">
        <ele>674.4</ele>
        <time>2025-09-28T11:13:58Z</time>
      </trkpt>
      <trkpt lat="46.08139" lon="4.41212">
        <ele>674.6</ele>
        <time>2025-09-28T11:13:59Z</time>
      </trkpt>
      <trkpt lat="46.08139" lon="4.41216">
        <ele>674.6</ele>
        <time>2025-09-28T11:14:00Z</time>
      </trkpt>
      <trkpt lat="46.0814" lon="4.4122">
        <ele>674.6</ele>
        <time>2025-09-28T11:14:01Z</time>
      </trkpt>
      <trkpt lat="46.0814" lon="4.41224">
        <ele>674.8</ele>
        <time>2025-09-28T11:14:02Z</time>
      </trkpt>
      <trkpt lat="46.0814" lon="4.41229">
        <ele>674.8</ele>
        <time>2025-09-28T11:14:03Z</time>
      </trkpt>
      <trkpt lat="46.08141" lon="4.41233">
        <ele>674.8</ele>
        <time>2025-09-28T11:14:04Z</time>
      </trkpt>
      <trkpt lat="46.08141" lon="4.41237">
        <ele>675.2</ele>
        <time>2025-09-28T11:14:05Z</time>
      </trkpt>
      <trkpt lat="46.08142" lon="4.41241">
        <ele>675.2</ele>
        <time>2025-09-28T11:14:06Z</time>
      </trkpt>
      <trkpt lat="46.08142" lon="4.41246">
        <ele>675.6</ele>
        <time>2025-09-28T11:14:07Z</time>
      </trkpt>
      <trkpt lat="46.08143" lon="4.4125">
        <ele>675.6</ele>
        <time>2025-09-28T11:14:08Z</time>
      </trkpt>
      <trkpt lat="46.08143" lon="4.41254">
        <ele>675.6</ele>
        <time>2025-09-28T11:14:09Z</time>
      </trkpt>
      <trkpt lat="46.08144" lon="4.41258">
        <ele>676</ele>
        <time>2025-09-28T11:14:10Z</time>
      </trkpt>
      <trkpt lat="46.08144" lon="4.41262">
        <ele>676</ele>
        <time>2025-09-28T11:14:11Z</time>
      </trkpt>
      <trkpt lat="46.08144" lon="4.41267">
        <ele>676.2</ele>
        <time>2025-09-28T11:14:12Z</time>
      </trkpt>
      <trkpt lat="46.08145" lon="4.4127">
        <ele>676.4</ele>
        <time>2025-09-28T11:14:13Z</time>
      </trkpt>
      <trkpt lat="46.08145" lon="4.41274">
        <ele>676.8</ele>
        <time>2025-09-28T11:14:14Z</time>
      </trkpt>
      <trkpt lat="46.08145" lon="4.41278">
        <ele>676.8</ele>
        <time>2025-09-28T11:14:15Z</time>
      </trkpt>
      <trkpt lat="46.08145" lon="4.41282">
        <ele>677.2</ele>
        <time>2025-09-28T11:14:16Z</time>
      </trkpt>
      <trkpt lat="46.08145" lon="4.41286">
        <ele>677.2</ele>
        <time>2025-09-28T11:14:17Z</time>
      </trkpt>
      <trkpt lat="46.08146" lon="4.4129">
        <ele>677.4</ele>
        <time>2025-09-28T11:14:18Z</time>
      </trkpt>
      <trkpt lat="46.08146" lon="4.41294">
        <ele>677.4</ele>
        <time>2025-09-28T11:14:19Z</time>
      </trkpt>
      <trkpt lat="46.08146" lon="4.41298">
        <ele>677.4</ele>
        <time>2025-09-28T11:14:20Z</time>
      </trkpt>
      <trkpt lat="46.08147" lon="4.41302">
        <ele>677.8</ele>
        <time>2025-09-28T11:14:21Z</time>
      </trkpt>
      <trkpt lat="46.08147" lon="4.41306">
        <ele>677.8</ele>
        <time>2025-09-28T11:14:22Z</time>
      </trkpt>
      <trkpt lat="46.08147" lon="4.4131">
        <ele>678</ele>
        <time>2025-09-28T11:14:23Z</time>
      </trkpt>
      <trkpt lat="46.08148" lon="4.41314">
        <ele>678</ele>
        <time>2025-09-28T11:14:24Z</time>
      </trkpt>
      <trkpt lat="46.08148" lon="4.41318">
        <ele>678</ele>
        <time>2025-09-28T11:14:25Z</time>
      </trkpt>
      <trkpt lat="46.08148" lon="4.41322">
        <ele>678</ele>
        <time>2025-09-28T11:14:26Z</time>
      </trkpt>
      <trkpt lat="46.08148" lon="4.41326">
        <ele>678.2</ele>
        <time>2025-09-28T11:14:27Z</time>
      </trkpt>
      <trkpt lat="46.08149" lon="4.4133">
        <ele>678.2</ele>
        <time>2025-09-28T11:14:28Z</time>
      </trkpt>
      <trkpt lat="46.08149" lon="4.41334">
        <ele>678.2</ele>
        <time>2025-09-28T11:14:29Z</time>
      </trkpt>
      <trkpt lat="46.08149" lon="4.41338">
        <ele>678.6</ele>
        <time>2025-09-28T11:14:30Z</time>
      </trkpt>
      <trkpt lat="46.0815" lon="4.41342">
        <ele>679</ele>
        <time>2025-09-28T11:14:31Z</time>
      </trkpt>
      <trkpt lat="46.0815" lon="4.41345">
        <ele>679</ele>
        <time>2025-09-28T11:14:32Z</time>
      </trkpt>
      <trkpt lat="46.0815" lon="4.41349">
        <ele>679.2</ele>
        <time>2025-09-28T11:14:33Z</time>
      </trkpt>
      <trkpt lat="46.0815" lon="4.41353">
        <ele>679.2</ele>
        <time>2025-09-28T11:14:34Z</time>
      </trkpt>
      <trkpt lat="46.08151" lon="4.41356">
        <ele>679.2</ele>
        <time>2025-09-28T11:14:35Z</time>
      </trkpt>
      <trkpt lat="46.08151" lon="4.4136">
        <ele>679.4</ele>
        <time>2025-09-28T11:14:36Z</time>
      </trkpt>
      <trkpt lat="46.08152" lon="4.41364">
        <ele>679.6</ele>
        <time>2025-09-28T11:14:37Z</time>
      </trkpt>
      <trkpt lat="46.08152" lon="4.41368">
        <ele>680</ele>
        <time>2025-09-28T11:14:38Z</time>
      </trkpt>
      <trkpt lat="46.08152" lon="4.41372">
        <ele>680</ele>
        <time>2025-09-28T11:14:39Z</time>
      </trkpt>
      <trkpt lat="46.08153" lon="4.41376">
        <ele>680</ele>
        <time>2025-09-28T11:14:40Z</time>
      </trkpt>
      <trkpt lat="46.08153" lon="4.4138">
        <ele>680</ele>
        <time>2025-09-28T11:14:41Z</time>
      </trkpt>
      <trkpt lat="46.08153" lon="4.41383">
        <ele>680</ele>
        <time>2025-09-28T11:14:42Z</time>
      </trkpt>
      <trkpt lat="46.08154" lon="4.41388">
        <ele>680.2</ele>
        <time>2025-09-28T11:14:43Z</time>
      </trkpt>
      <trkpt lat="46.08154" lon="4.41391">
        <ele>680.2</ele>
        <time>2025-09-28T11:14:44Z</time>
      </trkpt>
      <trkpt lat="46.08155" lon="4.41396">
        <ele>680.6</ele>
        <time>2025-09-28T11:14:45Z</time>
      </trkpt>
      <trkpt lat="46.08155" lon="4.414">
        <ele>680.6</ele>
        <time>2025-09-28T11:14:46Z</time>
      </trkpt>
      <trkpt lat="46.08156" lon="4.41403">
        <ele>680.6</ele>
        <time>2025-09-28T11:14:47Z</time>
      </trkpt>
      <trkpt lat="46.08156" lon="4.41407">
        <ele>680.8</ele>
        <time>2025-09-28T11:14:48Z</time>
      </trkpt>
      <trkpt lat="46.08156" lon="4.41412">
        <ele>680.8</ele>
        <time>2025-09-28T11:14:49Z</time>
      </trkpt>
      <trkpt lat="46.08157" lon="4.41416">
        <ele>681.2</ele>
        <time>2025-09-28T11:14:50Z</time>
      </trkpt>
      <trkpt lat="46.08157" lon="4.41419">
        <ele>681.2</ele>
        <time>2025-09-28T11:14:51Z</time>
      </trkpt>
      <trkpt lat="46.08158" lon="4.41423">
        <ele>681.2</ele>
        <time>2025-09-28T11:14:52Z</time>
      </trkpt>
      <trkpt lat="46.08159" lon="4.41427">
        <ele>681.6</ele>
        <time>2025-09-28T11:14:53Z</time>
      </trkpt>
      <trkpt lat="46.0816" lon="4.41431">
        <ele>681.6</ele>
        <time>2025-09-28T11:14:54Z</time>
      </trkpt>
      <trkpt lat="46.08161" lon="4.41435">
        <ele>681.8</ele>
        <time>2025-09-28T11:14:55Z</time>
      </trkpt>
      <trkpt lat="46.08162" lon="4.41439">
        <ele>681.8</ele>
        <time>2025-09-28T11:14:56Z</time>
      </trkpt>
      <trkpt lat="46.08163" lon="4.41442">
        <ele>681.8</ele>
        <time>2025-09-28T11:14:57Z</time>
      </trkpt>
      <trkpt lat="46.08164" lon="4.41444">
        <ele>682</ele>
        <time>2025-09-28T11:14:58Z</time>
      </trkpt>
      <trkpt lat="46.08164" lon="4.41446">
        <ele>682</ele>
        <time>2025-09-28T11:14:59Z</time>
      </trkpt>
      <trkpt lat="46.08166" lon="4.41449">
        <ele>682.4</ele>
        <time>2025-09-28T11:15:00Z</time>
      </trkpt>
      <trkpt lat="46.08167" lon="4.41453">
        <ele>682.6</ele>
        <time>2025-09-28T11:15:01Z</time>
      </trkpt>
      <trkpt lat="46.08168" lon="4.41457">
        <ele>682.6</ele>
        <time>2025-09-28T11:15:02Z</time>
      </trkpt>
      <trkpt lat="46.08169" lon="4.4146">
        <ele>682.8</ele>
        <time>2025-09-28T11:15:03Z</time>
      </trkpt>
      <trkpt lat="46.0817" lon="4.41464">
        <ele>683.2</ele>
        <time>2025-09-28T11:15:04Z</time>
      </trkpt>
      <trkpt lat="46.08171" lon="4.41468">
        <ele>683.2</ele>
        <time>2025-09-28T11:15:05Z</time>
      </trkpt>
      <trkpt lat="46.08173" lon="4.41472">
        <ele>683.4</ele>
        <time>2025-09-28T11:15:06Z</time>
      </trkpt>
      <trkpt lat="46.08174" lon="4.41475">
        <ele>683.4</ele>
        <time>2025-09-28T11:15:07Z</time>
      </trkpt>
      <trkpt lat="46.08175" lon="4.41479">
        <ele>683.4</ele>
        <time>2025-09-28T11:15:08Z</time>
      </trkpt>
      <trkpt lat="46.08177" lon="4.41483">
        <ele>683.6</ele>
        <time>2025-09-28T11:15:09Z</time>
      </trkpt>
      <trkpt lat="46.08178" lon="4.41486">
        <ele>683.6</ele>
        <time>2025-09-28T11:15:10Z</time>
      </trkpt>
      <trkpt lat="46.08179" lon="4.41489">
        <ele>684</ele>
        <time>2025-09-28T11:15:11Z</time>
      </trkpt>
      <trkpt lat="46.0818" lon="4.41492">
        <ele>684</ele>
        <time>2025-09-28T11:15:12Z</time>
      </trkpt>
      <trkpt lat="46.08181" lon="4.41496">
        <ele>684.2</ele>
        <time>2025-09-28T11:15:13Z</time>
      </trkpt>
      <trkpt lat="46.08183" lon="4.41499">
        <ele>684.2</ele>
        <time>2025-09-28T11:15:14Z</time>
      </trkpt>
      <trkpt lat="46.08185" lon="4.41502">
        <ele>684.4</ele>
        <time>2025-09-28T11:15:15Z</time>
      </trkpt>
      <trkpt lat="46.08187" lon="4.41505">
        <ele>684.4</ele>
        <time>2025-09-28T11:15:16Z</time>
      </trkpt>
      <trkpt lat="46.08188" lon="4.41508">
        <ele>684.4</ele>
        <time>2025-09-28T11:15:17Z</time>
      </trkpt>
      <trkpt lat="46.0819" lon="4.41511">
        <ele>685</ele>
        <time>2025-09-28T11:15:18Z</time>
      </trkpt>
      <trkpt lat="46.08192" lon="4.41514">
        <ele>685</ele>
        <time>2025-09-28T11:15:19Z</time>
      </trkpt>
      <trkpt lat="46.08194" lon="4.41517">
        <ele>685</ele>
        <time>2025-09-28T11:15:20Z</time>
      </trkpt>
      <trkpt lat="46.08196" lon="4.41519">
        <ele>685.2</ele>
        <time>2025-09-28T11:15:21Z</time>
      </trkpt>
      <trkpt lat="46.08198" lon="4.41522">
        <ele>685.4</ele>
        <time>2025-09-28T11:15:22Z</time>
      </trkpt>
      <trkpt lat="46.082" lon="4.41524">
        <ele>685.6</ele>
        <time>2025-09-28T11:15:23Z</time>
      </trkpt>
      <trkpt lat="46.08202" lon="4.41527">
        <ele>685.6</ele>
        <time>2025-09-28T11:15:24Z</time>
      </trkpt>
      <trkpt lat="46.08204" lon="4.4153">
        <ele>685.6</ele>
        <time>2025-09-28T11:15:25Z</time>
      </trkpt>
      <trkpt lat="46.08206" lon="4.41533">
        <ele>685.6</ele>
        <time>2025-09-28T11:15:26Z</time>
      </trkpt>
      <trkpt lat="46.08208" lon="4.41535">
        <ele>685.6</ele>
        <time>2025-09-28T11:15:27Z</time>
      </trkpt>
      <trkpt lat="46.0821" lon="4.41536">
        <ele>686</ele>
        <time>2025-09-28T11:15:28Z</time>
      </trkpt>
      <trkpt lat="46.08212" lon="4.41539">
        <ele>686</ele>
        <time>2025-09-28T11:15:29Z</time>
      </trkpt>
      <trkpt lat="46.08214" lon="4.41542">
        <ele>686.2</ele>
        <time>2025-09-28T11:15:30Z</time>
      </trkpt>
      <trkpt lat="46.08215" lon="4.41545">
        <ele>686.2</ele>
        <time>2025-09-28T11:15:31Z</time>
      </trkpt>
      <trkpt lat="46.08217" lon="4.41548">
        <ele>686.6</ele>
        <time>2025-09-28T11:15:32Z</time>
      </trkpt>
      <trkpt lat="46.08218" lon="4.41552">
        <ele>686.6</ele>
        <time>2025-09-28T11:15:33Z</time>
      </trkpt>
      <trkpt lat="46.08219" lon="4.41556">
        <ele>686.6</ele>
        <time>2025-09-28T11:15:34Z</time>
      </trkpt>
      <trkpt lat="46.0822" lon="4.41559">
        <ele>686.8</ele>
        <time>2025-09-28T11:15:35Z</time>
      </trkpt>
      <trkpt lat="46.08221" lon="4.41563">
        <ele>686.8</ele>
        <time>2025-09-28T11:15:36Z</time>
      </trkpt>
      <trkpt lat="46.08222" lon="4.41566">
        <ele>686.8</ele>
        <time>2025-09-28T11:15:37Z</time>
      </trkpt>
      <trkpt lat="46.08223" lon="4.41569">
        <ele>687</ele>
        <time>2025-09-28T11:15:38Z</time>
      </trkpt>
      <trkpt lat="46.08223" lon="4.41573">
        <ele>687</ele>
        <time>2025-09-28T11:15:39Z</time>
      </trkpt>
      <trkpt lat="46.08223" lon="4.41577">
        <ele>687</ele>
        <time>2025-09-28T11:15:40Z</time>
      </trkpt>
      <trkpt lat="46.08223" lon="4.41581">
        <ele>687</ele>
        <time>2025-09-28T11:15:41Z</time>
      </trkpt>
      <trkpt lat="46.08222" lon="4.41585">
        <ele>687.2</ele>
        <time>2025-09-28T11:15:42Z</time>
      </trkpt>
      <trkpt lat="46.08222" lon="4.4159">
        <ele>687.2</ele>
        <time>2025-09-28T11:15:43Z</time>
      </trkpt>
      <trkpt lat="46.08221" lon="4.41593">
        <ele>687.2</ele>
        <time>2025-09-28T11:15:44Z</time>
      </trkpt>
      <trkpt lat="46.08221" lon="4.41597">
        <ele>687.6</ele>
        <time>2025-09-28T11:15:45Z</time>
      </trkpt>
      <trkpt lat="46.0822" lon="4.41601">
        <ele>687.8</ele>
        <time>2025-09-28T11:15:46Z</time>
      </trkpt>
      <trkpt lat="46.08219" lon="4.41604">
        <ele>687.8</ele>
        <time>2025-09-28T11:15:47Z</time>
      </trkpt>
      <trkpt lat="46.08217" lon="4.41608">
        <ele>688.2</ele>
        <time>2025-09-28T11:15:48Z</time>
      </trkpt>
      <trkpt lat="46.08215" lon="4.41611">
        <ele>688.4</ele>
        <time>2025-09-28T11:15:49Z</time>
      </trkpt>
      <trkpt lat="46.08214" lon="4.41613">
        <ele>688.8</ele>
        <time>2025-09-28T11:15:50Z</time>
      </trkpt>
      <trkpt lat="46.08211" lon="4.41616">
        <ele>689</ele>
        <time>2025-09-28T11:15:51Z</time>
      </trkpt>
      <trkpt lat="46.08209" lon="4.41619">
        <ele>689.2</ele>
        <time>2025-09-28T11:15:52Z</time>
      </trkpt>
      <trkpt lat="46.08207" lon="4.41621">
        <ele>689.2</ele>
        <time>2025-09-28T11:15:53Z</time>
      </trkpt>
      <trkpt lat="46.08205" lon="4.41624">
        <ele>689.4</ele>
        <time>2025-09-28T11:15:54Z</time>
      </trkpt>
      <trkpt lat="46.08202" lon="4.41626">
        <ele>689.4</ele>
        <time>2025-09-28T11:15:55Z</time>
      </trkpt>
      <trkpt lat="46.082" lon="4.41628">
        <ele>689.8</ele>
        <time>2025-09-28T11:15:56Z</time>
      </trkpt>
      <trkpt lat="46.08198" lon="4.4163">
        <ele>689.8</ele>
        <time>2025-09-28T11:15:57Z</time>
      </trkpt>
      <trkpt lat="46.08196" lon="4.41632">
        <ele>690.2</ele>
        <time>2025-09-28T11:15:58Z</time>
      </trkpt>
      <trkpt lat="46.08194" lon="4.41634">
        <ele>690.2</ele>
        <time>2025-09-28T11:15:59Z</time>
      </trkpt>
      <trkpt lat="46.08192" lon="4.41636">
        <ele>690.4</ele>
        <time>2025-09-28T11:16:00Z</time>
      </trkpt>
      <trkpt lat="46.0819" lon="4.41638">
        <ele>690.4</ele>
        <time>2025-09-28T11:16:01Z</time>
      </trkpt>
      <trkpt lat="46.08188" lon="4.4164">
        <ele>690.6</ele>
        <time>2025-09-28T11:16:02Z</time>
      </trkpt>
      <trkpt lat="46.08186" lon="4.41642">
        <ele>690.6</ele>
        <time>2025-09-28T11:16:03Z</time>
      </trkpt>
      <trkpt lat="46.08184" lon="4.41644">
        <ele>690.8</ele>
        <time>2025-09-28T11:16:04Z</time>
      </trkpt>
      <trkpt lat="46.08183" lon="4.41646">
        <ele>690.8</ele>
        <time>2025-09-28T11:16:05Z</time>
      </trkpt>
      <trkpt lat="46.08181" lon="4.41648">
        <ele>691</ele>
        <time>2025-09-28T11:16:06Z</time>
      </trkpt>
      <trkpt lat="46.08179" lon="4.41649">
        <ele>691</ele>
        <time>2025-09-28T11:16:07Z</time>
      </trkpt>
      <trkpt lat="46.08178" lon="4.41651">
        <ele>691.4</ele>
        <time>2025-09-28T11:16:08Z</time>
      </trkpt>
      <trkpt lat="46.08176" lon="4.41653">
        <ele>691.4</ele>
        <time>2025-09-28T11:16:09Z</time>
      </trkpt>
      <trkpt lat="46.08174" lon="4.41654">
        <ele>691.4</ele>
        <time>2025-09-28T11:16:10Z</time>
      </trkpt>
      <trkpt lat="46.08173" lon="4.41656">
        <ele>691.6</ele>
        <time>2025-09-28T11:16:11Z</time>
      </trkpt>
      <trkpt lat="46.08171" lon="4.41658">
        <ele>691.6</ele>
        <time>2025-09-28T11:16:12Z</time>
      </trkpt>
      <trkpt lat="46.08169" lon="4.4166">
        <ele>692</ele>
        <time>2025-09-28T11:16:13Z</time>
      </trkpt>
      <trkpt lat="46.08167" lon="4.41662">
        <ele>692.2</ele>
        <time>2025-09-28T11:16:14Z</time>
      </trkpt>
      <trkpt lat="46.08165" lon="4.41663">
        <ele>692.6</ele>
        <time>2025-09-28T11:16:15Z</time>
      </trkpt>
      <trkpt lat="46.08163" lon="4.41664">
        <ele>692.6</ele>
        <time>2025-09-28T11:16:16Z</time>
      </trkpt>
      <trkpt lat="46.08162" lon="4.41666">
        <ele>692.8</ele>
        <time>2025-09-28T11:16:17Z</time>
      </trkpt>
      <trkpt lat="46.0816" lon="4.41668">
        <ele>692.8</ele>
        <time>2025-09-28T11:16:18Z</time>
      </trkpt>
      <trkpt lat="46.08158" lon="4.4167">
        <ele>693</ele>
        <time>2025-09-28T11:16:19Z</time>
      </trkpt>
      <trkpt lat="46.08156" lon="4.41672">
        <ele>693</ele>
        <time>2025-09-28T11:16:20Z</time>
      </trkpt>
      <trkpt lat="46.08155" lon="4.41673">
        <ele>693</ele>
        <time>2025-09-28T11:16:21Z</time>
      </trkpt>
      <trkpt lat="46.08153" lon="4.41675">
        <ele>693.2</ele>
        <time>2025-09-28T11:16:22Z</time>
      </trkpt>
      <trkpt lat="46.08151" lon="4.41677">
        <ele>693.2</ele>
        <time>2025-09-28T11:16:23Z</time>
      </trkpt>
      <trkpt lat="46.0815" lon="4.41679">
        <ele>693.6</ele>
        <time>2025-09-28T11:16:24Z</time>
      </trkpt>
      <trkpt lat="46.08148" lon="4.41681">
        <ele>693.6</ele>
        <time>2025-09-28T11:16:25Z</time>
      </trkpt>
      <trkpt lat="46.08147" lon="4.41682">
        <ele>693.6</ele>
        <time>2025-09-28T11:16:26Z</time>
      </trkpt>
      <trkpt lat="46.08145" lon="4.41685">
        <ele>693.8</ele>
        <time>2025-09-28T11:16:27Z</time>
      </trkpt>
      <trkpt lat="46.08143" lon="4.41687">
        <ele>693.8</ele>
        <time>2025-09-28T11:16:28Z</time>
      </trkpt>
      <trkpt lat="46.08141" lon="4.41689">
        <ele>694.2</ele>
        <time>2025-09-28T11:16:29Z</time>
      </trkpt>
      <trkpt lat="46.0814" lon="4.41691">
        <ele>694.2</ele>
        <time>2025-09-28T11:16:30Z</time>
      </trkpt>
      <trkpt lat="46.08138" lon="4.41693">
        <ele>694.4</ele>
        <time>2025-09-28T11:16:31Z</time>
      </trkpt>
      <trkpt lat="46.08137" lon="4.41696">
        <ele>694.4</ele>
        <time>2025-09-28T11:16:32Z</time>
      </trkpt>
      <trkpt lat="46.08135" lon="4.41698">
        <ele>694.8</ele>
        <time>2025-09-28T11:16:33Z</time>
      </trkpt>
      <trkpt lat="46.08133" lon="4.417">
        <ele>694.8</ele>
        <time>2025-09-28T11:16:34Z</time>
      </trkpt>
      <trkpt lat="46.08132" lon="4.41703">
        <ele>695</ele>
        <time>2025-09-28T11:16:35Z</time>
      </trkpt>
      <trkpt lat="46.0813" lon="4.41706">
        <ele>695</ele>
        <time>2025-09-28T11:16:36Z</time>
      </trkpt>
      <trkpt lat="46.08128" lon="4.41708">
        <ele>695</ele>
        <time>2025-09-28T11:16:37Z</time>
      </trkpt>
      <trkpt lat="46.08127" lon="4.41711">
        <ele>695.2</ele>
        <time>2025-09-28T11:16:38Z</time>
      </trkpt>
      <trkpt lat="46.08126" lon="4.41713">
        <ele>695.2</ele>
        <time>2025-09-28T11:16:39Z</time>
      </trkpt>
      <trkpt lat="46.08124" lon="4.41716">
        <ele>695.4</ele>
        <time>2025-09-28T11:16:40Z</time>
      </trkpt>
      <trkpt lat="46.08123" lon="4.41719">
        <ele>695.4</ele>
        <time>2025-09-28T11:16:41Z</time>
      </trkpt>
      <trkpt lat="46.08122" lon="4.41722">
        <ele>695.4</ele>
        <time>2025-09-28T11:16:42Z</time>
      </trkpt>
      <trkpt lat="46.08121" lon="4.41724">
        <ele>695.8</ele>
        <time>2025-09-28T11:16:43Z</time>
      </trkpt>
      <trkpt lat="46.08119" lon="4.41727">
        <ele>695.8</ele>
        <time>2025-09-28T11:16:44Z</time>
      </trkpt>
      <trkpt lat="46.08118" lon="4.41729">
        <ele>695.8</ele>
        <time>2025-09-28T11:16:45Z</time>
      </trkpt>
      <trkpt lat="46.08116" lon="4.41732">
        <ele>695.8</ele>
        <time>2025-09-28T11:16:46Z</time>
      </trkpt>
      <trkpt lat="46.08115" lon="4.41734">
        <ele>696</ele>
        <time>2025-09-28T11:16:47Z</time>
      </trkpt>
      <trkpt lat="46.08114" lon="4.41737">
        <ele>696</ele>
        <time>2025-09-28T11:16:48Z</time>
      </trkpt>
      <trkpt lat="46.08113" lon="4.4174">
        <ele>696.2</ele>
        <time>2025-09-28T11:16:49Z</time>
      </trkpt>
      <trkpt lat="46.08111" lon="4.41743">
        <ele>696.2</ele>
        <time>2025-09-28T11:16:50Z</time>
      </trkpt>
      <trkpt lat="46.0811" lon="4.41745">
        <ele>696.6</ele>
        <time>2025-09-28T11:16:51Z</time>
      </trkpt>
      <trkpt lat="46.08108" lon="4.41748">
        <ele>696.6</ele>
        <time>2025-09-28T11:16:52Z</time>
      </trkpt>
      <trkpt lat="46.08107" lon="4.41751">
        <ele>696.6</ele>
        <time>2025-09-28T11:16:53Z</time>
      </trkpt>
      <trkpt lat="46.08106" lon="4.41754">
        <ele>696.6</ele>
        <time>2025-09-28T11:16:54Z</time>
      </trkpt>
      <trkpt lat="46.08104" lon="4.41757">
        <ele>697</ele>
        <time>2025-09-28T11:16:55Z</time>
      </trkpt>
      <trkpt lat="46.08103" lon="4.4176">
        <ele>697</ele>
        <time>2025-09-28T11:16:56Z</time>
      </trkpt>
      <trkpt lat="46.08102" lon="4.41762">
        <ele>697</ele>
        <time>2025-09-28T11:16:57Z</time>
      </trkpt>
      <trkpt lat="46.081" lon="4.41765">
        <ele>697.2</ele>
        <time>2025-09-28T11:16:58Z</time>
      </trkpt>
      <trkpt lat="46.08099" lon="4.41768">
        <ele>697.2</ele>
        <time>2025-09-28T11:16:59Z</time>
      </trkpt>
      <trkpt lat="46.08098" lon="4.4177">
        <ele>697.4</ele>
        <time>2025-09-28T11:17:00Z</time>
      </trkpt>
      <trkpt lat="46.08097" lon="4.41772">
        <ele>697.4</ele>
        <time>2025-09-28T11:17:01Z</time>
      </trkpt>
      <trkpt lat="46.08096" lon="4.41775">
        <ele>697.6</ele>
        <time>2025-09-28T11:17:02Z</time>
      </trkpt>
      <trkpt lat="46.08094" lon="4.41777">
        <ele>698</ele>
        <time>2025-09-28T11:17:03Z</time>
      </trkpt>
      <trkpt lat="46.08093" lon="4.41779">
        <ele>698</ele>
        <time>2025-09-28T11:17:04Z</time>
      </trkpt>
      <trkpt lat="46.08092" lon="4.41782">
        <ele>698</ele>
        <time>2025-09-28T11:17:05Z</time>
      </trkpt>
      <trkpt lat="46.08091" lon="4.41784">
        <ele>698.4</ele>
        <time>2025-09-28T11:17:06Z</time>
      </trkpt>
      <trkpt lat="46.0809" lon="4.41786">
        <ele>698.6</ele>
        <time>2025-09-28T11:17:07Z</time>
      </trkpt>
      <trkpt lat="46.08089" lon="4.41788">
        <ele>698.8</ele>
        <time>2025-09-28T11:17:08Z</time>
      </trkpt>
      <trkpt lat="46.08087" lon="4.4179">
        <ele>698.8</ele>
        <time>2025-09-28T11:17:09Z</time>
      </trkpt>
      <trkpt lat="46.08086" lon="4.41793">
        <ele>699.2</ele>
        <time>2025-09-28T11:17:10Z</time>
      </trkpt>
      <trkpt lat="46.08085" lon="4.41795">
        <ele>699.2</ele>
        <time>2025-09-28T11:17:11Z</time>
      </trkpt>
      <trkpt lat="46.08083" lon="4.41797">
        <ele>699.2</ele>
        <time>2025-09-28T11:17:12Z</time>
      </trkpt>
      <trkpt lat="46.08082" lon="4.418">
        <ele>699.2</ele>
        <time>2025-09-28T11:17:13Z</time>
      </trkpt>
      <trkpt lat="46.08081" lon="4.41801">
        <ele>699.4</ele>
        <time>2025-09-28T11:17:14Z</time>
      </trkpt>
      <trkpt lat="46.08079" lon="4.41803">
        <ele>699.4</ele>
        <time>2025-09-28T11:17:15Z</time>
      </trkpt>
      <trkpt lat="46.08078" lon="4.41805">
        <ele>699.8</ele>
        <time>2025-09-28T11:17:16Z</time>
      </trkpt>
      <trkpt lat="46.08076" lon="4.41807">
        <ele>699.8</ele>
        <time>2025-09-28T11:17:17Z</time>
      </trkpt>
      <trkpt lat="46.08075" lon="4.41809">
        <ele>700.2</ele>
        <time>2025-09-28T11:17:18Z</time>
      </trkpt>
      <trkpt lat="46.08073" lon="4.41811">
        <ele>700.2</ele>
        <time>2025-09-28T11:17:19Z</time>
      </trkpt>
      <trkpt lat="46.08072" lon="4.41813">
        <ele>700.2</ele>
        <time>2025-09-28T11:17:20Z</time>
      </trkpt>
      <trkpt lat="46.0807" lon="4.41815">
        <ele>700.2</ele>
        <time>2025-09-28T11:17:21Z</time>
      </trkpt>
      <trkpt lat="46.08068" lon="4.41817">
        <ele>700.2</ele>
        <time>2025-09-28T11:17:22Z</time>
      </trkpt>
      <trkpt lat="46.08067" lon="4.41819">
        <ele>700.6</ele>
        <time>2025-09-28T11:17:23Z</time>
      </trkpt>
      <trkpt lat="46.08065" lon="4.41821">
        <ele>700.6</ele>
        <time>2025-09-28T11:17:24Z</time>
      </trkpt>
      <trkpt lat="46.08064" lon="4.41823">
        <ele>700.6</ele>
        <time>2025-09-28T11:17:25Z</time>
      </trkpt>
      <trkpt lat="46.08063" lon="4.41825">
        <ele>701</ele>
        <time>2025-09-28T11:17:26Z</time>
      </trkpt>
      <trkpt lat="46.08061" lon="4.41827">
        <ele>701</ele>
        <time>2025-09-28T11:17:27Z</time>
      </trkpt>
      <trkpt lat="46.0806" lon="4.41829">
        <ele>701</ele>
        <time>2025-09-28T11:17:28Z</time>
      </trkpt>
      <trkpt lat="46.08058" lon="4.41831">
        <ele>701.2</ele>
        <time>2025-09-28T11:17:29Z</time>
      </trkpt>
      <trkpt lat="46.08056" lon="4.41832">
        <ele>701.4</ele>
        <time>2025-09-28T11:17:30Z</time>
      </trkpt>
      <trkpt lat="46.08054" lon="4.41834">
        <ele>701.4</ele>
        <time>2025-09-28T11:17:31Z</time>
      </trkpt>
      <trkpt lat="46.08054" lon="4.41834">
        <ele>701.4</ele>
        <time>2025-09-28T11:17:32Z</time>
      </trkpt>
      <trkpt lat="46.08053" lon="4.41836">
        <ele>701.4</ele>
        <time>2025-09-28T11:17:33Z</time>
      </trkpt>
      <trkpt lat="46.08051" lon="4.41838">
        <ele>701.8</ele>
        <time>2025-09-28T11:17:34Z</time>
      </trkpt>
      <trkpt lat="46.0805" lon="4.4184">
        <ele>702</ele>
        <time>2025-09-28T11:17:35Z</time>
      </trkpt>
      <trkpt lat="46.08048" lon="4.41842">
        <ele>702</ele>
        <time>2025-09-28T11:17:36Z</time>
      </trkpt>
      <trkpt lat="46.08047" lon="4.41844">
        <ele>702.2</ele>
        <time>2025-09-28T11:17:37Z</time>
      </trkpt>
      <trkpt lat="46.08045" lon="4.41846">
        <ele>702.2</ele>
        <time>2025-09-28T11:17:38Z</time>
      </trkpt>
      <trkpt lat="46.08044" lon="4.41848">
        <ele>702.6</ele>
        <time>2025-09-28T11:17:39Z</time>
      </trkpt>
      <trkpt lat="46.08042" lon="4.4185">
        <ele>702.6</ele>
        <time>2025-09-28T11:17:40Z</time>
      </trkpt>
      <trkpt lat="46.08041" lon="4.41852">
        <ele>702.6</ele>
        <time>2025-09-28T11:17:41Z</time>
      </trkpt>
      <trkpt lat="46.08039" lon="4.41854">
        <ele>702.8</ele>
        <time>2025-09-28T11:17:42Z</time>
      </trkpt>
      <trkpt lat="46.08037" lon="4.41856">
        <ele>702.8</ele>
        <time>2025-09-28T11:17:43Z</time>
      </trkpt>
      <trkpt lat="46.08036" lon="4.41859">
        <ele>702.8</ele>
        <time>2025-09-28T11:17:44Z</time>
      </trkpt>
      <trkpt lat="46.08034" lon="4.41861">
        <ele>702.8</ele>
        <time>2025-09-28T11:17:45Z</time>
      </trkpt>
      <trkpt lat="46.08033" lon="4.41864">
        <ele>703.2</ele>
        <time>2025-09-28T11:17:46Z</time>
      </trkpt>
      <trkpt lat="46.08031" lon="4.41866">
        <ele>703.2</ele>
        <time>2025-09-28T11:17:47Z</time>
      </trkpt>
      <trkpt lat="46.08029" lon="4.41869">
        <ele>703.4</ele>
        <time>2025-09-28T11:17:48Z</time>
      </trkpt>
      <trkpt lat="46.08028" lon="4.41871">
        <ele>703.4</ele>
        <time>2025-09-28T11:17:49Z</time>
      </trkpt>
      <trkpt lat="46.08026" lon="4.41873">
        <ele>703.4</ele>
        <time>2025-09-28T11:17:50Z</time>
      </trkpt>
      <trkpt lat="46.08024" lon="4.41875">
        <ele>703.4</ele>
        <time>2025-09-28T11:17:51Z</time>
      </trkpt>
      <trkpt lat="46.08022" lon="4.41877">
        <ele>703.4</ele>
        <time>2025-09-28T11:17:52Z</time>
      </trkpt>
      <trkpt lat="46.0802" lon="4.4188">
        <ele>703.4</ele>
        <time>2025-09-28T11:17:53Z</time>
      </trkpt>
      <trkpt lat="46.08019" lon="4.41882">
        <ele>703.8</ele>
        <time>2025-09-28T11:17:54Z</time>
      </trkpt>
      <trkpt lat="46.08018" lon="4.41885">
        <ele>704</ele>
        <time>2025-09-28T11:17:55Z</time>
      </trkpt>
      <trkpt lat="46.08017" lon="4.41887">
        <ele>704</ele>
        <time>2025-09-28T11:17:56Z</time>
      </trkpt>
      <trkpt lat="46.08015" lon="4.4189">
        <ele>704</ele>
        <time>2025-09-28T11:17:57Z</time>
      </trkpt>
      <trkpt lat="46.08014" lon="4.41893">
        <ele>704.2</ele>
        <time>2025-09-28T11:17:58Z</time>
      </trkpt>
      <trkpt lat="46.08012" lon="4.41895">
        <ele>704.2</ele>
        <time>2025-09-28T11:17:59Z</time>
      </trkpt>
      <trkpt lat="46.08011" lon="4.41898">
        <ele>704.6</ele>
        <time>2025-09-28T11:18:00Z</time>
      </trkpt>
      <trkpt lat="46.0801" lon="4.419">
        <ele>704.6</ele>
        <time>2025-09-28T11:18:01Z</time>
      </trkpt>
      <trkpt lat="46.08008" lon="4.41903">
        <ele>704.6</ele>
        <time>2025-09-28T11:18:02Z</time>
      </trkpt>
      <trkpt lat="46.08007" lon="4.41905">
        <ele>704.6</ele>
        <time>2025-09-28T11:18:03Z</time>
      </trkpt>
      <trkpt lat="46.08006" lon="4.41908">
        <ele>704.8</ele>
        <time>2025-09-28T11:18:04Z</time>
      </trkpt>
      <trkpt lat="46.08004" lon="4.4191">
        <ele>704.8</ele>
        <time>2025-09-28T11:18:05Z</time>
      </trkpt>
      <trkpt lat="46.08003" lon="4.41912">
        <ele>704.8</ele>
        <time>2025-09-28T11:18:06Z</time>
      </trkpt>
      <trkpt lat="46.08001" lon="4.41915">
        <ele>705.2</ele>
        <time>2025-09-28T11:18:07Z</time>
      </trkpt>
      <trkpt lat="46.08" lon="4.41917">
        <ele>705.2</ele>
        <time>2025-09-28T11:18:08Z</time>
      </trkpt>
      <trkpt lat="46.07998" lon="4.4192">
        <ele>705.6</ele>
        <time>2025-09-28T11:18:09Z</time>
      </trkpt>
      <trkpt lat="46.07997" lon="4.41922">
        <ele>705.6</ele>
        <time>2025-09-28T11:18:10Z</time>
      </trkpt>
      <trkpt lat="46.07996" lon="4.41925">
        <ele>705.6</ele>
        <time>2025-09-28T11:18:11Z</time>
      </trkpt>
      <trkpt lat="46.07994" lon="4.41928">
        <ele>705.6</ele>
        <time>2025-09-28T11:18:12Z</time>
      </trkpt>
      <trkpt lat="46.07993" lon="4.4193">
        <ele>705.8</ele>
        <time>2025-09-28T11:18:13Z</time>
      </trkpt>
      <trkpt lat="46.07992" lon="4.41933">
        <ele>705.8</ele>
        <time>2025-09-28T11:18:14Z</time>
      </trkpt>
      <trkpt lat="46.0799" lon="4.41936">
        <ele>705.8</ele>
        <time>2025-09-28T11:18:15Z</time>
      </trkpt>
      <trkpt lat="46.07989" lon="4.41938">
        <ele>706</ele>
        <time>2025-09-28T11:18:16Z</time>
      </trkpt>
      <trkpt lat="46.07987" lon="4.41941">
        <ele>706</ele>
        <time>2025-09-28T11:18:17Z</time>
      </trkpt>
      <trkpt lat="46.07986" lon="4.41944">
        <ele>706</ele>
        <time>2025-09-28T11:18:18Z</time>
      </trkpt>
      <trkpt lat="46.07985" lon="4.41946">
        <ele>706.2</ele>
        <time>2025-09-28T11:18:19Z</time>
      </trkpt>
      <trkpt lat="46.07984" lon="4.41949">
        <ele>706.2</ele>
        <time>2025-09-28T11:18:20Z</time>
      </trkpt>
      <trkpt lat="46.07983" lon="4.41952">
        <ele>706.2</ele>
        <time>2025-09-28T11:18:21Z</time>
      </trkpt>
      <trkpt lat="46.07982" lon="4.41955">
        <ele>706.6</ele>
        <time>2025-09-28T11:18:22Z</time>
      </trkpt>
      <trkpt lat="46.07981" lon="4.41958">
        <ele>706.6</ele>
        <time>2025-09-28T11:18:23Z</time>
      </trkpt>
      <trkpt lat="46.07979" lon="4.4196">
        <ele>707</ele>
        <time>2025-09-28T11:18:24Z</time>
      </trkpt>
      <trkpt lat="46.07978" lon="4.41963">
        <ele>707</ele>
        <time>2025-09-28T11:18:25Z</time>
      </trkpt>
      <trkpt lat="46.07978" lon="4.41966">
        <ele>707</ele>
        <time>2025-09-28T11:18:26Z</time>
      </trkpt>
      <trkpt lat="46.07977" lon="4.41969">
        <ele>707.2</ele>
        <time>2025-09-28T11:18:27Z</time>
      </trkpt>
      <trkpt lat="46.07976" lon="4.41972">
        <ele>707.2</ele>
        <time>2025-09-28T11:18:28Z</time>
      </trkpt>
      <trkpt lat="46.07975" lon="4.41975">
        <ele>707.2</ele>
        <time>2025-09-28T11:18:29Z</time>
      </trkpt>
      <trkpt lat="46.07974" lon="4.41978">
        <ele>707.6</ele>
        <time>2025-09-28T11:18:30Z</time>
      </trkpt>
      <trkpt lat="46.07973" lon="4.41981">
        <ele>707.6</ele>
        <time>2025-09-28T11:18:31Z</time>
      </trkpt>
      <trkpt lat="46.07972" lon="4.41984">
        <ele>707.6</ele>
        <time>2025-09-28T11:18:32Z</time>
      </trkpt>
      <trkpt lat="46.07971" lon="4.41987">
        <ele>707.8</ele>
        <time>2025-09-28T11:18:33Z</time>
      </trkpt>
      <trkpt lat="46.0797" lon="4.41991">
        <ele>707.8</ele>
        <time>2025-09-28T11:18:34Z</time>
      </trkpt>
      <trkpt lat="46.07969" lon="4.41994">
        <ele>707.8</ele>
        <time>2025-09-28T11:18:35Z</time>
      </trkpt>
      <trkpt lat="46.07968" lon="4.41997">
        <ele>708</ele>
        <time>2025-09-28T11:18:36Z</time>
      </trkpt>
      <trkpt lat="46.07968" lon="4.42001">
        <ele>708</ele>
        <time>2025-09-28T11:18:37Z</time>
      </trkpt>
      <trkpt lat="46.07967" lon="4.42004">
        <ele>708</ele>
        <time>2025-09-28T11:18:38Z</time>
      </trkpt>
      <trkpt lat="46.07966" lon="4.42007">
        <ele>708</ele>
        <time>2025-09-28T11:18:39Z</time>
      </trkpt>
      <trkpt lat="46.07965" lon="4.4201">
        <ele>708</ele>
        <time>2025-09-28T11:18:40Z</time>
      </trkpt>
      <trkpt lat="46.07964" lon="4.42013">
        <ele>708.4</ele>
        <time>2025-09-28T11:18:41Z</time>
      </trkpt>
      <trkpt lat="46.07964" lon="4.42016">
        <ele>708.4</ele>
        <time>2025-09-28T11:18:42Z</time>
      </trkpt>
      <trkpt lat="46.07963" lon="4.4202">
        <ele>708.6</ele>
        <time>2025-09-28T11:18:43Z</time>
      </trkpt>
      <trkpt lat="46.07963" lon="4.42023">
        <ele>708.6</ele>
        <time>2025-09-28T11:18:44Z</time>
      </trkpt>
      <trkpt lat="46.07963" lon="4.42026">
        <ele>708.6</ele>
        <time>2025-09-28T11:18:45Z</time>
      </trkpt>
      <trkpt lat="46.07962" lon="4.4203">
        <ele>708.6</ele>
        <time>2025-09-28T11:18:46Z</time>
      </trkpt>
      <trkpt lat="46.07961" lon="4.42033">
        <ele>708.6</ele>
        <time>2025-09-28T11:18:47Z</time>
      </trkpt>
      <trkpt lat="46.07961" lon="4.42036">
        <ele>708.6</ele>
        <time>2025-09-28T11:18:48Z</time>
      </trkpt>
      <trkpt lat="46.0796" lon="4.42039">
        <ele>708.2</ele>
        <time>2025-09-28T11:18:49Z</time>
      </trkpt>
      <trkpt lat="46.0796" lon="4.42043">
        <ele>709.2</ele>
        <time>2025-09-28T11:18:50Z</time>
      </trkpt>
      <trkpt lat="46.0796" lon="4.42046">
        <ele>709.4</ele>
        <time>2025-09-28T11:18:51Z</time>
      </trkpt>
      <trkpt lat="46.07959" lon="4.42049">
        <ele>709.6</ele>
        <time>2025-09-28T11:18:52Z</time>
      </trkpt>
      <trkpt lat="46.07959" lon="4.42052">
        <ele>709.2</ele>
        <time>2025-09-28T11:18:53Z</time>
      </trkpt>
      <trkpt lat="46.07958" lon="4.42056">
        <ele>709.2</ele>
        <time>2025-09-28T11:18:54Z</time>
      </trkpt>
      <trkpt lat="46.07958" lon="4.42059">
        <ele>710</ele>
        <time>2025-09-28T11:18:55Z</time>
      </trkpt>
      <trkpt lat="46.07958" lon="4.42063">
        <ele>710.4</ele>
        <time>2025-09-28T11:18:56Z</time>
      </trkpt>
      <trkpt lat="46.07957" lon="4.42066">
        <ele>710.4</ele>
        <time>2025-09-28T11:18:57Z</time>
      </trkpt>
      <trkpt lat="46.07956" lon="4.42069">
        <ele>710.4</ele>
        <time>2025-09-28T11:18:58Z</time>
      </trkpt>
      <trkpt lat="46.07956" lon="4.42072">
        <ele>710.4</ele>
        <time>2025-09-28T11:18:59Z</time>
      </trkpt>
      <trkpt lat="46.07955" lon="4.42076">
        <ele>710.4</ele>
        <time>2025-09-28T11:19:00Z</time>
      </trkpt>
      <trkpt lat="46.07954" lon="4.4208">
        <ele>710.4</ele>
        <time>2025-09-28T11:19:01Z</time>
      </trkpt>
      <trkpt lat="46.07954" lon="4.42083">
        <ele>710.4</ele>
        <time>2025-09-28T11:19:02Z</time>
      </trkpt>
      <trkpt lat="46.07953" lon="4.42087">
        <ele>710.6</ele>
        <time>2025-09-28T11:19:03Z</time>
      </trkpt>
      <trkpt lat="46.07953" lon="4.4209">
        <ele>710.6</ele>
        <time>2025-09-28T11:19:04Z</time>
      </trkpt>
      <trkpt lat="46.07953" lon="4.42094">
        <ele>710.6</ele>
        <time>2025-09-28T11:19:05Z</time>
      </trkpt>
      <trkpt lat="46.07952" lon="4.42098">
        <ele>710.6</ele>
        <time>2025-09-28T11:19:06Z</time>
      </trkpt>
      <trkpt lat="46.07952" lon="4.42101">
        <ele>710.8</ele>
        <time>2025-09-28T11:19:07Z</time>
      </trkpt>
      <trkpt lat="46.07951" lon="4.42105">
        <ele>710.8</ele>
        <time>2025-09-28T11:19:08Z</time>
      </trkpt>
      <trkpt lat="46.0795" lon="4.42109">
        <ele>710.8</ele>
        <time>2025-09-28T11:19:09Z</time>
      </trkpt>
      <trkpt lat="46.0795" lon="4.42113">
        <ele>710.8</ele>
        <time>2025-09-28T11:19:10Z</time>
      </trkpt>
      <trkpt lat="46.0795" lon="4.42118">
        <ele>710.8</ele>
        <time>2025-09-28T11:19:11Z</time>
      </trkpt>
      <trkpt lat="46.07949" lon="4.42122">
        <ele>710.8</ele>
        <time>2025-09-28T11:19:12Z</time>
      </trkpt>
      <trkpt lat="46.07949" lon="4.42126">
        <ele>710.8</ele>
        <time>2025-09-28T11:19:13Z</time>
      </trkpt>
      <trkpt lat="46.07948" lon="4.42131">
        <ele>710.8</ele>
        <time>2025-09-28T11:19:14Z</time>
      </trkpt>
      <trkpt lat="46.07947" lon="4.42136">
        <ele>710.8</ele>
        <time>2025-09-28T11:19:15Z</time>
      </trkpt>
      <trkpt lat="46.07946" lon="4.42141">
        <ele>710.8</ele>
        <time>2025-09-28T11:19:16Z</time>
      </trkpt>
      <trkpt lat="46.07945" lon="4.42145">
        <ele>710.8</ele>
        <time>2025-09-28T11:19:17Z</time>
      </trkpt>
      <trkpt lat="46.07945" lon="4.4215">
        <ele>710.8</ele>
        <time>2025-09-28T11:19:18Z</time>
      </trkpt>
      <trkpt lat="46.07944" lon="4.42155">
        <ele>710.8</ele>
        <time>2025-09-28T11:19:19Z</time>
      </trkpt>
      <trkpt lat="46.07944" lon="4.4216">
        <ele>710.8</ele>
        <time>2025-09-28T11:19:20Z</time>
      </trkpt>
      <trkpt lat="46.07945" lon="4.42164">
        <ele>710.8</ele>
        <time>2025-09-28T11:19:21Z</time>
      </trkpt>
      <trkpt lat="46.07946" lon="4.42169">
        <ele>710.8</ele>
        <time>2025-09-28T11:19:22Z</time>
      </trkpt>
      <trkpt lat="46.07948" lon="4.42174">
        <ele>710.8</ele>
        <time>2025-09-28T11:19:23Z</time>
      </trkpt>
      <trkpt lat="46.0795" lon="4.42177">
        <ele>710.8</ele>
        <time>2025-09-28T11:19:24Z</time>
      </trkpt>
      <trkpt lat="46.07954" lon="4.42179">
        <ele>710.8</ele>
        <time>2025-09-28T11:19:25Z</time>
      </trkpt>
      <trkpt lat="46.07957" lon="4.42178">
        <ele>711.2</ele>
        <time>2025-09-28T11:19:26Z</time>
      </trkpt>
      <trkpt lat="46.0796" lon="4.42177">
        <ele>711.6</ele>
        <time>2025-09-28T11:19:27Z</time>
      </trkpt>
      <trkpt lat="46.07963" lon="4.42175">
        <ele>711.6</ele>
        <time>2025-09-28T11:19:28Z</time>
      </trkpt>
      <trkpt lat="46.07966" lon="4.42173">
        <ele>711.6</ele>
        <time>2025-09-28T11:19:29Z</time>
      </trkpt>
      <trkpt lat="46.07969" lon="4.42171">
        <ele>712</ele>
        <time>2025-09-28T11:19:30Z</time>
      </trkpt>
      <trkpt lat="46.07971" lon="4.42169">
        <ele>712</ele>
        <time>2025-09-28T11:19:31Z</time>
      </trkpt>
      <trkpt lat="46.07974" lon="4.42167">
        <ele>712</ele>
        <time>2025-09-28T11:19:32Z</time>
      </trkpt>
      <trkpt lat="46.07977" lon="4.42165">
        <ele>712</ele>
        <time>2025-09-28T11:19:33Z</time>
      </trkpt>
      <trkpt lat="46.0798" lon="4.42163">
        <ele>712.4</ele>
        <time>2025-09-28T11:19:34Z</time>
      </trkpt>
      <trkpt lat="46.07982" lon="4.42162">
        <ele>712.4</ele>
        <time>2025-09-28T11:19:35Z</time>
      </trkpt>
      <trkpt lat="46.07985" lon="4.4216">
        <ele>712.8</ele>
        <time>2025-09-28T11:19:36Z</time>
      </trkpt>
      <trkpt lat="46.07987" lon="4.42158">
        <ele>713</ele>
        <time>2025-09-28T11:19:37Z</time>
      </trkpt>
      <trkpt lat="46.0799" lon="4.42157">
        <ele>713</ele>
        <time>2025-09-28T11:19:38Z</time>
      </trkpt>
      <trkpt lat="46.07992" lon="4.42156">
        <ele>713.4</ele>
        <time>2025-09-28T11:19:39Z</time>
      </trkpt>
      <trkpt lat="46.07994" lon="4.42155">
        <ele>713.4</ele>
        <time>2025-09-28T11:19:40Z</time>
      </trkpt>
      <trkpt lat="46.07996" lon="4.42153">
        <ele>713.8</ele>
        <time>2025-09-28T11:19:41Z</time>
      </trkpt>
      <trkpt lat="46.07998" lon="4.42152">
        <ele>714</ele>
        <time>2025-09-28T11:19:42Z</time>
      </trkpt>
      <trkpt lat="46.08" lon="4.4215">
        <ele>714.2</ele>
        <time>2025-09-28T11:19:43Z</time>
      </trkpt>
      <trkpt lat="46.08002" lon="4.42149">
        <ele>714.6</ele>
        <time>2025-09-28T11:19:44Z</time>
      </trkpt>
      <trkpt lat="46.08004" lon="4.42147">
        <ele>714.8</ele>
        <time>2025-09-28T11:19:45Z</time>
      </trkpt>
      <trkpt lat="46.08005" lon="4.42145">
        <ele>714.8</ele>
        <time>2025-09-28T11:19:46Z</time>
      </trkpt>
      <trkpt lat="46.08006" lon="4.42143">
        <ele>715.2</ele>
        <time>2025-09-28T11:19:47Z</time>
      </trkpt>
      <trkpt lat="46.08007" lon="4.42141">
        <ele>715.6</ele>
        <time>2025-09-28T11:19:48Z</time>
      </trkpt>
      <trkpt lat="46.08009" lon="4.42139">
        <ele>715.8</ele>
        <time>2025-09-28T11:19:49Z</time>
      </trkpt>
      <trkpt lat="46.0801" lon="4.42137">
        <ele>716.2</ele>
        <time>2025-09-28T11:19:50Z</time>
      </trkpt>
      <trkpt lat="46.08011" lon="4.42135">
        <ele>715.2</ele>
        <time>2025-09-28T11:19:51Z</time>
      </trkpt>
      <trkpt lat="46.08012" lon="4.42134">
        <ele>715.8</ele>
        <time>2025-09-28T11:19:52Z</time>
      </trkpt>
      <trkpt lat="46.08013" lon="4.42132">
        <ele>716.2</ele>
        <time>2025-09-28T11:19:53Z</time>
      </trkpt>
      <trkpt lat="46.08014" lon="4.4213">
        <ele>716.4</ele>
        <time>2025-09-28T11:19:54Z</time>
      </trkpt>
      <trkpt lat="46.08015" lon="4.42128">
        <ele>716.8</ele>
        <time>2025-09-28T11:19:55Z</time>
      </trkpt>
      <trkpt lat="46.08016" lon="4.42125">
        <ele>717</ele>
        <time>2025-09-28T11:19:56Z</time>
      </trkpt>
      <trkpt lat="46.08016" lon="4.42123">
        <ele>717</ele>
        <time>2025-09-28T11:19:57Z</time>
      </trkpt>
      <trkpt lat="46.08017" lon="4.42122">
        <ele>717.2</ele>
        <time>2025-09-28T11:19:58Z</time>
      </trkpt>
      <trkpt lat="46.08018" lon="4.4212">
        <ele>717.4</ele>
        <time>2025-09-28T11:19:59Z</time>
      </trkpt>
      <trkpt lat="46.08019" lon="4.42118">
        <ele>717.4</ele>
        <time>2025-09-28T11:20:00Z</time>
      </trkpt>
      <trkpt lat="46.0802" lon="4.42116">
        <ele>717.8</ele>
        <time>2025-09-28T11:20:01Z</time>
      </trkpt>
      <trkpt lat="46.08021" lon="4.42113">
        <ele>718.2</ele>
        <time>2025-09-28T11:20:02Z</time>
      </trkpt>
      <trkpt lat="46.08021" lon="4.42111">
        <ele>718.4</ele>
        <time>2025-09-28T11:20:03Z</time>
      </trkpt>
      <trkpt lat="46.08022" lon="4.42108">
        <ele>718.4</ele>
        <time>2025-09-28T11:20:04Z</time>
      </trkpt>
      <trkpt lat="46.08023" lon="4.42106">
        <ele>718.6</ele>
        <time>2025-09-28T11:20:05Z</time>
      </trkpt>
      <trkpt lat="46.08024" lon="4.42104">
        <ele>718.8</ele>
        <time>2025-09-28T11:20:06Z</time>
      </trkpt>
      <trkpt lat="46.08025" lon="4.42102">
        <ele>719.2</ele>
        <time>2025-09-28T11:20:07Z</time>
      </trkpt>
      <trkpt lat="46.08026" lon="4.421">
        <ele>719.4</ele>
        <time>2025-09-28T11:20:08Z</time>
      </trkpt>
      <trkpt lat="46.08027" lon="4.42098">
        <ele>719.6</ele>
        <time>2025-09-28T11:20:09Z</time>
      </trkpt>
      <trkpt lat="46.08028" lon="4.42096">
        <ele>719.6</ele>
        <time>2025-09-28T11:20:10Z</time>
      </trkpt>
      <trkpt lat="46.08029" lon="4.42093">
        <ele>719.6</ele>
        <time>2025-09-28T11:20:11Z</time>
      </trkpt>
      <trkpt lat="46.0803" lon="4.42091">
        <ele>720</ele>
        <time>2025-09-28T11:20:12Z</time>
      </trkpt>
      <trkpt lat="46.08031" lon="4.42089">
        <ele>720</ele>
        <time>2025-09-28T11:20:13Z</time>
      </trkpt>
      <trkpt lat="46.08032" lon="4.42087">
        <ele>720.4</ele>
        <time>2025-09-28T11:20:14Z</time>
      </trkpt>
      <trkpt lat="46.08033" lon="4.42084">
        <ele>720.6</ele>
        <time>2025-09-28T11:20:15Z</time>
      </trkpt>
      <trkpt lat="46.08034" lon="4.42082">
        <ele>720.6</ele>
        <time>2025-09-28T11:20:16Z</time>
      </trkpt>
      <trkpt lat="46.08035" lon="4.4208">
        <ele>721</ele>
        <time>2025-09-28T11:20:17Z</time>
      </trkpt>
      <trkpt lat="46.08036" lon="4.42078">
        <ele>721</ele>
        <time>2025-09-28T11:20:18Z</time>
      </trkpt>
      <trkpt lat="46.08037" lon="4.42077">
        <ele>721.2</ele>
        <time>2025-09-28T11:20:19Z</time>
      </trkpt>
      <trkpt lat="46.08038" lon="4.42075">
        <ele>721.2</ele>
        <time>2025-09-28T11:20:20Z</time>
      </trkpt>
      <trkpt lat="46.08039" lon="4.42074">
        <ele>721.2</ele>
        <time>2025-09-28T11:20:21Z</time>
      </trkpt>
      <trkpt lat="46.08041" lon="4.42072">
        <ele>721.4</ele>
        <time>2025-09-28T11:20:22Z</time>
      </trkpt>
      <trkpt lat="46.08042" lon="4.4207">
        <ele>721.6</ele>
        <time>2025-09-28T11:20:23Z</time>
      </trkpt>
      <trkpt lat="46.08043" lon="4.42068">
        <ele>722</ele>
        <time>2025-09-28T11:20:24Z</time>
      </trkpt>
      <trkpt lat="46.08044" lon="4.42066">
        <ele>722.2</ele>
        <time>2025-09-28T11:20:25Z</time>
      </trkpt>
      <trkpt lat="46.08045" lon="4.42064">
        <ele>722.4</ele>
        <time>2025-09-28T11:20:26Z</time>
      </trkpt>
      <trkpt lat="46.08047" lon="4.42062">
        <ele>722.8</ele>
        <time>2025-09-28T11:20:27Z</time>
      </trkpt>
      <trkpt lat="46.08048" lon="4.42061">
        <ele>722.8</ele>
        <time>2025-09-28T11:20:28Z</time>
      </trkpt>
      <trkpt lat="46.08049" lon="4.42059">
        <ele>723</ele>
        <time>2025-09-28T11:20:29Z</time>
      </trkpt>
      <trkpt lat="46.0805" lon="4.42057">
        <ele>723</ele>
        <time>2025-09-28T11:20:30Z</time>
      </trkpt>
      <trkpt lat="46.08051" lon="4.42055">
        <ele>723</ele>
        <time>2025-09-28T11:20:31Z</time>
      </trkpt>
      <trkpt lat="46.08052" lon="4.42053">
        <ele>723.2</ele>
        <time>2025-09-28T11:20:32Z</time>
      </trkpt>
      <trkpt lat="46.08053" lon="4.42051">
        <ele>723.2</ele>
        <time>2025-09-28T11:20:33Z</time>
      </trkpt>
      <trkpt lat="46.08055" lon="4.42049">
        <ele>723.2</ele>
        <time>2025-09-28T11:20:34Z</time>
      </trkpt>
      <trkpt lat="46.08057" lon="4.42048">
        <ele>723.6</ele>
        <time>2025-09-28T11:20:35Z</time>
      </trkpt>
      <trkpt lat="46.08058" lon="4.42046">
        <ele>723.6</ele>
        <time>2025-09-28T11:20:36Z</time>
      </trkpt>
      <trkpt lat="46.0806" lon="4.42044">
        <ele>723.8</ele>
        <time>2025-09-28T11:20:37Z</time>
      </trkpt>
      <trkpt lat="46.08063" lon="4.42041">
        <ele>723.8</ele>
        <time>2025-09-28T11:20:38Z</time>
      </trkpt>
      <trkpt lat="46.08064" lon="4.42039">
        <ele>724</ele>
        <time>2025-09-28T11:20:39Z</time>
      </trkpt>
      <trkpt lat="46.08066" lon="4.42037">
        <ele>724</ele>
        <time>2025-09-28T11:20:40Z</time>
      </trkpt>
      <trkpt lat="46.08067" lon="4.42034">
        <ele>724.4</ele>
        <time>2025-09-28T11:20:41Z</time>
      </trkpt>
      <trkpt lat="46.08068" lon="4.42032">
        <ele>724.4</ele>
        <time>2025-09-28T11:20:42Z</time>
      </trkpt>
      <trkpt lat="46.08069" lon="4.4203">
        <ele>724.4</ele>
        <time>2025-09-28T11:20:43Z</time>
      </trkpt>
      <trkpt lat="46.08071" lon="4.42028">
        <ele>724.4</ele>
        <time>2025-09-28T11:20:44Z</time>
      </trkpt>
      <trkpt lat="46.08072" lon="4.42026">
        <ele>724.6</ele>
        <time>2025-09-28T11:20:45Z</time>
      </trkpt>
      <trkpt lat="46.08074" lon="4.42024">
        <ele>724.6</ele>
        <time>2025-09-28T11:20:46Z</time>
      </trkpt>
      <trkpt lat="46.08075" lon="4.42023">
        <ele>725.2</ele>
        <time>2025-09-28T11:20:47Z</time>
      </trkpt>
      <trkpt lat="46.08077" lon="4.42021">
        <ele>725.2</ele>
        <time>2025-09-28T11:20:48Z</time>
      </trkpt>
      <trkpt lat="46.08078" lon="4.42019">
        <ele>725.4</ele>
        <time>2025-09-28T11:20:49Z</time>
      </trkpt>
      <trkpt lat="46.08079" lon="4.42018">
        <ele>725.4</ele>
        <time>2025-09-28T11:20:50Z</time>
      </trkpt>
      <trkpt lat="46.08081" lon="4.42016">
        <ele>725.6</ele>
        <time>2025-09-28T11:20:51Z</time>
      </trkpt>
      <trkpt lat="46.08082" lon="4.42014">
        <ele>725.6</ele>
        <time>2025-09-28T11:20:52Z</time>
      </trkpt>
      <trkpt lat="46.08084" lon="4.42012">
        <ele>725.6</ele>
        <time>2025-09-28T11:20:53Z</time>
      </trkpt>
      <trkpt lat="46.08085" lon="4.4201">
        <ele>725.6</ele>
        <time>2025-09-28T11:20:54Z</time>
      </trkpt>
      <trkpt lat="46.08087" lon="4.42009">
        <ele>725.8</ele>
        <time>2025-09-28T11:20:55Z</time>
      </trkpt>
      <trkpt lat="46.08088" lon="4.42008">
        <ele>726</ele>
        <time>2025-09-28T11:20:56Z</time>
      </trkpt>
      <trkpt lat="46.0809" lon="4.42007">
        <ele>726</ele>
        <time>2025-09-28T11:20:57Z</time>
      </trkpt>
      <trkpt lat="46.08091" lon="4.42005">
        <ele>726.4</ele>
        <time>2025-09-28T11:20:58Z</time>
      </trkpt>
      <trkpt lat="46.08092" lon="4.42004">
        <ele>726.4</ele>
        <time>2025-09-28T11:20:59Z</time>
      </trkpt>
      <trkpt lat="46.08094" lon="4.42002">
        <ele>726.6</ele>
        <time>2025-09-28T11:21:00Z</time>
      </trkpt>
      <trkpt lat="46.08095" lon="4.42">
        <ele>726.6</ele>
        <time>2025-09-28T11:21:01Z</time>
      </trkpt>
      <trkpt lat="46.08097" lon="4.41999">
        <ele>726.6</ele>
        <time>2025-09-28T11:21:02Z</time>
      </trkpt>
      <trkpt lat="46.08098" lon="4.41997">
        <ele>726.8</ele>
        <time>2025-09-28T11:21:03Z</time>
      </trkpt>
      <trkpt lat="46.081" lon="4.41996">
        <ele>727</ele>
        <time>2025-09-28T11:21:04Z</time>
      </trkpt>
      <trkpt lat="46.08102" lon="4.41994">
        <ele>727</ele>
        <time>2025-09-28T11:21:05Z</time>
      </trkpt>
      <trkpt lat="46.08103" lon="4.41992">
        <ele>727.2</ele>
        <time>2025-09-28T11:21:06Z</time>
      </trkpt>
      <trkpt lat="46.08105" lon="4.41991">
        <ele>727.6</ele>
        <time>2025-09-28T11:21:07Z</time>
      </trkpt>
      <trkpt lat="46.08107" lon="4.41989">
        <ele>727.6</ele>
        <time>2025-09-28T11:21:08Z</time>
      </trkpt>
      <trkpt lat="46.08109" lon="4.41988">
        <ele>727.8</ele>
        <time>2025-09-28T11:21:09Z</time>
      </trkpt>
      <trkpt lat="46.08111" lon="4.41987">
        <ele>727.8</ele>
        <time>2025-09-28T11:21:10Z</time>
      </trkpt>
      <trkpt lat="46.08112" lon="4.41987">
        <ele>728</ele>
        <time>2025-09-28T11:21:11Z</time>
      </trkpt>
      <trkpt lat="46.08114" lon="4.41986">
        <ele>728.4</ele>
        <time>2025-09-28T11:21:12Z</time>
      </trkpt>
      <trkpt lat="46.08116" lon="4.41985">
        <ele>728.6</ele>
        <time>2025-09-28T11:21:13Z</time>
      </trkpt>
      <trkpt lat="46.08117" lon="4.41984">
        <ele>728.6</ele>
        <time>2025-09-28T11:21:14Z</time>
      </trkpt>
      <trkpt lat="46.08119" lon="4.41983">
        <ele>728.8</ele>
        <time>2025-09-28T11:21:15Z</time>
      </trkpt>
      <trkpt lat="46.08121" lon="4.41982">
        <ele>729</ele>
        <time>2025-09-28T11:21:16Z</time>
      </trkpt>
      <trkpt lat="46.08122" lon="4.41981">
        <ele>729</ele>
        <time>2025-09-28T11:21:17Z</time>
      </trkpt>
      <trkpt lat="46.08124" lon="4.4198">
        <ele>729.4</ele>
        <time>2025-09-28T11:21:18Z</time>
      </trkpt>
      <trkpt lat="46.08126" lon="4.41979">
        <ele>729.4</ele>
        <time>2025-09-28T11:21:19Z</time>
      </trkpt>
      <trkpt lat="46.08127" lon="4.41978">
        <ele>729.8</ele>
        <time>2025-09-28T11:21:20Z</time>
      </trkpt>
      <trkpt lat="46.08129" lon="4.41978">
        <ele>729.8</ele>
        <time>2025-09-28T11:21:21Z</time>
      </trkpt>
      <trkpt lat="46.08131" lon="4.41977">
        <ele>730.2</ele>
        <time>2025-09-28T11:21:22Z</time>
      </trkpt>
      <trkpt lat="46.08133" lon="4.41977">
        <ele>730.4</ele>
        <time>2025-09-28T11:21:23Z</time>
      </trkpt>
      <trkpt lat="46.08135" lon="4.41976">
        <ele>730.4</ele>
        <time>2025-09-28T11:21:24Z</time>
      </trkpt>
      <trkpt lat="46.08136" lon="4.41975">
        <ele>730.4</ele>
        <time>2025-09-28T11:21:25Z</time>
      </trkpt>
      <trkpt lat="46.08138" lon="4.41974">
        <ele>730.6</ele>
        <time>2025-09-28T11:21:26Z</time>
      </trkpt>
      <trkpt lat="46.0814" lon="4.41973">
        <ele>730.6</ele>
        <time>2025-09-28T11:21:27Z</time>
      </trkpt>
      <trkpt lat="46.08141" lon="4.41971">
        <ele>730.6</ele>
        <time>2025-09-28T11:21:28Z</time>
      </trkpt>
      <trkpt lat="46.08143" lon="4.4197">
        <ele>731</ele>
        <time>2025-09-28T11:21:29Z</time>
      </trkpt>
      <trkpt lat="46.08145" lon="4.41969">
        <ele>731</ele>
        <time>2025-09-28T11:21:30Z</time>
      </trkpt>
      <trkpt lat="46.08146" lon="4.41968">
        <ele>731.4</ele>
        <time>2025-09-28T11:21:31Z</time>
      </trkpt>
      <trkpt lat="46.08148" lon="4.41967">
        <ele>731.4</ele>
        <time>2025-09-28T11:21:32Z</time>
      </trkpt>
      <trkpt lat="46.0815" lon="4.41966">
        <ele>731.6</ele>
        <time>2025-09-28T11:21:33Z</time>
      </trkpt>
      <trkpt lat="46.08152" lon="4.41966">
        <ele>731.6</ele>
        <time>2025-09-28T11:21:34Z</time>
      </trkpt>
      <trkpt lat="46.08154" lon="4.41965">
        <ele>731.8</ele>
        <time>2025-09-28T11:21:35Z</time>
      </trkpt>
      <trkpt lat="46.08156" lon="4.41964">
        <ele>731.8</ele>
        <time>2025-09-28T11:21:36Z</time>
      </trkpt>
      <trkpt lat="46.08157" lon="4.41963">
        <ele>731.8</ele>
        <time>2025-09-28T11:21:37Z</time>
      </trkpt>
      <trkpt lat="46.08159" lon="4.41962">
        <ele>732.2</ele>
        <time>2025-09-28T11:21:38Z</time>
      </trkpt>
      <trkpt lat="46.08161" lon="4.41961">
        <ele>732.2</ele>
        <time>2025-09-28T11:21:39Z</time>
      </trkpt>
      <trkpt lat="46.08163" lon="4.4196">
        <ele>732.2</ele>
        <time>2025-09-28T11:21:40Z</time>
      </trkpt>
      <trkpt lat="46.08165" lon="4.41959">
        <ele>732.4</ele>
        <time>2025-09-28T11:21:41Z</time>
      </trkpt>
      <trkpt lat="46.08167" lon="4.41959">
        <ele>732.4</ele>
        <time>2025-09-28T11:21:42Z</time>
      </trkpt>
      <trkpt lat="46.08169" lon="4.41958">
        <ele>732.8</ele>
        <time>2025-09-28T11:21:43Z</time>
      </trkpt>
      <trkpt lat="46.0817" lon="4.41957">
        <ele>732.8</ele>
        <time>2025-09-28T11:21:44Z</time>
      </trkpt>
      <trkpt lat="46.08172" lon="4.41956">
        <ele>733.2</ele>
        <time>2025-09-28T11:21:45Z</time>
      </trkpt>
      <trkpt lat="46.08174" lon="4.41955">
        <ele>733.4</ele>
        <time>2025-09-28T11:21:46Z</time>
      </trkpt>
      <trkpt lat="46.08176" lon="4.41954">
        <ele>733.4</ele>
        <time>2025-09-28T11:21:47Z</time>
      </trkpt>
      <trkpt lat="46.08177" lon="4.41954">
        <ele>733.4</ele>
        <time>2025-09-28T11:21:48Z</time>
      </trkpt>
      <trkpt lat="46.08179" lon="4.41953">
        <ele>733.4</ele>
        <time>2025-09-28T11:21:49Z</time>
      </trkpt>
      <trkpt lat="46.08181" lon="4.41952">
        <ele>733.6</ele>
        <time>2025-09-28T11:21:50Z</time>
      </trkpt>
      <trkpt lat="46.08183" lon="4.41951">
        <ele>733.6</ele>
        <time>2025-09-28T11:21:51Z</time>
      </trkpt>
      <trkpt lat="46.08184" lon="4.4195">
        <ele>734.2</ele>
        <time>2025-09-28T11:21:52Z</time>
      </trkpt>
      <trkpt lat="46.08186" lon="4.41949">
        <ele>734.4</ele>
        <time>2025-09-28T11:21:53Z</time>
      </trkpt>
      <trkpt lat="46.08187" lon="4.41949">
        <ele>734.4</ele>
        <time>2025-09-28T11:21:54Z</time>
      </trkpt>
      <trkpt lat="46.08189" lon="4.41948">
        <ele>734.6</ele>
        <time>2025-09-28T11:21:55Z</time>
      </trkpt>
      <trkpt lat="46.08191" lon="4.41947">
        <ele>734.6</ele>
        <time>2025-09-28T11:21:56Z</time>
      </trkpt>
      <trkpt lat="46.08192" lon="4.41946">
        <ele>734.6</ele>
        <time>2025-09-28T11:21:57Z</time>
      </trkpt>
      <trkpt lat="46.08193" lon="4.41945">
        <ele>735</ele>
        <time>2025-09-28T11:21:58Z</time>
      </trkpt>
      <trkpt lat="46.08195" lon="4.41944">
        <ele>735</ele>
        <time>2025-09-28T11:21:59Z</time>
      </trkpt>
      <trkpt lat="46.08197" lon="4.41942">
        <ele>735.4</ele>
        <time>2025-09-28T11:22:00Z</time>
      </trkpt>
      <trkpt lat="46.08198" lon="4.41941">
        <ele>735.4</ele>
        <time>2025-09-28T11:22:01Z</time>
      </trkpt>
      <trkpt lat="46.082" lon="4.41941">
        <ele>735.6</ele>
        <time>2025-09-28T11:22:02Z</time>
      </trkpt>
      <trkpt lat="46.08202" lon="4.4194">
        <ele>735.6</ele>
        <time>2025-09-28T11:22:03Z</time>
      </trkpt>
      <trkpt lat="46.08203" lon="4.41939">
        <ele>736</ele>
        <time>2025-09-28T11:22:04Z</time>
      </trkpt>
      <trkpt lat="46.08205" lon="4.41938">
        <ele>736</ele>
        <time>2025-09-28T11:22:05Z</time>
      </trkpt>
      <trkpt lat="46.08206" lon="4.41936">
        <ele>736.4</ele>
        <time>2025-09-28T11:22:06Z</time>
      </trkpt>
      <trkpt lat="46.08208" lon="4.41935">
        <ele>736.4</ele>
        <time>2025-09-28T11:22:07Z</time>
      </trkpt>
      <trkpt lat="46.08209" lon="4.41934">
        <ele>736.6</ele>
        <time>2025-09-28T11:22:08Z</time>
      </trkpt>
      <trkpt lat="46.08211" lon="4.41932">
        <ele>736.6</ele>
        <time>2025-09-28T11:22:09Z</time>
      </trkpt>
      <trkpt lat="46.08212" lon="4.4193">
        <ele>736.8</ele>
        <time>2025-09-28T11:22:10Z</time>
      </trkpt>
      <trkpt lat="46.08214" lon="4.41928">
        <ele>736.8</ele>
        <time>2025-09-28T11:22:11Z</time>
      </trkpt>
      <trkpt lat="46.08215" lon="4.41927">
        <ele>737</ele>
        <time>2025-09-28T11:22:12Z</time>
      </trkpt>
      <trkpt lat="46.08217" lon="4.41926">
        <ele>737</ele>
        <time>2025-09-28T11:22:13Z</time>
      </trkpt>
      <trkpt lat="46.08218" lon="4.41924">
        <ele>737</ele>
        <time>2025-09-28T11:22:14Z</time>
      </trkpt>
      <trkpt lat="46.0822" lon="4.41923">
        <ele>737.4</ele>
        <time>2025-09-28T11:22:15Z</time>
      </trkpt>
      <trkpt lat="46.08221" lon="4.41922">
        <ele>737.6</ele>
        <time>2025-09-28T11:22:16Z</time>
      </trkpt>
      <trkpt lat="46.08223" lon="4.41921">
        <ele>737.6</ele>
        <time>2025-09-28T11:22:17Z</time>
      </trkpt>
      <trkpt lat="46.08225" lon="4.4192">
        <ele>737.8</ele>
        <time>2025-09-28T11:22:18Z</time>
      </trkpt>
      <trkpt lat="46.08227" lon="4.41919">
        <ele>737.8</ele>
        <time>2025-09-28T11:22:19Z</time>
      </trkpt>
      <trkpt lat="46.08228" lon="4.41918">
        <ele>738.2</ele>
        <time>2025-09-28T11:22:20Z</time>
      </trkpt>
      <trkpt lat="46.0823" lon="4.41918">
        <ele>738.4</ele>
        <time>2025-09-28T11:22:21Z</time>
      </trkpt>
      <trkpt lat="46.08231" lon="4.41917">
        <ele>738.6</ele>
        <time>2025-09-28T11:22:22Z</time>
      </trkpt>
      <trkpt lat="46.08233" lon="4.41916">
        <ele>739</ele>
        <time>2025-09-28T11:22:23Z</time>
      </trkpt>
      <trkpt lat="46.08235" lon="4.41916">
        <ele>739.4</ele>
        <time>2025-09-28T11:22:24Z</time>
      </trkpt>
      <trkpt lat="46.08237" lon="4.41916">
        <ele>739.6</ele>
        <time>2025-09-28T11:22:25Z</time>
      </trkpt>
      <trkpt lat="46.08239" lon="4.41916">
        <ele>739.8</ele>
        <time>2025-09-28T11:22:26Z</time>
      </trkpt>
      <trkpt lat="46.08241" lon="4.41915">
        <ele>739.8</ele>
        <time>2025-09-28T11:22:27Z</time>
      </trkpt>
      <trkpt lat="46.08242" lon="4.41915">
        <ele>740</ele>
        <time>2025-09-28T11:22:28Z</time>
      </trkpt>
      <trkpt lat="46.08244" lon="4.41915">
        <ele>740</ele>
        <time>2025-09-28T11:22:29Z</time>
      </trkpt>
      <trkpt lat="46.08246" lon="4.41915">
        <ele>740</ele>
        <time>2025-09-28T11:22:30Z</time>
      </trkpt>
      <trkpt lat="46.08248" lon="4.41915">
        <ele>740.4</ele>
        <time>2025-09-28T11:22:31Z</time>
      </trkpt>
      <trkpt lat="46.0825" lon="4.41916">
        <ele>740.4</ele>
        <time>2025-09-28T11:22:32Z</time>
      </trkpt>
      <trkpt lat="46.08252" lon="4.41916">
        <ele>740.6</ele>
        <time>2025-09-28T11:22:33Z</time>
      </trkpt>
      <trkpt lat="46.08254" lon="4.41916">
        <ele>740.6</ele>
        <time>2025-09-28T11:22:34Z</time>
      </trkpt>
      <trkpt lat="46.08255" lon="4.41917">
        <ele>740.6</ele>
        <time>2025-09-28T11:22:35Z</time>
      </trkpt>
      <trkpt lat="46.08257" lon="4.41917">
        <ele>740.6</ele>
        <time>2025-09-28T11:22:36Z</time>
      </trkpt>
      <trkpt lat="46.08259" lon="4.41917">
        <ele>740.8</ele>
        <time>2025-09-28T11:22:37Z</time>
      </trkpt>
      <trkpt lat="46.08261" lon="4.41916">
        <ele>740.8</ele>
        <time>2025-09-28T11:22:38Z</time>
      </trkpt>
      <trkpt lat="46.08262" lon="4.41916">
        <ele>741.2</ele>
        <time>2025-09-28T11:22:39Z</time>
      </trkpt>
      <trkpt lat="46.08264" lon="4.41916">
        <ele>741.2</ele>
        <time>2025-09-28T11:22:40Z</time>
      </trkpt>
      <trkpt lat="46.08266" lon="4.41916">
        <ele>741.4</ele>
        <time>2025-09-28T11:22:41Z</time>
      </trkpt>
      <trkpt lat="46.08268" lon="4.41916">
        <ele>741.4</ele>
        <time>2025-09-28T11:22:42Z</time>
      </trkpt>
      <trkpt lat="46.0827" lon="4.41917">
        <ele>741.8</ele>
        <time>2025-09-28T11:22:43Z</time>
      </trkpt>
      <trkpt lat="46.08271" lon="4.41917">
        <ele>741.8</ele>
        <time>2025-09-28T11:22:44Z</time>
      </trkpt>
      <trkpt lat="46.08273" lon="4.41916">
        <ele>742</ele>
        <time>2025-09-28T11:22:45Z</time>
      </trkpt>
      <trkpt lat="46.08275" lon="4.41916">
        <ele>742.2</ele>
        <time>2025-09-28T11:22:46Z</time>
      </trkpt>
      <trkpt lat="46.08277" lon="4.41916">
        <ele>742.2</ele>
        <time>2025-09-28T11:22:47Z</time>
      </trkpt>
      <trkpt lat="46.08279" lon="4.41915">
        <ele>742.2</ele>
        <time>2025-09-28T11:22:48Z</time>
      </trkpt>
      <trkpt lat="46.08281" lon="4.41915">
        <ele>742.2</ele>
        <time>2025-09-28T11:22:49Z</time>
      </trkpt>
      <trkpt lat="46.08282" lon="4.41915">
        <ele>742.6</ele>
        <time>2025-09-28T11:22:50Z</time>
      </trkpt>
      <trkpt lat="46.08284" lon="4.41915">
        <ele>742.6</ele>
        <time>2025-09-28T11:22:51Z</time>
      </trkpt>
      <trkpt lat="46.08286" lon="4.41914">
        <ele>743</ele>
        <time>2025-09-28T11:22:52Z</time>
      </trkpt>
      <trkpt lat="46.08288" lon="4.41914">
        <ele>743</ele>
        <time>2025-09-28T11:22:53Z</time>
      </trkpt>
      <trkpt lat="46.08289" lon="4.41913">
        <ele>743.4</ele>
        <time>2025-09-28T11:22:54Z</time>
      </trkpt>
      <trkpt lat="46.08291" lon="4.41913">
        <ele>743.6</ele>
        <time>2025-09-28T11:22:55Z</time>
      </trkpt>
      <trkpt lat="46.08293" lon="4.41913">
        <ele>743.6</ele>
        <time>2025-09-28T11:22:56Z</time>
      </trkpt>
      <trkpt lat="46.08295" lon="4.41913">
        <ele>743.6</ele>
        <time>2025-09-28T11:22:57Z</time>
      </trkpt>
      <trkpt lat="46.08297" lon="4.41912">
        <ele>744</ele>
        <time>2025-09-28T11:22:58Z</time>
      </trkpt>
      <trkpt lat="46.08298" lon="4.41912">
        <ele>744.2</ele>
        <time>2025-09-28T11:22:59Z</time>
      </trkpt>
      <trkpt lat="46.083" lon="4.41912">
        <ele>744.4</ele>
        <time>2025-09-28T11:23:00Z</time>
      </trkpt>
      <trkpt lat="46.08302" lon="4.41912">
        <ele>744.6</ele>
        <time>2025-09-28T11:23:01Z</time>
      </trkpt>
      <trkpt lat="46.08304" lon="4.41912">
        <ele>745</ele>
        <time>2025-09-28T11:23:02Z</time>
      </trkpt>
      <trkpt lat="46.08306" lon="4.41913">
        <ele>745</ele>
        <time>2025-09-28T11:23:03Z</time>
      </trkpt>
      <trkpt lat="46.08308" lon="4.41913">
        <ele>745</ele>
        <time>2025-09-28T11:23:04Z</time>
      </trkpt>
      <trkpt lat="46.0831" lon="4.41913">
        <ele>745</ele>
        <time>2025-09-28T11:23:05Z</time>
      </trkpt>
      <trkpt lat="46.08312" lon="4.41914">
        <ele>745.2</ele>
        <time>2025-09-28T11:23:06Z</time>
      </trkpt>
      <trkpt lat="46.08314" lon="4.41914">
        <ele>745.2</ele>
        <time>2025-09-28T11:23:07Z</time>
      </trkpt>
      <trkpt lat="46.08316" lon="4.41914">
        <ele>745.6</ele>
        <time>2025-09-28T11:23:08Z</time>
      </trkpt>
      <trkpt lat="46.08318" lon="4.41915">
        <ele>745.8</ele>
        <time>2025-09-28T11:23:09Z</time>
      </trkpt>
      <trkpt lat="46.0832" lon="4.41915">
        <ele>745.8</ele>
        <time>2025-09-28T11:23:10Z</time>
      </trkpt>
      <trkpt lat="46.08322" lon="4.41916">
        <ele>746</ele>
        <time>2025-09-28T11:23:11Z</time>
      </trkpt>
      <trkpt lat="46.08323" lon="4.41917">
        <ele>746</ele>
        <time>2025-09-28T11:23:12Z</time>
      </trkpt>
      <trkpt lat="46.08325" lon="4.41917">
        <ele>746</ele>
        <time>2025-09-28T11:23:13Z</time>
      </trkpt>
      <trkpt lat="46.08327" lon="4.41918">
        <ele>746.4</ele>
        <time>2025-09-28T11:23:14Z</time>
      </trkpt>
      <trkpt lat="46.08328" lon="4.41918">
        <ele>746.6</ele>
        <time>2025-09-28T11:23:15Z</time>
      </trkpt>
      <trkpt lat="46.0833" lon="4.41919">
        <ele>746.6</ele>
        <time>2025-09-28T11:23:16Z</time>
      </trkpt>
      <trkpt lat="46.08332" lon="4.41919">
        <ele>746.6</ele>
        <time>2025-09-28T11:23:17Z</time>
      </trkpt>
      <trkpt lat="46.08333" lon="4.41919">
        <ele>746.6</ele>
        <time>2025-09-28T11:23:18Z</time>
      </trkpt>
      <trkpt lat="46.08335" lon="4.4192">
        <ele>746.8</ele>
        <time>2025-09-28T11:23:19Z</time>
      </trkpt>
      <trkpt lat="46.08337" lon="4.4192">
        <ele>746.8</ele>
        <time>2025-09-28T11:23:20Z</time>
      </trkpt>
      <trkpt lat="46.08338" lon="4.4192">
        <ele>747.2</ele>
        <time>2025-09-28T11:23:21Z</time>
      </trkpt>
      <trkpt lat="46.0834" lon="4.4192">
        <ele>747.2</ele>
        <time>2025-09-28T11:23:22Z</time>
      </trkpt>
      <trkpt lat="46.08341" lon="4.4192">
        <ele>747.6</ele>
        <time>2025-09-28T11:23:23Z</time>
      </trkpt>
      <trkpt lat="46.08343" lon="4.41921">
        <ele>747.8</ele>
        <time>2025-09-28T11:23:24Z</time>
      </trkpt>
      <trkpt lat="46.08345" lon="4.41921">
        <ele>747.8</ele>
        <time>2025-09-28T11:23:25Z</time>
      </trkpt>
      <trkpt lat="46.08347" lon="4.41921">
        <ele>748</ele>
        <time>2025-09-28T11:23:26Z</time>
      </trkpt>
      <trkpt lat="46.08349" lon="4.4192">
        <ele>748.2</ele>
        <time>2025-09-28T11:23:27Z</time>
      </trkpt>
      <trkpt lat="46.08351" lon="4.4192">
        <ele>748.2</ele>
        <time>2025-09-28T11:23:28Z</time>
      </trkpt>
      <trkpt lat="46.08353" lon="4.4192">
        <ele>748.2</ele>
        <time>2025-09-28T11:23:29Z</time>
      </trkpt>
      <trkpt lat="46.08355" lon="4.4192">
        <ele>748.2</ele>
        <time>2025-09-28T11:23:30Z</time>
      </trkpt>
      <trkpt lat="46.08356" lon="4.4192">
        <ele>748.2</ele>
        <time>2025-09-28T11:23:31Z</time>
      </trkpt>
      <trkpt lat="46.08358" lon="4.4192">
        <ele>748.6</ele>
        <time>2025-09-28T11:23:32Z</time>
      </trkpt>
      <trkpt lat="46.0836" lon="4.4192">
        <ele>748.6</ele>
        <time>2025-09-28T11:23:33Z</time>
      </trkpt>
      <trkpt lat="46.08361" lon="4.41919">
        <ele>748.6</ele>
        <time>2025-09-28T11:23:34Z</time>
      </trkpt>
      <trkpt lat="46.08363" lon="4.41919">
        <ele>749</ele>
        <time>2025-09-28T11:23:35Z</time>
      </trkpt>
      <trkpt lat="46.08365" lon="4.41918">
        <ele>749.2</ele>
        <time>2025-09-28T11:23:36Z</time>
      </trkpt>
      <trkpt lat="46.08366" lon="4.41917">
        <ele>749.2</ele>
        <time>2025-09-28T11:23:37Z</time>
      </trkpt>
      <trkpt lat="46.08368" lon="4.41917">
        <ele>749.6</ele>
        <time>2025-09-28T11:23:38Z</time>
      </trkpt>
      <trkpt lat="46.08369" lon="4.41916">
        <ele>749.6</ele>
        <time>2025-09-28T11:23:39Z</time>
      </trkpt>
      <trkpt lat="46.08371" lon="4.41915">
        <ele>750</ele>
        <time>2025-09-28T11:23:40Z</time>
      </trkpt>
      <trkpt lat="46.08372" lon="4.41914">
        <ele>750</ele>
        <time>2025-09-28T11:23:41Z</time>
      </trkpt>
      <trkpt lat="46.08374" lon="4.41913">
        <ele>750</ele>
        <time>2025-09-28T11:23:42Z</time>
      </trkpt>
      <trkpt lat="46.08376" lon="4.41911">
        <ele>750.2</ele>
        <time>2025-09-28T11:23:43Z</time>
      </trkpt>
      <trkpt lat="46.08378" lon="4.4192">
        <ele>749.6</ele>
        <time>2025-09-28T11:32:53Z</time>
      </trkpt>
      <trkpt lat="46.08379" lon="4.41917">
        <ele>749.6</ele>
        <time>2025-09-28T11:32:54Z</time>
      </trkpt>
      <trkpt lat="46.08381" lon="4.41914">
        <ele>749.4</ele>
        <time>2025-09-28T11:32:55Z</time>
      </trkpt>
      <trkpt lat="46.08384" lon="4.4191">
        <ele>749.4</ele>
        <time>2025-09-28T11:32:56Z</time>
      </trkpt>
      <trkpt lat="46.08386" lon="4.41907">
        <ele>749.6</ele>
        <time>2025-09-28T11:32:57Z</time>
      </trkpt>
      <trkpt lat="46.08388" lon="4.41905">
        <ele>749.4</ele>
        <time>2025-09-28T11:32:58Z</time>
      </trkpt>
      <trkpt lat="46.0839" lon="4.41903">
        <ele>749.4</ele>
        <time>2025-09-28T11:32:59Z</time>
      </trkpt>
      <trkpt lat="46.08392" lon="4.41901">
        <ele>749.4</ele>
        <time>2025-09-28T11:33:00Z</time>
      </trkpt>
      <trkpt lat="46.08394" lon="4.41899">
        <ele>749.4</ele>
        <time>2025-09-28T11:33:01Z</time>
      </trkpt>
      <trkpt lat="46.08394" lon="4.41899">
        <ele>749.4</ele>
        <time>2025-09-28T11:33:02Z</time>
      </trkpt>
      <trkpt lat="46.08399" lon="4.41895">
        <ele>749.4</ele>
        <time>2025-09-28T11:33:03Z</time>
      </trkpt>
      <trkpt lat="46.08401" lon="4.41894">
        <ele>749.4</ele>
        <time>2025-09-28T11:33:04Z</time>
      </trkpt>
      <trkpt lat="46.08404" lon="4.41892">
        <ele>749.8</ele>
        <time>2025-09-28T11:33:05Z</time>
      </trkpt>
      <trkpt lat="46.08406" lon="4.4189">
        <ele>749.8</ele>
        <time>2025-09-28T11:33:06Z</time>
      </trkpt>
      <trkpt lat="46.08408" lon="4.41888">
        <ele>750</ele>
        <time>2025-09-28T11:33:07Z</time>
      </trkpt>
      <trkpt lat="46.0841" lon="4.41886">
        <ele>750</ele>
        <time>2025-09-28T11:33:08Z</time>
      </trkpt>
      <trkpt lat="46.08412" lon="4.41884">
        <ele>750.4</ele>
        <time>2025-09-28T11:33:09Z</time>
      </trkpt>
      <trkpt lat="46.08414" lon="4.41882">
        <ele>750.4</ele>
        <time>2025-09-28T11:33:10Z</time>
      </trkpt>
      <trkpt lat="46.08416" lon="4.41881">
        <ele>750.6</ele>
        <time>2025-09-28T11:33:11Z</time>
      </trkpt>
      <trkpt lat="46.08418" lon="4.41879">
        <ele>750.8</ele>
        <time>2025-09-28T11:33:12Z</time>
      </trkpt>
      <trkpt lat="46.08419" lon="4.41876">
        <ele>751.2</ele>
        <time>2025-09-28T11:33:13Z</time>
      </trkpt>
      <trkpt lat="46.08421" lon="4.41874">
        <ele>751.2</ele>
        <time>2025-09-28T11:33:14Z</time>
      </trkpt>
      <trkpt lat="46.08422" lon="4.41871">
        <ele>751.6</ele>
        <time>2025-09-28T11:33:15Z</time>
      </trkpt>
      <trkpt lat="46.08423" lon="4.41868">
        <ele>751.6</ele>
        <time>2025-09-28T11:33:16Z</time>
      </trkpt>
      <trkpt lat="46.08425" lon="4.41866">
        <ele>752</ele>
        <time>2025-09-28T11:33:17Z</time>
      </trkpt>
      <trkpt lat="46.08426" lon="4.41863">
        <ele>752</ele>
        <time>2025-09-28T11:33:18Z</time>
      </trkpt>
      <trkpt lat="46.08427" lon="4.4186">
        <ele>752.4</ele>
        <time>2025-09-28T11:33:19Z</time>
      </trkpt>
      <trkpt lat="46.08429" lon="4.41858">
        <ele>752.4</ele>
        <time>2025-09-28T11:33:20Z</time>
      </trkpt>
      <trkpt lat="46.0843" lon="4.41855">
        <ele>753</ele>
        <time>2025-09-28T11:33:21Z</time>
      </trkpt>
      <trkpt lat="46.08431" lon="4.41853">
        <ele>753</ele>
        <time>2025-09-28T11:33:22Z</time>
      </trkpt>
      <trkpt lat="46.08432" lon="4.4185">
        <ele>753</ele>
        <time>2025-09-28T11:33:23Z</time>
      </trkpt>
      <trkpt lat="46.08433" lon="4.41848">
        <ele>753.4</ele>
        <time>2025-09-28T11:33:24Z</time>
      </trkpt>
      <trkpt lat="46.08434" lon="4.41845">
        <ele>753.4</ele>
        <time>2025-09-28T11:33:25Z</time>
      </trkpt>
      <trkpt lat="46.08436" lon="4.41843">
        <ele>753.6</ele>
        <time>2025-09-28T11:33:26Z</time>
      </trkpt>
      <trkpt lat="46.08437" lon="4.4184">
        <ele>754</ele>
        <time>2025-09-28T11:33:27Z</time>
      </trkpt>
      <trkpt lat="46.08438" lon="4.41838">
        <ele>754</ele>
        <time>2025-09-28T11:33:28Z</time>
      </trkpt>
      <trkpt lat="46.08439" lon="4.41835">
        <ele>754</ele>
        <time>2025-09-28T11:33:29Z</time>
      </trkpt>
      <trkpt lat="46.0844" lon="4.41833">
        <ele>754.2</ele>
        <time>2025-09-28T11:33:30Z</time>
      </trkpt>
      <trkpt lat="46.08441" lon="4.4183">
        <ele>754.2</ele>
        <time>2025-09-28T11:33:31Z</time>
      </trkpt>
      <trkpt lat="46.08442" lon="4.41826">
        <ele>754.6</ele>
        <time>2025-09-28T11:33:32Z</time>
      </trkpt>
      <trkpt lat="46.08444" lon="4.41823">
        <ele>754.6</ele>
        <time>2025-09-28T11:33:33Z</time>
      </trkpt>
      <trkpt lat="46.08445" lon="4.4182">
        <ele>755</ele>
        <time>2025-09-28T11:33:34Z</time>
      </trkpt>
      <trkpt lat="46.08446" lon="4.41818">
        <ele>755</ele>
        <time>2025-09-28T11:33:35Z</time>
      </trkpt>
      <trkpt lat="46.08447" lon="4.41815">
        <ele>755</ele>
        <time>2025-09-28T11:33:36Z</time>
      </trkpt>
      <trkpt lat="46.08448" lon="4.41812">
        <ele>755.4</ele>
        <time>2025-09-28T11:33:37Z</time>
      </trkpt>
      <trkpt lat="46.08449" lon="4.4181">
        <ele>755.4</ele>
        <time>2025-09-28T11:33:38Z</time>
      </trkpt>
      <trkpt lat="46.0845" lon="4.41808">
        <ele>755.6</ele>
        <time>2025-09-28T11:33:39Z</time>
      </trkpt>
      <trkpt lat="46.08451" lon="4.41805">
        <ele>755.6</ele>
        <time>2025-09-28T11:33:40Z</time>
      </trkpt>
      <trkpt lat="46.08452" lon="4.41803">
        <ele>755.6</ele>
        <time>2025-09-28T11:33:41Z</time>
      </trkpt>
      <trkpt lat="46.08452" lon="4.41801">
        <ele>755.8</ele>
        <time>2025-09-28T11:33:42Z</time>
      </trkpt>
      <trkpt lat="46.08453" lon="4.41799">
        <ele>755.8</ele>
        <time>2025-09-28T11:33:43Z</time>
      </trkpt>
      <trkpt lat="46.08455" lon="4.41797">
        <ele>755.8</ele>
        <time>2025-09-28T11:33:44Z</time>
      </trkpt>
      <trkpt lat="46.08455" lon="4.41796">
        <ele>756</ele>
        <time>2025-09-28T11:33:45Z</time>
      </trkpt>
      <trkpt lat="46.08456" lon="4.41794">
        <ele>756</ele>
        <time>2025-09-28T11:33:46Z</time>
      </trkpt>
      <trkpt lat="46.08458" lon="4.41792">
        <ele>756.2</ele>
        <time>2025-09-28T11:33:47Z</time>
      </trkpt>
      <trkpt lat="46.08459" lon="4.4179">
        <ele>756.2</ele>
        <time>2025-09-28T11:33:48Z</time>
      </trkpt>
      <trkpt lat="46.0846" lon="4.41787">
        <ele>756.6</ele>
        <time>2025-09-28T11:33:49Z</time>
      </trkpt>
      <trkpt lat="46.0846" lon="4.41785">
        <ele>756.6</ele>
        <time>2025-09-28T11:33:50Z</time>
      </trkpt>
      <trkpt lat="46.08461" lon="4.41782">
        <ele>756.8</ele>
        <time>2025-09-28T11:33:51Z</time>
      </trkpt>
      <trkpt lat="46.08462" lon="4.4178">
        <ele>757.2</ele>
        <time>2025-09-28T11:33:52Z</time>
      </trkpt>
      <trkpt lat="46.08463" lon="4.41778">
        <ele>757.2</ele>
        <time>2025-09-28T11:33:53Z</time>
      </trkpt>
      <trkpt lat="46.08464" lon="4.41777">
        <ele>757.6</ele>
        <time>2025-09-28T11:33:54Z</time>
      </trkpt>
      <trkpt lat="46.08465" lon="4.41774">
        <ele>757.8</ele>
        <time>2025-09-28T11:33:55Z</time>
      </trkpt>
      <trkpt lat="46.08467" lon="4.41772">
        <ele>757.8</ele>
        <time>2025-09-28T11:33:56Z</time>
      </trkpt>
      <trkpt lat="46.08468" lon="4.4177">
        <ele>758.4</ele>
        <time>2025-09-28T11:33:57Z</time>
      </trkpt>
      <trkpt lat="46.08469" lon="4.41768">
        <ele>758.6</ele>
        <time>2025-09-28T11:33:58Z</time>
      </trkpt>
      <trkpt lat="46.0847" lon="4.41765">
        <ele>758.8</ele>
        <time>2025-09-28T11:33:59Z</time>
      </trkpt>
      <trkpt lat="46.0847" lon="4.41764">
        <ele>759</ele>
        <time>2025-09-28T11:34:00Z</time>
      </trkpt>
      <trkpt lat="46.08471" lon="4.41762">
        <ele>759.2</ele>
        <time>2025-09-28T11:34:01Z</time>
      </trkpt>
      <trkpt lat="46.08472" lon="4.4176">
        <ele>759.2</ele>
        <time>2025-09-28T11:34:02Z</time>
      </trkpt>
      <trkpt lat="46.08473" lon="4.41758">
        <ele>759.6</ele>
        <time>2025-09-28T11:34:03Z</time>
      </trkpt>
      <trkpt lat="46.08475" lon="4.41756">
        <ele>759.6</ele>
        <time>2025-09-28T11:34:04Z</time>
      </trkpt>
      <trkpt lat="46.08476" lon="4.41754">
        <ele>759.6</ele>
        <time>2025-09-28T11:34:05Z</time>
      </trkpt>
      <trkpt lat="46.08476" lon="4.41752">
        <ele>760</ele>
        <time>2025-09-28T11:34:06Z</time>
      </trkpt>
      <trkpt lat="46.08477" lon="4.41749">
        <ele>760</ele>
        <time>2025-09-28T11:34:07Z</time>
      </trkpt>
      <trkpt lat="46.08478" lon="4.41747">
        <ele>760</ele>
        <time>2025-09-28T11:34:08Z</time>
      </trkpt>
      <trkpt lat="46.08479" lon="4.41745">
        <ele>760.2</ele>
        <time>2025-09-28T11:34:09Z</time>
      </trkpt>
      <trkpt lat="46.0848" lon="4.41742">
        <ele>760.2</ele>
        <time>2025-09-28T11:34:10Z</time>
      </trkpt>
      <trkpt lat="46.08481" lon="4.4174">
        <ele>760.4</ele>
        <time>2025-09-28T11:34:11Z</time>
      </trkpt>
      <trkpt lat="46.08482" lon="4.41738">
        <ele>760.4</ele>
        <time>2025-09-28T11:34:12Z</time>
      </trkpt>
      <trkpt lat="46.08483" lon="4.41736">
        <ele>760.4</ele>
        <time>2025-09-28T11:34:13Z</time>
      </trkpt>
      <trkpt lat="46.08484" lon="4.41734">
        <ele>760.8</ele>
        <time>2025-09-28T11:34:14Z</time>
      </trkpt>
      <trkpt lat="46.08485" lon="4.41731">
        <ele>760.8</ele>
        <time>2025-09-28T11:34:15Z</time>
      </trkpt>
      <trkpt lat="46.08485" lon="4.41729">
        <ele>761</ele>
        <time>2025-09-28T11:34:16Z</time>
      </trkpt>
      <trkpt lat="46.08486" lon="4.41727">
        <ele>761</ele>
        <time>2025-09-28T11:34:17Z</time>
      </trkpt>
      <trkpt lat="46.08486" lon="4.41725">
        <ele>761.4</ele>
        <time>2025-09-28T11:34:18Z</time>
      </trkpt>
      <trkpt lat="46.08487" lon="4.41722">
        <ele>761.8</ele>
        <time>2025-09-28T11:34:19Z</time>
      </trkpt>
      <trkpt lat="46.08488" lon="4.4172">
        <ele>761.8</ele>
        <time>2025-09-28T11:34:20Z</time>
      </trkpt>
      <trkpt lat="46.08489" lon="4.41718">
        <ele>761.8</ele>
        <time>2025-09-28T11:34:21Z</time>
      </trkpt>
      <trkpt lat="46.0849" lon="4.41715">
        <ele>762</ele>
        <time>2025-09-28T11:34:22Z</time>
      </trkpt>
      <trkpt lat="46.0849" lon="4.41713">
        <ele>762.2</ele>
        <time>2025-09-28T11:34:23Z</time>
      </trkpt>
      <trkpt lat="46.08491" lon="4.41711">
        <ele>762.2</ele>
        <time>2025-09-28T11:34:24Z</time>
      </trkpt>
      <trkpt lat="46.08492" lon="4.41709">
        <ele>762.6</ele>
        <time>2025-09-28T11:34:25Z</time>
      </trkpt>
      <trkpt lat="46.08493" lon="4.41706">
        <ele>762.6</ele>
        <time>2025-09-28T11:34:26Z</time>
      </trkpt>
      <trkpt lat="46.08493" lon="4.41704">
        <ele>762.8</ele>
        <time>2025-09-28T11:34:27Z</time>
      </trkpt>
      <trkpt lat="46.08494" lon="4.41702">
        <ele>762.8</ele>
        <time>2025-09-28T11:34:28Z</time>
      </trkpt>
      <trkpt lat="46.08496" lon="4.417">
        <ele>763.2</ele>
        <time>2025-09-28T11:34:29Z</time>
      </trkpt>
      <trkpt lat="46.08497" lon="4.41697">
        <ele>763.2</ele>
        <time>2025-09-28T11:34:30Z</time>
      </trkpt>
      <trkpt lat="46.08498" lon="4.41695">
        <ele>763.4</ele>
        <time>2025-09-28T11:34:31Z</time>
      </trkpt>
      <trkpt lat="46.08498" lon="4.41692">
        <ele>763.4</ele>
        <time>2025-09-28T11:34:32Z</time>
      </trkpt>
      <trkpt lat="46.08499" lon="4.4169">
        <ele>763.6</ele>
        <time>2025-09-28T11:34:33Z</time>
      </trkpt>
      <trkpt lat="46.08499" lon="4.41687">
        <ele>763.8</ele>
        <time>2025-09-28T11:34:34Z</time>
      </trkpt>
      <trkpt lat="46.085" lon="4.41685">
        <ele>764</ele>
        <time>2025-09-28T11:34:35Z</time>
      </trkpt>
      <trkpt lat="46.08501" lon="4.41683">
        <ele>764</ele>
        <time>2025-09-28T11:34:36Z</time>
      </trkpt>
      <trkpt lat="46.08502" lon="4.41681">
        <ele>764</ele>
        <time>2025-09-28T11:34:37Z</time>
      </trkpt>
      <trkpt lat="46.08503" lon="4.4168">
        <ele>764.4</ele>
        <time>2025-09-28T11:34:38Z</time>
      </trkpt>
      <trkpt lat="46.08503" lon="4.41677">
        <ele>764.4</ele>
        <time>2025-09-28T11:34:39Z</time>
      </trkpt>
      <trkpt lat="46.08504" lon="4.41675">
        <ele>764.4</ele>
        <time>2025-09-28T11:34:40Z</time>
      </trkpt>
      <trkpt lat="46.08505" lon="4.41672">
        <ele>764.6</ele>
        <time>2025-09-28T11:34:41Z</time>
      </trkpt>
      <trkpt lat="46.08506" lon="4.41669">
        <ele>764.6</ele>
        <time>2025-09-28T11:34:42Z</time>
      </trkpt>
      <trkpt lat="46.08507" lon="4.41666">
        <ele>765</ele>
        <time>2025-09-28T11:34:43Z</time>
      </trkpt>
      <trkpt lat="46.08507" lon="4.41663">
        <ele>765</ele>
        <time>2025-09-28T11:34:44Z</time>
      </trkpt>
      <trkpt lat="46.08508" lon="4.41661">
        <ele>765.2</ele>
        <time>2025-09-28T11:34:45Z</time>
      </trkpt>
      <trkpt lat="46.08509" lon="4.41658">
        <ele>765.6</ele>
        <time>2025-09-28T11:34:46Z</time>
      </trkpt>
      <trkpt lat="46.0851" lon="4.41656">
        <ele>765.6</ele>
        <time>2025-09-28T11:34:47Z</time>
      </trkpt>
      <trkpt lat="46.08511" lon="4.41654">
        <ele>765.8</ele>
        <time>2025-09-28T11:34:48Z</time>
      </trkpt>
      <trkpt lat="46.08511" lon="4.41651">
        <ele>765.8</ele>
        <time>2025-09-28T11:34:49Z</time>
      </trkpt>
      <trkpt lat="46.08512" lon="4.41649">
        <ele>766.2</ele>
        <time>2025-09-28T11:34:50Z</time>
      </trkpt>
      <trkpt lat="46.08513" lon="4.41646">
        <ele>766.2</ele>
        <time>2025-09-28T11:34:51Z</time>
      </trkpt>
      <trkpt lat="46.08513" lon="4.41644">
        <ele>766.4</ele>
        <time>2025-09-28T11:34:52Z</time>
      </trkpt>
      <trkpt lat="46.08514" lon="4.41642">
        <ele>766.4</ele>
        <time>2025-09-28T11:34:53Z</time>
      </trkpt>
      <trkpt lat="46.08515" lon="4.41639">
        <ele>766.8</ele>
        <time>2025-09-28T11:34:54Z</time>
      </trkpt>
      <trkpt lat="46.08515" lon="4.41636">
        <ele>766.8</ele>
        <time>2025-09-28T11:34:55Z</time>
      </trkpt>
      <trkpt lat="46.08516" lon="4.41633">
        <ele>766.8</ele>
        <time>2025-09-28T11:34:56Z</time>
      </trkpt>
      <trkpt lat="46.08516" lon="4.41631">
        <ele>766.8</ele>
        <time>2025-09-28T11:34:57Z</time>
      </trkpt>
      <trkpt lat="46.08517" lon="4.41629">
        <ele>767.2</ele>
        <time>2025-09-28T11:34:58Z</time>
      </trkpt>
      <trkpt lat="46.08518" lon="4.41625">
        <ele>767.4</ele>
        <time>2025-09-28T11:34:59Z</time>
      </trkpt>
      <trkpt lat="46.08519" lon="4.41622">
        <ele>767.4</ele>
        <time>2025-09-28T11:35:00Z</time>
      </trkpt>
      <trkpt lat="46.0852" lon="4.4162">
        <ele>767.8</ele>
        <time>2025-09-28T11:35:01Z</time>
      </trkpt>
      <trkpt lat="46.0852" lon="4.41618">
        <ele>768</ele>
        <time>2025-09-28T11:35:02Z</time>
      </trkpt>
      <trkpt lat="46.08521" lon="4.41615">
        <ele>768</ele>
        <time>2025-09-28T11:35:03Z</time>
      </trkpt>
      <trkpt lat="46.08522" lon="4.41613">
        <ele>768.2</ele>
        <time>2025-09-28T11:35:04Z</time>
      </trkpt>
      <trkpt lat="46.08523" lon="4.4161">
        <ele>768.4</ele>
        <time>2025-09-28T11:35:05Z</time>
      </trkpt>
      <trkpt lat="46.08524" lon="4.41607">
        <ele>768.4</ele>
        <time>2025-09-28T11:35:06Z</time>
      </trkpt>
      <trkpt lat="46.08524" lon="4.41605">
        <ele>768.8</ele>
        <time>2025-09-28T11:35:07Z</time>
      </trkpt>
      <trkpt lat="46.08525" lon="4.41604">
        <ele>768.8</ele>
        <time>2025-09-28T11:35:08Z</time>
      </trkpt>
      <trkpt lat="46.08526" lon="4.41602">
        <ele>768.8</ele>
        <time>2025-09-28T11:35:09Z</time>
      </trkpt>
      <trkpt lat="46.08527" lon="4.416">
        <ele>769.4</ele>
        <time>2025-09-28T11:35:10Z</time>
      </trkpt>
      <trkpt lat="46.08528" lon="4.41598">
        <ele>769.8</ele>
        <time>2025-09-28T11:35:11Z</time>
      </trkpt>
      <trkpt lat="46.08528" lon="4.41596">
        <ele>769.8</ele>
        <time>2025-09-28T11:35:12Z</time>
      </trkpt>
      <trkpt lat="46.08529" lon="4.41594">
        <ele>770</ele>
        <time>2025-09-28T11:35:13Z</time>
      </trkpt>
      <trkpt lat="46.0853" lon="4.41592">
        <ele>770</ele>
        <time>2025-09-28T11:35:14Z</time>
      </trkpt>
      <trkpt lat="46.08531" lon="4.4159">
        <ele>770.2</ele>
        <time>2025-09-28T11:35:15Z</time>
      </trkpt>
      <trkpt lat="46.08531" lon="4.41588">
        <ele>770.6</ele>
        <time>2025-09-28T11:35:16Z</time>
      </trkpt>
      <trkpt lat="46.08532" lon="4.41585">
        <ele>770.8</ele>
        <time>2025-09-28T11:35:17Z</time>
      </trkpt>
      <trkpt lat="46.08533" lon="4.41583">
        <ele>770.8</ele>
        <time>2025-09-28T11:35:18Z</time>
      </trkpt>
      <trkpt lat="46.08534" lon="4.4158">
        <ele>770.8</ele>
        <time>2025-09-28T11:35:19Z</time>
      </trkpt>
      <trkpt lat="46.08535" lon="4.41578">
        <ele>770.8</ele>
        <time>2025-09-28T11:35:20Z</time>
      </trkpt>
      <trkpt lat="46.08536" lon="4.41575">
        <ele>771.2</ele>
        <time>2025-09-28T11:35:21Z</time>
      </trkpt>
      <trkpt lat="46.08537" lon="4.41574">
        <ele>771.2</ele>
        <time>2025-09-28T11:35:22Z</time>
      </trkpt>
      <trkpt lat="46.08538" lon="4.41571">
        <ele>771.4</ele>
        <time>2025-09-28T11:35:23Z</time>
      </trkpt>
      <trkpt lat="46.08539" lon="4.41569">
        <ele>771.4</ele>
        <time>2025-09-28T11:35:24Z</time>
      </trkpt>
      <trkpt lat="46.0854" lon="4.41567">
        <ele>771.6</ele>
        <time>2025-09-28T11:35:25Z</time>
      </trkpt>
      <trkpt lat="46.08542" lon="4.41565">
        <ele>771.6</ele>
        <time>2025-09-28T11:35:26Z</time>
      </trkpt>
      <trkpt lat="46.08543" lon="4.41563">
        <ele>772</ele>
        <time>2025-09-28T11:35:27Z</time>
      </trkpt>
      <trkpt lat="46.08544" lon="4.4156">
        <ele>772</ele>
        <time>2025-09-28T11:35:28Z</time>
      </trkpt>
      <trkpt lat="46.08545" lon="4.41558">
        <ele>772.2</ele>
        <time>2025-09-28T11:35:29Z</time>
      </trkpt>
      <trkpt lat="46.08545" lon="4.41556">
        <ele>772.2</ele>
        <time>2025-09-28T11:35:30Z</time>
      </trkpt>
      <trkpt lat="46.08546" lon="4.41553">
        <ele>772.2</ele>
        <time>2025-09-28T11:35:31Z</time>
      </trkpt>
      <trkpt lat="46.08547" lon="4.41551">
        <ele>772.6</ele>
        <time>2025-09-28T11:35:32Z</time>
      </trkpt>
      <trkpt lat="46.08548" lon="4.41548">
        <ele>772.6</ele>
        <time>2025-09-28T11:35:33Z</time>
      </trkpt>
      <trkpt lat="46.08549" lon="4.41546">
        <ele>772.8</ele>
        <time>2025-09-28T11:35:34Z</time>
      </trkpt>
      <trkpt lat="46.0855" lon="4.41544">
        <ele>772.8</ele>
        <time>2025-09-28T11:35:35Z</time>
      </trkpt>
      <trkpt lat="46.08551" lon="4.41542">
        <ele>772.8</ele>
        <time>2025-09-28T11:35:36Z</time>
      </trkpt>
      <trkpt lat="46.08551" lon="4.4154">
        <ele>773.2</ele>
        <time>2025-09-28T11:35:37Z</time>
      </trkpt>
      <trkpt lat="46.08552" lon="4.41538">
        <ele>773.2</ele>
        <time>2025-09-28T11:35:38Z</time>
      </trkpt>
      <trkpt lat="46.08553" lon="4.41535">
        <ele>773.2</ele>
        <time>2025-09-28T11:35:39Z</time>
      </trkpt>
      <trkpt lat="46.08554" lon="4.41533">
        <ele>773.6</ele>
        <time>2025-09-28T11:35:40Z</time>
      </trkpt>
      <trkpt lat="46.08556" lon="4.41531">
        <ele>773.6</ele>
        <time>2025-09-28T11:35:41Z</time>
      </trkpt>
      <trkpt lat="46.08557" lon="4.41528">
        <ele>773.6</ele>
        <time>2025-09-28T11:35:42Z</time>
      </trkpt>
      <trkpt lat="46.08558" lon="4.41526">
        <ele>773.6</ele>
        <time>2025-09-28T11:35:43Z</time>
      </trkpt>
      <trkpt lat="46.08559" lon="4.41523">
        <ele>773.6</ele>
        <time>2025-09-28T11:35:44Z</time>
      </trkpt>
      <trkpt lat="46.08559" lon="4.41521">
        <ele>774</ele>
        <time>2025-09-28T11:35:45Z</time>
      </trkpt>
      <trkpt lat="46.0856" lon="4.41519">
        <ele>774.2</ele>
        <time>2025-09-28T11:35:46Z</time>
      </trkpt>
      <trkpt lat="46.08561" lon="4.41517">
        <ele>774.2</ele>
        <time>2025-09-28T11:35:47Z</time>
      </trkpt>
      <trkpt lat="46.08562" lon="4.41515">
        <ele>774.6</ele>
        <time>2025-09-28T11:35:48Z</time>
      </trkpt>
      <trkpt lat="46.08563" lon="4.41512">
        <ele>774.6</ele>
        <time>2025-09-28T11:35:49Z</time>
      </trkpt>
      <trkpt lat="46.08563" lon="4.41509">
        <ele>775</ele>
        <time>2025-09-28T11:35:50Z</time>
      </trkpt>
      <trkpt lat="46.08564" lon="4.41507">
        <ele>775.2</ele>
        <time>2025-09-28T11:35:51Z</time>
      </trkpt>
      <trkpt lat="46.08565" lon="4.41504">
        <ele>775.2</ele>
        <time>2025-09-28T11:35:52Z</time>
      </trkpt>
      <trkpt lat="46.08565" lon="4.41502">
        <ele>775.6</ele>
        <time>2025-09-28T11:35:53Z</time>
      </trkpt>
      <trkpt lat="46.08566" lon="4.415">
        <ele>775.6</ele>
        <time>2025-09-28T11:35:54Z</time>
      </trkpt>
      <trkpt lat="46.08567" lon="4.41497">
        <ele>776</ele>
        <time>2025-09-28T11:35:55Z</time>
      </trkpt>
      <trkpt lat="46.08568" lon="4.41495">
        <ele>776</ele>
        <time>2025-09-28T11:35:56Z</time>
      </trkpt>
      <trkpt lat="46.08569" lon="4.41493">
        <ele>776.2</ele>
        <time>2025-09-28T11:35:57Z</time>
      </trkpt>
      <trkpt lat="46.0857" lon="4.41491">
        <ele>776.2</ele>
        <time>2025-09-28T11:35:58Z</time>
      </trkpt>
      <trkpt lat="46.08571" lon="4.41489">
        <ele>776.2</ele>
        <time>2025-09-28T11:35:59Z</time>
      </trkpt>
      <trkpt lat="46.08572" lon="4.41486">
        <ele>776.2</ele>
        <time>2025-09-28T11:36:00Z</time>
      </trkpt>
      <trkpt lat="46.08573" lon="4.41484">
        <ele>776.6</ele>
        <time>2025-09-28T11:36:01Z</time>
      </trkpt>
      <trkpt lat="46.08573" lon="4.41481">
        <ele>776.6</ele>
        <time>2025-09-28T11:36:02Z</time>
      </trkpt>
      <trkpt lat="46.08574" lon="4.41479">
        <ele>776.8</ele>
        <time>2025-09-28T11:36:03Z</time>
      </trkpt>
      <trkpt lat="46.08575" lon="4.41476">
        <ele>776.8</ele>
        <time>2025-09-28T11:36:04Z</time>
      </trkpt>
      <trkpt lat="46.08575" lon="4.41474">
        <ele>777.2</ele>
        <time>2025-09-28T11:36:05Z</time>
      </trkpt>
      <trkpt lat="46.08576" lon="4.41471">
        <ele>777.6</ele>
        <time>2025-09-28T11:36:06Z</time>
      </trkpt>
      <trkpt lat="46.08577" lon="4.41469">
        <ele>777.6</ele>
        <time>2025-09-28T11:36:07Z</time>
      </trkpt>
      <trkpt lat="46.08577" lon="4.41467">
        <ele>777.6</ele>
        <time>2025-09-28T11:36:08Z</time>
      </trkpt>
      <trkpt lat="46.08578" lon="4.41464">
        <ele>777.8</ele>
        <time>2025-09-28T11:36:09Z</time>
      </trkpt>
      <trkpt lat="46.08579" lon="4.41462">
        <ele>777.8</ele>
        <time>2025-09-28T11:36:10Z</time>
      </trkpt>
      <trkpt lat="46.08579" lon="4.4146">
        <ele>778.2</ele>
        <time>2025-09-28T11:36:11Z</time>
      </trkpt>
      <trkpt lat="46.0858" lon="4.41457">
        <ele>778.2</ele>
        <time>2025-09-28T11:36:12Z</time>
      </trkpt>
      <trkpt lat="46.08581" lon="4.41455">
        <ele>778.4</ele>
        <time>2025-09-28T11:36:13Z</time>
      </trkpt>
      <trkpt lat="46.08582" lon="4.41452">
        <ele>778.4</ele>
        <time>2025-09-28T11:36:14Z</time>
      </trkpt>
      <trkpt lat="46.08583" lon="4.4145">
        <ele>778.8</ele>
        <time>2025-09-28T11:36:15Z</time>
      </trkpt>
      <trkpt lat="46.08583" lon="4.41447">
        <ele>778.8</ele>
        <time>2025-09-28T11:36:16Z</time>
      </trkpt>
      <trkpt lat="46.08584" lon="4.41445">
        <ele>778.8</ele>
        <time>2025-09-28T11:36:17Z</time>
      </trkpt>
      <trkpt lat="46.08585" lon="4.41443">
        <ele>779.2</ele>
        <time>2025-09-28T11:36:18Z</time>
      </trkpt>
      <trkpt lat="46.08587" lon="4.41441">
        <ele>779.2</ele>
        <time>2025-09-28T11:36:19Z</time>
      </trkpt>
      <trkpt lat="46.08588" lon="4.41439">
        <ele>779.4</ele>
        <time>2025-09-28T11:36:20Z</time>
      </trkpt>
      <trkpt lat="46.0859" lon="4.41438">
        <ele>779.4</ele>
        <time>2025-09-28T11:36:21Z</time>
      </trkpt>
      <trkpt lat="46.08591" lon="4.41436">
        <ele>779.8</ele>
        <time>2025-09-28T11:36:22Z</time>
      </trkpt>
      <trkpt lat="46.08592" lon="4.41435">
        <ele>779.8</ele>
        <time>2025-09-28T11:36:23Z</time>
      </trkpt>
      <trkpt lat="46.08594" lon="4.41434">
        <ele>780</ele>
        <time>2025-09-28T11:36:24Z</time>
      </trkpt>
      <trkpt lat="46.08596" lon="4.41433">
        <ele>780</ele>
        <time>2025-09-28T11:36:25Z</time>
      </trkpt>
      <trkpt lat="46.08597" lon="4.41432">
        <ele>780.4</ele>
        <time>2025-09-28T11:36:26Z</time>
      </trkpt>
      <trkpt lat="46.08599" lon="4.41432">
        <ele>780.6</ele>
        <time>2025-09-28T11:36:27Z</time>
      </trkpt>
      <trkpt lat="46.086" lon="4.41432">
        <ele>781</ele>
        <time>2025-09-28T11:36:28Z</time>
      </trkpt>
      <trkpt lat="46.08602" lon="4.41432">
        <ele>781.2</ele>
        <time>2025-09-28T11:36:29Z</time>
      </trkpt>
      <trkpt lat="46.08604" lon="4.41433">
        <ele>781.2</ele>
        <time>2025-09-28T11:36:30Z</time>
      </trkpt>
      <trkpt lat="46.08606" lon="4.41433">
        <ele>781.2</ele>
        <time>2025-09-28T11:36:31Z</time>
      </trkpt>
      <trkpt lat="46.08608" lon="4.41434">
        <ele>781.2</ele>
        <time>2025-09-28T11:36:32Z</time>
      </trkpt>
      <trkpt lat="46.0861" lon="4.41435">
        <ele>781.6</ele>
        <time>2025-09-28T11:36:33Z</time>
      </trkpt>
      <trkpt lat="46.08612" lon="4.41435">
        <ele>781.6</ele>
        <time>2025-09-28T11:36:34Z</time>
      </trkpt>
      <trkpt lat="46.08614" lon="4.41436">
        <ele>781.6</ele>
        <time>2025-09-28T11:36:35Z</time>
      </trkpt>
      <trkpt lat="46.08616" lon="4.41437">
        <ele>781.8</ele>
        <time>2025-09-28T11:36:36Z</time>
      </trkpt>
      <trkpt lat="46.08618" lon="4.41438">
        <ele>781.8</ele>
        <time>2025-09-28T11:36:37Z</time>
      </trkpt>
      <trkpt lat="46.0862" lon="4.41439">
        <ele>782</ele>
        <time>2025-09-28T11:36:38Z</time>
      </trkpt>
      <trkpt lat="46.08622" lon="4.4144">
        <ele>782</ele>
        <time>2025-09-28T11:36:39Z</time>
      </trkpt>
      <trkpt lat="46.08624" lon="4.41441">
        <ele>782.2</ele>
        <time>2025-09-28T11:36:40Z</time>
      </trkpt>
      <trkpt lat="46.08627" lon="4.41442">
        <ele>782.2</ele>
        <time>2025-09-28T11:36:41Z</time>
      </trkpt>
      <trkpt lat="46.08629" lon="4.41443">
        <ele>782.2</ele>
        <time>2025-09-28T11:36:42Z</time>
      </trkpt>
      <trkpt lat="46.08631" lon="4.41444">
        <ele>782.2</ele>
        <time>2025-09-28T11:36:43Z</time>
      </trkpt>
      <trkpt lat="46.08633" lon="4.41444">
        <ele>782.4</ele>
        <time>2025-09-28T11:36:44Z</time>
      </trkpt>
      <trkpt lat="46.08635" lon="4.41445">
        <ele>782.4</ele>
        <time>2025-09-28T11:36:45Z</time>
      </trkpt>
      <trkpt lat="46.08638" lon="4.41445">
        <ele>782.8</ele>
        <time>2025-09-28T11:36:46Z</time>
      </trkpt>
      <trkpt lat="46.0864" lon="4.41447">
        <ele>782.8</ele>
        <time>2025-09-28T11:36:47Z</time>
      </trkpt>
      <trkpt lat="46.08642" lon="4.41448">
        <ele>782.8</ele>
        <time>2025-09-28T11:36:48Z</time>
      </trkpt>
      <trkpt lat="46.08644" lon="4.41449">
        <ele>782.8</ele>
        <time>2025-09-28T11:36:49Z</time>
      </trkpt>
      <trkpt lat="46.08646" lon="4.41451">
        <ele>783</ele>
        <time>2025-09-28T11:36:50Z</time>
      </trkpt>
      <trkpt lat="46.08647" lon="4.41453">
        <ele>783</ele>
        <time>2025-09-28T11:36:51Z</time>
      </trkpt>
      <trkpt lat="46.08649" lon="4.41454">
        <ele>783</ele>
        <time>2025-09-28T11:36:52Z</time>
      </trkpt>
      <trkpt lat="46.08652" lon="4.41455">
        <ele>783.2</ele>
        <time>2025-09-28T11:36:53Z</time>
      </trkpt>
      <trkpt lat="46.08653" lon="4.41455">
        <ele>783.2</ele>
        <time>2025-09-28T11:36:54Z</time>
      </trkpt>
      <trkpt lat="46.08655" lon="4.41456">
        <ele>783.2</ele>
        <time>2025-09-28T11:36:55Z</time>
      </trkpt>
      <trkpt lat="46.08657" lon="4.41456">
        <ele>783.2</ele>
        <time>2025-09-28T11:36:56Z</time>
      </trkpt>
      <trkpt lat="46.08658" lon="4.41456">
        <ele>783.6</ele>
        <time>2025-09-28T11:36:57Z</time>
      </trkpt>
      <trkpt lat="46.0866" lon="4.41457">
        <ele>783.6</ele>
        <time>2025-09-28T11:36:58Z</time>
      </trkpt>
      <trkpt lat="46.08661" lon="4.41459">
        <ele>783.6</ele>
        <time>2025-09-28T11:36:59Z</time>
      </trkpt>
      <trkpt lat="46.08662" lon="4.41461">
        <ele>783.6</ele>
        <time>2025-09-28T11:37:00Z</time>
      </trkpt>
      <trkpt lat="46.08662" lon="4.41464">
        <ele>783.6</ele>
        <time>2025-09-28T11:37:01Z</time>
      </trkpt>
      <trkpt lat="46.08662" lon="4.41466">
        <ele>783.6</ele>
        <time>2025-09-28T11:37:02Z</time>
      </trkpt>
      <trkpt lat="46.0866" lon="4.41467">
        <ele>783.6</ele>
        <time>2025-09-28T11:37:03Z</time>
      </trkpt>
      <trkpt lat="46.08658" lon="4.41467">
        <ele>783.6</ele>
        <time>2025-09-28T11:37:04Z</time>
      </trkpt>
      <trkpt lat="46.08656" lon="4.41468">
        <ele>783.6</ele>
        <time>2025-09-28T11:37:05Z</time>
      </trkpt>
      <trkpt lat="46.08654" lon="4.41468">
        <ele>783.6</ele>
        <time>2025-09-28T11:37:06Z</time>
      </trkpt>
      <trkpt lat="46.08653" lon="4.41467">
        <ele>783.8</ele>
        <time>2025-09-28T11:37:07Z</time>
      </trkpt>
      <trkpt lat="46.08652" lon="4.41467">
        <ele>783.8</ele>
        <time>2025-09-28T11:37:08Z</time>
      </trkpt>
      <trkpt lat="46.08651" lon="4.41467">
        <ele>784</ele>
        <time>2025-09-28T11:37:09Z</time>
      </trkpt>
      <trkpt lat="46.08651" lon="4.41467">
        <ele>784</ele>
        <time>2025-09-28T11:37:10Z</time>
      </trkpt>
      <trkpt lat="46.0865" lon="4.41467">
        <ele>784</ele>
        <time>2025-09-28T11:37:11Z</time>
      </trkpt>
      <trkpt lat="46.08648" lon="4.41467">
        <ele>784.4</ele>
        <time>2025-09-28T11:39:54Z</time>
      </trkpt>
      <trkpt lat="46.08649" lon="4.41469">
        <ele>784.4</ele>
        <time>2025-09-28T11:39:55Z</time>
      </trkpt>
      <trkpt lat="46.08649" lon="4.4147">
        <ele>784.4</ele>
        <time>2025-09-28T11:39:56Z</time>
      </trkpt>
      <trkpt lat="46.08651" lon="4.4147">
        <ele>784.4</ele>
        <time>2025-09-28T11:39:57Z</time>
      </trkpt>
      <trkpt lat="46.08653" lon="4.41469">
        <ele>784.2</ele>
        <time>2025-09-28T11:39:58Z</time>
      </trkpt>
      <trkpt lat="46.08655" lon="4.41468">
        <ele>784.2</ele>
        <time>2025-09-28T11:39:59Z</time>
      </trkpt>
      <trkpt lat="46.08657" lon="4.41467">
        <ele>784.2</ele>
        <time>2025-09-28T11:40:00Z</time>
      </trkpt>
      <trkpt lat="46.08659" lon="4.41466">
        <ele>784.2</ele>
        <time>2025-09-28T11:40:01Z</time>
      </trkpt>
      <trkpt lat="46.08662" lon="4.41465">
        <ele>784.2</ele>
        <time>2025-09-28T11:40:02Z</time>
      </trkpt>
      <trkpt lat="46.08665" lon="4.41465">
        <ele>783.8</ele>
        <time>2025-09-28T11:40:03Z</time>
      </trkpt>
      <trkpt lat="46.08668" lon="4.41464">
        <ele>783.8</ele>
        <time>2025-09-28T11:40:04Z</time>
      </trkpt>
      <trkpt lat="46.08671" lon="4.41464">
        <ele>783.4</ele>
        <time>2025-09-28T11:40:05Z</time>
      </trkpt>
      <trkpt lat="46.08674" lon="4.41465">
        <ele>783.2</ele>
        <time>2025-09-28T11:40:06Z</time>
      </trkpt>
      <trkpt lat="46.08678" lon="4.41466">
        <ele>783.2</ele>
        <time>2025-09-28T11:40:07Z</time>
      </trkpt>
      <trkpt lat="46.08681" lon="4.41468">
        <ele>783.2</ele>
        <time>2025-09-28T11:40:08Z</time>
      </trkpt>
      <trkpt lat="46.08685" lon="4.4147">
        <ele>782.4</ele>
        <time>2025-09-28T11:40:09Z</time>
      </trkpt>
      <trkpt lat="46.08688" lon="4.41471">
        <ele>782.4</ele>
        <time>2025-09-28T11:40:10Z</time>
      </trkpt>
      <trkpt lat="46.08691" lon="4.41472">
        <ele>782.8</ele>
        <time>2025-09-28T11:40:11Z</time>
      </trkpt>
      <trkpt lat="46.08693" lon="4.41474">
        <ele>782.8</ele>
        <time>2025-09-28T11:40:12Z</time>
      </trkpt>
      <trkpt lat="46.08696" lon="4.41475">
        <ele>782.8</ele>
        <time>2025-09-28T11:40:13Z</time>
      </trkpt>
      <trkpt lat="46.08699" lon="4.41476">
        <ele>782.8</ele>
        <time>2025-09-28T11:40:14Z</time>
      </trkpt>
      <trkpt lat="46.08701" lon="4.41477">
        <ele>782.8</ele>
        <time>2025-09-28T11:40:15Z</time>
      </trkpt>
      <trkpt lat="46.08704" lon="4.41479">
        <ele>783</ele>
        <time>2025-09-28T11:40:16Z</time>
      </trkpt>
      <trkpt lat="46.08706" lon="4.41483">
        <ele>782.6</ele>
        <time>2025-09-28T11:40:17Z</time>
      </trkpt>
      <trkpt lat="46.08707" lon="4.41487">
        <ele>782.6</ele>
        <time>2025-09-28T11:40:18Z</time>
      </trkpt>
      <trkpt lat="46.08706" lon="4.4149">
        <ele>782.6</ele>
        <time>2025-09-28T11:40:19Z</time>
      </trkpt>
      <trkpt lat="46.08705" lon="4.41493">
        <ele>783</ele>
        <time>2025-09-28T11:40:20Z</time>
      </trkpt>
      <trkpt lat="46.08703" lon="4.41495">
        <ele>783.2</ele>
        <time>2025-09-28T11:40:21Z</time>
      </trkpt>
      <trkpt lat="46.08702" lon="4.41497">
        <ele>783.6</ele>
        <time>2025-09-28T11:40:22Z</time>
      </trkpt>
      <trkpt lat="46.087" lon="4.41499">
        <ele>784.2</ele>
        <time>2025-09-28T11:40:23Z</time>
      </trkpt>
      <trkpt lat="46.08699" lon="4.41501">
        <ele>784.6</ele>
        <time>2025-09-28T11:40:24Z</time>
      </trkpt>
      <trkpt lat="46.08697" lon="4.41503">
        <ele>785</ele>
        <time>2025-09-28T11:40:25Z</time>
      </trkpt>
      <trkpt lat="46.08696" lon="4.41505">
        <ele>785.6</ele>
        <time>2025-09-28T11:40:26Z</time>
      </trkpt>
      <trkpt lat="46.08695" lon="4.41506">
        <ele>786</ele>
        <time>2025-09-28T11:40:27Z</time>
      </trkpt>
      <trkpt lat="46.08693" lon="4.41508">
        <ele>786</ele>
        <time>2025-09-28T11:40:28Z</time>
      </trkpt>
      <trkpt lat="46.08691" lon="4.41509">
        <ele>786.4</ele>
        <time>2025-09-28T11:40:29Z</time>
      </trkpt>
      <trkpt lat="46.0869" lon="4.4151">
        <ele>786.8</ele>
        <time>2025-09-28T11:40:30Z</time>
      </trkpt>
      <trkpt lat="46.08688" lon="4.41512">
        <ele>787.2</ele>
        <time>2025-09-28T11:40:31Z</time>
      </trkpt>
      <trkpt lat="46.08687" lon="4.41513">
        <ele>787.4</ele>
        <time>2025-09-28T11:40:32Z</time>
      </trkpt>
      <trkpt lat="46.08686" lon="4.41515">
        <ele>787.8</ele>
        <time>2025-09-28T11:40:33Z</time>
      </trkpt>
      <trkpt lat="46.08685" lon="4.41516">
        <ele>788</ele>
        <time>2025-09-28T11:40:34Z</time>
      </trkpt>
      <trkpt lat="46.08684" lon="4.41518">
        <ele>788</ele>
        <time>2025-09-28T11:40:35Z</time>
      </trkpt>
      <trkpt lat="46.08684" lon="4.4152">
        <ele>788</ele>
        <time>2025-09-28T11:40:36Z</time>
      </trkpt>
      <trkpt lat="46.08683" lon="4.41521">
        <ele>788.4</ele>
        <time>2025-09-28T11:40:37Z</time>
      </trkpt>
      <trkpt lat="46.08683" lon="4.41523">
        <ele>788.8</ele>
        <time>2025-09-28T11:40:38Z</time>
      </trkpt>
      <trkpt lat="46.08682" lon="4.41526">
        <ele>789</ele>
        <time>2025-09-28T11:40:39Z</time>
      </trkpt>
      <trkpt lat="46.08682" lon="4.41527">
        <ele>789.4</ele>
        <time>2025-09-28T11:40:40Z</time>
      </trkpt>
      <trkpt lat="46.08681" lon="4.41529">
        <ele>789.4</ele>
        <time>2025-09-28T11:40:41Z</time>
      </trkpt>
      <trkpt lat="46.08681" lon="4.41531">
        <ele>789.8</ele>
        <time>2025-09-28T11:40:42Z</time>
      </trkpt>
      <trkpt lat="46.0868" lon="4.41532">
        <ele>790.2</ele>
        <time>2025-09-28T11:40:43Z</time>
      </trkpt>
      <trkpt lat="46.08679" lon="4.41535">
        <ele>790.6</ele>
        <time>2025-09-28T11:40:44Z</time>
      </trkpt>
      <trkpt lat="46.08678" lon="4.41536">
        <ele>791</ele>
        <time>2025-09-28T11:40:45Z</time>
      </trkpt>
      <trkpt lat="46.08676" lon="4.41538">
        <ele>791</ele>
        <time>2025-09-28T11:40:46Z</time>
      </trkpt>
      <trkpt lat="46.08675" lon="4.41539">
        <ele>791.2</ele>
        <time>2025-09-28T11:40:47Z</time>
      </trkpt>
      <trkpt lat="46.08675" lon="4.41541">
        <ele>791.2</ele>
        <time>2025-09-28T11:40:48Z</time>
      </trkpt>
      <trkpt lat="46.08674" lon="4.41543">
        <ele>791.4</ele>
        <time>2025-09-28T11:40:49Z</time>
      </trkpt>
      <trkpt lat="46.08674" lon="4.41545">
        <ele>791.4</ele>
        <time>2025-09-28T11:40:50Z</time>
      </trkpt>
      <trkpt lat="46.08674" lon="4.41546">
        <ele>791.8</ele>
        <time>2025-09-28T11:40:51Z</time>
      </trkpt>
      <trkpt lat="46.08673" lon="4.41548">
        <ele>791.8</ele>
        <time>2025-09-28T11:40:52Z</time>
      </trkpt>
      <trkpt lat="46.08672" lon="4.4155">
        <ele>792.4</ele>
        <time>2025-09-28T11:40:53Z</time>
      </trkpt>
      <trkpt lat="46.08671" lon="4.41552">
        <ele>792.8</ele>
        <time>2025-09-28T11:40:54Z</time>
      </trkpt>
      <trkpt lat="46.0867" lon="4.41552">
        <ele>793.2</ele>
        <time>2025-09-28T11:40:55Z</time>
      </trkpt>
      <trkpt lat="46.08669" lon="4.41554">
        <ele>793.6</ele>
        <time>2025-09-28T11:40:56Z</time>
      </trkpt>
      <trkpt lat="46.08668" lon="4.41556">
        <ele>793.6</ele>
        <time>2025-09-28T11:40:57Z</time>
      </trkpt>
      <trkpt lat="46.08667" lon="4.41559">
        <ele>793.8</ele>
        <time>2025-09-28T11:40:58Z</time>
      </trkpt>
      <trkpt lat="46.08667" lon="4.4156">
        <ele>794</ele>
        <time>2025-09-28T11:40:59Z</time>
      </trkpt>
      <trkpt lat="46.08667" lon="4.41562">
        <ele>794.4</ele>
        <time>2025-09-28T11:41:00Z</time>
      </trkpt>
      <trkpt lat="46.08667" lon="4.41565">
        <ele>794.4</ele>
        <time>2025-09-28T11:41:01Z</time>
      </trkpt>
      <trkpt lat="46.08666" lon="4.41567">
        <ele>794.6</ele>
        <time>2025-09-28T11:41:02Z</time>
      </trkpt>
      <trkpt lat="46.08665" lon="4.41569">
        <ele>794.6</ele>
        <time>2025-09-28T11:41:03Z</time>
      </trkpt>
      <trkpt lat="46.08664" lon="4.4157">
        <ele>794.6</ele>
        <time>2025-09-28T11:41:04Z</time>
      </trkpt>
      <trkpt lat="46.08663" lon="4.4157">
        <ele>795.2</ele>
        <time>2025-09-28T11:41:05Z</time>
      </trkpt>
      <trkpt lat="46.08664" lon="4.41572">
        <ele>795.2</ele>
        <time>2025-09-28T11:41:06Z</time>
      </trkpt>
      <trkpt lat="46.08664" lon="4.41573">
        <ele>795.6</ele>
        <time>2025-09-28T11:41:07Z</time>
      </trkpt>
      <trkpt lat="46.08663" lon="4.41574">
        <ele>795.6</ele>
        <time>2025-09-28T11:41:08Z</time>
      </trkpt>
      <trkpt lat="46.08662" lon="4.41577">
        <ele>795.8</ele>
        <time>2025-09-28T11:41:09Z</time>
      </trkpt>
      <trkpt lat="46.08662" lon="4.41578">
        <ele>795.8</ele>
        <time>2025-09-28T11:41:10Z</time>
      </trkpt>
      <trkpt lat="46.08661" lon="4.41579">
        <ele>796.2</ele>
        <time>2025-09-28T11:41:11Z</time>
      </trkpt>
      <trkpt lat="46.08661" lon="4.41581">
        <ele>796.6</ele>
        <time>2025-09-28T11:41:12Z</time>
      </trkpt>
      <trkpt lat="46.08661" lon="4.41582">
        <ele>796.8</ele>
        <time>2025-09-28T11:41:13Z</time>
      </trkpt>
      <trkpt lat="46.0866" lon="4.41585">
        <ele>797</ele>
        <time>2025-09-28T11:41:14Z</time>
      </trkpt>
      <trkpt lat="46.0866" lon="4.41587">
        <ele>797</ele>
        <time>2025-09-28T11:41:15Z</time>
      </trkpt>
      <trkpt lat="46.08659" lon="4.41589">
        <ele>797.4</ele>
        <time>2025-09-28T11:41:16Z</time>
      </trkpt>
      <trkpt lat="46.08659" lon="4.41591">
        <ele>797.6</ele>
        <time>2025-09-28T11:41:17Z</time>
      </trkpt>
      <trkpt lat="46.08659" lon="4.41594">
        <ele>797.6</ele>
        <time>2025-09-28T11:41:18Z</time>
      </trkpt>
      <trkpt lat="46.08659" lon="4.41596">
        <ele>798</ele>
        <time>2025-09-28T11:41:19Z</time>
      </trkpt>
      <trkpt lat="46.08658" lon="4.41599">
        <ele>798</ele>
        <time>2025-09-28T11:41:20Z</time>
      </trkpt>
      <trkpt lat="46.08656" lon="4.41602">
        <ele>798.4</ele>
        <time>2025-09-28T11:41:21Z</time>
      </trkpt>
      <trkpt lat="46.08656" lon="4.41604">
        <ele>798.4</ele>
        <time>2025-09-28T11:41:22Z</time>
      </trkpt>
      <trkpt lat="46.08655" lon="4.41607">
        <ele>798.8</ele>
        <time>2025-09-28T11:41:23Z</time>
      </trkpt>
      <trkpt lat="46.08656" lon="4.4161">
        <ele>798.8</ele>
        <time>2025-09-28T11:41:24Z</time>
      </trkpt>
      <trkpt lat="46.08655" lon="4.41612">
        <ele>799</ele>
        <time>2025-09-28T11:41:25Z</time>
      </trkpt>
      <trkpt lat="46.08655" lon="4.41614">
        <ele>799</ele>
        <time>2025-09-28T11:41:26Z</time>
      </trkpt>
      <trkpt lat="46.08654" lon="4.41616">
        <ele>799</ele>
        <time>2025-09-28T11:41:27Z</time>
      </trkpt>
      <trkpt lat="46.08654" lon="4.41619">
        <ele>799.4</ele>
        <time>2025-09-28T11:41:28Z</time>
      </trkpt>
      <trkpt lat="46.08653" lon="4.41621">
        <ele>799.4</ele>
        <time>2025-09-28T11:41:29Z</time>
      </trkpt>
      <trkpt lat="46.08653" lon="4.41624">
        <ele>799.8</ele>
        <time>2025-09-28T11:41:30Z</time>
      </trkpt>
      <trkpt lat="46.08653" lon="4.41626">
        <ele>800</ele>
        <time>2025-09-28T11:41:31Z</time>
      </trkpt>
      <trkpt lat="46.08652" lon="4.41628">
        <ele>800</ele>
        <time>2025-09-28T11:41:32Z</time>
      </trkpt>
      <trkpt lat="46.08652" lon="4.4163">
        <ele>800.4</ele>
        <time>2025-09-28T11:41:33Z</time>
      </trkpt>
      <trkpt lat="46.08652" lon="4.41633">
        <ele>800.8</ele>
        <time>2025-09-28T11:41:34Z</time>
      </trkpt>
      <trkpt lat="46.08652" lon="4.41635">
        <ele>801</ele>
        <time>2025-09-28T11:41:35Z</time>
      </trkpt>
      <trkpt lat="46.08651" lon="4.41638">
        <ele>801.2</ele>
        <time>2025-09-28T11:41:36Z</time>
      </trkpt>
      <trkpt lat="46.08652" lon="4.4164">
        <ele>801.4</ele>
        <time>2025-09-28T11:41:37Z</time>
      </trkpt>
      <trkpt lat="46.08652" lon="4.41641">
        <ele>801.4</ele>
        <time>2025-09-28T11:41:38Z</time>
      </trkpt>
      <trkpt lat="46.08652" lon="4.41643">
        <ele>801.6</ele>
        <time>2025-09-28T11:41:39Z</time>
      </trkpt>
      <trkpt lat="46.08652" lon="4.41645">
        <ele>801.6</ele>
        <time>2025-09-28T11:41:40Z</time>
      </trkpt>
      <trkpt lat="46.08652" lon="4.41647">
        <ele>802</ele>
        <time>2025-09-28T11:41:41Z</time>
      </trkpt>
      <trkpt lat="46.08651" lon="4.41649">
        <ele>802</ele>
        <time>2025-09-28T11:41:42Z</time>
      </trkpt>
      <trkpt lat="46.08651" lon="4.4165">
        <ele>802.4</ele>
        <time>2025-09-28T11:41:43Z</time>
      </trkpt>
      <trkpt lat="46.08651" lon="4.41652">
        <ele>802.8</ele>
        <time>2025-09-28T11:41:44Z</time>
      </trkpt>
      <trkpt lat="46.08651" lon="4.41654">
        <ele>802.8</ele>
        <time>2025-09-28T11:41:45Z</time>
      </trkpt>
      <trkpt lat="46.08651" lon="4.41655">
        <ele>802.8</ele>
        <time>2025-09-28T11:41:46Z</time>
      </trkpt>
      <trkpt lat="46.08651" lon="4.41657">
        <ele>803</ele>
        <time>2025-09-28T11:41:47Z</time>
      </trkpt>
      <trkpt lat="46.0865" lon="4.41658">
        <ele>803.4</ele>
        <time>2025-09-28T11:41:48Z</time>
      </trkpt>
      <trkpt lat="46.08649" lon="4.4166">
        <ele>803.6</ele>
        <time>2025-09-28T11:41:49Z</time>
      </trkpt>
      <trkpt lat="46.08648" lon="4.41662">
        <ele>803.6</ele>
        <time>2025-09-28T11:41:50Z</time>
      </trkpt>
      <trkpt lat="46.08647" lon="4.41664">
        <ele>804</ele>
        <time>2025-09-28T11:41:51Z</time>
      </trkpt>
      <trkpt lat="46.08646" lon="4.41666">
        <ele>804.2</ele>
        <time>2025-09-28T11:41:52Z</time>
      </trkpt>
      <trkpt lat="46.08645" lon="4.41668">
        <ele>804.4</ele>
        <time>2025-09-28T11:41:53Z</time>
      </trkpt>
      <trkpt lat="46.08644" lon="4.4167">
        <ele>804.6</ele>
        <time>2025-09-28T11:41:54Z</time>
      </trkpt>
      <trkpt lat="46.08644" lon="4.41672">
        <ele>804.6</ele>
        <time>2025-09-28T11:41:55Z</time>
      </trkpt>
      <trkpt lat="46.08644" lon="4.41674">
        <ele>804.8</ele>
        <time>2025-09-28T11:41:56Z</time>
      </trkpt>
      <trkpt lat="46.08644" lon="4.41675">
        <ele>804.8</ele>
        <time>2025-09-28T11:41:57Z</time>
      </trkpt>
      <trkpt lat="46.08645" lon="4.41676">
        <ele>805</ele>
        <time>2025-09-28T11:41:58Z</time>
      </trkpt>
      <trkpt lat="46.08645" lon="4.41678">
        <ele>805</ele>
        <time>2025-09-28T11:41:59Z</time>
      </trkpt>
      <trkpt lat="46.08645" lon="4.41679">
        <ele>805.4</ele>
        <time>2025-09-28T11:42:00Z</time>
      </trkpt>
      <trkpt lat="46.08645" lon="4.41681">
        <ele>805.4</ele>
        <time>2025-09-28T11:42:01Z</time>
      </trkpt>
      <trkpt lat="46.08645" lon="4.41683">
        <ele>805.4</ele>
        <time>2025-09-28T11:42:02Z</time>
      </trkpt>
      <trkpt lat="46.08645" lon="4.41685">
        <ele>805.4</ele>
        <time>2025-09-28T11:42:03Z</time>
      </trkpt>
      <trkpt lat="46.08646" lon="4.41687">
        <ele>805.4</ele>
        <time>2025-09-28T11:42:04Z</time>
      </trkpt>
      <trkpt lat="46.08646" lon="4.41689">
        <ele>805.4</ele>
        <time>2025-09-28T11:42:05Z</time>
      </trkpt>
      <trkpt lat="46.08646" lon="4.41691">
        <ele>805.4</ele>
        <time>2025-09-28T11:42:06Z</time>
      </trkpt>
      <trkpt lat="46.08646" lon="4.41693">
        <ele>805.4</ele>
        <time>2025-09-28T11:42:07Z</time>
      </trkpt>
      <trkpt lat="46.08646" lon="4.41695">
        <ele>805.4</ele>
        <time>2025-09-28T11:42:08Z</time>
      </trkpt>
      <trkpt lat="46.08647" lon="4.41698">
        <ele>805.4</ele>
        <time>2025-09-28T11:42:09Z</time>
      </trkpt>
      <trkpt lat="46.08647" lon="4.41701">
        <ele>805.4</ele>
        <time>2025-09-28T11:42:10Z</time>
      </trkpt>
      <trkpt lat="46.08648" lon="4.41705">
        <ele>805.2</ele>
        <time>2025-09-28T11:42:11Z</time>
      </trkpt>
      <trkpt lat="46.08648" lon="4.41709">
        <ele>805.2</ele>
        <time>2025-09-28T11:42:12Z</time>
      </trkpt>
      <trkpt lat="46.08648" lon="4.41713">
        <ele>805.2</ele>
        <time>2025-09-28T11:42:13Z</time>
      </trkpt>
      <trkpt lat="46.08648" lon="4.41717">
        <ele>805.2</ele>
        <time>2025-09-28T11:42:14Z</time>
      </trkpt>
      <trkpt lat="46.08649" lon="4.41722">
        <ele>804.8</ele>
        <time>2025-09-28T11:42:15Z</time>
      </trkpt>
      <trkpt lat="46.08649" lon="4.41727">
        <ele>804.8</ele>
        <time>2025-09-28T11:42:16Z</time>
      </trkpt>
      <trkpt lat="46.0865" lon="4.41732">
        <ele>804.8</ele>
        <time>2025-09-28T11:42:17Z</time>
      </trkpt>
      <trkpt lat="46.0865" lon="4.41736">
        <ele>804.8</ele>
        <time>2025-09-28T11:42:18Z</time>
      </trkpt>
      <trkpt lat="46.08651" lon="4.41742">
        <ele>804.4</ele>
        <time>2025-09-28T11:42:19Z</time>
      </trkpt>
      <trkpt lat="46.08651" lon="4.41748">
        <ele>804</ele>
        <time>2025-09-28T11:42:20Z</time>
      </trkpt>
      <trkpt lat="46.08652" lon="4.41753">
        <ele>804</ele>
        <time>2025-09-28T11:42:21Z</time>
      </trkpt>
      <trkpt lat="46.08651" lon="4.41759">
        <ele>803.6</ele>
        <time>2025-09-28T11:42:22Z</time>
      </trkpt>
      <trkpt lat="46.08651" lon="4.41766">
        <ele>803.6</ele>
        <time>2025-09-28T11:42:23Z</time>
      </trkpt>
      <trkpt lat="46.08652" lon="4.41773">
        <ele>803.4</ele>
        <time>2025-09-28T11:42:24Z</time>
      </trkpt>
      <trkpt lat="46.08652" lon="4.4178">
        <ele>803.4</ele>
        <time>2025-09-28T11:42:25Z</time>
      </trkpt>
      <trkpt lat="46.08653" lon="4.41783">
        <ele>803.8</ele>
        <time>2025-09-28T11:42:26Z</time>
      </trkpt>
      <trkpt lat="46.08654" lon="4.41788">
        <ele>803.8</ele>
        <time>2025-09-28T11:42:27Z</time>
      </trkpt>
      <trkpt lat="46.08654" lon="4.41794">
        <ele>802.8</ele>
        <time>2025-09-28T11:42:28Z</time>
      </trkpt>
      <trkpt lat="46.08655" lon="4.41799">
        <ele>803</ele>
        <time>2025-09-28T11:42:29Z</time>
      </trkpt>
      <trkpt lat="46.08655" lon="4.41805">
        <ele>803</ele>
        <time>2025-09-28T11:42:30Z</time>
      </trkpt>
      <trkpt lat="46.08654" lon="4.41811">
        <ele>802.8</ele>
        <time>2025-09-28T11:42:31Z</time>
      </trkpt>
      <trkpt lat="46.08655" lon="4.4182">
        <ele>802.8</ele>
        <time>2025-09-28T11:42:32Z</time>
      </trkpt>
      <trkpt lat="46.08655" lon="4.41827">
        <ele>802.4</ele>
        <time>2025-09-28T11:42:33Z</time>
      </trkpt>
      <trkpt lat="46.08656" lon="4.41835">
        <ele>802.4</ele>
        <time>2025-09-28T11:42:34Z</time>
      </trkpt>
      <trkpt lat="46.08655" lon="4.41843">
        <ele>801.6</ele>
        <time>2025-09-28T11:42:35Z</time>
      </trkpt>
      <trkpt lat="46.08656" lon="4.4185">
        <ele>801.6</ele>
        <time>2025-09-28T11:42:36Z</time>
      </trkpt>
      <trkpt lat="46.08657" lon="4.41857">
        <ele>801.6</ele>
        <time>2025-09-28T11:42:37Z</time>
      </trkpt>
      <trkpt lat="46.08657" lon="4.41864">
        <ele>801.6</ele>
        <time>2025-09-28T11:42:38Z</time>
      </trkpt>
      <trkpt lat="46.08657" lon="4.4187">
        <ele>801.6</ele>
        <time>2025-09-28T11:42:39Z</time>
      </trkpt>
      <trkpt lat="46.08658" lon="4.41873">
        <ele>801.6</ele>
        <time>2025-09-28T11:42:40Z</time>
      </trkpt>
      <trkpt lat="46.08658" lon="4.41883">
        <ele>801.6</ele>
        <time>2025-09-28T11:42:41Z</time>
      </trkpt>
      <trkpt lat="46.0866" lon="4.41889">
        <ele>801.4</ele>
        <time>2025-09-28T11:42:42Z</time>
      </trkpt>
      <trkpt lat="46.08659" lon="4.41896">
        <ele>800.8</ele>
        <time>2025-09-28T11:42:43Z</time>
      </trkpt>
      <trkpt lat="46.08659" lon="4.41903">
        <ele>800.8</ele>
        <time>2025-09-28T11:42:44Z</time>
      </trkpt>
      <trkpt lat="46.08659" lon="4.41912">
        <ele>801</ele>
        <time>2025-09-28T11:42:45Z</time>
      </trkpt>
      <trkpt lat="46.08658" lon="4.41919">
        <ele>801</ele>
        <time>2025-09-28T11:42:46Z</time>
      </trkpt>
      <trkpt lat="46.08657" lon="4.41928">
        <ele>801.4</ele>
        <time>2025-09-28T11:42:47Z</time>
      </trkpt>
      <trkpt lat="46.08658" lon="4.41933">
        <ele>801</ele>
        <time>2025-09-28T11:42:48Z</time>
      </trkpt>
      <trkpt lat="46.08658" lon="4.41939">
        <ele>801</ele>
        <time>2025-09-28T11:42:49Z</time>
      </trkpt>
      <trkpt lat="46.08659" lon="4.41946">
        <ele>801.6</ele>
        <time>2025-09-28T11:42:50Z</time>
      </trkpt>
      <trkpt lat="46.0866" lon="4.41951">
        <ele>801.4</ele>
        <time>2025-09-28T11:42:51Z</time>
      </trkpt>
      <trkpt lat="46.08662" lon="4.41955">
        <ele>801.6</ele>
        <time>2025-09-28T11:42:52Z</time>
      </trkpt>
      <trkpt lat="46.08663" lon="4.4196">
        <ele>801.8</ele>
        <time>2025-09-28T11:42:53Z</time>
      </trkpt>
      <trkpt lat="46.08668" lon="4.4196">
        <ele>802.2</ele>
        <time>2025-09-28T11:42:54Z</time>
      </trkpt>
      <trkpt lat="46.0867" lon="4.41958">
        <ele>802.4</ele>
        <time>2025-09-28T11:42:55Z</time>
      </trkpt>
      <trkpt lat="46.08673" lon="4.41958">
        <ele>802.6</ele>
        <time>2025-09-28T11:42:56Z</time>
      </trkpt>
      <trkpt lat="46.08675" lon="4.41956">
        <ele>803</ele>
        <time>2025-09-28T11:42:57Z</time>
      </trkpt>
      <trkpt lat="46.08676" lon="4.41954">
        <ele>803.4</ele>
        <time>2025-09-28T11:42:58Z</time>
      </trkpt>
      <trkpt lat="46.08678" lon="4.41953">
        <ele>803.8</ele>
        <time>2025-09-28T11:42:59Z</time>
      </trkpt>
      <trkpt lat="46.0868" lon="4.41952">
        <ele>803.8</ele>
        <time>2025-09-28T11:43:00Z</time>
      </trkpt>
      <trkpt lat="46.08682" lon="4.41951">
        <ele>804.4</ele>
        <time>2025-09-28T11:43:01Z</time>
      </trkpt>
      <trkpt lat="46.08684" lon="4.4195">
        <ele>804.8</ele>
        <time>2025-09-28T11:43:02Z</time>
      </trkpt>
      <trkpt lat="46.08685" lon="4.41949">
        <ele>805</ele>
        <time>2025-09-28T11:43:03Z</time>
      </trkpt>
      <trkpt lat="46.08687" lon="4.41947">
        <ele>805</ele>
        <time>2025-09-28T11:43:04Z</time>
      </trkpt>
      <trkpt lat="46.0869" lon="4.41946">
        <ele>805.4</ele>
        <time>2025-09-28T11:43:05Z</time>
      </trkpt>
      <trkpt lat="46.08691" lon="4.41946">
        <ele>806</ele>
        <time>2025-09-28T11:43:06Z</time>
      </trkpt>
      <trkpt lat="46.08693" lon="4.41946">
        <ele>806.4</ele>
        <time>2025-09-28T11:43:07Z</time>
      </trkpt>
      <trkpt lat="46.08694" lon="4.41945">
        <ele>806.8</ele>
        <time>2025-09-28T11:43:08Z</time>
      </trkpt>
      <trkpt lat="46.08696" lon="4.41943">
        <ele>807.2</ele>
        <time>2025-09-28T11:43:09Z</time>
      </trkpt>
      <trkpt lat="46.08697" lon="4.41943">
        <ele>807.6</ele>
        <time>2025-09-28T11:43:10Z</time>
      </trkpt>
      <trkpt lat="46.08698" lon="4.41942">
        <ele>808</ele>
        <time>2025-09-28T11:43:11Z</time>
      </trkpt>
      <trkpt lat="46.087" lon="4.41941">
        <ele>808.4</ele>
        <time>2025-09-28T11:43:12Z</time>
      </trkpt>
      <trkpt lat="46.08703" lon="4.41941">
        <ele>808.4</ele>
        <time>2025-09-28T11:43:13Z</time>
      </trkpt>
      <trkpt lat="46.08705" lon="4.41939">
        <ele>808.8</ele>
        <time>2025-09-28T11:43:14Z</time>
      </trkpt>
      <trkpt lat="46.08707" lon="4.41938">
        <ele>809.2</ele>
        <time>2025-09-28T11:43:15Z</time>
      </trkpt>
      <trkpt lat="46.08708" lon="4.41937">
        <ele>809.2</ele>
        <time>2025-09-28T11:43:16Z</time>
      </trkpt>
      <trkpt lat="46.08709" lon="4.41936">
        <ele>809.6</ele>
        <time>2025-09-28T11:43:17Z</time>
      </trkpt>
      <trkpt lat="46.0871" lon="4.41935">
        <ele>810</ele>
        <time>2025-09-28T11:43:18Z</time>
      </trkpt>
      <trkpt lat="46.08711" lon="4.41934">
        <ele>810.2</ele>
        <time>2025-09-28T11:43:19Z</time>
      </trkpt>
      <trkpt lat="46.08712" lon="4.41932">
        <ele>810.4</ele>
        <time>2025-09-28T11:43:20Z</time>
      </trkpt>
      <trkpt lat="46.08713" lon="4.41931">
        <ele>810.8</ele>
        <time>2025-09-28T11:43:21Z</time>
      </trkpt>
      <trkpt lat="46.08713" lon="4.4193">
        <ele>811.2</ele>
        <time>2025-09-28T11:43:22Z</time>
      </trkpt>
      <trkpt lat="46.08714" lon="4.4193">
        <ele>811.2</ele>
        <time>2025-09-28T11:43:23Z</time>
      </trkpt>
      <trkpt lat="46.08715" lon="4.41929">
        <ele>811.4</ele>
        <time>2025-09-28T11:43:24Z</time>
      </trkpt>
      <trkpt lat="46.08716" lon="4.41928">
        <ele>811.8</ele>
        <time>2025-09-28T11:43:25Z</time>
      </trkpt>
      <trkpt lat="46.08717" lon="4.41927">
        <ele>812</ele>
        <time>2025-09-28T11:43:26Z</time>
      </trkpt>
      <trkpt lat="46.08719" lon="4.41925">
        <ele>812.4</ele>
        <time>2025-09-28T11:43:27Z</time>
      </trkpt>
      <trkpt lat="46.0872" lon="4.41923">
        <ele>812.8</ele>
        <time>2025-09-28T11:43:28Z</time>
      </trkpt>
      <trkpt lat="46.08722" lon="4.41923">
        <ele>812.8</ele>
        <time>2025-09-28T11:43:29Z</time>
      </trkpt>
      <trkpt lat="46.08724" lon="4.41923">
        <ele>813.2</ele>
        <time>2025-09-28T11:43:30Z</time>
      </trkpt>
      <trkpt lat="46.08725" lon="4.41923">
        <ele>813.6</ele>
        <time>2025-09-28T11:43:31Z</time>
      </trkpt>
      <trkpt lat="46.08726" lon="4.41923">
        <ele>813.6</ele>
        <time>2025-09-28T11:43:32Z</time>
      </trkpt>
      <trkpt lat="46.08728" lon="4.41923">
        <ele>814</ele>
        <time>2025-09-28T11:43:33Z</time>
      </trkpt>
      <trkpt lat="46.08728" lon="4.41923">
        <ele>814.2</ele>
        <time>2025-09-28T11:43:34Z</time>
      </trkpt>
      <trkpt lat="46.08728" lon="4.41923">
        <ele>814.4</ele>
        <time>2025-09-28T11:43:35Z</time>
      </trkpt>
      <trkpt lat="46.08728" lon="4.41924">
        <ele>814.8</ele>
        <time>2025-09-28T11:43:36Z</time>
      </trkpt>
      <trkpt lat="46.0873" lon="4.41921">
        <ele>815.4</ele>
        <time>2025-09-28T11:43:41Z</time>
      </trkpt>
      <trkpt lat="46.08731" lon="4.4192">
        <ele>815.4</ele>
        <time>2025-09-28T11:43:42Z</time>
      </trkpt>
      <trkpt lat="46.08732" lon="4.41919">
        <ele>815.4</ele>
        <time>2025-09-28T11:43:43Z</time>
      </trkpt>
      <trkpt lat="46.08732" lon="4.41918">
        <ele>815.4</ele>
        <time>2025-09-28T11:43:44Z</time>
      </trkpt>
      <trkpt lat="46.08733" lon="4.41918">
        <ele>815.8</ele>
        <time>2025-09-28T11:43:45Z</time>
      </trkpt>
      <trkpt lat="46.08734" lon="4.41918">
        <ele>816</ele>
        <time>2025-09-28T11:43:46Z</time>
      </trkpt>
      <trkpt lat="46.08734" lon="4.41917">
        <ele>816.2</ele>
        <time>2025-09-28T11:43:47Z</time>
      </trkpt>
      <trkpt lat="46.08735" lon="4.41917">
        <ele>816.4</ele>
        <time>2025-09-28T11:43:48Z</time>
      </trkpt>
      <trkpt lat="46.08735" lon="4.41917">
        <ele>816.4</ele>
        <time>2025-09-28T11:43:49Z</time>
      </trkpt>
      <trkpt lat="46.08735" lon="4.41916">
        <ele>816.8</ele>
        <time>2025-09-28T11:43:50Z</time>
      </trkpt>
      <trkpt lat="46.08736" lon="4.41914">
        <ele>816.8</ele>
        <time>2025-09-28T11:43:51Z</time>
      </trkpt>
      <trkpt lat="46.08737" lon="4.41913">
        <ele>817.2</ele>
        <time>2025-09-28T11:43:52Z</time>
      </trkpt>
      <trkpt lat="46.08738" lon="4.41912">
        <ele>817.2</ele>
        <time>2025-09-28T11:43:53Z</time>
      </trkpt>
      <trkpt lat="46.08738" lon="4.41912">
        <ele>817.6</ele>
        <time>2025-09-28T11:43:54Z</time>
      </trkpt>
      <trkpt lat="46.08739" lon="4.41911">
        <ele>817.6</ele>
        <time>2025-09-28T11:43:55Z</time>
      </trkpt>
      <trkpt lat="46.0874" lon="4.41911">
        <ele>817.8</ele>
        <time>2025-09-28T11:43:56Z</time>
      </trkpt>
      <trkpt lat="46.0874" lon="4.4191">
        <ele>818.2</ele>
        <time>2025-09-28T11:43:57Z</time>
      </trkpt>
      <trkpt lat="46.08741" lon="4.4191">
        <ele>818.4</ele>
        <time>2025-09-28T11:43:58Z</time>
      </trkpt>
      <trkpt lat="46.08742" lon="4.41909">
        <ele>818.4</ele>
        <time>2025-09-28T11:43:59Z</time>
      </trkpt>
      <trkpt lat="46.08742" lon="4.41909">
        <ele>818.8</ele>
        <time>2025-09-28T11:44:00Z</time>
      </trkpt>
      <trkpt lat="46.08743" lon="4.41908">
        <ele>818.8</ele>
        <time>2025-09-28T11:44:01Z</time>
      </trkpt>
      <trkpt lat="46.08744" lon="4.41908">
        <ele>819</ele>
        <time>2025-09-28T11:44:02Z</time>
      </trkpt>
      <trkpt lat="46.08745" lon="4.41907">
        <ele>819.2</ele>
        <time>2025-09-28T11:44:03Z</time>
      </trkpt>
      <trkpt lat="46.08745" lon="4.41907">
        <ele>819.6</ele>
        <time>2025-09-28T11:44:04Z</time>
      </trkpt>
      <trkpt lat="46.08746" lon="4.41907">
        <ele>819.6</ele>
        <time>2025-09-28T11:44:05Z</time>
      </trkpt>
      <trkpt lat="46.08747" lon="4.41907">
        <ele>819.8</ele>
        <time>2025-09-28T11:44:06Z</time>
      </trkpt>
      <trkpt lat="46.08748" lon="4.41906">
        <ele>820</ele>
        <time>2025-09-28T11:44:07Z</time>
      </trkpt>
      <trkpt lat="46.08748" lon="4.41906">
        <ele>820</ele>
        <time>2025-09-28T11:44:08Z</time>
      </trkpt>
      <trkpt lat="46.08749" lon="4.41906">
        <ele>820.4</ele>
        <time>2025-09-28T11:44:09Z</time>
      </trkpt>
      <trkpt lat="46.08749" lon="4.41905">
        <ele>820.4</ele>
        <time>2025-09-28T11:44:10Z</time>
      </trkpt>
      <trkpt lat="46.0875" lon="4.41904">
        <ele>820.4</ele>
        <time>2025-09-28T11:44:11Z</time>
      </trkpt>
      <trkpt lat="46.08751" lon="4.41903">
        <ele>820.6</ele>
        <time>2025-09-28T11:44:12Z</time>
      </trkpt>
      <trkpt lat="46.08752" lon="4.41902">
        <ele>820.6</ele>
        <time>2025-09-28T11:44:13Z</time>
      </trkpt>
      <trkpt lat="46.08753" lon="4.41902">
        <ele>820.6</ele>
        <time>2025-09-28T11:44:14Z</time>
      </trkpt>
      <trkpt lat="46.08753" lon="4.41901">
        <ele>820.8</ele>
        <time>2025-09-28T11:44:15Z</time>
      </trkpt>
      <trkpt lat="46.08754" lon="4.419">
        <ele>820.8</ele>
        <time>2025-09-28T11:44:16Z</time>
      </trkpt>
      <trkpt lat="46.08755" lon="4.41899">
        <ele>820.8</ele>
        <time>2025-09-28T11:44:17Z</time>
      </trkpt>
      <trkpt lat="46.08755" lon="4.41898">
        <ele>821.2</ele>
        <time>2025-09-28T11:44:18Z</time>
      </trkpt>
      <trkpt lat="46.08756" lon="4.41898">
        <ele>821.2</ele>
        <time>2025-09-28T11:44:19Z</time>
      </trkpt>
      <trkpt lat="46.08757" lon="4.41898">
        <ele>821.6</ele>
        <time>2025-09-28T11:44:20Z</time>
      </trkpt>
      <trkpt lat="46.08757" lon="4.41898">
        <ele>821.8</ele>
        <time>2025-09-28T11:44:21Z</time>
      </trkpt>
      <trkpt lat="46.08758" lon="4.41897">
        <ele>821.8</ele>
        <time>2025-09-28T11:44:22Z</time>
      </trkpt>
      <trkpt lat="46.08759" lon="4.41897">
        <ele>822.2</ele>
        <time>2025-09-28T11:44:23Z</time>
      </trkpt>
      <trkpt lat="46.08759" lon="4.41896">
        <ele>822.2</ele>
        <time>2025-09-28T11:44:24Z</time>
      </trkpt>
      <trkpt lat="46.0876" lon="4.41896">
        <ele>822.4</ele>
        <time>2025-09-28T11:44:25Z</time>
      </trkpt>
      <trkpt lat="46.08761" lon="4.41895">
        <ele>822.6</ele>
        <time>2025-09-28T11:44:26Z</time>
      </trkpt>
      <trkpt lat="46.08762" lon="4.41895">
        <ele>822.6</ele>
        <time>2025-09-28T11:44:27Z</time>
      </trkpt>
      <trkpt lat="46.08763" lon="4.41893">
        <ele>823</ele>
        <time>2025-09-28T11:44:28Z</time>
      </trkpt>
      <trkpt lat="46.08764" lon="4.41892">
        <ele>823</ele>
        <time>2025-09-28T11:44:29Z</time>
      </trkpt>
      <trkpt lat="46.08764" lon="4.41891">
        <ele>823.2</ele>
        <time>2025-09-28T11:44:30Z</time>
      </trkpt>
      <trkpt lat="46.08765" lon="4.4189">
        <ele>823.4</ele>
        <time>2025-09-28T11:44:31Z</time>
      </trkpt>
      <trkpt lat="46.08766" lon="4.4189">
        <ele>823.8</ele>
        <time>2025-09-28T11:44:32Z</time>
      </trkpt>
      <trkpt lat="46.08767" lon="4.41889">
        <ele>823.8</ele>
        <time>2025-09-28T11:44:33Z</time>
      </trkpt>
      <trkpt lat="46.08767" lon="4.41889">
        <ele>824</ele>
        <time>2025-09-28T11:44:34Z</time>
      </trkpt>
      <trkpt lat="46.08768" lon="4.41889">
        <ele>824</ele>
        <time>2025-09-28T11:44:35Z</time>
      </trkpt>
      <trkpt lat="46.08769" lon="4.41888">
        <ele>824</ele>
        <time>2025-09-28T11:44:36Z</time>
      </trkpt>
      <trkpt lat="46.0877" lon="4.41889">
        <ele>824.4</ele>
        <time>2025-09-28T11:44:37Z</time>
      </trkpt>
      <trkpt lat="46.08771" lon="4.41889">
        <ele>824.4</ele>
        <time>2025-09-28T11:44:38Z</time>
      </trkpt>
      <trkpt lat="46.08773" lon="4.41889">
        <ele>824.4</ele>
        <time>2025-09-28T11:44:39Z</time>
      </trkpt>
      <trkpt lat="46.08774" lon="4.4189">
        <ele>825</ele>
        <time>2025-09-28T11:44:40Z</time>
      </trkpt>
      <trkpt lat="46.08775" lon="4.4189">
        <ele>825</ele>
        <time>2025-09-28T11:44:41Z</time>
      </trkpt>
      <trkpt lat="46.08776" lon="4.4189">
        <ele>825.2</ele>
        <time>2025-09-28T11:44:42Z</time>
      </trkpt>
      <trkpt lat="46.08776" lon="4.41891">
        <ele>825.2</ele>
        <time>2025-09-28T11:44:43Z</time>
      </trkpt>
      <trkpt lat="46.08777" lon="4.41891">
        <ele>825.8</ele>
        <time>2025-09-28T11:44:44Z</time>
      </trkpt>
      <trkpt lat="46.08778" lon="4.41892">
        <ele>826</ele>
        <time>2025-09-28T11:44:45Z</time>
      </trkpt>
      <trkpt lat="46.08779" lon="4.41892">
        <ele>826.2</ele>
        <time>2025-09-28T11:44:46Z</time>
      </trkpt>
      <trkpt lat="46.08779" lon="4.41892">
        <ele>826.2</ele>
        <time>2025-09-28T11:44:47Z</time>
      </trkpt>
      <trkpt lat="46.08779" lon="4.41892">
        <ele>826.6</ele>
        <time>2025-09-28T11:44:48Z</time>
      </trkpt>
      <trkpt lat="46.0878" lon="4.41891">
        <ele>826.6</ele>
        <time>2025-09-28T11:44:49Z</time>
      </trkpt>
      <trkpt lat="46.08781" lon="4.4189">
        <ele>827</ele>
        <time>2025-09-28T11:44:50Z</time>
      </trkpt>
      <trkpt lat="46.08782" lon="4.4189">
        <ele>827.2</ele>
        <time>2025-09-28T11:44:51Z</time>
      </trkpt>
      <trkpt lat="46.08783" lon="4.41891">
        <ele>827.2</ele>
        <time>2025-09-28T11:44:52Z</time>
      </trkpt>
      <trkpt lat="46.08784" lon="4.41892">
        <ele>827.6</ele>
        <time>2025-09-28T11:44:53Z</time>
      </trkpt>
      <trkpt lat="46.08785" lon="4.41892">
        <ele>827.6</ele>
        <time>2025-09-28T11:44:54Z</time>
      </trkpt>
      <trkpt lat="46.08786" lon="4.41892">
        <ele>827.8</ele>
        <time>2025-09-28T11:44:55Z</time>
      </trkpt>
      <trkpt lat="46.08786" lon="4.41893">
        <ele>827.8</ele>
        <time>2025-09-28T11:44:56Z</time>
      </trkpt>
      <trkpt lat="46.08787" lon="4.41892">
        <ele>827.8</ele>
        <time>2025-09-28T11:44:57Z</time>
      </trkpt>
      <trkpt lat="46.08787" lon="4.41892">
        <ele>827.8</ele>
        <time>2025-09-28T11:44:58Z</time>
      </trkpt>
      <trkpt lat="46.08787" lon="4.41892">
        <ele>828.2</ele>
        <time>2025-09-28T11:44:59Z</time>
      </trkpt>
      <trkpt lat="46.08787" lon="4.41891">
        <ele>828.2</ele>
        <time>2025-09-28T11:45:00Z</time>
      </trkpt>
      <trkpt lat="46.08787" lon="4.41891">
        <ele>828.4</ele>
        <time>2025-09-28T11:45:01Z</time>
      </trkpt>
      <trkpt lat="46.08787" lon="4.41892">
        <ele>828.4</ele>
        <time>2025-09-28T11:45:02Z</time>
      </trkpt>
      <trkpt lat="46.08788" lon="4.41894">
        <ele>828.4</ele>
        <time>2025-09-28T11:45:03Z</time>
      </trkpt>
      <trkpt lat="46.08789" lon="4.41895">
        <ele>828.4</ele>
        <time>2025-09-28T11:45:04Z</time>
      </trkpt>
      <trkpt lat="46.0879" lon="4.41895">
        <ele>828.6</ele>
        <time>2025-09-28T11:45:05Z</time>
      </trkpt>
      <trkpt lat="46.08791" lon="4.41895">
        <ele>828.6</ele>
        <time>2025-09-28T11:45:06Z</time>
      </trkpt>
      <trkpt lat="46.08793" lon="4.41896">
        <ele>828.6</ele>
        <time>2025-09-28T11:45:07Z</time>
      </trkpt>
      <trkpt lat="46.08795" lon="4.41896">
        <ele>828.6</ele>
        <time>2025-09-28T11:45:08Z</time>
      </trkpt>
      <trkpt lat="46.08797" lon="4.41896">
        <ele>829</ele>
        <time>2025-09-28T11:45:09Z</time>
      </trkpt>
      <trkpt lat="46.08799" lon="4.41896">
        <ele>829</ele>
        <time>2025-09-28T11:45:10Z</time>
      </trkpt>
      <trkpt lat="46.08801" lon="4.41896">
        <ele>829.4</ele>
        <time>2025-09-28T11:45:11Z</time>
      </trkpt>
      <trkpt lat="46.08802" lon="4.41897">
        <ele>829.4</ele>
        <time>2025-09-28T11:45:12Z</time>
      </trkpt>
      <trkpt lat="46.08804" lon="4.41898">
        <ele>829.6</ele>
        <time>2025-09-28T11:45:13Z</time>
      </trkpt>
      <trkpt lat="46.08806" lon="4.419">
        <ele>829.8</ele>
        <time>2025-09-28T11:45:14Z</time>
      </trkpt>
      <trkpt lat="46.08808" lon="4.41901">
        <ele>830.2</ele>
        <time>2025-09-28T11:45:15Z</time>
      </trkpt>
      <trkpt lat="46.08809" lon="4.41902">
        <ele>830.2</ele>
        <time>2025-09-28T11:45:16Z</time>
      </trkpt>
      <trkpt lat="46.08811" lon="4.41903">
        <ele>830.6</ele>
        <time>2025-09-28T11:45:17Z</time>
      </trkpt>
      <trkpt lat="46.08813" lon="4.41904">
        <ele>831</ele>
        <time>2025-09-28T11:45:18Z</time>
      </trkpt>
      <trkpt lat="46.08815" lon="4.41905">
        <ele>831</ele>
        <time>2025-09-28T11:45:19Z</time>
      </trkpt>
      <trkpt lat="46.08817" lon="4.41906">
        <ele>831.4</ele>
        <time>2025-09-28T11:45:20Z</time>
      </trkpt>
      <trkpt lat="46.08818" lon="4.41907">
        <ele>831.4</ele>
        <time>2025-09-28T11:45:21Z</time>
      </trkpt>
      <trkpt lat="46.0882" lon="4.41908">
        <ele>831.4</ele>
        <time>2025-09-28T11:45:22Z</time>
      </trkpt>
      <trkpt lat="46.0882" lon="4.41908">
        <ele>831.4</ele>
        <time>2025-09-28T11:45:23Z</time>
      </trkpt>
      <trkpt lat="46.08822" lon="4.41909">
        <ele>831.4</ele>
        <time>2025-09-28T11:45:24Z</time>
      </trkpt>
      <trkpt lat="46.08824" lon="4.4191">
        <ele>831.4</ele>
        <time>2025-09-28T11:45:25Z</time>
      </trkpt>
      <trkpt lat="46.08825" lon="4.41911">
        <ele>831.4</ele>
        <time>2025-09-28T11:45:26Z</time>
      </trkpt>
      <trkpt lat="46.08826" lon="4.41912">
        <ele>831.4</ele>
        <time>2025-09-28T11:45:27Z</time>
      </trkpt>
      <trkpt lat="46.08827" lon="4.41914">
        <ele>831.4</ele>
        <time>2025-09-28T11:45:28Z</time>
      </trkpt>
      <trkpt lat="46.08829" lon="4.41916">
        <ele>831.6</ele>
        <time>2025-09-28T11:45:29Z</time>
      </trkpt>
      <trkpt lat="46.08832" lon="4.41918">
        <ele>832</ele>
        <time>2025-09-28T11:45:30Z</time>
      </trkpt>
      <trkpt lat="46.08835" lon="4.41919">
        <ele>832.2</ele>
        <time>2025-09-28T11:45:31Z</time>
      </trkpt>
      <trkpt lat="46.08837" lon="4.41921">
        <ele>832.2</ele>
        <time>2025-09-28T11:45:32Z</time>
      </trkpt>
      <trkpt lat="46.08839" lon="4.41923">
        <ele>832.6</ele>
        <time>2025-09-28T11:45:33Z</time>
      </trkpt>
      <trkpt lat="46.08841" lon="4.41924">
        <ele>832.6</ele>
        <time>2025-09-28T11:45:34Z</time>
      </trkpt>
      <trkpt lat="46.08843" lon="4.41926">
        <ele>832.6</ele>
        <time>2025-09-28T11:45:35Z</time>
      </trkpt>
      <trkpt lat="46.08845" lon="4.41927">
        <ele>833</ele>
        <time>2025-09-28T11:45:36Z</time>
      </trkpt>
      <trkpt lat="46.08847" lon="4.4193">
        <ele>833</ele>
        <time>2025-09-28T11:45:37Z</time>
      </trkpt>
      <trkpt lat="46.08849" lon="4.41932">
        <ele>833.6</ele>
        <time>2025-09-28T11:45:38Z</time>
      </trkpt>
      <trkpt lat="46.0885" lon="4.41934">
        <ele>833.6</ele>
        <time>2025-09-28T11:45:39Z</time>
      </trkpt>
      <trkpt lat="46.08852" lon="4.41937">
        <ele>833.2</ele>
        <time>2025-09-28T11:45:40Z</time>
      </trkpt>
      <trkpt lat="46.08854" lon="4.41939">
        <ele>833</ele>
        <time>2025-09-28T11:45:41Z</time>
      </trkpt>
      <trkpt lat="46.08855" lon="4.41942">
        <ele>833.4</ele>
        <time>2025-09-28T11:45:42Z</time>
      </trkpt>
      <trkpt lat="46.08857" lon="4.41944">
        <ele>833.2</ele>
        <time>2025-09-28T11:45:43Z</time>
      </trkpt>
      <trkpt lat="46.08859" lon="4.41946">
        <ele>833.4</ele>
        <time>2025-09-28T11:45:44Z</time>
      </trkpt>
      <trkpt lat="46.0886" lon="4.41949">
        <ele>833.4</ele>
        <time>2025-09-28T11:45:45Z</time>
      </trkpt>
      <trkpt lat="46.08862" lon="4.41952">
        <ele>833.8</ele>
        <time>2025-09-28T11:45:46Z</time>
      </trkpt>
      <trkpt lat="46.08864" lon="4.41954">
        <ele>833.8</ele>
        <time>2025-09-28T11:45:47Z</time>
      </trkpt>
      <trkpt lat="46.08865" lon="4.41957">
        <ele>833.8</ele>
        <time>2025-09-28T11:45:48Z</time>
      </trkpt>
      <trkpt lat="46.08866" lon="4.41959">
        <ele>833.8</ele>
        <time>2025-09-28T11:45:49Z</time>
      </trkpt>
      <trkpt lat="46.08868" lon="4.41962">
        <ele>834</ele>
        <time>2025-09-28T11:45:50Z</time>
      </trkpt>
      <trkpt lat="46.08869" lon="4.41964">
        <ele>834</ele>
        <time>2025-09-28T11:45:51Z</time>
      </trkpt>
      <trkpt lat="46.08871" lon="4.41967">
        <ele>834.4</ele>
        <time>2025-09-28T11:45:52Z</time>
      </trkpt>
      <trkpt lat="46.08872" lon="4.41969">
        <ele>834.4</ele>
        <time>2025-09-28T11:45:53Z</time>
      </trkpt>
      <trkpt lat="46.08874" lon="4.41972">
        <ele>834.4</ele>
        <time>2025-09-28T11:45:54Z</time>
      </trkpt>
      <trkpt lat="46.08876" lon="4.41974">
        <ele>834.4</ele>
        <time>2025-09-28T11:45:55Z</time>
      </trkpt>
      <trkpt lat="46.08877" lon="4.41976">
        <ele>834.4</ele>
        <time>2025-09-28T11:45:56Z</time>
      </trkpt>
      <trkpt lat="46.08878" lon="4.41979">
        <ele>834.4</ele>
        <time>2025-09-28T11:45:57Z</time>
      </trkpt>
      <trkpt lat="46.08879" lon="4.41981">
        <ele>834.4</ele>
        <time>2025-09-28T11:45:58Z</time>
      </trkpt>
      <trkpt lat="46.08881" lon="4.41983">
        <ele>834.6</ele>
        <time>2025-09-28T11:45:59Z</time>
      </trkpt>
      <trkpt lat="46.08882" lon="4.41986">
        <ele>834.6</ele>
        <time>2025-09-28T11:46:00Z</time>
      </trkpt>
      <trkpt lat="46.08882" lon="4.41988">
        <ele>835</ele>
        <time>2025-09-28T11:46:01Z</time>
      </trkpt>
      <trkpt lat="46.08885" lon="4.41994">
        <ele>835</ele>
        <time>2025-09-28T11:46:02Z</time>
      </trkpt>
      <trkpt lat="46.08886" lon="4.41996">
        <ele>835</ele>
        <time>2025-09-28T11:46:03Z</time>
      </trkpt>
      <trkpt lat="46.08887" lon="4.41999">
        <ele>835.2</ele>
        <time>2025-09-28T11:46:04Z</time>
      </trkpt>
      <trkpt lat="46.08888" lon="4.42001">
        <ele>835.6</ele>
        <time>2025-09-28T11:46:05Z</time>
      </trkpt>
      <trkpt lat="46.08889" lon="4.42003">
        <ele>835.6</ele>
        <time>2025-09-28T11:46:06Z</time>
      </trkpt>
      <trkpt lat="46.08891" lon="4.42006">
        <ele>835.8</ele>
        <time>2025-09-28T11:46:07Z</time>
      </trkpt>
      <trkpt lat="46.08893" lon="4.42008">
        <ele>835.8</ele>
        <time>2025-09-28T11:46:08Z</time>
      </trkpt>
      <trkpt lat="46.08894" lon="4.42011">
        <ele>836.2</ele>
        <time>2025-09-28T11:46:09Z</time>
      </trkpt>
      <trkpt lat="46.08896" lon="4.42013">
        <ele>836.2</ele>
        <time>2025-09-28T11:46:10Z</time>
      </trkpt>
      <trkpt lat="46.08896" lon="4.42015">
        <ele>836.2</ele>
        <time>2025-09-28T11:46:11Z</time>
      </trkpt>
      <trkpt lat="46.08897" lon="4.42017">
        <ele>836.6</ele>
        <time>2025-09-28T11:46:12Z</time>
      </trkpt>
      <trkpt lat="46.08898" lon="4.4202">
        <ele>836.8</ele>
        <time>2025-09-28T11:46:13Z</time>
      </trkpt>
      <trkpt lat="46.08899" lon="4.42022">
        <ele>836.8</ele>
        <time>2025-09-28T11:46:14Z</time>
      </trkpt>
      <trkpt lat="46.089" lon="4.42024">
        <ele>836.4</ele>
        <time>2025-09-28T11:46:15Z</time>
      </trkpt>
      <trkpt lat="46.08902" lon="4.42026">
        <ele>836.8</ele>
        <time>2025-09-28T11:46:16Z</time>
      </trkpt>
      <trkpt lat="46.08903" lon="4.42028">
        <ele>836.8</ele>
        <time>2025-09-28T11:46:17Z</time>
      </trkpt>
      <trkpt lat="46.08904" lon="4.42031">
        <ele>837.2</ele>
        <time>2025-09-28T11:46:18Z</time>
      </trkpt>
      <trkpt lat="46.08905" lon="4.42034">
        <ele>837.2</ele>
        <time>2025-09-28T11:46:19Z</time>
      </trkpt>
      <trkpt lat="46.08906" lon="4.42036">
        <ele>837.8</ele>
        <time>2025-09-28T11:46:20Z</time>
      </trkpt>
      <trkpt lat="46.08907" lon="4.42037">
        <ele>837.8</ele>
        <time>2025-09-28T11:46:21Z</time>
      </trkpt>
      <trkpt lat="46.08909" lon="4.42039">
        <ele>838.2</ele>
        <time>2025-09-28T11:46:22Z</time>
      </trkpt>
      <trkpt lat="46.0891" lon="4.42041">
        <ele>838.2</ele>
        <time>2025-09-28T11:46:23Z</time>
      </trkpt>
      <trkpt lat="46.08911" lon="4.42043">
        <ele>838.2</ele>
        <time>2025-09-28T11:46:24Z</time>
      </trkpt>
      <trkpt lat="46.08913" lon="4.42045">
        <ele>838.2</ele>
        <time>2025-09-28T11:46:25Z</time>
      </trkpt>
      <trkpt lat="46.08914" lon="4.42046">
        <ele>838.2</ele>
        <time>2025-09-28T11:46:26Z</time>
      </trkpt>
      <trkpt lat="46.08914" lon="4.42047">
        <ele>838.6</ele>
        <time>2025-09-28T11:46:27Z</time>
      </trkpt>
      <trkpt lat="46.08915" lon="4.42049">
        <ele>838.6</ele>
        <time>2025-09-28T11:46:28Z</time>
      </trkpt>
      <trkpt lat="46.08916" lon="4.42051">
        <ele>838.6</ele>
        <time>2025-09-28T11:46:29Z</time>
      </trkpt>
      <trkpt lat="46.08917" lon="4.42054">
        <ele>839</ele>
        <time>2025-09-28T11:46:30Z</time>
      </trkpt>
      <trkpt lat="46.08918" lon="4.42055">
        <ele>839</ele>
        <time>2025-09-28T11:46:31Z</time>
      </trkpt>
      <trkpt lat="46.08919" lon="4.42057">
        <ele>839.4</ele>
        <time>2025-09-28T11:46:32Z</time>
      </trkpt>
      <trkpt lat="46.08921" lon="4.4206">
        <ele>839.4</ele>
        <time>2025-09-28T11:46:33Z</time>
      </trkpt>
      <trkpt lat="46.08922" lon="4.42062">
        <ele>839.6</ele>
        <time>2025-09-28T11:46:34Z</time>
      </trkpt>
      <trkpt lat="46.08924" lon="4.42065">
        <ele>839.6</ele>
        <time>2025-09-28T11:46:35Z</time>
      </trkpt>
      <trkpt lat="46.08927" lon="4.42068">
        <ele>839.6</ele>
        <time>2025-09-28T11:46:36Z</time>
      </trkpt>
      <trkpt lat="46.08929" lon="4.4207">
        <ele>840</ele>
        <time>2025-09-28T11:46:37Z</time>
      </trkpt>
      <trkpt lat="46.08931" lon="4.42073">
        <ele>840</ele>
        <time>2025-09-28T11:46:38Z</time>
      </trkpt>
      <trkpt lat="46.08933" lon="4.42076">
        <ele>840</ele>
        <time>2025-09-28T11:46:39Z</time>
      </trkpt>
      <trkpt lat="46.08935" lon="4.42079">
        <ele>838.4</ele>
        <time>2025-09-28T11:46:40Z</time>
      </trkpt>
      <trkpt lat="46.08937" lon="4.42081">
        <ele>839</ele>
        <time>2025-09-28T11:46:41Z</time>
      </trkpt>
      <trkpt lat="46.08939" lon="4.42082">
        <ele>839.4</ele>
        <time>2025-09-28T11:46:42Z</time>
      </trkpt>
      <trkpt lat="46.0894" lon="4.42084">
        <ele>839.8</ele>
        <time>2025-09-28T11:46:43Z</time>
      </trkpt>
      <trkpt lat="46.08942" lon="4.42086">
        <ele>840.2</ele>
        <time>2025-09-28T11:46:44Z</time>
      </trkpt>
      <trkpt lat="46.08944" lon="4.42088">
        <ele>840.4</ele>
        <time>2025-09-28T11:46:45Z</time>
      </trkpt>
      <trkpt lat="46.08945" lon="4.42089">
        <ele>840.8</ele>
        <time>2025-09-28T11:46:46Z</time>
      </trkpt>
      <trkpt lat="46.08947" lon="4.42091">
        <ele>840.8</ele>
        <time>2025-09-28T11:46:47Z</time>
      </trkpt>
      <trkpt lat="46.08949" lon="4.42093">
        <ele>840.8</ele>
        <time>2025-09-28T11:46:48Z</time>
      </trkpt>
      <trkpt lat="46.08951" lon="4.42096">
        <ele>840.8</ele>
        <time>2025-09-28T11:46:49Z</time>
      </trkpt>
      <trkpt lat="46.08953" lon="4.42099">
        <ele>841</ele>
        <time>2025-09-28T11:46:50Z</time>
      </trkpt>
      <trkpt lat="46.08955" lon="4.42101">
        <ele>841</ele>
        <time>2025-09-28T11:46:51Z</time>
      </trkpt>
      <trkpt lat="46.08957" lon="4.42103">
        <ele>841</ele>
        <time>2025-09-28T11:46:52Z</time>
      </trkpt>
      <trkpt lat="46.08959" lon="4.42106">
        <ele>841</ele>
        <time>2025-09-28T11:46:53Z</time>
      </trkpt>
      <trkpt lat="46.08961" lon="4.42109">
        <ele>841</ele>
        <time>2025-09-28T11:46:54Z</time>
      </trkpt>
      <trkpt lat="46.08963" lon="4.42112">
        <ele>841.4</ele>
        <time>2025-09-28T11:46:55Z</time>
      </trkpt>
      <trkpt lat="46.08965" lon="4.42114">
        <ele>841.4</ele>
        <time>2025-09-28T11:46:56Z</time>
      </trkpt>
      <trkpt lat="46.08966" lon="4.42117">
        <ele>841.4</ele>
        <time>2025-09-28T11:46:57Z</time>
      </trkpt>
      <trkpt lat="46.08967" lon="4.42119">
        <ele>841.6</ele>
        <time>2025-09-28T11:46:58Z</time>
      </trkpt>
      <trkpt lat="46.08969" lon="4.42123">
        <ele>841.6</ele>
        <time>2025-09-28T11:46:59Z</time>
      </trkpt>
      <trkpt lat="46.08971" lon="4.42126">
        <ele>841.6</ele>
        <time>2025-09-28T11:47:00Z</time>
      </trkpt>
      <trkpt lat="46.08973" lon="4.42129">
        <ele>842.2</ele>
        <time>2025-09-28T11:47:01Z</time>
      </trkpt>
      <trkpt lat="46.08974" lon="4.42131">
        <ele>842.4</ele>
        <time>2025-09-28T11:47:02Z</time>
      </trkpt>
      <trkpt lat="46.08976" lon="4.42134">
        <ele>842.4</ele>
        <time>2025-09-28T11:47:03Z</time>
      </trkpt>
      <trkpt lat="46.08978" lon="4.42137">
        <ele>842.8</ele>
        <time>2025-09-28T11:47:04Z</time>
      </trkpt>
      <trkpt lat="46.08979" lon="4.42141">
        <ele>842.8</ele>
        <time>2025-09-28T11:47:05Z</time>
      </trkpt>
      <trkpt lat="46.08981" lon="4.42143">
        <ele>842.8</ele>
        <time>2025-09-28T11:47:06Z</time>
      </trkpt>
      <trkpt lat="46.08982" lon="4.42146">
        <ele>843</ele>
        <time>2025-09-28T11:47:07Z</time>
      </trkpt>
      <trkpt lat="46.08984" lon="4.42148">
        <ele>843</ele>
        <time>2025-09-28T11:47:08Z</time>
      </trkpt>
      <trkpt lat="46.08986" lon="4.42151">
        <ele>843.4</ele>
        <time>2025-09-28T11:47:09Z</time>
      </trkpt>
      <trkpt lat="46.08987" lon="4.42152">
        <ele>843.4</ele>
        <time>2025-09-28T11:47:10Z</time>
      </trkpt>
      <trkpt lat="46.08988" lon="4.42154">
        <ele>843.6</ele>
        <time>2025-09-28T11:47:11Z</time>
      </trkpt>
      <trkpt lat="46.08989" lon="4.42157">
        <ele>843.8</ele>
        <time>2025-09-28T11:47:12Z</time>
      </trkpt>
      <trkpt lat="46.0899" lon="4.42158">
        <ele>844.2</ele>
        <time>2025-09-28T11:47:13Z</time>
      </trkpt>
      <trkpt lat="46.08991" lon="4.4216">
        <ele>844.2</ele>
        <time>2025-09-28T11:47:14Z</time>
      </trkpt>
      <trkpt lat="46.08992" lon="4.42162">
        <ele>844.4</ele>
        <time>2025-09-28T11:47:15Z</time>
      </trkpt>
      <trkpt lat="46.08993" lon="4.42164">
        <ele>844.8</ele>
        <time>2025-09-28T11:47:16Z</time>
      </trkpt>
      <trkpt lat="46.08994" lon="4.42166">
        <ele>845</ele>
        <time>2025-09-28T11:47:17Z</time>
      </trkpt>
      <trkpt lat="46.08995" lon="4.42168">
        <ele>845</ele>
        <time>2025-09-28T11:47:18Z</time>
      </trkpt>
      <trkpt lat="46.08995" lon="4.42169">
        <ele>845.4</ele>
        <time>2025-09-28T11:47:19Z</time>
      </trkpt>
      <trkpt lat="46.08996" lon="4.42171">
        <ele>845.4</ele>
        <time>2025-09-28T11:47:20Z</time>
      </trkpt>
      <trkpt lat="46.08997" lon="4.42174">
        <ele>845.8</ele>
        <time>2025-09-28T11:47:21Z</time>
      </trkpt>
      <trkpt lat="46.08998" lon="4.42177">
        <ele>845.8</ele>
        <time>2025-09-28T11:47:22Z</time>
      </trkpt>
      <trkpt lat="46.08999" lon="4.42178">
        <ele>845.8</ele>
        <time>2025-09-28T11:47:23Z</time>
      </trkpt>
      <trkpt lat="46.08999" lon="4.4218">
        <ele>846</ele>
        <time>2025-09-28T11:47:24Z</time>
      </trkpt>
      <trkpt lat="46.09" lon="4.42182">
        <ele>846.2</ele>
        <time>2025-09-28T11:47:25Z</time>
      </trkpt>
      <trkpt lat="46.09001" lon="4.42185">
        <ele>846.2</ele>
        <time>2025-09-28T11:47:26Z</time>
      </trkpt>
      <trkpt lat="46.09001" lon="4.42186">
        <ele>846.4</ele>
        <time>2025-09-28T11:47:27Z</time>
      </trkpt>
      <trkpt lat="46.09003" lon="4.42188">
        <ele>846.8</ele>
        <time>2025-09-28T11:47:28Z</time>
      </trkpt>
      <trkpt lat="46.09004" lon="4.42191">
        <ele>847.2</ele>
        <time>2025-09-28T11:47:29Z</time>
      </trkpt>
      <trkpt lat="46.09005" lon="4.42193">
        <ele>847.2</ele>
        <time>2025-09-28T11:47:30Z</time>
      </trkpt>
      <trkpt lat="46.09005" lon="4.42195">
        <ele>847.2</ele>
        <time>2025-09-28T11:47:31Z</time>
      </trkpt>
      <trkpt lat="46.09005" lon="4.42196">
        <ele>847.6</ele>
        <time>2025-09-28T11:47:32Z</time>
      </trkpt>
      <trkpt lat="46.09006" lon="4.42199">
        <ele>847.6</ele>
        <time>2025-09-28T11:47:33Z</time>
      </trkpt>
      <trkpt lat="46.09007" lon="4.42201">
        <ele>847.6</ele>
        <time>2025-09-28T11:47:34Z</time>
      </trkpt>
      <trkpt lat="46.09009" lon="4.42203">
        <ele>847.6</ele>
        <time>2025-09-28T11:47:35Z</time>
      </trkpt>
      <trkpt lat="46.0901" lon="4.42204">
        <ele>848</ele>
        <time>2025-09-28T11:47:36Z</time>
      </trkpt>
      <trkpt lat="46.09011" lon="4.42206">
        <ele>848</ele>
        <time>2025-09-28T11:47:37Z</time>
      </trkpt>
      <trkpt lat="46.09013" lon="4.42208">
        <ele>848.2</ele>
        <time>2025-09-28T11:47:38Z</time>
      </trkpt>
      <trkpt lat="46.09014" lon="4.42209">
        <ele>848.6</ele>
        <time>2025-09-28T11:47:39Z</time>
      </trkpt>
      <trkpt lat="46.09015" lon="4.42211">
        <ele>848.6</ele>
        <time>2025-09-28T11:47:40Z</time>
      </trkpt>
      <trkpt lat="46.09016" lon="4.42212">
        <ele>849</ele>
        <time>2025-09-28T11:47:41Z</time>
      </trkpt>
      <trkpt lat="46.09017" lon="4.42214">
        <ele>849</ele>
        <time>2025-09-28T11:47:42Z</time>
      </trkpt>
      <trkpt lat="46.09018" lon="4.42216">
        <ele>849.2</ele>
        <time>2025-09-28T11:47:43Z</time>
      </trkpt>
      <trkpt lat="46.09019" lon="4.42217">
        <ele>849.6</ele>
        <time>2025-09-28T11:47:44Z</time>
      </trkpt>
      <trkpt lat="46.09019" lon="4.4222">
        <ele>849.6</ele>
        <time>2025-09-28T11:47:45Z</time>
      </trkpt>
      <trkpt lat="46.0902" lon="4.42222">
        <ele>849.6</ele>
        <time>2025-09-28T11:47:46Z</time>
      </trkpt>
      <trkpt lat="46.09021" lon="4.42224">
        <ele>850</ele>
        <time>2025-09-28T11:47:47Z</time>
      </trkpt>
      <trkpt lat="46.09022" lon="4.42226">
        <ele>849.6</ele>
        <time>2025-09-28T11:47:48Z</time>
      </trkpt>
      <trkpt lat="46.09023" lon="4.42228">
        <ele>849.8</ele>
        <time>2025-09-28T11:47:49Z</time>
      </trkpt>
      <trkpt lat="46.09025" lon="4.4223">
        <ele>849.8</ele>
        <time>2025-09-28T11:47:50Z</time>
      </trkpt>
      <trkpt lat="46.09026" lon="4.42232">
        <ele>850.4</ele>
        <time>2025-09-28T11:47:51Z</time>
      </trkpt>
      <trkpt lat="46.09027" lon="4.42234">
        <ele>850.4</ele>
        <time>2025-09-28T11:47:52Z</time>
      </trkpt>
      <trkpt lat="46.09029" lon="4.42237">
        <ele>850.4</ele>
        <time>2025-09-28T11:47:53Z</time>
      </trkpt>
      <trkpt lat="46.0903" lon="4.42239">
        <ele>850.4</ele>
        <time>2025-09-28T11:47:54Z</time>
      </trkpt>
      <trkpt lat="46.09032" lon="4.42241">
        <ele>850.8</ele>
        <time>2025-09-28T11:47:55Z</time>
      </trkpt>
      <trkpt lat="46.09033" lon="4.42243">
        <ele>850.8</ele>
        <time>2025-09-28T11:47:56Z</time>
      </trkpt>
      <trkpt lat="46.09035" lon="4.42245">
        <ele>850.8</ele>
        <time>2025-09-28T11:47:57Z</time>
      </trkpt>
      <trkpt lat="46.09036" lon="4.42248">
        <ele>851.2</ele>
        <time>2025-09-28T11:47:58Z</time>
      </trkpt>
      <trkpt lat="46.09038" lon="4.42251">
        <ele>851.2</ele>
        <time>2025-09-28T11:47:59Z</time>
      </trkpt>
      <trkpt lat="46.0904" lon="4.42254">
        <ele>851.2</ele>
        <time>2025-09-28T11:48:00Z</time>
      </trkpt>
      <trkpt lat="46.09042" lon="4.42258">
        <ele>851.2</ele>
        <time>2025-09-28T11:48:01Z</time>
      </trkpt>
      <trkpt lat="46.09044" lon="4.42262">
        <ele>851.2</ele>
        <time>2025-09-28T11:48:02Z</time>
      </trkpt>
      <trkpt lat="46.09046" lon="4.42265">
        <ele>851.2</ele>
        <time>2025-09-28T11:48:03Z</time>
      </trkpt>
      <trkpt lat="46.09048" lon="4.42268">
        <ele>851.2</ele>
        <time>2025-09-28T11:48:04Z</time>
      </trkpt>
      <trkpt lat="46.0905" lon="4.42271">
        <ele>851.2</ele>
        <time>2025-09-28T11:48:05Z</time>
      </trkpt>
      <trkpt lat="46.09052" lon="4.42274">
        <ele>851.2</ele>
        <time>2025-09-28T11:48:06Z</time>
      </trkpt>
      <trkpt lat="46.09054" lon="4.42276">
        <ele>851.2</ele>
        <time>2025-09-28T11:48:07Z</time>
      </trkpt>
      <trkpt lat="46.09056" lon="4.42279">
        <ele>851.4</ele>
        <time>2025-09-28T11:48:08Z</time>
      </trkpt>
      <trkpt lat="46.09058" lon="4.42283">
        <ele>851.4</ele>
        <time>2025-09-28T11:48:09Z</time>
      </trkpt>
      <trkpt lat="46.09059" lon="4.42286">
        <ele>851.4</ele>
        <time>2025-09-28T11:48:10Z</time>
      </trkpt>
      <trkpt lat="46.09061" lon="4.42288">
        <ele>851.4</ele>
        <time>2025-09-28T11:48:11Z</time>
      </trkpt>
      <trkpt lat="46.09062" lon="4.42289">
        <ele>851.4</ele>
        <time>2025-09-28T11:48:12Z</time>
      </trkpt>
      <trkpt lat="46.09063" lon="4.42291">
        <ele>851.4</ele>
        <time>2025-09-28T11:48:13Z</time>
      </trkpt>
      <trkpt lat="46.09064" lon="4.42292">
        <ele>851.4</ele>
        <time>2025-09-28T11:48:14Z</time>
      </trkpt>
      <trkpt lat="46.09065" lon="4.42293">
        <ele>851.4</ele>
        <time>2025-09-28T11:48:15Z</time>
      </trkpt>
      <trkpt lat="46.09066" lon="4.42295">
        <ele>851.4</ele>
        <time>2025-09-28T11:48:16Z</time>
      </trkpt>
      <trkpt lat="46.09067" lon="4.42297">
        <ele>851.4</ele>
        <time>2025-09-28T11:48:17Z</time>
      </trkpt>
      <trkpt lat="46.09068" lon="4.42299">
        <ele>851.4</ele>
        <time>2025-09-28T11:48:18Z</time>
      </trkpt>
      <trkpt lat="46.0907" lon="4.42301">
        <ele>851.4</ele>
        <time>2025-09-28T11:48:19Z</time>
      </trkpt>
      <trkpt lat="46.09071" lon="4.42302">
        <ele>851.4</ele>
        <time>2025-09-28T11:48:20Z</time>
      </trkpt>
      <trkpt lat="46.09073" lon="4.42304">
        <ele>851.2</ele>
        <time>2025-09-28T11:48:21Z</time>
      </trkpt>
      <trkpt lat="46.09074" lon="4.42305">
        <ele>851.2</ele>
        <time>2025-09-28T11:48:22Z</time>
      </trkpt>
      <trkpt lat="46.09075" lon="4.42307">
        <ele>851.2</ele>
        <time>2025-09-28T11:48:23Z</time>
      </trkpt>
      <trkpt lat="46.09077" lon="4.4231">
        <ele>851.2</ele>
        <time>2025-09-28T11:48:24Z</time>
      </trkpt>
      <trkpt lat="46.09079" lon="4.42312">
        <ele>850.8</ele>
        <time>2025-09-28T11:48:25Z</time>
      </trkpt>
      <trkpt lat="46.09082" lon="4.42316">
        <ele>850.4</ele>
        <time>2025-09-28T11:48:26Z</time>
      </trkpt>
      <trkpt lat="46.09086" lon="4.42319">
        <ele>850.2</ele>
        <time>2025-09-28T11:48:27Z</time>
      </trkpt>
      <trkpt lat="46.0909" lon="4.42323">
        <ele>849.6</ele>
        <time>2025-09-28T11:48:28Z</time>
      </trkpt>
      <trkpt lat="46.09094" lon="4.42327">
        <ele>849</ele>
        <time>2025-09-28T11:48:29Z</time>
      </trkpt>
      <trkpt lat="46.09099" lon="4.4233">
        <ele>848.2</ele>
        <time>2025-09-28T11:48:30Z</time>
      </trkpt>
      <trkpt lat="46.09104" lon="4.42333">
        <ele>847.8</ele>
        <time>2025-09-28T11:48:31Z</time>
      </trkpt>
      <trkpt lat="46.0911" lon="4.42337">
        <ele>847.4</ele>
        <time>2025-09-28T11:48:32Z</time>
      </trkpt>
      <trkpt lat="46.09116" lon="4.42341">
        <ele>846.8</ele>
        <time>2025-09-28T11:48:33Z</time>
      </trkpt>
      <trkpt lat="46.09123" lon="4.42343">
        <ele>846</ele>
        <time>2025-09-28T11:48:34Z</time>
      </trkpt>
      <trkpt lat="46.0913" lon="4.42347">
        <ele>845.4</ele>
        <time>2025-09-28T11:48:35Z</time>
      </trkpt>
      <trkpt lat="46.09138" lon="4.42352">
        <ele>844.4</ele>
        <time>2025-09-28T11:48:36Z</time>
      </trkpt>
      <trkpt lat="46.09145" lon="4.42357">
        <ele>843.4</ele>
        <time>2025-09-28T11:48:37Z</time>
      </trkpt>
      <trkpt lat="46.09152" lon="4.42362">
        <ele>843.4</ele>
        <time>2025-09-28T11:48:38Z</time>
      </trkpt>
      <trkpt lat="46.09159" lon="4.42365">
        <ele>843</ele>
        <time>2025-09-28T11:48:39Z</time>
      </trkpt>
      <trkpt lat="46.09164" lon="4.42369">
        <ele>843</ele>
        <time>2025-09-28T11:48:40Z</time>
      </trkpt>
      <trkpt lat="46.09168" lon="4.42371">
        <ele>842.8</ele>
        <time>2025-09-28T11:48:41Z</time>
      </trkpt>
      <trkpt lat="46.09174" lon="4.42376">
        <ele>842.8</ele>
        <time>2025-09-28T11:48:42Z</time>
      </trkpt>
      <trkpt lat="46.0918" lon="4.42383">
        <ele>843.2</ele>
        <time>2025-09-28T11:48:43Z</time>
      </trkpt>
      <trkpt lat="46.09184" lon="4.42388">
        <ele>843.2</ele>
        <time>2025-09-28T11:48:44Z</time>
      </trkpt>
      <trkpt lat="46.09189" lon="4.42393">
        <ele>844</ele>
        <time>2025-09-28T11:48:45Z</time>
      </trkpt>
      <trkpt lat="46.09194" lon="4.42392">
        <ele>844.2</ele>
        <time>2025-09-28T11:48:46Z</time>
      </trkpt>
      <trkpt lat="46.09198" lon="4.42395">
        <ele>844</ele>
        <time>2025-09-28T11:48:47Z</time>
      </trkpt>
      <trkpt lat="46.09202" lon="4.42397">
        <ele>844</ele>
        <time>2025-09-28T11:48:48Z</time>
      </trkpt>
      <trkpt lat="46.09205" lon="4.42397">
        <ele>844.4</ele>
        <time>2025-09-28T11:48:49Z</time>
      </trkpt>
      <trkpt lat="46.09208" lon="4.42398">
        <ele>844.4</ele>
        <time>2025-09-28T11:48:50Z</time>
      </trkpt>
      <trkpt lat="46.09212" lon="4.42399">
        <ele>845</ele>
        <time>2025-09-28T11:48:51Z</time>
      </trkpt>
      <trkpt lat="46.09217" lon="4.42401">
        <ele>845.4</ele>
        <time>2025-09-28T11:48:52Z</time>
      </trkpt>
      <trkpt lat="46.09222" lon="4.42402">
        <ele>846</ele>
        <time>2025-09-28T11:48:53Z</time>
      </trkpt>
      <trkpt lat="46.09225" lon="4.42402">
        <ele>845.8</ele>
        <time>2025-09-28T11:48:54Z</time>
      </trkpt>
      <trkpt lat="46.09227" lon="4.42402">
        <ele>846.4</ele>
        <time>2025-09-28T11:48:55Z</time>
      </trkpt>
      <trkpt lat="46.0923" lon="4.42403">
        <ele>847</ele>
        <time>2025-09-28T11:48:56Z</time>
      </trkpt>
      <trkpt lat="46.09232" lon="4.42404">
        <ele>847</ele>
        <time>2025-09-28T11:48:57Z</time>
      </trkpt>
      <trkpt lat="46.09234" lon="4.42405">
        <ele>847.4</ele>
        <time>2025-09-28T11:48:58Z</time>
      </trkpt>
      <trkpt lat="46.09235" lon="4.42405">
        <ele>847.6</ele>
        <time>2025-09-28T11:48:59Z</time>
      </trkpt>
      <trkpt lat="46.09235" lon="4.42405">
        <ele>847.6</ele>
        <time>2025-09-28T11:49:00Z</time>
      </trkpt>
      <trkpt lat="46.09234" lon="4.42405">
        <ele>847.6</ele>
        <time>2025-09-28T11:49:01Z</time>
      </trkpt>
      <trkpt lat="46.09234" lon="4.42406">
        <ele>847.8</ele>
        <time>2025-09-28T11:49:02Z</time>
      </trkpt>
      <trkpt lat="46.09235" lon="4.42404">
        <ele>848.4</ele>
        <time>2025-09-28T11:49:09Z</time>
      </trkpt>
      <trkpt lat="46.09234" lon="4.42404">
        <ele>848.4</ele>
        <time>2025-09-28T11:49:10Z</time>
      </trkpt>
      <trkpt lat="46.09282" lon="4.42557">
        <ele>848.4</ele>
        <time>2025-09-28T11:51:55Z</time>
      </trkpt>
      <trkpt lat="46.09283" lon="4.42561">
        <ele>848.4</ele>
        <time>2025-09-28T11:51:56Z</time>
      </trkpt>
      <trkpt lat="46.09284" lon="4.42563">
        <ele>848.4</ele>
        <time>2025-09-28T11:51:57Z</time>
      </trkpt>
      <trkpt lat="46.09285" lon="4.42566">
        <ele>848.8</ele>
        <time>2025-09-28T11:51:58Z</time>
      </trkpt>
      <trkpt lat="46.09285" lon="4.42569">
        <ele>848.8</ele>
        <time>2025-09-28T11:51:59Z</time>
      </trkpt>
      <trkpt lat="46.09286" lon="4.42571">
        <ele>849.2</ele>
        <time>2025-09-28T11:52:00Z</time>
      </trkpt>
      <trkpt lat="46.09286" lon="4.42575">
        <ele>849.2</ele>
        <time>2025-09-28T11:52:01Z</time>
      </trkpt>
      <trkpt lat="46.09286" lon="4.42578">
        <ele>848.6</ele>
        <time>2025-09-28T11:52:02Z</time>
      </trkpt>
      <trkpt lat="46.09287" lon="4.42581">
        <ele>848.4</ele>
        <time>2025-09-28T11:52:03Z</time>
      </trkpt>
      <trkpt lat="46.09287" lon="4.42584">
        <ele>849.4</ele>
        <time>2025-09-28T11:52:04Z</time>
      </trkpt>
      <trkpt lat="46.09288" lon="4.42588">
        <ele>849.4</ele>
        <time>2025-09-28T11:52:05Z</time>
      </trkpt>
      <trkpt lat="46.09289" lon="4.42591">
        <ele>849.4</ele>
        <time>2025-09-28T11:52:06Z</time>
      </trkpt>
      <trkpt lat="46.0929" lon="4.42595">
        <ele>849.4</ele>
        <time>2025-09-28T11:52:07Z</time>
      </trkpt>
      <trkpt lat="46.09292" lon="4.42599">
        <ele>849.4</ele>
        <time>2025-09-28T11:52:08Z</time>
      </trkpt>
      <trkpt lat="46.09293" lon="4.42602">
        <ele>849.4</ele>
        <time>2025-09-28T11:52:09Z</time>
      </trkpt>
      <trkpt lat="46.09295" lon="4.42605">
        <ele>849.4</ele>
        <time>2025-09-28T11:52:10Z</time>
      </trkpt>
      <trkpt lat="46.09297" lon="4.42609">
        <ele>849.6</ele>
        <time>2025-09-28T11:52:11Z</time>
      </trkpt>
      <trkpt lat="46.09299" lon="4.42613">
        <ele>849.6</ele>
        <time>2025-09-28T11:52:12Z</time>
      </trkpt>
      <trkpt lat="46.09302" lon="4.42617">
        <ele>849.6</ele>
        <time>2025-09-28T11:52:13Z</time>
      </trkpt>
      <trkpt lat="46.09304" lon="4.42621">
        <ele>849.6</ele>
        <time>2025-09-28T11:52:14Z</time>
      </trkpt>
      <trkpt lat="46.09306" lon="4.42626">
        <ele>849.6</ele>
        <time>2025-09-28T11:52:15Z</time>
      </trkpt>
      <trkpt lat="46.09308" lon="4.4263">
        <ele>849.6</ele>
        <time>2025-09-28T11:52:16Z</time>
      </trkpt>
      <trkpt lat="46.0931" lon="4.42634">
        <ele>849.4</ele>
        <time>2025-09-28T11:52:17Z</time>
      </trkpt>
      <trkpt lat="46.09313" lon="4.42638">
        <ele>849.4</ele>
        <time>2025-09-28T11:52:18Z</time>
      </trkpt>
      <trkpt lat="46.09315" lon="4.42642">
        <ele>849.4</ele>
        <time>2025-09-28T11:52:19Z</time>
      </trkpt>
      <trkpt lat="46.09317" lon="4.42646">
        <ele>849.6</ele>
        <time>2025-09-28T11:52:20Z</time>
      </trkpt>
      <trkpt lat="46.0932" lon="4.42651">
        <ele>849.6</ele>
        <time>2025-09-28T11:52:21Z</time>
      </trkpt>
      <trkpt lat="46.09322" lon="4.42655">
        <ele>849.6</ele>
        <time>2025-09-28T11:52:22Z</time>
      </trkpt>
      <trkpt lat="46.09324" lon="4.4266">
        <ele>849.6</ele>
        <time>2025-09-28T11:52:23Z</time>
      </trkpt>
      <trkpt lat="46.09327" lon="4.42664">
        <ele>849.6</ele>
        <time>2025-09-28T11:52:24Z</time>
      </trkpt>
      <trkpt lat="46.09329" lon="4.42668">
        <ele>849.6</ele>
        <time>2025-09-28T11:52:25Z</time>
      </trkpt>
      <trkpt lat="46.09331" lon="4.42672">
        <ele>850</ele>
        <time>2025-09-28T11:52:26Z</time>
      </trkpt>
      <trkpt lat="46.09333" lon="4.42676">
        <ele>850</ele>
        <time>2025-09-28T11:52:27Z</time>
      </trkpt>
      <trkpt lat="46.09335" lon="4.4268">
        <ele>850</ele>
        <time>2025-09-28T11:52:28Z</time>
      </trkpt>
      <trkpt lat="46.09337" lon="4.42685">
        <ele>850</ele>
        <time>2025-09-28T11:52:29Z</time>
      </trkpt>
      <trkpt lat="46.09339" lon="4.42688">
        <ele>850</ele>
        <time>2025-09-28T11:52:30Z</time>
      </trkpt>
      <trkpt lat="46.09341" lon="4.42692">
        <ele>850</ele>
        <time>2025-09-28T11:52:31Z</time>
      </trkpt>
      <trkpt lat="46.09343" lon="4.42696">
        <ele>850</ele>
        <time>2025-09-28T11:52:32Z</time>
      </trkpt>
      <trkpt lat="46.09345" lon="4.427">
        <ele>849.2</ele>
        <time>2025-09-28T11:52:33Z</time>
      </trkpt>
      <trkpt lat="46.09346" lon="4.42704">
        <ele>849.4</ele>
        <time>2025-09-28T11:52:34Z</time>
      </trkpt>
      <trkpt lat="46.09347" lon="4.42708">
        <ele>849.4</ele>
        <time>2025-09-28T11:52:35Z</time>
      </trkpt>
      <trkpt lat="46.09349" lon="4.42713">
        <ele>849.4</ele>
        <time>2025-09-28T11:52:36Z</time>
      </trkpt>
      <trkpt lat="46.09351" lon="4.42717">
        <ele>849.4</ele>
        <time>2025-09-28T11:52:37Z</time>
      </trkpt>
      <trkpt lat="46.09353" lon="4.42722">
        <ele>849.2</ele>
        <time>2025-09-28T11:52:38Z</time>
      </trkpt>
      <trkpt lat="46.09355" lon="4.42727">
        <ele>849.2</ele>
        <time>2025-09-28T11:52:39Z</time>
      </trkpt>
      <trkpt lat="46.09357" lon="4.42731">
        <ele>849.2</ele>
        <time>2025-09-28T11:52:40Z</time>
      </trkpt>
      <trkpt lat="46.09359" lon="4.42736">
        <ele>849.2</ele>
        <time>2025-09-28T11:52:41Z</time>
      </trkpt>
      <trkpt lat="46.09361" lon="4.42741">
        <ele>848.2</ele>
        <time>2025-09-28T11:52:42Z</time>
      </trkpt>
      <trkpt lat="46.09364" lon="4.42746">
        <ele>848.2</ele>
        <time>2025-09-28T11:52:43Z</time>
      </trkpt>
      <trkpt lat="46.09367" lon="4.42751">
        <ele>848.2</ele>
        <time>2025-09-28T11:52:44Z</time>
      </trkpt>
      <trkpt lat="46.0937" lon="4.42755">
        <ele>848.2</ele>
        <time>2025-09-28T11:52:45Z</time>
      </trkpt>
      <trkpt lat="46.09374" lon="4.42759">
        <ele>848.4</ele>
        <time>2025-09-28T11:52:46Z</time>
      </trkpt>
      <trkpt lat="46.09378" lon="4.42763">
        <ele>848.4</ele>
        <time>2025-09-28T11:52:47Z</time>
      </trkpt>
      <trkpt lat="46.09379" lon="4.42767">
        <ele>848.6</ele>
        <time>2025-09-28T11:52:48Z</time>
      </trkpt>
      <trkpt lat="46.09382" lon="4.4277">
        <ele>848.6</ele>
        <time>2025-09-28T11:52:49Z</time>
      </trkpt>
      <trkpt lat="46.09385" lon="4.42768">
        <ele>849</ele>
        <time>2025-09-28T11:52:50Z</time>
      </trkpt>
      <trkpt lat="46.09389" lon="4.4277">
        <ele>849.2</ele>
        <time>2025-09-28T11:52:51Z</time>
      </trkpt>
      <trkpt lat="46.09393" lon="4.42772">
        <ele>849.2</ele>
        <time>2025-09-28T11:52:52Z</time>
      </trkpt>
      <trkpt lat="46.09395" lon="4.42774">
        <ele>849.6</ele>
        <time>2025-09-28T11:52:53Z</time>
      </trkpt>
      <trkpt lat="46.09398" lon="4.42776">
        <ele>850</ele>
        <time>2025-09-28T11:52:54Z</time>
      </trkpt>
      <trkpt lat="46.09402" lon="4.42779">
        <ele>850</ele>
        <time>2025-09-28T11:52:55Z</time>
      </trkpt>
      <trkpt lat="46.09405" lon="4.42782">
        <ele>850.4</ele>
        <time>2025-09-28T11:52:56Z</time>
      </trkpt>
      <trkpt lat="46.09409" lon="4.42783">
        <ele>850.6</ele>
        <time>2025-09-28T11:52:57Z</time>
      </trkpt>
      <trkpt lat="46.09413" lon="4.42785">
        <ele>850.6</ele>
        <time>2025-09-28T11:52:58Z</time>
      </trkpt>
      <trkpt lat="46.09416" lon="4.42787">
        <ele>851.2</ele>
        <time>2025-09-28T11:52:59Z</time>
      </trkpt>
      <trkpt lat="46.09418" lon="4.42789">
        <ele>851.8</ele>
        <time>2025-09-28T11:53:00Z</time>
      </trkpt>
      <trkpt lat="46.09421" lon="4.4279">
        <ele>852</ele>
        <time>2025-09-28T11:53:01Z</time>
      </trkpt>
      <trkpt lat="46.09423" lon="4.42792">
        <ele>852.2</ele>
        <time>2025-09-28T11:53:02Z</time>
      </trkpt>
      <trkpt lat="46.09426" lon="4.42793">
        <ele>852.2</ele>
        <time>2025-09-28T11:53:03Z</time>
      </trkpt>
      <trkpt lat="46.09429" lon="4.42794">
        <ele>852.6</ele>
        <time>2025-09-28T11:53:04Z</time>
      </trkpt>
      <trkpt lat="46.09431" lon="4.42795">
        <ele>852.6</ele>
        <time>2025-09-28T11:53:05Z</time>
      </trkpt>
      <trkpt lat="46.09433" lon="4.42796">
        <ele>853</ele>
        <time>2025-09-28T11:53:06Z</time>
      </trkpt>
      <trkpt lat="46.09436" lon="4.42797">
        <ele>852.8</ele>
        <time>2025-09-28T11:53:07Z</time>
      </trkpt>
      <trkpt lat="46.09439" lon="4.42798">
        <ele>853</ele>
        <time>2025-09-28T11:53:08Z</time>
      </trkpt>
      <trkpt lat="46.09442" lon="4.42799">
        <ele>853</ele>
        <time>2025-09-28T11:53:09Z</time>
      </trkpt>
      <trkpt lat="46.09444" lon="4.428">
        <ele>853.2</ele>
        <time>2025-09-28T11:53:10Z</time>
      </trkpt>
      <trkpt lat="46.09446" lon="4.42801">
        <ele>853.2</ele>
        <time>2025-09-28T11:53:11Z</time>
      </trkpt>
      <trkpt lat="46.09447" lon="4.42803">
        <ele>853.2</ele>
        <time>2025-09-28T11:53:12Z</time>
      </trkpt>
      <trkpt lat="46.09449" lon="4.42803">
        <ele>853.6</ele>
        <time>2025-09-28T11:53:13Z</time>
      </trkpt>
      <trkpt lat="46.09451" lon="4.42804">
        <ele>853.8</ele>
        <time>2025-09-28T11:53:14Z</time>
      </trkpt>
      <trkpt lat="46.09454" lon="4.42805">
        <ele>853.8</ele>
        <time>2025-09-28T11:53:15Z</time>
      </trkpt>
      <trkpt lat="46.09458" lon="4.42806">
        <ele>854.2</ele>
        <time>2025-09-28T11:53:16Z</time>
      </trkpt>
      <trkpt lat="46.0946" lon="4.42806">
        <ele>854.2</ele>
        <time>2025-09-28T11:53:17Z</time>
      </trkpt>
      <trkpt lat="46.09463" lon="4.42807">
        <ele>854.4</ele>
        <time>2025-09-28T11:53:18Z</time>
      </trkpt>
      <trkpt lat="46.09465" lon="4.42807">
        <ele>854.6</ele>
        <time>2025-09-28T11:53:19Z</time>
      </trkpt>
      <trkpt lat="46.09467" lon="4.42806">
        <ele>854.6</ele>
        <time>2025-09-28T11:53:20Z</time>
      </trkpt>
      <trkpt lat="46.0947" lon="4.42806">
        <ele>854.6</ele>
        <time>2025-09-28T11:53:21Z</time>
      </trkpt>
      <trkpt lat="46.09472" lon="4.42806">
        <ele>855</ele>
        <time>2025-09-28T11:53:22Z</time>
      </trkpt>
      <trkpt lat="46.09474" lon="4.42806">
        <ele>855</ele>
        <time>2025-09-28T11:53:23Z</time>
      </trkpt>
      <trkpt lat="46.09476" lon="4.42806">
        <ele>855</ele>
        <time>2025-09-28T11:53:24Z</time>
      </trkpt>
      <trkpt lat="46.09479" lon="4.42806">
        <ele>855.4</ele>
        <time>2025-09-28T11:53:25Z</time>
      </trkpt>
      <trkpt lat="46.09482" lon="4.42805">
        <ele>855.4</ele>
        <time>2025-09-28T11:53:26Z</time>
      </trkpt>
      <trkpt lat="46.09484" lon="4.42804">
        <ele>855.6</ele>
        <time>2025-09-28T11:53:27Z</time>
      </trkpt>
      <trkpt lat="46.09485" lon="4.42804">
        <ele>855.6</ele>
        <time>2025-09-28T11:53:28Z</time>
      </trkpt>
      <trkpt lat="46.09488" lon="4.42803">
        <ele>855.8</ele>
        <time>2025-09-28T11:53:29Z</time>
      </trkpt>
      <trkpt lat="46.09491" lon="4.42802">
        <ele>855.8</ele>
        <time>2025-09-28T11:53:30Z</time>
      </trkpt>
      <trkpt lat="46.09495" lon="4.428">
        <ele>855.8</ele>
        <time>2025-09-28T11:53:31Z</time>
      </trkpt>
      <trkpt lat="46.09498" lon="4.42799">
        <ele>856</ele>
        <time>2025-09-28T11:53:32Z</time>
      </trkpt>
      <trkpt lat="46.09501" lon="4.42798">
        <ele>856</ele>
        <time>2025-09-28T11:53:33Z</time>
      </trkpt>
      <trkpt lat="46.09504" lon="4.42797">
        <ele>856.2</ele>
        <time>2025-09-28T11:53:34Z</time>
      </trkpt>
      <trkpt lat="46.09506" lon="4.42796">
        <ele>856.2</ele>
        <time>2025-09-28T11:53:35Z</time>
      </trkpt>
      <trkpt lat="46.09508" lon="4.42794">
        <ele>856.2</ele>
        <time>2025-09-28T11:53:36Z</time>
      </trkpt>
      <trkpt lat="46.09509" lon="4.42794">
        <ele>856.6</ele>
        <time>2025-09-28T11:53:37Z</time>
      </trkpt>
      <trkpt lat="46.0951" lon="4.42793">
        <ele>856.6</ele>
        <time>2025-09-28T11:53:38Z</time>
      </trkpt>
      <trkpt lat="46.09511" lon="4.42793">
        <ele>856.6</ele>
        <time>2025-09-28T11:53:39Z</time>
      </trkpt>
      <trkpt lat="46.09513" lon="4.42792">
        <ele>856.6</ele>
        <time>2025-09-28T11:53:40Z</time>
      </trkpt>
      <trkpt lat="46.09514" lon="4.42791">
        <ele>857</ele>
        <time>2025-09-28T11:53:41Z</time>
      </trkpt>
      <trkpt lat="46.09515" lon="4.42791">
        <ele>857</ele>
        <time>2025-09-28T11:53:42Z</time>
      </trkpt>
      <trkpt lat="46.09515" lon="4.42791">
        <ele>857</ele>
        <time>2025-09-28T11:53:43Z</time>
      </trkpt>
      <trkpt lat="46.09523" lon="4.42795">
        <ele>857.2</ele>
        <time>2025-09-28T11:54:46Z</time>
      </trkpt>
      <trkpt lat="46.09525" lon="4.42795">
        <ele>856.8</ele>
        <time>2025-09-28T11:54:47Z</time>
      </trkpt>
      <trkpt lat="46.09528" lon="4.42793">
        <ele>856.8</ele>
        <time>2025-09-28T11:54:48Z</time>
      </trkpt>
      <trkpt lat="46.0953" lon="4.42792">
        <ele>856.8</ele>
        <time>2025-09-28T11:54:49Z</time>
      </trkpt>
      <trkpt lat="46.09533" lon="4.4279">
        <ele>856.8</ele>
        <time>2025-09-28T11:54:50Z</time>
      </trkpt>
      <trkpt lat="46.09534" lon="4.42789">
        <ele>856.8</ele>
        <time>2025-09-28T11:54:51Z</time>
      </trkpt>
      <trkpt lat="46.09537" lon="4.42787">
        <ele>857</ele>
        <time>2025-09-28T11:54:52Z</time>
      </trkpt>
      <trkpt lat="46.09539" lon="4.42786">
        <ele>857</ele>
        <time>2025-09-28T11:54:53Z</time>
      </trkpt>
      <trkpt lat="46.09541" lon="4.42784">
        <ele>857.6</ele>
        <time>2025-09-28T11:54:54Z</time>
      </trkpt>
      <trkpt lat="46.09543" lon="4.42782">
        <ele>857.6</ele>
        <time>2025-09-28T11:54:55Z</time>
      </trkpt>
      <trkpt lat="46.09544" lon="4.4278">
        <ele>858</ele>
        <time>2025-09-28T11:54:56Z</time>
      </trkpt>
      <trkpt lat="46.09547" lon="4.42778">
        <ele>858</ele>
        <time>2025-09-28T11:54:57Z</time>
      </trkpt>
      <trkpt lat="46.09549" lon="4.42776">
        <ele>858</ele>
        <time>2025-09-28T11:54:58Z</time>
      </trkpt>
      <trkpt lat="46.09552" lon="4.42774">
        <ele>858</ele>
        <time>2025-09-28T11:54:59Z</time>
      </trkpt>
      <trkpt lat="46.09555" lon="4.42773">
        <ele>857.8</ele>
        <time>2025-09-28T11:55:00Z</time>
      </trkpt>
      <trkpt lat="46.09558" lon="4.42772">
        <ele>857.8</ele>
        <time>2025-09-28T11:55:01Z</time>
      </trkpt>
      <trkpt lat="46.09562" lon="4.42771">
        <ele>857.4</ele>
        <time>2025-09-28T11:55:02Z</time>
      </trkpt>
      <trkpt lat="46.09569" lon="4.42769">
        <ele>857</ele>
        <time>2025-09-28T11:55:03Z</time>
      </trkpt>
      <trkpt lat="46.09574" lon="4.4277">
        <ele>856.4</ele>
        <time>2025-09-28T11:55:04Z</time>
      </trkpt>
      <trkpt lat="46.0958" lon="4.42768">
        <ele>856.2</ele>
        <time>2025-09-28T11:55:05Z</time>
      </trkpt>
      <trkpt lat="46.09585" lon="4.42768">
        <ele>855.8</ele>
        <time>2025-09-28T11:55:06Z</time>
      </trkpt>
      <trkpt lat="46.09593" lon="4.42765">
        <ele>855.2</ele>
        <time>2025-09-28T11:55:07Z</time>
      </trkpt>
      <trkpt lat="46.09598" lon="4.42764">
        <ele>854.8</ele>
        <time>2025-09-28T11:55:08Z</time>
      </trkpt>
      <trkpt lat="46.09604" lon="4.42762">
        <ele>853.6</ele>
        <time>2025-09-28T11:55:09Z</time>
      </trkpt>
      <trkpt lat="46.09611" lon="4.4276">
        <ele>853.2</ele>
        <time>2025-09-28T11:55:10Z</time>
      </trkpt>
      <trkpt lat="46.09617" lon="4.42757">
        <ele>853.2</ele>
        <time>2025-09-28T11:55:11Z</time>
      </trkpt>
      <trkpt lat="46.09623" lon="4.42754">
        <ele>853</ele>
        <time>2025-09-28T11:55:12Z</time>
      </trkpt>
      <trkpt lat="46.0963" lon="4.42751">
        <ele>852.6</ele>
        <time>2025-09-28T11:55:13Z</time>
      </trkpt>
      <trkpt lat="46.09637" lon="4.42747">
        <ele>853</ele>
        <time>2025-09-28T11:55:14Z</time>
      </trkpt>
      <trkpt lat="46.09645" lon="4.42744">
        <ele>852.2</ele>
        <time>2025-09-28T11:55:15Z</time>
      </trkpt>
      <trkpt lat="46.09652" lon="4.42741">
        <ele>852</ele>
        <time>2025-09-28T11:55:16Z</time>
      </trkpt>
      <trkpt lat="46.0966" lon="4.42737">
        <ele>851.6</ele>
        <time>2025-09-28T11:55:17Z</time>
      </trkpt>
      <trkpt lat="46.09667" lon="4.4273">
        <ele>851.6</ele>
        <time>2025-09-28T11:55:18Z</time>
      </trkpt>
      <trkpt lat="46.09673" lon="4.42723">
        <ele>851.6</ele>
        <time>2025-09-28T11:55:19Z</time>
      </trkpt>
      <trkpt lat="46.09679" lon="4.42717">
        <ele>851.6</ele>
        <time>2025-09-28T11:55:20Z</time>
      </trkpt>
      <trkpt lat="46.09683" lon="4.4271">
        <ele>851.8</ele>
        <time>2025-09-28T11:55:21Z</time>
      </trkpt>
      <trkpt lat="46.09688" lon="4.42707">
        <ele>851.8</ele>
        <time>2025-09-28T11:55:22Z</time>
      </trkpt>
      <trkpt lat="46.09693" lon="4.42701">
        <ele>851.8</ele>
        <time>2025-09-28T11:55:23Z</time>
      </trkpt>
      <trkpt lat="46.09696" lon="4.42697">
        <ele>853</ele>
        <time>2025-09-28T11:55:24Z</time>
      </trkpt>
      <trkpt lat="46.097" lon="4.42693">
        <ele>853</ele>
        <time>2025-09-28T11:55:25Z</time>
      </trkpt>
      <trkpt lat="46.09703" lon="4.42688">
        <ele>853.2</ele>
        <time>2025-09-28T11:55:26Z</time>
      </trkpt>
      <trkpt lat="46.09706" lon="4.42684">
        <ele>853.2</ele>
        <time>2025-09-28T11:55:27Z</time>
      </trkpt>
      <trkpt lat="46.09711" lon="4.4268">
        <ele>853.2</ele>
        <time>2025-09-28T11:55:28Z</time>
      </trkpt>
      <trkpt lat="46.09714" lon="4.42677">
        <ele>853.6</ele>
        <time>2025-09-28T11:55:29Z</time>
      </trkpt>
      <trkpt lat="46.09718" lon="4.42675">
        <ele>854</ele>
        <time>2025-09-28T11:55:30Z</time>
      </trkpt>
      <trkpt lat="46.09722" lon="4.42671">
        <ele>854.2</ele>
        <time>2025-09-28T11:55:31Z</time>
      </trkpt>
      <trkpt lat="46.09726" lon="4.42669">
        <ele>854.2</ele>
        <time>2025-09-28T11:55:32Z</time>
      </trkpt>
      <trkpt lat="46.09729" lon="4.42667">
        <ele>854.2</ele>
        <time>2025-09-28T11:55:33Z</time>
      </trkpt>
      <trkpt lat="46.09733" lon="4.42666">
        <ele>854.2</ele>
        <time>2025-09-28T11:55:34Z</time>
      </trkpt>
      <trkpt lat="46.09736" lon="4.42665">
        <ele>854.6</ele>
        <time>2025-09-28T11:55:35Z</time>
      </trkpt>
      <trkpt lat="46.0974" lon="4.42661">
        <ele>854.6</ele>
        <time>2025-09-28T11:55:36Z</time>
      </trkpt>
      <trkpt lat="46.09741" lon="4.4266">
        <ele>855.2</ele>
        <time>2025-09-28T11:55:37Z</time>
      </trkpt>
      <trkpt lat="46.09745" lon="4.42657">
        <ele>854.8</ele>
        <time>2025-09-28T11:55:38Z</time>
      </trkpt>
      <trkpt lat="46.09748" lon="4.42655">
        <ele>855</ele>
        <time>2025-09-28T11:55:39Z</time>
      </trkpt>
      <trkpt lat="46.09751" lon="4.42653">
        <ele>855.4</ele>
        <time>2025-09-28T11:55:40Z</time>
      </trkpt>
      <trkpt lat="46.09753" lon="4.42652">
        <ele>855.8</ele>
        <time>2025-09-28T11:55:41Z</time>
      </trkpt>
      <trkpt lat="46.09757" lon="4.42649">
        <ele>855.8</ele>
        <time>2025-09-28T11:55:42Z</time>
      </trkpt>
      <trkpt lat="46.0976" lon="4.42647">
        <ele>856.2</ele>
        <time>2025-09-28T11:55:43Z</time>
      </trkpt>
      <trkpt lat="46.09762" lon="4.42645">
        <ele>856.2</ele>
        <time>2025-09-28T11:55:44Z</time>
      </trkpt>
      <trkpt lat="46.09765" lon="4.42643">
        <ele>856.4</ele>
        <time>2025-09-28T11:55:45Z</time>
      </trkpt>
      <trkpt lat="46.09769" lon="4.42641">
        <ele>856.8</ele>
        <time>2025-09-28T11:55:46Z</time>
      </trkpt>
      <trkpt lat="46.09772" lon="4.42639">
        <ele>856.8</ele>
        <time>2025-09-28T11:55:47Z</time>
      </trkpt>
      <trkpt lat="46.09775" lon="4.42638">
        <ele>857.2</ele>
        <time>2025-09-28T11:55:48Z</time>
      </trkpt>
      <trkpt lat="46.09778" lon="4.42636">
        <ele>857</ele>
        <time>2025-09-28T11:55:49Z</time>
      </trkpt>
      <trkpt lat="46.09781" lon="4.42634">
        <ele>857</ele>
        <time>2025-09-28T11:55:50Z</time>
      </trkpt>
      <trkpt lat="46.09785" lon="4.42633">
        <ele>857.4</ele>
        <time>2025-09-28T11:55:51Z</time>
      </trkpt>
      <trkpt lat="46.09789" lon="4.42633">
        <ele>857.6</ele>
        <time>2025-09-28T11:55:52Z</time>
      </trkpt>
      <trkpt lat="46.09792" lon="4.42633">
        <ele>857.6</ele>
        <time>2025-09-28T11:55:53Z</time>
      </trkpt>
      <trkpt lat="46.09794" lon="4.42632">
        <ele>857.6</ele>
        <time>2025-09-28T11:55:54Z</time>
      </trkpt>
      <trkpt lat="46.09796" lon="4.42631">
        <ele>858</ele>
        <time>2025-09-28T11:55:55Z</time>
      </trkpt>
      <trkpt lat="46.09799" lon="4.42631">
        <ele>858</ele>
        <time>2025-09-28T11:55:56Z</time>
      </trkpt>
      <trkpt lat="46.09802" lon="4.42631">
        <ele>858</ele>
        <time>2025-09-28T11:55:57Z</time>
      </trkpt>
      <trkpt lat="46.09805" lon="4.42631">
        <ele>858.4</ele>
        <time>2025-09-28T11:55:58Z</time>
      </trkpt>
      <trkpt lat="46.09808" lon="4.42631">
        <ele>858.4</ele>
        <time>2025-09-28T11:55:59Z</time>
      </trkpt>
      <trkpt lat="46.0981" lon="4.42631">
        <ele>858.8</ele>
        <time>2025-09-28T11:56:00Z</time>
      </trkpt>
      <trkpt lat="46.09813" lon="4.42631">
        <ele>858.8</ele>
        <time>2025-09-28T11:56:01Z</time>
      </trkpt>
      <trkpt lat="46.09815" lon="4.4263">
        <ele>859</ele>
        <time>2025-09-28T11:56:02Z</time>
      </trkpt>
      <trkpt lat="46.09817" lon="4.4263">
        <ele>859.4</ele>
        <time>2025-09-28T11:56:03Z</time>
      </trkpt>
      <trkpt lat="46.09819" lon="4.4263">
        <ele>859.6</ele>
        <time>2025-09-28T11:56:04Z</time>
      </trkpt>
      <trkpt lat="46.09822" lon="4.42631">
        <ele>860.2</ele>
        <time>2025-09-28T11:56:05Z</time>
      </trkpt>
      <trkpt lat="46.09825" lon="4.42631">
        <ele>860.2</ele>
        <time>2025-09-28T11:56:06Z</time>
      </trkpt>
      <trkpt lat="46.09826" lon="4.42632">
        <ele>860.6</ele>
        <time>2025-09-28T11:56:07Z</time>
      </trkpt>
      <trkpt lat="46.09829" lon="4.42633">
        <ele>860.6</ele>
        <time>2025-09-28T11:56:08Z</time>
      </trkpt>
      <trkpt lat="46.09832" lon="4.42634">
        <ele>860.6</ele>
        <time>2025-09-28T11:56:09Z</time>
      </trkpt>
      <trkpt lat="46.09834" lon="4.42636">
        <ele>860.6</ele>
        <time>2025-09-28T11:56:10Z</time>
      </trkpt>
      <trkpt lat="46.09836" lon="4.42637">
        <ele>860.6</ele>
        <time>2025-09-28T11:56:11Z</time>
      </trkpt>
      <trkpt lat="46.09838" lon="4.42638">
        <ele>860.8</ele>
        <time>2025-09-28T11:56:12Z</time>
      </trkpt>
      <trkpt lat="46.0984" lon="4.42639">
        <ele>861.2</ele>
        <time>2025-09-28T11:56:13Z</time>
      </trkpt>
      <trkpt lat="46.09842" lon="4.42641">
        <ele>861.2</ele>
        <time>2025-09-28T11:56:14Z</time>
      </trkpt>
      <trkpt lat="46.09845" lon="4.42643">
        <ele>861.4</ele>
        <time>2025-09-28T11:56:15Z</time>
      </trkpt>
      <trkpt lat="46.09847" lon="4.42645">
        <ele>861.4</ele>
        <time>2025-09-28T11:56:16Z</time>
      </trkpt>
      <trkpt lat="46.0985" lon="4.42646">
        <ele>861.6</ele>
        <time>2025-09-28T11:56:17Z</time>
      </trkpt>
      <trkpt lat="46.09852" lon="4.42648">
        <ele>861.6</ele>
        <time>2025-09-28T11:56:18Z</time>
      </trkpt>
      <trkpt lat="46.09854" lon="4.4265">
        <ele>862</ele>
        <time>2025-09-28T11:56:19Z</time>
      </trkpt>
      <trkpt lat="46.09856" lon="4.42652">
        <ele>862</ele>
        <time>2025-09-28T11:56:20Z</time>
      </trkpt>
      <trkpt lat="46.09857" lon="4.42654">
        <ele>862.4</ele>
        <time>2025-09-28T11:56:21Z</time>
      </trkpt>
      <trkpt lat="46.09858" lon="4.42656">
        <ele>862.4</ele>
        <time>2025-09-28T11:56:22Z</time>
      </trkpt>
      <trkpt lat="46.0986" lon="4.42658">
        <ele>862.4</ele>
        <time>2025-09-28T11:56:23Z</time>
      </trkpt>
      <trkpt lat="46.09861" lon="4.42659">
        <ele>862.8</ele>
        <time>2025-09-28T11:56:24Z</time>
      </trkpt>
      <trkpt lat="46.09863" lon="4.42661">
        <ele>863</ele>
        <time>2025-09-28T11:56:25Z</time>
      </trkpt>
      <trkpt lat="46.09864" lon="4.42662">
        <ele>863.4</ele>
        <time>2025-09-28T11:56:26Z</time>
      </trkpt>
      <trkpt lat="46.09865" lon="4.42664">
        <ele>863.4</ele>
        <time>2025-09-28T11:56:27Z</time>
      </trkpt>
      <trkpt lat="46.09866" lon="4.42666">
        <ele>863.4</ele>
        <time>2025-09-28T11:56:28Z</time>
      </trkpt>
      <trkpt lat="46.09868" lon="4.42668">
        <ele>863.6</ele>
        <time>2025-09-28T11:56:29Z</time>
      </trkpt>
      <trkpt lat="46.09869" lon="4.4267">
        <ele>863.6</ele>
        <time>2025-09-28T11:56:30Z</time>
      </trkpt>
      <trkpt lat="46.09871" lon="4.42672">
        <ele>864</ele>
        <time>2025-09-28T11:56:31Z</time>
      </trkpt>
      <trkpt lat="46.09872" lon="4.42674">
        <ele>864.2</ele>
        <time>2025-09-28T11:56:32Z</time>
      </trkpt>
      <trkpt lat="46.09873" lon="4.42676">
        <ele>864.2</ele>
        <time>2025-09-28T11:56:33Z</time>
      </trkpt>
      <trkpt lat="46.09874" lon="4.42678">
        <ele>864.8</ele>
        <time>2025-09-28T11:56:34Z</time>
      </trkpt>
      <trkpt lat="46.09876" lon="4.42678">
        <ele>864.8</ele>
        <time>2025-09-28T11:56:35Z</time>
      </trkpt>
      <trkpt lat="46.09878" lon="4.42679">
        <ele>865.2</ele>
        <time>2025-09-28T11:56:36Z</time>
      </trkpt>
      <trkpt lat="46.09879" lon="4.4268">
        <ele>865.4</ele>
        <time>2025-09-28T11:56:37Z</time>
      </trkpt>
      <trkpt lat="46.09881" lon="4.42682">
        <ele>865.4</ele>
        <time>2025-09-28T11:56:38Z</time>
      </trkpt>
      <trkpt lat="46.09883" lon="4.42684">
        <ele>865.4</ele>
        <time>2025-09-28T11:56:39Z</time>
      </trkpt>
      <trkpt lat="46.09889" lon="4.42687">
        <ele>865.4</ele>
        <time>2025-09-28T11:56:40Z</time>
      </trkpt>
      <trkpt lat="46.0989" lon="4.42688">
        <ele>865.4</ele>
        <time>2025-09-28T11:56:41Z</time>
      </trkpt>
      <trkpt lat="46.09891" lon="4.42689">
        <ele>865.4</ele>
        <time>2025-09-28T11:56:42Z</time>
      </trkpt>
      <trkpt lat="46.09891" lon="4.4269">
        <ele>865.4</ele>
        <time>2025-09-28T11:56:43Z</time>
      </trkpt>
      <trkpt lat="46.09891" lon="4.42694">
        <ele>865.2</ele>
        <time>2025-09-28T11:56:44Z</time>
      </trkpt>
      <trkpt lat="46.09892" lon="4.42697">
        <ele>865.2</ele>
        <time>2025-09-28T11:56:45Z</time>
      </trkpt>
      <trkpt lat="46.09894" lon="4.42699">
        <ele>865.6</ele>
        <time>2025-09-28T11:56:46Z</time>
      </trkpt>
      <trkpt lat="46.09894" lon="4.42705">
        <ele>865.6</ele>
        <time>2025-09-28T11:56:47Z</time>
      </trkpt>
      <trkpt lat="46.09896" lon="4.42706">
        <ele>865.8</ele>
        <time>2025-09-28T11:56:48Z</time>
      </trkpt>
      <trkpt lat="46.09897" lon="4.42707">
        <ele>865.8</ele>
        <time>2025-09-28T11:56:49Z</time>
      </trkpt>
      <trkpt lat="46.09899" lon="4.4271">
        <ele>866</ele>
        <time>2025-09-28T11:56:50Z</time>
      </trkpt>
      <trkpt lat="46.099" lon="4.42712">
        <ele>866.2</ele>
        <time>2025-09-28T11:56:51Z</time>
      </trkpt>
      <trkpt lat="46.099" lon="4.42714">
        <ele>866.6</ele>
        <time>2025-09-28T11:56:52Z</time>
      </trkpt>
      <trkpt lat="46.09901" lon="4.42716">
        <ele>866.6</ele>
        <time>2025-09-28T11:56:53Z</time>
      </trkpt>
      <trkpt lat="46.09902" lon="4.42718">
        <ele>867</ele>
        <time>2025-09-28T11:56:54Z</time>
      </trkpt>
      <trkpt lat="46.09904" lon="4.42719">
        <ele>867.4</ele>
        <time>2025-09-28T11:56:55Z</time>
      </trkpt>
      <trkpt lat="46.09906" lon="4.4272">
        <ele>867.4</ele>
        <time>2025-09-28T11:56:56Z</time>
      </trkpt>
      <trkpt lat="46.09908" lon="4.4272">
        <ele>867.6</ele>
        <time>2025-09-28T11:56:57Z</time>
      </trkpt>
      <trkpt lat="46.09909" lon="4.42722">
        <ele>867.6</ele>
        <time>2025-09-28T11:56:58Z</time>
      </trkpt>
      <trkpt lat="46.09911" lon="4.42724">
        <ele>867.8</ele>
        <time>2025-09-28T11:56:59Z</time>
      </trkpt>
      <trkpt lat="46.09912" lon="4.42725">
        <ele>868.2</ele>
        <time>2025-09-28T11:57:00Z</time>
      </trkpt>
      <trkpt lat="46.09914" lon="4.42727">
        <ele>868.2</ele>
        <time>2025-09-28T11:57:01Z</time>
      </trkpt>
      <trkpt lat="46.09915" lon="4.42729">
        <ele>868.2</ele>
        <time>2025-09-28T11:57:02Z</time>
      </trkpt>
      <trkpt lat="46.09917" lon="4.4273">
        <ele>868.6</ele>
        <time>2025-09-28T11:57:03Z</time>
      </trkpt>
      <trkpt lat="46.09919" lon="4.42731">
        <ele>868.6</ele>
        <time>2025-09-28T11:57:04Z</time>
      </trkpt>
      <trkpt lat="46.09922" lon="4.42734">
        <ele>868.6</ele>
        <time>2025-09-28T11:57:05Z</time>
      </trkpt>
      <trkpt lat="46.09924" lon="4.42737">
        <ele>868.8</ele>
        <time>2025-09-28T11:57:06Z</time>
      </trkpt>
      <trkpt lat="46.09926" lon="4.4274">
        <ele>868.8</ele>
        <time>2025-09-28T11:57:07Z</time>
      </trkpt>
      <trkpt lat="46.09928" lon="4.42743">
        <ele>868.8</ele>
        <time>2025-09-28T11:57:08Z</time>
      </trkpt>
      <trkpt lat="46.09929" lon="4.42745">
        <ele>868.8</ele>
        <time>2025-09-28T11:57:09Z</time>
      </trkpt>
      <trkpt lat="46.09931" lon="4.42747">
        <ele>868.8</ele>
        <time>2025-09-28T11:57:10Z</time>
      </trkpt>
      <trkpt lat="46.09933" lon="4.42749">
        <ele>869</ele>
        <time>2025-09-28T11:57:11Z</time>
      </trkpt>
      <trkpt lat="46.09935" lon="4.42751">
        <ele>869</ele>
        <time>2025-09-28T11:57:12Z</time>
      </trkpt>
      <trkpt lat="46.09937" lon="4.42753">
        <ele>869.4</ele>
        <time>2025-09-28T11:57:13Z</time>
      </trkpt>
      <trkpt lat="46.09938" lon="4.42756">
        <ele>869.6</ele>
        <time>2025-09-28T11:57:14Z</time>
      </trkpt>
      <trkpt lat="46.0994" lon="4.42759">
        <ele>869.2</ele>
        <time>2025-09-28T11:57:15Z</time>
      </trkpt>
      <trkpt lat="46.09942" lon="4.42761">
        <ele>868.8</ele>
        <time>2025-09-28T11:57:16Z</time>
      </trkpt>
      <trkpt lat="46.09944" lon="4.42764">
        <ele>868.8</ele>
        <time>2025-09-28T11:57:17Z</time>
      </trkpt>
      <trkpt lat="46.09946" lon="4.42767">
        <ele>869.4</ele>
        <time>2025-09-28T11:57:18Z</time>
      </trkpt>
      <trkpt lat="46.09948" lon="4.42771">
        <ele>869.4</ele>
        <time>2025-09-28T11:57:19Z</time>
      </trkpt>
      <trkpt lat="46.0995" lon="4.42774">
        <ele>869.4</ele>
        <time>2025-09-28T11:57:20Z</time>
      </trkpt>
      <trkpt lat="46.09952" lon="4.42776">
        <ele>869.6</ele>
        <time>2025-09-28T11:57:21Z</time>
      </trkpt>
      <trkpt lat="46.09953" lon="4.42778">
        <ele>869.6</ele>
        <time>2025-09-28T11:57:22Z</time>
      </trkpt>
      <trkpt lat="46.09954" lon="4.4278">
        <ele>869.6</ele>
        <time>2025-09-28T11:57:23Z</time>
      </trkpt>
      <trkpt lat="46.09956" lon="4.42783">
        <ele>869.6</ele>
        <time>2025-09-28T11:57:24Z</time>
      </trkpt>
      <trkpt lat="46.09958" lon="4.42786">
        <ele>869.6</ele>
        <time>2025-09-28T11:57:25Z</time>
      </trkpt>
      <trkpt lat="46.0996" lon="4.42789">
        <ele>869.6</ele>
        <time>2025-09-28T11:57:26Z</time>
      </trkpt>
      <trkpt lat="46.09962" lon="4.42791">
        <ele>869.4</ele>
        <time>2025-09-28T11:57:27Z</time>
      </trkpt>
      <trkpt lat="46.09964" lon="4.42794">
        <ele>869.6</ele>
        <time>2025-09-28T11:57:28Z</time>
      </trkpt>
      <trkpt lat="46.09966" lon="4.42796">
        <ele>869.6</ele>
        <time>2025-09-28T11:57:29Z</time>
      </trkpt>
      <trkpt lat="46.09968" lon="4.42798">
        <ele>870</ele>
        <time>2025-09-28T11:57:30Z</time>
      </trkpt>
      <trkpt lat="46.09969" lon="4.428">
        <ele>870.2</ele>
        <time>2025-09-28T11:57:31Z</time>
      </trkpt>
      <trkpt lat="46.09971" lon="4.42802">
        <ele>870.2</ele>
        <time>2025-09-28T11:57:32Z</time>
      </trkpt>
      <trkpt lat="46.09974" lon="4.42805">
        <ele>870.4</ele>
        <time>2025-09-28T11:57:33Z</time>
      </trkpt>
      <trkpt lat="46.09976" lon="4.42808">
        <ele>870.4</ele>
        <time>2025-09-28T11:57:34Z</time>
      </trkpt>
      <trkpt lat="46.09979" lon="4.4281">
        <ele>870.6</ele>
        <time>2025-09-28T11:57:35Z</time>
      </trkpt>
      <trkpt lat="46.09981" lon="4.42812">
        <ele>870.6</ele>
        <time>2025-09-28T11:57:36Z</time>
      </trkpt>
      <trkpt lat="46.09983" lon="4.42815">
        <ele>871</ele>
        <time>2025-09-28T11:57:37Z</time>
      </trkpt>
      <trkpt lat="46.09986" lon="4.42817">
        <ele>871</ele>
        <time>2025-09-28T11:57:38Z</time>
      </trkpt>
      <trkpt lat="46.09988" lon="4.42819">
        <ele>871</ele>
        <time>2025-09-28T11:57:39Z</time>
      </trkpt>
      <trkpt lat="46.0999" lon="4.42822">
        <ele>871</ele>
        <time>2025-09-28T11:57:40Z</time>
      </trkpt>
      <trkpt lat="46.09993" lon="4.42824">
        <ele>871</ele>
        <time>2025-09-28T11:57:41Z</time>
      </trkpt>
      <trkpt lat="46.09996" lon="4.42826">
        <ele>871.4</ele>
        <time>2025-09-28T11:57:42Z</time>
      </trkpt>
      <trkpt lat="46.09998" lon="4.42827">
        <ele>871.4</ele>
        <time>2025-09-28T11:57:43Z</time>
      </trkpt>
      <trkpt lat="46.1" lon="4.42828">
        <ele>871.4</ele>
        <time>2025-09-28T11:57:44Z</time>
      </trkpt>
      <trkpt lat="46.10002" lon="4.42829">
        <ele>871.6</ele>
        <time>2025-09-28T11:57:45Z</time>
      </trkpt>
      <trkpt lat="46.10003" lon="4.4283">
        <ele>871.6</ele>
        <time>2025-09-28T11:57:46Z</time>
      </trkpt>
      <trkpt lat="46.10005" lon="4.42832">
        <ele>871.6</ele>
        <time>2025-09-28T11:57:47Z</time>
      </trkpt>
      <trkpt lat="46.10007" lon="4.42833">
        <ele>871.6</ele>
        <time>2025-09-28T11:57:48Z</time>
      </trkpt>
      <trkpt lat="46.10008" lon="4.42833">
        <ele>871.6</ele>
        <time>2025-09-28T11:57:49Z</time>
      </trkpt>
      <trkpt lat="46.1001" lon="4.42834">
        <ele>871.4</ele>
        <time>2025-09-28T11:57:50Z</time>
      </trkpt>
      <trkpt lat="46.10013" lon="4.42834">
        <ele>871.4</ele>
        <time>2025-09-28T11:57:51Z</time>
      </trkpt>
      <trkpt lat="46.10015" lon="4.42835">
        <ele>871.6</ele>
        <time>2025-09-28T11:57:52Z</time>
      </trkpt>
      <trkpt lat="46.10018" lon="4.42837">
        <ele>871.6</ele>
        <time>2025-09-28T11:57:53Z</time>
      </trkpt>
      <trkpt lat="46.10021" lon="4.42838">
        <ele>872</ele>
        <time>2025-09-28T11:57:54Z</time>
      </trkpt>
      <trkpt lat="46.10024" lon="4.42839">
        <ele>872</ele>
        <time>2025-09-28T11:57:55Z</time>
      </trkpt>
      <trkpt lat="46.10027" lon="4.4284">
        <ele>872</ele>
        <time>2025-09-28T11:57:56Z</time>
      </trkpt>
      <trkpt lat="46.10029" lon="4.42841">
        <ele>872</ele>
        <time>2025-09-28T11:57:57Z</time>
      </trkpt>
      <trkpt lat="46.10032" lon="4.42841">
        <ele>872</ele>
        <time>2025-09-28T11:57:58Z</time>
      </trkpt>
      <trkpt lat="46.10035" lon="4.42842">
        <ele>872.4</ele>
        <time>2025-09-28T11:57:59Z</time>
      </trkpt>
      <trkpt lat="46.10038" lon="4.42843">
        <ele>872.4</ele>
        <time>2025-09-28T11:58:00Z</time>
      </trkpt>
      <trkpt lat="46.10041" lon="4.42843">
        <ele>872.8</ele>
        <time>2025-09-28T11:58:01Z</time>
      </trkpt>
      <trkpt lat="46.10043" lon="4.42844">
        <ele>872.8</ele>
        <time>2025-09-28T11:58:02Z</time>
      </trkpt>
      <trkpt lat="46.10046" lon="4.42844">
        <ele>872.8</ele>
        <time>2025-09-28T11:58:03Z</time>
      </trkpt>
      <trkpt lat="46.10048" lon="4.42844">
        <ele>872.8</ele>
        <time>2025-09-28T11:58:04Z</time>
      </trkpt>
      <trkpt lat="46.1005" lon="4.42845">
        <ele>872.8</ele>
        <time>2025-09-28T11:58:05Z</time>
      </trkpt>
      <trkpt lat="46.10053" lon="4.42845">
        <ele>872.8</ele>
        <time>2025-09-28T11:58:06Z</time>
      </trkpt>
      <trkpt lat="46.10055" lon="4.42845">
        <ele>872.8</ele>
        <time>2025-09-28T11:58:07Z</time>
      </trkpt>
      <trkpt lat="46.10058" lon="4.42846">
        <ele>873</ele>
        <time>2025-09-28T11:58:08Z</time>
      </trkpt>
      <trkpt lat="46.10061" lon="4.42846">
        <ele>873</ele>
        <time>2025-09-28T11:58:09Z</time>
      </trkpt>
      <trkpt lat="46.10063" lon="4.42847">
        <ele>873</ele>
        <time>2025-09-28T11:58:10Z</time>
      </trkpt>
      <trkpt lat="46.10065" lon="4.42848">
        <ele>873</ele>
        <time>2025-09-28T11:58:11Z</time>
      </trkpt>
      <trkpt lat="46.10067" lon="4.42848">
        <ele>873</ele>
        <time>2025-09-28T11:58:12Z</time>
      </trkpt>
      <trkpt lat="46.1007" lon="4.42848">
        <ele>873</ele>
        <time>2025-09-28T11:58:13Z</time>
      </trkpt>
      <trkpt lat="46.10074" lon="4.42847">
        <ele>873</ele>
        <time>2025-09-28T11:58:14Z</time>
      </trkpt>
      <trkpt lat="46.10077" lon="4.42847">
        <ele>873</ele>
        <time>2025-09-28T11:58:15Z</time>
      </trkpt>
      <trkpt lat="46.1008" lon="4.42847">
        <ele>873</ele>
        <time>2025-09-28T11:58:16Z</time>
      </trkpt>
      <trkpt lat="46.10084" lon="4.42846">
        <ele>873</ele>
        <time>2025-09-28T11:58:17Z</time>
      </trkpt>
      <trkpt lat="46.10087" lon="4.42846">
        <ele>873</ele>
        <time>2025-09-28T11:58:18Z</time>
      </trkpt>
      <trkpt lat="46.10091" lon="4.42845">
        <ele>873</ele>
        <time>2025-09-28T11:58:19Z</time>
      </trkpt>
      <trkpt lat="46.10094" lon="4.42843">
        <ele>873.4</ele>
        <time>2025-09-28T11:58:20Z</time>
      </trkpt>
      <trkpt lat="46.10097" lon="4.42842">
        <ele>873.4</ele>
        <time>2025-09-28T11:58:21Z</time>
      </trkpt>
      <trkpt lat="46.101" lon="4.4284">
        <ele>873.4</ele>
        <time>2025-09-28T11:58:22Z</time>
      </trkpt>
      <trkpt lat="46.10102" lon="4.42839">
        <ele>873.4</ele>
        <time>2025-09-28T11:58:23Z</time>
      </trkpt>
      <trkpt lat="46.10105" lon="4.42837">
        <ele>873.8</ele>
        <time>2025-09-28T11:58:24Z</time>
      </trkpt>
      <trkpt lat="46.10108" lon="4.42835">
        <ele>873.8</ele>
        <time>2025-09-28T11:58:25Z</time>
      </trkpt>
      <trkpt lat="46.10111" lon="4.42834">
        <ele>873.8</ele>
        <time>2025-09-28T11:58:26Z</time>
      </trkpt>
      <trkpt lat="46.10114" lon="4.42833">
        <ele>873.8</ele>
        <time>2025-09-28T11:58:27Z</time>
      </trkpt>
      <trkpt lat="46.10118" lon="4.42833">
        <ele>873.8</ele>
        <time>2025-09-28T11:58:28Z</time>
      </trkpt>
      <trkpt lat="46.10122" lon="4.42832">
        <ele>873.8</ele>
        <time>2025-09-28T11:58:29Z</time>
      </trkpt>
      <trkpt lat="46.10128" lon="4.42832">
        <ele>873.8</ele>
        <time>2025-09-28T11:58:30Z</time>
      </trkpt>
      <trkpt lat="46.10131" lon="4.42831">
        <ele>873.6</ele>
        <time>2025-09-28T11:58:31Z</time>
      </trkpt>
      <trkpt lat="46.10136" lon="4.42833">
        <ele>873.6</ele>
        <time>2025-09-28T11:58:32Z</time>
      </trkpt>
      <trkpt lat="46.1014" lon="4.42833">
        <ele>873.2</ele>
        <time>2025-09-28T11:58:33Z</time>
      </trkpt>
      <trkpt lat="46.10147" lon="4.42833">
        <ele>873.2</ele>
        <time>2025-09-28T11:58:34Z</time>
      </trkpt>
      <trkpt lat="46.10151" lon="4.42832">
        <ele>873.2</ele>
        <time>2025-09-28T11:58:35Z</time>
      </trkpt>
      <trkpt lat="46.10156" lon="4.42833">
        <ele>873</ele>
        <time>2025-09-28T11:58:36Z</time>
      </trkpt>
      <trkpt lat="46.10162" lon="4.42833">
        <ele>872.6</ele>
        <time>2025-09-28T11:58:37Z</time>
      </trkpt>
      <trkpt lat="46.10166" lon="4.42833">
        <ele>872.8</ele>
        <time>2025-09-28T11:58:38Z</time>
      </trkpt>
      <trkpt lat="46.10171" lon="4.4283">
        <ele>872.6</ele>
        <time>2025-09-28T11:58:39Z</time>
      </trkpt>
      <trkpt lat="46.10174" lon="4.42832">
        <ele>872.6</ele>
        <time>2025-09-28T11:58:40Z</time>
      </trkpt>
      <trkpt lat="46.10178" lon="4.4283">
        <ele>873</ele>
        <time>2025-09-28T11:58:41Z</time>
      </trkpt>
      <trkpt lat="46.1018" lon="4.42829">
        <ele>873</ele>
        <time>2025-09-28T11:58:42Z</time>
      </trkpt>
      <trkpt lat="46.10183" lon="4.42827">
        <ele>873</ele>
        <time>2025-09-28T11:58:43Z</time>
      </trkpt>
      <trkpt lat="46.10187" lon="4.42826">
        <ele>873.2</ele>
        <time>2025-09-28T11:58:44Z</time>
      </trkpt>
      <trkpt lat="46.10191" lon="4.42825">
        <ele>873.4</ele>
        <time>2025-09-28T11:58:45Z</time>
      </trkpt>
      <trkpt lat="46.10195" lon="4.42825">
        <ele>873.8</ele>
        <time>2025-09-28T11:58:46Z</time>
      </trkpt>
      <trkpt lat="46.10199" lon="4.42825">
        <ele>873.8</ele>
        <time>2025-09-28T11:58:47Z</time>
      </trkpt>
      <trkpt lat="46.10203" lon="4.42825">
        <ele>873.8</ele>
        <time>2025-09-28T11:58:48Z</time>
      </trkpt>
      <trkpt lat="46.10207" lon="4.42824">
        <ele>874</ele>
        <time>2025-09-28T11:58:49Z</time>
      </trkpt>
      <trkpt lat="46.10212" lon="4.42827">
        <ele>874</ele>
        <time>2025-09-28T11:58:50Z</time>
      </trkpt>
      <trkpt lat="46.10216" lon="4.4283">
        <ele>873.8</ele>
        <time>2025-09-28T11:58:51Z</time>
      </trkpt>
      <trkpt lat="46.10219" lon="4.42834">
        <ele>872.4</ele>
        <time>2025-09-28T11:58:52Z</time>
      </trkpt>
      <trkpt lat="46.10221" lon="4.42841">
        <ele>872.8</ele>
        <time>2025-09-28T11:58:53Z</time>
      </trkpt>
      <trkpt lat="46.10223" lon="4.42846">
        <ele>873.2</ele>
        <time>2025-09-28T11:58:54Z</time>
      </trkpt>
      <trkpt lat="46.10224" lon="4.42852">
        <ele>873.2</ele>
        <time>2025-09-28T11:58:55Z</time>
      </trkpt>
      <trkpt lat="46.10224" lon="4.42858">
        <ele>873.2</ele>
        <time>2025-09-28T11:58:56Z</time>
      </trkpt>
      <trkpt lat="46.10226" lon="4.42866">
        <ele>873</ele>
        <time>2025-09-28T11:58:57Z</time>
      </trkpt>
      <trkpt lat="46.10226" lon="4.42873">
        <ele>872.4</ele>
        <time>2025-09-28T11:58:58Z</time>
      </trkpt>
      <trkpt lat="46.10228" lon="4.42878">
        <ele>872.2</ele>
        <time>2025-09-28T11:58:59Z</time>
      </trkpt>
      <trkpt lat="46.10228" lon="4.42886">
        <ele>872.2</ele>
        <time>2025-09-28T11:59:00Z</time>
      </trkpt>
      <trkpt lat="46.10229" lon="4.42894">
        <ele>871.4</ele>
        <time>2025-09-28T11:59:01Z</time>
      </trkpt>
      <trkpt lat="46.1023" lon="4.42901">
        <ele>871.2</ele>
        <time>2025-09-28T11:59:02Z</time>
      </trkpt>
      <trkpt lat="46.10231" lon="4.4291">
        <ele>871.2</ele>
        <time>2025-09-28T11:59:03Z</time>
      </trkpt>
      <trkpt lat="46.10232" lon="4.42917">
        <ele>870.6</ele>
        <time>2025-09-28T11:59:04Z</time>
      </trkpt>
      <trkpt lat="46.10233" lon="4.42924">
        <ele>870.6</ele>
        <time>2025-09-28T11:59:05Z</time>
      </trkpt>
      <trkpt lat="46.10235" lon="4.42931">
        <ele>870.6</ele>
        <time>2025-09-28T11:59:06Z</time>
      </trkpt>
      <trkpt lat="46.10236" lon="4.42937">
        <ele>870.6</ele>
        <time>2025-09-28T11:59:07Z</time>
      </trkpt>
      <trkpt lat="46.10238" lon="4.42945">
        <ele>870.4</ele>
        <time>2025-09-28T11:59:08Z</time>
      </trkpt>
      <trkpt lat="46.10241" lon="4.42949">
        <ele>870.4</ele>
        <time>2025-09-28T11:59:09Z</time>
      </trkpt>
      <trkpt lat="46.10243" lon="4.42955">
        <ele>870.4</ele>
        <time>2025-09-28T11:59:10Z</time>
      </trkpt>
      <trkpt lat="46.10244" lon="4.42958">
        <ele>870.4</ele>
        <time>2025-09-28T11:59:11Z</time>
      </trkpt>
      <trkpt lat="46.10245" lon="4.42961">
        <ele>870.4</ele>
        <time>2025-09-28T11:59:12Z</time>
      </trkpt>
      <trkpt lat="46.10247" lon="4.42962">
        <ele>870.4</ele>
        <time>2025-09-28T11:59:13Z</time>
      </trkpt>
      <trkpt lat="46.10249" lon="4.42964">
        <ele>870.4</ele>
        <time>2025-09-28T11:59:14Z</time>
      </trkpt>
      <trkpt lat="46.1025" lon="4.42962">
        <ele>870.4</ele>
        <time>2025-09-28T11:59:15Z</time>
      </trkpt>
      <trkpt lat="46.10251" lon="4.42962">
        <ele>870.6</ele>
        <time>2025-09-28T11:59:16Z</time>
      </trkpt>
      <trkpt lat="46.10252" lon="4.4296">
        <ele>870.6</ele>
        <time>2025-09-28T11:59:17Z</time>
      </trkpt>
      <trkpt lat="46.10253" lon="4.42958">
        <ele>871</ele>
        <time>2025-09-28T11:59:18Z</time>
      </trkpt>
      <trkpt lat="46.10253" lon="4.42954">
        <ele>871.4</ele>
        <time>2025-09-28T11:59:19Z</time>
      </trkpt>
      <trkpt lat="46.10254" lon="4.42952">
        <ele>871.4</ele>
        <time>2025-09-28T11:59:20Z</time>
      </trkpt>
      <trkpt lat="46.10255" lon="4.4295">
        <ele>871.8</ele>
        <time>2025-09-28T11:59:21Z</time>
      </trkpt>
      <trkpt lat="46.10256" lon="4.42948">
        <ele>872.2</ele>
        <time>2025-09-28T11:59:22Z</time>
      </trkpt>
      <trkpt lat="46.10256" lon="4.42946">
        <ele>872.4</ele>
        <time>2025-09-28T11:59:23Z</time>
      </trkpt>
      <trkpt lat="46.10257" lon="4.42943">
        <ele>872.8</ele>
        <time>2025-09-28T11:59:24Z</time>
      </trkpt>
      <trkpt lat="46.10257" lon="4.42939">
        <ele>872.8</ele>
        <time>2025-09-28T11:59:25Z</time>
      </trkpt>
      <trkpt lat="46.10258" lon="4.42936">
        <ele>873</ele>
        <time>2025-09-28T11:59:26Z</time>
      </trkpt>
      <trkpt lat="46.10258" lon="4.42934">
        <ele>873.2</ele>
        <time>2025-09-28T11:59:27Z</time>
      </trkpt>
      <trkpt lat="46.10259" lon="4.42931">
        <ele>873.2</ele>
        <time>2025-09-28T11:59:28Z</time>
      </trkpt>
      <trkpt lat="46.1026" lon="4.42929">
        <ele>873.6</ele>
        <time>2025-09-28T11:59:29Z</time>
      </trkpt>
      <trkpt lat="46.10261" lon="4.42926">
        <ele>873.8</ele>
        <time>2025-09-28T11:59:30Z</time>
      </trkpt>
      <trkpt lat="46.10263" lon="4.42923">
        <ele>874.2</ele>
        <time>2025-09-28T11:59:31Z</time>
      </trkpt>
      <trkpt lat="46.10263" lon="4.4292">
        <ele>874.2</ele>
        <time>2025-09-28T11:59:32Z</time>
      </trkpt>
      <trkpt lat="46.10264" lon="4.42918">
        <ele>874.4</ele>
        <time>2025-09-28T11:59:33Z</time>
      </trkpt>
      <trkpt lat="46.10264" lon="4.42916">
        <ele>875</ele>
        <time>2025-09-28T11:59:34Z</time>
      </trkpt>
      <trkpt lat="46.10265" lon="4.42915">
        <ele>875</ele>
        <time>2025-09-28T11:59:35Z</time>
      </trkpt>
      <trkpt lat="46.10266" lon="4.42913">
        <ele>875.4</ele>
        <time>2025-09-28T11:59:36Z</time>
      </trkpt>
      <trkpt lat="46.10266" lon="4.42912">
        <ele>875.6</ele>
        <time>2025-09-28T11:59:37Z</time>
      </trkpt>
      <trkpt lat="46.10267" lon="4.4291">
        <ele>875.8</ele>
        <time>2025-09-28T11:59:38Z</time>
      </trkpt>
      <trkpt lat="46.10268" lon="4.42909">
        <ele>876.2</ele>
        <time>2025-09-28T11:59:39Z</time>
      </trkpt>
      <trkpt lat="46.10268" lon="4.42907">
        <ele>876.4</ele>
        <time>2025-09-28T11:59:40Z</time>
      </trkpt>
      <trkpt lat="46.10268" lon="4.42905">
        <ele>876.4</ele>
        <time>2025-09-28T11:59:41Z</time>
      </trkpt>
      <trkpt lat="46.10269" lon="4.42904">
        <ele>876.4</ele>
        <time>2025-09-28T11:59:42Z</time>
      </trkpt>
      <trkpt lat="46.1027" lon="4.42901">
        <ele>876.8</ele>
        <time>2025-09-28T11:59:43Z</time>
      </trkpt>
      <trkpt lat="46.1027" lon="4.42897">
        <ele>876.8</ele>
        <time>2025-09-28T11:59:44Z</time>
      </trkpt>
      <trkpt lat="46.10271" lon="4.42895">
        <ele>877</ele>
        <time>2025-09-28T11:59:45Z</time>
      </trkpt>
      <trkpt lat="46.10272" lon="4.42893">
        <ele>877</ele>
        <time>2025-09-28T11:59:46Z</time>
      </trkpt>
      <trkpt lat="46.10273" lon="4.42891">
        <ele>877.4</ele>
        <time>2025-09-28T11:59:47Z</time>
      </trkpt>
      <trkpt lat="46.10275" lon="4.4289">
        <ele>877.4</ele>
        <time>2025-09-28T11:59:48Z</time>
      </trkpt>
      <trkpt lat="46.10276" lon="4.42889">
        <ele>877.8</ele>
        <time>2025-09-28T11:59:49Z</time>
      </trkpt>
      <trkpt lat="46.10277" lon="4.42887">
        <ele>877.8</ele>
        <time>2025-09-28T11:59:50Z</time>
      </trkpt>
      <trkpt lat="46.10279" lon="4.42884">
        <ele>878.4</ele>
        <time>2025-09-28T11:59:51Z</time>
      </trkpt>
      <trkpt lat="46.10279" lon="4.42882">
        <ele>878.8</ele>
        <time>2025-09-28T11:59:52Z</time>
      </trkpt>
      <trkpt lat="46.10279" lon="4.4288">
        <ele>879</ele>
        <time>2025-09-28T11:59:53Z</time>
      </trkpt>
      <trkpt lat="46.1028" lon="4.42878">
        <ele>879.2</ele>
        <time>2025-09-28T11:59:54Z</time>
      </trkpt>
      <trkpt lat="46.1028" lon="4.42876">
        <ele>879.4</ele>
        <time>2025-09-28T11:59:55Z</time>
      </trkpt>
      <trkpt lat="46.10279" lon="4.42874">
        <ele>879.4</ele>
        <time>2025-09-28T11:59:56Z</time>
      </trkpt>
      <trkpt lat="46.10279" lon="4.42873">
        <ele>879.8</ele>
        <time>2025-09-28T11:59:57Z</time>
      </trkpt>
      <trkpt lat="46.10279" lon="4.42872">
        <ele>880.4</ele>
        <time>2025-09-28T11:59:58Z</time>
      </trkpt>
      <trkpt lat="46.10278" lon="4.4287">
        <ele>880.4</ele>
        <time>2025-09-28T11:59:59Z</time>
      </trkpt>
      <trkpt lat="46.10278" lon="4.42869">
        <ele>880.6</ele>
        <time>2025-09-28T12:00:00Z</time>
      </trkpt>
      <trkpt lat="46.10279" lon="4.42866">
        <ele>880.6</ele>
        <time>2025-09-28T12:00:01Z</time>
      </trkpt>
      <trkpt lat="46.10279" lon="4.42864">
        <ele>881</ele>
        <time>2025-09-28T12:00:02Z</time>
      </trkpt>
      <trkpt lat="46.1028" lon="4.42863">
        <ele>881.2</ele>
        <time>2025-09-28T12:00:03Z</time>
      </trkpt>
      <trkpt lat="46.10281" lon="4.42861">
        <ele>881.2</ele>
        <time>2025-09-28T12:00:04Z</time>
      </trkpt>
      <trkpt lat="46.10282" lon="4.42859">
        <ele>881.6</ele>
        <time>2025-09-28T12:00:05Z</time>
      </trkpt>
      <trkpt lat="46.10282" lon="4.42857">
        <ele>882</ele>
        <time>2025-09-28T12:00:06Z</time>
      </trkpt>
      <trkpt lat="46.10282" lon="4.42855">
        <ele>882</ele>
        <time>2025-09-28T12:00:07Z</time>
      </trkpt>
      <trkpt lat="46.10282" lon="4.42853">
        <ele>882.4</ele>
        <time>2025-09-28T12:00:08Z</time>
      </trkpt>
      <trkpt lat="46.10282" lon="4.42852">
        <ele>882.6</ele>
        <time>2025-09-28T12:00:09Z</time>
      </trkpt>
      <trkpt lat="46.10283" lon="4.42849">
        <ele>882.6</ele>
        <time>2025-09-28T12:00:10Z</time>
      </trkpt>
      <trkpt lat="46.10284" lon="4.42847">
        <ele>883</ele>
        <time>2025-09-28T12:00:11Z</time>
      </trkpt>
      <trkpt lat="46.10285" lon="4.42845">
        <ele>883</ele>
        <time>2025-09-28T12:00:12Z</time>
      </trkpt>
      <trkpt lat="46.10285" lon="4.42842">
        <ele>883.2</ele>
        <time>2025-09-28T12:00:13Z</time>
      </trkpt>
      <trkpt lat="46.10285" lon="4.42841">
        <ele>883.2</ele>
        <time>2025-09-28T12:00:14Z</time>
      </trkpt>
      <trkpt lat="46.10284" lon="4.4284">
        <ele>883.2</ele>
        <time>2025-09-28T12:00:15Z</time>
      </trkpt>
      <trkpt lat="46.10283" lon="4.42839">
        <ele>883.4</ele>
        <time>2025-09-28T12:00:16Z</time>
      </trkpt>
      <trkpt lat="46.10282" lon="4.42838">
        <ele>883.4</ele>
        <time>2025-09-28T12:00:17Z</time>
      </trkpt>
      <trkpt lat="46.10282" lon="4.42835">
        <ele>883.8</ele>
        <time>2025-09-28T12:00:18Z</time>
      </trkpt>
      <trkpt lat="46.10282" lon="4.42833">
        <ele>883.8</ele>
        <time>2025-09-28T12:00:19Z</time>
      </trkpt>
      <trkpt lat="46.10282" lon="4.42831">
        <ele>883.8</ele>
        <time>2025-09-28T12:00:20Z</time>
      </trkpt>
      <trkpt lat="46.10282" lon="4.42829">
        <ele>884.2</ele>
        <time>2025-09-28T12:00:21Z</time>
      </trkpt>
      <trkpt lat="46.10282" lon="4.42826">
        <ele>884.2</ele>
        <time>2025-09-28T12:00:22Z</time>
      </trkpt>
      <trkpt lat="46.10282" lon="4.42824">
        <ele>884.4</ele>
        <time>2025-09-28T12:00:23Z</time>
      </trkpt>
      <trkpt lat="46.10281" lon="4.42821">
        <ele>884.4</ele>
        <time>2025-09-28T12:00:24Z</time>
      </trkpt>
      <trkpt lat="46.10282" lon="4.42819">
        <ele>885</ele>
        <time>2025-09-28T12:00:25Z</time>
      </trkpt>
      <trkpt lat="46.10282" lon="4.42817">
        <ele>885</ele>
        <time>2025-09-28T12:00:26Z</time>
      </trkpt>
      <trkpt lat="46.10283" lon="4.42815">
        <ele>885.2</ele>
        <time>2025-09-28T12:00:27Z</time>
      </trkpt>
      <trkpt lat="46.10283" lon="4.42813">
        <ele>885.2</ele>
        <time>2025-09-28T12:00:28Z</time>
      </trkpt>
      <trkpt lat="46.10284" lon="4.42811">
        <ele>885.2</ele>
        <time>2025-09-28T12:00:29Z</time>
      </trkpt>
      <trkpt lat="46.10284" lon="4.4281">
        <ele>885.2</ele>
        <time>2025-09-28T12:00:30Z</time>
      </trkpt>
      <trkpt lat="46.10285" lon="4.42809">
        <ele>885.6</ele>
        <time>2025-09-28T12:00:31Z</time>
      </trkpt>
      <trkpt lat="46.10285" lon="4.42806">
        <ele>885.6</ele>
        <time>2025-09-28T12:00:32Z</time>
      </trkpt>
      <trkpt lat="46.10285" lon="4.42804">
        <ele>885.6</ele>
        <time>2025-09-28T12:00:33Z</time>
      </trkpt>
      <trkpt lat="46.10286" lon="4.428">
        <ele>885.4</ele>
        <time>2025-09-28T12:00:34Z</time>
      </trkpt>
      <trkpt lat="46.10287" lon="4.42797">
        <ele>885.8</ele>
        <time>2025-09-28T12:00:35Z</time>
      </trkpt>
      <trkpt lat="46.10287" lon="4.42794">
        <ele>886</ele>
        <time>2025-09-28T12:00:36Z</time>
      </trkpt>
      <trkpt lat="46.10289" lon="4.42791">
        <ele>886.2</ele>
        <time>2025-09-28T12:00:37Z</time>
      </trkpt>
      <trkpt lat="46.1029" lon="4.42788">
        <ele>886.2</ele>
        <time>2025-09-28T12:00:38Z</time>
      </trkpt>
      <trkpt lat="46.10292" lon="4.42785">
        <ele>886.6</ele>
        <time>2025-09-28T12:00:39Z</time>
      </trkpt>
      <trkpt lat="46.10293" lon="4.42782">
        <ele>886.6</ele>
        <time>2025-09-28T12:00:40Z</time>
      </trkpt>
      <trkpt lat="46.10294" lon="4.42779">
        <ele>886.6</ele>
        <time>2025-09-28T12:00:41Z</time>
      </trkpt>
      <trkpt lat="46.10294" lon="4.42775">
        <ele>887</ele>
        <time>2025-09-28T12:00:42Z</time>
      </trkpt>
      <trkpt lat="46.10294" lon="4.4277">
        <ele>887</ele>
        <time>2025-09-28T12:00:43Z</time>
      </trkpt>
      <trkpt lat="46.10294" lon="4.42768">
        <ele>887.6</ele>
        <time>2025-09-28T12:00:44Z</time>
      </trkpt>
      <trkpt lat="46.10293" lon="4.42767">
        <ele>887.6</ele>
        <time>2025-09-28T12:00:45Z</time>
      </trkpt>
      <trkpt lat="46.10293" lon="4.42764">
        <ele>887.6</ele>
        <time>2025-09-28T12:00:46Z</time>
      </trkpt>
      <trkpt lat="46.10292" lon="4.42761">
        <ele>888</ele>
        <time>2025-09-28T12:00:47Z</time>
      </trkpt>
      <trkpt lat="46.10292" lon="4.42758">
        <ele>888.2</ele>
        <time>2025-09-28T12:00:48Z</time>
      </trkpt>
      <trkpt lat="46.10292" lon="4.42754">
        <ele>888.2</ele>
        <time>2025-09-28T12:00:49Z</time>
      </trkpt>
      <trkpt lat="46.10292" lon="4.42751">
        <ele>888.4</ele>
        <time>2025-09-28T12:00:50Z</time>
      </trkpt>
      <trkpt lat="46.10292" lon="4.42748">
        <ele>888.4</ele>
        <time>2025-09-28T12:00:51Z</time>
      </trkpt>
      <trkpt lat="46.10292" lon="4.42744">
        <ele>888.6</ele>
        <time>2025-09-28T12:00:52Z</time>
      </trkpt>
      <trkpt lat="46.10293" lon="4.42741">
        <ele>888.6</ele>
        <time>2025-09-28T12:00:53Z</time>
      </trkpt>
      <trkpt lat="46.10293" lon="4.42739">
        <ele>889.2</ele>
        <time>2025-09-28T12:00:54Z</time>
      </trkpt>
      <trkpt lat="46.10294" lon="4.42737">
        <ele>889.4</ele>
        <time>2025-09-28T12:00:55Z</time>
      </trkpt>
      <trkpt lat="46.10294" lon="4.42734">
        <ele>889.6</ele>
        <time>2025-09-28T12:00:56Z</time>
      </trkpt>
      <trkpt lat="46.10294" lon="4.4273">
        <ele>889.6</ele>
        <time>2025-09-28T12:00:57Z</time>
      </trkpt>
      <trkpt lat="46.10294" lon="4.42728">
        <ele>889.8</ele>
        <time>2025-09-28T12:00:58Z</time>
      </trkpt>
      <trkpt lat="46.10294" lon="4.42726">
        <ele>889.8</ele>
        <time>2025-09-28T12:00:59Z</time>
      </trkpt>
      <trkpt lat="46.10294" lon="4.42723">
        <ele>890.2</ele>
        <time>2025-09-28T12:01:00Z</time>
      </trkpt>
      <trkpt lat="46.10294" lon="4.42723">
        <ele>890.2</ele>
        <time>2025-09-28T12:01:01Z</time>
      </trkpt>
      <trkpt lat="46.10294" lon="4.42721">
        <ele>890.2</ele>
        <time>2025-09-28T12:01:02Z</time>
      </trkpt>
      <trkpt lat="46.10294" lon="4.42719">
        <ele>890.6</ele>
        <time>2025-09-28T12:01:03Z</time>
      </trkpt>
      <trkpt lat="46.10293" lon="4.42717">
        <ele>890.6</ele>
        <time>2025-09-28T12:01:04Z</time>
      </trkpt>
      <trkpt lat="46.10292" lon="4.42715">
        <ele>891</ele>
        <time>2025-09-28T12:01:05Z</time>
      </trkpt>
      <trkpt lat="46.10291" lon="4.42712">
        <ele>891</ele>
        <time>2025-09-28T12:01:06Z</time>
      </trkpt>
      <trkpt lat="46.10291" lon="4.42709">
        <ele>891.4</ele>
        <time>2025-09-28T12:01:07Z</time>
      </trkpt>
      <trkpt lat="46.10291" lon="4.42707">
        <ele>891.4</ele>
        <time>2025-09-28T12:01:08Z</time>
      </trkpt>
      <trkpt lat="46.10291" lon="4.42706">
        <ele>891.4</ele>
        <time>2025-09-28T12:01:09Z</time>
      </trkpt>
      <trkpt lat="46.10292" lon="4.42704">
        <ele>891.4</ele>
        <time>2025-09-28T12:01:10Z</time>
      </trkpt>
      <trkpt lat="46.10293" lon="4.42702">
        <ele>891.8</ele>
        <time>2025-09-28T12:01:11Z</time>
      </trkpt>
      <trkpt lat="46.10293" lon="4.427">
        <ele>892</ele>
        <time>2025-09-28T12:01:12Z</time>
      </trkpt>
      <trkpt lat="46.10293" lon="4.42698">
        <ele>892.2</ele>
        <time>2025-09-28T12:01:13Z</time>
      </trkpt>
      <trkpt lat="46.10293" lon="4.42696">
        <ele>892.2</ele>
        <time>2025-09-28T12:01:14Z</time>
      </trkpt>
      <trkpt lat="46.10293" lon="4.42693">
        <ele>892.6</ele>
        <time>2025-09-28T12:01:15Z</time>
      </trkpt>
      <trkpt lat="46.10294" lon="4.42692">
        <ele>892.6</ele>
        <time>2025-09-28T12:01:16Z</time>
      </trkpt>
      <trkpt lat="46.10294" lon="4.42689">
        <ele>892.6</ele>
        <time>2025-09-28T12:01:17Z</time>
      </trkpt>
      <trkpt lat="46.10294" lon="4.42687">
        <ele>892.6</ele>
        <time>2025-09-28T12:01:18Z</time>
      </trkpt>
      <trkpt lat="46.10294" lon="4.42685">
        <ele>892.8</ele>
        <time>2025-09-28T12:01:19Z</time>
      </trkpt>
      <trkpt lat="46.10294" lon="4.42682">
        <ele>893.2</ele>
        <time>2025-09-28T12:01:20Z</time>
      </trkpt>
      <trkpt lat="46.10294" lon="4.4268">
        <ele>893.2</ele>
        <time>2025-09-28T12:01:21Z</time>
      </trkpt>
      <trkpt lat="46.10294" lon="4.42678">
        <ele>893.6</ele>
        <time>2025-09-28T12:01:22Z</time>
      </trkpt>
      <trkpt lat="46.10294" lon="4.42676">
        <ele>893.6</ele>
        <time>2025-09-28T12:01:23Z</time>
      </trkpt>
      <trkpt lat="46.10293" lon="4.42673">
        <ele>894</ele>
        <time>2025-09-28T12:01:24Z</time>
      </trkpt>
      <trkpt lat="46.10292" lon="4.4267">
        <ele>894</ele>
        <time>2025-09-28T12:01:25Z</time>
      </trkpt>
      <trkpt lat="46.10292" lon="4.42668">
        <ele>894.4</ele>
        <time>2025-09-28T12:01:26Z</time>
      </trkpt>
      <trkpt lat="46.10291" lon="4.42666">
        <ele>894.4</ele>
        <time>2025-09-28T12:01:27Z</time>
      </trkpt>
      <trkpt lat="46.10291" lon="4.42663">
        <ele>894.4</ele>
        <time>2025-09-28T12:01:28Z</time>
      </trkpt>
      <trkpt lat="46.10291" lon="4.42661">
        <ele>894.8</ele>
        <time>2025-09-28T12:01:29Z</time>
      </trkpt>
      <trkpt lat="46.10291" lon="4.42658">
        <ele>894.8</ele>
        <time>2025-09-28T12:01:30Z</time>
      </trkpt>
      <trkpt lat="46.10291" lon="4.42656">
        <ele>894.8</ele>
        <time>2025-09-28T12:01:31Z</time>
      </trkpt>
      <trkpt lat="46.10292" lon="4.42654">
        <ele>895</ele>
        <time>2025-09-28T12:01:32Z</time>
      </trkpt>
      <trkpt lat="46.10292" lon="4.42652">
        <ele>895</ele>
        <time>2025-09-28T12:01:33Z</time>
      </trkpt>
      <trkpt lat="46.10292" lon="4.42651">
        <ele>895</ele>
        <time>2025-09-28T12:01:34Z</time>
      </trkpt>
      <trkpt lat="46.10292" lon="4.42651">
        <ele>895.2</ele>
        <time>2025-09-28T12:01:35Z</time>
      </trkpt>
      <trkpt lat="46.10291" lon="4.42648">
        <ele>895.2</ele>
        <time>2025-09-28T12:02:42Z</time>
      </trkpt>
      <trkpt lat="46.10292" lon="4.42646">
        <ele>895.2</ele>
        <time>2025-09-28T12:02:43Z</time>
      </trkpt>
      <trkpt lat="46.10292" lon="4.42643">
        <ele>895.2</ele>
        <time>2025-09-28T12:02:44Z</time>
      </trkpt>
      <trkpt lat="46.10292" lon="4.42641">
        <ele>895.4</ele>
        <time>2025-09-28T12:02:45Z</time>
      </trkpt>
      <trkpt lat="46.10293" lon="4.42639">
        <ele>895.4</ele>
        <time>2025-09-28T12:02:46Z</time>
      </trkpt>
      <trkpt lat="46.10293" lon="4.42636">
        <ele>895.4</ele>
        <time>2025-09-28T12:02:47Z</time>
      </trkpt>
      <trkpt lat="46.10294" lon="4.42632">
        <ele>895.8</ele>
        <time>2025-09-28T12:02:48Z</time>
      </trkpt>
      <trkpt lat="46.10294" lon="4.42629">
        <ele>895.8</ele>
        <time>2025-09-28T12:02:49Z</time>
      </trkpt>
      <trkpt lat="46.10294" lon="4.42626">
        <ele>895.8</ele>
        <time>2025-09-28T12:02:50Z</time>
      </trkpt>
      <trkpt lat="46.10294" lon="4.42622">
        <ele>896.2</ele>
        <time>2025-09-28T12:02:51Z</time>
      </trkpt>
      <trkpt lat="46.10294" lon="4.42619">
        <ele>896.2</ele>
        <time>2025-09-28T12:02:52Z</time>
      </trkpt>
      <trkpt lat="46.10294" lon="4.42615">
        <ele>896.2</ele>
        <time>2025-09-28T12:02:53Z</time>
      </trkpt>
      <trkpt lat="46.10295" lon="4.42611">
        <ele>896.2</ele>
        <time>2025-09-28T12:02:54Z</time>
      </trkpt>
      <trkpt lat="46.10296" lon="4.42607">
        <ele>896.4</ele>
        <time>2025-09-28T12:02:55Z</time>
      </trkpt>
      <trkpt lat="46.10297" lon="4.42604">
        <ele>896.4</ele>
        <time>2025-09-28T12:02:56Z</time>
      </trkpt>
      <trkpt lat="46.10298" lon="4.42601">
        <ele>896.8</ele>
        <time>2025-09-28T12:02:57Z</time>
      </trkpt>
      <trkpt lat="46.10298" lon="4.42597">
        <ele>897</ele>
        <time>2025-09-28T12:02:58Z</time>
      </trkpt>
      <trkpt lat="46.10298" lon="4.42592">
        <ele>897</ele>
        <time>2025-09-28T12:02:59Z</time>
      </trkpt>
      <trkpt lat="46.10298" lon="4.42588">
        <ele>897</ele>
        <time>2025-09-28T12:03:00Z</time>
      </trkpt>
      <trkpt lat="46.10299" lon="4.42584">
        <ele>897.4</ele>
        <time>2025-09-28T12:03:01Z</time>
      </trkpt>
      <trkpt lat="46.10299" lon="4.4258">
        <ele>897.4</ele>
        <time>2025-09-28T12:03:02Z</time>
      </trkpt>
      <trkpt lat="46.103" lon="4.42576">
        <ele>897.4</ele>
        <time>2025-09-28T12:03:03Z</time>
      </trkpt>
      <trkpt lat="46.10302" lon="4.42573">
        <ele>897.8</ele>
        <time>2025-09-28T12:03:04Z</time>
      </trkpt>
      <trkpt lat="46.10303" lon="4.42569">
        <ele>898.2</ele>
        <time>2025-09-28T12:03:05Z</time>
      </trkpt>
      <trkpt lat="46.10303" lon="4.42567">
        <ele>898.4</ele>
        <time>2025-09-28T12:03:06Z</time>
      </trkpt>
      <trkpt lat="46.10304" lon="4.42564">
        <ele>898.4</ele>
        <time>2025-09-28T12:03:07Z</time>
      </trkpt>
      <trkpt lat="46.10304" lon="4.4256">
        <ele>898.6</ele>
        <time>2025-09-28T12:03:08Z</time>
      </trkpt>
      <trkpt lat="46.10304" lon="4.42556">
        <ele>898.6</ele>
        <time>2025-09-28T12:03:09Z</time>
      </trkpt>
      <trkpt lat="46.10305" lon="4.42553">
        <ele>898.6</ele>
        <time>2025-09-28T12:03:10Z</time>
      </trkpt>
      <trkpt lat="46.10305" lon="4.4255">
        <ele>899.2</ele>
        <time>2025-09-28T12:03:11Z</time>
      </trkpt>
      <trkpt lat="46.10306" lon="4.42547">
        <ele>899.2</ele>
        <time>2025-09-28T12:03:12Z</time>
      </trkpt>
      <trkpt lat="46.10306" lon="4.42545">
        <ele>899.2</ele>
        <time>2025-09-28T12:03:13Z</time>
      </trkpt>
      <trkpt lat="46.10307" lon="4.42542">
        <ele>899.4</ele>
        <time>2025-09-28T12:03:14Z</time>
      </trkpt>
      <trkpt lat="46.10307" lon="4.42539">
        <ele>899.4</ele>
        <time>2025-09-28T12:03:15Z</time>
      </trkpt>
      <trkpt lat="46.10308" lon="4.42535">
        <ele>899.4</ele>
        <time>2025-09-28T12:03:16Z</time>
      </trkpt>
      <trkpt lat="46.10309" lon="4.42531">
        <ele>899</ele>
        <time>2025-09-28T12:03:17Z</time>
      </trkpt>
      <trkpt lat="46.10311" lon="4.42527">
        <ele>899.4</ele>
        <time>2025-09-28T12:03:18Z</time>
      </trkpt>
      <trkpt lat="46.10311" lon="4.42525">
        <ele>899.8</ele>
        <time>2025-09-28T12:03:19Z</time>
      </trkpt>
      <trkpt lat="46.10312" lon="4.42521">
        <ele>900.2</ele>
        <time>2025-09-28T12:03:20Z</time>
      </trkpt>
      <trkpt lat="46.10312" lon="4.42517">
        <ele>900.2</ele>
        <time>2025-09-28T12:03:21Z</time>
      </trkpt>
      <trkpt lat="46.10312" lon="4.42515">
        <ele>900.4</ele>
        <time>2025-09-28T12:03:22Z</time>
      </trkpt>
      <trkpt lat="46.10313" lon="4.42512">
        <ele>900.4</ele>
        <time>2025-09-28T12:03:23Z</time>
      </trkpt>
      <trkpt lat="46.10314" lon="4.42509">
        <ele>900.6</ele>
        <time>2025-09-28T12:03:24Z</time>
      </trkpt>
      <trkpt lat="46.10314" lon="4.42507">
        <ele>900.6</ele>
        <time>2025-09-28T12:03:25Z</time>
      </trkpt>
      <trkpt lat="46.10315" lon="4.42505">
        <ele>900.6</ele>
        <time>2025-09-28T12:03:26Z</time>
      </trkpt>
      <trkpt lat="46.10316" lon="4.42502">
        <ele>900.6</ele>
        <time>2025-09-28T12:03:27Z</time>
      </trkpt>
      <trkpt lat="46.10317" lon="4.425">
        <ele>900.6</ele>
        <time>2025-09-28T12:03:28Z</time>
      </trkpt>
      <trkpt lat="46.10318" lon="4.42497">
        <ele>900.6</ele>
        <time>2025-09-28T12:03:29Z</time>
      </trkpt>
      <trkpt lat="46.10319" lon="4.42494">
        <ele>900.6</ele>
        <time>2025-09-28T12:03:30Z</time>
      </trkpt>
      <trkpt lat="46.10319" lon="4.42492">
        <ele>900.6</ele>
        <time>2025-09-28T12:03:31Z</time>
      </trkpt>
      <trkpt lat="46.1032" lon="4.4249">
        <ele>900.6</ele>
        <time>2025-09-28T12:03:32Z</time>
      </trkpt>
      <trkpt lat="46.10321" lon="4.42488">
        <ele>900.6</ele>
        <time>2025-09-28T12:03:33Z</time>
      </trkpt>
      <trkpt lat="46.10322" lon="4.42485">
        <ele>900.4</ele>
        <time>2025-09-28T12:03:34Z</time>
      </trkpt>
      <trkpt lat="46.10323" lon="4.42482">
        <ele>900.4</ele>
        <time>2025-09-28T12:03:35Z</time>
      </trkpt>
      <trkpt lat="46.10324" lon="4.42479">
        <ele>900.4</ele>
        <time>2025-09-28T12:03:36Z</time>
      </trkpt>
      <trkpt lat="46.10325" lon="4.42476">
        <ele>900.4</ele>
        <time>2025-09-28T12:03:37Z</time>
      </trkpt>
      <trkpt lat="46.10326" lon="4.42473">
        <ele>900.4</ele>
        <time>2025-09-28T12:03:38Z</time>
      </trkpt>
      <trkpt lat="46.10327" lon="4.42469">
        <ele>900.4</ele>
        <time>2025-09-28T12:03:39Z</time>
      </trkpt>
      <trkpt lat="46.10328" lon="4.42465">
        <ele>900.2</ele>
        <time>2025-09-28T12:03:40Z</time>
      </trkpt>
      <trkpt lat="46.10329" lon="4.42462">
        <ele>900.2</ele>
        <time>2025-09-28T12:03:41Z</time>
      </trkpt>
      <trkpt lat="46.1033" lon="4.42458">
        <ele>900.2</ele>
        <time>2025-09-28T12:03:42Z</time>
      </trkpt>
      <trkpt lat="46.10331" lon="4.42455">
        <ele>900.2</ele>
        <time>2025-09-28T12:03:43Z</time>
      </trkpt>
      <trkpt lat="46.10332" lon="4.4245">
        <ele>899.8</ele>
        <time>2025-09-28T12:03:44Z</time>
      </trkpt>
      <trkpt lat="46.10334" lon="4.42445">
        <ele>899.8</ele>
        <time>2025-09-28T12:03:45Z</time>
      </trkpt>
      <trkpt lat="46.10335" lon="4.42441">
        <ele>900</ele>
        <time>2025-09-28T12:03:46Z</time>
      </trkpt>
      <trkpt lat="46.10337" lon="4.42438">
        <ele>899.6</ele>
        <time>2025-09-28T12:03:47Z</time>
      </trkpt>
      <trkpt lat="46.10339" lon="4.42434">
        <ele>900.2</ele>
        <time>2025-09-28T12:03:48Z</time>
      </trkpt>
      <trkpt lat="46.10341" lon="4.42429">
        <ele>899.8</ele>
        <time>2025-09-28T12:03:49Z</time>
      </trkpt>
      <trkpt lat="46.10343" lon="4.42425">
        <ele>899.6</ele>
        <time>2025-09-28T12:03:50Z</time>
      </trkpt>
      <trkpt lat="46.10345" lon="4.42421">
        <ele>899.6</ele>
        <time>2025-09-28T12:03:51Z</time>
      </trkpt>
      <trkpt lat="46.10346" lon="4.42418">
        <ele>899.2</ele>
        <time>2025-09-28T12:03:52Z</time>
      </trkpt>
      <trkpt lat="46.10349" lon="4.42414">
        <ele>899.6</ele>
        <time>2025-09-28T12:03:53Z</time>
      </trkpt>
      <trkpt lat="46.10352" lon="4.4241">
        <ele>899.2</ele>
        <time>2025-09-28T12:03:54Z</time>
      </trkpt>
      <trkpt lat="46.10354" lon="4.42406">
        <ele>899</ele>
        <time>2025-09-28T12:03:55Z</time>
      </trkpt>
      <trkpt lat="46.10356" lon="4.42401">
        <ele>898.2</ele>
        <time>2025-09-28T12:03:56Z</time>
      </trkpt>
      <trkpt lat="46.10358" lon="4.42397">
        <ele>898.8</ele>
        <time>2025-09-28T12:03:57Z</time>
      </trkpt>
      <trkpt lat="46.10361" lon="4.42392">
        <ele>898.6</ele>
        <time>2025-09-28T12:03:58Z</time>
      </trkpt>
      <trkpt lat="46.10363" lon="4.42387">
        <ele>898.2</ele>
        <time>2025-09-28T12:03:59Z</time>
      </trkpt>
      <trkpt lat="46.10365" lon="4.42381">
        <ele>898.2</ele>
        <time>2025-09-28T12:04:00Z</time>
      </trkpt>
      <trkpt lat="46.10368" lon="4.42376">
        <ele>897.4</ele>
        <time>2025-09-28T12:04:01Z</time>
      </trkpt>
      <trkpt lat="46.1037" lon="4.4237">
        <ele>897.4</ele>
        <time>2025-09-28T12:04:02Z</time>
      </trkpt>
      <trkpt lat="46.10371" lon="4.42364">
        <ele>897.8</ele>
        <time>2025-09-28T12:04:03Z</time>
      </trkpt>
      <trkpt lat="46.10374" lon="4.42359">
        <ele>897.4</ele>
        <time>2025-09-28T12:04:04Z</time>
      </trkpt>
      <trkpt lat="46.10376" lon="4.42354">
        <ele>897.4</ele>
        <time>2025-09-28T12:04:05Z</time>
      </trkpt>
      <trkpt lat="46.10377" lon="4.42348">
        <ele>897.4</ele>
        <time>2025-09-28T12:04:06Z</time>
      </trkpt>
      <trkpt lat="46.10378" lon="4.42341">
        <ele>897</ele>
        <time>2025-09-28T12:04:07Z</time>
      </trkpt>
      <trkpt lat="46.10379" lon="4.42335">
        <ele>897</ele>
        <time>2025-09-28T12:04:08Z</time>
      </trkpt>
      <trkpt lat="46.1038" lon="4.42329">
        <ele>897</ele>
        <time>2025-09-28T12:04:09Z</time>
      </trkpt>
      <trkpt lat="46.1038" lon="4.42324">
        <ele>897</ele>
        <time>2025-09-28T12:04:10Z</time>
      </trkpt>
      <trkpt lat="46.10381" lon="4.4232">
        <ele>897</ele>
        <time>2025-09-28T12:04:11Z</time>
      </trkpt>
      <trkpt lat="46.10381" lon="4.42315">
        <ele>897</ele>
        <time>2025-09-28T12:04:12Z</time>
      </trkpt>
      <trkpt lat="46.10383" lon="4.42312">
        <ele>896.6</ele>
        <time>2025-09-28T12:04:13Z</time>
      </trkpt>
      <trkpt lat="46.10383" lon="4.42307">
        <ele>896</ele>
        <time>2025-09-28T12:04:14Z</time>
      </trkpt>
      <trkpt lat="46.10383" lon="4.423">
        <ele>895.4</ele>
        <time>2025-09-28T12:04:15Z</time>
      </trkpt>
      <trkpt lat="46.10383" lon="4.42295">
        <ele>895.4</ele>
        <time>2025-09-28T12:04:16Z</time>
      </trkpt>
      <trkpt lat="46.10383" lon="4.42289">
        <ele>894.4</ele>
        <time>2025-09-28T12:04:17Z</time>
      </trkpt>
      <trkpt lat="46.10387" lon="4.42282">
        <ele>893.4</ele>
        <time>2025-09-28T12:04:18Z</time>
      </trkpt>
      <trkpt lat="46.10387" lon="4.42274">
        <ele>893</ele>
        <time>2025-09-28T12:04:19Z</time>
      </trkpt>
      <trkpt lat="46.10388" lon="4.42261">
        <ele>892.4</ele>
        <time>2025-09-28T12:04:20Z</time>
      </trkpt>
      <trkpt lat="46.10388" lon="4.42253">
        <ele>892.2</ele>
        <time>2025-09-28T12:04:21Z</time>
      </trkpt>
      <trkpt lat="46.10388" lon="4.42241">
        <ele>891.6</ele>
        <time>2025-09-28T12:04:22Z</time>
      </trkpt>
      <trkpt lat="46.10389" lon="4.42229">
        <ele>890.8</ele>
        <time>2025-09-28T12:04:23Z</time>
      </trkpt>
      <trkpt lat="46.10387" lon="4.42215">
        <ele>890.2</ele>
        <time>2025-09-28T12:04:24Z</time>
      </trkpt>
      <trkpt lat="46.10386" lon="4.42203">
        <ele>890</ele>
        <time>2025-09-28T12:04:25Z</time>
      </trkpt>
      <trkpt lat="46.10388" lon="4.42195">
        <ele>889.8</ele>
        <time>2025-09-28T12:04:26Z</time>
      </trkpt>
      <trkpt lat="46.10386" lon="4.42187">
        <ele>889.4</ele>
        <time>2025-09-28T12:04:27Z</time>
      </trkpt>
      <trkpt lat="46.10387" lon="4.42179">
        <ele>889</ele>
        <time>2025-09-28T12:04:28Z</time>
      </trkpt>
      <trkpt lat="46.10389" lon="4.42173">
        <ele>888.2</ele>
        <time>2025-09-28T12:04:29Z</time>
      </trkpt>
      <trkpt lat="46.10389" lon="4.42166">
        <ele>887.8</ele>
        <time>2025-09-28T12:04:30Z</time>
      </trkpt>
      <trkpt lat="46.1039" lon="4.42158">
        <ele>888</ele>
        <time>2025-09-28T12:04:31Z</time>
      </trkpt>
      <trkpt lat="46.1039" lon="4.42151">
        <ele>888</ele>
        <time>2025-09-28T12:04:32Z</time>
      </trkpt>
      <trkpt lat="46.1039" lon="4.42143">
        <ele>888</ele>
        <time>2025-09-28T12:04:33Z</time>
      </trkpt>
      <trkpt lat="46.1039" lon="4.42137">
        <ele>888</ele>
        <time>2025-09-28T12:04:34Z</time>
      </trkpt>
      <trkpt lat="46.1039" lon="4.4213">
        <ele>888</ele>
        <time>2025-09-28T12:04:35Z</time>
      </trkpt>
      <trkpt lat="46.10392" lon="4.42125">
        <ele>888.4</ele>
        <time>2025-09-28T12:04:36Z</time>
      </trkpt>
      <trkpt lat="46.10392" lon="4.42119">
        <ele>888</ele>
        <time>2025-09-28T12:04:37Z</time>
      </trkpt>
      <trkpt lat="46.10392" lon="4.42114">
        <ele>887.4</ele>
        <time>2025-09-28T12:04:38Z</time>
      </trkpt>
      <trkpt lat="46.10391" lon="4.42109">
        <ele>886.8</ele>
        <time>2025-09-28T12:04:39Z</time>
      </trkpt>
      <trkpt lat="46.10389" lon="4.42106">
        <ele>886.6</ele>
        <time>2025-09-28T12:04:40Z</time>
      </trkpt>
      <trkpt lat="46.10391" lon="4.42099">
        <ele>886</ele>
        <time>2025-09-28T12:04:41Z</time>
      </trkpt>
      <trkpt lat="46.10392" lon="4.42094">
        <ele>886</ele>
        <time>2025-09-28T12:04:42Z</time>
      </trkpt>
      <trkpt lat="46.10392" lon="4.42089">
        <ele>885.4</ele>
        <time>2025-09-28T12:04:43Z</time>
      </trkpt>
      <trkpt lat="46.10388" lon="4.42082">
        <ele>884.6</ele>
        <time>2025-09-28T12:04:44Z</time>
      </trkpt>
      <trkpt lat="46.10387" lon="4.42078">
        <ele>884</ele>
        <time>2025-09-28T12:04:45Z</time>
      </trkpt>
      <trkpt lat="46.10388" lon="4.42072">
        <ele>883.4</ele>
        <time>2025-09-28T12:04:46Z</time>
      </trkpt>
      <trkpt lat="46.10389" lon="4.42066">
        <ele>883.4</ele>
        <time>2025-09-28T12:04:47Z</time>
      </trkpt>
      <trkpt lat="46.10388" lon="4.4206">
        <ele>882.8</ele>
        <time>2025-09-28T12:04:48Z</time>
      </trkpt>
      <trkpt lat="46.10389" lon="4.42058">
        <ele>882.2</ele>
        <time>2025-09-28T12:04:49Z</time>
      </trkpt>
      <trkpt lat="46.10389" lon="4.42053">
        <ele>882.2</ele>
        <time>2025-09-28T12:04:50Z</time>
      </trkpt>
      <trkpt lat="46.10389" lon="4.42046">
        <ele>881.6</ele>
        <time>2025-09-28T12:04:51Z</time>
      </trkpt>
      <trkpt lat="46.10388" lon="4.42042">
        <ele>881</ele>
        <time>2025-09-28T12:04:52Z</time>
      </trkpt>
      <trkpt lat="46.10387" lon="4.42038">
        <ele>880</ele>
        <time>2025-09-28T12:04:53Z</time>
      </trkpt>
      <trkpt lat="46.10386" lon="4.42033">
        <ele>879.4</ele>
        <time>2025-09-28T12:04:54Z</time>
      </trkpt>
      <trkpt lat="46.10385" lon="4.42029">
        <ele>879</ele>
        <time>2025-09-28T12:04:55Z</time>
      </trkpt>
      <trkpt lat="46.10384" lon="4.42025">
        <ele>879</ele>
        <time>2025-09-28T12:04:56Z</time>
      </trkpt>
      <trkpt lat="46.10383" lon="4.42021">
        <ele>878.2</ele>
        <time>2025-09-28T12:04:57Z</time>
      </trkpt>
      <trkpt lat="46.10383" lon="4.42015">
        <ele>877.8</ele>
        <time>2025-09-28T12:04:58Z</time>
      </trkpt>
      <trkpt lat="46.10383" lon="4.42009">
        <ele>877.2</ele>
        <time>2025-09-28T12:04:59Z</time>
      </trkpt>
      <trkpt lat="46.10383" lon="4.42005">
        <ele>877.2</ele>
        <time>2025-09-28T12:05:00Z</time>
      </trkpt>
      <trkpt lat="46.10384" lon="4.42001">
        <ele>876</ele>
        <time>2025-09-28T12:05:01Z</time>
      </trkpt>
      <trkpt lat="46.10385" lon="4.41995">
        <ele>875.6</ele>
        <time>2025-09-28T12:05:02Z</time>
      </trkpt>
      <trkpt lat="46.10384" lon="4.41988">
        <ele>875.4</ele>
        <time>2025-09-28T12:05:03Z</time>
      </trkpt>
      <trkpt lat="46.10383" lon="4.41981">
        <ele>874.8</ele>
        <time>2025-09-28T12:05:04Z</time>
      </trkpt>
      <trkpt lat="46.10382" lon="4.41974">
        <ele>874.4</ele>
        <time>2025-09-28T12:05:05Z</time>
      </trkpt>
      <trkpt lat="46.10382" lon="4.41966">
        <ele>874.2</ele>
        <time>2025-09-28T12:05:06Z</time>
      </trkpt>
      <trkpt lat="46.10382" lon="4.41961">
        <ele>873.4</ele>
        <time>2025-09-28T12:05:07Z</time>
      </trkpt>
      <trkpt lat="46.10382" lon="4.41956">
        <ele>872.6</ele>
        <time>2025-09-28T12:05:08Z</time>
      </trkpt>
      <trkpt lat="46.10382" lon="4.41951">
        <ele>871.6</ele>
        <time>2025-09-28T12:05:09Z</time>
      </trkpt>
      <trkpt lat="46.10383" lon="4.41947">
        <ele>870.8</ele>
        <time>2025-09-28T12:05:10Z</time>
      </trkpt>
      <trkpt lat="46.10383" lon="4.41943">
        <ele>870.6</ele>
        <time>2025-09-28T12:05:11Z</time>
      </trkpt>
      <trkpt lat="46.10383" lon="4.41939">
        <ele>870.2</ele>
        <time>2025-09-28T12:05:12Z</time>
      </trkpt>
      <trkpt lat="46.10383" lon="4.41935">
        <ele>870.2</ele>
        <time>2025-09-28T12:05:13Z</time>
      </trkpt>
      <trkpt lat="46.10383" lon="4.41929">
        <ele>869.2</ele>
        <time>2025-09-28T12:05:14Z</time>
      </trkpt>
      <trkpt lat="46.10382" lon="4.41924">
        <ele>868.8</ele>
        <time>2025-09-28T12:05:15Z</time>
      </trkpt>
      <trkpt lat="46.10381" lon="4.41919">
        <ele>868.2</ele>
        <time>2025-09-28T12:05:16Z</time>
      </trkpt>
      <trkpt lat="46.10381" lon="4.41914">
        <ele>868</ele>
        <time>2025-09-28T12:05:17Z</time>
      </trkpt>
      <trkpt lat="46.1038" lon="4.4191">
        <ele>868</ele>
        <time>2025-09-28T12:05:18Z</time>
      </trkpt>
      <trkpt lat="46.1038" lon="4.41907">
        <ele>868.2</ele>
        <time>2025-09-28T12:05:19Z</time>
      </trkpt>
      <trkpt lat="46.10381" lon="4.41904">
        <ele>867.2</ele>
        <time>2025-09-28T12:05:20Z</time>
      </trkpt>
      <trkpt lat="46.10381" lon="4.41901">
        <ele>867.2</ele>
        <time>2025-09-28T12:05:21Z</time>
      </trkpt>
      <trkpt lat="46.10381" lon="4.41899">
        <ele>866.8</ele>
        <time>2025-09-28T12:05:22Z</time>
      </trkpt>
      <trkpt lat="46.10381" lon="4.41897">
        <ele>866.6</ele>
        <time>2025-09-28T12:05:23Z</time>
      </trkpt>
      <trkpt lat="46.10381" lon="4.41894">
        <ele>866.2</ele>
        <time>2025-09-28T12:05:24Z</time>
      </trkpt>
      <trkpt lat="46.10379" lon="4.41891">
        <ele>865.8</ele>
        <time>2025-09-28T12:05:25Z</time>
      </trkpt>
      <trkpt lat="46.10378" lon="4.41888">
        <ele>865.6</ele>
        <time>2025-09-28T12:05:26Z</time>
      </trkpt>
      <trkpt lat="46.10377" lon="4.41886">
        <ele>865.2</ele>
        <time>2025-09-28T12:05:27Z</time>
      </trkpt>
      <trkpt lat="46.10376" lon="4.41883">
        <ele>865.2</ele>
        <time>2025-09-28T12:05:28Z</time>
      </trkpt>
      <trkpt lat="46.10374" lon="4.4188">
        <ele>865.2</ele>
        <time>2025-09-28T12:05:29Z</time>
      </trkpt>
      <trkpt lat="46.10372" lon="4.41878">
        <ele>864.2</ele>
        <time>2025-09-28T12:05:30Z</time>
      </trkpt>
      <trkpt lat="46.1037" lon="4.41877">
        <ele>864.2</ele>
        <time>2025-09-28T12:05:31Z</time>
      </trkpt>
      <trkpt lat="46.10368" lon="4.41876">
        <ele>864.2</ele>
        <time>2025-09-28T12:05:32Z</time>
      </trkpt>
      <trkpt lat="46.10366" lon="4.41876">
        <ele>863.8</ele>
        <time>2025-09-28T12:05:33Z</time>
      </trkpt>
      <trkpt lat="46.10365" lon="4.41876">
        <ele>863.4</ele>
        <time>2025-09-28T12:05:34Z</time>
      </trkpt>
      <trkpt lat="46.10364" lon="4.41875">
        <ele>863.2</ele>
        <time>2025-09-28T12:05:35Z</time>
      </trkpt>
      <trkpt lat="46.10363" lon="4.41875">
        <ele>863.6</ele>
        <time>2025-09-28T12:05:36Z</time>
      </trkpt>
      <trkpt lat="46.10362" lon="4.41874">
        <ele>863.2</ele>
        <time>2025-09-28T12:05:37Z</time>
      </trkpt>
      <trkpt lat="46.1036" lon="4.41874">
        <ele>862.8</ele>
        <time>2025-09-28T12:05:38Z</time>
      </trkpt>
      <trkpt lat="46.10358" lon="4.41873">
        <ele>862.6</ele>
        <time>2025-09-28T12:05:39Z</time>
      </trkpt>
      <trkpt lat="46.10357" lon="4.41872">
        <ele>862.6</ele>
        <time>2025-09-28T12:05:40Z</time>
      </trkpt>
      <trkpt lat="46.10355" lon="4.41871">
        <ele>862.2</ele>
        <time>2025-09-28T12:05:41Z</time>
      </trkpt>
      <trkpt lat="46.10353" lon="4.4187">
        <ele>862</ele>
        <time>2025-09-28T12:05:42Z</time>
      </trkpt>
      <trkpt lat="46.1035" lon="4.41868">
        <ele>861.4</ele>
        <time>2025-09-28T12:05:43Z</time>
      </trkpt>
      <trkpt lat="46.10348" lon="4.41866">
        <ele>860.8</ele>
        <time>2025-09-28T12:05:44Z</time>
      </trkpt>
      <trkpt lat="46.10346" lon="4.41863">
        <ele>860.4</ele>
        <time>2025-09-28T12:05:45Z</time>
      </trkpt>
      <trkpt lat="46.10346" lon="4.41862">
        <ele>860.2</ele>
        <time>2025-09-28T12:05:46Z</time>
      </trkpt>
      <trkpt lat="46.10346" lon="4.41862">
        <ele>859.8</ele>
        <time>2025-09-28T12:05:47Z</time>
      </trkpt>
      <trkpt lat="46.10346" lon="4.41862">
        <ele>859.6</ele>
        <time>2025-09-28T12:05:48Z</time>
      </trkpt>
      <trkpt lat="46.10344" lon="4.4186">
        <ele>859</ele>
        <time>2025-09-28T12:05:53Z</time>
      </trkpt>
      <trkpt lat="46.10343" lon="4.41858">
        <ele>858.8</ele>
        <time>2025-09-28T12:05:54Z</time>
      </trkpt>
      <trkpt lat="46.10343" lon="4.41856">
        <ele>858.8</ele>
        <time>2025-09-28T12:05:55Z</time>
      </trkpt>
      <trkpt lat="46.10342" lon="4.41854">
        <ele>858.2</ele>
        <time>2025-09-28T12:05:56Z</time>
      </trkpt>
      <trkpt lat="46.10342" lon="4.41852">
        <ele>857.6</ele>
        <time>2025-09-28T12:05:57Z</time>
      </trkpt>
      <trkpt lat="46.10341" lon="4.41849">
        <ele>857.4</ele>
        <time>2025-09-28T12:05:58Z</time>
      </trkpt>
      <trkpt lat="46.1034" lon="4.41848">
        <ele>857.2</ele>
        <time>2025-09-28T12:05:59Z</time>
      </trkpt>
      <trkpt lat="46.10339" lon="4.41846">
        <ele>856.8</ele>
        <time>2025-09-28T12:06:00Z</time>
      </trkpt>
      <trkpt lat="46.10337" lon="4.41844">
        <ele>856.2</ele>
        <time>2025-09-28T12:06:01Z</time>
      </trkpt>
      <trkpt lat="46.10335" lon="4.41842">
        <ele>856</ele>
        <time>2025-09-28T12:06:02Z</time>
      </trkpt>
      <trkpt lat="46.10334" lon="4.41841">
        <ele>855.4</ele>
        <time>2025-09-28T12:06:03Z</time>
      </trkpt>
      <trkpt lat="46.10334" lon="4.41839">
        <ele>855</ele>
        <time>2025-09-28T12:06:04Z</time>
      </trkpt>
      <trkpt lat="46.10333" lon="4.41838">
        <ele>855</ele>
        <time>2025-09-28T12:06:05Z</time>
      </trkpt>
      <trkpt lat="46.10332" lon="4.41838">
        <ele>854.6</ele>
        <time>2025-09-28T12:06:06Z</time>
      </trkpt>
      <trkpt lat="46.10332" lon="4.41837">
        <ele>854.2</ele>
        <time>2025-09-28T12:06:07Z</time>
      </trkpt>
      <trkpt lat="46.10333" lon="4.41837">
        <ele>854</ele>
        <time>2025-09-28T12:06:08Z</time>
      </trkpt>
      <trkpt lat="46.10332" lon="4.41835">
        <ele>853.2</ele>
        <time>2025-09-28T12:06:27Z</time>
      </trkpt>
      <trkpt lat="46.10331" lon="4.41835">
        <ele>853.2</ele>
        <time>2025-09-28T12:06:28Z</time>
      </trkpt>
      <trkpt lat="46.1033" lon="4.41834">
        <ele>852.8</ele>
        <time>2025-09-28T12:06:29Z</time>
      </trkpt>
      <trkpt lat="46.10329" lon="4.41834">
        <ele>852.8</ele>
        <time>2025-09-28T12:06:30Z</time>
      </trkpt>
      <trkpt lat="46.10329" lon="4.41835">
        <ele>852.8</ele>
        <time>2025-09-28T12:06:31Z</time>
      </trkpt>
      <trkpt lat="46.10329" lon="4.41835">
        <ele>852.6</ele>
        <time>2025-09-28T12:06:32Z</time>
      </trkpt>
      <trkpt lat="46.10329" lon="4.41835">
        <ele>852.6</ele>
        <time>2025-09-28T12:06:33Z</time>
      </trkpt>
      <trkpt lat="46.10329" lon="4.4183">
        <ele>852.6</ele>
        <time>2025-09-28T12:07:14Z</time>
      </trkpt>
      <trkpt lat="46.10329" lon="4.41828">
        <ele>852.6</ele>
        <time>2025-09-28T12:07:15Z</time>
      </trkpt>
      <trkpt lat="46.10329" lon="4.41826">
        <ele>852.2</ele>
        <time>2025-09-28T12:07:16Z</time>
      </trkpt>
      <trkpt lat="46.10329" lon="4.41824">
        <ele>851.6</ele>
        <time>2025-09-28T12:07:17Z</time>
      </trkpt>
      <trkpt lat="46.10329" lon="4.41822">
        <ele>851.6</ele>
        <time>2025-09-28T12:07:18Z</time>
      </trkpt>
      <trkpt lat="46.10329" lon="4.41821">
        <ele>851.4</ele>
        <time>2025-09-28T12:07:19Z</time>
      </trkpt>
      <trkpt lat="46.10329" lon="4.41819">
        <ele>851.2</ele>
        <time>2025-09-28T12:07:20Z</time>
      </trkpt>
      <trkpt lat="46.10328" lon="4.41818">
        <ele>850.8</ele>
        <time>2025-09-28T12:07:21Z</time>
      </trkpt>
      <trkpt lat="46.10328" lon="4.41816">
        <ele>850.8</ele>
        <time>2025-09-28T12:07:22Z</time>
      </trkpt>
      <trkpt lat="46.10328" lon="4.41815">
        <ele>850.6</ele>
        <time>2025-09-28T12:07:23Z</time>
      </trkpt>
      <trkpt lat="46.10328" lon="4.41814">
        <ele>850.6</ele>
        <time>2025-09-28T12:07:24Z</time>
      </trkpt>
      <trkpt lat="46.10328" lon="4.41811">
        <ele>850.2</ele>
        <time>2025-09-28T12:07:25Z</time>
      </trkpt>
      <trkpt lat="46.10327" lon="4.41809">
        <ele>849.8</ele>
        <time>2025-09-28T12:07:26Z</time>
      </trkpt>
      <trkpt lat="46.10326" lon="4.41807">
        <ele>849.8</ele>
        <time>2025-09-28T12:07:27Z</time>
      </trkpt>
      <trkpt lat="46.10326" lon="4.41805">
        <ele>849.6</ele>
        <time>2025-09-28T12:07:28Z</time>
      </trkpt>
      <trkpt lat="46.10325" lon="4.41803">
        <ele>849.6</ele>
        <time>2025-09-28T12:07:29Z</time>
      </trkpt>
      <trkpt lat="46.10325" lon="4.41801">
        <ele>849.2</ele>
        <time>2025-09-28T12:07:30Z</time>
      </trkpt>
      <trkpt lat="46.10325" lon="4.41798">
        <ele>849</ele>
        <time>2025-09-28T12:07:31Z</time>
      </trkpt>
      <trkpt lat="46.10325" lon="4.41795">
        <ele>848.4</ele>
        <time>2025-09-28T12:07:32Z</time>
      </trkpt>
      <trkpt lat="46.10325" lon="4.41793">
        <ele>848</ele>
        <time>2025-09-28T12:07:33Z</time>
      </trkpt>
      <trkpt lat="46.10325" lon="4.4179">
        <ele>847.8</ele>
        <time>2025-09-28T12:07:34Z</time>
      </trkpt>
      <trkpt lat="46.10325" lon="4.41788">
        <ele>847.4</ele>
        <time>2025-09-28T12:07:35Z</time>
      </trkpt>
      <trkpt lat="46.10325" lon="4.41785">
        <ele>847.2</ele>
        <time>2025-09-28T12:07:36Z</time>
      </trkpt>
      <trkpt lat="46.10325" lon="4.41782">
        <ele>847.2</ele>
        <time>2025-09-28T12:07:37Z</time>
      </trkpt>
      <trkpt lat="46.10325" lon="4.4178">
        <ele>846.4</ele>
        <time>2025-09-28T12:07:38Z</time>
      </trkpt>
      <trkpt lat="46.10325" lon="4.41777">
        <ele>845.8</ele>
        <time>2025-09-28T12:07:39Z</time>
      </trkpt>
      <trkpt lat="46.10325" lon="4.41775">
        <ele>845.4</ele>
        <time>2025-09-28T12:07:40Z</time>
      </trkpt>
      <trkpt lat="46.10325" lon="4.41773">
        <ele>844.6</ele>
        <time>2025-09-28T12:07:41Z</time>
      </trkpt>
      <trkpt lat="46.10326" lon="4.41771">
        <ele>844.2</ele>
        <time>2025-09-28T12:07:42Z</time>
      </trkpt>
      <trkpt lat="46.10326" lon="4.41768">
        <ele>844.2</ele>
        <time>2025-09-28T12:07:43Z</time>
      </trkpt>
      <trkpt lat="46.10326" lon="4.41766">
        <ele>843.8</ele>
        <time>2025-09-28T12:07:44Z</time>
      </trkpt>
      <trkpt lat="46.10326" lon="4.41763">
        <ele>843.8</ele>
        <time>2025-09-28T12:07:45Z</time>
      </trkpt>
      <trkpt lat="46.10326" lon="4.41761">
        <ele>843.6</ele>
        <time>2025-09-28T12:07:46Z</time>
      </trkpt>
      <trkpt lat="46.10326" lon="4.41758">
        <ele>843.2</ele>
        <time>2025-09-28T12:07:47Z</time>
      </trkpt>
      <trkpt lat="46.10327" lon="4.41755">
        <ele>842.6</ele>
        <time>2025-09-28T12:07:48Z</time>
      </trkpt>
      <trkpt lat="46.10327" lon="4.41752">
        <ele>842</ele>
        <time>2025-09-28T12:07:49Z</time>
      </trkpt>
      <trkpt lat="46.10327" lon="4.41749">
        <ele>842</ele>
        <time>2025-09-28T12:07:50Z</time>
      </trkpt>
      <trkpt lat="46.10327" lon="4.41746">
        <ele>841.4</ele>
        <time>2025-09-28T12:07:51Z</time>
      </trkpt>
      <trkpt lat="46.10327" lon="4.41746">
        <ele>841.2</ele>
        <time>2025-09-28T12:07:52Z</time>
      </trkpt>
      <trkpt lat="46.10328" lon="4.41743">
        <ele>841</ele>
        <time>2025-09-28T12:07:53Z</time>
      </trkpt>
      <trkpt lat="46.10328" lon="4.4174">
        <ele>841</ele>
        <time>2025-09-28T12:07:54Z</time>
      </trkpt>
      <trkpt lat="46.10328" lon="4.41737">
        <ele>840.4</ele>
        <time>2025-09-28T12:07:55Z</time>
      </trkpt>
      <trkpt lat="46.10328" lon="4.41734">
        <ele>840.2</ele>
        <time>2025-09-28T12:07:56Z</time>
      </trkpt>
      <trkpt lat="46.10329" lon="4.41732">
        <ele>840.2</ele>
        <time>2025-09-28T12:07:57Z</time>
      </trkpt>
      <trkpt lat="46.10329" lon="4.41731">
        <ele>839.6</ele>
        <time>2025-09-28T12:07:58Z</time>
      </trkpt>
      <trkpt lat="46.10329" lon="4.4173">
        <ele>839.6</ele>
        <time>2025-09-28T12:07:59Z</time>
      </trkpt>
      <trkpt lat="46.10329" lon="4.4173">
        <ele>839.4</ele>
        <time>2025-09-28T12:08:00Z</time>
      </trkpt>
      <trkpt lat="46.10328" lon="4.41729">
        <ele>838.6</ele>
        <time>2025-09-28T12:08:04Z</time>
      </trkpt>
      <trkpt lat="46.10328" lon="4.41728">
        <ele>838.6</ele>
        <time>2025-09-28T12:08:05Z</time>
      </trkpt>
      <trkpt lat="46.10328" lon="4.41727">
        <ele>838.6</ele>
        <time>2025-09-28T12:08:06Z</time>
      </trkpt>
      <trkpt lat="46.10328" lon="4.41725">
        <ele>838.2</ele>
        <time>2025-09-28T12:08:07Z</time>
      </trkpt>
      <trkpt lat="46.10328" lon="4.41723">
        <ele>838.2</ele>
        <time>2025-09-28T12:08:08Z</time>
      </trkpt>
      <trkpt lat="46.10328" lon="4.41721">
        <ele>838</ele>
        <time>2025-09-28T12:08:09Z</time>
      </trkpt>
      <trkpt lat="46.10328" lon="4.41719">
        <ele>838</ele>
        <time>2025-09-28T12:08:10Z</time>
      </trkpt>
      <trkpt lat="46.10328" lon="4.41718">
        <ele>838</ele>
        <time>2025-09-28T12:08:11Z</time>
      </trkpt>
      <trkpt lat="46.10328" lon="4.41717">
        <ele>837.4</ele>
        <time>2025-09-28T12:08:12Z</time>
      </trkpt>
      <trkpt lat="46.10328" lon="4.41715">
        <ele>837.2</ele>
        <time>2025-09-28T12:08:13Z</time>
      </trkpt>
      <trkpt lat="46.10328" lon="4.41713">
        <ele>837</ele>
        <time>2025-09-28T12:08:14Z</time>
      </trkpt>
      <trkpt lat="46.10329" lon="4.41711">
        <ele>836.6</ele>
        <time>2025-09-28T12:08:15Z</time>
      </trkpt>
      <trkpt lat="46.10329" lon="4.4171">
        <ele>836.6</ele>
        <time>2025-09-28T12:08:16Z</time>
      </trkpt>
      <trkpt lat="46.10329" lon="4.41709">
        <ele>836</ele>
        <time>2025-09-28T12:08:17Z</time>
      </trkpt>
      <trkpt lat="46.10329" lon="4.41708">
        <ele>835.8</ele>
        <time>2025-09-28T12:08:18Z</time>
      </trkpt>
      <trkpt lat="46.10329" lon="4.41706">
        <ele>835.4</ele>
        <time>2025-09-28T12:08:19Z</time>
      </trkpt>
      <trkpt lat="46.10329" lon="4.41705">
        <ele>835.4</ele>
        <time>2025-09-28T12:08:20Z</time>
      </trkpt>
      <trkpt lat="46.10329" lon="4.41704">
        <ele>834.8</ele>
        <time>2025-09-28T12:08:21Z</time>
      </trkpt>
      <trkpt lat="46.10328" lon="4.41702">
        <ele>834.6</ele>
        <time>2025-09-28T12:08:22Z</time>
      </trkpt>
      <trkpt lat="46.10328" lon="4.417">
        <ele>834.2</ele>
        <time>2025-09-28T12:08:23Z</time>
      </trkpt>
      <trkpt lat="46.10327" lon="4.41699">
        <ele>834.2</ele>
        <time>2025-09-28T12:08:24Z</time>
      </trkpt>
      <trkpt lat="46.10328" lon="4.41698">
        <ele>834</ele>
        <time>2025-09-28T12:08:25Z</time>
      </trkpt>
      <trkpt lat="46.10328" lon="4.41697">
        <ele>834</ele>
        <time>2025-09-28T12:08:26Z</time>
      </trkpt>
      <trkpt lat="46.10328" lon="4.41697">
        <ele>833.6</ele>
        <time>2025-09-28T12:08:27Z</time>
      </trkpt>
      <trkpt lat="46.10328" lon="4.41696">
        <ele>833.6</ele>
        <time>2025-09-28T12:08:28Z</time>
      </trkpt>
      <trkpt lat="46.10327" lon="4.41695">
        <ele>833.4</ele>
        <time>2025-09-28T12:08:29Z</time>
      </trkpt>
      <trkpt lat="46.10327" lon="4.41694">
        <ele>833.4</ele>
        <time>2025-09-28T12:08:30Z</time>
      </trkpt>
      <trkpt lat="46.10328" lon="4.41693">
        <ele>832.8</ele>
        <time>2025-09-28T12:08:31Z</time>
      </trkpt>
      <trkpt lat="46.10328" lon="4.41692">
        <ele>832.8</ele>
        <time>2025-09-28T12:08:32Z</time>
      </trkpt>
      <trkpt lat="46.10329" lon="4.41692">
        <ele>832.4</ele>
        <time>2025-09-28T12:08:33Z</time>
      </trkpt>
      <trkpt lat="46.10329" lon="4.41691">
        <ele>832.2</ele>
        <time>2025-09-28T12:08:34Z</time>
      </trkpt>
      <trkpt lat="46.10329" lon="4.41691">
        <ele>832.2</ele>
        <time>2025-09-28T12:08:35Z</time>
      </trkpt>
      <trkpt lat="46.10329" lon="4.4169">
        <ele>832.2</ele>
        <time>2025-09-28T12:08:36Z</time>
      </trkpt>
      <trkpt lat="46.10329" lon="4.4169">
        <ele>831.8</ele>
        <time>2025-09-28T12:08:37Z</time>
      </trkpt>
      <trkpt lat="46.10329" lon="4.41688">
        <ele>831.6</ele>
        <time>2025-09-28T12:08:38Z</time>
      </trkpt>
      <trkpt lat="46.10329" lon="4.41687">
        <ele>831.6</ele>
        <time>2025-09-28T12:08:39Z</time>
      </trkpt>
      <trkpt lat="46.10329" lon="4.41687">
        <ele>831.2</ele>
        <time>2025-09-28T12:08:40Z</time>
      </trkpt>
      <trkpt lat="46.1033" lon="4.41685">
        <ele>831.2</ele>
        <time>2025-09-28T12:08:41Z</time>
      </trkpt>
      <trkpt lat="46.1033" lon="4.41685">
        <ele>831</ele>
        <time>2025-09-28T12:08:42Z</time>
      </trkpt>
      <trkpt lat="46.1033" lon="4.41685">
        <ele>831</ele>
        <time>2025-09-28T12:08:43Z</time>
      </trkpt>
      <trkpt lat="46.1033" lon="4.41684">
        <ele>830.8</ele>
        <time>2025-09-28T12:08:46Z</time>
      </trkpt>
      <trkpt lat="46.10329" lon="4.41682">
        <ele>830.8</ele>
        <time>2025-09-28T12:08:47Z</time>
      </trkpt>
      <trkpt lat="46.1033" lon="4.41682">
        <ele>830.8</ele>
        <time>2025-09-28T12:08:48Z</time>
      </trkpt>
      <trkpt lat="46.1033" lon="4.4168">
        <ele>830.6</ele>
        <time>2025-09-28T12:08:49Z</time>
      </trkpt>
      <trkpt lat="46.10329" lon="4.41678">
        <ele>830.6</ele>
        <time>2025-09-28T12:08:50Z</time>
      </trkpt>
      <trkpt lat="46.10329" lon="4.41678">
        <ele>830.4</ele>
        <time>2025-09-28T12:08:51Z</time>
      </trkpt>
      <trkpt lat="46.1033" lon="4.41679">
        <ele>830.4</ele>
        <time>2025-09-28T12:08:52Z</time>
      </trkpt>
      <trkpt lat="46.10331" lon="4.41682">
        <ele>830</ele>
        <time>2025-09-28T12:09:06Z</time>
      </trkpt>
      <trkpt lat="46.1033" lon="4.4168">
        <ele>830</ele>
        <time>2025-09-28T12:09:07Z</time>
      </trkpt>
      <trkpt lat="46.10329" lon="4.41679">
        <ele>830</ele>
        <time>2025-09-28T12:09:08Z</time>
      </trkpt>
      <trkpt lat="46.10328" lon="4.41678">
        <ele>830</ele>
        <time>2025-09-28T12:09:09Z</time>
      </trkpt>
      <trkpt lat="46.10327" lon="4.41678">
        <ele>829.6</ele>
        <time>2025-09-28T12:09:10Z</time>
      </trkpt>
      <trkpt lat="46.10327" lon="4.41679">
        <ele>829.6</ele>
        <time>2025-09-28T12:09:11Z</time>
      </trkpt>
      <trkpt lat="46.1033" lon="4.41681">
        <ele>829.2</ele>
        <time>2025-09-28T12:09:51Z</time>
      </trkpt>
      <trkpt lat="46.10328" lon="4.41682">
        <ele>829.2</ele>
        <time>2025-09-28T12:09:52Z</time>
      </trkpt>
      <trkpt lat="46.10328" lon="4.41681">
        <ele>829.2</ele>
        <time>2025-09-28T12:09:53Z</time>
      </trkpt>
      <trkpt lat="46.10327" lon="4.41681">
        <ele>829.2</ele>
        <time>2025-09-28T12:09:54Z</time>
      </trkpt>
      <trkpt lat="46.10326" lon="4.41679">
        <ele>829.2</ele>
        <time>2025-09-28T12:09:55Z</time>
      </trkpt>
      <trkpt lat="46.10325" lon="4.41678">
        <ele>829.2</ele>
        <time>2025-09-28T12:09:56Z</time>
      </trkpt>
      <trkpt lat="46.10325" lon="4.41677">
        <ele>829</ele>
        <time>2025-09-28T12:09:57Z</time>
      </trkpt>
      <trkpt lat="46.10325" lon="4.41676">
        <ele>829</ele>
        <time>2025-09-28T12:09:58Z</time>
      </trkpt>
      <trkpt lat="46.10324" lon="4.41674">
        <ele>828.2</ele>
        <time>2025-09-28T12:10:02Z</time>
      </trkpt>
      <trkpt lat="46.10324" lon="4.41671">
        <ele>828.2</ele>
        <time>2025-09-28T12:10:03Z</time>
      </trkpt>
      <trkpt lat="46.10323" lon="4.41666">
        <ele>828.2</ele>
        <time>2025-09-28T12:10:04Z</time>
      </trkpt>
      <trkpt lat="46.10321" lon="4.41662">
        <ele>827.8</ele>
        <time>2025-09-28T12:10:05Z</time>
      </trkpt>
      <trkpt lat="46.1032" lon="4.41658">
        <ele>827.2</ele>
        <time>2025-09-28T12:10:06Z</time>
      </trkpt>
      <trkpt lat="46.10319" lon="4.41656">
        <ele>826.4</ele>
        <time>2025-09-28T12:10:07Z</time>
      </trkpt>
      <trkpt lat="46.10319" lon="4.41654">
        <ele>825.8</ele>
        <time>2025-09-28T12:10:08Z</time>
      </trkpt>
      <trkpt lat="46.10318" lon="4.4165">
        <ele>825.4</ele>
        <time>2025-09-28T12:10:09Z</time>
      </trkpt>
      <trkpt lat="46.10316" lon="4.41647">
        <ele>825.2</ele>
        <time>2025-09-28T12:10:10Z</time>
      </trkpt>
      <trkpt lat="46.10315" lon="4.41643">
        <ele>823.6</ele>
        <time>2025-09-28T12:10:11Z</time>
      </trkpt>
      <trkpt lat="46.10314" lon="4.4164">
        <ele>823.4</ele>
        <time>2025-09-28T12:10:12Z</time>
      </trkpt>
      <trkpt lat="46.10314" lon="4.41638">
        <ele>823</ele>
        <time>2025-09-28T12:10:13Z</time>
      </trkpt>
      <trkpt lat="46.10312" lon="4.41634">
        <ele>822.2</ele>
        <time>2025-09-28T12:10:14Z</time>
      </trkpt>
      <trkpt lat="46.1031" lon="4.41629">
        <ele>821.8</ele>
        <time>2025-09-28T12:10:15Z</time>
      </trkpt>
      <trkpt lat="46.10308" lon="4.41625">
        <ele>821.6</ele>
        <time>2025-09-28T12:10:16Z</time>
      </trkpt>
      <trkpt lat="46.10307" lon="4.41622">
        <ele>821.2</ele>
        <time>2025-09-28T12:10:17Z</time>
      </trkpt>
      <trkpt lat="46.10306" lon="4.41618">
        <ele>820.4</ele>
        <time>2025-09-28T12:10:18Z</time>
      </trkpt>
      <trkpt lat="46.10304" lon="4.41614">
        <ele>820.2</ele>
        <time>2025-09-28T12:10:19Z</time>
      </trkpt>
      <trkpt lat="46.10302" lon="4.4161">
        <ele>820</ele>
        <time>2025-09-28T12:10:20Z</time>
      </trkpt>
      <trkpt lat="46.10301" lon="4.41606">
        <ele>820.4</ele>
        <time>2025-09-28T12:10:21Z</time>
      </trkpt>
      <trkpt lat="46.103" lon="4.41601">
        <ele>818.8</ele>
        <time>2025-09-28T12:10:22Z</time>
      </trkpt>
      <trkpt lat="46.10299" lon="4.41596">
        <ele>818.8</ele>
        <time>2025-09-28T12:10:23Z</time>
      </trkpt>
      <trkpt lat="46.10298" lon="4.41592">
        <ele>818.2</ele>
        <time>2025-09-28T12:10:24Z</time>
      </trkpt>
      <trkpt lat="46.10296" lon="4.41587">
        <ele>817.4</ele>
        <time>2025-09-28T12:10:25Z</time>
      </trkpt>
      <trkpt lat="46.10295" lon="4.41583">
        <ele>816.8</ele>
        <time>2025-09-28T12:10:26Z</time>
      </trkpt>
      <trkpt lat="46.10294" lon="4.41579">
        <ele>816.8</ele>
        <time>2025-09-28T12:10:27Z</time>
      </trkpt>
      <trkpt lat="46.10294" lon="4.41575">
        <ele>816.2</ele>
        <time>2025-09-28T12:10:28Z</time>
      </trkpt>
      <trkpt lat="46.10295" lon="4.41571">
        <ele>815.6</ele>
        <time>2025-09-28T12:10:29Z</time>
      </trkpt>
      <trkpt lat="46.10295" lon="4.41568">
        <ele>815.4</ele>
        <time>2025-09-28T12:10:30Z</time>
      </trkpt>
      <trkpt lat="46.10295" lon="4.41566">
        <ele>815</ele>
        <time>2025-09-28T12:10:31Z</time>
      </trkpt>
      <trkpt lat="46.10296" lon="4.41561">
        <ele>814.6</ele>
        <time>2025-09-28T12:10:32Z</time>
      </trkpt>
      <trkpt lat="46.10296" lon="4.41557">
        <ele>814.2</ele>
        <time>2025-09-28T12:10:33Z</time>
      </trkpt>
      <trkpt lat="46.10296" lon="4.41553">
        <ele>813.6</ele>
        <time>2025-09-28T12:10:34Z</time>
      </trkpt>
      <trkpt lat="46.10296" lon="4.4155">
        <ele>813</ele>
        <time>2025-09-28T12:10:35Z</time>
      </trkpt>
      <trkpt lat="46.10295" lon="4.41546">
        <ele>812.6</ele>
        <time>2025-09-28T12:10:36Z</time>
      </trkpt>
      <trkpt lat="46.10295" lon="4.41544">
        <ele>812.2</ele>
        <time>2025-09-28T12:10:37Z</time>
      </trkpt>
      <trkpt lat="46.10294" lon="4.41541">
        <ele>812.2</ele>
        <time>2025-09-28T12:10:38Z</time>
      </trkpt>
      <trkpt lat="46.10293" lon="4.41539">
        <ele>811.2</ele>
        <time>2025-09-28T12:10:39Z</time>
      </trkpt>
      <trkpt lat="46.10293" lon="4.41535">
        <ele>811.2</ele>
        <time>2025-09-28T12:10:40Z</time>
      </trkpt>
      <trkpt lat="46.10292" lon="4.4153">
        <ele>811.2</ele>
        <time>2025-09-28T12:10:41Z</time>
      </trkpt>
      <trkpt lat="46.10291" lon="4.41526">
        <ele>811.2</ele>
        <time>2025-09-28T12:10:42Z</time>
      </trkpt>
      <trkpt lat="46.10291" lon="4.41524">
        <ele>810.6</ele>
        <time>2025-09-28T12:10:43Z</time>
      </trkpt>
      <trkpt lat="46.1029" lon="4.41522">
        <ele>810.4</ele>
        <time>2025-09-28T12:10:44Z</time>
      </trkpt>
      <trkpt lat="46.10289" lon="4.4152">
        <ele>810.2</ele>
        <time>2025-09-28T12:10:45Z</time>
      </trkpt>
      <trkpt lat="46.10287" lon="4.41518">
        <ele>809.8</ele>
        <time>2025-09-28T12:10:46Z</time>
      </trkpt>
      <trkpt lat="46.10286" lon="4.41517">
        <ele>809.6</ele>
        <time>2025-09-28T12:10:47Z</time>
      </trkpt>
      <trkpt lat="46.10286" lon="4.41517">
        <ele>809.4</ele>
        <time>2025-09-28T12:10:48Z</time>
      </trkpt>
      <trkpt lat="46.10286" lon="4.41517">
        <ele>809.4</ele>
        <time>2025-09-28T12:10:49Z</time>
      </trkpt>
      <trkpt lat="46.10285" lon="4.41511">
        <ele>809</ele>
        <time>2025-09-28T12:11:55Z</time>
      </trkpt>
      <trkpt lat="46.10284" lon="4.41505">
        <ele>809</ele>
        <time>2025-09-28T12:11:56Z</time>
      </trkpt>
      <trkpt lat="46.10282" lon="4.415">
        <ele>809</ele>
        <time>2025-09-28T12:11:57Z</time>
      </trkpt>
      <trkpt lat="46.10281" lon="4.41492">
        <ele>808</ele>
        <time>2025-09-28T12:11:58Z</time>
      </trkpt>
      <trkpt lat="46.1028" lon="4.41487">
        <ele>807.6</ele>
        <time>2025-09-28T12:11:59Z</time>
      </trkpt>
      <trkpt lat="46.10278" lon="4.41476">
        <ele>807.6</ele>
        <time>2025-09-28T12:12:00Z</time>
      </trkpt>
      <trkpt lat="46.10277" lon="4.41465">
        <ele>807.2</ele>
        <time>2025-09-28T12:12:01Z</time>
      </trkpt>
      <trkpt lat="46.10276" lon="4.41455">
        <ele>806</ele>
        <time>2025-09-28T12:12:02Z</time>
      </trkpt>
      <trkpt lat="46.10275" lon="4.41444">
        <ele>805.6</ele>
        <time>2025-09-28T12:12:03Z</time>
      </trkpt>
      <trkpt lat="46.10274" lon="4.41432">
        <ele>805.6</ele>
        <time>2025-09-28T12:12:04Z</time>
      </trkpt>
      <trkpt lat="46.10274" lon="4.41421">
        <ele>805</ele>
        <time>2025-09-28T12:12:05Z</time>
      </trkpt>
      <trkpt lat="46.10273" lon="4.41409">
        <ele>804.6</ele>
        <time>2025-09-28T12:12:06Z</time>
      </trkpt>
      <trkpt lat="46.10272" lon="4.41398">
        <ele>804</ele>
        <time>2025-09-28T12:12:07Z</time>
      </trkpt>
      <trkpt lat="46.10271" lon="4.41387">
        <ele>803.2</ele>
        <time>2025-09-28T12:12:08Z</time>
      </trkpt>
      <trkpt lat="46.10272" lon="4.41377">
        <ele>803.2</ele>
        <time>2025-09-28T12:12:09Z</time>
      </trkpt>
      <trkpt lat="46.10271" lon="4.41365">
        <ele>802.6</ele>
        <time>2025-09-28T12:12:10Z</time>
      </trkpt>
      <trkpt lat="46.10271" lon="4.41355">
        <ele>802</ele>
        <time>2025-09-28T12:12:11Z</time>
      </trkpt>
      <trkpt lat="46.10269" lon="4.41347">
        <ele>803.6</ele>
        <time>2025-09-28T12:12:12Z</time>
      </trkpt>
      <trkpt lat="46.10266" lon="4.41336">
        <ele>802.4</ele>
        <time>2025-09-28T12:12:13Z</time>
      </trkpt>
      <trkpt lat="46.10263" lon="4.41327">
        <ele>802</ele>
        <time>2025-09-28T12:12:14Z</time>
      </trkpt>
      <trkpt lat="46.10262" lon="4.41319">
        <ele>801.6</ele>
        <time>2025-09-28T12:12:15Z</time>
      </trkpt>
      <trkpt lat="46.10261" lon="4.41312">
        <ele>802</ele>
        <time>2025-09-28T12:12:16Z</time>
      </trkpt>
      <trkpt lat="46.10258" lon="4.41304">
        <ele>800.8</ele>
        <time>2025-09-28T12:12:17Z</time>
      </trkpt>
      <trkpt lat="46.10256" lon="4.41297">
        <ele>799.8</ele>
        <time>2025-09-28T12:12:18Z</time>
      </trkpt>
      <trkpt lat="46.1025" lon="4.41283">
        <ele>800.2</ele>
        <time>2025-09-28T12:12:19Z</time>
      </trkpt>
      <trkpt lat="46.10248" lon="4.4128">
        <ele>800.6</ele>
        <time>2025-09-28T12:12:20Z</time>
      </trkpt>
      <trkpt lat="46.10246" lon="4.41269">
        <ele>799.8</ele>
        <time>2025-09-28T12:12:21Z</time>
      </trkpt>
      <trkpt lat="46.10243" lon="4.41262">
        <ele>799.8</ele>
        <time>2025-09-28T12:12:22Z</time>
      </trkpt>
      <trkpt lat="46.1024" lon="4.41248">
        <ele>798.8</ele>
        <time>2025-09-28T12:12:23Z</time>
      </trkpt>
      <trkpt lat="46.10238" lon="4.41237">
        <ele>798.2</ele>
        <time>2025-09-28T12:12:24Z</time>
      </trkpt>
      <trkpt lat="46.10236" lon="4.41226">
        <ele>798</ele>
        <time>2025-09-28T12:12:25Z</time>
      </trkpt>
      <trkpt lat="46.10234" lon="4.41215">
        <ele>798</ele>
        <time>2025-09-28T12:12:26Z</time>
      </trkpt>
      <trkpt lat="46.10233" lon="4.41205">
        <ele>797.2</ele>
        <time>2025-09-28T12:12:27Z</time>
      </trkpt>
      <trkpt lat="46.1023" lon="4.41195">
        <ele>798.2</ele>
        <time>2025-09-28T12:12:28Z</time>
      </trkpt>
      <trkpt lat="46.10227" lon="4.41184">
        <ele>797.6</ele>
        <time>2025-09-28T12:12:29Z</time>
      </trkpt>
      <trkpt lat="46.10222" lon="4.41172">
        <ele>796.6</ele>
        <time>2025-09-28T12:12:30Z</time>
      </trkpt>
      <trkpt lat="46.1022" lon="4.4116">
        <ele>795.2</ele>
        <time>2025-09-28T12:12:31Z</time>
      </trkpt>
      <trkpt lat="46.10217" lon="4.41148">
        <ele>793.8</ele>
        <time>2025-09-28T12:12:32Z</time>
      </trkpt>
      <trkpt lat="46.10214" lon="4.41136">
        <ele>793.4</ele>
        <time>2025-09-28T12:12:33Z</time>
      </trkpt>
      <trkpt lat="46.1021" lon="4.41123">
        <ele>792.8</ele>
        <time>2025-09-28T12:12:34Z</time>
      </trkpt>
      <trkpt lat="46.10208" lon="4.41113">
        <ele>791.8</ele>
        <time>2025-09-28T12:12:35Z</time>
      </trkpt>
      <trkpt lat="46.10206" lon="4.41102">
        <ele>791.2</ele>
        <time>2025-09-28T12:12:36Z</time>
      </trkpt>
      <trkpt lat="46.10205" lon="4.41091">
        <ele>790.4</ele>
        <time>2025-09-28T12:12:37Z</time>
      </trkpt>
      <trkpt lat="46.10205" lon="4.4108">
        <ele>790</ele>
        <time>2025-09-28T12:12:38Z</time>
      </trkpt>
      <trkpt lat="46.10204" lon="4.41069">
        <ele>788.6</ele>
        <time>2025-09-28T12:12:39Z</time>
      </trkpt>
      <trkpt lat="46.10203" lon="4.41058">
        <ele>788.2</ele>
        <time>2025-09-28T12:12:40Z</time>
      </trkpt>
      <trkpt lat="46.10202" lon="4.41051">
        <ele>787.8</ele>
        <time>2025-09-28T12:12:41Z</time>
      </trkpt>
      <trkpt lat="46.10201" lon="4.41039">
        <ele>787.8</ele>
        <time>2025-09-28T12:12:42Z</time>
      </trkpt>
      <trkpt lat="46.102" lon="4.41035">
        <ele>787.8</ele>
        <time>2025-09-28T12:12:43Z</time>
      </trkpt>
      <trkpt lat="46.102" lon="4.41029">
        <ele>787.8</ele>
        <time>2025-09-28T12:12:44Z</time>
      </trkpt>
      <trkpt lat="46.10198" lon="4.41028">
        <ele>787.4</ele>
        <time>2025-09-28T12:12:45Z</time>
      </trkpt>
      <trkpt lat="46.10197" lon="4.41027">
        <ele>787.4</ele>
        <time>2025-09-28T12:12:46Z</time>
      </trkpt>
      <trkpt lat="46.10196" lon="4.4103">
        <ele>787.4</ele>
        <time>2025-09-28T12:12:47Z</time>
      </trkpt>
      <trkpt lat="46.10196" lon="4.41031">
        <ele>787.4</ele>
        <time>2025-09-28T12:12:48Z</time>
      </trkpt>
      <trkpt lat="46.10197" lon="4.41031">
        <ele>787.4</ele>
        <time>2025-09-28T12:12:49Z</time>
      </trkpt>
      <trkpt lat="46.10197" lon="4.41032">
        <ele>787.4</ele>
        <time>2025-09-28T12:12:50Z</time>
      </trkpt>
      <trkpt lat="46.10197" lon="4.41033">
        <ele>787.2</ele>
        <time>2025-09-28T12:12:51Z</time>
      </trkpt>
      <trkpt lat="46.10198" lon="4.41035">
        <ele>787.2</ele>
        <time>2025-09-28T12:12:52Z</time>
      </trkpt>
      <trkpt lat="46.10198" lon="4.41039">
        <ele>787.2</ele>
        <time>2025-09-28T12:12:53Z</time>
      </trkpt>
      <trkpt lat="46.10198" lon="4.41042">
        <ele>787.2</ele>
        <time>2025-09-28T12:12:54Z</time>
      </trkpt>
      <trkpt lat="46.10198" lon="4.41045">
        <ele>787.2</ele>
        <time>2025-09-28T12:12:55Z</time>
      </trkpt>
      <trkpt lat="46.10199" lon="4.41047">
        <ele>787.4</ele>
        <time>2025-09-28T12:12:56Z</time>
      </trkpt>
      <trkpt lat="46.102" lon="4.4105">
        <ele>787.4</ele>
        <time>2025-09-28T12:12:57Z</time>
      </trkpt>
      <trkpt lat="46.10202" lon="4.41053">
        <ele>787.8</ele>
        <time>2025-09-28T12:12:58Z</time>
      </trkpt>
      <trkpt lat="46.10205" lon="4.41055">
        <ele>787.8</ele>
        <time>2025-09-28T12:12:59Z</time>
      </trkpt>
      <trkpt lat="46.10208" lon="4.41057">
        <ele>788.2</ele>
        <time>2025-09-28T12:13:00Z</time>
      </trkpt>
      <trkpt lat="46.10211" lon="4.41058">
        <ele>788.4</ele>
        <time>2025-09-28T12:13:01Z</time>
      </trkpt>
      <trkpt lat="46.10214" lon="4.41058">
        <ele>788.4</ele>
        <time>2025-09-28T12:13:02Z</time>
      </trkpt>
      <trkpt lat="46.10218" lon="4.41058">
        <ele>788.6</ele>
        <time>2025-09-28T12:13:03Z</time>
      </trkpt>
      <trkpt lat="46.10221" lon="4.41059">
        <ele>788.6</ele>
        <time>2025-09-28T12:13:04Z</time>
      </trkpt>
      <trkpt lat="46.10225" lon="4.4106">
        <ele>789</ele>
        <time>2025-09-28T12:13:05Z</time>
      </trkpt>
      <trkpt lat="46.10229" lon="4.41061">
        <ele>789</ele>
        <time>2025-09-28T12:13:06Z</time>
      </trkpt>
      <trkpt lat="46.10233" lon="4.41063">
        <ele>789</ele>
        <time>2025-09-28T12:13:07Z</time>
      </trkpt>
      <trkpt lat="46.10236" lon="4.41064">
        <ele>789</ele>
        <time>2025-09-28T12:13:08Z</time>
      </trkpt>
      <trkpt lat="46.10239" lon="4.41066">
        <ele>789</ele>
        <time>2025-09-28T12:13:09Z</time>
      </trkpt>
      <trkpt lat="46.10243" lon="4.41068">
        <ele>789</ele>
        <time>2025-09-28T12:13:10Z</time>
      </trkpt>
      <trkpt lat="46.10247" lon="4.4107">
        <ele>788.6</ele>
        <time>2025-09-28T12:13:11Z</time>
      </trkpt>
      <trkpt lat="46.10251" lon="4.41071">
        <ele>789</ele>
        <time>2025-09-28T12:13:12Z</time>
      </trkpt>
      <trkpt lat="46.10254" lon="4.41073">
        <ele>789</ele>
        <time>2025-09-28T12:13:13Z</time>
      </trkpt>
      <trkpt lat="46.10261" lon="4.41078">
        <ele>788.4</ele>
        <time>2025-09-28T12:13:14Z</time>
      </trkpt>
      <trkpt lat="46.10265" lon="4.41079">
        <ele>787.8</ele>
        <time>2025-09-28T12:13:15Z</time>
      </trkpt>
      <trkpt lat="46.10271" lon="4.41081">
        <ele>787.6</ele>
        <time>2025-09-28T12:13:16Z</time>
      </trkpt>
      <trkpt lat="46.10276" lon="4.41082">
        <ele>787.2</ele>
        <time>2025-09-28T12:13:17Z</time>
      </trkpt>
      <trkpt lat="46.10282" lon="4.41085">
        <ele>787</ele>
        <time>2025-09-28T12:13:18Z</time>
      </trkpt>
      <trkpt lat="46.10286" lon="4.41086">
        <ele>786.8</ele>
        <time>2025-09-28T12:13:19Z</time>
      </trkpt>
      <trkpt lat="46.10289" lon="4.4109">
        <ele>785.8</ele>
        <time>2025-09-28T12:13:20Z</time>
      </trkpt>
      <trkpt lat="46.10293" lon="4.41093">
        <ele>785.2</ele>
        <time>2025-09-28T12:13:21Z</time>
      </trkpt>
      <trkpt lat="46.103" lon="4.41098">
        <ele>784.8</ele>
        <time>2025-09-28T12:13:22Z</time>
      </trkpt>
      <trkpt lat="46.10304" lon="4.41101">
        <ele>784.4</ele>
        <time>2025-09-28T12:13:23Z</time>
      </trkpt>
      <trkpt lat="46.10308" lon="4.41105">
        <ele>783.8</ele>
        <time>2025-09-28T12:13:24Z</time>
      </trkpt>
      <trkpt lat="46.10308" lon="4.41107">
        <ele>783.4</ele>
        <time>2025-09-28T12:13:25Z</time>
      </trkpt>
      <trkpt lat="46.10309" lon="4.4111">
        <ele>783.2</ele>
        <time>2025-09-28T12:13:26Z</time>
      </trkpt>
      <trkpt lat="46.10311" lon="4.41111">
        <ele>782.8</ele>
        <time>2025-09-28T12:13:27Z</time>
      </trkpt>
      <trkpt lat="46.10309" lon="4.41112">
        <ele>782.6</ele>
        <time>2025-09-28T12:13:28Z</time>
      </trkpt>
      <trkpt lat="46.10311" lon="4.41112">
        <ele>782.4</ele>
        <time>2025-09-28T12:13:29Z</time>
      </trkpt>
      <trkpt lat="46.10311" lon="4.41112">
        <ele>782.4</ele>
        <time>2025-09-28T12:13:30Z</time>
      </trkpt>
      <trkpt lat="46.10311" lon="4.41112">
        <ele>782</ele>
        <time>2025-09-28T12:13:31Z</time>
      </trkpt>
      <trkpt lat="46.10311" lon="4.41112">
        <ele>782</ele>
        <time>2025-09-28T12:13:32Z</time>
      </trkpt>
      <trkpt lat="46.10314" lon="4.4112">
        <ele>780.8</ele>
        <time>2025-09-28T12:16:04Z</time>
      </trkpt>
      <trkpt lat="46.10314" lon="4.41123">
        <ele>780.8</ele>
        <time>2025-09-28T12:16:05Z</time>
      </trkpt>
      <trkpt lat="46.10315" lon="4.41126">
        <ele>780.8</ele>
        <time>2025-09-28T12:16:06Z</time>
      </trkpt>
      <trkpt lat="46.10318" lon="4.4113">
        <ele>780.6</ele>
        <time>2025-09-28T12:16:07Z</time>
      </trkpt>
      <trkpt lat="46.10321" lon="4.41133">
        <ele>780.6</ele>
        <time>2025-09-28T12:16:08Z</time>
      </trkpt>
      <trkpt lat="46.10323" lon="4.41136">
        <ele>780.2</ele>
        <time>2025-09-28T12:16:09Z</time>
      </trkpt>
      <trkpt lat="46.10325" lon="4.4114">
        <ele>780.2</ele>
        <time>2025-09-28T12:16:10Z</time>
      </trkpt>
      <trkpt lat="46.10328" lon="4.41145">
        <ele>779.8</ele>
        <time>2025-09-28T12:16:11Z</time>
      </trkpt>
      <trkpt lat="46.1033" lon="4.4115">
        <ele>779.8</ele>
        <time>2025-09-28T12:16:12Z</time>
      </trkpt>
      <trkpt lat="46.10333" lon="4.41156">
        <ele>779.8</ele>
        <time>2025-09-28T12:16:13Z</time>
      </trkpt>
      <trkpt lat="46.10336" lon="4.41162">
        <ele>779.6</ele>
        <time>2025-09-28T12:16:14Z</time>
      </trkpt>
      <trkpt lat="46.10338" lon="4.41167">
        <ele>779.6</ele>
        <time>2025-09-28T12:16:15Z</time>
      </trkpt>
      <trkpt lat="46.10341" lon="4.41173">
        <ele>779.4</ele>
        <time>2025-09-28T12:16:16Z</time>
      </trkpt>
      <trkpt lat="46.10345" lon="4.41178">
        <ele>779.4</ele>
        <time>2025-09-28T12:16:17Z</time>
      </trkpt>
      <trkpt lat="46.10345" lon="4.41182">
        <ele>779.4</ele>
        <time>2025-09-28T12:16:18Z</time>
      </trkpt>
      <trkpt lat="46.10346" lon="4.41188">
        <ele>779.4</ele>
        <time>2025-09-28T12:16:19Z</time>
      </trkpt>
      <trkpt lat="46.10349" lon="4.41191">
        <ele>779.4</ele>
        <time>2025-09-28T12:16:20Z</time>
      </trkpt>
      <trkpt lat="46.10352" lon="4.41195">
        <ele>779</ele>
        <time>2025-09-28T12:16:21Z</time>
      </trkpt>
      <trkpt lat="46.10354" lon="4.41199">
        <ele>778.6</ele>
        <time>2025-09-28T12:16:22Z</time>
      </trkpt>
      <trkpt lat="46.10357" lon="4.41206">
        <ele>778.6</ele>
        <time>2025-09-28T12:16:23Z</time>
      </trkpt>
      <trkpt lat="46.1036" lon="4.41212">
        <ele>778.6</ele>
        <time>2025-09-28T12:16:24Z</time>
      </trkpt>
      <trkpt lat="46.10366" lon="4.41219">
        <ele>778.2</ele>
        <time>2025-09-28T12:16:25Z</time>
      </trkpt>
      <trkpt lat="46.10369" lon="4.41226">
        <ele>778</ele>
        <time>2025-09-28T12:16:26Z</time>
      </trkpt>
      <trkpt lat="46.10375" lon="4.41235">
        <ele>777.6</ele>
        <time>2025-09-28T12:16:27Z</time>
      </trkpt>
      <trkpt lat="46.10379" lon="4.41243">
        <ele>776.8</ele>
        <time>2025-09-28T12:16:28Z</time>
      </trkpt>
      <trkpt lat="46.10385" lon="4.41252">
        <ele>776.6</ele>
        <time>2025-09-28T12:16:29Z</time>
      </trkpt>
      <trkpt lat="46.10388" lon="4.4126">
        <ele>776.6</ele>
        <time>2025-09-28T12:16:30Z</time>
      </trkpt>
      <trkpt lat="46.10392" lon="4.41268">
        <ele>776.2</ele>
        <time>2025-09-28T12:16:31Z</time>
      </trkpt>
      <trkpt lat="46.10397" lon="4.41275">
        <ele>775.8</ele>
        <time>2025-09-28T12:16:32Z</time>
      </trkpt>
      <trkpt lat="46.10403" lon="4.41283">
        <ele>775.8</ele>
        <time>2025-09-28T12:16:33Z</time>
      </trkpt>
      <trkpt lat="46.10408" lon="4.41291">
        <ele>775.4</ele>
        <time>2025-09-28T12:16:34Z</time>
      </trkpt>
      <trkpt lat="46.1041" lon="4.41295">
        <ele>775.2</ele>
        <time>2025-09-28T12:16:35Z</time>
      </trkpt>
      <trkpt lat="46.10415" lon="4.413">
        <ele>775.4</ele>
        <time>2025-09-28T12:16:36Z</time>
      </trkpt>
      <trkpt lat="46.10419" lon="4.41306">
        <ele>775.4</ele>
        <time>2025-09-28T12:16:37Z</time>
      </trkpt>
      <trkpt lat="46.10425" lon="4.41316">
        <ele>775.2</ele>
        <time>2025-09-28T12:16:38Z</time>
      </trkpt>
      <trkpt lat="46.1043" lon="4.4132">
        <ele>774.8</ele>
        <time>2025-09-28T12:16:39Z</time>
      </trkpt>
      <trkpt lat="46.10436" lon="4.41326">
        <ele>773.8</ele>
        <time>2025-09-28T12:16:40Z</time>
      </trkpt>
      <trkpt lat="46.10442" lon="4.41333">
        <ele>774.2</ele>
        <time>2025-09-28T12:16:41Z</time>
      </trkpt>
      <trkpt lat="46.10447" lon="4.41339">
        <ele>774.2</ele>
        <time>2025-09-28T12:16:42Z</time>
      </trkpt>
      <trkpt lat="46.10453" lon="4.41344">
        <ele>774.2</ele>
        <time>2025-09-28T12:16:43Z</time>
      </trkpt>
      <trkpt lat="46.10458" lon="4.4135">
        <ele>774.2</ele>
        <time>2025-09-28T12:16:44Z</time>
      </trkpt>
      <trkpt lat="46.10462" lon="4.41353">
        <ele>774.4</ele>
        <time>2025-09-28T12:16:45Z</time>
      </trkpt>
      <trkpt lat="46.10466" lon="4.41359">
        <ele>774.4</ele>
        <time>2025-09-28T12:16:46Z</time>
      </trkpt>
      <trkpt lat="46.10471" lon="4.41363">
        <ele>774.4</ele>
        <time>2025-09-28T12:16:47Z</time>
      </trkpt>
      <trkpt lat="46.10475" lon="4.41368">
        <ele>774.2</ele>
        <time>2025-09-28T12:16:48Z</time>
      </trkpt>
      <trkpt lat="46.1048" lon="4.41373">
        <ele>774.2</ele>
        <time>2025-09-28T12:16:49Z</time>
      </trkpt>
      <trkpt lat="46.10485" lon="4.41378">
        <ele>774.4</ele>
        <time>2025-09-28T12:16:50Z</time>
      </trkpt>
      <trkpt lat="46.1049" lon="4.41383">
        <ele>774.4</ele>
        <time>2025-09-28T12:16:51Z</time>
      </trkpt>
      <trkpt lat="46.10493" lon="4.41388">
        <ele>774.2</ele>
        <time>2025-09-28T12:16:52Z</time>
      </trkpt>
      <trkpt lat="46.10496" lon="4.41394">
        <ele>774.4</ele>
        <time>2025-09-28T12:16:53Z</time>
      </trkpt>
      <trkpt lat="46.105" lon="4.41399">
        <ele>774.4</ele>
        <time>2025-09-28T12:16:54Z</time>
      </trkpt>
      <trkpt lat="46.10502" lon="4.41403">
        <ele>774.6</ele>
        <time>2025-09-28T12:16:55Z</time>
      </trkpt>
      <trkpt lat="46.10505" lon="4.41407">
        <ele>774.6</ele>
        <time>2025-09-28T12:16:56Z</time>
      </trkpt>
      <trkpt lat="46.10506" lon="4.4141">
        <ele>775</ele>
        <time>2025-09-28T12:16:57Z</time>
      </trkpt>
      <trkpt lat="46.10509" lon="4.41413">
        <ele>775.4</ele>
        <time>2025-09-28T12:16:58Z</time>
      </trkpt>
      <trkpt lat="46.10512" lon="4.41416">
        <ele>775.6</ele>
        <time>2025-09-28T12:16:59Z</time>
      </trkpt>
      <trkpt lat="46.10514" lon="4.41418">
        <ele>776.2</ele>
        <time>2025-09-28T12:17:00Z</time>
      </trkpt>
      <trkpt lat="46.10516" lon="4.4142">
        <ele>776.8</ele>
        <time>2025-09-28T12:17:01Z</time>
      </trkpt>
      <trkpt lat="46.10519" lon="4.41423">
        <ele>776.8</ele>
        <time>2025-09-28T12:17:02Z</time>
      </trkpt>
      <trkpt lat="46.10522" lon="4.41425">
        <ele>777.4</ele>
        <time>2025-09-28T12:17:03Z</time>
      </trkpt>
      <trkpt lat="46.10524" lon="4.41426">
        <ele>777.8</ele>
        <time>2025-09-28T12:17:04Z</time>
      </trkpt>
      <trkpt lat="46.10526" lon="4.41428">
        <ele>778</ele>
        <time>2025-09-28T12:17:05Z</time>
      </trkpt>
      <trkpt lat="46.10528" lon="4.41431">
        <ele>778.4</ele>
        <time>2025-09-28T12:17:06Z</time>
      </trkpt>
      <trkpt lat="46.10531" lon="4.41432">
        <ele>778.4</ele>
        <time>2025-09-28T12:17:07Z</time>
      </trkpt>
      <trkpt lat="46.10533" lon="4.41433">
        <ele>778.6</ele>
        <time>2025-09-28T12:17:08Z</time>
      </trkpt>
      <trkpt lat="46.10536" lon="4.41435">
        <ele>778.6</ele>
        <time>2025-09-28T12:17:09Z</time>
      </trkpt>
      <trkpt lat="46.10538" lon="4.41436">
        <ele>778.8</ele>
        <time>2025-09-28T12:17:10Z</time>
      </trkpt>
      <trkpt lat="46.10541" lon="4.41438">
        <ele>778.8</ele>
        <time>2025-09-28T12:17:11Z</time>
      </trkpt>
      <trkpt lat="46.10543" lon="4.4144">
        <ele>779.4</ele>
        <time>2025-09-28T12:17:12Z</time>
      </trkpt>
      <trkpt lat="46.10546" lon="4.41442">
        <ele>779.4</ele>
        <time>2025-09-28T12:17:13Z</time>
      </trkpt>
      <trkpt lat="46.10549" lon="4.41444">
        <ele>779.6</ele>
        <time>2025-09-28T12:17:14Z</time>
      </trkpt>
      <trkpt lat="46.10551" lon="4.41446">
        <ele>779.6</ele>
        <time>2025-09-28T12:17:15Z</time>
      </trkpt>
      <trkpt lat="46.10553" lon="4.41447">
        <ele>780</ele>
        <time>2025-09-28T12:17:16Z</time>
      </trkpt>
      <trkpt lat="46.10555" lon="4.41448">
        <ele>780.6</ele>
        <time>2025-09-28T12:17:17Z</time>
      </trkpt>
      <trkpt lat="46.10558" lon="4.4145">
        <ele>780.6</ele>
        <time>2025-09-28T12:17:18Z</time>
      </trkpt>
      <trkpt lat="46.1056" lon="4.41451">
        <ele>780.6</ele>
        <time>2025-09-28T12:17:19Z</time>
      </trkpt>
      <trkpt lat="46.10563" lon="4.41452">
        <ele>780.6</ele>
        <time>2025-09-28T12:17:20Z</time>
      </trkpt>
      <trkpt lat="46.10565" lon="4.41453">
        <ele>781</ele>
        <time>2025-09-28T12:17:21Z</time>
      </trkpt>
      <trkpt lat="46.10568" lon="4.41454">
        <ele>780.6</ele>
        <time>2025-09-28T12:17:22Z</time>
      </trkpt>
      <trkpt lat="46.10571" lon="4.41455">
        <ele>780.6</ele>
        <time>2025-09-28T12:17:23Z</time>
      </trkpt>
      <trkpt lat="46.10573" lon="4.41457">
        <ele>781</ele>
        <time>2025-09-28T12:17:24Z</time>
      </trkpt>
      <trkpt lat="46.10576" lon="4.41458">
        <ele>780.8</ele>
        <time>2025-09-28T12:17:25Z</time>
      </trkpt>
      <trkpt lat="46.10578" lon="4.4146">
        <ele>780.8</ele>
        <time>2025-09-28T12:17:26Z</time>
      </trkpt>
      <trkpt lat="46.1058" lon="4.41461">
        <ele>781.2</ele>
        <time>2025-09-28T12:17:27Z</time>
      </trkpt>
      <trkpt lat="46.10583" lon="4.41463">
        <ele>781.2</ele>
        <time>2025-09-28T12:17:28Z</time>
      </trkpt>
      <trkpt lat="46.10585" lon="4.41465">
        <ele>781.6</ele>
        <time>2025-09-28T12:17:29Z</time>
      </trkpt>
      <trkpt lat="46.10587" lon="4.41467">
        <ele>781.6</ele>
        <time>2025-09-28T12:17:30Z</time>
      </trkpt>
      <trkpt lat="46.10589" lon="4.41469">
        <ele>782</ele>
        <time>2025-09-28T12:17:31Z</time>
      </trkpt>
      <trkpt lat="46.10592" lon="4.4147">
        <ele>782.2</ele>
        <time>2025-09-28T12:17:32Z</time>
      </trkpt>
      <trkpt lat="46.10594" lon="4.41472">
        <ele>782.2</ele>
        <time>2025-09-28T12:17:33Z</time>
      </trkpt>
      <trkpt lat="46.10596" lon="4.41473">
        <ele>782.4</ele>
        <time>2025-09-28T12:17:34Z</time>
      </trkpt>
      <trkpt lat="46.10598" lon="4.41474">
        <ele>782.4</ele>
        <time>2025-09-28T12:17:35Z</time>
      </trkpt>
      <trkpt lat="46.106" lon="4.41476">
        <ele>782.8</ele>
        <time>2025-09-28T12:17:36Z</time>
      </trkpt>
      <trkpt lat="46.10602" lon="4.41477">
        <ele>782.8</ele>
        <time>2025-09-28T12:17:37Z</time>
      </trkpt>
      <trkpt lat="46.10604" lon="4.41478">
        <ele>782.8</ele>
        <time>2025-09-28T12:17:38Z</time>
      </trkpt>
      <trkpt lat="46.10606" lon="4.41478">
        <ele>783.2</ele>
        <time>2025-09-28T12:17:39Z</time>
      </trkpt>
      <trkpt lat="46.10608" lon="4.41479">
        <ele>783.2</ele>
        <time>2025-09-28T12:17:40Z</time>
      </trkpt>
      <trkpt lat="46.1061" lon="4.41479">
        <ele>783.4</ele>
        <time>2025-09-28T12:17:41Z</time>
      </trkpt>
      <trkpt lat="46.10612" lon="4.4148">
        <ele>783.4</ele>
        <time>2025-09-28T12:17:42Z</time>
      </trkpt>
      <trkpt lat="46.10614" lon="4.4148">
        <ele>783.6</ele>
        <time>2025-09-28T12:17:43Z</time>
      </trkpt>
      <trkpt lat="46.10616" lon="4.41481">
        <ele>783.6</ele>
        <time>2025-09-28T12:17:44Z</time>
      </trkpt>
      <trkpt lat="46.10619" lon="4.41481">
        <ele>783.8</ele>
        <time>2025-09-28T12:17:45Z</time>
      </trkpt>
      <trkpt lat="46.10621" lon="4.41481">
        <ele>783.8</ele>
        <time>2025-09-28T12:17:46Z</time>
      </trkpt>
      <trkpt lat="46.10623" lon="4.41481">
        <ele>784</ele>
        <time>2025-09-28T12:17:47Z</time>
      </trkpt>
      <trkpt lat="46.10626" lon="4.41481">
        <ele>784</ele>
        <time>2025-09-28T12:17:48Z</time>
      </trkpt>
      <trkpt lat="46.10628" lon="4.41481">
        <ele>784</ele>
        <time>2025-09-28T12:17:49Z</time>
      </trkpt>
      <trkpt lat="46.10631" lon="4.41482">
        <ele>784.4</ele>
        <time>2025-09-28T12:17:50Z</time>
      </trkpt>
      <trkpt lat="46.10633" lon="4.41482">
        <ele>784.4</ele>
        <time>2025-09-28T12:17:51Z</time>
      </trkpt>
      <trkpt lat="46.10636" lon="4.41482">
        <ele>784.4</ele>
        <time>2025-09-28T12:17:52Z</time>
      </trkpt>
      <trkpt lat="46.10639" lon="4.41482">
        <ele>784.4</ele>
        <time>2025-09-28T12:17:53Z</time>
      </trkpt>
      <trkpt lat="46.10642" lon="4.41483">
        <ele>784.6</ele>
        <time>2025-09-28T12:17:54Z</time>
      </trkpt>
      <trkpt lat="46.10644" lon="4.41483">
        <ele>784.6</ele>
        <time>2025-09-28T12:17:55Z</time>
      </trkpt>
      <trkpt lat="46.10647" lon="4.41483">
        <ele>784.6</ele>
        <time>2025-09-28T12:17:56Z</time>
      </trkpt>
      <trkpt lat="46.1065" lon="4.41483">
        <ele>784.8</ele>
        <time>2025-09-28T12:17:57Z</time>
      </trkpt>
      <trkpt lat="46.10653" lon="4.41484">
        <ele>784.8</ele>
        <time>2025-09-28T12:17:58Z</time>
      </trkpt>
      <trkpt lat="46.10655" lon="4.41484">
        <ele>784.8</ele>
        <time>2025-09-28T12:17:59Z</time>
      </trkpt>
      <trkpt lat="46.10658" lon="4.41485">
        <ele>785</ele>
        <time>2025-09-28T12:18:00Z</time>
      </trkpt>
      <trkpt lat="46.10658" lon="4.41485">
        <ele>785</ele>
        <time>2025-09-28T12:18:01Z</time>
      </trkpt>
      <trkpt lat="46.10663" lon="4.41485">
        <ele>785</ele>
        <time>2025-09-28T12:18:02Z</time>
      </trkpt>
      <trkpt lat="46.10665" lon="4.41486">
        <ele>785.2</ele>
        <time>2025-09-28T12:18:03Z</time>
      </trkpt>
      <trkpt lat="46.10667" lon="4.41486">
        <ele>785.4</ele>
        <time>2025-09-28T12:18:04Z</time>
      </trkpt>
      <trkpt lat="46.1067" lon="4.41487">
        <ele>785.4</ele>
        <time>2025-09-28T12:18:05Z</time>
      </trkpt>
      <trkpt lat="46.10672" lon="4.41487">
        <ele>785.6</ele>
        <time>2025-09-28T12:18:06Z</time>
      </trkpt>
      <trkpt lat="46.10674" lon="4.41487">
        <ele>785.6</ele>
        <time>2025-09-28T12:18:07Z</time>
      </trkpt>
      <trkpt lat="46.10676" lon="4.41487">
        <ele>786.2</ele>
        <time>2025-09-28T12:18:08Z</time>
      </trkpt>
      <trkpt lat="46.10678" lon="4.41486">
        <ele>786.4</ele>
        <time>2025-09-28T12:18:09Z</time>
      </trkpt>
      <trkpt lat="46.1068" lon="4.41485">
        <ele>786.4</ele>
        <time>2025-09-28T12:18:10Z</time>
      </trkpt>
      <trkpt lat="46.10682" lon="4.41484">
        <ele>786.6</ele>
        <time>2025-09-28T12:18:11Z</time>
      </trkpt>
      <trkpt lat="46.10684" lon="4.41484">
        <ele>786.6</ele>
        <time>2025-09-28T12:18:12Z</time>
      </trkpt>
      <trkpt lat="46.10685" lon="4.41483">
        <ele>787</ele>
        <time>2025-09-28T12:18:13Z</time>
      </trkpt>
      <trkpt lat="46.10687" lon="4.41483">
        <ele>787.4</ele>
        <time>2025-09-28T12:18:14Z</time>
      </trkpt>
      <trkpt lat="46.10689" lon="4.41482">
        <ele>787.4</ele>
        <time>2025-09-28T12:18:15Z</time>
      </trkpt>
      <trkpt lat="46.10691" lon="4.41481">
        <ele>787.4</ele>
        <time>2025-09-28T12:18:16Z</time>
      </trkpt>
      <trkpt lat="46.10693" lon="4.4148">
        <ele>787.8</ele>
        <time>2025-09-28T12:18:17Z</time>
      </trkpt>
      <trkpt lat="46.10695" lon="4.41479">
        <ele>787.8</ele>
        <time>2025-09-28T12:18:18Z</time>
      </trkpt>
      <trkpt lat="46.10698" lon="4.41479">
        <ele>787.8</ele>
        <time>2025-09-28T12:18:19Z</time>
      </trkpt>
      <trkpt lat="46.10701" lon="4.41478">
        <ele>787.8</ele>
        <time>2025-09-28T12:18:20Z</time>
      </trkpt>
      <trkpt lat="46.10703" lon="4.41477">
        <ele>788.2</ele>
        <time>2025-09-28T12:18:21Z</time>
      </trkpt>
      <trkpt lat="46.10706" lon="4.41476">
        <ele>788.2</ele>
        <time>2025-09-28T12:18:22Z</time>
      </trkpt>
      <trkpt lat="46.10709" lon="4.41476">
        <ele>788.4</ele>
        <time>2025-09-28T12:18:23Z</time>
      </trkpt>
      <trkpt lat="46.10712" lon="4.41475">
        <ele>788.4</ele>
        <time>2025-09-28T12:18:24Z</time>
      </trkpt>
      <trkpt lat="46.10715" lon="4.41474">
        <ele>788.4</ele>
        <time>2025-09-28T12:18:25Z</time>
      </trkpt>
      <trkpt lat="46.10718" lon="4.41474">
        <ele>788.6</ele>
        <time>2025-09-28T12:18:26Z</time>
      </trkpt>
      <trkpt lat="46.1072" lon="4.41474">
        <ele>788.6</ele>
        <time>2025-09-28T12:18:27Z</time>
      </trkpt>
      <trkpt lat="46.10723" lon="4.41474">
        <ele>788.8</ele>
        <time>2025-09-28T12:18:28Z</time>
      </trkpt>
      <trkpt lat="46.10726" lon="4.41474">
        <ele>788.8</ele>
        <time>2025-09-28T12:18:29Z</time>
      </trkpt>
      <trkpt lat="46.10728" lon="4.41474">
        <ele>788.8</ele>
        <time>2025-09-28T12:18:30Z</time>
      </trkpt>
      <trkpt lat="46.10731" lon="4.41475">
        <ele>788.8</ele>
        <time>2025-09-28T12:18:31Z</time>
      </trkpt>
      <trkpt lat="46.10733" lon="4.41476">
        <ele>789</ele>
        <time>2025-09-28T12:18:32Z</time>
      </trkpt>
      <trkpt lat="46.10736" lon="4.41476">
        <ele>789</ele>
        <time>2025-09-28T12:18:33Z</time>
      </trkpt>
      <trkpt lat="46.10738" lon="4.41476">
        <ele>789.4</ele>
        <time>2025-09-28T12:18:34Z</time>
      </trkpt>
      <trkpt lat="46.10741" lon="4.41476">
        <ele>789.4</ele>
        <time>2025-09-28T12:18:35Z</time>
      </trkpt>
      <trkpt lat="46.10744" lon="4.41477">
        <ele>789.6</ele>
        <time>2025-09-28T12:18:36Z</time>
      </trkpt>
      <trkpt lat="46.10746" lon="4.41477">
        <ele>789.6</ele>
        <time>2025-09-28T12:18:37Z</time>
      </trkpt>
      <trkpt lat="46.10749" lon="4.41478">
        <ele>789.8</ele>
        <time>2025-09-28T12:18:38Z</time>
      </trkpt>
      <trkpt lat="46.10751" lon="4.41479">
        <ele>789.8</ele>
        <time>2025-09-28T12:18:39Z</time>
      </trkpt>
      <trkpt lat="46.10753" lon="4.4148">
        <ele>790</ele>
        <time>2025-09-28T12:18:40Z</time>
      </trkpt>
      <trkpt lat="46.10755" lon="4.41481">
        <ele>790</ele>
        <time>2025-09-28T12:18:41Z</time>
      </trkpt>
      <trkpt lat="46.10758" lon="4.41483">
        <ele>790</ele>
        <time>2025-09-28T12:18:42Z</time>
      </trkpt>
      <trkpt lat="46.10761" lon="4.41484">
        <ele>790</ele>
        <time>2025-09-28T12:18:43Z</time>
      </trkpt>
      <trkpt lat="46.10764" lon="4.41485">
        <ele>790</ele>
        <time>2025-09-28T12:18:44Z</time>
      </trkpt>
      <trkpt lat="46.10767" lon="4.41488">
        <ele>790</ele>
        <time>2025-09-28T12:18:45Z</time>
      </trkpt>
      <trkpt lat="46.10769" lon="4.4149">
        <ele>790.4</ele>
        <time>2025-09-28T12:18:46Z</time>
      </trkpt>
      <trkpt lat="46.10771" lon="4.41492">
        <ele>790.4</ele>
        <time>2025-09-28T12:18:47Z</time>
      </trkpt>
      <trkpt lat="46.10773" lon="4.41495">
        <ele>790.4</ele>
        <time>2025-09-28T12:18:48Z</time>
      </trkpt>
      <trkpt lat="46.10775" lon="4.41497">
        <ele>790.4</ele>
        <time>2025-09-28T12:18:49Z</time>
      </trkpt>
      <trkpt lat="46.10778" lon="4.41499">
        <ele>790.4</ele>
        <time>2025-09-28T12:18:50Z</time>
      </trkpt>
      <trkpt lat="46.10781" lon="4.41502">
        <ele>790.4</ele>
        <time>2025-09-28T12:18:51Z</time>
      </trkpt>
      <trkpt lat="46.10784" lon="4.41506">
        <ele>789.6</ele>
        <time>2025-09-28T12:18:52Z</time>
      </trkpt>
      <trkpt lat="46.10788" lon="4.4151">
        <ele>789.6</ele>
        <time>2025-09-28T12:18:53Z</time>
      </trkpt>
      <trkpt lat="46.10791" lon="4.41513">
        <ele>790.2</ele>
        <time>2025-09-28T12:18:54Z</time>
      </trkpt>
      <trkpt lat="46.10793" lon="4.41516">
        <ele>790.2</ele>
        <time>2025-09-28T12:18:55Z</time>
      </trkpt>
      <trkpt lat="46.10795" lon="4.41518">
        <ele>789.8</ele>
        <time>2025-09-28T12:18:56Z</time>
      </trkpt>
      <trkpt lat="46.10796" lon="4.41521">
        <ele>789.8</ele>
        <time>2025-09-28T12:18:57Z</time>
      </trkpt>
      <trkpt lat="46.10798" lon="4.41523">
        <ele>789.8</ele>
        <time>2025-09-28T12:18:58Z</time>
      </trkpt>
      <trkpt lat="46.10799" lon="4.41525">
        <ele>789.6</ele>
        <time>2025-09-28T12:18:59Z</time>
      </trkpt>
      <trkpt lat="46.108" lon="4.41527">
        <ele>789.6</ele>
        <time>2025-09-28T12:19:00Z</time>
      </trkpt>
      <trkpt lat="46.108" lon="4.41527">
        <ele>789.6</ele>
        <time>2025-09-28T12:19:01Z</time>
      </trkpt>
      <trkpt lat="46.10799" lon="4.41527">
        <ele>789.6</ele>
        <time>2025-09-28T12:19:02Z</time>
      </trkpt>
      <trkpt lat="46.10798" lon="4.41527">
        <ele>789.6</ele>
        <time>2025-09-28T12:19:03Z</time>
      </trkpt>
      <trkpt lat="46.10795" lon="4.41531">
        <ele>789.4</ele>
        <time>2025-09-28T12:19:37Z</time>
      </trkpt>
      <trkpt lat="46.10796" lon="4.41533">
        <ele>789.4</ele>
        <time>2025-09-28T12:19:38Z</time>
      </trkpt>
      <trkpt lat="46.10797" lon="4.41536">
        <ele>789.4</ele>
        <time>2025-09-28T12:19:39Z</time>
      </trkpt>
      <trkpt lat="46.10798" lon="4.41539">
        <ele>789</ele>
        <time>2025-09-28T12:19:40Z</time>
      </trkpt>
      <trkpt lat="46.10799" lon="4.41542">
        <ele>789</ele>
        <time>2025-09-28T12:19:41Z</time>
      </trkpt>
      <trkpt lat="46.10801" lon="4.41545">
        <ele>788.6</ele>
        <time>2025-09-28T12:19:42Z</time>
      </trkpt>
      <trkpt lat="46.10802" lon="4.41548">
        <ele>788.6</ele>
        <time>2025-09-28T12:19:43Z</time>
      </trkpt>
      <trkpt lat="46.10804" lon="4.41552">
        <ele>788.2</ele>
        <time>2025-09-28T12:19:44Z</time>
      </trkpt>
      <trkpt lat="46.10806" lon="4.41556">
        <ele>788.2</ele>
        <time>2025-09-28T12:19:45Z</time>
      </trkpt>
      <trkpt lat="46.10808" lon="4.41559">
        <ele>788.2</ele>
        <time>2025-09-28T12:19:46Z</time>
      </trkpt>
      <trkpt lat="46.1081" lon="4.41564">
        <ele>788.2</ele>
        <time>2025-09-28T12:19:47Z</time>
      </trkpt>
      <trkpt lat="46.10812" lon="4.41568">
        <ele>788.4</ele>
        <time>2025-09-28T12:19:48Z</time>
      </trkpt>
      <trkpt lat="46.10815" lon="4.41573">
        <ele>788.2</ele>
        <time>2025-09-28T12:19:49Z</time>
      </trkpt>
      <trkpt lat="46.10818" lon="4.41577">
        <ele>787.8</ele>
        <time>2025-09-28T12:19:50Z</time>
      </trkpt>
      <trkpt lat="46.1082" lon="4.41582">
        <ele>787.4</ele>
        <time>2025-09-28T12:19:51Z</time>
      </trkpt>
      <trkpt lat="46.10823" lon="4.41586">
        <ele>787.4</ele>
        <time>2025-09-28T12:19:52Z</time>
      </trkpt>
      <trkpt lat="46.10825" lon="4.41591">
        <ele>787</ele>
        <time>2025-09-28T12:19:53Z</time>
      </trkpt>
      <trkpt lat="46.10828" lon="4.41596">
        <ele>787</ele>
        <time>2025-09-28T12:19:54Z</time>
      </trkpt>
      <trkpt lat="46.10831" lon="4.416">
        <ele>786.8</ele>
        <time>2025-09-28T12:19:55Z</time>
      </trkpt>
      <trkpt lat="46.10834" lon="4.41605">
        <ele>786.8</ele>
        <time>2025-09-28T12:19:56Z</time>
      </trkpt>
      <trkpt lat="46.10836" lon="4.4161">
        <ele>787</ele>
        <time>2025-09-28T12:19:57Z</time>
      </trkpt>
      <trkpt lat="46.10839" lon="4.41616">
        <ele>786.2</ele>
        <time>2025-09-28T12:19:58Z</time>
      </trkpt>
      <trkpt lat="46.10842" lon="4.41622">
        <ele>786.2</ele>
        <time>2025-09-28T12:19:59Z</time>
      </trkpt>
      <trkpt lat="46.10844" lon="4.41627">
        <ele>785.8</ele>
        <time>2025-09-28T12:20:00Z</time>
      </trkpt>
      <trkpt lat="46.10847" lon="4.41633">
        <ele>785.8</ele>
        <time>2025-09-28T12:20:01Z</time>
      </trkpt>
      <trkpt lat="46.10851" lon="4.41639">
        <ele>785.2</ele>
        <time>2025-09-28T12:20:02Z</time>
      </trkpt>
      <trkpt lat="46.10854" lon="4.41644">
        <ele>785.2</ele>
        <time>2025-09-28T12:20:03Z</time>
      </trkpt>
      <trkpt lat="46.10858" lon="4.4165">
        <ele>785.2</ele>
        <time>2025-09-28T12:20:04Z</time>
      </trkpt>
      <trkpt lat="46.10862" lon="4.41656">
        <ele>784.6</ele>
        <time>2025-09-28T12:20:05Z</time>
      </trkpt>
      <trkpt lat="46.10867" lon="4.41662">
        <ele>785</ele>
        <time>2025-09-28T12:20:06Z</time>
      </trkpt>
      <trkpt lat="46.1087" lon="4.41668">
        <ele>784.8</ele>
        <time>2025-09-28T12:20:07Z</time>
      </trkpt>
      <trkpt lat="46.10875" lon="4.41673">
        <ele>784.6</ele>
        <time>2025-09-28T12:20:08Z</time>
      </trkpt>
      <trkpt lat="46.1088" lon="4.41679">
        <ele>784.2</ele>
        <time>2025-09-28T12:20:09Z</time>
      </trkpt>
      <trkpt lat="46.10884" lon="4.41685">
        <ele>783.6</ele>
        <time>2025-09-28T12:20:10Z</time>
      </trkpt>
      <trkpt lat="46.1089" lon="4.41692">
        <ele>782.2</ele>
        <time>2025-09-28T12:20:11Z</time>
      </trkpt>
      <trkpt lat="46.10894" lon="4.41699">
        <ele>782.6</ele>
        <time>2025-09-28T12:20:12Z</time>
      </trkpt>
      <trkpt lat="46.109" lon="4.41706">
        <ele>782.6</ele>
        <time>2025-09-28T12:20:13Z</time>
      </trkpt>
      <trkpt lat="46.10904" lon="4.41712">
        <ele>782.2</ele>
        <time>2025-09-28T12:20:14Z</time>
      </trkpt>
      <trkpt lat="46.10908" lon="4.41719">
        <ele>782.2</ele>
        <time>2025-09-28T12:20:15Z</time>
      </trkpt>
      <trkpt lat="46.10913" lon="4.41726">
        <ele>781.8</ele>
        <time>2025-09-28T12:20:16Z</time>
      </trkpt>
      <trkpt lat="46.10917" lon="4.41733">
        <ele>781.4</ele>
        <time>2025-09-28T12:20:17Z</time>
      </trkpt>
      <trkpt lat="46.10921" lon="4.41739">
        <ele>781.4</ele>
        <time>2025-09-28T12:20:18Z</time>
      </trkpt>
      <trkpt lat="46.10924" lon="4.41746">
        <ele>781.4</ele>
        <time>2025-09-28T12:20:19Z</time>
      </trkpt>
      <trkpt lat="46.10927" lon="4.41752">
        <ele>781.4</ele>
        <time>2025-09-28T12:20:20Z</time>
      </trkpt>
      <trkpt lat="46.10929" lon="4.41756">
        <ele>781.4</ele>
        <time>2025-09-28T12:20:21Z</time>
      </trkpt>
      <trkpt lat="46.10931" lon="4.4176">
        <ele>781.4</ele>
        <time>2025-09-28T12:20:22Z</time>
      </trkpt>
      <trkpt lat="46.10933" lon="4.41763">
        <ele>781.4</ele>
        <time>2025-09-28T12:20:23Z</time>
      </trkpt>
      <trkpt lat="46.10936" lon="4.41767">
        <ele>780.8</ele>
        <time>2025-09-28T12:20:24Z</time>
      </trkpt>
      <trkpt lat="46.10939" lon="4.41772">
        <ele>780.4</ele>
        <time>2025-09-28T12:20:25Z</time>
      </trkpt>
      <trkpt lat="46.10941" lon="4.41778">
        <ele>780.2</ele>
        <time>2025-09-28T12:20:26Z</time>
      </trkpt>
      <trkpt lat="46.10944" lon="4.41784">
        <ele>779.8</ele>
        <time>2025-09-28T12:20:27Z</time>
      </trkpt>
      <trkpt lat="46.10947" lon="4.41791">
        <ele>779.6</ele>
        <time>2025-09-28T12:20:28Z</time>
      </trkpt>
      <trkpt lat="46.10949" lon="4.41798">
        <ele>779</ele>
        <time>2025-09-28T12:20:29Z</time>
      </trkpt>
      <trkpt lat="46.10951" lon="4.41806">
        <ele>778.6</ele>
        <time>2025-09-28T12:20:30Z</time>
      </trkpt>
      <trkpt lat="46.10953" lon="4.41816">
        <ele>777.6</ele>
        <time>2025-09-28T12:20:31Z</time>
      </trkpt>
      <trkpt lat="46.10954" lon="4.41826">
        <ele>777</ele>
        <time>2025-09-28T12:20:32Z</time>
      </trkpt>
      <trkpt lat="46.10954" lon="4.41837">
        <ele>776.2</ele>
        <time>2025-09-28T12:20:33Z</time>
      </trkpt>
      <trkpt lat="46.10954" lon="4.41848">
        <ele>775.2</ele>
        <time>2025-09-28T12:20:34Z</time>
      </trkpt>
      <trkpt lat="46.10953" lon="4.41861">
        <ele>774.2</ele>
        <time>2025-09-28T12:20:35Z</time>
      </trkpt>
      <trkpt lat="46.10953" lon="4.41873">
        <ele>775</ele>
        <time>2025-09-28T12:20:36Z</time>
      </trkpt>
      <trkpt lat="46.10952" lon="4.41885">
        <ele>774</ele>
        <time>2025-09-28T12:20:37Z</time>
      </trkpt>
      <trkpt lat="46.10953" lon="4.41897">
        <ele>773.8</ele>
        <time>2025-09-28T12:20:38Z</time>
      </trkpt>
      <trkpt lat="46.10954" lon="4.41907">
        <ele>773.8</ele>
        <time>2025-09-28T12:20:39Z</time>
      </trkpt>
      <trkpt lat="46.10955" lon="4.41917">
        <ele>773.4</ele>
        <time>2025-09-28T12:20:40Z</time>
      </trkpt>
      <trkpt lat="46.10956" lon="4.41926">
        <ele>773.4</ele>
        <time>2025-09-28T12:20:41Z</time>
      </trkpt>
      <trkpt lat="46.10958" lon="4.41935">
        <ele>773.6</ele>
        <time>2025-09-28T12:20:42Z</time>
      </trkpt>
      <trkpt lat="46.1096" lon="4.41944">
        <ele>774</ele>
        <time>2025-09-28T12:20:43Z</time>
      </trkpt>
      <trkpt lat="46.10962" lon="4.41951">
        <ele>774</ele>
        <time>2025-09-28T12:20:44Z</time>
      </trkpt>
      <trkpt lat="46.10964" lon="4.41959">
        <ele>774.6</ele>
        <time>2025-09-28T12:20:45Z</time>
      </trkpt>
      <trkpt lat="46.10967" lon="4.41966">
        <ele>774.6</ele>
        <time>2025-09-28T12:20:46Z</time>
      </trkpt>
      <trkpt lat="46.1097" lon="4.41973">
        <ele>773.8</ele>
        <time>2025-09-28T12:20:47Z</time>
      </trkpt>
      <trkpt lat="46.10972" lon="4.4198">
        <ele>773.8</ele>
        <time>2025-09-28T12:20:48Z</time>
      </trkpt>
      <trkpt lat="46.10974" lon="4.41988">
        <ele>773.8</ele>
        <time>2025-09-28T12:20:49Z</time>
      </trkpt>
      <trkpt lat="46.10978" lon="4.41993">
        <ele>774.2</ele>
        <time>2025-09-28T12:20:50Z</time>
      </trkpt>
      <trkpt lat="46.1098" lon="4.41999">
        <ele>774.4</ele>
        <time>2025-09-28T12:20:51Z</time>
      </trkpt>
      <trkpt lat="46.10984" lon="4.42006">
        <ele>774.4</ele>
        <time>2025-09-28T12:20:52Z</time>
      </trkpt>
      <trkpt lat="46.1099" lon="4.42011">
        <ele>774.4</ele>
        <time>2025-09-28T12:20:53Z</time>
      </trkpt>
      <trkpt lat="46.10995" lon="4.42017">
        <ele>774.4</ele>
        <time>2025-09-28T12:20:54Z</time>
      </trkpt>
      <trkpt lat="46.11" lon="4.42022">
        <ele>774.4</ele>
        <time>2025-09-28T12:20:55Z</time>
      </trkpt>
      <trkpt lat="46.11005" lon="4.42027">
        <ele>774.4</ele>
        <time>2025-09-28T12:20:56Z</time>
      </trkpt>
      <trkpt lat="46.11009" lon="4.42031">
        <ele>774.4</ele>
        <time>2025-09-28T12:20:57Z</time>
      </trkpt>
      <trkpt lat="46.11014" lon="4.42035">
        <ele>774.4</ele>
        <time>2025-09-28T12:20:58Z</time>
      </trkpt>
      <trkpt lat="46.11018" lon="4.4204">
        <ele>774.4</ele>
        <time>2025-09-28T12:20:59Z</time>
      </trkpt>
      <trkpt lat="46.11023" lon="4.42043">
        <ele>774.4</ele>
        <time>2025-09-28T12:21:00Z</time>
      </trkpt>
      <trkpt lat="46.11029" lon="4.42049">
        <ele>774.2</ele>
        <time>2025-09-28T12:21:01Z</time>
      </trkpt>
      <trkpt lat="46.11034" lon="4.42052">
        <ele>774.2</ele>
        <time>2025-09-28T12:21:02Z</time>
      </trkpt>
      <trkpt lat="46.1104" lon="4.42057">
        <ele>773.8</ele>
        <time>2025-09-28T12:21:03Z</time>
      </trkpt>
      <trkpt lat="46.11045" lon="4.42059">
        <ele>773.8</ele>
        <time>2025-09-28T12:21:04Z</time>
      </trkpt>
      <trkpt lat="46.1105" lon="4.42062">
        <ele>773.8</ele>
        <time>2025-09-28T12:21:05Z</time>
      </trkpt>
      <trkpt lat="46.11055" lon="4.42065">
        <ele>773.8</ele>
        <time>2025-09-28T12:21:06Z</time>
      </trkpt>
      <trkpt lat="46.1106" lon="4.42069">
        <ele>773.8</ele>
        <time>2025-09-28T12:21:07Z</time>
      </trkpt>
      <trkpt lat="46.11065" lon="4.42072">
        <ele>773.6</ele>
        <time>2025-09-28T12:21:08Z</time>
      </trkpt>
      <trkpt lat="46.1107" lon="4.42075">
        <ele>773.2</ele>
        <time>2025-09-28T12:21:09Z</time>
      </trkpt>
      <trkpt lat="46.11075" lon="4.42078">
        <ele>773</ele>
        <time>2025-09-28T12:21:10Z</time>
      </trkpt>
      <trkpt lat="46.1108" lon="4.42082">
        <ele>772.4</ele>
        <time>2025-09-28T12:21:11Z</time>
      </trkpt>
      <trkpt lat="46.11086" lon="4.42086">
        <ele>772</ele>
        <time>2025-09-28T12:21:12Z</time>
      </trkpt>
      <trkpt lat="46.11091" lon="4.4209">
        <ele>771.4</ele>
        <time>2025-09-28T12:21:13Z</time>
      </trkpt>
      <trkpt lat="46.11096" lon="4.42095">
        <ele>771.2</ele>
        <time>2025-09-28T12:21:14Z</time>
      </trkpt>
      <trkpt lat="46.111" lon="4.42101">
        <ele>770.6</ele>
        <time>2025-09-28T12:21:15Z</time>
      </trkpt>
      <trkpt lat="46.11103" lon="4.42106">
        <ele>770.2</ele>
        <time>2025-09-28T12:21:16Z</time>
      </trkpt>
      <trkpt lat="46.11106" lon="4.4211">
        <ele>769.8</ele>
        <time>2025-09-28T12:21:17Z</time>
      </trkpt>
      <trkpt lat="46.11108" lon="4.42112">
        <ele>769.2</ele>
        <time>2025-09-28T12:21:18Z</time>
      </trkpt>
      <trkpt lat="46.11109" lon="4.42113">
        <ele>768.8</ele>
        <time>2025-09-28T12:21:19Z</time>
      </trkpt>
      <trkpt lat="46.1111" lon="4.42114">
        <ele>768.8</ele>
        <time>2025-09-28T12:21:20Z</time>
      </trkpt>
      <trkpt lat="46.1111" lon="4.42114">
        <ele>768.6</ele>
        <time>2025-09-28T12:21:21Z</time>
      </trkpt>
      <trkpt lat="46.1111" lon="4.42114">
        <ele>768.4</ele>
        <time>2025-09-28T12:21:22Z</time>
      </trkpt>
      <trkpt lat="46.1111" lon="4.42113">
        <ele>768.4</ele>
        <time>2025-09-28T12:21:23Z</time>
      </trkpt>
      <trkpt lat="46.11111" lon="4.42121">
        <ele>767.4</ele>
        <time>2025-09-28T12:22:00Z</time>
      </trkpt>
      <trkpt lat="46.1111" lon="4.42127">
        <ele>767</ele>
        <time>2025-09-28T12:22:01Z</time>
      </trkpt>
      <trkpt lat="46.1111" lon="4.42132">
        <ele>766.8</ele>
        <time>2025-09-28T12:22:02Z</time>
      </trkpt>
      <trkpt lat="46.11109" lon="4.42141">
        <ele>766.2</ele>
        <time>2025-09-28T12:22:03Z</time>
      </trkpt>
      <trkpt lat="46.11109" lon="4.42148">
        <ele>765.6</ele>
        <time>2025-09-28T12:22:04Z</time>
      </trkpt>
      <trkpt lat="46.11109" lon="4.42155">
        <ele>765.2</ele>
        <time>2025-09-28T12:22:05Z</time>
      </trkpt>
      <trkpt lat="46.11111" lon="4.42163">
        <ele>764.4</ele>
        <time>2025-09-28T12:22:06Z</time>
      </trkpt>
      <trkpt lat="46.11112" lon="4.42171">
        <ele>763.8</ele>
        <time>2025-09-28T12:22:07Z</time>
      </trkpt>
      <trkpt lat="46.11115" lon="4.42179">
        <ele>763.4</ele>
        <time>2025-09-28T12:22:08Z</time>
      </trkpt>
      <trkpt lat="46.11119" lon="4.42186">
        <ele>763</ele>
        <time>2025-09-28T12:22:09Z</time>
      </trkpt>
      <trkpt lat="46.11123" lon="4.42193">
        <ele>762.6</ele>
        <time>2025-09-28T12:22:10Z</time>
      </trkpt>
      <trkpt lat="46.11128" lon="4.42199">
        <ele>762</ele>
        <time>2025-09-28T12:22:11Z</time>
      </trkpt>
      <trkpt lat="46.11133" lon="4.42206">
        <ele>762</ele>
        <time>2025-09-28T12:22:12Z</time>
      </trkpt>
      <trkpt lat="46.11139" lon="4.42211">
        <ele>761.4</ele>
        <time>2025-09-28T12:22:13Z</time>
      </trkpt>
      <trkpt lat="46.11145" lon="4.42216">
        <ele>761.4</ele>
        <time>2025-09-28T12:22:14Z</time>
      </trkpt>
      <trkpt lat="46.11151" lon="4.42218">
        <ele>760.6</ele>
        <time>2025-09-28T12:22:15Z</time>
      </trkpt>
      <trkpt lat="46.11157" lon="4.42219">
        <ele>760.6</ele>
        <time>2025-09-28T12:22:16Z</time>
      </trkpt>
      <trkpt lat="46.11163" lon="4.42221">
        <ele>760.6</ele>
        <time>2025-09-28T12:22:17Z</time>
      </trkpt>
      <trkpt lat="46.1117" lon="4.42221">
        <ele>760.6</ele>
        <time>2025-09-28T12:22:18Z</time>
      </trkpt>
      <trkpt lat="46.11175" lon="4.42221">
        <ele>760.8</ele>
        <time>2025-09-28T12:22:19Z</time>
      </trkpt>
      <trkpt lat="46.1118" lon="4.42219">
        <ele>760.8</ele>
        <time>2025-09-28T12:22:20Z</time>
      </trkpt>
      <trkpt lat="46.11186" lon="4.42219">
        <ele>760.8</ele>
        <time>2025-09-28T12:22:21Z</time>
      </trkpt>
      <trkpt lat="46.1119" lon="4.42218">
        <ele>761.2</ele>
        <time>2025-09-28T12:22:22Z</time>
      </trkpt>
      <trkpt lat="46.11195" lon="4.42217">
        <ele>761.2</ele>
        <time>2025-09-28T12:22:23Z</time>
      </trkpt>
      <trkpt lat="46.11199" lon="4.42216">
        <ele>761.2</ele>
        <time>2025-09-28T12:22:24Z</time>
      </trkpt>
      <trkpt lat="46.11204" lon="4.42216">
        <ele>761.6</ele>
        <time>2025-09-28T12:22:25Z</time>
      </trkpt>
      <trkpt lat="46.11209" lon="4.42214">
        <ele>761.6</ele>
        <time>2025-09-28T12:22:26Z</time>
      </trkpt>
      <trkpt lat="46.11214" lon="4.42214">
        <ele>761.6</ele>
        <time>2025-09-28T12:22:27Z</time>
      </trkpt>
      <trkpt lat="46.11219" lon="4.42213">
        <ele>761.6</ele>
        <time>2025-09-28T12:22:28Z</time>
      </trkpt>
      <trkpt lat="46.11224" lon="4.42212">
        <ele>761.6</ele>
        <time>2025-09-28T12:22:29Z</time>
      </trkpt>
      <trkpt lat="46.11229" lon="4.4221">
        <ele>761.6</ele>
        <time>2025-09-28T12:22:30Z</time>
      </trkpt>
      <trkpt lat="46.11234" lon="4.42209">
        <ele>762.2</ele>
        <time>2025-09-28T12:22:31Z</time>
      </trkpt>
      <trkpt lat="46.11238" lon="4.42208">
        <ele>762.2</ele>
        <time>2025-09-28T12:22:32Z</time>
      </trkpt>
      <trkpt lat="46.11242" lon="4.42207">
        <ele>762.2</ele>
        <time>2025-09-28T12:22:33Z</time>
      </trkpt>
      <trkpt lat="46.11246" lon="4.42207">
        <ele>762.4</ele>
        <time>2025-09-28T12:22:34Z</time>
      </trkpt>
      <trkpt lat="46.1125" lon="4.42205">
        <ele>762.4</ele>
        <time>2025-09-28T12:22:35Z</time>
      </trkpt>
      <trkpt lat="46.11255" lon="4.42204">
        <ele>762.4</ele>
        <time>2025-09-28T12:22:36Z</time>
      </trkpt>
      <trkpt lat="46.11258" lon="4.42201">
        <ele>762.6</ele>
        <time>2025-09-28T12:22:37Z</time>
      </trkpt>
      <trkpt lat="46.11262" lon="4.42199">
        <ele>762.6</ele>
        <time>2025-09-28T12:22:38Z</time>
      </trkpt>
      <trkpt lat="46.11266" lon="4.42195">
        <ele>762.6</ele>
        <time>2025-09-28T12:22:39Z</time>
      </trkpt>
      <trkpt lat="46.1127" lon="4.42192">
        <ele>762.6</ele>
        <time>2025-09-28T12:22:40Z</time>
      </trkpt>
      <trkpt lat="46.11274" lon="4.42189">
        <ele>762.6</ele>
        <time>2025-09-28T12:22:41Z</time>
      </trkpt>
      <trkpt lat="46.11279" lon="4.42184">
        <ele>762.4</ele>
        <time>2025-09-28T12:22:42Z</time>
      </trkpt>
      <trkpt lat="46.11283" lon="4.42181">
        <ele>762</ele>
        <time>2025-09-28T12:22:43Z</time>
      </trkpt>
      <trkpt lat="46.11288" lon="4.42178">
        <ele>761.2</ele>
        <time>2025-09-28T12:22:44Z</time>
      </trkpt>
      <trkpt lat="46.11293" lon="4.42175">
        <ele>761.2</ele>
        <time>2025-09-28T12:22:45Z</time>
      </trkpt>
      <trkpt lat="46.11298" lon="4.42174">
        <ele>761.8</ele>
        <time>2025-09-28T12:22:46Z</time>
      </trkpt>
      <trkpt lat="46.11304" lon="4.42173">
        <ele>762.6</ele>
        <time>2025-09-28T12:22:47Z</time>
      </trkpt>
      <trkpt lat="46.11308" lon="4.42172">
        <ele>762.6</ele>
        <time>2025-09-28T12:22:48Z</time>
      </trkpt>
      <trkpt lat="46.11314" lon="4.4217">
        <ele>762.2</ele>
        <time>2025-09-28T12:22:49Z</time>
      </trkpt>
      <trkpt lat="46.11318" lon="4.4217">
        <ele>762.6</ele>
        <time>2025-09-28T12:22:50Z</time>
      </trkpt>
      <trkpt lat="46.11324" lon="4.42168">
        <ele>762.2</ele>
        <time>2025-09-28T12:22:51Z</time>
      </trkpt>
      <trkpt lat="46.11328" lon="4.42167">
        <ele>762.2</ele>
        <time>2025-09-28T12:22:52Z</time>
      </trkpt>
      <trkpt lat="46.11333" lon="4.42165">
        <ele>762.2</ele>
        <time>2025-09-28T12:22:53Z</time>
      </trkpt>
      <trkpt lat="46.11338" lon="4.42164">
        <ele>762</ele>
        <time>2025-09-28T12:22:54Z</time>
      </trkpt>
      <trkpt lat="46.11345" lon="4.42163">
        <ele>762.2</ele>
        <time>2025-09-28T12:22:55Z</time>
      </trkpt>
      <trkpt lat="46.1135" lon="4.4216">
        <ele>762.2</ele>
        <time>2025-09-28T12:22:56Z</time>
      </trkpt>
      <trkpt lat="46.11354" lon="4.42158">
        <ele>762.2</ele>
        <time>2025-09-28T12:22:57Z</time>
      </trkpt>
      <trkpt lat="46.1136" lon="4.42156">
        <ele>762.2</ele>
        <time>2025-09-28T12:22:58Z</time>
      </trkpt>
      <trkpt lat="46.11365" lon="4.42155">
        <ele>761.8</ele>
        <time>2025-09-28T12:22:59Z</time>
      </trkpt>
      <trkpt lat="46.11371" lon="4.42153">
        <ele>761.8</ele>
        <time>2025-09-28T12:23:00Z</time>
      </trkpt>
      <trkpt lat="46.11377" lon="4.42151">
        <ele>761.8</ele>
        <time>2025-09-28T12:23:01Z</time>
      </trkpt>
      <trkpt lat="46.11383" lon="4.42149">
        <ele>762.4</ele>
        <time>2025-09-28T12:23:02Z</time>
      </trkpt>
      <trkpt lat="46.11388" lon="4.42147">
        <ele>762</ele>
        <time>2025-09-28T12:23:03Z</time>
      </trkpt>
      <trkpt lat="46.11395" lon="4.42146">
        <ele>761.4</ele>
        <time>2025-09-28T12:23:04Z</time>
      </trkpt>
      <trkpt lat="46.114" lon="4.42146">
        <ele>761.2</ele>
        <time>2025-09-28T12:23:05Z</time>
      </trkpt>
      <trkpt lat="46.11407" lon="4.42148">
        <ele>760.8</ele>
        <time>2025-09-28T12:23:06Z</time>
      </trkpt>
      <trkpt lat="46.11412" lon="4.4215">
        <ele>761.2</ele>
        <time>2025-09-28T12:23:07Z</time>
      </trkpt>
      <trkpt lat="46.11418" lon="4.42151">
        <ele>761.2</ele>
        <time>2025-09-28T12:23:08Z</time>
      </trkpt>
      <trkpt lat="46.11424" lon="4.42154">
        <ele>759.8</ele>
        <time>2025-09-28T12:23:09Z</time>
      </trkpt>
      <trkpt lat="46.11429" lon="4.42156">
        <ele>759.8</ele>
        <time>2025-09-28T12:23:10Z</time>
      </trkpt>
      <trkpt lat="46.11435" lon="4.42159">
        <ele>759.8</ele>
        <time>2025-09-28T12:23:11Z</time>
      </trkpt>
      <trkpt lat="46.1144" lon="4.42161">
        <ele>759.8</ele>
        <time>2025-09-28T12:23:12Z</time>
      </trkpt>
      <trkpt lat="46.11446" lon="4.42163">
        <ele>759.8</ele>
        <time>2025-09-28T12:23:13Z</time>
      </trkpt>
      <trkpt lat="46.11451" lon="4.42165">
        <ele>760.2</ele>
        <time>2025-09-28T12:23:14Z</time>
      </trkpt>
      <trkpt lat="46.11458" lon="4.42169">
        <ele>759.8</ele>
        <time>2025-09-28T12:23:15Z</time>
      </trkpt>
      <trkpt lat="46.11462" lon="4.42172">
        <ele>759.8</ele>
        <time>2025-09-28T12:23:16Z</time>
      </trkpt>
      <trkpt lat="46.11466" lon="4.42176">
        <ele>759.2</ele>
        <time>2025-09-28T12:23:17Z</time>
      </trkpt>
      <trkpt lat="46.11472" lon="4.42179">
        <ele>758.8</ele>
        <time>2025-09-28T12:23:18Z</time>
      </trkpt>
      <trkpt lat="46.11477" lon="4.42183">
        <ele>759.4</ele>
        <time>2025-09-28T12:23:19Z</time>
      </trkpt>
      <trkpt lat="46.11481" lon="4.42185">
        <ele>759</ele>
        <time>2025-09-28T12:23:20Z</time>
      </trkpt>
      <trkpt lat="46.11487" lon="4.42188">
        <ele>758.2</ele>
        <time>2025-09-28T12:23:21Z</time>
      </trkpt>
      <trkpt lat="46.11493" lon="4.42191">
        <ele>758.2</ele>
        <time>2025-09-28T12:23:22Z</time>
      </trkpt>
      <trkpt lat="46.11498" lon="4.42193">
        <ele>757.8</ele>
        <time>2025-09-28T12:23:23Z</time>
      </trkpt>
      <trkpt lat="46.11503" lon="4.42198">
        <ele>757.4</ele>
        <time>2025-09-28T12:23:24Z</time>
      </trkpt>
      <trkpt lat="46.1151" lon="4.422">
        <ele>757.4</ele>
        <time>2025-09-28T12:23:25Z</time>
      </trkpt>
      <trkpt lat="46.11515" lon="4.42204">
        <ele>757.4</ele>
        <time>2025-09-28T12:23:26Z</time>
      </trkpt>
      <trkpt lat="46.1152" lon="4.42207">
        <ele>757.4</ele>
        <time>2025-09-28T12:23:27Z</time>
      </trkpt>
      <trkpt lat="46.11526" lon="4.4221">
        <ele>757.4</ele>
        <time>2025-09-28T12:23:28Z</time>
      </trkpt>
      <trkpt lat="46.11533" lon="4.42212">
        <ele>757.4</ele>
        <time>2025-09-28T12:23:29Z</time>
      </trkpt>
      <trkpt lat="46.11539" lon="4.42215">
        <ele>757.4</ele>
        <time>2025-09-28T12:23:30Z</time>
      </trkpt>
      <trkpt lat="46.11544" lon="4.42214">
        <ele>756.8</ele>
        <time>2025-09-28T12:23:31Z</time>
      </trkpt>
      <trkpt lat="46.11549" lon="4.42216">
        <ele>756</ele>
        <time>2025-09-28T12:23:32Z</time>
      </trkpt>
      <trkpt lat="46.11552" lon="4.42217">
        <ele>756</ele>
        <time>2025-09-28T12:23:33Z</time>
      </trkpt>
      <trkpt lat="46.11553" lon="4.42216">
        <ele>756</ele>
        <time>2025-09-28T12:23:34Z</time>
      </trkpt>
      <trkpt lat="46.11565" lon="4.42225">
        <ele>756</ele>
        <time>2025-09-28T12:23:35Z</time>
      </trkpt>
      <trkpt lat="46.11572" lon="4.4223">
        <ele>755.8</ele>
        <time>2025-09-28T12:23:36Z</time>
      </trkpt>
      <trkpt lat="46.11578" lon="4.42232">
        <ele>755.4</ele>
        <time>2025-09-28T12:23:37Z</time>
      </trkpt>
      <trkpt lat="46.11584" lon="4.42235">
        <ele>755.8</ele>
        <time>2025-09-28T12:23:38Z</time>
      </trkpt>
      <trkpt lat="46.11588" lon="4.42238">
        <ele>755.8</ele>
        <time>2025-09-28T12:23:39Z</time>
      </trkpt>
      <trkpt lat="46.11596" lon="4.42242">
        <ele>756.6</ele>
        <time>2025-09-28T12:23:40Z</time>
      </trkpt>
      <trkpt lat="46.11602" lon="4.42245">
        <ele>756.2</ele>
        <time>2025-09-28T12:23:41Z</time>
      </trkpt>
      <trkpt lat="46.11608" lon="4.42248">
        <ele>755</ele>
        <time>2025-09-28T12:23:42Z</time>
      </trkpt>
      <trkpt lat="46.11613" lon="4.42251">
        <ele>755</ele>
        <time>2025-09-28T12:23:43Z</time>
      </trkpt>
      <trkpt lat="46.1162" lon="4.42252">
        <ele>755</ele>
        <time>2025-09-28T12:23:44Z</time>
      </trkpt>
      <trkpt lat="46.11626" lon="4.42255">
        <ele>755</ele>
        <time>2025-09-28T12:23:45Z</time>
      </trkpt>
      <trkpt lat="46.11632" lon="4.42257">
        <ele>755</ele>
        <time>2025-09-28T12:23:46Z</time>
      </trkpt>
      <trkpt lat="46.11638" lon="4.4226">
        <ele>755</ele>
        <time>2025-09-28T12:23:47Z</time>
      </trkpt>
      <trkpt lat="46.11643" lon="4.42262">
        <ele>755</ele>
        <time>2025-09-28T12:23:48Z</time>
      </trkpt>
      <trkpt lat="46.11649" lon="4.42266">
        <ele>755.4</ele>
        <time>2025-09-28T12:23:49Z</time>
      </trkpt>
      <trkpt lat="46.11653" lon="4.42266">
        <ele>755.6</ele>
        <time>2025-09-28T12:23:50Z</time>
      </trkpt>
      <trkpt lat="46.11659" lon="4.4227">
        <ele>755</ele>
        <time>2025-09-28T12:23:51Z</time>
      </trkpt>
      <trkpt lat="46.11663" lon="4.42274">
        <ele>754.8</ele>
        <time>2025-09-28T12:23:52Z</time>
      </trkpt>
      <trkpt lat="46.11667" lon="4.42278">
        <ele>754.8</ele>
        <time>2025-09-28T12:23:53Z</time>
      </trkpt>
      <trkpt lat="46.11671" lon="4.42281">
        <ele>755</ele>
        <time>2025-09-28T12:23:54Z</time>
      </trkpt>
      <trkpt lat="46.11675" lon="4.42286">
        <ele>755.4</ele>
        <time>2025-09-28T12:23:55Z</time>
      </trkpt>
      <trkpt lat="46.11679" lon="4.42289">
        <ele>755.4</ele>
        <time>2025-09-28T12:23:56Z</time>
      </trkpt>
      <trkpt lat="46.11683" lon="4.42294">
        <ele>755.8</ele>
        <time>2025-09-28T12:23:57Z</time>
      </trkpt>
      <trkpt lat="46.11686" lon="4.42297">
        <ele>755.8</ele>
        <time>2025-09-28T12:23:58Z</time>
      </trkpt>
      <trkpt lat="46.11689" lon="4.42301">
        <ele>756</ele>
        <time>2025-09-28T12:23:59Z</time>
      </trkpt>
      <trkpt lat="46.11692" lon="4.42304">
        <ele>756</ele>
        <time>2025-09-28T12:24:00Z</time>
      </trkpt>
      <trkpt lat="46.11695" lon="4.42308">
        <ele>756.2</ele>
        <time>2025-09-28T12:24:01Z</time>
      </trkpt>
      <trkpt lat="46.11698" lon="4.4231">
        <ele>756.4</ele>
        <time>2025-09-28T12:24:02Z</time>
      </trkpt>
      <trkpt lat="46.11702" lon="4.42314">
        <ele>756.4</ele>
        <time>2025-09-28T12:24:03Z</time>
      </trkpt>
      <trkpt lat="46.11705" lon="4.42317">
        <ele>756.4</ele>
        <time>2025-09-28T12:24:04Z</time>
      </trkpt>
      <trkpt lat="46.11707" lon="4.4232">
        <ele>756.8</ele>
        <time>2025-09-28T12:24:05Z</time>
      </trkpt>
      <trkpt lat="46.11711" lon="4.42324">
        <ele>756.8</ele>
        <time>2025-09-28T12:24:06Z</time>
      </trkpt>
      <trkpt lat="46.11714" lon="4.42328">
        <ele>756.8</ele>
        <time>2025-09-28T12:24:07Z</time>
      </trkpt>
      <trkpt lat="46.11717" lon="4.42332">
        <ele>757</ele>
        <time>2025-09-28T12:24:08Z</time>
      </trkpt>
      <trkpt lat="46.11721" lon="4.42335">
        <ele>757</ele>
        <time>2025-09-28T12:24:09Z</time>
      </trkpt>
      <trkpt lat="46.11725" lon="4.42338">
        <ele>757</ele>
        <time>2025-09-28T12:24:10Z</time>
      </trkpt>
      <trkpt lat="46.11729" lon="4.42341">
        <ele>757</ele>
        <time>2025-09-28T12:24:11Z</time>
      </trkpt>
      <trkpt lat="46.11734" lon="4.42341">
        <ele>757</ele>
        <time>2025-09-28T12:24:12Z</time>
      </trkpt>
      <trkpt lat="46.11738" lon="4.42343">
        <ele>757.2</ele>
        <time>2025-09-28T12:24:13Z</time>
      </trkpt>
      <trkpt lat="46.11742" lon="4.42342">
        <ele>757.2</ele>
        <time>2025-09-28T12:24:14Z</time>
      </trkpt>
      <trkpt lat="46.11745" lon="4.42342">
        <ele>757.6</ele>
        <time>2025-09-28T12:24:15Z</time>
      </trkpt>
      <trkpt lat="46.11747" lon="4.42342">
        <ele>757.6</ele>
        <time>2025-09-28T12:24:16Z</time>
      </trkpt>
      <trkpt lat="46.11749" lon="4.42342">
        <ele>758</ele>
        <time>2025-09-28T12:24:17Z</time>
      </trkpt>
      <trkpt lat="46.11751" lon="4.42341">
        <ele>758</ele>
        <time>2025-09-28T12:24:18Z</time>
      </trkpt>
      <trkpt lat="46.11754" lon="4.4234">
        <ele>758.2</ele>
        <time>2025-09-28T12:24:19Z</time>
      </trkpt>
      <trkpt lat="46.11757" lon="4.42338">
        <ele>758.4</ele>
        <time>2025-09-28T12:24:20Z</time>
      </trkpt>
      <trkpt lat="46.11759" lon="4.42338">
        <ele>759</ele>
        <time>2025-09-28T12:24:21Z</time>
      </trkpt>
      <trkpt lat="46.11762" lon="4.42337">
        <ele>759</ele>
        <time>2025-09-28T12:24:22Z</time>
      </trkpt>
      <trkpt lat="46.11764" lon="4.42336">
        <ele>758.8</ele>
        <time>2025-09-28T12:24:23Z</time>
      </trkpt>
      <trkpt lat="46.11768" lon="4.42334">
        <ele>759</ele>
        <time>2025-09-28T12:24:24Z</time>
      </trkpt>
      <trkpt lat="46.1177" lon="4.42332">
        <ele>759</ele>
        <time>2025-09-28T12:24:25Z</time>
      </trkpt>
      <trkpt lat="46.11773" lon="4.4233">
        <ele>759</ele>
        <time>2025-09-28T12:24:26Z</time>
      </trkpt>
      <trkpt lat="46.11776" lon="4.42328">
        <ele>759.2</ele>
        <time>2025-09-28T12:24:27Z</time>
      </trkpt>
      <trkpt lat="46.11778" lon="4.42326">
        <ele>759.6</ele>
        <time>2025-09-28T12:24:28Z</time>
      </trkpt>
      <trkpt lat="46.11781" lon="4.42323">
        <ele>759.8</ele>
        <time>2025-09-28T12:24:29Z</time>
      </trkpt>
      <trkpt lat="46.11784" lon="4.42321">
        <ele>759.8</ele>
        <time>2025-09-28T12:24:30Z</time>
      </trkpt>
      <trkpt lat="46.11787" lon="4.42318">
        <ele>760.2</ele>
        <time>2025-09-28T12:24:31Z</time>
      </trkpt>
      <trkpt lat="46.11789" lon="4.42316">
        <ele>759.8</ele>
        <time>2025-09-28T12:24:32Z</time>
      </trkpt>
      <trkpt lat="46.11792" lon="4.42315">
        <ele>760.4</ele>
        <time>2025-09-28T12:24:33Z</time>
      </trkpt>
      <trkpt lat="46.11795" lon="4.42314">
        <ele>760.6</ele>
        <time>2025-09-28T12:24:34Z</time>
      </trkpt>
      <trkpt lat="46.11798" lon="4.42314">
        <ele>761</ele>
        <time>2025-09-28T12:24:35Z</time>
      </trkpt>
      <trkpt lat="46.11801" lon="4.42314">
        <ele>761</ele>
        <time>2025-09-28T12:24:36Z</time>
      </trkpt>
      <trkpt lat="46.11804" lon="4.42314">
        <ele>761.2</ele>
        <time>2025-09-28T12:24:37Z</time>
      </trkpt>
      <trkpt lat="46.11807" lon="4.42315">
        <ele>761.2</ele>
        <time>2025-09-28T12:24:38Z</time>
      </trkpt>
      <trkpt lat="46.1181" lon="4.42315">
        <ele>761.6</ele>
        <time>2025-09-28T12:24:39Z</time>
      </trkpt>
      <trkpt lat="46.11812" lon="4.42315">
        <ele>761.8</ele>
        <time>2025-09-28T12:24:40Z</time>
      </trkpt>
      <trkpt lat="46.11815" lon="4.42314">
        <ele>762.2</ele>
        <time>2025-09-28T12:24:41Z</time>
      </trkpt>
      <trkpt lat="46.11817" lon="4.42314">
        <ele>762.2</ele>
        <time>2025-09-28T12:24:42Z</time>
      </trkpt>
      <trkpt lat="46.1182" lon="4.42314">
        <ele>762.6</ele>
        <time>2025-09-28T12:24:43Z</time>
      </trkpt>
      <trkpt lat="46.11822" lon="4.42314">
        <ele>762.8</ele>
        <time>2025-09-28T12:24:44Z</time>
      </trkpt>
      <trkpt lat="46.11824" lon="4.42315">
        <ele>763.2</ele>
        <time>2025-09-28T12:24:45Z</time>
      </trkpt>
      <trkpt lat="46.11826" lon="4.42315">
        <ele>763.2</ele>
        <time>2025-09-28T12:24:46Z</time>
      </trkpt>
      <trkpt lat="46.11829" lon="4.42316">
        <ele>763.6</ele>
        <time>2025-09-28T12:24:47Z</time>
      </trkpt>
      <trkpt lat="46.11831" lon="4.42316">
        <ele>763.6</ele>
        <time>2025-09-28T12:24:48Z</time>
      </trkpt>
      <trkpt lat="46.11833" lon="4.42316">
        <ele>764</ele>
        <time>2025-09-28T12:24:49Z</time>
      </trkpt>
      <trkpt lat="46.11835" lon="4.42316">
        <ele>764</ele>
        <time>2025-09-28T12:24:50Z</time>
      </trkpt>
      <trkpt lat="46.11837" lon="4.42316">
        <ele>764.4</ele>
        <time>2025-09-28T12:24:51Z</time>
      </trkpt>
      <trkpt lat="46.11838" lon="4.42316">
        <ele>764.8</ele>
        <time>2025-09-28T12:24:52Z</time>
      </trkpt>
      <trkpt lat="46.1184" lon="4.42316">
        <ele>765</ele>
        <time>2025-09-28T12:24:53Z</time>
      </trkpt>
      <trkpt lat="46.11842" lon="4.42316">
        <ele>765</ele>
        <time>2025-09-28T12:24:54Z</time>
      </trkpt>
      <trkpt lat="46.11844" lon="4.42316">
        <ele>765.4</ele>
        <time>2025-09-28T12:24:55Z</time>
      </trkpt>
      <trkpt lat="46.11846" lon="4.42316">
        <ele>765.4</ele>
        <time>2025-09-28T12:24:56Z</time>
      </trkpt>
      <trkpt lat="46.11847" lon="4.42316">
        <ele>765.8</ele>
        <time>2025-09-28T12:24:57Z</time>
      </trkpt>
      <trkpt lat="46.11849" lon="4.42315">
        <ele>765.8</ele>
        <time>2025-09-28T12:24:58Z</time>
      </trkpt>
      <trkpt lat="46.11851" lon="4.42315">
        <ele>765.8</ele>
        <time>2025-09-28T12:24:59Z</time>
      </trkpt>
      <trkpt lat="46.11854" lon="4.42313">
        <ele>765.8</ele>
        <time>2025-09-28T12:25:00Z</time>
      </trkpt>
      <trkpt lat="46.11856" lon="4.42312">
        <ele>765.8</ele>
        <time>2025-09-28T12:25:01Z</time>
      </trkpt>
      <trkpt lat="46.11858" lon="4.4231">
        <ele>765.8</ele>
        <time>2025-09-28T12:25:02Z</time>
      </trkpt>
      <trkpt lat="46.11861" lon="4.42307">
        <ele>765.8</ele>
        <time>2025-09-28T12:25:03Z</time>
      </trkpt>
      <trkpt lat="46.11864" lon="4.42304">
        <ele>765.2</ele>
        <time>2025-09-28T12:25:04Z</time>
      </trkpt>
      <trkpt lat="46.11868" lon="4.42299">
        <ele>765</ele>
        <time>2025-09-28T12:25:05Z</time>
      </trkpt>
      <trkpt lat="46.11871" lon="4.42295">
        <ele>764.8</ele>
        <time>2025-09-28T12:25:06Z</time>
      </trkpt>
      <trkpt lat="46.11875" lon="4.42292">
        <ele>764.4</ele>
        <time>2025-09-28T12:25:07Z</time>
      </trkpt>
      <trkpt lat="46.11879" lon="4.42288">
        <ele>764.4</ele>
        <time>2025-09-28T12:25:08Z</time>
      </trkpt>
      <trkpt lat="46.11882" lon="4.42282">
        <ele>763.4</ele>
        <time>2025-09-28T12:25:09Z</time>
      </trkpt>
      <trkpt lat="46.11886" lon="4.42276">
        <ele>763.8</ele>
        <time>2025-09-28T12:25:10Z</time>
      </trkpt>
      <trkpt lat="46.11889" lon="4.42272">
        <ele>764.2</ele>
        <time>2025-09-28T12:25:11Z</time>
      </trkpt>
      <trkpt lat="46.11893" lon="4.42267">
        <ele>764</ele>
        <time>2025-09-28T12:25:12Z</time>
      </trkpt>
      <trkpt lat="46.11895" lon="4.42261">
        <ele>763.4</ele>
        <time>2025-09-28T12:25:13Z</time>
      </trkpt>
      <trkpt lat="46.11898" lon="4.42254">
        <ele>763.4</ele>
        <time>2025-09-28T12:25:14Z</time>
      </trkpt>
      <trkpt lat="46.11901" lon="4.42247">
        <ele>763.2</ele>
        <time>2025-09-28T12:25:15Z</time>
      </trkpt>
      <trkpt lat="46.11904" lon="4.4224">
        <ele>762.4</ele>
        <time>2025-09-28T12:25:16Z</time>
      </trkpt>
      <trkpt lat="46.11906" lon="4.42233">
        <ele>762.4</ele>
        <time>2025-09-28T12:25:17Z</time>
      </trkpt>
      <trkpt lat="46.11907" lon="4.42226">
        <ele>762.4</ele>
        <time>2025-09-28T12:25:18Z</time>
      </trkpt>
      <trkpt lat="46.11908" lon="4.42219">
        <ele>762.4</ele>
        <time>2025-09-28T12:25:19Z</time>
      </trkpt>
      <trkpt lat="46.11907" lon="4.4221">
        <ele>762.8</ele>
        <time>2025-09-28T12:25:20Z</time>
      </trkpt>
      <trkpt lat="46.11906" lon="4.42202">
        <ele>762.8</ele>
        <time>2025-09-28T12:25:21Z</time>
      </trkpt>
      <trkpt lat="46.11902" lon="4.42197">
        <ele>762.8</ele>
        <time>2025-09-28T12:25:22Z</time>
      </trkpt>
      <trkpt lat="46.11899" lon="4.4219">
        <ele>762.8</ele>
        <time>2025-09-28T12:25:23Z</time>
      </trkpt>
      <trkpt lat="46.11896" lon="4.42184">
        <ele>763</ele>
        <time>2025-09-28T12:25:24Z</time>
      </trkpt>
      <trkpt lat="46.11893" lon="4.42178">
        <ele>762.8</ele>
        <time>2025-09-28T12:25:25Z</time>
      </trkpt>
      <trkpt lat="46.11889" lon="4.42172">
        <ele>762.8</ele>
        <time>2025-09-28T12:25:26Z</time>
      </trkpt>
      <trkpt lat="46.11885" lon="4.42167">
        <ele>762.8</ele>
        <time>2025-09-28T12:25:27Z</time>
      </trkpt>
      <trkpt lat="46.11882" lon="4.42161">
        <ele>762.8</ele>
        <time>2025-09-28T12:25:28Z</time>
      </trkpt>
      <trkpt lat="46.1188" lon="4.42155">
        <ele>762.4</ele>
        <time>2025-09-28T12:25:29Z</time>
      </trkpt>
      <trkpt lat="46.11878" lon="4.4215">
        <ele>762.6</ele>
        <time>2025-09-28T12:25:30Z</time>
      </trkpt>
      <trkpt lat="46.11877" lon="4.42144">
        <ele>763</ele>
        <time>2025-09-28T12:25:31Z</time>
      </trkpt>
      <trkpt lat="46.11876" lon="4.42139">
        <ele>763.2</ele>
        <time>2025-09-28T12:25:32Z</time>
      </trkpt>
      <trkpt lat="46.11876" lon="4.42133">
        <ele>763.2</ele>
        <time>2025-09-28T12:25:33Z</time>
      </trkpt>
      <trkpt lat="46.11875" lon="4.42127">
        <ele>763.2</ele>
        <time>2025-09-28T12:25:34Z</time>
      </trkpt>
      <trkpt lat="46.11876" lon="4.42121">
        <ele>763.2</ele>
        <time>2025-09-28T12:25:35Z</time>
      </trkpt>
      <trkpt lat="46.11876" lon="4.42115">
        <ele>763.2</ele>
        <time>2025-09-28T12:25:36Z</time>
      </trkpt>
      <trkpt lat="46.11877" lon="4.42109">
        <ele>763.2</ele>
        <time>2025-09-28T12:25:37Z</time>
      </trkpt>
      <trkpt lat="46.11879" lon="4.42103">
        <ele>763.2</ele>
        <time>2025-09-28T12:25:38Z</time>
      </trkpt>
      <trkpt lat="46.11881" lon="4.42097">
        <ele>763.2</ele>
        <time>2025-09-28T12:25:39Z</time>
      </trkpt>
      <trkpt lat="46.11883" lon="4.42093">
        <ele>763.2</ele>
        <time>2025-09-28T12:25:40Z</time>
      </trkpt>
      <trkpt lat="46.11886" lon="4.42086">
        <ele>763.2</ele>
        <time>2025-09-28T12:25:41Z</time>
      </trkpt>
      <trkpt lat="46.11887" lon="4.4208">
        <ele>762.4</ele>
        <time>2025-09-28T12:25:42Z</time>
      </trkpt>
      <trkpt lat="46.11889" lon="4.42074">
        <ele>762.4</ele>
        <time>2025-09-28T12:25:43Z</time>
      </trkpt>
      <trkpt lat="46.11891" lon="4.42067">
        <ele>762.2</ele>
        <time>2025-09-28T12:25:44Z</time>
      </trkpt>
      <trkpt lat="46.11893" lon="4.4206">
        <ele>762.2</ele>
        <time>2025-09-28T12:25:45Z</time>
      </trkpt>
      <trkpt lat="46.11895" lon="4.42052">
        <ele>761.8</ele>
        <time>2025-09-28T12:25:46Z</time>
      </trkpt>
      <trkpt lat="46.11897" lon="4.42045">
        <ele>761.2</ele>
        <time>2025-09-28T12:25:47Z</time>
      </trkpt>
      <trkpt lat="46.119" lon="4.42036">
        <ele>761</ele>
        <time>2025-09-28T12:25:48Z</time>
      </trkpt>
      <trkpt lat="46.11902" lon="4.42026">
        <ele>760.8</ele>
        <time>2025-09-28T12:25:49Z</time>
      </trkpt>
      <trkpt lat="46.11904" lon="4.42017">
        <ele>760.2</ele>
        <time>2025-09-28T12:25:50Z</time>
      </trkpt>
      <trkpt lat="46.11907" lon="4.42007">
        <ele>760</ele>
        <time>2025-09-28T12:25:51Z</time>
      </trkpt>
      <trkpt lat="46.1191" lon="4.41997">
        <ele>760</ele>
        <time>2025-09-28T12:25:52Z</time>
      </trkpt>
      <trkpt lat="46.11912" lon="4.41987">
        <ele>759.6</ele>
        <time>2025-09-28T12:25:53Z</time>
      </trkpt>
      <trkpt lat="46.11915" lon="4.41977">
        <ele>759.2</ele>
        <time>2025-09-28T12:25:54Z</time>
      </trkpt>
      <trkpt lat="46.11917" lon="4.41968">
        <ele>759.2</ele>
        <time>2025-09-28T12:25:55Z</time>
      </trkpt>
      <trkpt lat="46.11918" lon="4.41959">
        <ele>758.6</ele>
        <time>2025-09-28T12:25:56Z</time>
      </trkpt>
      <trkpt lat="46.11919" lon="4.41949">
        <ele>758.4</ele>
        <time>2025-09-28T12:25:57Z</time>
      </trkpt>
      <trkpt lat="46.1192" lon="4.41939">
        <ele>758.4</ele>
        <time>2025-09-28T12:25:58Z</time>
      </trkpt>
      <trkpt lat="46.11922" lon="4.4193">
        <ele>757.8</ele>
        <time>2025-09-28T12:25:59Z</time>
      </trkpt>
      <trkpt lat="46.11923" lon="4.41921">
        <ele>757.8</ele>
        <time>2025-09-28T12:26:00Z</time>
      </trkpt>
      <trkpt lat="46.11924" lon="4.41911">
        <ele>757.8</ele>
        <time>2025-09-28T12:26:01Z</time>
      </trkpt>
      <trkpt lat="46.11926" lon="4.41902">
        <ele>757.2</ele>
        <time>2025-09-28T12:26:02Z</time>
      </trkpt>
      <trkpt lat="46.11928" lon="4.41893">
        <ele>756.6</ele>
        <time>2025-09-28T12:26:03Z</time>
      </trkpt>
      <trkpt lat="46.11929" lon="4.41883">
        <ele>756.6</ele>
        <time>2025-09-28T12:26:04Z</time>
      </trkpt>
      <trkpt lat="46.1193" lon="4.41874">
        <ele>756.6</ele>
        <time>2025-09-28T12:26:05Z</time>
      </trkpt>
      <trkpt lat="46.1193" lon="4.41865">
        <ele>756.4</ele>
        <time>2025-09-28T12:26:06Z</time>
      </trkpt>
      <trkpt lat="46.1193" lon="4.41855">
        <ele>756.4</ele>
        <time>2025-09-28T12:26:07Z</time>
      </trkpt>
      <trkpt lat="46.1193" lon="4.41845">
        <ele>756.2</ele>
        <time>2025-09-28T12:26:08Z</time>
      </trkpt>
      <trkpt lat="46.11928" lon="4.41835">
        <ele>756</ele>
        <time>2025-09-28T12:26:09Z</time>
      </trkpt>
      <trkpt lat="46.11927" lon="4.41825">
        <ele>755</ele>
        <time>2025-09-28T12:26:10Z</time>
      </trkpt>
      <trkpt lat="46.11925" lon="4.41814">
        <ele>754.4</ele>
        <time>2025-09-28T12:26:11Z</time>
      </trkpt>
      <trkpt lat="46.11923" lon="4.41804">
        <ele>754.4</ele>
        <time>2025-09-28T12:26:12Z</time>
      </trkpt>
      <trkpt lat="46.11921" lon="4.41793">
        <ele>754</ele>
        <time>2025-09-28T12:26:13Z</time>
      </trkpt>
      <trkpt lat="46.11917" lon="4.41783">
        <ele>753.6</ele>
        <time>2025-09-28T12:26:14Z</time>
      </trkpt>
      <trkpt lat="46.11915" lon="4.41774">
        <ele>752.8</ele>
        <time>2025-09-28T12:26:15Z</time>
      </trkpt>
      <trkpt lat="46.11911" lon="4.41761">
        <ele>752.8</ele>
        <time>2025-09-28T12:26:16Z</time>
      </trkpt>
      <trkpt lat="46.11909" lon="4.4175">
        <ele>752</ele>
        <time>2025-09-28T12:26:17Z</time>
      </trkpt>
      <trkpt lat="46.11905" lon="4.41741">
        <ele>751.6</ele>
        <time>2025-09-28T12:26:18Z</time>
      </trkpt>
      <trkpt lat="46.11902" lon="4.4173">
        <ele>750.8</ele>
        <time>2025-09-28T12:26:19Z</time>
      </trkpt>
      <trkpt lat="46.119" lon="4.41718">
        <ele>750</ele>
        <time>2025-09-28T12:26:20Z</time>
      </trkpt>
      <trkpt lat="46.11897" lon="4.41708">
        <ele>749.4</ele>
        <time>2025-09-28T12:26:21Z</time>
      </trkpt>
      <trkpt lat="46.11895" lon="4.41696">
        <ele>748.8</ele>
        <time>2025-09-28T12:26:22Z</time>
      </trkpt>
      <trkpt lat="46.11893" lon="4.41684">
        <ele>748.2</ele>
        <time>2025-09-28T12:26:23Z</time>
      </trkpt>
      <trkpt lat="46.11891" lon="4.41672">
        <ele>747.4</ele>
        <time>2025-09-28T12:26:24Z</time>
      </trkpt>
      <trkpt lat="46.1189" lon="4.4166">
        <ele>747</ele>
        <time>2025-09-28T12:26:25Z</time>
      </trkpt>
      <trkpt lat="46.11888" lon="4.41647">
        <ele>746.4</ele>
        <time>2025-09-28T12:26:26Z</time>
      </trkpt>
      <trkpt lat="46.11887" lon="4.41637">
        <ele>746.2</ele>
        <time>2025-09-28T12:26:27Z</time>
      </trkpt>
      <trkpt lat="46.11886" lon="4.41626">
        <ele>745.6</ele>
        <time>2025-09-28T12:26:28Z</time>
      </trkpt>
      <trkpt lat="46.11884" lon="4.41614">
        <ele>744.8</ele>
        <time>2025-09-28T12:26:29Z</time>
      </trkpt>
      <trkpt lat="46.11882" lon="4.41601">
        <ele>744.8</ele>
        <time>2025-09-28T12:26:30Z</time>
      </trkpt>
      <trkpt lat="46.11881" lon="4.41588">
        <ele>744.4</ele>
        <time>2025-09-28T12:26:31Z</time>
      </trkpt>
      <trkpt lat="46.11879" lon="4.41576">
        <ele>743.6</ele>
        <time>2025-09-28T12:26:32Z</time>
      </trkpt>
      <trkpt lat="46.11876" lon="4.41562">
        <ele>743.2</ele>
        <time>2025-09-28T12:26:33Z</time>
      </trkpt>
      <trkpt lat="46.11875" lon="4.41548">
        <ele>742.6</ele>
        <time>2025-09-28T12:26:34Z</time>
      </trkpt>
      <trkpt lat="46.11872" lon="4.41534">
        <ele>741</ele>
        <time>2025-09-28T12:26:35Z</time>
      </trkpt>
      <trkpt lat="46.1187" lon="4.41519">
        <ele>740</ele>
        <time>2025-09-28T12:26:36Z</time>
      </trkpt>
      <trkpt lat="46.11867" lon="4.41504">
        <ele>739.6</ele>
        <time>2025-09-28T12:26:37Z</time>
      </trkpt>
      <trkpt lat="46.11865" lon="4.4149">
        <ele>738.8</ele>
        <time>2025-09-28T12:26:38Z</time>
      </trkpt>
      <trkpt lat="46.11861" lon="4.41477">
        <ele>738.2</ele>
        <time>2025-09-28T12:26:39Z</time>
      </trkpt>
      <trkpt lat="46.11859" lon="4.41462">
        <ele>737.4</ele>
        <time>2025-09-28T12:26:40Z</time>
      </trkpt>
      <trkpt lat="46.11855" lon="4.41447">
        <ele>736.8</ele>
        <time>2025-09-28T12:26:41Z</time>
      </trkpt>
      <trkpt lat="46.11851" lon="4.41433">
        <ele>735.8</ele>
        <time>2025-09-28T12:26:42Z</time>
      </trkpt>
      <trkpt lat="46.11848" lon="4.41419">
        <ele>735.2</ele>
        <time>2025-09-28T12:26:43Z</time>
      </trkpt>
      <trkpt lat="46.11845" lon="4.41405">
        <ele>734.6</ele>
        <time>2025-09-28T12:26:44Z</time>
      </trkpt>
      <trkpt lat="46.11843" lon="4.41393">
        <ele>734</ele>
        <time>2025-09-28T12:26:45Z</time>
      </trkpt>
      <trkpt lat="46.11841" lon="4.41383">
        <ele>734</ele>
        <time>2025-09-28T12:26:46Z</time>
      </trkpt>
      <trkpt lat="46.11839" lon="4.41374">
        <ele>734</ele>
        <time>2025-09-28T12:26:47Z</time>
      </trkpt>
      <trkpt lat="46.11838" lon="4.41366">
        <ele>734</ele>
        <time>2025-09-28T12:26:48Z</time>
      </trkpt>
      <trkpt lat="46.11837" lon="4.41356">
        <ele>733.2</ele>
        <time>2025-09-28T12:26:49Z</time>
      </trkpt>
      <trkpt lat="46.11836" lon="4.41346">
        <ele>733</ele>
        <time>2025-09-28T12:26:50Z</time>
      </trkpt>
      <trkpt lat="46.11835" lon="4.41337">
        <ele>732.2</ele>
        <time>2025-09-28T12:26:51Z</time>
      </trkpt>
      <trkpt lat="46.11835" lon="4.41334">
        <ele>731.6</ele>
        <time>2025-09-28T12:26:52Z</time>
      </trkpt>
      <trkpt lat="46.11832" lon="4.4133">
        <ele>731</ele>
        <time>2025-09-28T12:26:53Z</time>
      </trkpt>
      <trkpt lat="46.11829" lon="4.41323">
        <ele>730.2</ele>
        <time>2025-09-28T12:26:54Z</time>
      </trkpt>
      <trkpt lat="46.11823" lon="4.41322">
        <ele>729.4</ele>
        <time>2025-09-28T12:26:55Z</time>
      </trkpt>
      <trkpt lat="46.11818" lon="4.41318">
        <ele>728.4</ele>
        <time>2025-09-28T12:26:56Z</time>
      </trkpt>
      <trkpt lat="46.11813" lon="4.41318">
        <ele>727.6</ele>
        <time>2025-09-28T12:26:57Z</time>
      </trkpt>
      <trkpt lat="46.11808" lon="4.41316">
        <ele>726.6</ele>
        <time>2025-09-28T12:26:58Z</time>
      </trkpt>
      <trkpt lat="46.11803" lon="4.41317">
        <ele>725.4</ele>
        <time>2025-09-28T12:26:59Z</time>
      </trkpt>
      <trkpt lat="46.11797" lon="4.41317">
        <ele>724.2</ele>
        <time>2025-09-28T12:27:00Z</time>
      </trkpt>
      <trkpt lat="46.11793" lon="4.41317">
        <ele>722.8</ele>
        <time>2025-09-28T12:27:01Z</time>
      </trkpt>
      <trkpt lat="46.11788" lon="4.41316">
        <ele>721.8</ele>
        <time>2025-09-28T12:27:02Z</time>
      </trkpt>
      <trkpt lat="46.11783" lon="4.41314">
        <ele>720.4</ele>
        <time>2025-09-28T12:27:03Z</time>
      </trkpt>
      <trkpt lat="46.11778" lon="4.41312">
        <ele>719.6</ele>
        <time>2025-09-28T12:27:04Z</time>
      </trkpt>
      <trkpt lat="46.11772" lon="4.4131">
        <ele>718.2</ele>
        <time>2025-09-28T12:27:05Z</time>
      </trkpt>
      <trkpt lat="46.11767" lon="4.41308">
        <ele>717</ele>
        <time>2025-09-28T12:27:06Z</time>
      </trkpt>
      <trkpt lat="46.11762" lon="4.41307">
        <ele>716</ele>
        <time>2025-09-28T12:27:07Z</time>
      </trkpt>
      <trkpt lat="46.11758" lon="4.41303">
        <ele>715</ele>
        <time>2025-09-28T12:27:08Z</time>
      </trkpt>
      <trkpt lat="46.11754" lon="4.41299">
        <ele>714</ele>
        <time>2025-09-28T12:27:09Z</time>
      </trkpt>
      <trkpt lat="46.1175" lon="4.41295">
        <ele>713</ele>
        <time>2025-09-28T12:27:10Z</time>
      </trkpt>
      <trkpt lat="46.11748" lon="4.41286">
        <ele>712</ele>
        <time>2025-09-28T12:27:11Z</time>
      </trkpt>
      <trkpt lat="46.11747" lon="4.41278">
        <ele>711.4</ele>
        <time>2025-09-28T12:27:12Z</time>
      </trkpt>
      <trkpt lat="46.11747" lon="4.4127">
        <ele>710.4</ele>
        <time>2025-09-28T12:27:13Z</time>
      </trkpt>
      <trkpt lat="46.11747" lon="4.41261">
        <ele>709.8</ele>
        <time>2025-09-28T12:27:14Z</time>
      </trkpt>
      <trkpt lat="46.11747" lon="4.41251">
        <ele>709.6</ele>
        <time>2025-09-28T12:27:15Z</time>
      </trkpt>
      <trkpt lat="46.11749" lon="4.41243">
        <ele>709.2</ele>
        <time>2025-09-28T12:27:16Z</time>
      </trkpt>
      <trkpt lat="46.11749" lon="4.41236">
        <ele>708.8</ele>
        <time>2025-09-28T12:27:17Z</time>
      </trkpt>
      <trkpt lat="46.1175" lon="4.41231">
        <ele>708.6</ele>
        <time>2025-09-28T12:27:18Z</time>
      </trkpt>
      <trkpt lat="46.1175" lon="4.41228">
        <ele>708.6</ele>
        <time>2025-09-28T12:27:19Z</time>
      </trkpt>
      <trkpt lat="46.1175" lon="4.41226">
        <ele>708.2</ele>
        <time>2025-09-28T12:27:20Z</time>
      </trkpt>
      <trkpt lat="46.11751" lon="4.41223">
        <ele>708.2</ele>
        <time>2025-09-28T12:27:21Z</time>
      </trkpt>
      <trkpt lat="46.11752" lon="4.41221">
        <ele>708.2</ele>
        <time>2025-09-28T12:27:22Z</time>
      </trkpt>
      <trkpt lat="46.11752" lon="4.41218">
        <ele>708.2</ele>
        <time>2025-09-28T12:27:23Z</time>
      </trkpt>
      <trkpt lat="46.11752" lon="4.41214">
        <ele>708</ele>
        <time>2025-09-28T12:27:24Z</time>
      </trkpt>
      <trkpt lat="46.11753" lon="4.41211">
        <ele>708</ele>
        <time>2025-09-28T12:27:25Z</time>
      </trkpt>
      <trkpt lat="46.11753" lon="4.41209">
        <ele>707.8</ele>
        <time>2025-09-28T12:27:26Z</time>
      </trkpt>
      <trkpt lat="46.11754" lon="4.41206">
        <ele>707.8</ele>
        <time>2025-09-28T12:27:27Z</time>
      </trkpt>
      <trkpt lat="46.11754" lon="4.41206">
        <ele>707.4</ele>
        <time>2025-09-28T12:27:28Z</time>
      </trkpt>
      <trkpt lat="46.11756" lon="4.41199">
        <ele>707.4</ele>
        <time>2025-09-28T12:27:29Z</time>
      </trkpt>
      <trkpt lat="46.11756" lon="4.41199">
        <ele>707.2</ele>
        <time>2025-09-28T12:27:30Z</time>
      </trkpt>
      <trkpt lat="46.11757" lon="4.41195">
        <ele>706.8</ele>
        <time>2025-09-28T12:27:31Z</time>
      </trkpt>
      <trkpt lat="46.11758" lon="4.4119">
        <ele>706.6</ele>
        <time>2025-09-28T12:27:32Z</time>
      </trkpt>
      <trkpt lat="46.11761" lon="4.41184">
        <ele>706.6</ele>
        <time>2025-09-28T12:27:33Z</time>
      </trkpt>
      <trkpt lat="46.11763" lon="4.41178">
        <ele>706</ele>
        <time>2025-09-28T12:27:34Z</time>
      </trkpt>
      <trkpt lat="46.11764" lon="4.41172">
        <ele>705.4</ele>
        <time>2025-09-28T12:27:35Z</time>
      </trkpt>
      <trkpt lat="46.11766" lon="4.41164">
        <ele>705</ele>
        <time>2025-09-28T12:27:36Z</time>
      </trkpt>
      <trkpt lat="46.11769" lon="4.41156">
        <ele>704.6</ele>
        <time>2025-09-28T12:27:37Z</time>
      </trkpt>
      <trkpt lat="46.11772" lon="4.41148">
        <ele>704</ele>
        <time>2025-09-28T12:27:38Z</time>
      </trkpt>
      <trkpt lat="46.11776" lon="4.41141">
        <ele>704</ele>
        <time>2025-09-28T12:27:39Z</time>
      </trkpt>
      <trkpt lat="46.11779" lon="4.41133">
        <ele>703.6</ele>
        <time>2025-09-28T12:27:40Z</time>
      </trkpt>
      <trkpt lat="46.11783" lon="4.41125">
        <ele>703.2</ele>
        <time>2025-09-28T12:27:41Z</time>
      </trkpt>
      <trkpt lat="46.11787" lon="4.41117">
        <ele>702.8</ele>
        <time>2025-09-28T12:27:42Z</time>
      </trkpt>
      <trkpt lat="46.11792" lon="4.4111">
        <ele>702.6</ele>
        <time>2025-09-28T12:27:43Z</time>
      </trkpt>
      <trkpt lat="46.11796" lon="4.41103">
        <ele>702.6</ele>
        <time>2025-09-28T12:27:44Z</time>
      </trkpt>
      <trkpt lat="46.118" lon="4.41096">
        <ele>701.6</ele>
        <time>2025-09-28T12:27:45Z</time>
      </trkpt>
      <trkpt lat="46.11804" lon="4.41088">
        <ele>700.8</ele>
        <time>2025-09-28T12:27:46Z</time>
      </trkpt>
      <trkpt lat="46.11808" lon="4.41081">
        <ele>700.2</ele>
        <time>2025-09-28T12:27:47Z</time>
      </trkpt>
      <trkpt lat="46.11812" lon="4.41074">
        <ele>699.4</ele>
        <time>2025-09-28T12:27:48Z</time>
      </trkpt>
      <trkpt lat="46.11816" lon="4.41067">
        <ele>698.8</ele>
        <time>2025-09-28T12:27:49Z</time>
      </trkpt>
      <trkpt lat="46.1182" lon="4.41062">
        <ele>698.4</ele>
        <time>2025-09-28T12:27:50Z</time>
      </trkpt>
      <trkpt lat="46.11825" lon="4.41055">
        <ele>697.4</ele>
        <time>2025-09-28T12:27:51Z</time>
      </trkpt>
      <trkpt lat="46.1183" lon="4.41049">
        <ele>696.4</ele>
        <time>2025-09-28T12:27:52Z</time>
      </trkpt>
      <trkpt lat="46.11835" lon="4.41044">
        <ele>695.4</ele>
        <time>2025-09-28T12:27:53Z</time>
      </trkpt>
      <trkpt lat="46.11842" lon="4.41038">
        <ele>694.4</ele>
        <time>2025-09-28T12:27:54Z</time>
      </trkpt>
      <trkpt lat="46.11848" lon="4.41034">
        <ele>693.4</ele>
        <time>2025-09-28T12:27:55Z</time>
      </trkpt>
      <trkpt lat="46.11854" lon="4.41029">
        <ele>692.6</ele>
        <time>2025-09-28T12:27:56Z</time>
      </trkpt>
      <trkpt lat="46.11859" lon="4.41023">
        <ele>692.2</ele>
        <time>2025-09-28T12:27:57Z</time>
      </trkpt>
      <trkpt lat="46.11864" lon="4.41017">
        <ele>691.4</ele>
        <time>2025-09-28T12:27:58Z</time>
      </trkpt>
      <trkpt lat="46.11868" lon="4.4101">
        <ele>690.4</ele>
        <time>2025-09-28T12:27:59Z</time>
      </trkpt>
      <trkpt lat="46.11868" lon="4.40997">
        <ele>690</ele>
        <time>2025-09-28T12:28:00Z</time>
      </trkpt>
      <trkpt lat="46.11871" lon="4.40989">
        <ele>690</ele>
        <time>2025-09-28T12:28:01Z</time>
      </trkpt>
      <trkpt lat="46.11871" lon="4.4098">
        <ele>689.8</ele>
        <time>2025-09-28T12:28:02Z</time>
      </trkpt>
      <trkpt lat="46.11873" lon="4.40972">
        <ele>690</ele>
        <time>2025-09-28T12:28:03Z</time>
      </trkpt>
      <trkpt lat="46.11875" lon="4.40966">
        <ele>690</ele>
        <time>2025-09-28T12:28:04Z</time>
      </trkpt>
      <trkpt lat="46.11876" lon="4.40961">
        <ele>690.6</ele>
        <time>2025-09-28T12:28:05Z</time>
      </trkpt>
      <trkpt lat="46.11878" lon="4.40956">
        <ele>691</ele>
        <time>2025-09-28T12:28:06Z</time>
      </trkpt>
      <trkpt lat="46.11879" lon="4.40952">
        <ele>691.4</ele>
        <time>2025-09-28T12:28:07Z</time>
      </trkpt>
      <trkpt lat="46.1188" lon="4.40946">
        <ele>691.8</ele>
        <time>2025-09-28T12:28:08Z</time>
      </trkpt>
      <trkpt lat="46.11881" lon="4.40946">
        <ele>692.2</ele>
        <time>2025-09-28T12:28:09Z</time>
      </trkpt>
      <trkpt lat="46.11882" lon="4.40942">
        <ele>692.4</ele>
        <time>2025-09-28T12:28:10Z</time>
      </trkpt>
      <trkpt lat="46.11882" lon="4.4094">
        <ele>692.8</ele>
        <time>2025-09-28T12:28:11Z</time>
      </trkpt>
      <trkpt lat="46.11883" lon="4.40937">
        <ele>693</ele>
        <time>2025-09-28T12:28:12Z</time>
      </trkpt>
      <trkpt lat="46.11884" lon="4.40934">
        <ele>693.4</ele>
        <time>2025-09-28T12:28:13Z</time>
      </trkpt>
      <trkpt lat="46.11885" lon="4.40932">
        <ele>693.6</ele>
        <time>2025-09-28T12:28:14Z</time>
      </trkpt>
      <trkpt lat="46.11886" lon="4.40929">
        <ele>693.6</ele>
        <time>2025-09-28T12:28:15Z</time>
      </trkpt>
      <trkpt lat="46.11888" lon="4.40927">
        <ele>694</ele>
        <time>2025-09-28T12:28:16Z</time>
      </trkpt>
      <trkpt lat="46.11889" lon="4.40925">
        <ele>694.4</ele>
        <time>2025-09-28T12:28:17Z</time>
      </trkpt>
      <trkpt lat="46.1189" lon="4.40923">
        <ele>694.6</ele>
        <time>2025-09-28T12:28:18Z</time>
      </trkpt>
      <trkpt lat="46.11891" lon="4.4092">
        <ele>694.6</ele>
        <time>2025-09-28T12:28:19Z</time>
      </trkpt>
      <trkpt lat="46.11893" lon="4.40918">
        <ele>695</ele>
        <time>2025-09-28T12:28:20Z</time>
      </trkpt>
      <trkpt lat="46.11894" lon="4.40916">
        <ele>695</ele>
        <time>2025-09-28T12:28:21Z</time>
      </trkpt>
      <trkpt lat="46.11895" lon="4.40914">
        <ele>695.4</ele>
        <time>2025-09-28T12:28:22Z</time>
      </trkpt>
      <trkpt lat="46.11896" lon="4.40913">
        <ele>695.4</ele>
        <time>2025-09-28T12:28:23Z</time>
      </trkpt>
      <trkpt lat="46.11898" lon="4.40911">
        <ele>695.4</ele>
        <time>2025-09-28T12:28:24Z</time>
      </trkpt>
      <trkpt lat="46.11899" lon="4.40909">
        <ele>695.4</ele>
        <time>2025-09-28T12:28:25Z</time>
      </trkpt>
      <trkpt lat="46.119" lon="4.40908">
        <ele>695.4</ele>
        <time>2025-09-28T12:28:26Z</time>
      </trkpt>
      <trkpt lat="46.11901" lon="4.40906">
        <ele>695.6</ele>
        <time>2025-09-28T12:28:27Z</time>
      </trkpt>
      <trkpt lat="46.11902" lon="4.40904">
        <ele>695.8</ele>
        <time>2025-09-28T12:28:28Z</time>
      </trkpt>
      <trkpt lat="46.11904" lon="4.40902">
        <ele>696</ele>
        <time>2025-09-28T12:28:29Z</time>
      </trkpt>
      <trkpt lat="46.11905" lon="4.409">
        <ele>696</ele>
        <time>2025-09-28T12:28:30Z</time>
      </trkpt>
      <trkpt lat="46.11907" lon="4.40898">
        <ele>696</ele>
        <time>2025-09-28T12:28:31Z</time>
      </trkpt>
      <trkpt lat="46.11909" lon="4.40896">
        <ele>696.4</ele>
        <time>2025-09-28T12:28:32Z</time>
      </trkpt>
      <trkpt lat="46.11912" lon="4.40892">
        <ele>696.4</ele>
        <time>2025-09-28T12:28:33Z</time>
      </trkpt>
      <trkpt lat="46.11915" lon="4.40889">
        <ele>696.4</ele>
        <time>2025-09-28T12:28:34Z</time>
      </trkpt>
      <trkpt lat="46.11917" lon="4.40886">
        <ele>696.4</ele>
        <time>2025-09-28T12:28:35Z</time>
      </trkpt>
      <trkpt lat="46.11919" lon="4.40883">
        <ele>696.4</ele>
        <time>2025-09-28T12:28:36Z</time>
      </trkpt>
      <trkpt lat="46.11921" lon="4.4088">
        <ele>696.4</ele>
        <time>2025-09-28T12:28:37Z</time>
      </trkpt>
      <trkpt lat="46.11923" lon="4.40877">
        <ele>696.8</ele>
        <time>2025-09-28T12:28:38Z</time>
      </trkpt>
      <trkpt lat="46.11925" lon="4.40873">
        <ele>696.8</ele>
        <time>2025-09-28T12:28:39Z</time>
      </trkpt>
      <trkpt lat="46.11926" lon="4.40869">
        <ele>697</ele>
        <time>2025-09-28T12:28:40Z</time>
      </trkpt>
      <trkpt lat="46.11927" lon="4.40865">
        <ele>697</ele>
        <time>2025-09-28T12:28:41Z</time>
      </trkpt>
      <trkpt lat="46.11927" lon="4.4086">
        <ele>697</ele>
        <time>2025-09-28T12:28:42Z</time>
      </trkpt>
      <trkpt lat="46.11927" lon="4.40855">
        <ele>697</ele>
        <time>2025-09-28T12:28:43Z</time>
      </trkpt>
      <trkpt lat="46.11926" lon="4.40851">
        <ele>697</ele>
        <time>2025-09-28T12:28:44Z</time>
      </trkpt>
      <trkpt lat="46.11925" lon="4.40846">
        <ele>697</ele>
        <time>2025-09-28T12:28:45Z</time>
      </trkpt>
      <trkpt lat="46.11924" lon="4.40841">
        <ele>697.2</ele>
        <time>2025-09-28T12:28:46Z</time>
      </trkpt>
      <trkpt lat="46.11923" lon="4.40836">
        <ele>697.2</ele>
        <time>2025-09-28T12:28:47Z</time>
      </trkpt>
      <trkpt lat="46.11923" lon="4.40831">
        <ele>697.2</ele>
        <time>2025-09-28T12:28:48Z</time>
      </trkpt>
      <trkpt lat="46.11922" lon="4.40827">
        <ele>697.2</ele>
        <time>2025-09-28T12:28:49Z</time>
      </trkpt>
      <trkpt lat="46.11921" lon="4.40824">
        <ele>697.6</ele>
        <time>2025-09-28T12:28:50Z</time>
      </trkpt>
      <trkpt lat="46.1192" lon="4.4082">
        <ele>697.6</ele>
        <time>2025-09-28T12:28:51Z</time>
      </trkpt>
      <trkpt lat="46.11919" lon="4.40815">
        <ele>697.6</ele>
        <time>2025-09-28T12:28:52Z</time>
      </trkpt>
      <trkpt lat="46.11918" lon="4.4081">
        <ele>697.8</ele>
        <time>2025-09-28T12:28:53Z</time>
      </trkpt>
      <trkpt lat="46.11917" lon="4.40805">
        <ele>697.8</ele>
        <time>2025-09-28T12:28:54Z</time>
      </trkpt>
      <trkpt lat="46.11916" lon="4.40801">
        <ele>697.8</ele>
        <time>2025-09-28T12:28:55Z</time>
      </trkpt>
      <trkpt lat="46.11915" lon="4.40797">
        <ele>697.8</ele>
        <time>2025-09-28T12:28:56Z</time>
      </trkpt>
      <trkpt lat="46.11914" lon="4.40793">
        <ele>698.2</ele>
        <time>2025-09-28T12:28:57Z</time>
      </trkpt>
      <trkpt lat="46.11913" lon="4.40789">
        <ele>698.2</ele>
        <time>2025-09-28T12:28:58Z</time>
      </trkpt>
      <trkpt lat="46.11913" lon="4.40785">
        <ele>698.4</ele>
        <time>2025-09-28T12:28:59Z</time>
      </trkpt>
      <trkpt lat="46.11913" lon="4.40782">
        <ele>698.8</ele>
        <time>2025-09-28T12:29:00Z</time>
      </trkpt>
      <trkpt lat="46.11913" lon="4.40779">
        <ele>699</ele>
        <time>2025-09-28T12:29:01Z</time>
      </trkpt>
      <trkpt lat="46.11913" lon="4.40776">
        <ele>699</ele>
        <time>2025-09-28T12:29:02Z</time>
      </trkpt>
      <trkpt lat="46.11913" lon="4.40773">
        <ele>699.2</ele>
        <time>2025-09-28T12:29:03Z</time>
      </trkpt>
      <trkpt lat="46.11912" lon="4.4077">
        <ele>699.6</ele>
        <time>2025-09-28T12:29:04Z</time>
      </trkpt>
      <trkpt lat="46.11912" lon="4.40767">
        <ele>699.8</ele>
        <time>2025-09-28T12:29:05Z</time>
      </trkpt>
      <trkpt lat="46.11912" lon="4.40764">
        <ele>699.8</ele>
        <time>2025-09-28T12:29:06Z</time>
      </trkpt>
      <trkpt lat="46.11912" lon="4.40762">
        <ele>700.2</ele>
        <time>2025-09-28T12:29:07Z</time>
      </trkpt>
      <trkpt lat="46.11912" lon="4.40759">
        <ele>700.2</ele>
        <time>2025-09-28T12:29:08Z</time>
      </trkpt>
      <trkpt lat="46.11912" lon="4.40757">
        <ele>700.6</ele>
        <time>2025-09-28T12:29:09Z</time>
      </trkpt>
      <trkpt lat="46.11912" lon="4.40754">
        <ele>701</ele>
        <time>2025-09-28T12:29:10Z</time>
      </trkpt>
      <trkpt lat="46.11911" lon="4.40752">
        <ele>701.2</ele>
        <time>2025-09-28T12:29:11Z</time>
      </trkpt>
      <trkpt lat="46.11911" lon="4.4075">
        <ele>701.4</ele>
        <time>2025-09-28T12:29:12Z</time>
      </trkpt>
      <trkpt lat="46.11911" lon="4.40747">
        <ele>701.4</ele>
        <time>2025-09-28T12:29:13Z</time>
      </trkpt>
      <trkpt lat="46.11911" lon="4.40744">
        <ele>701.8</ele>
        <time>2025-09-28T12:29:14Z</time>
      </trkpt>
      <trkpt lat="46.11911" lon="4.40742">
        <ele>701.8</ele>
        <time>2025-09-28T12:29:15Z</time>
      </trkpt>
      <trkpt lat="46.11911" lon="4.40739">
        <ele>702</ele>
        <time>2025-09-28T12:29:16Z</time>
      </trkpt>
      <trkpt lat="46.11912" lon="4.40738">
        <ele>702.4</ele>
        <time>2025-09-28T12:29:17Z</time>
      </trkpt>
      <trkpt lat="46.11912" lon="4.40735">
        <ele>702.6</ele>
        <time>2025-09-28T12:29:18Z</time>
      </trkpt>
      <trkpt lat="46.11913" lon="4.40732">
        <ele>702.6</ele>
        <time>2025-09-28T12:29:19Z</time>
      </trkpt>
      <trkpt lat="46.11912" lon="4.4073">
        <ele>703</ele>
        <time>2025-09-28T12:29:20Z</time>
      </trkpt>
      <trkpt lat="46.11912" lon="4.40728">
        <ele>703.2</ele>
        <time>2025-09-28T12:29:21Z</time>
      </trkpt>
      <trkpt lat="46.11912" lon="4.40726">
        <ele>703.4</ele>
        <time>2025-09-28T12:29:22Z</time>
      </trkpt>
      <trkpt lat="46.11912" lon="4.40722">
        <ele>703.6</ele>
        <time>2025-09-28T12:29:23Z</time>
      </trkpt>
      <trkpt lat="46.11911" lon="4.4072">
        <ele>703.6</ele>
        <time>2025-09-28T12:29:24Z</time>
      </trkpt>
      <trkpt lat="46.11911" lon="4.40717">
        <ele>703.8</ele>
        <time>2025-09-28T12:29:25Z</time>
      </trkpt>
      <trkpt lat="46.11911" lon="4.40715">
        <ele>704</ele>
        <time>2025-09-28T12:29:26Z</time>
      </trkpt>
      <trkpt lat="46.11911" lon="4.40712">
        <ele>704.2</ele>
        <time>2025-09-28T12:29:27Z</time>
      </trkpt>
      <trkpt lat="46.1191" lon="4.40709">
        <ele>704.6</ele>
        <time>2025-09-28T12:29:28Z</time>
      </trkpt>
      <trkpt lat="46.11909" lon="4.40707">
        <ele>704.6</ele>
        <time>2025-09-28T12:29:29Z</time>
      </trkpt>
      <trkpt lat="46.11908" lon="4.40705">
        <ele>704.6</ele>
        <time>2025-09-28T12:29:30Z</time>
      </trkpt>
      <trkpt lat="46.11907" lon="4.40703">
        <ele>705</ele>
        <time>2025-09-28T12:29:31Z</time>
      </trkpt>
      <trkpt lat="46.11906" lon="4.40701">
        <ele>705.2</ele>
        <time>2025-09-28T12:29:32Z</time>
      </trkpt>
      <trkpt lat="46.11906" lon="4.40699">
        <ele>705.2</ele>
        <time>2025-09-28T12:29:33Z</time>
      </trkpt>
      <trkpt lat="46.11905" lon="4.40696">
        <ele>705.6</ele>
        <time>2025-09-28T12:29:34Z</time>
      </trkpt>
      <trkpt lat="46.11905" lon="4.40694">
        <ele>705.6</ele>
        <time>2025-09-28T12:29:35Z</time>
      </trkpt>
      <trkpt lat="46.11903" lon="4.40692">
        <ele>706</ele>
        <time>2025-09-28T12:29:36Z</time>
      </trkpt>
      <trkpt lat="46.11902" lon="4.40689">
        <ele>706.4</ele>
        <time>2025-09-28T12:29:37Z</time>
      </trkpt>
      <trkpt lat="46.11901" lon="4.40686">
        <ele>706.8</ele>
        <time>2025-09-28T12:29:38Z</time>
      </trkpt>
      <trkpt lat="46.119" lon="4.40683">
        <ele>706.8</ele>
        <time>2025-09-28T12:29:39Z</time>
      </trkpt>
      <trkpt lat="46.119" lon="4.40681">
        <ele>707.2</ele>
        <time>2025-09-28T12:29:40Z</time>
      </trkpt>
      <trkpt lat="46.119" lon="4.40678">
        <ele>707.2</ele>
        <time>2025-09-28T12:29:41Z</time>
      </trkpt>
      <trkpt lat="46.119" lon="4.40675">
        <ele>707.6</ele>
        <time>2025-09-28T12:29:42Z</time>
      </trkpt>
      <trkpt lat="46.119" lon="4.40673">
        <ele>707.8</ele>
        <time>2025-09-28T12:29:43Z</time>
      </trkpt>
      <trkpt lat="46.11901" lon="4.40671">
        <ele>707.8</ele>
        <time>2025-09-28T12:29:44Z</time>
      </trkpt>
      <trkpt lat="46.11902" lon="4.40669">
        <ele>708.2</ele>
        <time>2025-09-28T12:29:45Z</time>
      </trkpt>
      <trkpt lat="46.11903" lon="4.40667">
        <ele>708.2</ele>
        <time>2025-09-28T12:29:46Z</time>
      </trkpt>
      <trkpt lat="46.11904" lon="4.40666">
        <ele>708.4</ele>
        <time>2025-09-28T12:29:47Z</time>
      </trkpt>
      <trkpt lat="46.11906" lon="4.40665">
        <ele>708.6</ele>
        <time>2025-09-28T12:29:48Z</time>
      </trkpt>
      <trkpt lat="46.11907" lon="4.40664">
        <ele>708.6</ele>
        <time>2025-09-28T12:29:49Z</time>
      </trkpt>
      <trkpt lat="46.11909" lon="4.40664">
        <ele>709</ele>
        <time>2025-09-28T12:29:50Z</time>
      </trkpt>
      <trkpt lat="46.1191" lon="4.40664">
        <ele>709</ele>
        <time>2025-09-28T12:29:51Z</time>
      </trkpt>
      <trkpt lat="46.11912" lon="4.40664">
        <ele>709.2</ele>
        <time>2025-09-28T12:29:52Z</time>
      </trkpt>
      <trkpt lat="46.11913" lon="4.40665">
        <ele>709.2</ele>
        <time>2025-09-28T12:29:53Z</time>
      </trkpt>
      <trkpt lat="46.11915" lon="4.40665">
        <ele>709.6</ele>
        <time>2025-09-28T12:29:54Z</time>
      </trkpt>
      <trkpt lat="46.11916" lon="4.40665">
        <ele>710</ele>
        <time>2025-09-28T12:29:55Z</time>
      </trkpt>
      <trkpt lat="46.11918" lon="4.40665">
        <ele>710.4</ele>
        <time>2025-09-28T12:29:56Z</time>
      </trkpt>
      <trkpt lat="46.11919" lon="4.40664">
        <ele>710.6</ele>
        <time>2025-09-28T12:29:57Z</time>
      </trkpt>
      <trkpt lat="46.1192" lon="4.40664">
        <ele>711</ele>
        <time>2025-09-28T12:29:58Z</time>
      </trkpt>
      <trkpt lat="46.11922" lon="4.40663">
        <ele>711.4</ele>
        <time>2025-09-28T12:29:59Z</time>
      </trkpt>
      <trkpt lat="46.11923" lon="4.40663">
        <ele>711.4</ele>
        <time>2025-09-28T12:30:00Z</time>
      </trkpt>
      <trkpt lat="46.11925" lon="4.40663">
        <ele>711.6</ele>
        <time>2025-09-28T12:30:01Z</time>
      </trkpt>
      <trkpt lat="46.11926" lon="4.40662">
        <ele>711.8</ele>
        <time>2025-09-28T12:30:02Z</time>
      </trkpt>
      <trkpt lat="46.11927" lon="4.40662">
        <ele>712</ele>
        <time>2025-09-28T12:30:03Z</time>
      </trkpt>
      <trkpt lat="46.11928" lon="4.40662">
        <ele>712.4</ele>
        <time>2025-09-28T12:30:04Z</time>
      </trkpt>
      <trkpt lat="46.1193" lon="4.40661">
        <ele>712.4</ele>
        <time>2025-09-28T12:30:05Z</time>
      </trkpt>
      <trkpt lat="46.11931" lon="4.4066">
        <ele>712.6</ele>
        <time>2025-09-28T12:30:06Z</time>
      </trkpt>
      <trkpt lat="46.11932" lon="4.40659">
        <ele>712.6</ele>
        <time>2025-09-28T12:30:07Z</time>
      </trkpt>
      <trkpt lat="46.11933" lon="4.40657">
        <ele>713</ele>
        <time>2025-09-28T12:30:08Z</time>
      </trkpt>
      <trkpt lat="46.11935" lon="4.40656">
        <ele>713</ele>
        <time>2025-09-28T12:30:09Z</time>
      </trkpt>
      <trkpt lat="46.11935" lon="4.40655">
        <ele>713.2</ele>
        <time>2025-09-28T12:30:10Z</time>
      </trkpt>
      <trkpt lat="46.11936" lon="4.40653">
        <ele>713.2</ele>
        <time>2025-09-28T12:30:11Z</time>
      </trkpt>
      <trkpt lat="46.11937" lon="4.40651">
        <ele>713.6</ele>
        <time>2025-09-28T12:30:12Z</time>
      </trkpt>
      <trkpt lat="46.11938" lon="4.4065">
        <ele>713.8</ele>
        <time>2025-09-28T12:30:13Z</time>
      </trkpt>
      <trkpt lat="46.11939" lon="4.40648">
        <ele>713.8</ele>
        <time>2025-09-28T12:30:14Z</time>
      </trkpt>
      <trkpt lat="46.1194" lon="4.40647">
        <ele>714.2</ele>
        <time>2025-09-28T12:30:15Z</time>
      </trkpt>
      <trkpt lat="46.11941" lon="4.40645">
        <ele>714.2</ele>
        <time>2025-09-28T12:30:16Z</time>
      </trkpt>
      <trkpt lat="46.11942" lon="4.40643">
        <ele>714.4</ele>
        <time>2025-09-28T12:30:17Z</time>
      </trkpt>
      <trkpt lat="46.11943" lon="4.40641">
        <ele>714.4</ele>
        <time>2025-09-28T12:30:18Z</time>
      </trkpt>
      <trkpt lat="46.11944" lon="4.40639">
        <ele>714.8</ele>
        <time>2025-09-28T12:30:19Z</time>
      </trkpt>
      <trkpt lat="46.11945" lon="4.40637">
        <ele>714.8</ele>
        <time>2025-09-28T12:30:20Z</time>
      </trkpt>
      <trkpt lat="46.11947" lon="4.40635">
        <ele>715.2</ele>
        <time>2025-09-28T12:30:21Z</time>
      </trkpt>
      <trkpt lat="46.11948" lon="4.40634">
        <ele>715.2</ele>
        <time>2025-09-28T12:30:22Z</time>
      </trkpt>
      <trkpt lat="46.11949" lon="4.40632">
        <ele>715.6</ele>
        <time>2025-09-28T12:30:23Z</time>
      </trkpt>
      <trkpt lat="46.1195" lon="4.4063">
        <ele>715.8</ele>
        <time>2025-09-28T12:30:24Z</time>
      </trkpt>
      <trkpt lat="46.1195" lon="4.40629">
        <ele>715.8</ele>
        <time>2025-09-28T12:30:25Z</time>
      </trkpt>
      <trkpt lat="46.11951" lon="4.40627">
        <ele>716.2</ele>
        <time>2025-09-28T12:30:26Z</time>
      </trkpt>
      <trkpt lat="46.11952" lon="4.40625">
        <ele>716.2</ele>
        <time>2025-09-28T12:30:27Z</time>
      </trkpt>
      <trkpt lat="46.11953" lon="4.40622">
        <ele>716.2</ele>
        <time>2025-09-28T12:30:28Z</time>
      </trkpt>
      <trkpt lat="46.11954" lon="4.4062">
        <ele>716.4</ele>
        <time>2025-09-28T12:30:29Z</time>
      </trkpt>
      <trkpt lat="46.11955" lon="4.40618">
        <ele>716.6</ele>
        <time>2025-09-28T12:30:30Z</time>
      </trkpt>
      <trkpt lat="46.11956" lon="4.40617">
        <ele>716.6</ele>
        <time>2025-09-28T12:30:31Z</time>
      </trkpt>
      <trkpt lat="46.11957" lon="4.40615">
        <ele>716.8</ele>
        <time>2025-09-28T12:30:32Z</time>
      </trkpt>
      <trkpt lat="46.11958" lon="4.40614">
        <ele>716.8</ele>
        <time>2025-09-28T12:30:33Z</time>
      </trkpt>
      <trkpt lat="46.11959" lon="4.40612">
        <ele>717.2</ele>
        <time>2025-09-28T12:30:34Z</time>
      </trkpt>
      <trkpt lat="46.11961" lon="4.40611">
        <ele>717.4</ele>
        <time>2025-09-28T12:30:35Z</time>
      </trkpt>
      <trkpt lat="46.11963" lon="4.4061">
        <ele>716.4</ele>
        <time>2025-09-28T12:30:36Z</time>
      </trkpt>
      <trkpt lat="46.11964" lon="4.40608">
        <ele>716.6</ele>
        <time>2025-09-28T12:30:37Z</time>
      </trkpt>
      <trkpt lat="46.11966" lon="4.40607">
        <ele>717.2</ele>
        <time>2025-09-28T12:30:38Z</time>
      </trkpt>
      <trkpt lat="46.11967" lon="4.40605">
        <ele>717.4</ele>
        <time>2025-09-28T12:30:39Z</time>
      </trkpt>
      <trkpt lat="46.11969" lon="4.40604">
        <ele>718.2</ele>
        <time>2025-09-28T12:30:40Z</time>
      </trkpt>
      <trkpt lat="46.1197" lon="4.40604">
        <ele>718.6</ele>
        <time>2025-09-28T12:30:41Z</time>
      </trkpt>
      <trkpt lat="46.11971" lon="4.40603">
        <ele>718.6</ele>
        <time>2025-09-28T12:30:42Z</time>
      </trkpt>
      <trkpt lat="46.11972" lon="4.40602">
        <ele>718.6</ele>
        <time>2025-09-28T12:30:43Z</time>
      </trkpt>
      <trkpt lat="46.11973" lon="4.406">
        <ele>718.8</ele>
        <time>2025-09-28T12:30:44Z</time>
      </trkpt>
      <trkpt lat="46.11974" lon="4.40599">
        <ele>718.8</ele>
        <time>2025-09-28T12:30:45Z</time>
      </trkpt>
      <trkpt lat="46.11975" lon="4.40597">
        <ele>718.8</ele>
        <time>2025-09-28T12:30:46Z</time>
      </trkpt>
      <trkpt lat="46.11976" lon="4.40595">
        <ele>718.8</ele>
        <time>2025-09-28T12:30:47Z</time>
      </trkpt>
      <trkpt lat="46.11977" lon="4.40594">
        <ele>719.6</ele>
        <time>2025-09-28T12:30:48Z</time>
      </trkpt>
      <trkpt lat="46.11977" lon="4.40591">
        <ele>720</ele>
        <time>2025-09-28T12:30:49Z</time>
      </trkpt>
      <trkpt lat="46.11978" lon="4.40589">
        <ele>720.4</ele>
        <time>2025-09-28T12:30:50Z</time>
      </trkpt>
      <trkpt lat="46.11979" lon="4.40587">
        <ele>720.4</ele>
        <time>2025-09-28T12:30:51Z</time>
      </trkpt>
      <trkpt lat="46.1198" lon="4.40586">
        <ele>720.4</ele>
        <time>2025-09-28T12:30:52Z</time>
      </trkpt>
      <trkpt lat="46.11981" lon="4.40585">
        <ele>720.8</ele>
        <time>2025-09-28T12:30:53Z</time>
      </trkpt>
      <trkpt lat="46.11982" lon="4.40583">
        <ele>720.8</ele>
        <time>2025-09-28T12:30:54Z</time>
      </trkpt>
      <trkpt lat="46.11983" lon="4.40582">
        <ele>721</ele>
        <time>2025-09-28T12:30:55Z</time>
      </trkpt>
      <trkpt lat="46.11984" lon="4.4058">
        <ele>721</ele>
        <time>2025-09-28T12:30:56Z</time>
      </trkpt>
      <trkpt lat="46.11985" lon="4.40578">
        <ele>721</ele>
        <time>2025-09-28T12:30:57Z</time>
      </trkpt>
      <trkpt lat="46.11987" lon="4.40575">
        <ele>721.2</ele>
        <time>2025-09-28T12:30:58Z</time>
      </trkpt>
      <trkpt lat="46.11987" lon="4.40573">
        <ele>721.2</ele>
        <time>2025-09-28T12:30:59Z</time>
      </trkpt>
      <trkpt lat="46.11989" lon="4.40571">
        <ele>721.2</ele>
        <time>2025-09-28T12:31:00Z</time>
      </trkpt>
      <trkpt lat="46.1199" lon="4.40569">
        <ele>721.6</ele>
        <time>2025-09-28T12:31:01Z</time>
      </trkpt>
      <trkpt lat="46.11991" lon="4.40567">
        <ele>721.6</ele>
        <time>2025-09-28T12:31:02Z</time>
      </trkpt>
      <trkpt lat="46.11992" lon="4.40566">
        <ele>721.6</ele>
        <time>2025-09-28T12:31:03Z</time>
      </trkpt>
      <trkpt lat="46.11994" lon="4.40564">
        <ele>722</ele>
        <time>2025-09-28T12:31:04Z</time>
      </trkpt>
      <trkpt lat="46.11995" lon="4.40563">
        <ele>722</ele>
        <time>2025-09-28T12:31:05Z</time>
      </trkpt>
      <trkpt lat="46.11998" lon="4.40559">
        <ele>722.2</ele>
        <time>2025-09-28T12:31:06Z</time>
      </trkpt>
      <trkpt lat="46.11999" lon="4.40557">
        <ele>722.2</ele>
        <time>2025-09-28T12:31:07Z</time>
      </trkpt>
      <trkpt lat="46.12" lon="4.40555">
        <ele>722.2</ele>
        <time>2025-09-28T12:31:08Z</time>
      </trkpt>
      <trkpt lat="46.12002" lon="4.40553">
        <ele>722.2</ele>
        <time>2025-09-28T12:31:09Z</time>
      </trkpt>
      <trkpt lat="46.12003" lon="4.40551">
        <ele>722.6</ele>
        <time>2025-09-28T12:31:10Z</time>
      </trkpt>
      <trkpt lat="46.12005" lon="4.40549">
        <ele>722.6</ele>
        <time>2025-09-28T12:31:11Z</time>
      </trkpt>
      <trkpt lat="46.12006" lon="4.40547">
        <ele>722.6</ele>
        <time>2025-09-28T12:31:12Z</time>
      </trkpt>
      <trkpt lat="46.12007" lon="4.40545">
        <ele>722.8</ele>
        <time>2025-09-28T12:31:13Z</time>
      </trkpt>
      <trkpt lat="46.12008" lon="4.40543">
        <ele>722.8</ele>
        <time>2025-09-28T12:31:14Z</time>
      </trkpt>
      <trkpt lat="46.1201" lon="4.40542">
        <ele>723</ele>
        <time>2025-09-28T12:31:15Z</time>
      </trkpt>
      <trkpt lat="46.12011" lon="4.4054">
        <ele>723</ele>
        <time>2025-09-28T12:31:16Z</time>
      </trkpt>
      <trkpt lat="46.12012" lon="4.40538">
        <ele>723.2</ele>
        <time>2025-09-28T12:31:17Z</time>
      </trkpt>
      <trkpt lat="46.12014" lon="4.40536">
        <ele>723.2</ele>
        <time>2025-09-28T12:31:18Z</time>
      </trkpt>
      <trkpt lat="46.12015" lon="4.40534">
        <ele>723.2</ele>
        <time>2025-09-28T12:31:19Z</time>
      </trkpt>
      <trkpt lat="46.12016" lon="4.40533">
        <ele>723.6</ele>
        <time>2025-09-28T12:31:20Z</time>
      </trkpt>
      <trkpt lat="46.12018" lon="4.40531">
        <ele>723.8</ele>
        <time>2025-09-28T12:31:21Z</time>
      </trkpt>
      <trkpt lat="46.1202" lon="4.4053">
        <ele>723.8</ele>
        <time>2025-09-28T12:31:22Z</time>
      </trkpt>
      <trkpt lat="46.12021" lon="4.40529">
        <ele>723.8</ele>
        <time>2025-09-28T12:31:23Z</time>
      </trkpt>
      <trkpt lat="46.12023" lon="4.40527">
        <ele>724.2</ele>
        <time>2025-09-28T12:31:24Z</time>
      </trkpt>
      <trkpt lat="46.12024" lon="4.40525">
        <ele>724.4</ele>
        <time>2025-09-28T12:31:25Z</time>
      </trkpt>
      <trkpt lat="46.12025" lon="4.40523">
        <ele>724.4</ele>
        <time>2025-09-28T12:31:26Z</time>
      </trkpt>
      <trkpt lat="46.12027" lon="4.40521">
        <ele>724.8</ele>
        <time>2025-09-28T12:31:27Z</time>
      </trkpt>
      <trkpt lat="46.12029" lon="4.40519">
        <ele>725</ele>
        <time>2025-09-28T12:31:28Z</time>
      </trkpt>
      <trkpt lat="46.1203" lon="4.40518">
        <ele>725.2</ele>
        <time>2025-09-28T12:31:29Z</time>
      </trkpt>
      <trkpt lat="46.12032" lon="4.40516">
        <ele>725.2</ele>
        <time>2025-09-28T12:31:30Z</time>
      </trkpt>
      <trkpt lat="46.12033" lon="4.40515">
        <ele>725.4</ele>
        <time>2025-09-28T12:31:31Z</time>
      </trkpt>
      <trkpt lat="46.12035" lon="4.40513">
        <ele>725.4</ele>
        <time>2025-09-28T12:31:32Z</time>
      </trkpt>
      <trkpt lat="46.12037" lon="4.40511">
        <ele>725.4</ele>
        <time>2025-09-28T12:31:33Z</time>
      </trkpt>
      <trkpt lat="46.1204" lon="4.40509">
        <ele>725.4</ele>
        <time>2025-09-28T12:31:34Z</time>
      </trkpt>
      <trkpt lat="46.12042" lon="4.40507">
        <ele>725.4</ele>
        <time>2025-09-28T12:31:35Z</time>
      </trkpt>
      <trkpt lat="46.12045" lon="4.40504">
        <ele>725.4</ele>
        <time>2025-09-28T12:31:36Z</time>
      </trkpt>
      <trkpt lat="46.12047" lon="4.40502">
        <ele>725.8</ele>
        <time>2025-09-28T12:31:37Z</time>
      </trkpt>
      <trkpt lat="46.1205" lon="4.405">
        <ele>725.8</ele>
        <time>2025-09-28T12:31:38Z</time>
      </trkpt>
      <trkpt lat="46.12053" lon="4.40498">
        <ele>725.8</ele>
        <time>2025-09-28T12:31:39Z</time>
      </trkpt>
      <trkpt lat="46.12056" lon="4.40496">
        <ele>726</ele>
        <time>2025-09-28T12:31:40Z</time>
      </trkpt>
      <trkpt lat="46.12059" lon="4.40494">
        <ele>726</ele>
        <time>2025-09-28T12:31:41Z</time>
      </trkpt>
      <trkpt lat="46.12062" lon="4.40492">
        <ele>726</ele>
        <time>2025-09-28T12:31:42Z</time>
      </trkpt>
      <trkpt lat="46.12065" lon="4.40491">
        <ele>726</ele>
        <time>2025-09-28T12:31:43Z</time>
      </trkpt>
      <trkpt lat="46.12069" lon="4.40489">
        <ele>726</ele>
        <time>2025-09-28T12:31:44Z</time>
      </trkpt>
      <trkpt lat="46.12072" lon="4.40487">
        <ele>726</ele>
        <time>2025-09-28T12:31:45Z</time>
      </trkpt>
      <trkpt lat="46.12075" lon="4.40486">
        <ele>726</ele>
        <time>2025-09-28T12:31:46Z</time>
      </trkpt>
      <trkpt lat="46.12079" lon="4.40484">
        <ele>726</ele>
        <time>2025-09-28T12:31:47Z</time>
      </trkpt>
      <trkpt lat="46.12082" lon="4.40482">
        <ele>726.2</ele>
        <time>2025-09-28T12:31:48Z</time>
      </trkpt>
      <trkpt lat="46.12086" lon="4.4048">
        <ele>726.2</ele>
        <time>2025-09-28T12:31:49Z</time>
      </trkpt>
      <trkpt lat="46.12089" lon="4.40478">
        <ele>726.2</ele>
        <time>2025-09-28T12:31:50Z</time>
      </trkpt>
      <trkpt lat="46.12092" lon="4.40476">
        <ele>726.2</ele>
        <time>2025-09-28T12:31:51Z</time>
      </trkpt>
      <trkpt lat="46.12096" lon="4.40474">
        <ele>726.2</ele>
        <time>2025-09-28T12:31:52Z</time>
      </trkpt>
      <trkpt lat="46.121" lon="4.40472">
        <ele>726.2</ele>
        <time>2025-09-28T12:31:53Z</time>
      </trkpt>
      <trkpt lat="46.12103" lon="4.4047">
        <ele>726.2</ele>
        <time>2025-09-28T12:31:54Z</time>
      </trkpt>
      <trkpt lat="46.12107" lon="4.40467">
        <ele>726.2</ele>
        <time>2025-09-28T12:31:55Z</time>
      </trkpt>
      <trkpt lat="46.12111" lon="4.40465">
        <ele>726.6</ele>
        <time>2025-09-28T12:31:56Z</time>
      </trkpt>
      <trkpt lat="46.12114" lon="4.40462">
        <ele>726.6</ele>
        <time>2025-09-28T12:31:57Z</time>
      </trkpt>
      <trkpt lat="46.12118" lon="4.40459">
        <ele>726.6</ele>
        <time>2025-09-28T12:31:58Z</time>
      </trkpt>
      <trkpt lat="46.12123" lon="4.40457">
        <ele>726.6</ele>
        <time>2025-09-28T12:31:59Z</time>
      </trkpt>
      <trkpt lat="46.12126" lon="4.40455">
        <ele>726.4</ele>
        <time>2025-09-28T12:32:00Z</time>
      </trkpt>
      <trkpt lat="46.12131" lon="4.40452">
        <ele>726.4</ele>
        <time>2025-09-28T12:32:01Z</time>
      </trkpt>
      <trkpt lat="46.12135" lon="4.40449">
        <ele>726.4</ele>
        <time>2025-09-28T12:32:02Z</time>
      </trkpt>
      <trkpt lat="46.1214" lon="4.40447">
        <ele>726.4</ele>
        <time>2025-09-28T12:32:03Z</time>
      </trkpt>
      <trkpt lat="46.12145" lon="4.40444">
        <ele>726</ele>
        <time>2025-09-28T12:32:04Z</time>
      </trkpt>
      <trkpt lat="46.12149" lon="4.40442">
        <ele>726</ele>
        <time>2025-09-28T12:32:05Z</time>
      </trkpt>
      <trkpt lat="46.12155" lon="4.4044">
        <ele>726</ele>
        <time>2025-09-28T12:32:06Z</time>
      </trkpt>
      <trkpt lat="46.12159" lon="4.40437">
        <ele>726</ele>
        <time>2025-09-28T12:32:07Z</time>
      </trkpt>
      <trkpt lat="46.12164" lon="4.40434">
        <ele>726</ele>
        <time>2025-09-28T12:32:08Z</time>
      </trkpt>
      <trkpt lat="46.12169" lon="4.40431">
        <ele>726</ele>
        <time>2025-09-28T12:32:09Z</time>
      </trkpt>
      <trkpt lat="46.12174" lon="4.40429">
        <ele>726.4</ele>
        <time>2025-09-28T12:32:10Z</time>
      </trkpt>
      <trkpt lat="46.12178" lon="4.40426">
        <ele>726.4</ele>
        <time>2025-09-28T12:32:11Z</time>
      </trkpt>
      <trkpt lat="46.12182" lon="4.40425">
        <ele>726.4</ele>
        <time>2025-09-28T12:32:12Z</time>
      </trkpt>
      <trkpt lat="46.12187" lon="4.40423">
        <ele>726.6</ele>
        <time>2025-09-28T12:32:13Z</time>
      </trkpt>
      <trkpt lat="46.12191" lon="4.4042">
        <ele>726.6</ele>
        <time>2025-09-28T12:32:14Z</time>
      </trkpt>
      <trkpt lat="46.12195" lon="4.40417">
        <ele>726.6</ele>
        <time>2025-09-28T12:32:15Z</time>
      </trkpt>
      <trkpt lat="46.12199" lon="4.40414">
        <ele>727</ele>
        <time>2025-09-28T12:32:16Z</time>
      </trkpt>
      <trkpt lat="46.12203" lon="4.40411">
        <ele>727</ele>
        <time>2025-09-28T12:32:17Z</time>
      </trkpt>
      <trkpt lat="46.12206" lon="4.40409">
        <ele>727.4</ele>
        <time>2025-09-28T12:32:18Z</time>
      </trkpt>
      <trkpt lat="46.12211" lon="4.40405">
        <ele>727.6</ele>
        <time>2025-09-28T12:32:19Z</time>
      </trkpt>
      <trkpt lat="46.12214" lon="4.40402">
        <ele>727.6</ele>
        <time>2025-09-28T12:32:20Z</time>
      </trkpt>
      <trkpt lat="46.12218" lon="4.40399">
        <ele>727.6</ele>
        <time>2025-09-28T12:32:21Z</time>
      </trkpt>
      <trkpt lat="46.12221" lon="4.40396">
        <ele>727.8</ele>
        <time>2025-09-28T12:32:22Z</time>
      </trkpt>
      <trkpt lat="46.12224" lon="4.40393">
        <ele>727.8</ele>
        <time>2025-09-28T12:32:23Z</time>
      </trkpt>
      <trkpt lat="46.12227" lon="4.40389">
        <ele>728.2</ele>
        <time>2025-09-28T12:32:24Z</time>
      </trkpt>
      <trkpt lat="46.1223" lon="4.40386">
        <ele>728.4</ele>
        <time>2025-09-28T12:32:25Z</time>
      </trkpt>
      <trkpt lat="46.12233" lon="4.40382">
        <ele>728.4</ele>
        <time>2025-09-28T12:32:26Z</time>
      </trkpt>
      <trkpt lat="46.12237" lon="4.40379">
        <ele>728.4</ele>
        <time>2025-09-28T12:32:27Z</time>
      </trkpt>
      <trkpt lat="46.1224" lon="4.40375">
        <ele>728.8</ele>
        <time>2025-09-28T12:32:28Z</time>
      </trkpt>
      <trkpt lat="46.12243" lon="4.40371">
        <ele>728.8</ele>
        <time>2025-09-28T12:32:29Z</time>
      </trkpt>
      <trkpt lat="46.12246" lon="4.40368">
        <ele>728.8</ele>
        <time>2025-09-28T12:32:30Z</time>
      </trkpt>
      <trkpt lat="46.12249" lon="4.40364">
        <ele>729.2</ele>
        <time>2025-09-28T12:32:31Z</time>
      </trkpt>
      <trkpt lat="46.12251" lon="4.4036">
        <ele>729.4</ele>
        <time>2025-09-28T12:32:32Z</time>
      </trkpt>
      <trkpt lat="46.12253" lon="4.40357">
        <ele>729.8</ele>
        <time>2025-09-28T12:32:33Z</time>
      </trkpt>
      <trkpt lat="46.12255" lon="4.40354">
        <ele>730</ele>
        <time>2025-09-28T12:32:34Z</time>
      </trkpt>
      <trkpt lat="46.12257" lon="4.40351">
        <ele>730.4</ele>
        <time>2025-09-28T12:32:35Z</time>
      </trkpt>
      <trkpt lat="46.12259" lon="4.40348">
        <ele>730.6</ele>
        <time>2025-09-28T12:32:36Z</time>
      </trkpt>
      <trkpt lat="46.12261" lon="4.40345">
        <ele>730.6</ele>
        <time>2025-09-28T12:32:37Z</time>
      </trkpt>
      <trkpt lat="46.12263" lon="4.40342">
        <ele>730.8</ele>
        <time>2025-09-28T12:32:38Z</time>
      </trkpt>
      <trkpt lat="46.12265" lon="4.40339">
        <ele>730.8</ele>
        <time>2025-09-28T12:32:39Z</time>
      </trkpt>
      <trkpt lat="46.12267" lon="4.40336">
        <ele>730.8</ele>
        <time>2025-09-28T12:32:40Z</time>
      </trkpt>
      <trkpt lat="46.12269" lon="4.40332">
        <ele>731.2</ele>
        <time>2025-09-28T12:32:41Z</time>
      </trkpt>
      <trkpt lat="46.12271" lon="4.40328">
        <ele>731.2</ele>
        <time>2025-09-28T12:32:42Z</time>
      </trkpt>
      <trkpt lat="46.12273" lon="4.40323">
        <ele>731.2</ele>
        <time>2025-09-28T12:32:43Z</time>
      </trkpt>
      <trkpt lat="46.12274" lon="4.40318">
        <ele>731.2</ele>
        <time>2025-09-28T12:32:44Z</time>
      </trkpt>
      <trkpt lat="46.12275" lon="4.40313">
        <ele>731.2</ele>
        <time>2025-09-28T12:32:45Z</time>
      </trkpt>
      <trkpt lat="46.12275" lon="4.40307">
        <ele>731.2</ele>
        <time>2025-09-28T12:32:46Z</time>
      </trkpt>
      <trkpt lat="46.12276" lon="4.40301">
        <ele>731.2</ele>
        <time>2025-09-28T12:32:47Z</time>
      </trkpt>
      <trkpt lat="46.12275" lon="4.40294">
        <ele>731</ele>
        <time>2025-09-28T12:32:48Z</time>
      </trkpt>
      <trkpt lat="46.12275" lon="4.40287">
        <ele>730.6</ele>
        <time>2025-09-28T12:32:49Z</time>
      </trkpt>
      <trkpt lat="46.12275" lon="4.40279">
        <ele>730.2</ele>
        <time>2025-09-28T12:32:50Z</time>
      </trkpt>
      <trkpt lat="46.12275" lon="4.40273">
        <ele>729.8</ele>
        <time>2025-09-28T12:32:51Z</time>
      </trkpt>
      <trkpt lat="46.12275" lon="4.40264">
        <ele>729.8</ele>
        <time>2025-09-28T12:32:52Z</time>
      </trkpt>
      <trkpt lat="46.12275" lon="4.40257">
        <ele>729.4</ele>
        <time>2025-09-28T12:32:53Z</time>
      </trkpt>
      <trkpt lat="46.12273" lon="4.4025">
        <ele>728.8</ele>
        <time>2025-09-28T12:32:54Z</time>
      </trkpt>
      <trkpt lat="46.12273" lon="4.40243">
        <ele>728.2</ele>
        <time>2025-09-28T12:32:55Z</time>
      </trkpt>
      <trkpt lat="46.12273" lon="4.40234">
        <ele>727.6</ele>
        <time>2025-09-28T12:32:56Z</time>
      </trkpt>
      <trkpt lat="46.12276" lon="4.40227">
        <ele>727</ele>
        <time>2025-09-28T12:32:57Z</time>
      </trkpt>
      <trkpt lat="46.12278" lon="4.4022">
        <ele>726.6</ele>
        <time>2025-09-28T12:32:58Z</time>
      </trkpt>
      <trkpt lat="46.12283" lon="4.40214">
        <ele>726.2</ele>
        <time>2025-09-28T12:32:59Z</time>
      </trkpt>
      <trkpt lat="46.12286" lon="4.40208">
        <ele>726.2</ele>
        <time>2025-09-28T12:33:00Z</time>
      </trkpt>
      <trkpt lat="46.1229" lon="4.40203">
        <ele>726.2</ele>
        <time>2025-09-28T12:33:01Z</time>
      </trkpt>
      <trkpt lat="46.12293" lon="4.40198">
        <ele>726.2</ele>
        <time>2025-09-28T12:33:02Z</time>
      </trkpt>
      <trkpt lat="46.12296" lon="4.40196">
        <ele>726.4</ele>
        <time>2025-09-28T12:33:03Z</time>
      </trkpt>
      <trkpt lat="46.12299" lon="4.40192">
        <ele>726.6</ele>
        <time>2025-09-28T12:33:04Z</time>
      </trkpt>
      <trkpt lat="46.12299" lon="4.40192">
        <ele>726.6</ele>
        <time>2025-09-28T12:33:05Z</time>
      </trkpt>
      <trkpt lat="46.12303" lon="4.4019">
        <ele>727</ele>
        <time>2025-09-28T12:33:06Z</time>
      </trkpt>
      <trkpt lat="46.12306" lon="4.40187">
        <ele>727.4</ele>
        <time>2025-09-28T12:33:07Z</time>
      </trkpt>
      <trkpt lat="46.12308" lon="4.40183">
        <ele>727.6</ele>
        <time>2025-09-28T12:33:08Z</time>
      </trkpt>
      <trkpt lat="46.1231" lon="4.40181">
        <ele>728</ele>
        <time>2025-09-28T12:33:09Z</time>
      </trkpt>
      <trkpt lat="46.12312" lon="4.40177">
        <ele>728.2</ele>
        <time>2025-09-28T12:33:10Z</time>
      </trkpt>
      <trkpt lat="46.12314" lon="4.40175">
        <ele>728.6</ele>
        <time>2025-09-28T12:33:11Z</time>
      </trkpt>
      <trkpt lat="46.12316" lon="4.40171">
        <ele>728.6</ele>
        <time>2025-09-28T12:33:12Z</time>
      </trkpt>
      <trkpt lat="46.12317" lon="4.40168">
        <ele>729</ele>
        <time>2025-09-28T12:33:13Z</time>
      </trkpt>
      <trkpt lat="46.12319" lon="4.40164">
        <ele>729</ele>
        <time>2025-09-28T12:33:14Z</time>
      </trkpt>
      <trkpt lat="46.12321" lon="4.4016">
        <ele>729.4</ele>
        <time>2025-09-28T12:33:15Z</time>
      </trkpt>
      <trkpt lat="46.12323" lon="4.40156">
        <ele>729.4</ele>
        <time>2025-09-28T12:33:16Z</time>
      </trkpt>
      <trkpt lat="46.12325" lon="4.40152">
        <ele>729.6</ele>
        <time>2025-09-28T12:33:17Z</time>
      </trkpt>
      <trkpt lat="46.12328" lon="4.40148">
        <ele>729.6</ele>
        <time>2025-09-28T12:33:18Z</time>
      </trkpt>
      <trkpt lat="46.1233" lon="4.40143">
        <ele>729.6</ele>
        <time>2025-09-28T12:33:19Z</time>
      </trkpt>
      <trkpt lat="46.12332" lon="4.40138">
        <ele>729.6</ele>
        <time>2025-09-28T12:33:20Z</time>
      </trkpt>
      <trkpt lat="46.12334" lon="4.40133">
        <ele>729.6</ele>
        <time>2025-09-28T12:33:21Z</time>
      </trkpt>
      <trkpt lat="46.12337" lon="4.40127">
        <ele>730</ele>
        <time>2025-09-28T12:33:22Z</time>
      </trkpt>
      <trkpt lat="46.12339" lon="4.40121">
        <ele>730</ele>
        <time>2025-09-28T12:33:23Z</time>
      </trkpt>
      <trkpt lat="46.12341" lon="4.40115">
        <ele>730</ele>
        <time>2025-09-28T12:33:24Z</time>
      </trkpt>
      <trkpt lat="46.12344" lon="4.40109">
        <ele>729.6</ele>
        <time>2025-09-28T12:33:25Z</time>
      </trkpt>
      <trkpt lat="46.12347" lon="4.40103">
        <ele>729.6</ele>
        <time>2025-09-28T12:33:26Z</time>
      </trkpt>
      <trkpt lat="46.1235" lon="4.40097">
        <ele>729.6</ele>
        <time>2025-09-28T12:33:27Z</time>
      </trkpt>
      <trkpt lat="46.12353" lon="4.40091">
        <ele>729.6</ele>
        <time>2025-09-28T12:33:28Z</time>
      </trkpt>
      <trkpt lat="46.12356" lon="4.40086">
        <ele>729.6</ele>
        <time>2025-09-28T12:33:29Z</time>
      </trkpt>
      <trkpt lat="46.12359" lon="4.40081">
        <ele>729.4</ele>
        <time>2025-09-28T12:33:30Z</time>
      </trkpt>
      <trkpt lat="46.12362" lon="4.40077">
        <ele>729.4</ele>
        <time>2025-09-28T12:33:31Z</time>
      </trkpt>
      <trkpt lat="46.12365" lon="4.40072">
        <ele>729.8</ele>
        <time>2025-09-28T12:33:32Z</time>
      </trkpt>
      <trkpt lat="46.12367" lon="4.40069">
        <ele>729.8</ele>
        <time>2025-09-28T12:33:33Z</time>
      </trkpt>
      <trkpt lat="46.1237" lon="4.40065">
        <ele>729.8</ele>
        <time>2025-09-28T12:33:34Z</time>
      </trkpt>
      <trkpt lat="46.12374" lon="4.40062">
        <ele>729.8</ele>
        <time>2025-09-28T12:33:35Z</time>
      </trkpt>
      <trkpt lat="46.12378" lon="4.40058">
        <ele>729.8</ele>
        <time>2025-09-28T12:33:36Z</time>
      </trkpt>
      <trkpt lat="46.12383" lon="4.40054">
        <ele>729.6</ele>
        <time>2025-09-28T12:33:37Z</time>
      </trkpt>
      <trkpt lat="46.12388" lon="4.40051">
        <ele>729.6</ele>
        <time>2025-09-28T12:33:38Z</time>
      </trkpt>
      <trkpt lat="46.12393" lon="4.40049">
        <ele>729.6</ele>
        <time>2025-09-28T12:33:39Z</time>
      </trkpt>
      <trkpt lat="46.12398" lon="4.40047">
        <ele>729.2</ele>
        <time>2025-09-28T12:33:40Z</time>
      </trkpt>
      <trkpt lat="46.12403" lon="4.40046">
        <ele>729.2</ele>
        <time>2025-09-28T12:33:41Z</time>
      </trkpt>
      <trkpt lat="46.12408" lon="4.40045">
        <ele>729.2</ele>
        <time>2025-09-28T12:33:42Z</time>
      </trkpt>
      <trkpt lat="46.12413" lon="4.40045">
        <ele>729.2</ele>
        <time>2025-09-28T12:33:43Z</time>
      </trkpt>
      <trkpt lat="46.12419" lon="4.40046">
        <ele>729.2</ele>
        <time>2025-09-28T12:33:44Z</time>
      </trkpt>
      <trkpt lat="46.12425" lon="4.40047">
        <ele>729</ele>
        <time>2025-09-28T12:33:45Z</time>
      </trkpt>
      <trkpt lat="46.1243" lon="4.40048">
        <ele>729</ele>
        <time>2025-09-28T12:33:46Z</time>
      </trkpt>
      <trkpt lat="46.12435" lon="4.40051">
        <ele>728.6</ele>
        <time>2025-09-28T12:33:47Z</time>
      </trkpt>
      <trkpt lat="46.12439" lon="4.40055">
        <ele>728.4</ele>
        <time>2025-09-28T12:33:48Z</time>
      </trkpt>
      <trkpt lat="46.12443" lon="4.4006">
        <ele>728.4</ele>
        <time>2025-09-28T12:33:49Z</time>
      </trkpt>
      <trkpt lat="46.12446" lon="4.40064">
        <ele>728.4</ele>
        <time>2025-09-28T12:33:50Z</time>
      </trkpt>
      <trkpt lat="46.12449" lon="4.4007">
        <ele>728.2</ele>
        <time>2025-09-28T12:33:51Z</time>
      </trkpt>
      <trkpt lat="46.12452" lon="4.40074">
        <ele>728.4</ele>
        <time>2025-09-28T12:33:52Z</time>
      </trkpt>
      <trkpt lat="46.12455" lon="4.40079">
        <ele>728.8</ele>
        <time>2025-09-28T12:33:53Z</time>
      </trkpt>
      <trkpt lat="46.12458" lon="4.40083">
        <ele>728.8</ele>
        <time>2025-09-28T12:33:54Z</time>
      </trkpt>
      <trkpt lat="46.12461" lon="4.40088">
        <ele>729</ele>
        <time>2025-09-28T12:33:55Z</time>
      </trkpt>
      <trkpt lat="46.12465" lon="4.40093">
        <ele>729</ele>
        <time>2025-09-28T12:33:56Z</time>
      </trkpt>
      <trkpt lat="46.12468" lon="4.40099">
        <ele>729.2</ele>
        <time>2025-09-28T12:33:57Z</time>
      </trkpt>
      <trkpt lat="46.12471" lon="4.40104">
        <ele>729.2</ele>
        <time>2025-09-28T12:33:58Z</time>
      </trkpt>
      <trkpt lat="46.12474" lon="4.40109">
        <ele>729.2</ele>
        <time>2025-09-28T12:33:59Z</time>
      </trkpt>
      <trkpt lat="46.12478" lon="4.40114">
        <ele>729.2</ele>
        <time>2025-09-28T12:34:00Z</time>
      </trkpt>
      <trkpt lat="46.12481" lon="4.40119">
        <ele>729.2</ele>
        <time>2025-09-28T12:34:01Z</time>
      </trkpt>
      <trkpt lat="46.12484" lon="4.40123">
        <ele>729.8</ele>
        <time>2025-09-28T12:34:02Z</time>
      </trkpt>
      <trkpt lat="46.12486" lon="4.40127">
        <ele>729.8</ele>
        <time>2025-09-28T12:34:03Z</time>
      </trkpt>
      <trkpt lat="46.12489" lon="4.40132">
        <ele>729.8</ele>
        <time>2025-09-28T12:34:04Z</time>
      </trkpt>
      <trkpt lat="46.12492" lon="4.40136">
        <ele>730</ele>
        <time>2025-09-28T12:34:05Z</time>
      </trkpt>
      <trkpt lat="46.12494" lon="4.40142">
        <ele>730</ele>
        <time>2025-09-28T12:34:06Z</time>
      </trkpt>
      <trkpt lat="46.12497" lon="4.40146">
        <ele>730.4</ele>
        <time>2025-09-28T12:34:07Z</time>
      </trkpt>
      <trkpt lat="46.125" lon="4.4015">
        <ele>730.6</ele>
        <time>2025-09-28T12:34:08Z</time>
      </trkpt>
      <trkpt lat="46.12503" lon="4.40154">
        <ele>730.8</ele>
        <time>2025-09-28T12:34:09Z</time>
      </trkpt>
      <trkpt lat="46.12505" lon="4.40158">
        <ele>730.8</ele>
        <time>2025-09-28T12:34:10Z</time>
      </trkpt>
      <trkpt lat="46.12508" lon="4.40162">
        <ele>731.2</ele>
        <time>2025-09-28T12:34:11Z</time>
      </trkpt>
      <trkpt lat="46.12511" lon="4.40165">
        <ele>731.4</ele>
        <time>2025-09-28T12:34:12Z</time>
      </trkpt>
      <trkpt lat="46.12513" lon="4.40169">
        <ele>731.4</ele>
        <time>2025-09-28T12:34:13Z</time>
      </trkpt>
      <trkpt lat="46.12515" lon="4.40173">
        <ele>732</ele>
        <time>2025-09-28T12:34:14Z</time>
      </trkpt>
      <trkpt lat="46.12517" lon="4.40176">
        <ele>732.2</ele>
        <time>2025-09-28T12:34:15Z</time>
      </trkpt>
      <trkpt lat="46.1252" lon="4.40179">
        <ele>732.4</ele>
        <time>2025-09-28T12:34:16Z</time>
      </trkpt>
      <trkpt lat="46.12522" lon="4.40182">
        <ele>732.4</ele>
        <time>2025-09-28T12:34:17Z</time>
      </trkpt>
      <trkpt lat="46.12524" lon="4.40185">
        <ele>732.8</ele>
        <time>2025-09-28T12:34:18Z</time>
      </trkpt>
      <trkpt lat="46.12526" lon="4.40188">
        <ele>733</ele>
        <time>2025-09-28T12:34:19Z</time>
      </trkpt>
      <trkpt lat="46.12528" lon="4.40191">
        <ele>733</ele>
        <time>2025-09-28T12:34:20Z</time>
      </trkpt>
      <trkpt lat="46.12531" lon="4.40195">
        <ele>733.4</ele>
        <time>2025-09-28T12:34:21Z</time>
      </trkpt>
      <trkpt lat="46.12533" lon="4.40198">
        <ele>733.6</ele>
        <time>2025-09-28T12:34:22Z</time>
      </trkpt>
      <trkpt lat="46.12535" lon="4.40201">
        <ele>733.6</ele>
        <time>2025-09-28T12:34:23Z</time>
      </trkpt>
      <trkpt lat="46.12538" lon="4.40204">
        <ele>733.8</ele>
        <time>2025-09-28T12:34:24Z</time>
      </trkpt>
      <trkpt lat="46.1254" lon="4.40207">
        <ele>733.8</ele>
        <time>2025-09-28T12:34:25Z</time>
      </trkpt>
      <trkpt lat="46.12543" lon="4.40209">
        <ele>733.8</ele>
        <time>2025-09-28T12:34:26Z</time>
      </trkpt>
      <trkpt lat="46.12546" lon="4.40212">
        <ele>734.2</ele>
        <time>2025-09-28T12:34:27Z</time>
      </trkpt>
      <trkpt lat="46.12549" lon="4.40214">
        <ele>734.4</ele>
        <time>2025-09-28T12:34:28Z</time>
      </trkpt>
      <trkpt lat="46.12551" lon="4.40218">
        <ele>734.6</ele>
        <time>2025-09-28T12:34:29Z</time>
      </trkpt>
      <trkpt lat="46.12552" lon="4.40221">
        <ele>734.6</ele>
        <time>2025-09-28T12:34:30Z</time>
      </trkpt>
      <trkpt lat="46.12554" lon="4.40224">
        <ele>734.8</ele>
        <time>2025-09-28T12:34:31Z</time>
      </trkpt>
      <trkpt lat="46.12557" lon="4.40227">
        <ele>734.8</ele>
        <time>2025-09-28T12:34:32Z</time>
      </trkpt>
      <trkpt lat="46.12559" lon="4.40229">
        <ele>735</ele>
        <time>2025-09-28T12:34:33Z</time>
      </trkpt>
      <trkpt lat="46.12562" lon="4.40231">
        <ele>735</ele>
        <time>2025-09-28T12:34:34Z</time>
      </trkpt>
      <trkpt lat="46.12564" lon="4.40234">
        <ele>735.4</ele>
        <time>2025-09-28T12:34:35Z</time>
      </trkpt>
      <trkpt lat="46.12566" lon="4.40236">
        <ele>735.4</ele>
        <time>2025-09-28T12:34:36Z</time>
      </trkpt>
      <trkpt lat="46.12568" lon="4.40238">
        <ele>735.8</ele>
        <time>2025-09-28T12:34:37Z</time>
      </trkpt>
      <trkpt lat="46.1257" lon="4.4024">
        <ele>735.8</ele>
        <time>2025-09-28T12:34:38Z</time>
      </trkpt>
      <trkpt lat="46.12572" lon="4.40242">
        <ele>736.2</ele>
        <time>2025-09-28T12:34:39Z</time>
      </trkpt>
      <trkpt lat="46.12574" lon="4.40244">
        <ele>736.2</ele>
        <time>2025-09-28T12:34:40Z</time>
      </trkpt>
      <trkpt lat="46.12576" lon="4.40246">
        <ele>736.4</ele>
        <time>2025-09-28T12:34:41Z</time>
      </trkpt>
      <trkpt lat="46.12578" lon="4.40248">
        <ele>736.8</ele>
        <time>2025-09-28T12:34:42Z</time>
      </trkpt>
      <trkpt lat="46.12579" lon="4.4025">
        <ele>736.8</ele>
        <time>2025-09-28T12:34:43Z</time>
      </trkpt>
      <trkpt lat="46.12581" lon="4.40252">
        <ele>737</ele>
        <time>2025-09-28T12:34:44Z</time>
      </trkpt>
      <trkpt lat="46.12584" lon="4.40254">
        <ele>737</ele>
        <time>2025-09-28T12:34:45Z</time>
      </trkpt>
      <trkpt lat="46.12586" lon="4.40256">
        <ele>737.4</ele>
        <time>2025-09-28T12:34:46Z</time>
      </trkpt>
      <trkpt lat="46.12588" lon="4.40258">
        <ele>737.4</ele>
        <time>2025-09-28T12:34:47Z</time>
      </trkpt>
      <trkpt lat="46.1259" lon="4.4026">
        <ele>737.6</ele>
        <time>2025-09-28T12:34:48Z</time>
      </trkpt>
      <trkpt lat="46.12592" lon="4.40262">
        <ele>737.6</ele>
        <time>2025-09-28T12:34:49Z</time>
      </trkpt>
      <trkpt lat="46.12594" lon="4.40264">
        <ele>737.8</ele>
        <time>2025-09-28T12:34:50Z</time>
      </trkpt>
      <trkpt lat="46.12596" lon="4.40266">
        <ele>737.8</ele>
        <time>2025-09-28T12:34:51Z</time>
      </trkpt>
      <trkpt lat="46.12598" lon="4.40268">
        <ele>738</ele>
        <time>2025-09-28T12:34:52Z</time>
      </trkpt>
      <trkpt lat="46.126" lon="4.4027">
        <ele>738</ele>
        <time>2025-09-28T12:34:53Z</time>
      </trkpt>
      <trkpt lat="46.12602" lon="4.40271">
        <ele>738.4</ele>
        <time>2025-09-28T12:34:54Z</time>
      </trkpt>
      <trkpt lat="46.12604" lon="4.40273">
        <ele>738.4</ele>
        <time>2025-09-28T12:34:55Z</time>
      </trkpt>
      <trkpt lat="46.12606" lon="4.40275">
        <ele>738.8</ele>
        <time>2025-09-28T12:34:56Z</time>
      </trkpt>
      <trkpt lat="46.12608" lon="4.40276">
        <ele>738.8</ele>
        <time>2025-09-28T12:34:57Z</time>
      </trkpt>
      <trkpt lat="46.12611" lon="4.40278">
        <ele>738.8</ele>
        <time>2025-09-28T12:34:58Z</time>
      </trkpt>
      <trkpt lat="46.12613" lon="4.4028">
        <ele>739</ele>
        <time>2025-09-28T12:34:59Z</time>
      </trkpt>
      <trkpt lat="46.12615" lon="4.40281">
        <ele>739</ele>
        <time>2025-09-28T12:35:00Z</time>
      </trkpt>
      <trkpt lat="46.12617" lon="4.40283">
        <ele>739</ele>
        <time>2025-09-28T12:35:01Z</time>
      </trkpt>
      <trkpt lat="46.12618" lon="4.40285">
        <ele>739.4</ele>
        <time>2025-09-28T12:35:02Z</time>
      </trkpt>
      <trkpt lat="46.1262" lon="4.40286">
        <ele>739.4</ele>
        <time>2025-09-28T12:35:03Z</time>
      </trkpt>
      <trkpt lat="46.12622" lon="4.40287">
        <ele>739.8</ele>
        <time>2025-09-28T12:35:04Z</time>
      </trkpt>
      <trkpt lat="46.12623" lon="4.40288">
        <ele>739.8</ele>
        <time>2025-09-28T12:35:05Z</time>
      </trkpt>
      <trkpt lat="46.12625" lon="4.4029">
        <ele>740.2</ele>
        <time>2025-09-28T12:35:06Z</time>
      </trkpt>
      <trkpt lat="46.12627" lon="4.40292">
        <ele>740.2</ele>
        <time>2025-09-28T12:35:07Z</time>
      </trkpt>
      <trkpt lat="46.12628" lon="4.40293">
        <ele>740.6</ele>
        <time>2025-09-28T12:35:08Z</time>
      </trkpt>
      <trkpt lat="46.1263" lon="4.40294">
        <ele>740.8</ele>
        <time>2025-09-28T12:35:09Z</time>
      </trkpt>
      <trkpt lat="46.12632" lon="4.40295">
        <ele>741</ele>
        <time>2025-09-28T12:35:10Z</time>
      </trkpt>
      <trkpt lat="46.12634" lon="4.40297">
        <ele>741</ele>
        <time>2025-09-28T12:35:11Z</time>
      </trkpt>
      <trkpt lat="46.12635" lon="4.40298">
        <ele>741.4</ele>
        <time>2025-09-28T12:35:12Z</time>
      </trkpt>
      <trkpt lat="46.12637" lon="4.40299">
        <ele>741.8</ele>
        <time>2025-09-28T12:35:13Z</time>
      </trkpt>
      <trkpt lat="46.12639" lon="4.40301">
        <ele>741.8</ele>
        <time>2025-09-28T12:35:14Z</time>
      </trkpt>
      <trkpt lat="46.12641" lon="4.40302">
        <ele>741.8</ele>
        <time>2025-09-28T12:35:15Z</time>
      </trkpt>
      <trkpt lat="46.12642" lon="4.40303">
        <ele>742</ele>
        <time>2025-09-28T12:35:16Z</time>
      </trkpt>
      <trkpt lat="46.12644" lon="4.40305">
        <ele>742</ele>
        <time>2025-09-28T12:35:17Z</time>
      </trkpt>
      <trkpt lat="46.12646" lon="4.40306">
        <ele>742.4</ele>
        <time>2025-09-28T12:35:18Z</time>
      </trkpt>
      <trkpt lat="46.12647" lon="4.40308">
        <ele>742.4</ele>
        <time>2025-09-28T12:35:19Z</time>
      </trkpt>
      <trkpt lat="46.12649" lon="4.40309">
        <ele>742.6</ele>
        <time>2025-09-28T12:35:20Z</time>
      </trkpt>
      <trkpt lat="46.1265" lon="4.40311">
        <ele>742.6</ele>
        <time>2025-09-28T12:35:21Z</time>
      </trkpt>
      <trkpt lat="46.12654" lon="4.40313">
        <ele>742.8</ele>
        <time>2025-09-28T12:35:22Z</time>
      </trkpt>
      <trkpt lat="46.12655" lon="4.40315">
        <ele>742.8</ele>
        <time>2025-09-28T12:35:23Z</time>
      </trkpt>
      <trkpt lat="46.12656" lon="4.40316">
        <ele>743.2</ele>
        <time>2025-09-28T12:35:24Z</time>
      </trkpt>
      <trkpt lat="46.12658" lon="4.40317">
        <ele>743.2</ele>
        <time>2025-09-28T12:35:25Z</time>
      </trkpt>
      <trkpt lat="46.12659" lon="4.40318">
        <ele>743.6</ele>
        <time>2025-09-28T12:35:26Z</time>
      </trkpt>
      <trkpt lat="46.12661" lon="4.4032">
        <ele>743.6</ele>
        <time>2025-09-28T12:35:27Z</time>
      </trkpt>
      <trkpt lat="46.12662" lon="4.40322">
        <ele>743.6</ele>
        <time>2025-09-28T12:35:28Z</time>
      </trkpt>
      <trkpt lat="46.12664" lon="4.40324">
        <ele>743.8</ele>
        <time>2025-09-28T12:35:29Z</time>
      </trkpt>
      <trkpt lat="46.12666" lon="4.40326">
        <ele>743.8</ele>
        <time>2025-09-28T12:35:30Z</time>
      </trkpt>
      <trkpt lat="46.12667" lon="4.40328">
        <ele>743.8</ele>
        <time>2025-09-28T12:35:31Z</time>
      </trkpt>
      <trkpt lat="46.12668" lon="4.4033">
        <ele>744.2</ele>
        <time>2025-09-28T12:35:32Z</time>
      </trkpt>
      <trkpt lat="46.1267" lon="4.40333">
        <ele>744.2</ele>
        <time>2025-09-28T12:35:33Z</time>
      </trkpt>
      <trkpt lat="46.12671" lon="4.40335">
        <ele>744.2</ele>
        <time>2025-09-28T12:35:34Z</time>
      </trkpt>
      <trkpt lat="46.12672" lon="4.40337">
        <ele>744.2</ele>
        <time>2025-09-28T12:35:35Z</time>
      </trkpt>
      <trkpt lat="46.12674" lon="4.40339">
        <ele>744.6</ele>
        <time>2025-09-28T12:35:36Z</time>
      </trkpt>
      <trkpt lat="46.12675" lon="4.40341">
        <ele>745</ele>
        <time>2025-09-28T12:35:37Z</time>
      </trkpt>
      <trkpt lat="46.12676" lon="4.40343">
        <ele>745</ele>
        <time>2025-09-28T12:35:38Z</time>
      </trkpt>
      <trkpt lat="46.12678" lon="4.40345">
        <ele>745</ele>
        <time>2025-09-28T12:35:39Z</time>
      </trkpt>
      <trkpt lat="46.12679" lon="4.40347">
        <ele>745.2</ele>
        <time>2025-09-28T12:35:40Z</time>
      </trkpt>
      <trkpt lat="46.1268" lon="4.40348">
        <ele>745.2</ele>
        <time>2025-09-28T12:35:41Z</time>
      </trkpt>
      <trkpt lat="46.12681" lon="4.40349">
        <ele>745.4</ele>
        <time>2025-09-28T12:35:42Z</time>
      </trkpt>
      <trkpt lat="46.12683" lon="4.4035">
        <ele>745.4</ele>
        <time>2025-09-28T12:35:43Z</time>
      </trkpt>
      <trkpt lat="46.12684" lon="4.4035">
        <ele>745.8</ele>
        <time>2025-09-28T12:35:44Z</time>
      </trkpt>
      <trkpt lat="46.12685" lon="4.40351">
        <ele>745.8</ele>
        <time>2025-09-28T12:35:45Z</time>
      </trkpt>
      <trkpt lat="46.12686" lon="4.40351">
        <ele>746.2</ele>
        <time>2025-09-28T12:35:46Z</time>
      </trkpt>
      <trkpt lat="46.12688" lon="4.40352">
        <ele>746.2</ele>
        <time>2025-09-28T12:35:47Z</time>
      </trkpt>
      <trkpt lat="46.12689" lon="4.40352">
        <ele>746.4</ele>
        <time>2025-09-28T12:35:48Z</time>
      </trkpt>
      <trkpt lat="46.1269" lon="4.40352">
        <ele>746.4</ele>
        <time>2025-09-28T12:35:49Z</time>
      </trkpt>
      <trkpt lat="46.12692" lon="4.4035">
        <ele>746.4</ele>
        <time>2025-09-28T12:35:50Z</time>
      </trkpt>
      <trkpt lat="46.12692" lon="4.40349">
        <ele>746.6</ele>
        <time>2025-09-28T12:35:51Z</time>
      </trkpt>
      <trkpt lat="46.12692" lon="4.40349">
        <ele>746.6</ele>
        <time>2025-09-28T12:35:52Z</time>
      </trkpt>
      <trkpt lat="46.12692" lon="4.40349">
        <ele>746.6</ele>
        <time>2025-09-28T12:35:53Z</time>
      </trkpt>
      <trkpt lat="46.12692" lon="4.40348">
        <ele>746.8</ele>
        <time>2025-09-28T12:35:54Z</time>
      </trkpt>
      <trkpt lat="46.12692" lon="4.40347">
        <ele>746.8</ele>
        <time>2025-09-28T12:35:55Z</time>
      </trkpt>
      <trkpt lat="46.12696" lon="4.40353">
        <ele>746.6</ele>
        <time>2025-09-28T12:45:35Z</time>
      </trkpt>
      <trkpt lat="46.12697" lon="4.40354">
        <ele>746.6</ele>
        <time>2025-09-28T12:45:36Z</time>
      </trkpt>
      <trkpt lat="46.12697" lon="4.40354">
        <ele>746.8</ele>
        <time>2025-09-28T12:45:37Z</time>
      </trkpt>
      <trkpt lat="46.12697" lon="4.40355">
        <ele>746.8</ele>
        <time>2025-09-28T12:45:38Z</time>
      </trkpt>
      <trkpt lat="46.12697" lon="4.40357">
        <ele>747</ele>
        <time>2025-09-28T12:45:39Z</time>
      </trkpt>
      <trkpt lat="46.12698" lon="4.40358">
        <ele>747</ele>
        <time>2025-09-28T12:45:40Z</time>
      </trkpt>
      <trkpt lat="46.12698" lon="4.40358">
        <ele>747</ele>
        <time>2025-09-28T12:45:41Z</time>
      </trkpt>
      <trkpt lat="46.12697" lon="4.40358">
        <ele>747</ele>
        <time>2025-09-28T12:45:42Z</time>
      </trkpt>
      <trkpt lat="46.12697" lon="4.40358">
        <ele>747</ele>
        <time>2025-09-28T12:45:43Z</time>
      </trkpt>
      <trkpt lat="46.12697" lon="4.4036">
        <ele>747.4</ele>
        <time>2025-09-28T12:45:44Z</time>
      </trkpt>
      <trkpt lat="46.12697" lon="4.40362">
        <ele>747.4</ele>
        <time>2025-09-28T12:45:45Z</time>
      </trkpt>
      <trkpt lat="46.12697" lon="4.40364">
        <ele>747.4</ele>
        <time>2025-09-28T12:45:46Z</time>
      </trkpt>
      <trkpt lat="46.12697" lon="4.40366">
        <ele>747.4</ele>
        <time>2025-09-28T12:45:47Z</time>
      </trkpt>
      <trkpt lat="46.12698" lon="4.40368">
        <ele>747.4</ele>
        <time>2025-09-28T12:45:48Z</time>
      </trkpt>
      <trkpt lat="46.12699" lon="4.40372">
        <ele>747.4</ele>
        <time>2025-09-28T12:45:49Z</time>
      </trkpt>
      <trkpt lat="46.127" lon="4.40374">
        <ele>747.4</ele>
        <time>2025-09-28T12:45:50Z</time>
      </trkpt>
      <trkpt lat="46.12702" lon="4.40375">
        <ele>747.6</ele>
        <time>2025-09-28T12:45:51Z</time>
      </trkpt>
      <trkpt lat="46.12704" lon="4.40376">
        <ele>747.6</ele>
        <time>2025-09-28T12:45:52Z</time>
      </trkpt>
      <trkpt lat="46.12705" lon="4.40378">
        <ele>747.8</ele>
        <time>2025-09-28T12:45:53Z</time>
      </trkpt>
      <trkpt lat="46.12707" lon="4.40379">
        <ele>747.8</ele>
        <time>2025-09-28T12:45:54Z</time>
      </trkpt>
      <trkpt lat="46.12709" lon="4.40381">
        <ele>747.8</ele>
        <time>2025-09-28T12:45:55Z</time>
      </trkpt>
      <trkpt lat="46.1271" lon="4.40382">
        <ele>748</ele>
        <time>2025-09-28T12:45:56Z</time>
      </trkpt>
      <trkpt lat="46.12711" lon="4.40384">
        <ele>748</ele>
        <time>2025-09-28T12:45:57Z</time>
      </trkpt>
      <trkpt lat="46.12713" lon="4.40386">
        <ele>748.4</ele>
        <time>2025-09-28T12:45:58Z</time>
      </trkpt>
      <trkpt lat="46.12714" lon="4.40388">
        <ele>748.6</ele>
        <time>2025-09-28T12:45:59Z</time>
      </trkpt>
      <trkpt lat="46.12716" lon="4.4039">
        <ele>748.6</ele>
        <time>2025-09-28T12:46:00Z</time>
      </trkpt>
      <trkpt lat="46.12717" lon="4.40391">
        <ele>748.6</ele>
        <time>2025-09-28T12:46:01Z</time>
      </trkpt>
      <trkpt lat="46.12718" lon="4.40393">
        <ele>749</ele>
        <time>2025-09-28T12:46:02Z</time>
      </trkpt>
      <trkpt lat="46.1272" lon="4.40394">
        <ele>749</ele>
        <time>2025-09-28T12:46:03Z</time>
      </trkpt>
      <trkpt lat="46.12722" lon="4.40396">
        <ele>749.2</ele>
        <time>2025-09-28T12:46:04Z</time>
      </trkpt>
      <trkpt lat="46.12724" lon="4.40397">
        <ele>749.2</ele>
        <time>2025-09-28T12:46:05Z</time>
      </trkpt>
      <trkpt lat="46.12726" lon="4.40398">
        <ele>749.2</ele>
        <time>2025-09-28T12:46:06Z</time>
      </trkpt>
      <trkpt lat="46.12727" lon="4.404">
        <ele>749.6</ele>
        <time>2025-09-28T12:46:07Z</time>
      </trkpt>
      <trkpt lat="46.12728" lon="4.40401">
        <ele>749.6</ele>
        <time>2025-09-28T12:46:08Z</time>
      </trkpt>
      <trkpt lat="46.12729" lon="4.40403">
        <ele>749.6</ele>
        <time>2025-09-28T12:46:09Z</time>
      </trkpt>
      <trkpt lat="46.12731" lon="4.40405">
        <ele>749.6</ele>
        <time>2025-09-28T12:46:10Z</time>
      </trkpt>
      <trkpt lat="46.12733" lon="4.40407">
        <ele>749.6</ele>
        <time>2025-09-28T12:46:11Z</time>
      </trkpt>
      <trkpt lat="46.12734" lon="4.40408">
        <ele>749.8</ele>
        <time>2025-09-28T12:46:12Z</time>
      </trkpt>
      <trkpt lat="46.12736" lon="4.4041">
        <ele>749.8</ele>
        <time>2025-09-28T12:46:13Z</time>
      </trkpt>
      <trkpt lat="46.12737" lon="4.40412">
        <ele>750.4</ele>
        <time>2025-09-28T12:46:14Z</time>
      </trkpt>
      <trkpt lat="46.12738" lon="4.40414">
        <ele>750.4</ele>
        <time>2025-09-28T12:46:15Z</time>
      </trkpt>
      <trkpt lat="46.1274" lon="4.40416">
        <ele>750.6</ele>
        <time>2025-09-28T12:46:16Z</time>
      </trkpt>
      <trkpt lat="46.12742" lon="4.40418">
        <ele>750.6</ele>
        <time>2025-09-28T12:46:17Z</time>
      </trkpt>
      <trkpt lat="46.12744" lon="4.40419">
        <ele>750.6</ele>
        <time>2025-09-28T12:46:18Z</time>
      </trkpt>
      <trkpt lat="46.12746" lon="4.40422">
        <ele>751</ele>
        <time>2025-09-28T12:46:19Z</time>
      </trkpt>
      <trkpt lat="46.12748" lon="4.40424">
        <ele>751</ele>
        <time>2025-09-28T12:46:20Z</time>
      </trkpt>
      <trkpt lat="46.12749" lon="4.40427">
        <ele>751.2</ele>
        <time>2025-09-28T12:46:21Z</time>
      </trkpt>
      <trkpt lat="46.12751" lon="4.40429">
        <ele>751.2</ele>
        <time>2025-09-28T12:46:22Z</time>
      </trkpt>
      <trkpt lat="46.12752" lon="4.40431">
        <ele>751.2</ele>
        <time>2025-09-28T12:46:23Z</time>
      </trkpt>
      <trkpt lat="46.12754" lon="4.40434">
        <ele>751.6</ele>
        <time>2025-09-28T12:46:24Z</time>
      </trkpt>
      <trkpt lat="46.12756" lon="4.40436">
        <ele>751.6</ele>
        <time>2025-09-28T12:46:25Z</time>
      </trkpt>
      <trkpt lat="46.12757" lon="4.40438">
        <ele>751.8</ele>
        <time>2025-09-28T12:46:26Z</time>
      </trkpt>
      <trkpt lat="46.12759" lon="4.40441">
        <ele>751.8</ele>
        <time>2025-09-28T12:46:27Z</time>
      </trkpt>
      <trkpt lat="46.1276" lon="4.40444">
        <ele>751.8</ele>
        <time>2025-09-28T12:46:28Z</time>
      </trkpt>
      <trkpt lat="46.12762" lon="4.40447">
        <ele>751.8</ele>
        <time>2025-09-28T12:46:29Z</time>
      </trkpt>
      <trkpt lat="46.12764" lon="4.4045">
        <ele>752</ele>
        <time>2025-09-28T12:46:30Z</time>
      </trkpt>
      <trkpt lat="46.12765" lon="4.40452">
        <ele>752</ele>
        <time>2025-09-28T12:46:31Z</time>
      </trkpt>
      <trkpt lat="46.12766" lon="4.40454">
        <ele>752.4</ele>
        <time>2025-09-28T12:46:32Z</time>
      </trkpt>
      <trkpt lat="46.12768" lon="4.40456">
        <ele>752.4</ele>
        <time>2025-09-28T12:46:33Z</time>
      </trkpt>
      <trkpt lat="46.12769" lon="4.40458">
        <ele>752.6</ele>
        <time>2025-09-28T12:46:34Z</time>
      </trkpt>
      <trkpt lat="46.12771" lon="4.4046">
        <ele>752.6</ele>
        <time>2025-09-28T12:46:35Z</time>
      </trkpt>
      <trkpt lat="46.12772" lon="4.40462">
        <ele>753.2</ele>
        <time>2025-09-28T12:46:36Z</time>
      </trkpt>
      <trkpt lat="46.12773" lon="4.40464">
        <ele>753.4</ele>
        <time>2025-09-28T12:46:37Z</time>
      </trkpt>
      <trkpt lat="46.12774" lon="4.40466">
        <ele>753.4</ele>
        <time>2025-09-28T12:46:38Z</time>
      </trkpt>
      <trkpt lat="46.12775" lon="4.40468">
        <ele>753</ele>
        <time>2025-09-28T12:46:39Z</time>
      </trkpt>
      <trkpt lat="46.12776" lon="4.4047">
        <ele>754</ele>
        <time>2025-09-28T12:46:40Z</time>
      </trkpt>
      <trkpt lat="46.12778" lon="4.40471">
        <ele>754.4</ele>
        <time>2025-09-28T12:46:41Z</time>
      </trkpt>
      <trkpt lat="46.12779" lon="4.40473">
        <ele>754.4</ele>
        <time>2025-09-28T12:46:42Z</time>
      </trkpt>
      <trkpt lat="46.12781" lon="4.40474">
        <ele>754.4</ele>
        <time>2025-09-28T12:46:43Z</time>
      </trkpt>
      <trkpt lat="46.12783" lon="4.40475">
        <ele>753.4</ele>
        <time>2025-09-28T12:46:44Z</time>
      </trkpt>
      <trkpt lat="46.12784" lon="4.40477">
        <ele>754</ele>
        <time>2025-09-28T12:46:45Z</time>
      </trkpt>
      <trkpt lat="46.12786" lon="4.40479">
        <ele>754.8</ele>
        <time>2025-09-28T12:46:46Z</time>
      </trkpt>
      <trkpt lat="46.12787" lon="4.40481">
        <ele>755</ele>
        <time>2025-09-28T12:46:47Z</time>
      </trkpt>
      <trkpt lat="46.12789" lon="4.40482">
        <ele>755</ele>
        <time>2025-09-28T12:46:48Z</time>
      </trkpt>
      <trkpt lat="46.12791" lon="4.40483">
        <ele>755</ele>
        <time>2025-09-28T12:46:49Z</time>
      </trkpt>
      <trkpt lat="46.12793" lon="4.40485">
        <ele>755.6</ele>
        <time>2025-09-28T12:46:50Z</time>
      </trkpt>
      <trkpt lat="46.12795" lon="4.40486">
        <ele>755.8</ele>
        <time>2025-09-28T12:46:51Z</time>
      </trkpt>
      <trkpt lat="46.12796" lon="4.40487">
        <ele>755.8</ele>
        <time>2025-09-28T12:46:52Z</time>
      </trkpt>
      <trkpt lat="46.12798" lon="4.40488">
        <ele>755.8</ele>
        <time>2025-09-28T12:46:53Z</time>
      </trkpt>
      <trkpt lat="46.128" lon="4.40489">
        <ele>755.8</ele>
        <time>2025-09-28T12:46:54Z</time>
      </trkpt>
      <trkpt lat="46.12802" lon="4.4049">
        <ele>755.8</ele>
        <time>2025-09-28T12:46:55Z</time>
      </trkpt>
      <trkpt lat="46.12803" lon="4.40492">
        <ele>756.2</ele>
        <time>2025-09-28T12:46:56Z</time>
      </trkpt>
      <trkpt lat="46.12805" lon="4.40493">
        <ele>756.2</ele>
        <time>2025-09-28T12:46:57Z</time>
      </trkpt>
      <trkpt lat="46.12807" lon="4.40495">
        <ele>756.2</ele>
        <time>2025-09-28T12:46:58Z</time>
      </trkpt>
      <trkpt lat="46.12809" lon="4.40496">
        <ele>756.6</ele>
        <time>2025-09-28T12:46:59Z</time>
      </trkpt>
      <trkpt lat="46.12811" lon="4.40497">
        <ele>756.6</ele>
        <time>2025-09-28T12:47:00Z</time>
      </trkpt>
      <trkpt lat="46.12813" lon="4.40498">
        <ele>756.8</ele>
        <time>2025-09-28T12:47:01Z</time>
      </trkpt>
      <trkpt lat="46.12815" lon="4.40499">
        <ele>756.8</ele>
        <time>2025-09-28T12:47:02Z</time>
      </trkpt>
      <trkpt lat="46.12816" lon="4.40501">
        <ele>756.8</ele>
        <time>2025-09-28T12:47:03Z</time>
      </trkpt>
      <trkpt lat="46.12818" lon="4.40503">
        <ele>756.2</ele>
        <time>2025-09-28T12:47:04Z</time>
      </trkpt>
      <trkpt lat="46.1282" lon="4.40504">
        <ele>756.2</ele>
        <time>2025-09-28T12:47:05Z</time>
      </trkpt>
      <trkpt lat="46.12822" lon="4.40506">
        <ele>757.6</ele>
        <time>2025-09-28T12:47:06Z</time>
      </trkpt>
      <trkpt lat="46.12824" lon="4.40507">
        <ele>757.6</ele>
        <time>2025-09-28T12:47:07Z</time>
      </trkpt>
      <trkpt lat="46.12826" lon="4.40507">
        <ele>757.6</ele>
        <time>2025-09-28T12:47:08Z</time>
      </trkpt>
      <trkpt lat="46.12828" lon="4.40508">
        <ele>757.6</ele>
        <time>2025-09-28T12:47:09Z</time>
      </trkpt>
      <trkpt lat="46.1283" lon="4.40509">
        <ele>757.6</ele>
        <time>2025-09-28T12:47:10Z</time>
      </trkpt>
      <trkpt lat="46.12831" lon="4.40511">
        <ele>758</ele>
        <time>2025-09-28T12:47:11Z</time>
      </trkpt>
      <trkpt lat="46.12833" lon="4.40512">
        <ele>758</ele>
        <time>2025-09-28T12:47:12Z</time>
      </trkpt>
      <trkpt lat="46.12835" lon="4.40514">
        <ele>757.6</ele>
        <time>2025-09-28T12:47:13Z</time>
      </trkpt>
      <trkpt lat="46.12836" lon="4.40515">
        <ele>757.6</ele>
        <time>2025-09-28T12:47:14Z</time>
      </trkpt>
      <trkpt lat="46.12838" lon="4.40517">
        <ele>758.6</ele>
        <time>2025-09-28T12:47:15Z</time>
      </trkpt>
      <trkpt lat="46.1284" lon="4.40519">
        <ele>758.6</ele>
        <time>2025-09-28T12:47:16Z</time>
      </trkpt>
      <trkpt lat="46.12841" lon="4.4052">
        <ele>758.6</ele>
        <time>2025-09-28T12:47:17Z</time>
      </trkpt>
      <trkpt lat="46.12842" lon="4.40522">
        <ele>758.8</ele>
        <time>2025-09-28T12:47:18Z</time>
      </trkpt>
      <trkpt lat="46.12844" lon="4.40524">
        <ele>758.8</ele>
        <time>2025-09-28T12:47:19Z</time>
      </trkpt>
      <trkpt lat="46.12845" lon="4.40525">
        <ele>759.2</ele>
        <time>2025-09-28T12:47:20Z</time>
      </trkpt>
      <trkpt lat="46.12847" lon="4.40527">
        <ele>759.4</ele>
        <time>2025-09-28T12:47:21Z</time>
      </trkpt>
      <trkpt lat="46.12849" lon="4.40528">
        <ele>759.6</ele>
        <time>2025-09-28T12:47:22Z</time>
      </trkpt>
      <trkpt lat="46.1285" lon="4.4053">
        <ele>759.8</ele>
        <time>2025-09-28T12:47:23Z</time>
      </trkpt>
      <trkpt lat="46.12852" lon="4.40532">
        <ele>760</ele>
        <time>2025-09-28T12:47:24Z</time>
      </trkpt>
      <trkpt lat="46.12853" lon="4.40533">
        <ele>760.4</ele>
        <time>2025-09-28T12:47:25Z</time>
      </trkpt>
      <trkpt lat="46.12854" lon="4.40535">
        <ele>760.6</ele>
        <time>2025-09-28T12:47:26Z</time>
      </trkpt>
      <trkpt lat="46.12856" lon="4.40537">
        <ele>760.8</ele>
        <time>2025-09-28T12:47:27Z</time>
      </trkpt>
      <trkpt lat="46.12857" lon="4.40538">
        <ele>760.8</ele>
        <time>2025-09-28T12:47:28Z</time>
      </trkpt>
      <trkpt lat="46.12859" lon="4.4054">
        <ele>760.8</ele>
        <time>2025-09-28T12:47:29Z</time>
      </trkpt>
      <trkpt lat="46.1286" lon="4.40541">
        <ele>761.2</ele>
        <time>2025-09-28T12:47:30Z</time>
      </trkpt>
      <trkpt lat="46.12862" lon="4.40543">
        <ele>761.2</ele>
        <time>2025-09-28T12:47:31Z</time>
      </trkpt>
      <trkpt lat="46.12863" lon="4.40545">
        <ele>761.6</ele>
        <time>2025-09-28T12:47:32Z</time>
      </trkpt>
      <trkpt lat="46.12865" lon="4.40547">
        <ele>761.6</ele>
        <time>2025-09-28T12:47:33Z</time>
      </trkpt>
      <trkpt lat="46.12866" lon="4.40549">
        <ele>761.8</ele>
        <time>2025-09-28T12:47:34Z</time>
      </trkpt>
      <trkpt lat="46.12868" lon="4.4055">
        <ele>761.8</ele>
        <time>2025-09-28T12:47:35Z</time>
      </trkpt>
      <trkpt lat="46.12869" lon="4.40552">
        <ele>761.8</ele>
        <time>2025-09-28T12:47:36Z</time>
      </trkpt>
      <trkpt lat="46.12871" lon="4.40553">
        <ele>761.8</ele>
        <time>2025-09-28T12:47:37Z</time>
      </trkpt>
      <trkpt lat="46.12872" lon="4.40555">
        <ele>761.8</ele>
        <time>2025-09-28T12:47:38Z</time>
      </trkpt>
      <trkpt lat="46.12874" lon="4.40557">
        <ele>762.2</ele>
        <time>2025-09-28T12:47:39Z</time>
      </trkpt>
      <trkpt lat="46.12876" lon="4.40558">
        <ele>762.2</ele>
        <time>2025-09-28T12:47:40Z</time>
      </trkpt>
      <trkpt lat="46.12877" lon="4.4056">
        <ele>762.4</ele>
        <time>2025-09-28T12:47:41Z</time>
      </trkpt>
      <trkpt lat="46.12879" lon="4.40562">
        <ele>762.4</ele>
        <time>2025-09-28T12:47:42Z</time>
      </trkpt>
      <trkpt lat="46.1288" lon="4.40563">
        <ele>762.4</ele>
        <time>2025-09-28T12:47:43Z</time>
      </trkpt>
      <trkpt lat="46.12881" lon="4.40565">
        <ele>762.8</ele>
        <time>2025-09-28T12:47:44Z</time>
      </trkpt>
      <trkpt lat="46.12883" lon="4.40566">
        <ele>762.8</ele>
        <time>2025-09-28T12:47:45Z</time>
      </trkpt>
      <trkpt lat="46.12884" lon="4.40568">
        <ele>763.2</ele>
        <time>2025-09-28T12:47:46Z</time>
      </trkpt>
      <trkpt lat="46.12885" lon="4.40569">
        <ele>763.2</ele>
        <time>2025-09-28T12:47:47Z</time>
      </trkpt>
      <trkpt lat="46.12887" lon="4.4057">
        <ele>763.6</ele>
        <time>2025-09-28T12:47:48Z</time>
      </trkpt>
      <trkpt lat="46.12889" lon="4.40572">
        <ele>763.8</ele>
        <time>2025-09-28T12:47:49Z</time>
      </trkpt>
      <trkpt lat="46.1289" lon="4.40573">
        <ele>764</ele>
        <time>2025-09-28T12:47:50Z</time>
      </trkpt>
      <trkpt lat="46.12892" lon="4.40574">
        <ele>764</ele>
        <time>2025-09-28T12:47:51Z</time>
      </trkpt>
      <trkpt lat="46.12893" lon="4.40574">
        <ele>764.4</ele>
        <time>2025-09-28T12:47:52Z</time>
      </trkpt>
      <trkpt lat="46.12895" lon="4.40575">
        <ele>764.6</ele>
        <time>2025-09-28T12:47:53Z</time>
      </trkpt>
      <trkpt lat="46.12897" lon="4.40576">
        <ele>764.8</ele>
        <time>2025-09-28T12:47:54Z</time>
      </trkpt>
      <trkpt lat="46.12898" lon="4.40577">
        <ele>765.2</ele>
        <time>2025-09-28T12:47:55Z</time>
      </trkpt>
      <trkpt lat="46.129" lon="4.40577">
        <ele>765.4</ele>
        <time>2025-09-28T12:47:56Z</time>
      </trkpt>
      <trkpt lat="46.12901" lon="4.40578">
        <ele>765.4</ele>
        <time>2025-09-28T12:47:57Z</time>
      </trkpt>
      <trkpt lat="46.12902" lon="4.40578">
        <ele>765.4</ele>
        <time>2025-09-28T12:47:58Z</time>
      </trkpt>
      <trkpt lat="46.12903" lon="4.40579">
        <ele>765.4</ele>
        <time>2025-09-28T12:47:59Z</time>
      </trkpt>
      <trkpt lat="46.12903" lon="4.40579">
        <ele>765.6</ele>
        <time>2025-09-28T12:48:00Z</time>
      </trkpt>
      <trkpt lat="46.12903" lon="4.40579">
        <ele>765.6</ele>
        <time>2025-09-28T12:48:01Z</time>
      </trkpt>
      <trkpt lat="46.12903" lon="4.40578">
        <ele>765.6</ele>
        <time>2025-09-28T12:48:02Z</time>
      </trkpt>
      <trkpt lat="46.12905" lon="4.40582">
        <ele>766</ele>
        <time>2025-09-28T12:48:09Z</time>
      </trkpt>
      <trkpt lat="46.12905" lon="4.40585">
        <ele>766</ele>
        <time>2025-09-28T12:48:10Z</time>
      </trkpt>
      <trkpt lat="46.12905" lon="4.40587">
        <ele>766</ele>
        <time>2025-09-28T12:48:11Z</time>
      </trkpt>
      <trkpt lat="46.12906" lon="4.4059">
        <ele>766.4</ele>
        <time>2025-09-28T12:48:12Z</time>
      </trkpt>
      <trkpt lat="46.12907" lon="4.40593">
        <ele>765.6</ele>
        <time>2025-09-28T12:48:13Z</time>
      </trkpt>
      <trkpt lat="46.12908" lon="4.40595">
        <ele>765.8</ele>
        <time>2025-09-28T12:48:14Z</time>
      </trkpt>
      <trkpt lat="46.12908" lon="4.40596">
        <ele>765.8</ele>
        <time>2025-09-28T12:48:15Z</time>
      </trkpt>
      <trkpt lat="46.1291" lon="4.40597">
        <ele>765.8</ele>
        <time>2025-09-28T12:48:16Z</time>
      </trkpt>
      <trkpt lat="46.12912" lon="4.40598">
        <ele>766.6</ele>
        <time>2025-09-28T12:48:17Z</time>
      </trkpt>
      <trkpt lat="46.12913" lon="4.40599">
        <ele>766.8</ele>
        <time>2025-09-28T12:48:18Z</time>
      </trkpt>
      <trkpt lat="46.12915" lon="4.406">
        <ele>767.2</ele>
        <time>2025-09-28T12:48:19Z</time>
      </trkpt>
      <trkpt lat="46.12916" lon="4.40602">
        <ele>767.2</ele>
        <time>2025-09-28T12:48:20Z</time>
      </trkpt>
      <trkpt lat="46.12917" lon="4.40604">
        <ele>767.6</ele>
        <time>2025-09-28T12:48:21Z</time>
      </trkpt>
      <trkpt lat="46.12918" lon="4.40606">
        <ele>767.6</ele>
        <time>2025-09-28T12:48:22Z</time>
      </trkpt>
      <trkpt lat="46.12919" lon="4.40608">
        <ele>768.4</ele>
        <time>2025-09-28T12:48:23Z</time>
      </trkpt>
      <trkpt lat="46.12921" lon="4.40611">
        <ele>768.8</ele>
        <time>2025-09-28T12:48:24Z</time>
      </trkpt>
      <trkpt lat="46.12922" lon="4.40614">
        <ele>769</ele>
        <time>2025-09-28T12:48:25Z</time>
      </trkpt>
      <trkpt lat="46.12924" lon="4.40617">
        <ele>769</ele>
        <time>2025-09-28T12:48:26Z</time>
      </trkpt>
      <trkpt lat="46.12925" lon="4.40618">
        <ele>769.6</ele>
        <time>2025-09-28T12:48:27Z</time>
      </trkpt>
      <trkpt lat="46.12926" lon="4.40621">
        <ele>769.6</ele>
        <time>2025-09-28T12:48:28Z</time>
      </trkpt>
      <trkpt lat="46.12928" lon="4.40623">
        <ele>769.6</ele>
        <time>2025-09-28T12:48:29Z</time>
      </trkpt>
      <trkpt lat="46.1293" lon="4.40624">
        <ele>769.6</ele>
        <time>2025-09-28T12:48:30Z</time>
      </trkpt>
      <trkpt lat="46.12931" lon="4.40626">
        <ele>770</ele>
        <time>2025-09-28T12:48:31Z</time>
      </trkpt>
      <trkpt lat="46.12931" lon="4.40627">
        <ele>770.2</ele>
        <time>2025-09-28T12:48:32Z</time>
      </trkpt>
      <trkpt lat="46.12932" lon="4.40628">
        <ele>770.2</ele>
        <time>2025-09-28T12:48:33Z</time>
      </trkpt>
      <trkpt lat="46.12933" lon="4.40629">
        <ele>770.6</ele>
        <time>2025-09-28T12:48:34Z</time>
      </trkpt>
      <trkpt lat="46.12935" lon="4.40631">
        <ele>770.6</ele>
        <time>2025-09-28T12:48:35Z</time>
      </trkpt>
      <trkpt lat="46.12937" lon="4.40631">
        <ele>771</ele>
        <time>2025-09-28T12:48:36Z</time>
      </trkpt>
      <trkpt lat="46.12939" lon="4.40632">
        <ele>770</ele>
        <time>2025-09-28T12:48:37Z</time>
      </trkpt>
      <trkpt lat="46.12941" lon="4.40633">
        <ele>770.4</ele>
        <time>2025-09-28T12:48:38Z</time>
      </trkpt>
      <trkpt lat="46.12942" lon="4.40634">
        <ele>771</ele>
        <time>2025-09-28T12:48:39Z</time>
      </trkpt>
      <trkpt lat="46.12943" lon="4.40635">
        <ele>771.4</ele>
        <time>2025-09-28T12:48:40Z</time>
      </trkpt>
      <trkpt lat="46.12944" lon="4.40636">
        <ele>771.8</ele>
        <time>2025-09-28T12:48:41Z</time>
      </trkpt>
      <trkpt lat="46.12945" lon="4.40637">
        <ele>772</ele>
        <time>2025-09-28T12:48:42Z</time>
      </trkpt>
      <trkpt lat="46.12947" lon="4.40638">
        <ele>772.6</ele>
        <time>2025-09-28T12:48:43Z</time>
      </trkpt>
      <trkpt lat="46.1295" lon="4.40641">
        <ele>772.6</ele>
        <time>2025-09-28T12:48:44Z</time>
      </trkpt>
      <trkpt lat="46.12952" lon="4.40644">
        <ele>773</ele>
        <time>2025-09-28T12:48:45Z</time>
      </trkpt>
      <trkpt lat="46.12953" lon="4.40646">
        <ele>773.2</ele>
        <time>2025-09-28T12:48:46Z</time>
      </trkpt>
      <trkpt lat="46.12954" lon="4.40648">
        <ele>773.4</ele>
        <time>2025-09-28T12:48:47Z</time>
      </trkpt>
      <trkpt lat="46.12955" lon="4.40649">
        <ele>773.4</ele>
        <time>2025-09-28T12:48:48Z</time>
      </trkpt>
      <trkpt lat="46.12957" lon="4.40652">
        <ele>773.6</ele>
        <time>2025-09-28T12:48:49Z</time>
      </trkpt>
      <trkpt lat="46.12958" lon="4.40654">
        <ele>773.6</ele>
        <time>2025-09-28T12:48:50Z</time>
      </trkpt>
      <trkpt lat="46.12959" lon="4.40657">
        <ele>774.2</ele>
        <time>2025-09-28T12:48:51Z</time>
      </trkpt>
      <trkpt lat="46.1296" lon="4.40658">
        <ele>774.2</ele>
        <time>2025-09-28T12:48:52Z</time>
      </trkpt>
      <trkpt lat="46.1296" lon="4.4066">
        <ele>774.4</ele>
        <time>2025-09-28T12:48:53Z</time>
      </trkpt>
      <trkpt lat="46.12961" lon="4.40662">
        <ele>774.4</ele>
        <time>2025-09-28T12:48:54Z</time>
      </trkpt>
      <trkpt lat="46.12963" lon="4.40665">
        <ele>774.8</ele>
        <time>2025-09-28T12:48:55Z</time>
      </trkpt>
      <trkpt lat="46.12964" lon="4.40667">
        <ele>774.8</ele>
        <time>2025-09-28T12:48:56Z</time>
      </trkpt>
      <trkpt lat="46.12966" lon="4.40669">
        <ele>774.8</ele>
        <time>2025-09-28T12:48:57Z</time>
      </trkpt>
      <trkpt lat="46.12968" lon="4.40671">
        <ele>774.8</ele>
        <time>2025-09-28T12:48:58Z</time>
      </trkpt>
      <trkpt lat="46.12969" lon="4.40672">
        <ele>775</ele>
        <time>2025-09-28T12:48:59Z</time>
      </trkpt>
      <trkpt lat="46.12971" lon="4.40674">
        <ele>775</ele>
        <time>2025-09-28T12:49:00Z</time>
      </trkpt>
      <trkpt lat="46.12972" lon="4.40676">
        <ele>775.4</ele>
        <time>2025-09-28T12:49:01Z</time>
      </trkpt>
      <trkpt lat="46.12974" lon="4.40678">
        <ele>775.8</ele>
        <time>2025-09-28T12:49:02Z</time>
      </trkpt>
      <trkpt lat="46.12975" lon="4.40679">
        <ele>775.6</ele>
        <time>2025-09-28T12:49:03Z</time>
      </trkpt>
      <trkpt lat="46.12977" lon="4.40681">
        <ele>775.6</ele>
        <time>2025-09-28T12:49:04Z</time>
      </trkpt>
      <trkpt lat="46.12978" lon="4.40682">
        <ele>775.6</ele>
        <time>2025-09-28T12:49:05Z</time>
      </trkpt>
      <trkpt lat="46.12979" lon="4.40683">
        <ele>775.6</ele>
        <time>2025-09-28T12:49:06Z</time>
      </trkpt>
      <trkpt lat="46.12979" lon="4.40683">
        <ele>775.6</ele>
        <time>2025-09-28T12:49:07Z</time>
      </trkpt>
      <trkpt lat="46.12981" lon="4.40685">
        <ele>775.8</ele>
        <time>2025-09-28T12:49:08Z</time>
      </trkpt>
      <trkpt lat="46.12982" lon="4.40686">
        <ele>776.2</ele>
        <time>2025-09-28T12:49:09Z</time>
      </trkpt>
      <trkpt lat="46.12982" lon="4.40688">
        <ele>776.4</ele>
        <time>2025-09-28T12:49:10Z</time>
      </trkpt>
      <trkpt lat="46.12983" lon="4.4069">
        <ele>776.6</ele>
        <time>2025-09-28T12:49:11Z</time>
      </trkpt>
      <trkpt lat="46.12984" lon="4.40692">
        <ele>776.6</ele>
        <time>2025-09-28T12:49:12Z</time>
      </trkpt>
      <trkpt lat="46.12986" lon="4.40695">
        <ele>776.8</ele>
        <time>2025-09-28T12:49:13Z</time>
      </trkpt>
      <trkpt lat="46.12987" lon="4.40697">
        <ele>777.2</ele>
        <time>2025-09-28T12:49:14Z</time>
      </trkpt>
      <trkpt lat="46.12988" lon="4.40698">
        <ele>777.4</ele>
        <time>2025-09-28T12:49:15Z</time>
      </trkpt>
      <trkpt lat="46.12989" lon="4.40699">
        <ele>777.6</ele>
        <time>2025-09-28T12:49:16Z</time>
      </trkpt>
      <trkpt lat="46.12991" lon="4.40701">
        <ele>777.6</ele>
        <time>2025-09-28T12:49:17Z</time>
      </trkpt>
      <trkpt lat="46.12993" lon="4.40702">
        <ele>777.8</ele>
        <time>2025-09-28T12:49:18Z</time>
      </trkpt>
      <trkpt lat="46.12994" lon="4.40704">
        <ele>777.8</ele>
        <time>2025-09-28T12:49:19Z</time>
      </trkpt>
      <trkpt lat="46.12996" lon="4.40705">
        <ele>778.2</ele>
        <time>2025-09-28T12:49:20Z</time>
      </trkpt>
      <trkpt lat="46.12998" lon="4.40707">
        <ele>778.2</ele>
        <time>2025-09-28T12:49:21Z</time>
      </trkpt>
      <trkpt lat="46.12999" lon="4.40709">
        <ele>778.4</ele>
        <time>2025-09-28T12:49:22Z</time>
      </trkpt>
      <trkpt lat="46.13" lon="4.40711">
        <ele>778.4</ele>
        <time>2025-09-28T12:49:23Z</time>
      </trkpt>
      <trkpt lat="46.13002" lon="4.40713">
        <ele>778.4</ele>
        <time>2025-09-28T12:49:24Z</time>
      </trkpt>
      <trkpt lat="46.13003" lon="4.40714">
        <ele>778.8</ele>
        <time>2025-09-28T12:49:25Z</time>
      </trkpt>
      <trkpt lat="46.13004" lon="4.40715">
        <ele>778.8</ele>
        <time>2025-09-28T12:49:26Z</time>
      </trkpt>
      <trkpt lat="46.13005" lon="4.40716">
        <ele>779.2</ele>
        <time>2025-09-28T12:49:27Z</time>
      </trkpt>
      <trkpt lat="46.13006" lon="4.40717">
        <ele>779.6</ele>
        <time>2025-09-28T12:49:28Z</time>
      </trkpt>
      <trkpt lat="46.13007" lon="4.40719">
        <ele>779.6</ele>
        <time>2025-09-28T12:49:29Z</time>
      </trkpt>
      <trkpt lat="46.13008" lon="4.4072">
        <ele>779.6</ele>
        <time>2025-09-28T12:49:30Z</time>
      </trkpt>
      <trkpt lat="46.1301" lon="4.40721">
        <ele>779.8</ele>
        <time>2025-09-28T12:49:31Z</time>
      </trkpt>
      <trkpt lat="46.13011" lon="4.40722">
        <ele>779.8</ele>
        <time>2025-09-28T12:49:32Z</time>
      </trkpt>
      <trkpt lat="46.13013" lon="4.40724">
        <ele>779.8</ele>
        <time>2025-09-28T12:49:33Z</time>
      </trkpt>
      <trkpt lat="46.13014" lon="4.40725">
        <ele>780</ele>
        <time>2025-09-28T12:49:34Z</time>
      </trkpt>
      <trkpt lat="46.13016" lon="4.40726">
        <ele>780</ele>
        <time>2025-09-28T12:49:35Z</time>
      </trkpt>
      <trkpt lat="46.13017" lon="4.40728">
        <ele>780.4</ele>
        <time>2025-09-28T12:49:36Z</time>
      </trkpt>
      <trkpt lat="46.13019" lon="4.4073">
        <ele>780.6</ele>
        <time>2025-09-28T12:49:37Z</time>
      </trkpt>
      <trkpt lat="46.13021" lon="4.40731">
        <ele>780.6</ele>
        <time>2025-09-28T12:49:38Z</time>
      </trkpt>
      <trkpt lat="46.13022" lon="4.40732">
        <ele>780.8</ele>
        <time>2025-09-28T12:49:39Z</time>
      </trkpt>
      <trkpt lat="46.13023" lon="4.40733">
        <ele>780.4</ele>
        <time>2025-09-28T12:49:40Z</time>
      </trkpt>
      <trkpt lat="46.13024" lon="4.40733">
        <ele>780.4</ele>
        <time>2025-09-28T12:49:41Z</time>
      </trkpt>
      <trkpt lat="46.13025" lon="4.40735">
        <ele>780.4</ele>
        <time>2025-09-28T12:49:42Z</time>
      </trkpt>
      <trkpt lat="46.13027" lon="4.40736">
        <ele>780.8</ele>
        <time>2025-09-28T12:49:43Z</time>
      </trkpt>
      <trkpt lat="46.13028" lon="4.40737">
        <ele>780.8</ele>
        <time>2025-09-28T12:49:44Z</time>
      </trkpt>
      <trkpt lat="46.13029" lon="4.40738">
        <ele>780.8</ele>
        <time>2025-09-28T12:49:45Z</time>
      </trkpt>
      <trkpt lat="46.1303" lon="4.40739">
        <ele>781.4</ele>
        <time>2025-09-28T12:49:46Z</time>
      </trkpt>
      <trkpt lat="46.13032" lon="4.4074">
        <ele>782</ele>
        <time>2025-09-28T12:49:47Z</time>
      </trkpt>
      <trkpt lat="46.13034" lon="4.40742">
        <ele>782</ele>
        <time>2025-09-28T12:49:48Z</time>
      </trkpt>
      <trkpt lat="46.13036" lon="4.40743">
        <ele>782</ele>
        <time>2025-09-28T12:49:49Z</time>
      </trkpt>
      <trkpt lat="46.13037" lon="4.40744">
        <ele>782.2</ele>
        <time>2025-09-28T12:49:50Z</time>
      </trkpt>
      <trkpt lat="46.13039" lon="4.40745">
        <ele>782.2</ele>
        <time>2025-09-28T12:49:51Z</time>
      </trkpt>
      <trkpt lat="46.1304" lon="4.40747">
        <ele>782.2</ele>
        <time>2025-09-28T12:49:52Z</time>
      </trkpt>
      <trkpt lat="46.13042" lon="4.40748">
        <ele>782.2</ele>
        <time>2025-09-28T12:49:53Z</time>
      </trkpt>
      <trkpt lat="46.13045" lon="4.40749">
        <ele>782.6</ele>
        <time>2025-09-28T12:49:54Z</time>
      </trkpt>
      <trkpt lat="46.13047" lon="4.40751">
        <ele>782.6</ele>
        <time>2025-09-28T12:49:55Z</time>
      </trkpt>
      <trkpt lat="46.13049" lon="4.40752">
        <ele>782.6</ele>
        <time>2025-09-28T12:49:56Z</time>
      </trkpt>
      <trkpt lat="46.1305" lon="4.40754">
        <ele>782.6</ele>
        <time>2025-09-28T12:49:57Z</time>
      </trkpt>
      <trkpt lat="46.13052" lon="4.40756">
        <ele>782.6</ele>
        <time>2025-09-28T12:49:58Z</time>
      </trkpt>
      <trkpt lat="46.13053" lon="4.40759">
        <ele>783</ele>
        <time>2025-09-28T12:49:59Z</time>
      </trkpt>
      <trkpt lat="46.13055" lon="4.40761">
        <ele>783</ele>
        <time>2025-09-28T12:50:00Z</time>
      </trkpt>
      <trkpt lat="46.13056" lon="4.40763">
        <ele>783.2</ele>
        <time>2025-09-28T12:50:01Z</time>
      </trkpt>
      <trkpt lat="46.13058" lon="4.40764">
        <ele>783.2</ele>
        <time>2025-09-28T12:50:02Z</time>
      </trkpt>
      <trkpt lat="46.1306" lon="4.40766">
        <ele>783.6</ele>
        <time>2025-09-28T12:50:03Z</time>
      </trkpt>
      <trkpt lat="46.13062" lon="4.40767">
        <ele>783.6</ele>
        <time>2025-09-28T12:50:04Z</time>
      </trkpt>
      <trkpt lat="46.13062" lon="4.40767">
        <ele>784</ele>
        <time>2025-09-28T12:50:05Z</time>
      </trkpt>
      <trkpt lat="46.13064" lon="4.40769">
        <ele>784.2</ele>
        <time>2025-09-28T12:50:06Z</time>
      </trkpt>
      <trkpt lat="46.13066" lon="4.40771">
        <ele>784.4</ele>
        <time>2025-09-28T12:50:07Z</time>
      </trkpt>
      <trkpt lat="46.13068" lon="4.40773">
        <ele>784.4</ele>
        <time>2025-09-28T12:50:08Z</time>
      </trkpt>
      <trkpt lat="46.13069" lon="4.40775">
        <ele>784.4</ele>
        <time>2025-09-28T12:50:09Z</time>
      </trkpt>
      <trkpt lat="46.1307" lon="4.40776">
        <ele>784.8</ele>
        <time>2025-09-28T12:50:10Z</time>
      </trkpt>
      <trkpt lat="46.13071" lon="4.40777">
        <ele>784.8</ele>
        <time>2025-09-28T12:50:11Z</time>
      </trkpt>
      <trkpt lat="46.13072" lon="4.40778">
        <ele>785.2</ele>
        <time>2025-09-28T12:50:12Z</time>
      </trkpt>
      <trkpt lat="46.13074" lon="4.40779">
        <ele>785.2</ele>
        <time>2025-09-28T12:50:13Z</time>
      </trkpt>
      <trkpt lat="46.13076" lon="4.40781">
        <ele>785.2</ele>
        <time>2025-09-28T12:50:14Z</time>
      </trkpt>
      <trkpt lat="46.13078" lon="4.40782">
        <ele>785.6</ele>
        <time>2025-09-28T12:50:15Z</time>
      </trkpt>
      <trkpt lat="46.1308" lon="4.40784">
        <ele>785.6</ele>
        <time>2025-09-28T12:50:16Z</time>
      </trkpt>
      <trkpt lat="46.13082" lon="4.40786">
        <ele>785.6</ele>
        <time>2025-09-28T12:50:17Z</time>
      </trkpt>
      <trkpt lat="46.13083" lon="4.40788">
        <ele>786</ele>
        <time>2025-09-28T12:50:18Z</time>
      </trkpt>
      <trkpt lat="46.13085" lon="4.40789">
        <ele>786.2</ele>
        <time>2025-09-28T12:50:19Z</time>
      </trkpt>
      <trkpt lat="46.13084" lon="4.40788">
        <ele>786.2</ele>
        <time>2025-09-28T12:50:20Z</time>
      </trkpt>
      <trkpt lat="46.13084" lon="4.40787">
        <ele>786.4</ele>
        <time>2025-09-28T12:50:21Z</time>
      </trkpt>
      <trkpt lat="46.13085" lon="4.40788">
        <ele>786.4</ele>
        <time>2025-09-28T12:50:22Z</time>
      </trkpt>
      <trkpt lat="46.13087" lon="4.40789">
        <ele>786.8</ele>
        <time>2025-09-28T12:50:23Z</time>
      </trkpt>
      <trkpt lat="46.13089" lon="4.40791">
        <ele>786.6</ele>
        <time>2025-09-28T12:50:24Z</time>
      </trkpt>
      <trkpt lat="46.13091" lon="4.40793">
        <ele>786.8</ele>
        <time>2025-09-28T12:50:25Z</time>
      </trkpt>
      <trkpt lat="46.13093" lon="4.40795">
        <ele>786.8</ele>
        <time>2025-09-28T12:50:26Z</time>
      </trkpt>
      <trkpt lat="46.13095" lon="4.40797">
        <ele>787.2</ele>
        <time>2025-09-28T12:50:27Z</time>
      </trkpt>
      <trkpt lat="46.13095" lon="4.40798">
        <ele>787.4</ele>
        <time>2025-09-28T12:50:28Z</time>
      </trkpt>
      <trkpt lat="46.13096" lon="4.40799">
        <ele>787.4</ele>
        <time>2025-09-28T12:50:29Z</time>
      </trkpt>
      <trkpt lat="46.13097" lon="4.40801">
        <ele>788</ele>
        <time>2025-09-28T12:50:30Z</time>
      </trkpt>
      <trkpt lat="46.13098" lon="4.40801">
        <ele>788</ele>
        <time>2025-09-28T12:50:31Z</time>
      </trkpt>
      <trkpt lat="46.131" lon="4.40803">
        <ele>788.2</ele>
        <time>2025-09-28T12:50:32Z</time>
      </trkpt>
      <trkpt lat="46.13102" lon="4.40804">
        <ele>788.4</ele>
        <time>2025-09-28T12:50:33Z</time>
      </trkpt>
      <trkpt lat="46.13103" lon="4.40805">
        <ele>788.4</ele>
        <time>2025-09-28T12:50:34Z</time>
      </trkpt>
      <trkpt lat="46.13104" lon="4.40807">
        <ele>788.8</ele>
        <time>2025-09-28T12:50:35Z</time>
      </trkpt>
      <trkpt lat="46.13105" lon="4.40808">
        <ele>788.8</ele>
        <time>2025-09-28T12:50:36Z</time>
      </trkpt>
      <trkpt lat="46.13106" lon="4.4081">
        <ele>789.2</ele>
        <time>2025-09-28T12:50:37Z</time>
      </trkpt>
      <trkpt lat="46.13108" lon="4.40811">
        <ele>789.4</ele>
        <time>2025-09-28T12:50:38Z</time>
      </trkpt>
      <trkpt lat="46.13109" lon="4.40812">
        <ele>789.6</ele>
        <time>2025-09-28T12:50:39Z</time>
      </trkpt>
      <trkpt lat="46.13111" lon="4.40812">
        <ele>789.8</ele>
        <time>2025-09-28T12:50:40Z</time>
      </trkpt>
      <trkpt lat="46.13112" lon="4.40813">
        <ele>790.2</ele>
        <time>2025-09-28T12:50:41Z</time>
      </trkpt>
      <trkpt lat="46.13114" lon="4.40814">
        <ele>790.6</ele>
        <time>2025-09-28T12:50:42Z</time>
      </trkpt>
      <trkpt lat="46.13115" lon="4.40816">
        <ele>790.6</ele>
        <time>2025-09-28T12:50:43Z</time>
      </trkpt>
      <trkpt lat="46.13116" lon="4.40816">
        <ele>790.6</ele>
        <time>2025-09-28T12:50:44Z</time>
      </trkpt>
      <trkpt lat="46.13117" lon="4.40817">
        <ele>790.8</ele>
        <time>2025-09-28T12:50:45Z</time>
      </trkpt>
      <trkpt lat="46.13118" lon="4.40818">
        <ele>790.8</ele>
        <time>2025-09-28T12:50:46Z</time>
      </trkpt>
      <trkpt lat="46.13119" lon="4.40819">
        <ele>791.2</ele>
        <time>2025-09-28T12:50:47Z</time>
      </trkpt>
      <trkpt lat="46.13122" lon="4.4082">
        <ele>791.2</ele>
        <time>2025-09-28T12:50:48Z</time>
      </trkpt>
      <trkpt lat="46.13124" lon="4.40821">
        <ele>791.4</ele>
        <time>2025-09-28T12:50:49Z</time>
      </trkpt>
      <trkpt lat="46.13126" lon="4.40824">
        <ele>791.6</ele>
        <time>2025-09-28T12:50:50Z</time>
      </trkpt>
      <trkpt lat="46.13128" lon="4.40826">
        <ele>792</ele>
        <time>2025-09-28T12:50:51Z</time>
      </trkpt>
      <trkpt lat="46.1313" lon="4.40827">
        <ele>792</ele>
        <time>2025-09-28T12:50:52Z</time>
      </trkpt>
      <trkpt lat="46.13131" lon="4.40829">
        <ele>792.2</ele>
        <time>2025-09-28T12:50:53Z</time>
      </trkpt>
      <trkpt lat="46.13132" lon="4.4083">
        <ele>792.2</ele>
        <time>2025-09-28T12:50:54Z</time>
      </trkpt>
      <trkpt lat="46.13133" lon="4.40831">
        <ele>792.2</ele>
        <time>2025-09-28T12:50:55Z</time>
      </trkpt>
      <trkpt lat="46.13134" lon="4.40832">
        <ele>792.6</ele>
        <time>2025-09-28T12:50:56Z</time>
      </trkpt>
      <trkpt lat="46.13135" lon="4.40834">
        <ele>793</ele>
        <time>2025-09-28T12:50:57Z</time>
      </trkpt>
      <trkpt lat="46.13136" lon="4.40836">
        <ele>793</ele>
        <time>2025-09-28T12:50:58Z</time>
      </trkpt>
      <trkpt lat="46.13137" lon="4.40837">
        <ele>793</ele>
        <time>2025-09-28T12:50:59Z</time>
      </trkpt>
      <trkpt lat="46.13138" lon="4.40839">
        <ele>793.2</ele>
        <time>2025-09-28T12:51:00Z</time>
      </trkpt>
      <trkpt lat="46.1314" lon="4.40841">
        <ele>793.2</ele>
        <time>2025-09-28T12:51:01Z</time>
      </trkpt>
      <trkpt lat="46.13141" lon="4.40842">
        <ele>793.2</ele>
        <time>2025-09-28T12:51:02Z</time>
      </trkpt>
      <trkpt lat="46.13142" lon="4.40843">
        <ele>793.2</ele>
        <time>2025-09-28T12:51:03Z</time>
      </trkpt>
      <trkpt lat="46.13144" lon="4.40844">
        <ele>793.6</ele>
        <time>2025-09-28T12:51:04Z</time>
      </trkpt>
      <trkpt lat="46.13144" lon="4.40845">
        <ele>793.8</ele>
        <time>2025-09-28T12:51:05Z</time>
      </trkpt>
      <trkpt lat="46.13145" lon="4.40845">
        <ele>793.8</ele>
        <time>2025-09-28T12:51:06Z</time>
      </trkpt>
      <trkpt lat="46.13146" lon="4.40845">
        <ele>794</ele>
        <time>2025-09-28T12:51:07Z</time>
      </trkpt>
      <trkpt lat="46.13147" lon="4.40846">
        <ele>794</ele>
        <time>2025-09-28T12:51:08Z</time>
      </trkpt>
      <trkpt lat="46.13147" lon="4.40848">
        <ele>794.4</ele>
        <time>2025-09-28T12:51:09Z</time>
      </trkpt>
      <trkpt lat="46.13148" lon="4.40849">
        <ele>794.4</ele>
        <time>2025-09-28T12:51:10Z</time>
      </trkpt>
      <trkpt lat="46.13147" lon="4.4085">
        <ele>794.4</ele>
        <time>2025-09-28T12:51:11Z</time>
      </trkpt>
      <trkpt lat="46.13148" lon="4.40852">
        <ele>794.6</ele>
        <time>2025-09-28T12:51:12Z</time>
      </trkpt>
      <trkpt lat="46.1315" lon="4.40853">
        <ele>794.6</ele>
        <time>2025-09-28T12:51:13Z</time>
      </trkpt>
      <trkpt lat="46.13151" lon="4.40854">
        <ele>794.8</ele>
        <time>2025-09-28T12:51:14Z</time>
      </trkpt>
      <trkpt lat="46.13151" lon="4.40855">
        <ele>795.2</ele>
        <time>2025-09-28T12:51:15Z</time>
      </trkpt>
      <trkpt lat="46.13152" lon="4.40857">
        <ele>795.2</ele>
        <time>2025-09-28T12:51:16Z</time>
      </trkpt>
      <trkpt lat="46.13153" lon="4.40859">
        <ele>795.4</ele>
        <time>2025-09-28T12:51:17Z</time>
      </trkpt>
      <trkpt lat="46.13154" lon="4.40861">
        <ele>795.8</ele>
        <time>2025-09-28T12:51:18Z</time>
      </trkpt>
      <trkpt lat="46.13155" lon="4.40862">
        <ele>796</ele>
        <time>2025-09-28T12:51:19Z</time>
      </trkpt>
      <trkpt lat="46.13157" lon="4.40864">
        <ele>796</ele>
        <time>2025-09-28T12:51:20Z</time>
      </trkpt>
      <trkpt lat="46.13158" lon="4.40866">
        <ele>796</ele>
        <time>2025-09-28T12:51:21Z</time>
      </trkpt>
      <trkpt lat="46.13159" lon="4.40867">
        <ele>796</ele>
        <time>2025-09-28T12:51:22Z</time>
      </trkpt>
      <trkpt lat="46.1316" lon="4.40869">
        <ele>796</ele>
        <time>2025-09-28T12:51:23Z</time>
      </trkpt>
      <trkpt lat="46.13162" lon="4.4087">
        <ele>796.4</ele>
        <time>2025-09-28T12:51:24Z</time>
      </trkpt>
      <trkpt lat="46.13163" lon="4.40871">
        <ele>796.4</ele>
        <time>2025-09-28T12:51:25Z</time>
      </trkpt>
      <trkpt lat="46.13164" lon="4.40873">
        <ele>796.8</ele>
        <time>2025-09-28T12:51:26Z</time>
      </trkpt>
      <trkpt lat="46.13165" lon="4.40874">
        <ele>796.8</ele>
        <time>2025-09-28T12:51:27Z</time>
      </trkpt>
      <trkpt lat="46.13166" lon="4.40876">
        <ele>797.2</ele>
        <time>2025-09-28T12:51:28Z</time>
      </trkpt>
      <trkpt lat="46.13167" lon="4.40877">
        <ele>797.6</ele>
        <time>2025-09-28T12:51:29Z</time>
      </trkpt>
      <trkpt lat="46.13168" lon="4.40878">
        <ele>797.8</ele>
        <time>2025-09-28T12:51:30Z</time>
      </trkpt>
      <trkpt lat="46.1317" lon="4.40879">
        <ele>798</ele>
        <time>2025-09-28T12:51:31Z</time>
      </trkpt>
      <trkpt lat="46.1317" lon="4.4088">
        <ele>798</ele>
        <time>2025-09-28T12:51:32Z</time>
      </trkpt>
      <trkpt lat="46.13172" lon="4.4088">
        <ele>798</ele>
        <time>2025-09-28T12:51:33Z</time>
      </trkpt>
      <trkpt lat="46.13173" lon="4.40882">
        <ele>798.6</ele>
        <time>2025-09-28T12:51:34Z</time>
      </trkpt>
      <trkpt lat="46.13175" lon="4.40884">
        <ele>798.8</ele>
        <time>2025-09-28T12:51:35Z</time>
      </trkpt>
      <trkpt lat="46.13176" lon="4.40886">
        <ele>799</ele>
        <time>2025-09-28T12:51:36Z</time>
      </trkpt>
      <trkpt lat="46.13177" lon="4.40887">
        <ele>799</ele>
        <time>2025-09-28T12:51:37Z</time>
      </trkpt>
      <trkpt lat="46.13178" lon="4.40888">
        <ele>799</ele>
        <time>2025-09-28T12:51:38Z</time>
      </trkpt>
      <trkpt lat="46.13179" lon="4.40889">
        <ele>799.2</ele>
        <time>2025-09-28T12:51:39Z</time>
      </trkpt>
      <trkpt lat="46.13181" lon="4.4089">
        <ele>799.6</ele>
        <time>2025-09-28T12:51:40Z</time>
      </trkpt>
      <trkpt lat="46.13182" lon="4.40892">
        <ele>799.6</ele>
        <time>2025-09-28T12:51:41Z</time>
      </trkpt>
      <trkpt lat="46.13183" lon="4.40892">
        <ele>800</ele>
        <time>2025-09-28T12:51:42Z</time>
      </trkpt>
      <trkpt lat="46.13184" lon="4.40894">
        <ele>800</ele>
        <time>2025-09-28T12:51:43Z</time>
      </trkpt>
      <trkpt lat="46.13186" lon="4.40896">
        <ele>800</ele>
        <time>2025-09-28T12:51:44Z</time>
      </trkpt>
      <trkpt lat="46.13187" lon="4.40898">
        <ele>800.4</ele>
        <time>2025-09-28T12:51:45Z</time>
      </trkpt>
      <trkpt lat="46.13188" lon="4.40899">
        <ele>800.4</ele>
        <time>2025-09-28T12:51:46Z</time>
      </trkpt>
      <trkpt lat="46.1319" lon="4.40902">
        <ele>800.4</ele>
        <time>2025-09-28T12:51:47Z</time>
      </trkpt>
      <trkpt lat="46.13192" lon="4.40904">
        <ele>800.4</ele>
        <time>2025-09-28T12:51:48Z</time>
      </trkpt>
      <trkpt lat="46.13193" lon="4.40906">
        <ele>800.6</ele>
        <time>2025-09-28T12:51:49Z</time>
      </trkpt>
      <trkpt lat="46.13195" lon="4.40907">
        <ele>800.8</ele>
        <time>2025-09-28T12:51:50Z</time>
      </trkpt>
      <trkpt lat="46.13197" lon="4.40908">
        <ele>800.8</ele>
        <time>2025-09-28T12:51:51Z</time>
      </trkpt>
      <trkpt lat="46.13199" lon="4.40909">
        <ele>801</ele>
        <time>2025-09-28T12:51:52Z</time>
      </trkpt>
      <trkpt lat="46.13201" lon="4.40911">
        <ele>801.4</ele>
        <time>2025-09-28T12:51:53Z</time>
      </trkpt>
      <trkpt lat="46.13203" lon="4.40912">
        <ele>801.4</ele>
        <time>2025-09-28T12:51:54Z</time>
      </trkpt>
      <trkpt lat="46.13204" lon="4.40913">
        <ele>801.6</ele>
        <time>2025-09-28T12:51:55Z</time>
      </trkpt>
      <trkpt lat="46.13206" lon="4.40913">
        <ele>801.6</ele>
        <time>2025-09-28T12:51:56Z</time>
      </trkpt>
      <trkpt lat="46.13207" lon="4.40914">
        <ele>801.6</ele>
        <time>2025-09-28T12:51:57Z</time>
      </trkpt>
      <trkpt lat="46.13209" lon="4.40915">
        <ele>801.6</ele>
        <time>2025-09-28T12:51:58Z</time>
      </trkpt>
      <trkpt lat="46.1321" lon="4.40916">
        <ele>801.6</ele>
        <time>2025-09-28T12:51:59Z</time>
      </trkpt>
      <trkpt lat="46.13211" lon="4.40916">
        <ele>801.8</ele>
        <time>2025-09-28T12:52:00Z</time>
      </trkpt>
      <trkpt lat="46.13213" lon="4.40917">
        <ele>801.8</ele>
        <time>2025-09-28T12:52:01Z</time>
      </trkpt>
      <trkpt lat="46.13214" lon="4.40918">
        <ele>801.6</ele>
        <time>2025-09-28T12:52:02Z</time>
      </trkpt>
      <trkpt lat="46.13215" lon="4.40918">
        <ele>801.8</ele>
        <time>2025-09-28T12:52:03Z</time>
      </trkpt>
      <trkpt lat="46.13217" lon="4.40919">
        <ele>802.2</ele>
        <time>2025-09-28T12:52:04Z</time>
      </trkpt>
      <trkpt lat="46.13218" lon="4.4092">
        <ele>802.2</ele>
        <time>2025-09-28T12:52:05Z</time>
      </trkpt>
      <trkpt lat="46.1322" lon="4.40922">
        <ele>802.4</ele>
        <time>2025-09-28T12:52:06Z</time>
      </trkpt>
      <trkpt lat="46.13222" lon="4.40923">
        <ele>802.4</ele>
        <time>2025-09-28T12:52:07Z</time>
      </trkpt>
      <trkpt lat="46.13223" lon="4.40925">
        <ele>802.4</ele>
        <time>2025-09-28T12:52:08Z</time>
      </trkpt>
      <trkpt lat="46.13225" lon="4.40926">
        <ele>802.4</ele>
        <time>2025-09-28T12:52:09Z</time>
      </trkpt>
      <trkpt lat="46.13227" lon="4.40927">
        <ele>802.8</ele>
        <time>2025-09-28T12:52:10Z</time>
      </trkpt>
      <trkpt lat="46.13228" lon="4.40928">
        <ele>803.2</ele>
        <time>2025-09-28T12:52:11Z</time>
      </trkpt>
      <trkpt lat="46.1323" lon="4.40929">
        <ele>803.4</ele>
        <time>2025-09-28T12:52:12Z</time>
      </trkpt>
      <trkpt lat="46.13232" lon="4.4093">
        <ele>803.4</ele>
        <time>2025-09-28T12:52:13Z</time>
      </trkpt>
      <trkpt lat="46.13233" lon="4.40931">
        <ele>803.4</ele>
        <time>2025-09-28T12:52:14Z</time>
      </trkpt>
      <trkpt lat="46.13235" lon="4.40931">
        <ele>803.8</ele>
        <time>2025-09-28T12:52:15Z</time>
      </trkpt>
      <trkpt lat="46.13236" lon="4.40931">
        <ele>803.8</ele>
        <time>2025-09-28T12:52:16Z</time>
      </trkpt>
      <trkpt lat="46.13238" lon="4.40932">
        <ele>803.8</ele>
        <time>2025-09-28T12:52:17Z</time>
      </trkpt>
      <trkpt lat="46.1324" lon="4.40934">
        <ele>803.4</ele>
        <time>2025-09-28T12:52:18Z</time>
      </trkpt>
      <trkpt lat="46.13242" lon="4.40936">
        <ele>803.6</ele>
        <time>2025-09-28T12:52:19Z</time>
      </trkpt>
      <trkpt lat="46.13244" lon="4.40938">
        <ele>804</ele>
        <time>2025-09-28T12:52:20Z</time>
      </trkpt>
      <trkpt lat="46.13245" lon="4.40939">
        <ele>803.2</ele>
        <time>2025-09-28T12:52:21Z</time>
      </trkpt>
      <trkpt lat="46.13247" lon="4.4094">
        <ele>803.8</ele>
        <time>2025-09-28T12:52:22Z</time>
      </trkpt>
      <trkpt lat="46.13248" lon="4.40942">
        <ele>804.2</ele>
        <time>2025-09-28T12:52:23Z</time>
      </trkpt>
      <trkpt lat="46.1325" lon="4.40944">
        <ele>804.6</ele>
        <time>2025-09-28T12:52:24Z</time>
      </trkpt>
      <trkpt lat="46.13251" lon="4.40946">
        <ele>804.8</ele>
        <time>2025-09-28T12:52:25Z</time>
      </trkpt>
      <trkpt lat="46.13253" lon="4.40948">
        <ele>804.8</ele>
        <time>2025-09-28T12:52:26Z</time>
      </trkpt>
      <trkpt lat="46.13255" lon="4.40949">
        <ele>804.8</ele>
        <time>2025-09-28T12:52:27Z</time>
      </trkpt>
      <trkpt lat="46.13256" lon="4.4095">
        <ele>805.2</ele>
        <time>2025-09-28T12:52:28Z</time>
      </trkpt>
      <trkpt lat="46.13258" lon="4.40951">
        <ele>805</ele>
        <time>2025-09-28T12:52:29Z</time>
      </trkpt>
      <trkpt lat="46.1326" lon="4.40952">
        <ele>805</ele>
        <time>2025-09-28T12:52:30Z</time>
      </trkpt>
      <trkpt lat="46.13262" lon="4.40954">
        <ele>805</ele>
        <time>2025-09-28T12:52:31Z</time>
      </trkpt>
      <trkpt lat="46.13263" lon="4.40956">
        <ele>805.2</ele>
        <time>2025-09-28T12:52:32Z</time>
      </trkpt>
      <trkpt lat="46.13265" lon="4.40957">
        <ele>805.2</ele>
        <time>2025-09-28T12:52:33Z</time>
      </trkpt>
      <trkpt lat="46.13266" lon="4.40959">
        <ele>805.6</ele>
        <time>2025-09-28T12:52:34Z</time>
      </trkpt>
      <trkpt lat="46.13268" lon="4.40961">
        <ele>805.6</ele>
        <time>2025-09-28T12:52:35Z</time>
      </trkpt>
      <trkpt lat="46.13269" lon="4.40962">
        <ele>806</ele>
        <time>2025-09-28T12:52:36Z</time>
      </trkpt>
      <trkpt lat="46.13271" lon="4.40964">
        <ele>806</ele>
        <time>2025-09-28T12:52:37Z</time>
      </trkpt>
      <trkpt lat="46.13272" lon="4.40965">
        <ele>806</ele>
        <time>2025-09-28T12:52:38Z</time>
      </trkpt>
      <trkpt lat="46.13273" lon="4.40967">
        <ele>806.2</ele>
        <time>2025-09-28T12:52:39Z</time>
      </trkpt>
      <trkpt lat="46.13275" lon="4.40968">
        <ele>806.2</ele>
        <time>2025-09-28T12:52:40Z</time>
      </trkpt>
      <trkpt lat="46.13277" lon="4.4097">
        <ele>806.4</ele>
        <time>2025-09-28T12:52:41Z</time>
      </trkpt>
      <trkpt lat="46.13279" lon="4.40971">
        <ele>806.4</ele>
        <time>2025-09-28T12:52:42Z</time>
      </trkpt>
      <trkpt lat="46.13281" lon="4.40972">
        <ele>806.8</ele>
        <time>2025-09-28T12:52:43Z</time>
      </trkpt>
      <trkpt lat="46.13283" lon="4.40974">
        <ele>806.8</ele>
        <time>2025-09-28T12:52:44Z</time>
      </trkpt>
      <trkpt lat="46.13285" lon="4.40976">
        <ele>806.2</ele>
        <time>2025-09-28T12:52:45Z</time>
      </trkpt>
      <trkpt lat="46.13286" lon="4.40977">
        <ele>806.4</ele>
        <time>2025-09-28T12:52:46Z</time>
      </trkpt>
      <trkpt lat="46.13288" lon="4.40978">
        <ele>806.4</ele>
        <time>2025-09-28T12:52:47Z</time>
      </trkpt>
      <trkpt lat="46.13289" lon="4.40979">
        <ele>806.8</ele>
        <time>2025-09-28T12:52:48Z</time>
      </trkpt>
      <trkpt lat="46.13291" lon="4.4098">
        <ele>806.8</ele>
        <time>2025-09-28T12:52:49Z</time>
      </trkpt>
      <trkpt lat="46.13292" lon="4.4098">
        <ele>807.2</ele>
        <time>2025-09-28T12:52:50Z</time>
      </trkpt>
      <trkpt lat="46.13294" lon="4.40981">
        <ele>807.2</ele>
        <time>2025-09-28T12:52:51Z</time>
      </trkpt>
      <trkpt lat="46.13295" lon="4.40982">
        <ele>807.2</ele>
        <time>2025-09-28T12:52:52Z</time>
      </trkpt>
      <trkpt lat="46.13297" lon="4.40983">
        <ele>807.2</ele>
        <time>2025-09-28T12:52:53Z</time>
      </trkpt>
      <trkpt lat="46.13299" lon="4.40985">
        <ele>807.4</ele>
        <time>2025-09-28T12:52:54Z</time>
      </trkpt>
      <trkpt lat="46.13299" lon="4.40986">
        <ele>807.4</ele>
        <time>2025-09-28T12:52:55Z</time>
      </trkpt>
      <trkpt lat="46.13301" lon="4.40987">
        <ele>807.8</ele>
        <time>2025-09-28T12:52:56Z</time>
      </trkpt>
      <trkpt lat="46.13303" lon="4.40988">
        <ele>807.8</ele>
        <time>2025-09-28T12:52:57Z</time>
      </trkpt>
      <trkpt lat="46.13305" lon="4.40991">
        <ele>808</ele>
        <time>2025-09-28T12:52:58Z</time>
      </trkpt>
      <trkpt lat="46.13307" lon="4.40992">
        <ele>808</ele>
        <time>2025-09-28T12:52:59Z</time>
      </trkpt>
      <trkpt lat="46.13309" lon="4.40995">
        <ele>808</ele>
        <time>2025-09-28T12:53:00Z</time>
      </trkpt>
      <trkpt lat="46.13311" lon="4.40997">
        <ele>808.4</ele>
        <time>2025-09-28T12:53:01Z</time>
      </trkpt>
      <trkpt lat="46.13312" lon="4.40998">
        <ele>808.4</ele>
        <time>2025-09-28T12:53:02Z</time>
      </trkpt>
      <trkpt lat="46.13314" lon="4.41">
        <ele>808.8</ele>
        <time>2025-09-28T12:53:03Z</time>
      </trkpt>
      <trkpt lat="46.13315" lon="4.41001">
        <ele>808.8</ele>
        <time>2025-09-28T12:53:04Z</time>
      </trkpt>
      <trkpt lat="46.13316" lon="4.41002">
        <ele>808.8</ele>
        <time>2025-09-28T12:53:05Z</time>
      </trkpt>
      <trkpt lat="46.13317" lon="4.41002">
        <ele>808.8</ele>
        <time>2025-09-28T12:53:06Z</time>
      </trkpt>
      <trkpt lat="46.13319" lon="4.41002">
        <ele>809.2</ele>
        <time>2025-09-28T12:53:07Z</time>
      </trkpt>
      <trkpt lat="46.13321" lon="4.41003">
        <ele>809.4</ele>
        <time>2025-09-28T12:53:08Z</time>
      </trkpt>
      <trkpt lat="46.13323" lon="4.41005">
        <ele>809.4</ele>
        <time>2025-09-28T12:53:09Z</time>
      </trkpt>
      <trkpt lat="46.13324" lon="4.41006">
        <ele>809.6</ele>
        <time>2025-09-28T12:53:10Z</time>
      </trkpt>
      <trkpt lat="46.13325" lon="4.41008">
        <ele>809.6</ele>
        <time>2025-09-28T12:53:11Z</time>
      </trkpt>
      <trkpt lat="46.13327" lon="4.4101">
        <ele>809.6</ele>
        <time>2025-09-28T12:53:12Z</time>
      </trkpt>
      <trkpt lat="46.13328" lon="4.41012">
        <ele>809.8</ele>
        <time>2025-09-28T12:53:13Z</time>
      </trkpt>
      <trkpt lat="46.13329" lon="4.41013">
        <ele>810.2</ele>
        <time>2025-09-28T12:53:14Z</time>
      </trkpt>
      <trkpt lat="46.13331" lon="4.41014">
        <ele>810.2</ele>
        <time>2025-09-28T12:53:15Z</time>
      </trkpt>
      <trkpt lat="46.13332" lon="4.41016">
        <ele>810.2</ele>
        <time>2025-09-28T12:53:16Z</time>
      </trkpt>
      <trkpt lat="46.13335" lon="4.41017">
        <ele>810.4</ele>
        <time>2025-09-28T12:53:17Z</time>
      </trkpt>
      <trkpt lat="46.13336" lon="4.41019">
        <ele>810.8</ele>
        <time>2025-09-28T12:53:18Z</time>
      </trkpt>
      <trkpt lat="46.13338" lon="4.41021">
        <ele>810.8</ele>
        <time>2025-09-28T12:53:19Z</time>
      </trkpt>
      <trkpt lat="46.1334" lon="4.41023">
        <ele>810.8</ele>
        <time>2025-09-28T12:53:20Z</time>
      </trkpt>
      <trkpt lat="46.13343" lon="4.41025">
        <ele>810.8</ele>
        <time>2025-09-28T12:53:21Z</time>
      </trkpt>
      <trkpt lat="46.13344" lon="4.41025">
        <ele>810.8</ele>
        <time>2025-09-28T12:53:22Z</time>
      </trkpt>
      <trkpt lat="46.13345" lon="4.41026">
        <ele>811</ele>
        <time>2025-09-28T12:53:23Z</time>
      </trkpt>
      <trkpt lat="46.13347" lon="4.41027">
        <ele>811</ele>
        <time>2025-09-28T12:53:24Z</time>
      </trkpt>
      <trkpt lat="46.13349" lon="4.41028">
        <ele>811.2</ele>
        <time>2025-09-28T12:53:25Z</time>
      </trkpt>
      <trkpt lat="46.13351" lon="4.4103">
        <ele>811.6</ele>
        <time>2025-09-28T12:53:26Z</time>
      </trkpt>
      <trkpt lat="46.13352" lon="4.41031">
        <ele>811.6</ele>
        <time>2025-09-28T12:53:27Z</time>
      </trkpt>
      <trkpt lat="46.13353" lon="4.41032">
        <ele>811.6</ele>
        <time>2025-09-28T12:53:28Z</time>
      </trkpt>
      <trkpt lat="46.13354" lon="4.41034">
        <ele>811.6</ele>
        <time>2025-09-28T12:53:29Z</time>
      </trkpt>
      <trkpt lat="46.13355" lon="4.41036">
        <ele>811.8</ele>
        <time>2025-09-28T12:53:30Z</time>
      </trkpt>
      <trkpt lat="46.13356" lon="4.41038">
        <ele>812.2</ele>
        <time>2025-09-28T12:53:31Z</time>
      </trkpt>
      <trkpt lat="46.13358" lon="4.41039">
        <ele>812.6</ele>
        <time>2025-09-28T12:53:32Z</time>
      </trkpt>
      <trkpt lat="46.1336" lon="4.41041">
        <ele>812.8</ele>
        <time>2025-09-28T12:53:33Z</time>
      </trkpt>
      <trkpt lat="46.13362" lon="4.41043">
        <ele>812.8</ele>
        <time>2025-09-28T12:53:34Z</time>
      </trkpt>
      <trkpt lat="46.13363" lon="4.41044">
        <ele>813.2</ele>
        <time>2025-09-28T12:53:35Z</time>
      </trkpt>
      <trkpt lat="46.13364" lon="4.41045">
        <ele>813.2</ele>
        <time>2025-09-28T12:53:36Z</time>
      </trkpt>
      <trkpt lat="46.13367" lon="4.41047">
        <ele>813.2</ele>
        <time>2025-09-28T12:53:37Z</time>
      </trkpt>
      <trkpt lat="46.1337" lon="4.41049">
        <ele>812.4</ele>
        <time>2025-09-28T12:53:38Z</time>
      </trkpt>
      <trkpt lat="46.13372" lon="4.4105">
        <ele>812.4</ele>
        <time>2025-09-28T12:53:39Z</time>
      </trkpt>
      <trkpt lat="46.13373" lon="4.4105">
        <ele>813.2</ele>
        <time>2025-09-28T12:53:40Z</time>
      </trkpt>
      <trkpt lat="46.13374" lon="4.41052">
        <ele>813.6</ele>
        <time>2025-09-28T12:53:41Z</time>
      </trkpt>
      <trkpt lat="46.13376" lon="4.41054">
        <ele>813.6</ele>
        <time>2025-09-28T12:53:42Z</time>
      </trkpt>
      <trkpt lat="46.13377" lon="4.41056">
        <ele>814</ele>
        <time>2025-09-28T12:53:43Z</time>
      </trkpt>
      <trkpt lat="46.13379" lon="4.41058">
        <ele>814</ele>
        <time>2025-09-28T12:53:44Z</time>
      </trkpt>
      <trkpt lat="46.1338" lon="4.4106">
        <ele>814.4</ele>
        <time>2025-09-28T12:53:45Z</time>
      </trkpt>
      <trkpt lat="46.13381" lon="4.41061">
        <ele>814.4</ele>
        <time>2025-09-28T12:53:46Z</time>
      </trkpt>
      <trkpt lat="46.13383" lon="4.41064">
        <ele>814.6</ele>
        <time>2025-09-28T12:53:47Z</time>
      </trkpt>
      <trkpt lat="46.13385" lon="4.41066">
        <ele>814.6</ele>
        <time>2025-09-28T12:53:48Z</time>
      </trkpt>
      <trkpt lat="46.13387" lon="4.41068">
        <ele>814.6</ele>
        <time>2025-09-28T12:53:49Z</time>
      </trkpt>
      <trkpt lat="46.13389" lon="4.4107">
        <ele>815</ele>
        <time>2025-09-28T12:53:50Z</time>
      </trkpt>
      <trkpt lat="46.13391" lon="4.41072">
        <ele>815.4</ele>
        <time>2025-09-28T12:53:51Z</time>
      </trkpt>
      <trkpt lat="46.13393" lon="4.41073">
        <ele>815.4</ele>
        <time>2025-09-28T12:53:52Z</time>
      </trkpt>
      <trkpt lat="46.13395" lon="4.41075">
        <ele>815.6</ele>
        <time>2025-09-28T12:53:53Z</time>
      </trkpt>
      <trkpt lat="46.13397" lon="4.41076">
        <ele>815.8</ele>
        <time>2025-09-28T12:53:54Z</time>
      </trkpt>
      <trkpt lat="46.13399" lon="4.41078">
        <ele>816.4</ele>
        <time>2025-09-28T12:53:55Z</time>
      </trkpt>
      <trkpt lat="46.13401" lon="4.41079">
        <ele>816.4</ele>
        <time>2025-09-28T12:53:56Z</time>
      </trkpt>
      <trkpt lat="46.13403" lon="4.4108">
        <ele>816.8</ele>
        <time>2025-09-28T12:53:57Z</time>
      </trkpt>
      <trkpt lat="46.13405" lon="4.41081">
        <ele>816.8</ele>
        <time>2025-09-28T12:53:58Z</time>
      </trkpt>
      <trkpt lat="46.13407" lon="4.41083">
        <ele>817.2</ele>
        <time>2025-09-28T12:53:59Z</time>
      </trkpt>
      <trkpt lat="46.13408" lon="4.41085">
        <ele>817.2</ele>
        <time>2025-09-28T12:54:00Z</time>
      </trkpt>
      <trkpt lat="46.1341" lon="4.41086">
        <ele>817.6</ele>
        <time>2025-09-28T12:54:01Z</time>
      </trkpt>
      <trkpt lat="46.13412" lon="4.41088">
        <ele>817.6</ele>
        <time>2025-09-28T12:54:02Z</time>
      </trkpt>
      <trkpt lat="46.13413" lon="4.41089">
        <ele>817.6</ele>
        <time>2025-09-28T12:54:03Z</time>
      </trkpt>
      <trkpt lat="46.13415" lon="4.41091">
        <ele>817.8</ele>
        <time>2025-09-28T12:54:04Z</time>
      </trkpt>
      <trkpt lat="46.13417" lon="4.41093">
        <ele>818</ele>
        <time>2025-09-28T12:54:05Z</time>
      </trkpt>
      <trkpt lat="46.13418" lon="4.41094">
        <ele>818</ele>
        <time>2025-09-28T12:54:06Z</time>
      </trkpt>
      <trkpt lat="46.1342" lon="4.41095">
        <ele>818</ele>
        <time>2025-09-28T12:54:07Z</time>
      </trkpt>
      <trkpt lat="46.13422" lon="4.41096">
        <ele>818.4</ele>
        <time>2025-09-28T12:54:08Z</time>
      </trkpt>
      <trkpt lat="46.13423" lon="4.41098">
        <ele>818</ele>
        <time>2025-09-28T12:54:09Z</time>
      </trkpt>
      <trkpt lat="46.13424" lon="4.41099">
        <ele>818.6</ele>
        <time>2025-09-28T12:54:10Z</time>
      </trkpt>
      <trkpt lat="46.13425" lon="4.411">
        <ele>818.8</ele>
        <time>2025-09-28T12:54:11Z</time>
      </trkpt>
      <trkpt lat="46.13427" lon="4.41101">
        <ele>818.8</ele>
        <time>2025-09-28T12:54:12Z</time>
      </trkpt>
      <trkpt lat="46.13429" lon="4.41102">
        <ele>819</ele>
        <time>2025-09-28T12:54:13Z</time>
      </trkpt>
      <trkpt lat="46.1343" lon="4.41104">
        <ele>819</ele>
        <time>2025-09-28T12:54:14Z</time>
      </trkpt>
      <trkpt lat="46.13431" lon="4.41106">
        <ele>819.4</ele>
        <time>2025-09-28T12:54:15Z</time>
      </trkpt>
      <trkpt lat="46.13433" lon="4.41107">
        <ele>819.4</ele>
        <time>2025-09-28T12:54:16Z</time>
      </trkpt>
      <trkpt lat="46.13435" lon="4.41108">
        <ele>819.8</ele>
        <time>2025-09-28T12:54:17Z</time>
      </trkpt>
      <trkpt lat="46.13437" lon="4.41109">
        <ele>819.8</ele>
        <time>2025-09-28T12:54:18Z</time>
      </trkpt>
      <trkpt lat="46.13439" lon="4.41111">
        <ele>820</ele>
        <time>2025-09-28T12:54:19Z</time>
      </trkpt>
      <trkpt lat="46.13441" lon="4.41113">
        <ele>820</ele>
        <time>2025-09-28T12:54:20Z</time>
      </trkpt>
      <trkpt lat="46.13443" lon="4.41114">
        <ele>820</ele>
        <time>2025-09-28T12:54:21Z</time>
      </trkpt>
      <trkpt lat="46.13444" lon="4.41115">
        <ele>820.4</ele>
        <time>2025-09-28T12:54:22Z</time>
      </trkpt>
      <trkpt lat="46.13446" lon="4.41117">
        <ele>820.4</ele>
        <time>2025-09-28T12:54:23Z</time>
      </trkpt>
      <trkpt lat="46.13448" lon="4.41118">
        <ele>820.8</ele>
        <time>2025-09-28T12:54:24Z</time>
      </trkpt>
      <trkpt lat="46.1345" lon="4.41119">
        <ele>820.8</ele>
        <time>2025-09-28T12:54:25Z</time>
      </trkpt>
      <trkpt lat="46.13451" lon="4.41119">
        <ele>820.8</ele>
        <time>2025-09-28T12:54:26Z</time>
      </trkpt>
      <trkpt lat="46.13453" lon="4.4112">
        <ele>820.8</ele>
        <time>2025-09-28T12:54:27Z</time>
      </trkpt>
      <trkpt lat="46.13455" lon="4.41122">
        <ele>820.8</ele>
        <time>2025-09-28T12:54:28Z</time>
      </trkpt>
      <trkpt lat="46.13458" lon="4.41124">
        <ele>821</ele>
        <time>2025-09-28T12:54:29Z</time>
      </trkpt>
      <trkpt lat="46.1346" lon="4.41126">
        <ele>821</ele>
        <time>2025-09-28T12:54:30Z</time>
      </trkpt>
      <trkpt lat="46.13462" lon="4.41128">
        <ele>821</ele>
        <time>2025-09-28T12:54:31Z</time>
      </trkpt>
      <trkpt lat="46.13463" lon="4.41128">
        <ele>821</ele>
        <time>2025-09-28T12:54:32Z</time>
      </trkpt>
      <trkpt lat="46.13465" lon="4.41129">
        <ele>821</ele>
        <time>2025-09-28T12:54:33Z</time>
      </trkpt>
      <trkpt lat="46.13466" lon="4.41129">
        <ele>821</ele>
        <time>2025-09-28T12:54:34Z</time>
      </trkpt>
      <trkpt lat="46.13469" lon="4.41131">
        <ele>821</ele>
        <time>2025-09-28T12:54:35Z</time>
      </trkpt>
      <trkpt lat="46.13471" lon="4.41132">
        <ele>821</ele>
        <time>2025-09-28T12:54:36Z</time>
      </trkpt>
      <trkpt lat="46.13474" lon="4.41133">
        <ele>821</ele>
        <time>2025-09-28T12:54:37Z</time>
      </trkpt>
      <trkpt lat="46.13477" lon="4.41134">
        <ele>821</ele>
        <time>2025-09-28T12:54:38Z</time>
      </trkpt>
      <trkpt lat="46.1348" lon="4.41136">
        <ele>821</ele>
        <time>2025-09-28T12:54:39Z</time>
      </trkpt>
      <trkpt lat="46.13482" lon="4.41137">
        <ele>821</ele>
        <time>2025-09-28T12:54:40Z</time>
      </trkpt>
      <trkpt lat="46.13485" lon="4.41138">
        <ele>821</ele>
        <time>2025-09-28T12:54:41Z</time>
      </trkpt>
      <trkpt lat="46.13488" lon="4.41139">
        <ele>821.2</ele>
        <time>2025-09-28T12:54:42Z</time>
      </trkpt>
      <trkpt lat="46.13491" lon="4.41141">
        <ele>821.4</ele>
        <time>2025-09-28T12:54:43Z</time>
      </trkpt>
      <trkpt lat="46.13494" lon="4.41141">
        <ele>821.4</ele>
        <time>2025-09-28T12:54:44Z</time>
      </trkpt>
      <trkpt lat="46.13497" lon="4.41142">
        <ele>821.4</ele>
        <time>2025-09-28T12:54:45Z</time>
      </trkpt>
      <trkpt lat="46.135" lon="4.41143">
        <ele>821.4</ele>
        <time>2025-09-28T12:54:46Z</time>
      </trkpt>
      <trkpt lat="46.13504" lon="4.41143">
        <ele>821.4</ele>
        <time>2025-09-28T12:54:47Z</time>
      </trkpt>
      <trkpt lat="46.13506" lon="4.41143">
        <ele>822</ele>
        <time>2025-09-28T12:54:48Z</time>
      </trkpt>
      <trkpt lat="46.13509" lon="4.41143">
        <ele>822</ele>
        <time>2025-09-28T12:54:49Z</time>
      </trkpt>
      <trkpt lat="46.13512" lon="4.41144">
        <ele>822</ele>
        <time>2025-09-28T12:54:50Z</time>
      </trkpt>
      <trkpt lat="46.13515" lon="4.41144">
        <ele>822</ele>
        <time>2025-09-28T12:54:51Z</time>
      </trkpt>
      <trkpt lat="46.13518" lon="4.41145">
        <ele>822.2</ele>
        <time>2025-09-28T12:54:52Z</time>
      </trkpt>
      <trkpt lat="46.13521" lon="4.41146">
        <ele>822.2</ele>
        <time>2025-09-28T12:54:53Z</time>
      </trkpt>
      <trkpt lat="46.13523" lon="4.41147">
        <ele>822.2</ele>
        <time>2025-09-28T12:54:54Z</time>
      </trkpt>
      <trkpt lat="46.13526" lon="4.41148">
        <ele>822.2</ele>
        <time>2025-09-28T12:54:55Z</time>
      </trkpt>
      <trkpt lat="46.13528" lon="4.4115">
        <ele>822.2</ele>
        <time>2025-09-28T12:54:56Z</time>
      </trkpt>
      <trkpt lat="46.1353" lon="4.41151">
        <ele>822.8</ele>
        <time>2025-09-28T12:54:57Z</time>
      </trkpt>
      <trkpt lat="46.13532" lon="4.41152">
        <ele>822.8</ele>
        <time>2025-09-28T12:54:58Z</time>
      </trkpt>
      <trkpt lat="46.13535" lon="4.41153">
        <ele>823</ele>
        <time>2025-09-28T12:54:59Z</time>
      </trkpt>
      <trkpt lat="46.13537" lon="4.41155">
        <ele>823</ele>
        <time>2025-09-28T12:55:00Z</time>
      </trkpt>
      <trkpt lat="46.13539" lon="4.41156">
        <ele>823.2</ele>
        <time>2025-09-28T12:55:01Z</time>
      </trkpt>
      <trkpt lat="46.13541" lon="4.41157">
        <ele>823.2</ele>
        <time>2025-09-28T12:55:02Z</time>
      </trkpt>
      <trkpt lat="46.13543" lon="4.41158">
        <ele>823.2</ele>
        <time>2025-09-28T12:55:03Z</time>
      </trkpt>
      <trkpt lat="46.13545" lon="4.4116">
        <ele>823.6</ele>
        <time>2025-09-28T12:55:04Z</time>
      </trkpt>
      <trkpt lat="46.13547" lon="4.41161">
        <ele>823.6</ele>
        <time>2025-09-28T12:55:05Z</time>
      </trkpt>
      <trkpt lat="46.13548" lon="4.41163">
        <ele>823.8</ele>
        <time>2025-09-28T12:55:06Z</time>
      </trkpt>
      <trkpt lat="46.1355" lon="4.41164">
        <ele>823.8</ele>
        <time>2025-09-28T12:55:07Z</time>
      </trkpt>
      <trkpt lat="46.13551" lon="4.41166">
        <ele>824</ele>
        <time>2025-09-28T12:55:08Z</time>
      </trkpt>
      <trkpt lat="46.13554" lon="4.41167">
        <ele>824</ele>
        <time>2025-09-28T12:55:09Z</time>
      </trkpt>
      <trkpt lat="46.13555" lon="4.41169">
        <ele>824.4</ele>
        <time>2025-09-28T12:55:10Z</time>
      </trkpt>
      <trkpt lat="46.13557" lon="4.4117">
        <ele>824.8</ele>
        <time>2025-09-28T12:55:11Z</time>
      </trkpt>
      <trkpt lat="46.13559" lon="4.41172">
        <ele>825.4</ele>
        <time>2025-09-28T12:55:12Z</time>
      </trkpt>
      <trkpt lat="46.1356" lon="4.41174">
        <ele>825.4</ele>
        <time>2025-09-28T12:55:13Z</time>
      </trkpt>
      <trkpt lat="46.13562" lon="4.41175">
        <ele>825.4</ele>
        <time>2025-09-28T12:55:14Z</time>
      </trkpt>
      <trkpt lat="46.13564" lon="4.41177">
        <ele>825.4</ele>
        <time>2025-09-28T12:55:15Z</time>
      </trkpt>
      <trkpt lat="46.13566" lon="4.41178">
        <ele>826</ele>
        <time>2025-09-28T12:55:16Z</time>
      </trkpt>
      <trkpt lat="46.13568" lon="4.41179">
        <ele>826</ele>
        <time>2025-09-28T12:55:17Z</time>
      </trkpt>
      <trkpt lat="46.1357" lon="4.4118">
        <ele>826</ele>
        <time>2025-09-28T12:55:18Z</time>
      </trkpt>
      <trkpt lat="46.13571" lon="4.41181">
        <ele>826.4</ele>
        <time>2025-09-28T12:55:19Z</time>
      </trkpt>
      <trkpt lat="46.13573" lon="4.41182">
        <ele>826.4</ele>
        <time>2025-09-28T12:55:20Z</time>
      </trkpt>
      <trkpt lat="46.13575" lon="4.41183">
        <ele>826.8</ele>
        <time>2025-09-28T12:55:21Z</time>
      </trkpt>
      <trkpt lat="46.13577" lon="4.41184">
        <ele>826.8</ele>
        <time>2025-09-28T12:55:22Z</time>
      </trkpt>
      <trkpt lat="46.13579" lon="4.41185">
        <ele>827</ele>
        <time>2025-09-28T12:55:23Z</time>
      </trkpt>
      <trkpt lat="46.13581" lon="4.41185">
        <ele>827</ele>
        <time>2025-09-28T12:55:24Z</time>
      </trkpt>
      <trkpt lat="46.13583" lon="4.41186">
        <ele>827</ele>
        <time>2025-09-28T12:55:25Z</time>
      </trkpt>
      <trkpt lat="46.13585" lon="4.41186">
        <ele>827.4</ele>
        <time>2025-09-28T12:55:26Z</time>
      </trkpt>
      <trkpt lat="46.13586" lon="4.41187">
        <ele>827.8</ele>
        <time>2025-09-28T12:55:27Z</time>
      </trkpt>
      <trkpt lat="46.13588" lon="4.41187">
        <ele>827.8</ele>
        <time>2025-09-28T12:55:28Z</time>
      </trkpt>
      <trkpt lat="46.1359" lon="4.41188">
        <ele>827.8</ele>
        <time>2025-09-28T12:55:29Z</time>
      </trkpt>
      <trkpt lat="46.13592" lon="4.41189">
        <ele>828.2</ele>
        <time>2025-09-28T12:55:30Z</time>
      </trkpt>
      <trkpt lat="46.13594" lon="4.41189">
        <ele>828.2</ele>
        <time>2025-09-28T12:55:31Z</time>
      </trkpt>
      <trkpt lat="46.13596" lon="4.4119">
        <ele>828.2</ele>
        <time>2025-09-28T12:55:32Z</time>
      </trkpt>
      <trkpt lat="46.13598" lon="4.4119">
        <ele>828.2</ele>
        <time>2025-09-28T12:55:33Z</time>
      </trkpt>
      <trkpt lat="46.136" lon="4.41191">
        <ele>828.2</ele>
        <time>2025-09-28T12:55:34Z</time>
      </trkpt>
      <trkpt lat="46.13601" lon="4.41192">
        <ele>828.4</ele>
        <time>2025-09-28T12:55:35Z</time>
      </trkpt>
      <trkpt lat="46.13603" lon="4.41192">
        <ele>828.6</ele>
        <time>2025-09-28T12:55:36Z</time>
      </trkpt>
      <trkpt lat="46.13605" lon="4.41193">
        <ele>828.6</ele>
        <time>2025-09-28T12:55:37Z</time>
      </trkpt>
      <trkpt lat="46.13607" lon="4.41193">
        <ele>828.8</ele>
        <time>2025-09-28T12:55:38Z</time>
      </trkpt>
      <trkpt lat="46.13609" lon="4.41194">
        <ele>829.2</ele>
        <time>2025-09-28T12:55:39Z</time>
      </trkpt>
      <trkpt lat="46.13611" lon="4.41194">
        <ele>829.2</ele>
        <time>2025-09-28T12:55:40Z</time>
      </trkpt>
      <trkpt lat="46.13612" lon="4.41194">
        <ele>829.2</ele>
        <time>2025-09-28T12:55:41Z</time>
      </trkpt>
      <trkpt lat="46.13614" lon="4.41195">
        <ele>829.6</ele>
        <time>2025-09-28T12:55:42Z</time>
      </trkpt>
      <trkpt lat="46.13616" lon="4.41196">
        <ele>829.6</ele>
        <time>2025-09-28T12:55:43Z</time>
      </trkpt>
      <trkpt lat="46.13618" lon="4.41197">
        <ele>829.8</ele>
        <time>2025-09-28T12:55:44Z</time>
      </trkpt>
      <trkpt lat="46.13619" lon="4.41198">
        <ele>829.8</ele>
        <time>2025-09-28T12:55:45Z</time>
      </trkpt>
      <trkpt lat="46.13621" lon="4.41198">
        <ele>829.8</ele>
        <time>2025-09-28T12:55:46Z</time>
      </trkpt>
      <trkpt lat="46.13623" lon="4.41199">
        <ele>829.8</ele>
        <time>2025-09-28T12:55:47Z</time>
      </trkpt>
      <trkpt lat="46.13625" lon="4.412">
        <ele>830</ele>
        <time>2025-09-28T12:55:48Z</time>
      </trkpt>
      <trkpt lat="46.13626" lon="4.412">
        <ele>830.4</ele>
        <time>2025-09-28T12:55:49Z</time>
      </trkpt>
      <trkpt lat="46.13628" lon="4.41201">
        <ele>830.4</ele>
        <time>2025-09-28T12:55:50Z</time>
      </trkpt>
      <trkpt lat="46.1363" lon="4.41203">
        <ele>830.8</ele>
        <time>2025-09-28T12:55:51Z</time>
      </trkpt>
      <trkpt lat="46.13631" lon="4.41205">
        <ele>831</ele>
        <time>2025-09-28T12:55:52Z</time>
      </trkpt>
      <trkpt lat="46.13631" lon="4.41209">
        <ele>831.2</ele>
        <time>2025-09-28T12:55:53Z</time>
      </trkpt>
      <trkpt lat="46.1363" lon="4.41213">
        <ele>831.2</ele>
        <time>2025-09-28T12:55:54Z</time>
      </trkpt>
      <trkpt lat="46.13629" lon="4.41215">
        <ele>831.6</ele>
        <time>2025-09-28T12:55:55Z</time>
      </trkpt>
      <trkpt lat="46.13627" lon="4.41218">
        <ele>831.6</ele>
        <time>2025-09-28T12:55:56Z</time>
      </trkpt>
      <trkpt lat="46.13626" lon="4.41221">
        <ele>831.6</ele>
        <time>2025-09-28T12:55:57Z</time>
      </trkpt>
      <trkpt lat="46.13625" lon="4.41224">
        <ele>831.8</ele>
        <time>2025-09-28T12:55:58Z</time>
      </trkpt>
      <trkpt lat="46.13624" lon="4.41227">
        <ele>831.8</ele>
        <time>2025-09-28T12:55:59Z</time>
      </trkpt>
      <trkpt lat="46.13623" lon="4.4123">
        <ele>831.8</ele>
        <time>2025-09-28T12:56:00Z</time>
      </trkpt>
      <trkpt lat="46.13622" lon="4.41233">
        <ele>832.4</ele>
        <time>2025-09-28T12:56:01Z</time>
      </trkpt>
      <trkpt lat="46.13622" lon="4.41237">
        <ele>832.4</ele>
        <time>2025-09-28T12:56:02Z</time>
      </trkpt>
      <trkpt lat="46.13621" lon="4.4124">
        <ele>832.6</ele>
        <time>2025-09-28T12:56:03Z</time>
      </trkpt>
      <trkpt lat="46.1362" lon="4.41242">
        <ele>832.8</ele>
        <time>2025-09-28T12:56:04Z</time>
      </trkpt>
      <trkpt lat="46.1362" lon="4.41245">
        <ele>833</ele>
        <time>2025-09-28T12:56:05Z</time>
      </trkpt>
      <trkpt lat="46.13619" lon="4.41248">
        <ele>833</ele>
        <time>2025-09-28T12:56:06Z</time>
      </trkpt>
      <trkpt lat="46.13619" lon="4.41251">
        <ele>833</ele>
        <time>2025-09-28T12:56:07Z</time>
      </trkpt>
      <trkpt lat="46.13619" lon="4.41254">
        <ele>833.4</ele>
        <time>2025-09-28T12:56:08Z</time>
      </trkpt>
      <trkpt lat="46.13619" lon="4.41256">
        <ele>833.4</ele>
        <time>2025-09-28T12:56:09Z</time>
      </trkpt>
      <trkpt lat="46.13618" lon="4.41259">
        <ele>833.8</ele>
        <time>2025-09-28T12:56:10Z</time>
      </trkpt>
      <trkpt lat="46.13618" lon="4.41262">
        <ele>833.8</ele>
        <time>2025-09-28T12:56:11Z</time>
      </trkpt>
      <trkpt lat="46.13618" lon="4.41265">
        <ele>834</ele>
        <time>2025-09-28T12:56:12Z</time>
      </trkpt>
      <trkpt lat="46.13617" lon="4.41268">
        <ele>834</ele>
        <time>2025-09-28T12:56:13Z</time>
      </trkpt>
      <trkpt lat="46.13617" lon="4.41271">
        <ele>834.2</ele>
        <time>2025-09-28T12:56:14Z</time>
      </trkpt>
      <trkpt lat="46.13617" lon="4.41275">
        <ele>834.2</ele>
        <time>2025-09-28T12:56:15Z</time>
      </trkpt>
      <trkpt lat="46.13616" lon="4.41279">
        <ele>834.2</ele>
        <time>2025-09-28T12:56:16Z</time>
      </trkpt>
      <trkpt lat="46.13615" lon="4.41281">
        <ele>834.6</ele>
        <time>2025-09-28T12:56:17Z</time>
      </trkpt>
      <trkpt lat="46.13614" lon="4.41284">
        <ele>834.6</ele>
        <time>2025-09-28T12:56:18Z</time>
      </trkpt>
      <trkpt lat="46.13614" lon="4.41287">
        <ele>834.8</ele>
        <time>2025-09-28T12:56:19Z</time>
      </trkpt>
      <trkpt lat="46.13613" lon="4.4129">
        <ele>834.8</ele>
        <time>2025-09-28T12:56:20Z</time>
      </trkpt>
      <trkpt lat="46.13613" lon="4.41292">
        <ele>835.2</ele>
        <time>2025-09-28T12:56:21Z</time>
      </trkpt>
      <trkpt lat="46.13612" lon="4.41295">
        <ele>835.2</ele>
        <time>2025-09-28T12:56:22Z</time>
      </trkpt>
      <trkpt lat="46.13611" lon="4.41297">
        <ele>835.2</ele>
        <time>2025-09-28T12:56:23Z</time>
      </trkpt>
      <trkpt lat="46.1361" lon="4.413">
        <ele>835.2</ele>
        <time>2025-09-28T12:56:24Z</time>
      </trkpt>
      <trkpt lat="46.1361" lon="4.41303">
        <ele>835.2</ele>
        <time>2025-09-28T12:56:25Z</time>
      </trkpt>
      <trkpt lat="46.13609" lon="4.41306">
        <ele>835.6</ele>
        <time>2025-09-28T12:56:26Z</time>
      </trkpt>
      <trkpt lat="46.13609" lon="4.41309">
        <ele>835.6</ele>
        <time>2025-09-28T12:56:27Z</time>
      </trkpt>
      <trkpt lat="46.13609" lon="4.41311">
        <ele>835.8</ele>
        <time>2025-09-28T12:56:28Z</time>
      </trkpt>
      <trkpt lat="46.13608" lon="4.41314">
        <ele>835.8</ele>
        <time>2025-09-28T12:56:29Z</time>
      </trkpt>
      <trkpt lat="46.13608" lon="4.41317">
        <ele>835.8</ele>
        <time>2025-09-28T12:56:30Z</time>
      </trkpt>
      <trkpt lat="46.13607" lon="4.4132">
        <ele>835.8</ele>
        <time>2025-09-28T12:56:31Z</time>
      </trkpt>
      <trkpt lat="46.13607" lon="4.41323">
        <ele>835.8</ele>
        <time>2025-09-28T12:56:32Z</time>
      </trkpt>
      <trkpt lat="46.13607" lon="4.41326">
        <ele>836.4</ele>
        <time>2025-09-28T12:56:33Z</time>
      </trkpt>
      <trkpt lat="46.13607" lon="4.41329">
        <ele>836.4</ele>
        <time>2025-09-28T12:56:34Z</time>
      </trkpt>
      <trkpt lat="46.13607" lon="4.41332">
        <ele>836.6</ele>
        <time>2025-09-28T12:56:35Z</time>
      </trkpt>
      <trkpt lat="46.13606" lon="4.41335">
        <ele>836.8</ele>
        <time>2025-09-28T12:56:36Z</time>
      </trkpt>
      <trkpt lat="46.13606" lon="4.41338">
        <ele>836.8</ele>
        <time>2025-09-28T12:56:37Z</time>
      </trkpt>
      <trkpt lat="46.13605" lon="4.41341">
        <ele>836.8</ele>
        <time>2025-09-28T12:56:38Z</time>
      </trkpt>
      <trkpt lat="46.13605" lon="4.41344">
        <ele>837.2</ele>
        <time>2025-09-28T12:56:39Z</time>
      </trkpt>
      <trkpt lat="46.13605" lon="4.41347">
        <ele>837.2</ele>
        <time>2025-09-28T12:56:40Z</time>
      </trkpt>
      <trkpt lat="46.13604" lon="4.4135">
        <ele>837.2</ele>
        <time>2025-09-28T12:56:41Z</time>
      </trkpt>
      <trkpt lat="46.13604" lon="4.41353">
        <ele>837.2</ele>
        <time>2025-09-28T12:56:42Z</time>
      </trkpt>
      <trkpt lat="46.13603" lon="4.41356">
        <ele>837.4</ele>
        <time>2025-09-28T12:56:43Z</time>
      </trkpt>
      <trkpt lat="46.13602" lon="4.41359">
        <ele>837.4</ele>
        <time>2025-09-28T12:56:44Z</time>
      </trkpt>
      <trkpt lat="46.13602" lon="4.41361">
        <ele>837.8</ele>
        <time>2025-09-28T12:56:45Z</time>
      </trkpt>
      <trkpt lat="46.13601" lon="4.41364">
        <ele>837.8</ele>
        <time>2025-09-28T12:56:46Z</time>
      </trkpt>
      <trkpt lat="46.13601" lon="4.41368">
        <ele>838.2</ele>
        <time>2025-09-28T12:56:47Z</time>
      </trkpt>
      <trkpt lat="46.136" lon="4.41371">
        <ele>838.4</ele>
        <time>2025-09-28T12:56:48Z</time>
      </trkpt>
      <trkpt lat="46.13599" lon="4.41374">
        <ele>838.4</ele>
        <time>2025-09-28T12:56:49Z</time>
      </trkpt>
      <trkpt lat="46.13598" lon="4.41377">
        <ele>838.4</ele>
        <time>2025-09-28T12:56:50Z</time>
      </trkpt>
      <trkpt lat="46.13597" lon="4.41379">
        <ele>838.4</ele>
        <time>2025-09-28T12:56:51Z</time>
      </trkpt>
      <trkpt lat="46.13596" lon="4.41382">
        <ele>838.4</ele>
        <time>2025-09-28T12:56:52Z</time>
      </trkpt>
      <trkpt lat="46.13595" lon="4.41384">
        <ele>838.8</ele>
        <time>2025-09-28T12:56:53Z</time>
      </trkpt>
      <trkpt lat="46.13594" lon="4.41387">
        <ele>838.8</ele>
        <time>2025-09-28T12:56:54Z</time>
      </trkpt>
      <trkpt lat="46.13593" lon="4.41389">
        <ele>839.2</ele>
        <time>2025-09-28T12:56:55Z</time>
      </trkpt>
      <trkpt lat="46.13593" lon="4.41392">
        <ele>839.2</ele>
        <time>2025-09-28T12:56:56Z</time>
      </trkpt>
      <trkpt lat="46.13592" lon="4.41394">
        <ele>839.6</ele>
        <time>2025-09-28T12:56:57Z</time>
      </trkpt>
      <trkpt lat="46.13592" lon="4.41397">
        <ele>839.6</ele>
        <time>2025-09-28T12:56:58Z</time>
      </trkpt>
      <trkpt lat="46.13591" lon="4.414">
        <ele>839.8</ele>
        <time>2025-09-28T12:56:59Z</time>
      </trkpt>
      <trkpt lat="46.1359" lon="4.41402">
        <ele>839.8</ele>
        <time>2025-09-28T12:57:00Z</time>
      </trkpt>
      <trkpt lat="46.13589" lon="4.41405">
        <ele>840</ele>
        <time>2025-09-28T12:57:01Z</time>
      </trkpt>
      <trkpt lat="46.13589" lon="4.41407">
        <ele>840.4</ele>
        <time>2025-09-28T12:57:02Z</time>
      </trkpt>
      <trkpt lat="46.13589" lon="4.4141">
        <ele>840.4</ele>
        <time>2025-09-28T12:57:03Z</time>
      </trkpt>
      <trkpt lat="46.13588" lon="4.41412">
        <ele>840.8</ele>
        <time>2025-09-28T12:57:04Z</time>
      </trkpt>
      <trkpt lat="46.13587" lon="4.41414">
        <ele>840.8</ele>
        <time>2025-09-28T12:57:05Z</time>
      </trkpt>
      <trkpt lat="46.13587" lon="4.41416">
        <ele>841.2</ele>
        <time>2025-09-28T12:57:06Z</time>
      </trkpt>
      <trkpt lat="46.13586" lon="4.41419">
        <ele>841.2</ele>
        <time>2025-09-28T12:57:07Z</time>
      </trkpt>
      <trkpt lat="46.13586" lon="4.41421">
        <ele>841.2</ele>
        <time>2025-09-28T12:57:08Z</time>
      </trkpt>
      <trkpt lat="46.13585" lon="4.41424">
        <ele>841.2</ele>
        <time>2025-09-28T12:57:09Z</time>
      </trkpt>
      <trkpt lat="46.13584" lon="4.41427">
        <ele>841.6</ele>
        <time>2025-09-28T12:57:10Z</time>
      </trkpt>
      <trkpt lat="46.13584" lon="4.41429">
        <ele>841.6</ele>
        <time>2025-09-28T12:57:11Z</time>
      </trkpt>
      <trkpt lat="46.13583" lon="4.41431">
        <ele>841.6</ele>
        <time>2025-09-28T12:57:12Z</time>
      </trkpt>
      <trkpt lat="46.13583" lon="4.41434">
        <ele>841.8</ele>
        <time>2025-09-28T12:57:13Z</time>
      </trkpt>
      <trkpt lat="46.13582" lon="4.41436">
        <ele>841.8</ele>
        <time>2025-09-28T12:57:14Z</time>
      </trkpt>
      <trkpt lat="46.13581" lon="4.41439">
        <ele>841.8</ele>
        <time>2025-09-28T12:57:15Z</time>
      </trkpt>
      <trkpt lat="46.1358" lon="4.41441">
        <ele>841.8</ele>
        <time>2025-09-28T12:57:16Z</time>
      </trkpt>
      <trkpt lat="46.13579" lon="4.41444">
        <ele>841.8</ele>
        <time>2025-09-28T12:57:17Z</time>
      </trkpt>
      <trkpt lat="46.13578" lon="4.41446">
        <ele>841.8</ele>
        <time>2025-09-28T12:57:18Z</time>
      </trkpt>
      <trkpt lat="46.13578" lon="4.41449">
        <ele>842.4</ele>
        <time>2025-09-28T12:57:19Z</time>
      </trkpt>
      <trkpt lat="46.13577" lon="4.41451">
        <ele>842.6</ele>
        <time>2025-09-28T12:57:20Z</time>
      </trkpt>
      <trkpt lat="46.13577" lon="4.41454">
        <ele>842.6</ele>
        <time>2025-09-28T12:57:21Z</time>
      </trkpt>
      <trkpt lat="46.13576" lon="4.41457">
        <ele>843</ele>
        <time>2025-09-28T12:57:22Z</time>
      </trkpt>
      <trkpt lat="46.13576" lon="4.41459">
        <ele>843</ele>
        <time>2025-09-28T12:57:23Z</time>
      </trkpt>
      <trkpt lat="46.13575" lon="4.41462">
        <ele>843</ele>
        <time>2025-09-28T12:57:24Z</time>
      </trkpt>
      <trkpt lat="46.13575" lon="4.41465">
        <ele>843.4</ele>
        <time>2025-09-28T12:57:25Z</time>
      </trkpt>
      <trkpt lat="46.13574" lon="4.41468">
        <ele>843.8</ele>
        <time>2025-09-28T12:57:26Z</time>
      </trkpt>
      <trkpt lat="46.13574" lon="4.4147">
        <ele>843.8</ele>
        <time>2025-09-28T12:57:27Z</time>
      </trkpt>
      <trkpt lat="46.13574" lon="4.41473">
        <ele>843.8</ele>
        <time>2025-09-28T12:57:28Z</time>
      </trkpt>
      <trkpt lat="46.13573" lon="4.41476">
        <ele>843.8</ele>
        <time>2025-09-28T12:57:29Z</time>
      </trkpt>
      <trkpt lat="46.13573" lon="4.41478">
        <ele>843.8</ele>
        <time>2025-09-28T12:57:30Z</time>
      </trkpt>
      <trkpt lat="46.13572" lon="4.4148">
        <ele>843.8</ele>
        <time>2025-09-28T12:57:31Z</time>
      </trkpt>
      <trkpt lat="46.13572" lon="4.41483">
        <ele>844.4</ele>
        <time>2025-09-28T12:57:32Z</time>
      </trkpt>
      <trkpt lat="46.13571" lon="4.41487">
        <ele>844.4</ele>
        <time>2025-09-28T12:57:33Z</time>
      </trkpt>
      <trkpt lat="46.13571" lon="4.41489">
        <ele>844.6</ele>
        <time>2025-09-28T12:57:34Z</time>
      </trkpt>
      <trkpt lat="46.1357" lon="4.41491">
        <ele>844.8</ele>
        <time>2025-09-28T12:57:35Z</time>
      </trkpt>
      <trkpt lat="46.13569" lon="4.41494">
        <ele>844.8</ele>
        <time>2025-09-28T12:57:36Z</time>
      </trkpt>
      <trkpt lat="46.13568" lon="4.41496">
        <ele>845.4</ele>
        <time>2025-09-28T12:57:37Z</time>
      </trkpt>
      <trkpt lat="46.13567" lon="4.41499">
        <ele>845.2</ele>
        <time>2025-09-28T12:57:38Z</time>
      </trkpt>
      <trkpt lat="46.13567" lon="4.41501">
        <ele>845.4</ele>
        <time>2025-09-28T12:57:39Z</time>
      </trkpt>
      <trkpt lat="46.13566" lon="4.41503">
        <ele>845.6</ele>
        <time>2025-09-28T12:57:40Z</time>
      </trkpt>
      <trkpt lat="46.13566" lon="4.41506">
        <ele>845.8</ele>
        <time>2025-09-28T12:57:41Z</time>
      </trkpt>
      <trkpt lat="46.13565" lon="4.41507">
        <ele>845.8</ele>
        <time>2025-09-28T12:57:42Z</time>
      </trkpt>
      <trkpt lat="46.13564" lon="4.41509">
        <ele>845.8</ele>
        <time>2025-09-28T12:57:43Z</time>
      </trkpt>
      <trkpt lat="46.13564" lon="4.41511">
        <ele>846.2</ele>
        <time>2025-09-28T12:57:44Z</time>
      </trkpt>
      <trkpt lat="46.13563" lon="4.41512">
        <ele>846.4</ele>
        <time>2025-09-28T12:57:45Z</time>
      </trkpt>
      <trkpt lat="46.13562" lon="4.41514">
        <ele>846.4</ele>
        <time>2025-09-28T12:57:46Z</time>
      </trkpt>
      <trkpt lat="46.13562" lon="4.41515">
        <ele>846.4</ele>
        <time>2025-09-28T12:57:47Z</time>
      </trkpt>
      <trkpt lat="46.13561" lon="4.41516">
        <ele>847</ele>
        <time>2025-09-28T12:57:48Z</time>
      </trkpt>
      <trkpt lat="46.1356" lon="4.41518">
        <ele>847</ele>
        <time>2025-09-28T12:57:49Z</time>
      </trkpt>
      <trkpt lat="46.13559" lon="4.41521">
        <ele>847.4</ele>
        <time>2025-09-28T12:57:50Z</time>
      </trkpt>
      <trkpt lat="46.13559" lon="4.41523">
        <ele>847.4</ele>
        <time>2025-09-28T12:57:51Z</time>
      </trkpt>
      <trkpt lat="46.13558" lon="4.41525">
        <ele>847.4</ele>
        <time>2025-09-28T12:57:52Z</time>
      </trkpt>
      <trkpt lat="46.13557" lon="4.41528">
        <ele>847.6</ele>
        <time>2025-09-28T12:57:53Z</time>
      </trkpt>
      <trkpt lat="46.13556" lon="4.4153">
        <ele>847.6</ele>
        <time>2025-09-28T12:57:54Z</time>
      </trkpt>
      <trkpt lat="46.13555" lon="4.41533">
        <ele>847.8</ele>
        <time>2025-09-28T12:57:55Z</time>
      </trkpt>
      <trkpt lat="46.13554" lon="4.41535">
        <ele>847.8</ele>
        <time>2025-09-28T12:57:56Z</time>
      </trkpt>
      <trkpt lat="46.13553" lon="4.41537">
        <ele>848</ele>
        <time>2025-09-28T12:57:57Z</time>
      </trkpt>
      <trkpt lat="46.13552" lon="4.41539">
        <ele>848</ele>
        <time>2025-09-28T12:57:58Z</time>
      </trkpt>
      <trkpt lat="46.13551" lon="4.41541">
        <ele>848.4</ele>
        <time>2025-09-28T12:57:59Z</time>
      </trkpt>
      <trkpt lat="46.1355" lon="4.41544">
        <ele>848.4</ele>
        <time>2025-09-28T12:58:00Z</time>
      </trkpt>
      <trkpt lat="46.13549" lon="4.41546">
        <ele>848.4</ele>
        <time>2025-09-28T12:58:01Z</time>
      </trkpt>
      <trkpt lat="46.13548" lon="4.41548">
        <ele>848.8</ele>
        <time>2025-09-28T12:58:02Z</time>
      </trkpt>
      <trkpt lat="46.13548" lon="4.41551">
        <ele>848.8</ele>
        <time>2025-09-28T12:58:03Z</time>
      </trkpt>
      <trkpt lat="46.13547" lon="4.41552">
        <ele>849</ele>
        <time>2025-09-28T12:58:04Z</time>
      </trkpt>
      <trkpt lat="46.13546" lon="4.41554">
        <ele>849.2</ele>
        <time>2025-09-28T12:58:05Z</time>
      </trkpt>
      <trkpt lat="46.13545" lon="4.41557">
        <ele>849.2</ele>
        <time>2025-09-28T12:58:06Z</time>
      </trkpt>
      <trkpt lat="46.13544" lon="4.41559">
        <ele>849.8</ele>
        <time>2025-09-28T12:58:07Z</time>
      </trkpt>
      <trkpt lat="46.13543" lon="4.4156">
        <ele>849.8</ele>
        <time>2025-09-28T12:58:08Z</time>
      </trkpt>
      <trkpt lat="46.13542" lon="4.41562">
        <ele>849.8</ele>
        <time>2025-09-28T12:58:09Z</time>
      </trkpt>
      <trkpt lat="46.13541" lon="4.41564">
        <ele>849.8</ele>
        <time>2025-09-28T12:58:10Z</time>
      </trkpt>
      <trkpt lat="46.1354" lon="4.41565">
        <ele>849.8</ele>
        <time>2025-09-28T12:58:11Z</time>
      </trkpt>
      <trkpt lat="46.13539" lon="4.41568">
        <ele>850</ele>
        <time>2025-09-28T12:58:12Z</time>
      </trkpt>
      <trkpt lat="46.13538" lon="4.4157">
        <ele>850</ele>
        <time>2025-09-28T12:58:13Z</time>
      </trkpt>
      <trkpt lat="46.13538" lon="4.41572">
        <ele>850.6</ele>
        <time>2025-09-28T12:58:14Z</time>
      </trkpt>
      <trkpt lat="46.13537" lon="4.41574">
        <ele>850.8</ele>
        <time>2025-09-28T12:58:15Z</time>
      </trkpt>
      <trkpt lat="46.13536" lon="4.41576">
        <ele>850.8</ele>
        <time>2025-09-28T12:58:16Z</time>
      </trkpt>
      <trkpt lat="46.13535" lon="4.41577">
        <ele>850.8</ele>
        <time>2025-09-28T12:58:17Z</time>
      </trkpt>
      <trkpt lat="46.13534" lon="4.41578">
        <ele>850.8</ele>
        <time>2025-09-28T12:58:18Z</time>
      </trkpt>
      <trkpt lat="46.13533" lon="4.4158">
        <ele>851</ele>
        <time>2025-09-28T12:58:19Z</time>
      </trkpt>
      <trkpt lat="46.13533" lon="4.41583">
        <ele>851.6</ele>
        <time>2025-09-28T12:58:20Z</time>
      </trkpt>
      <trkpt lat="46.13532" lon="4.41585">
        <ele>851.8</ele>
        <time>2025-09-28T12:58:21Z</time>
      </trkpt>
      <trkpt lat="46.13531" lon="4.41587">
        <ele>851.8</ele>
        <time>2025-09-28T12:58:22Z</time>
      </trkpt>
      <trkpt lat="46.1353" lon="4.41588">
        <ele>852.2</ele>
        <time>2025-09-28T12:58:23Z</time>
      </trkpt>
      <trkpt lat="46.1353" lon="4.4159">
        <ele>852.2</ele>
        <time>2025-09-28T12:58:24Z</time>
      </trkpt>
      <trkpt lat="46.13529" lon="4.41592">
        <ele>852.4</ele>
        <time>2025-09-28T12:58:25Z</time>
      </trkpt>
      <trkpt lat="46.13528" lon="4.41594">
        <ele>852.4</ele>
        <time>2025-09-28T12:58:26Z</time>
      </trkpt>
      <trkpt lat="46.13527" lon="4.41596">
        <ele>852.4</ele>
        <time>2025-09-28T12:58:27Z</time>
      </trkpt>
      <trkpt lat="46.13526" lon="4.41599">
        <ele>852.8</ele>
        <time>2025-09-28T12:58:28Z</time>
      </trkpt>
      <trkpt lat="46.13525" lon="4.41601">
        <ele>853</ele>
        <time>2025-09-28T12:58:29Z</time>
      </trkpt>
      <trkpt lat="46.13524" lon="4.41603">
        <ele>853.4</ele>
        <time>2025-09-28T12:58:30Z</time>
      </trkpt>
      <trkpt lat="46.13523" lon="4.41605">
        <ele>853.4</ele>
        <time>2025-09-28T12:58:31Z</time>
      </trkpt>
      <trkpt lat="46.13522" lon="4.41607">
        <ele>853.6</ele>
        <time>2025-09-28T12:58:32Z</time>
      </trkpt>
      <trkpt lat="46.13521" lon="4.41609">
        <ele>853.6</ele>
        <time>2025-09-28T12:58:33Z</time>
      </trkpt>
      <trkpt lat="46.1352" lon="4.41611">
        <ele>854</ele>
        <time>2025-09-28T12:58:34Z</time>
      </trkpt>
      <trkpt lat="46.13519" lon="4.41613">
        <ele>854</ele>
        <time>2025-09-28T12:58:35Z</time>
      </trkpt>
      <trkpt lat="46.13518" lon="4.41615">
        <ele>854</ele>
        <time>2025-09-28T12:58:36Z</time>
      </trkpt>
      <trkpt lat="46.13517" lon="4.41617">
        <ele>854</ele>
        <time>2025-09-28T12:58:37Z</time>
      </trkpt>
      <trkpt lat="46.13516" lon="4.41618">
        <ele>854.4</ele>
        <time>2025-09-28T12:58:38Z</time>
      </trkpt>
      <trkpt lat="46.13515" lon="4.41619">
        <ele>854.4</ele>
        <time>2025-09-28T12:58:39Z</time>
      </trkpt>
      <trkpt lat="46.13514" lon="4.41621">
        <ele>854.4</ele>
        <time>2025-09-28T12:58:40Z</time>
      </trkpt>
      <trkpt lat="46.13514" lon="4.41622">
        <ele>854.8</ele>
        <time>2025-09-28T12:58:41Z</time>
      </trkpt>
      <trkpt lat="46.13513" lon="4.41623">
        <ele>854.8</ele>
        <time>2025-09-28T12:58:42Z</time>
      </trkpt>
      <trkpt lat="46.13512" lon="4.41625">
        <ele>855</ele>
        <time>2025-09-28T12:58:43Z</time>
      </trkpt>
      <trkpt lat="46.13511" lon="4.41628">
        <ele>855</ele>
        <time>2025-09-28T12:58:44Z</time>
      </trkpt>
      <trkpt lat="46.1351" lon="4.4163">
        <ele>855.4</ele>
        <time>2025-09-28T12:58:45Z</time>
      </trkpt>
      <trkpt lat="46.13509" lon="4.41632">
        <ele>855.4</ele>
        <time>2025-09-28T12:58:46Z</time>
      </trkpt>
      <trkpt lat="46.13508" lon="4.41634">
        <ele>855</ele>
        <time>2025-09-28T12:58:47Z</time>
      </trkpt>
      <trkpt lat="46.13508" lon="4.41636">
        <ele>855.4</ele>
        <time>2025-09-28T12:58:48Z</time>
      </trkpt>
      <trkpt lat="46.13507" lon="4.41638">
        <ele>856</ele>
        <time>2025-09-28T12:58:49Z</time>
      </trkpt>
      <trkpt lat="46.13507" lon="4.41641">
        <ele>856</ele>
        <time>2025-09-28T12:58:50Z</time>
      </trkpt>
      <trkpt lat="46.13505" lon="4.41642">
        <ele>856.4</ele>
        <time>2025-09-28T12:58:51Z</time>
      </trkpt>
      <trkpt lat="46.13504" lon="4.41643">
        <ele>856.4</ele>
        <time>2025-09-28T12:58:52Z</time>
      </trkpt>
      <trkpt lat="46.13503" lon="4.41645">
        <ele>856.8</ele>
        <time>2025-09-28T12:58:53Z</time>
      </trkpt>
      <trkpt lat="46.13502" lon="4.41647">
        <ele>857.2</ele>
        <time>2025-09-28T12:58:54Z</time>
      </trkpt>
      <trkpt lat="46.135" lon="4.41649">
        <ele>857.2</ele>
        <time>2025-09-28T12:58:55Z</time>
      </trkpt>
      <trkpt lat="46.13499" lon="4.4165">
        <ele>857.4</ele>
        <time>2025-09-28T12:58:56Z</time>
      </trkpt>
      <trkpt lat="46.13498" lon="4.41652">
        <ele>857.2</ele>
        <time>2025-09-28T12:58:57Z</time>
      </trkpt>
      <trkpt lat="46.13497" lon="4.41655">
        <ele>857.4</ele>
        <time>2025-09-28T12:58:58Z</time>
      </trkpt>
      <trkpt lat="46.13496" lon="4.41657">
        <ele>857.8</ele>
        <time>2025-09-28T12:58:59Z</time>
      </trkpt>
      <trkpt lat="46.13495" lon="4.41659">
        <ele>858.4</ele>
        <time>2025-09-28T12:59:00Z</time>
      </trkpt>
      <trkpt lat="46.13494" lon="4.41661">
        <ele>858.4</ele>
        <time>2025-09-28T12:59:01Z</time>
      </trkpt>
      <trkpt lat="46.13493" lon="4.41664">
        <ele>858.6</ele>
        <time>2025-09-28T12:59:02Z</time>
      </trkpt>
      <trkpt lat="46.13492" lon="4.41666">
        <ele>858.6</ele>
        <time>2025-09-28T12:59:03Z</time>
      </trkpt>
      <trkpt lat="46.1349" lon="4.41668">
        <ele>858.8</ele>
        <time>2025-09-28T12:59:04Z</time>
      </trkpt>
      <trkpt lat="46.13489" lon="4.4167">
        <ele>859</ele>
        <time>2025-09-28T12:59:05Z</time>
      </trkpt>
      <trkpt lat="46.13487" lon="4.41671">
        <ele>859</ele>
        <time>2025-09-28T12:59:06Z</time>
      </trkpt>
      <trkpt lat="46.13486" lon="4.41673">
        <ele>859.2</ele>
        <time>2025-09-28T12:59:07Z</time>
      </trkpt>
      <trkpt lat="46.13485" lon="4.41674">
        <ele>859.2</ele>
        <time>2025-09-28T12:59:08Z</time>
      </trkpt>
      <trkpt lat="46.13483" lon="4.41676">
        <ele>859.2</ele>
        <time>2025-09-28T12:59:09Z</time>
      </trkpt>
      <trkpt lat="46.13482" lon="4.41677">
        <ele>859.4</ele>
        <time>2025-09-28T12:59:10Z</time>
      </trkpt>
      <trkpt lat="46.13481" lon="4.41678">
        <ele>859.8</ele>
        <time>2025-09-28T12:59:11Z</time>
      </trkpt>
      <trkpt lat="46.13481" lon="4.4168">
        <ele>859.8</ele>
        <time>2025-09-28T12:59:12Z</time>
      </trkpt>
      <trkpt lat="46.1348" lon="4.41681">
        <ele>860</ele>
        <time>2025-09-28T12:59:13Z</time>
      </trkpt>
      <trkpt lat="46.13479" lon="4.41683">
        <ele>860</ele>
        <time>2025-09-28T12:59:14Z</time>
      </trkpt>
      <trkpt lat="46.13478" lon="4.41684">
        <ele>860</ele>
        <time>2025-09-28T12:59:15Z</time>
      </trkpt>
      <trkpt lat="46.13477" lon="4.41685">
        <ele>860.2</ele>
        <time>2025-09-28T12:59:16Z</time>
      </trkpt>
      <trkpt lat="46.13477" lon="4.41685">
        <ele>860.2</ele>
        <time>2025-09-28T12:59:17Z</time>
      </trkpt>
      <trkpt lat="46.13477" lon="4.41685">
        <ele>860.2</ele>
        <time>2025-09-28T12:59:18Z</time>
      </trkpt>
      <trkpt lat="46.13477" lon="4.41684">
        <ele>860.4</ele>
        <time>2025-09-28T12:59:21Z</time>
      </trkpt>
      <trkpt lat="46.13477" lon="4.41684">
        <ele>860.4</ele>
        <time>2025-09-28T12:59:22Z</time>
      </trkpt>
      <trkpt lat="46.13476" lon="4.41686">
        <ele>860.4</ele>
        <time>2025-09-28T12:59:29Z</time>
      </trkpt>
      <trkpt lat="46.13475" lon="4.41689">
        <ele>860.4</ele>
        <time>2025-09-28T12:59:30Z</time>
      </trkpt>
      <trkpt lat="46.13475" lon="4.41691">
        <ele>860.4</ele>
        <time>2025-09-28T12:59:31Z</time>
      </trkpt>
      <trkpt lat="46.13475" lon="4.41694">
        <ele>860.4</ele>
        <time>2025-09-28T12:59:32Z</time>
      </trkpt>
      <trkpt lat="46.13475" lon="4.41696">
        <ele>860.8</ele>
        <time>2025-09-28T12:59:33Z</time>
      </trkpt>
      <trkpt lat="46.13474" lon="4.41699">
        <ele>860.8</ele>
        <time>2025-09-28T12:59:34Z</time>
      </trkpt>
      <trkpt lat="46.13473" lon="4.41702">
        <ele>861.2</ele>
        <time>2025-09-28T12:59:35Z</time>
      </trkpt>
      <trkpt lat="46.13472" lon="4.41704">
        <ele>861.4</ele>
        <time>2025-09-28T12:59:36Z</time>
      </trkpt>
      <trkpt lat="46.13471" lon="4.41707">
        <ele>861.6</ele>
        <time>2025-09-28T12:59:37Z</time>
      </trkpt>
      <trkpt lat="46.1347" lon="4.4171">
        <ele>861.6</ele>
        <time>2025-09-28T12:59:38Z</time>
      </trkpt>
      <trkpt lat="46.13469" lon="4.41713">
        <ele>862</ele>
        <time>2025-09-28T12:59:39Z</time>
      </trkpt>
      <trkpt lat="46.13468" lon="4.41716">
        <ele>862</ele>
        <time>2025-09-28T12:59:40Z</time>
      </trkpt>
      <trkpt lat="46.13468" lon="4.41718">
        <ele>862</ele>
        <time>2025-09-28T12:59:41Z</time>
      </trkpt>
      <trkpt lat="46.13467" lon="4.41721">
        <ele>862</ele>
        <time>2025-09-28T12:59:42Z</time>
      </trkpt>
      <trkpt lat="46.13466" lon="4.41723">
        <ele>862</ele>
        <time>2025-09-28T12:59:43Z</time>
      </trkpt>
      <trkpt lat="46.13465" lon="4.41725">
        <ele>862.4</ele>
        <time>2025-09-28T12:59:44Z</time>
      </trkpt>
      <trkpt lat="46.13465" lon="4.41727">
        <ele>862.4</ele>
        <time>2025-09-28T12:59:45Z</time>
      </trkpt>
      <trkpt lat="46.13464" lon="4.41729">
        <ele>862.4</ele>
        <time>2025-09-28T12:59:46Z</time>
      </trkpt>
      <trkpt lat="46.13464" lon="4.41732">
        <ele>862.4</ele>
        <time>2025-09-28T12:59:47Z</time>
      </trkpt>
      <trkpt lat="46.13464" lon="4.41733">
        <ele>862.4</ele>
        <time>2025-09-28T12:59:48Z</time>
      </trkpt>
      <trkpt lat="46.13464" lon="4.41735">
        <ele>862.4</ele>
        <time>2025-09-28T12:59:49Z</time>
      </trkpt>
      <trkpt lat="46.13463" lon="4.41737">
        <ele>862.4</ele>
        <time>2025-09-28T12:59:50Z</time>
      </trkpt>
      <trkpt lat="46.13463" lon="4.41738">
        <ele>862.4</ele>
        <time>2025-09-28T12:59:51Z</time>
      </trkpt>
      <trkpt lat="46.13462" lon="4.41738">
        <ele>862.4</ele>
        <time>2025-09-28T12:59:52Z</time>
      </trkpt>
      <trkpt lat="46.13461" lon="4.41737">
        <ele>862.4</ele>
        <time>2025-09-28T12:59:53Z</time>
      </trkpt>
      <trkpt lat="46.13461" lon="4.41737">
        <ele>862.4</ele>
        <time>2025-09-28T12:59:54Z</time>
      </trkpt>
      <trkpt lat="46.13461" lon="4.41736">
        <ele>862.4</ele>
        <time>2025-09-28T12:59:55Z</time>
      </trkpt>
      <trkpt lat="46.13461" lon="4.41736">
        <ele>862.4</ele>
        <time>2025-09-28T12:59:56Z</time>
      </trkpt>
      <trkpt lat="46.13458" lon="4.41735">
        <ele>862.8</ele>
        <time>2025-09-28T13:00:09Z</time>
      </trkpt>
      <trkpt lat="46.13459" lon="4.41736">
        <ele>862.8</ele>
        <time>2025-09-28T13:00:10Z</time>
      </trkpt>
      <trkpt lat="46.1346" lon="4.41738">
        <ele>862.8</ele>
        <time>2025-09-28T13:00:11Z</time>
      </trkpt>
      <trkpt lat="46.1346" lon="4.4174">
        <ele>862.8</ele>
        <time>2025-09-28T13:00:12Z</time>
      </trkpt>
      <trkpt lat="46.1346" lon="4.41742">
        <ele>862.8</ele>
        <time>2025-09-28T13:00:13Z</time>
      </trkpt>
      <trkpt lat="46.13459" lon="4.41745">
        <ele>862.8</ele>
        <time>2025-09-28T13:00:14Z</time>
      </trkpt>
      <trkpt lat="46.13459" lon="4.41746">
        <ele>862.8</ele>
        <time>2025-09-28T13:00:15Z</time>
      </trkpt>
      <trkpt lat="46.1346" lon="4.41747">
        <ele>862.8</ele>
        <time>2025-09-28T13:00:16Z</time>
      </trkpt>
      <trkpt lat="46.1346" lon="4.41749">
        <ele>862.8</ele>
        <time>2025-09-28T13:00:17Z</time>
      </trkpt>
      <trkpt lat="46.13461" lon="4.41752">
        <ele>862.8</ele>
        <time>2025-09-28T13:00:18Z</time>
      </trkpt>
      <trkpt lat="46.1346" lon="4.41754">
        <ele>862.8</ele>
        <time>2025-09-28T13:00:19Z</time>
      </trkpt>
      <trkpt lat="46.1346" lon="4.41757">
        <ele>862.8</ele>
        <time>2025-09-28T13:00:20Z</time>
      </trkpt>
      <trkpt lat="46.13459" lon="4.4176">
        <ele>862.8</ele>
        <time>2025-09-28T13:00:21Z</time>
      </trkpt>
      <trkpt lat="46.13458" lon="4.41763">
        <ele>862.8</ele>
        <time>2025-09-28T13:00:22Z</time>
      </trkpt>
      <trkpt lat="46.13457" lon="4.41767">
        <ele>862.8</ele>
        <time>2025-09-28T13:00:23Z</time>
      </trkpt>
      <trkpt lat="46.13455" lon="4.4177">
        <ele>862.8</ele>
        <time>2025-09-28T13:00:24Z</time>
      </trkpt>
      <trkpt lat="46.13454" lon="4.41773">
        <ele>862.8</ele>
        <time>2025-09-28T13:00:25Z</time>
      </trkpt>
      <trkpt lat="46.13453" lon="4.41777">
        <ele>862.8</ele>
        <time>2025-09-28T13:00:26Z</time>
      </trkpt>
      <trkpt lat="46.13451" lon="4.4178">
        <ele>862.8</ele>
        <time>2025-09-28T13:00:27Z</time>
      </trkpt>
      <trkpt lat="46.1345" lon="4.41784">
        <ele>862.8</ele>
        <time>2025-09-28T13:00:28Z</time>
      </trkpt>
      <trkpt lat="46.13449" lon="4.41788">
        <ele>862.8</ele>
        <time>2025-09-28T13:00:29Z</time>
      </trkpt>
      <trkpt lat="46.13448" lon="4.41791">
        <ele>862.8</ele>
        <time>2025-09-28T13:00:30Z</time>
      </trkpt>
      <trkpt lat="46.13446" lon="4.41796">
        <ele>862.8</ele>
        <time>2025-09-28T13:00:31Z</time>
      </trkpt>
      <trkpt lat="46.13445" lon="4.418">
        <ele>862.8</ele>
        <time>2025-09-28T13:00:32Z</time>
      </trkpt>
      <trkpt lat="46.13443" lon="4.41805">
        <ele>862.8</ele>
        <time>2025-09-28T13:00:33Z</time>
      </trkpt>
      <trkpt lat="46.13442" lon="4.41809">
        <ele>862.8</ele>
        <time>2025-09-28T13:00:34Z</time>
      </trkpt>
      <trkpt lat="46.13441" lon="4.41814">
        <ele>862.4</ele>
        <time>2025-09-28T13:00:35Z</time>
      </trkpt>
      <trkpt lat="46.13439" lon="4.41818">
        <ele>862.4</ele>
        <time>2025-09-28T13:00:36Z</time>
      </trkpt>
      <trkpt lat="46.13438" lon="4.41822">
        <ele>862.8</ele>
        <time>2025-09-28T13:00:37Z</time>
      </trkpt>
      <trkpt lat="46.13437" lon="4.41826">
        <ele>862.8</ele>
        <time>2025-09-28T13:00:38Z</time>
      </trkpt>
      <trkpt lat="46.13436" lon="4.41831">
        <ele>862.4</ele>
        <time>2025-09-28T13:00:39Z</time>
      </trkpt>
      <trkpt lat="46.13434" lon="4.41835">
        <ele>862.2</ele>
        <time>2025-09-28T13:00:40Z</time>
      </trkpt>
      <trkpt lat="46.13433" lon="4.4184">
        <ele>862.2</ele>
        <time>2025-09-28T13:00:41Z</time>
      </trkpt>
      <trkpt lat="46.13431" lon="4.41844">
        <ele>862.2</ele>
        <time>2025-09-28T13:00:42Z</time>
      </trkpt>
      <trkpt lat="46.1343" lon="4.41849">
        <ele>862.2</ele>
        <time>2025-09-28T13:00:43Z</time>
      </trkpt>
      <trkpt lat="46.13429" lon="4.41854">
        <ele>862</ele>
        <time>2025-09-28T13:00:44Z</time>
      </trkpt>
      <trkpt lat="46.13427" lon="4.41858">
        <ele>861.6</ele>
        <time>2025-09-28T13:00:45Z</time>
      </trkpt>
      <trkpt lat="46.13425" lon="4.41863">
        <ele>861.4</ele>
        <time>2025-09-28T13:00:46Z</time>
      </trkpt>
      <trkpt lat="46.13423" lon="4.41867">
        <ele>861.8</ele>
        <time>2025-09-28T13:00:47Z</time>
      </trkpt>
      <trkpt lat="46.13421" lon="4.41872">
        <ele>861.4</ele>
        <time>2025-09-28T13:00:48Z</time>
      </trkpt>
      <trkpt lat="46.13418" lon="4.41875">
        <ele>861.2</ele>
        <time>2025-09-28T13:00:49Z</time>
      </trkpt>
      <trkpt lat="46.13415" lon="4.41879">
        <ele>861.2</ele>
        <time>2025-09-28T13:00:50Z</time>
      </trkpt>
      <trkpt lat="46.13413" lon="4.41883">
        <ele>861.2</ele>
        <time>2025-09-28T13:00:51Z</time>
      </trkpt>
      <trkpt lat="46.13411" lon="4.41888">
        <ele>860.6</ele>
        <time>2025-09-28T13:00:52Z</time>
      </trkpt>
      <trkpt lat="46.1341" lon="4.41892">
        <ele>860.4</ele>
        <time>2025-09-28T13:00:53Z</time>
      </trkpt>
      <trkpt lat="46.13408" lon="4.41896">
        <ele>860.4</ele>
        <time>2025-09-28T13:00:54Z</time>
      </trkpt>
      <trkpt lat="46.13407" lon="4.419">
        <ele>860.4</ele>
        <time>2025-09-28T13:00:55Z</time>
      </trkpt>
      <trkpt lat="46.13405" lon="4.41903">
        <ele>860.2</ele>
        <time>2025-09-28T13:00:56Z</time>
      </trkpt>
      <trkpt lat="46.13403" lon="4.41907">
        <ele>860.2</ele>
        <time>2025-09-28T13:00:57Z</time>
      </trkpt>
      <trkpt lat="46.13402" lon="4.4191">
        <ele>860.2</ele>
        <time>2025-09-28T13:00:58Z</time>
      </trkpt>
      <trkpt lat="46.134" lon="4.41912">
        <ele>860.2</ele>
        <time>2025-09-28T13:00:59Z</time>
      </trkpt>
      <trkpt lat="46.13398" lon="4.41915">
        <ele>859.8</ele>
        <time>2025-09-28T13:01:00Z</time>
      </trkpt>
      <trkpt lat="46.13395" lon="4.41918">
        <ele>859.8</ele>
        <time>2025-09-28T13:01:01Z</time>
      </trkpt>
      <trkpt lat="46.13393" lon="4.41922">
        <ele>859.8</ele>
        <time>2025-09-28T13:01:02Z</time>
      </trkpt>
      <trkpt lat="46.13391" lon="4.41925">
        <ele>859.8</ele>
        <time>2025-09-28T13:01:03Z</time>
      </trkpt>
      <trkpt lat="46.13389" lon="4.41929">
        <ele>860</ele>
        <time>2025-09-28T13:01:04Z</time>
      </trkpt>
      <trkpt lat="46.13387" lon="4.41932">
        <ele>860</ele>
        <time>2025-09-28T13:01:05Z</time>
      </trkpt>
      <trkpt lat="46.13385" lon="4.41936">
        <ele>859.8</ele>
        <time>2025-09-28T13:01:06Z</time>
      </trkpt>
      <trkpt lat="46.13383" lon="4.4194">
        <ele>859.8</ele>
        <time>2025-09-28T13:01:07Z</time>
      </trkpt>
      <trkpt lat="46.13381" lon="4.41944">
        <ele>859.4</ele>
        <time>2025-09-28T13:01:08Z</time>
      </trkpt>
      <trkpt lat="46.13379" lon="4.41946">
        <ele>859.4</ele>
        <time>2025-09-28T13:01:09Z</time>
      </trkpt>
      <trkpt lat="46.13377" lon="4.41949">
        <ele>859.2</ele>
        <time>2025-09-28T13:01:10Z</time>
      </trkpt>
      <trkpt lat="46.13375" lon="4.4195">
        <ele>859.2</ele>
        <time>2025-09-28T13:01:11Z</time>
      </trkpt>
      <trkpt lat="46.13373" lon="4.41952">
        <ele>859.2</ele>
        <time>2025-09-28T13:01:12Z</time>
      </trkpt>
      <trkpt lat="46.13371" lon="4.41954">
        <ele>859.2</ele>
        <time>2025-09-28T13:01:13Z</time>
      </trkpt>
      <trkpt lat="46.1337" lon="4.41957">
        <ele>858.8</ele>
        <time>2025-09-28T13:01:14Z</time>
      </trkpt>
      <trkpt lat="46.13368" lon="4.4196">
        <ele>858.8</ele>
        <time>2025-09-28T13:01:15Z</time>
      </trkpt>
      <trkpt lat="46.13367" lon="4.41963">
        <ele>858.8</ele>
        <time>2025-09-28T13:01:16Z</time>
      </trkpt>
      <trkpt lat="46.13365" lon="4.41966">
        <ele>858.6</ele>
        <time>2025-09-28T13:01:17Z</time>
      </trkpt>
      <trkpt lat="46.13363" lon="4.41969">
        <ele>858.2</ele>
        <time>2025-09-28T13:01:18Z</time>
      </trkpt>
      <trkpt lat="46.13362" lon="4.41973">
        <ele>858.2</ele>
        <time>2025-09-28T13:01:19Z</time>
      </trkpt>
      <trkpt lat="46.1336" lon="4.41976">
        <ele>857.8</ele>
        <time>2025-09-28T13:01:20Z</time>
      </trkpt>
      <trkpt lat="46.13359" lon="4.41979">
        <ele>857.8</ele>
        <time>2025-09-28T13:01:21Z</time>
      </trkpt>
      <trkpt lat="46.13358" lon="4.41983">
        <ele>858</ele>
        <time>2025-09-28T13:01:22Z</time>
      </trkpt>
      <trkpt lat="46.13357" lon="4.41987">
        <ele>857.8</ele>
        <time>2025-09-28T13:01:23Z</time>
      </trkpt>
      <trkpt lat="46.13356" lon="4.4199">
        <ele>857.8</ele>
        <time>2025-09-28T13:01:24Z</time>
      </trkpt>
      <trkpt lat="46.13354" lon="4.41993">
        <ele>857.4</ele>
        <time>2025-09-28T13:01:25Z</time>
      </trkpt>
      <trkpt lat="46.13353" lon="4.41997">
        <ele>857.4</ele>
        <time>2025-09-28T13:01:26Z</time>
      </trkpt>
      <trkpt lat="46.13351" lon="4.42">
        <ele>857</ele>
        <time>2025-09-28T13:01:27Z</time>
      </trkpt>
      <trkpt lat="46.13349" lon="4.42003">
        <ele>857</ele>
        <time>2025-09-28T13:01:28Z</time>
      </trkpt>
      <trkpt lat="46.13347" lon="4.42006">
        <ele>857</ele>
        <time>2025-09-28T13:01:29Z</time>
      </trkpt>
      <trkpt lat="46.13345" lon="4.42008">
        <ele>856.6</ele>
        <time>2025-09-28T13:01:30Z</time>
      </trkpt>
      <trkpt lat="46.13343" lon="4.4201">
        <ele>856.6</ele>
        <time>2025-09-28T13:01:31Z</time>
      </trkpt>
      <trkpt lat="46.1334" lon="4.42012">
        <ele>856.4</ele>
        <time>2025-09-28T13:01:32Z</time>
      </trkpt>
      <trkpt lat="46.13338" lon="4.42015">
        <ele>855.4</ele>
        <time>2025-09-28T13:01:33Z</time>
      </trkpt>
      <trkpt lat="46.13336" lon="4.42018">
        <ele>855.2</ele>
        <time>2025-09-28T13:01:34Z</time>
      </trkpt>
      <trkpt lat="46.13335" lon="4.42021">
        <ele>855.2</ele>
        <time>2025-09-28T13:01:35Z</time>
      </trkpt>
      <trkpt lat="46.13333" lon="4.42024">
        <ele>855.2</ele>
        <time>2025-09-28T13:01:36Z</time>
      </trkpt>
      <trkpt lat="46.13332" lon="4.42028">
        <ele>855.2</ele>
        <time>2025-09-28T13:01:37Z</time>
      </trkpt>
      <trkpt lat="46.1333" lon="4.42031">
        <ele>855.2</ele>
        <time>2025-09-28T13:01:38Z</time>
      </trkpt>
      <trkpt lat="46.13328" lon="4.42034">
        <ele>855</ele>
        <time>2025-09-28T13:01:39Z</time>
      </trkpt>
      <trkpt lat="46.13326" lon="4.42037">
        <ele>855.2</ele>
        <time>2025-09-28T13:01:40Z</time>
      </trkpt>
      <trkpt lat="46.13325" lon="4.4204">
        <ele>855</ele>
        <time>2025-09-28T13:01:41Z</time>
      </trkpt>
      <trkpt lat="46.13323" lon="4.42044">
        <ele>855</ele>
        <time>2025-09-28T13:01:42Z</time>
      </trkpt>
      <trkpt lat="46.13321" lon="4.42047">
        <ele>854.4</ele>
        <time>2025-09-28T13:01:43Z</time>
      </trkpt>
      <trkpt lat="46.13319" lon="4.42051">
        <ele>854.4</ele>
        <time>2025-09-28T13:01:44Z</time>
      </trkpt>
      <trkpt lat="46.13317" lon="4.42054">
        <ele>854.2</ele>
        <time>2025-09-28T13:01:45Z</time>
      </trkpt>
      <trkpt lat="46.13316" lon="4.42057">
        <ele>854.2</ele>
        <time>2025-09-28T13:01:46Z</time>
      </trkpt>
      <trkpt lat="46.13314" lon="4.4206">
        <ele>853.8</ele>
        <time>2025-09-28T13:01:47Z</time>
      </trkpt>
      <trkpt lat="46.13313" lon="4.42063">
        <ele>853.8</ele>
        <time>2025-09-28T13:01:48Z</time>
      </trkpt>
      <trkpt lat="46.13312" lon="4.42065">
        <ele>853.6</ele>
        <time>2025-09-28T13:01:49Z</time>
      </trkpt>
      <trkpt lat="46.1331" lon="4.42068">
        <ele>853</ele>
        <time>2025-09-28T13:01:50Z</time>
      </trkpt>
      <trkpt lat="46.13308" lon="4.42071">
        <ele>853</ele>
        <time>2025-09-28T13:01:51Z</time>
      </trkpt>
      <trkpt lat="46.13306" lon="4.42075">
        <ele>853</ele>
        <time>2025-09-28T13:01:52Z</time>
      </trkpt>
      <trkpt lat="46.13305" lon="4.42078">
        <ele>852.4</ele>
        <time>2025-09-28T13:01:53Z</time>
      </trkpt>
      <trkpt lat="46.13303" lon="4.42082">
        <ele>852.4</ele>
        <time>2025-09-28T13:01:54Z</time>
      </trkpt>
      <trkpt lat="46.13302" lon="4.42085">
        <ele>852.4</ele>
        <time>2025-09-28T13:01:55Z</time>
      </trkpt>
      <trkpt lat="46.13301" lon="4.42088">
        <ele>852.2</ele>
        <time>2025-09-28T13:01:56Z</time>
      </trkpt>
      <trkpt lat="46.133" lon="4.42091">
        <ele>852.2</ele>
        <time>2025-09-28T13:01:57Z</time>
      </trkpt>
      <trkpt lat="46.13299" lon="4.42092">
        <ele>851.8</ele>
        <time>2025-09-28T13:01:58Z</time>
      </trkpt>
      <trkpt lat="46.13298" lon="4.42094">
        <ele>851.8</ele>
        <time>2025-09-28T13:01:59Z</time>
      </trkpt>
      <trkpt lat="46.13297" lon="4.42095">
        <ele>851.8</ele>
        <time>2025-09-28T13:02:00Z</time>
      </trkpt>
      <trkpt lat="46.13297" lon="4.42098">
        <ele>851.6</ele>
        <time>2025-09-28T13:02:01Z</time>
      </trkpt>
      <trkpt lat="46.13296" lon="4.42102">
        <ele>851.4</ele>
        <time>2025-09-28T13:02:02Z</time>
      </trkpt>
      <trkpt lat="46.13295" lon="4.42104">
        <ele>851.2</ele>
        <time>2025-09-28T13:02:03Z</time>
      </trkpt>
      <trkpt lat="46.13294" lon="4.42107">
        <ele>850.8</ele>
        <time>2025-09-28T13:02:04Z</time>
      </trkpt>
      <trkpt lat="46.13291" lon="4.42109">
        <ele>850.6</ele>
        <time>2025-09-28T13:02:05Z</time>
      </trkpt>
      <trkpt lat="46.13289" lon="4.42111">
        <ele>850.2</ele>
        <time>2025-09-28T13:02:06Z</time>
      </trkpt>
      <trkpt lat="46.13287" lon="4.42113">
        <ele>850</ele>
        <time>2025-09-28T13:02:07Z</time>
      </trkpt>
      <trkpt lat="46.13284" lon="4.42114">
        <ele>849.6</ele>
        <time>2025-09-28T13:02:08Z</time>
      </trkpt>
      <trkpt lat="46.13282" lon="4.42117">
        <ele>849.6</ele>
        <time>2025-09-28T13:02:09Z</time>
      </trkpt>
      <trkpt lat="46.1328" lon="4.42119">
        <ele>849.2</ele>
        <time>2025-09-28T13:02:10Z</time>
      </trkpt>
      <trkpt lat="46.13279" lon="4.42121">
        <ele>848.6</ele>
        <time>2025-09-28T13:02:11Z</time>
      </trkpt>
      <trkpt lat="46.13278" lon="4.42123">
        <ele>849</ele>
        <time>2025-09-28T13:02:12Z</time>
      </trkpt>
      <trkpt lat="46.13277" lon="4.42125">
        <ele>848.4</ele>
        <time>2025-09-28T13:02:13Z</time>
      </trkpt>
      <trkpt lat="46.13276" lon="4.42127">
        <ele>847.8</ele>
        <time>2025-09-28T13:02:14Z</time>
      </trkpt>
      <trkpt lat="46.13274" lon="4.4213">
        <ele>847.6</ele>
        <time>2025-09-28T13:02:15Z</time>
      </trkpt>
      <trkpt lat="46.13272" lon="4.42133">
        <ele>847.6</ele>
        <time>2025-09-28T13:02:16Z</time>
      </trkpt>
      <trkpt lat="46.13271" lon="4.42134">
        <ele>847.2</ele>
        <time>2025-09-28T13:02:17Z</time>
      </trkpt>
      <trkpt lat="46.1327" lon="4.42136">
        <ele>847.2</ele>
        <time>2025-09-28T13:02:18Z</time>
      </trkpt>
      <trkpt lat="46.13268" lon="4.42136">
        <ele>847.2</ele>
        <time>2025-09-28T13:02:19Z</time>
      </trkpt>
      <trkpt lat="46.13267" lon="4.42136">
        <ele>847</ele>
        <time>2025-09-28T13:02:20Z</time>
      </trkpt>
      <trkpt lat="46.13264" lon="4.42137">
        <ele>846.6</ele>
        <time>2025-09-28T13:02:21Z</time>
      </trkpt>
      <trkpt lat="46.13262" lon="4.42138">
        <ele>846.6</ele>
        <time>2025-09-28T13:02:22Z</time>
      </trkpt>
      <trkpt lat="46.13259" lon="4.4214">
        <ele>846.2</ele>
        <time>2025-09-28T13:02:23Z</time>
      </trkpt>
      <trkpt lat="46.13257" lon="4.42142">
        <ele>846</ele>
        <time>2025-09-28T13:02:24Z</time>
      </trkpt>
      <trkpt lat="46.13255" lon="4.42143">
        <ele>845.8</ele>
        <time>2025-09-28T13:02:25Z</time>
      </trkpt>
      <trkpt lat="46.13253" lon="4.42144">
        <ele>845.2</ele>
        <time>2025-09-28T13:02:26Z</time>
      </trkpt>
      <trkpt lat="46.1325" lon="4.42147">
        <ele>845</ele>
        <time>2025-09-28T13:02:27Z</time>
      </trkpt>
      <trkpt lat="46.13248" lon="4.4215">
        <ele>845</ele>
        <time>2025-09-28T13:02:28Z</time>
      </trkpt>
      <trkpt lat="46.13245" lon="4.42154">
        <ele>844</ele>
        <time>2025-09-28T13:02:29Z</time>
      </trkpt>
      <trkpt lat="46.13242" lon="4.42157">
        <ele>843.2</ele>
        <time>2025-09-28T13:02:30Z</time>
      </trkpt>
      <trkpt lat="46.13239" lon="4.4216">
        <ele>843.2</ele>
        <time>2025-09-28T13:02:31Z</time>
      </trkpt>
      <trkpt lat="46.13235" lon="4.42162">
        <ele>843</ele>
        <time>2025-09-28T13:02:32Z</time>
      </trkpt>
      <trkpt lat="46.13232" lon="4.42165">
        <ele>843</ele>
        <time>2025-09-28T13:02:33Z</time>
      </trkpt>
      <trkpt lat="46.13231" lon="4.42168">
        <ele>843</ele>
        <time>2025-09-28T13:02:34Z</time>
      </trkpt>
      <trkpt lat="46.13229" lon="4.42171">
        <ele>843</ele>
        <time>2025-09-28T13:02:35Z</time>
      </trkpt>
      <trkpt lat="46.13227" lon="4.42174">
        <ele>843</ele>
        <time>2025-09-28T13:02:36Z</time>
      </trkpt>
      <trkpt lat="46.13225" lon="4.42178">
        <ele>842.8</ele>
        <time>2025-09-28T13:02:37Z</time>
      </trkpt>
      <trkpt lat="46.13222" lon="4.42181">
        <ele>842.8</ele>
        <time>2025-09-28T13:02:38Z</time>
      </trkpt>
      <trkpt lat="46.1322" lon="4.42184">
        <ele>842.6</ele>
        <time>2025-09-28T13:02:39Z</time>
      </trkpt>
      <trkpt lat="46.13217" lon="4.42187">
        <ele>842.6</ele>
        <time>2025-09-28T13:02:40Z</time>
      </trkpt>
      <trkpt lat="46.13215" lon="4.4219">
        <ele>842.2</ele>
        <time>2025-09-28T13:02:41Z</time>
      </trkpt>
      <trkpt lat="46.13212" lon="4.42193">
        <ele>842.2</ele>
        <time>2025-09-28T13:02:42Z</time>
      </trkpt>
      <trkpt lat="46.13209" lon="4.42195">
        <ele>842</ele>
        <time>2025-09-28T13:02:43Z</time>
      </trkpt>
      <trkpt lat="46.13207" lon="4.42198">
        <ele>842</ele>
        <time>2025-09-28T13:02:44Z</time>
      </trkpt>
      <trkpt lat="46.13204" lon="4.422">
        <ele>842</ele>
        <time>2025-09-28T13:02:45Z</time>
      </trkpt>
      <trkpt lat="46.13201" lon="4.42203">
        <ele>842</ele>
        <time>2025-09-28T13:02:46Z</time>
      </trkpt>
      <trkpt lat="46.13199" lon="4.42205">
        <ele>841.6</ele>
        <time>2025-09-28T13:02:47Z</time>
      </trkpt>
      <trkpt lat="46.13196" lon="4.42209">
        <ele>841.6</ele>
        <time>2025-09-28T13:02:48Z</time>
      </trkpt>
      <trkpt lat="46.13194" lon="4.42212">
        <ele>841.4</ele>
        <time>2025-09-28T13:02:49Z</time>
      </trkpt>
      <trkpt lat="46.13192" lon="4.42215">
        <ele>841.4</ele>
        <time>2025-09-28T13:02:50Z</time>
      </trkpt>
      <trkpt lat="46.1319" lon="4.42218">
        <ele>841.4</ele>
        <time>2025-09-28T13:02:51Z</time>
      </trkpt>
      <trkpt lat="46.13189" lon="4.4222">
        <ele>841.4</ele>
        <time>2025-09-28T13:02:52Z</time>
      </trkpt>
      <trkpt lat="46.13186" lon="4.42223">
        <ele>841.4</ele>
        <time>2025-09-28T13:02:53Z</time>
      </trkpt>
      <trkpt lat="46.13184" lon="4.42226">
        <ele>841.4</ele>
        <time>2025-09-28T13:02:54Z</time>
      </trkpt>
      <trkpt lat="46.13181" lon="4.42229">
        <ele>841.4</ele>
        <time>2025-09-28T13:02:55Z</time>
      </trkpt>
      <trkpt lat="46.13179" lon="4.42231">
        <ele>841.4</ele>
        <time>2025-09-28T13:02:56Z</time>
      </trkpt>
      <trkpt lat="46.13176" lon="4.42234">
        <ele>841.2</ele>
        <time>2025-09-28T13:02:57Z</time>
      </trkpt>
      <trkpt lat="46.13173" lon="4.42236">
        <ele>841.2</ele>
        <time>2025-09-28T13:02:58Z</time>
      </trkpt>
      <trkpt lat="46.13171" lon="4.42238">
        <ele>841.4</ele>
        <time>2025-09-28T13:02:59Z</time>
      </trkpt>
      <trkpt lat="46.13168" lon="4.42239">
        <ele>841.4</ele>
        <time>2025-09-28T13:03:00Z</time>
      </trkpt>
      <trkpt lat="46.13166" lon="4.42241">
        <ele>841.4</ele>
        <time>2025-09-28T13:03:01Z</time>
      </trkpt>
      <trkpt lat="46.13165" lon="4.42242">
        <ele>841.4</ele>
        <time>2025-09-28T13:03:02Z</time>
      </trkpt>
      <trkpt lat="46.13163" lon="4.42244">
        <ele>841.4</ele>
        <time>2025-09-28T13:03:03Z</time>
      </trkpt>
      <trkpt lat="46.13162" lon="4.42245">
        <ele>841.4</ele>
        <time>2025-09-28T13:03:04Z</time>
      </trkpt>
      <trkpt lat="46.13161" lon="4.42246">
        <ele>841.4</ele>
        <time>2025-09-28T13:03:05Z</time>
      </trkpt>
      <trkpt lat="46.1316" lon="4.42247">
        <ele>841.4</ele>
        <time>2025-09-28T13:03:06Z</time>
      </trkpt>
      <trkpt lat="46.13159" lon="4.42247">
        <ele>841.4</ele>
        <time>2025-09-28T13:03:07Z</time>
      </trkpt>
      <trkpt lat="46.13158" lon="4.42247">
        <ele>841.4</ele>
        <time>2025-09-28T13:03:08Z</time>
      </trkpt>
      <trkpt lat="46.13156" lon="4.42246">
        <ele>841.4</ele>
        <time>2025-09-28T13:03:09Z</time>
      </trkpt>
      <trkpt lat="46.13155" lon="4.42245">
        <ele>841.8</ele>
        <time>2025-09-28T13:03:10Z</time>
      </trkpt>
      <trkpt lat="46.13155" lon="4.42244">
        <ele>841.8</ele>
        <time>2025-09-28T13:03:11Z</time>
      </trkpt>
      <trkpt lat="46.13154" lon="4.42243">
        <ele>841.8</ele>
        <time>2025-09-28T13:03:12Z</time>
      </trkpt>
      <trkpt lat="46.13154" lon="4.42242">
        <ele>841.8</ele>
        <time>2025-09-28T13:03:13Z</time>
      </trkpt>
      <trkpt lat="46.13154" lon="4.42241">
        <ele>841.8</ele>
        <time>2025-09-28T13:03:14Z</time>
      </trkpt>
      <trkpt lat="46.13153" lon="4.42241">
        <ele>841.8</ele>
        <time>2025-09-28T13:03:15Z</time>
      </trkpt>
      <trkpt lat="46.13153" lon="4.42241">
        <ele>841.8</ele>
        <time>2025-09-28T13:03:16Z</time>
      </trkpt>
      <trkpt lat="46.13152" lon="4.42241">
        <ele>841.8</ele>
        <time>2025-09-28T13:03:17Z</time>
      </trkpt>
      <trkpt lat="46.13152" lon="4.42241">
        <ele>841.8</ele>
        <time>2025-09-28T13:03:18Z</time>
      </trkpt>
      <trkpt lat="46.13152" lon="4.42241">
        <ele>841.8</ele>
        <time>2025-09-28T13:03:19Z</time>
      </trkpt>
      <trkpt lat="46.13152" lon="4.42244">
        <ele>841.6</ele>
        <time>2025-09-28T13:04:19Z</time>
      </trkpt>
      <trkpt lat="46.1315" lon="4.42246">
        <ele>841.6</ele>
        <time>2025-09-28T13:04:20Z</time>
      </trkpt>
      <trkpt lat="46.13149" lon="4.42247">
        <ele>841.6</ele>
        <time>2025-09-28T13:04:21Z</time>
      </trkpt>
      <trkpt lat="46.13148" lon="4.42249">
        <ele>841.8</ele>
        <time>2025-09-28T13:04:22Z</time>
      </trkpt>
      <trkpt lat="46.13147" lon="4.42253">
        <ele>841.8</ele>
        <time>2025-09-28T13:04:23Z</time>
      </trkpt>
      <trkpt lat="46.13145" lon="4.42257">
        <ele>841.8</ele>
        <time>2025-09-28T13:04:24Z</time>
      </trkpt>
      <trkpt lat="46.13144" lon="4.4226">
        <ele>841.4</ele>
        <time>2025-09-28T13:04:25Z</time>
      </trkpt>
      <trkpt lat="46.13142" lon="4.42263">
        <ele>841.4</ele>
        <time>2025-09-28T13:04:26Z</time>
      </trkpt>
      <trkpt lat="46.13139" lon="4.42265">
        <ele>841.8</ele>
        <time>2025-09-28T13:04:27Z</time>
      </trkpt>
      <trkpt lat="46.13137" lon="4.42267">
        <ele>841.8</ele>
        <time>2025-09-28T13:04:28Z</time>
      </trkpt>
      <trkpt lat="46.13134" lon="4.42268">
        <ele>841.8</ele>
        <time>2025-09-28T13:04:29Z</time>
      </trkpt>
      <trkpt lat="46.13131" lon="4.4227">
        <ele>841.8</ele>
        <time>2025-09-28T13:04:30Z</time>
      </trkpt>
      <trkpt lat="46.13128" lon="4.42272">
        <ele>841.8</ele>
        <time>2025-09-28T13:04:31Z</time>
      </trkpt>
      <trkpt lat="46.13126" lon="4.42273">
        <ele>842</ele>
        <time>2025-09-28T13:04:32Z</time>
      </trkpt>
      <trkpt lat="46.13123" lon="4.42275">
        <ele>842.4</ele>
        <time>2025-09-28T13:04:33Z</time>
      </trkpt>
      <trkpt lat="46.1312" lon="4.42277">
        <ele>842.4</ele>
        <time>2025-09-28T13:04:34Z</time>
      </trkpt>
      <trkpt lat="46.13117" lon="4.42279">
        <ele>842.4</ele>
        <time>2025-09-28T13:04:35Z</time>
      </trkpt>
      <trkpt lat="46.13114" lon="4.42281">
        <ele>842.6</ele>
        <time>2025-09-28T13:04:36Z</time>
      </trkpt>
      <trkpt lat="46.13111" lon="4.42283">
        <ele>842.6</ele>
        <time>2025-09-28T13:04:37Z</time>
      </trkpt>
      <trkpt lat="46.13108" lon="4.42285">
        <ele>842.6</ele>
        <time>2025-09-28T13:04:38Z</time>
      </trkpt>
      <trkpt lat="46.13105" lon="4.42287">
        <ele>842.6</ele>
        <time>2025-09-28T13:04:39Z</time>
      </trkpt>
      <trkpt lat="46.13102" lon="4.42289">
        <ele>842.6</ele>
        <time>2025-09-28T13:04:40Z</time>
      </trkpt>
      <trkpt lat="46.13099" lon="4.42292">
        <ele>842.6</ele>
        <time>2025-09-28T13:04:41Z</time>
      </trkpt>
      <trkpt lat="46.13097" lon="4.42294">
        <ele>842.6</ele>
        <time>2025-09-28T13:04:42Z</time>
      </trkpt>
      <trkpt lat="46.13094" lon="4.42296">
        <ele>842.6</ele>
        <time>2025-09-28T13:04:43Z</time>
      </trkpt>
      <trkpt lat="46.13091" lon="4.42298">
        <ele>842.6</ele>
        <time>2025-09-28T13:04:44Z</time>
      </trkpt>
      <trkpt lat="46.13088" lon="4.42299">
        <ele>843</ele>
        <time>2025-09-28T13:04:45Z</time>
      </trkpt>
      <trkpt lat="46.13085" lon="4.42301">
        <ele>843</ele>
        <time>2025-09-28T13:04:46Z</time>
      </trkpt>
      <trkpt lat="46.13082" lon="4.42302">
        <ele>843.2</ele>
        <time>2025-09-28T13:04:47Z</time>
      </trkpt>
      <trkpt lat="46.13079" lon="4.42303">
        <ele>843.2</ele>
        <time>2025-09-28T13:04:48Z</time>
      </trkpt>
      <trkpt lat="46.13077" lon="4.42304">
        <ele>843.2</ele>
        <time>2025-09-28T13:04:49Z</time>
      </trkpt>
      <trkpt lat="46.13074" lon="4.42306">
        <ele>843</ele>
        <time>2025-09-28T13:04:50Z</time>
      </trkpt>
      <trkpt lat="46.13071" lon="4.42308">
        <ele>843</ele>
        <time>2025-09-28T13:04:51Z</time>
      </trkpt>
      <trkpt lat="46.13068" lon="4.4231">
        <ele>843.2</ele>
        <time>2025-09-28T13:04:52Z</time>
      </trkpt>
      <trkpt lat="46.13066" lon="4.42312">
        <ele>843.6</ele>
        <time>2025-09-28T13:04:53Z</time>
      </trkpt>
      <trkpt lat="46.13063" lon="4.42314">
        <ele>843.6</ele>
        <time>2025-09-28T13:04:54Z</time>
      </trkpt>
      <trkpt lat="46.1306" lon="4.42316">
        <ele>843.6</ele>
        <time>2025-09-28T13:04:55Z</time>
      </trkpt>
      <trkpt lat="46.13057" lon="4.42318">
        <ele>844.2</ele>
        <time>2025-09-28T13:04:56Z</time>
      </trkpt>
      <trkpt lat="46.13054" lon="4.4232">
        <ele>844.2</ele>
        <time>2025-09-28T13:04:57Z</time>
      </trkpt>
      <trkpt lat="46.13051" lon="4.42322">
        <ele>844</ele>
        <time>2025-09-28T13:04:58Z</time>
      </trkpt>
      <trkpt lat="46.13049" lon="4.42324">
        <ele>844.2</ele>
        <time>2025-09-28T13:04:59Z</time>
      </trkpt>
      <trkpt lat="46.13046" lon="4.42326">
        <ele>844.2</ele>
        <time>2025-09-28T13:05:00Z</time>
      </trkpt>
      <trkpt lat="46.13043" lon="4.42328">
        <ele>844.6</ele>
        <time>2025-09-28T13:05:01Z</time>
      </trkpt>
      <trkpt lat="46.1304" lon="4.4233">
        <ele>844.8</ele>
        <time>2025-09-28T13:05:02Z</time>
      </trkpt>
      <trkpt lat="46.13038" lon="4.42332">
        <ele>844.8</ele>
        <time>2025-09-28T13:05:03Z</time>
      </trkpt>
      <trkpt lat="46.13035" lon="4.42334">
        <ele>845</ele>
        <time>2025-09-28T13:05:04Z</time>
      </trkpt>
      <trkpt lat="46.13033" lon="4.42336">
        <ele>845.4</ele>
        <time>2025-09-28T13:05:05Z</time>
      </trkpt>
      <trkpt lat="46.1303" lon="4.42338">
        <ele>845.4</ele>
        <time>2025-09-28T13:05:06Z</time>
      </trkpt>
      <trkpt lat="46.13028" lon="4.42339">
        <ele>845.4</ele>
        <time>2025-09-28T13:05:07Z</time>
      </trkpt>
      <trkpt lat="46.13027" lon="4.42341">
        <ele>845.4</ele>
        <time>2025-09-28T13:05:08Z</time>
      </trkpt>
      <trkpt lat="46.13024" lon="4.42342">
        <ele>845.6</ele>
        <time>2025-09-28T13:05:09Z</time>
      </trkpt>
      <trkpt lat="46.13022" lon="4.42344">
        <ele>845.6</ele>
        <time>2025-09-28T13:05:10Z</time>
      </trkpt>
      <trkpt lat="46.1302" lon="4.42345">
        <ele>845.8</ele>
        <time>2025-09-28T13:05:11Z</time>
      </trkpt>
      <trkpt lat="46.13018" lon="4.42347">
        <ele>845.8</ele>
        <time>2025-09-28T13:05:12Z</time>
      </trkpt>
      <trkpt lat="46.13016" lon="4.42348">
        <ele>846</ele>
        <time>2025-09-28T13:05:13Z</time>
      </trkpt>
      <trkpt lat="46.13014" lon="4.42349">
        <ele>846</ele>
        <time>2025-09-28T13:05:14Z</time>
      </trkpt>
      <trkpt lat="46.13013" lon="4.42351">
        <ele>846.2</ele>
        <time>2025-09-28T13:05:15Z</time>
      </trkpt>
      <trkpt lat="46.1301" lon="4.42353">
        <ele>846.4</ele>
        <time>2025-09-28T13:05:16Z</time>
      </trkpt>
      <trkpt lat="46.13008" lon="4.42355">
        <ele>846.4</ele>
        <time>2025-09-28T13:05:17Z</time>
      </trkpt>
      <trkpt lat="46.13007" lon="4.42356">
        <ele>846.4</ele>
        <time>2025-09-28T13:05:18Z</time>
      </trkpt>
      <trkpt lat="46.13006" lon="4.42358">
        <ele>846.4</ele>
        <time>2025-09-28T13:05:19Z</time>
      </trkpt>
      <trkpt lat="46.13004" lon="4.4236">
        <ele>846.8</ele>
        <time>2025-09-28T13:05:20Z</time>
      </trkpt>
      <trkpt lat="46.13002" lon="4.42362">
        <ele>846.8</ele>
        <time>2025-09-28T13:05:21Z</time>
      </trkpt>
      <trkpt lat="46.13" lon="4.42365">
        <ele>846.8</ele>
        <time>2025-09-28T13:05:22Z</time>
      </trkpt>
      <trkpt lat="46.12998" lon="4.42367">
        <ele>847.2</ele>
        <time>2025-09-28T13:05:23Z</time>
      </trkpt>
      <trkpt lat="46.12995" lon="4.42369">
        <ele>847.2</ele>
        <time>2025-09-28T13:05:24Z</time>
      </trkpt>
      <trkpt lat="46.12993" lon="4.4237">
        <ele>847.4</ele>
        <time>2025-09-28T13:05:25Z</time>
      </trkpt>
      <trkpt lat="46.1299" lon="4.42371">
        <ele>847.4</ele>
        <time>2025-09-28T13:05:26Z</time>
      </trkpt>
      <trkpt lat="46.12988" lon="4.42373">
        <ele>847.4</ele>
        <time>2025-09-28T13:05:27Z</time>
      </trkpt>
      <trkpt lat="46.12985" lon="4.42375">
        <ele>847.4</ele>
        <time>2025-09-28T13:05:28Z</time>
      </trkpt>
      <trkpt lat="46.12983" lon="4.42376">
        <ele>847.6</ele>
        <time>2025-09-28T13:05:29Z</time>
      </trkpt>
      <trkpt lat="46.1298" lon="4.42378">
        <ele>847.6</ele>
        <time>2025-09-28T13:05:30Z</time>
      </trkpt>
      <trkpt lat="46.12978" lon="4.42379">
        <ele>847.6</ele>
        <time>2025-09-28T13:05:31Z</time>
      </trkpt>
      <trkpt lat="46.12976" lon="4.42381">
        <ele>847.6</ele>
        <time>2025-09-28T13:05:32Z</time>
      </trkpt>
      <trkpt lat="46.12973" lon="4.42382">
        <ele>847.6</ele>
        <time>2025-09-28T13:05:33Z</time>
      </trkpt>
      <trkpt lat="46.12971" lon="4.42384">
        <ele>847.8</ele>
        <time>2025-09-28T13:05:34Z</time>
      </trkpt>
      <trkpt lat="46.12968" lon="4.42386">
        <ele>847.8</ele>
        <time>2025-09-28T13:05:35Z</time>
      </trkpt>
      <trkpt lat="46.12966" lon="4.42388">
        <ele>847.8</ele>
        <time>2025-09-28T13:05:36Z</time>
      </trkpt>
      <trkpt lat="46.12963" lon="4.42389">
        <ele>848.2</ele>
        <time>2025-09-28T13:05:37Z</time>
      </trkpt>
      <trkpt lat="46.12961" lon="4.42391">
        <ele>848.2</ele>
        <time>2025-09-28T13:05:38Z</time>
      </trkpt>
      <trkpt lat="46.12958" lon="4.42393">
        <ele>848.4</ele>
        <time>2025-09-28T13:05:39Z</time>
      </trkpt>
      <trkpt lat="46.12956" lon="4.42394">
        <ele>848.4</ele>
        <time>2025-09-28T13:05:40Z</time>
      </trkpt>
      <trkpt lat="46.12953" lon="4.42395">
        <ele>848.4</ele>
        <time>2025-09-28T13:05:41Z</time>
      </trkpt>
      <trkpt lat="46.1295" lon="4.42396">
        <ele>848.4</ele>
        <time>2025-09-28T13:05:42Z</time>
      </trkpt>
      <trkpt lat="46.12948" lon="4.42397">
        <ele>848.6</ele>
        <time>2025-09-28T13:05:43Z</time>
      </trkpt>
      <trkpt lat="46.12945" lon="4.42398">
        <ele>848.6</ele>
        <time>2025-09-28T13:05:44Z</time>
      </trkpt>
      <trkpt lat="46.12942" lon="4.42399">
        <ele>848.6</ele>
        <time>2025-09-28T13:05:45Z</time>
      </trkpt>
      <trkpt lat="46.1294" lon="4.424">
        <ele>848.6</ele>
        <time>2025-09-28T13:05:46Z</time>
      </trkpt>
      <trkpt lat="46.12938" lon="4.42401">
        <ele>848.6</ele>
        <time>2025-09-28T13:05:47Z</time>
      </trkpt>
      <trkpt lat="46.12935" lon="4.42402">
        <ele>849</ele>
        <time>2025-09-28T13:05:48Z</time>
      </trkpt>
      <trkpt lat="46.12933" lon="4.42402">
        <ele>849</ele>
        <time>2025-09-28T13:05:49Z</time>
      </trkpt>
      <trkpt lat="46.12932" lon="4.42403">
        <ele>849.2</ele>
        <time>2025-09-28T13:05:50Z</time>
      </trkpt>
      <trkpt lat="46.1293" lon="4.42404">
        <ele>849.2</ele>
        <time>2025-09-28T13:05:51Z</time>
      </trkpt>
      <trkpt lat="46.12927" lon="4.42406">
        <ele>849.2</ele>
        <time>2025-09-28T13:05:52Z</time>
      </trkpt>
      <trkpt lat="46.12925" lon="4.42407">
        <ele>849.2</ele>
        <time>2025-09-28T13:05:53Z</time>
      </trkpt>
      <trkpt lat="46.12922" lon="4.42408">
        <ele>849.2</ele>
        <time>2025-09-28T13:05:54Z</time>
      </trkpt>
      <trkpt lat="46.1292" lon="4.4241">
        <ele>849.2</ele>
        <time>2025-09-28T13:05:55Z</time>
      </trkpt>
      <trkpt lat="46.12918" lon="4.42412">
        <ele>849.2</ele>
        <time>2025-09-28T13:05:56Z</time>
      </trkpt>
      <trkpt lat="46.12915" lon="4.42413">
        <ele>849.2</ele>
        <time>2025-09-28T13:05:57Z</time>
      </trkpt>
      <trkpt lat="46.12914" lon="4.42414">
        <ele>849.2</ele>
        <time>2025-09-28T13:05:58Z</time>
      </trkpt>
      <trkpt lat="46.12912" lon="4.42415">
        <ele>849.2</ele>
        <time>2025-09-28T13:05:59Z</time>
      </trkpt>
      <trkpt lat="46.12911" lon="4.42416">
        <ele>849.4</ele>
        <time>2025-09-28T13:06:00Z</time>
      </trkpt>
      <trkpt lat="46.12908" lon="4.42418">
        <ele>849.4</ele>
        <time>2025-09-28T13:06:01Z</time>
      </trkpt>
      <trkpt lat="46.12905" lon="4.42419">
        <ele>849.4</ele>
        <time>2025-09-28T13:06:02Z</time>
      </trkpt>
      <trkpt lat="46.12904" lon="4.4242">
        <ele>849.4</ele>
        <time>2025-09-28T13:06:03Z</time>
      </trkpt>
      <trkpt lat="46.12902" lon="4.42422">
        <ele>849.4</ele>
        <time>2025-09-28T13:06:04Z</time>
      </trkpt>
      <trkpt lat="46.129" lon="4.42424">
        <ele>850</ele>
        <time>2025-09-28T13:06:05Z</time>
      </trkpt>
      <trkpt lat="46.12898" lon="4.42426">
        <ele>850</ele>
        <time>2025-09-28T13:06:06Z</time>
      </trkpt>
      <trkpt lat="46.12896" lon="4.42427">
        <ele>850.4</ele>
        <time>2025-09-28T13:06:07Z</time>
      </trkpt>
      <trkpt lat="46.12894" lon="4.42428">
        <ele>850.6</ele>
        <time>2025-09-28T13:06:08Z</time>
      </trkpt>
      <trkpt lat="46.12891" lon="4.4243">
        <ele>850.6</ele>
        <time>2025-09-28T13:06:09Z</time>
      </trkpt>
      <trkpt lat="46.1289" lon="4.42431">
        <ele>851.2</ele>
        <time>2025-09-28T13:06:10Z</time>
      </trkpt>
      <trkpt lat="46.12889" lon="4.42432">
        <ele>851.2</ele>
        <time>2025-09-28T13:06:11Z</time>
      </trkpt>
      <trkpt lat="46.12887" lon="4.42433">
        <ele>851.2</ele>
        <time>2025-09-28T13:06:12Z</time>
      </trkpt>
      <trkpt lat="46.12886" lon="4.42434">
        <ele>851.2</ele>
        <time>2025-09-28T13:06:13Z</time>
      </trkpt>
      <trkpt lat="46.12884" lon="4.42436">
        <ele>851.2</ele>
        <time>2025-09-28T13:06:14Z</time>
      </trkpt>
      <trkpt lat="46.12883" lon="4.42438">
        <ele>851.4</ele>
        <time>2025-09-28T13:06:15Z</time>
      </trkpt>
      <trkpt lat="46.12881" lon="4.4244">
        <ele>851.4</ele>
        <time>2025-09-28T13:06:16Z</time>
      </trkpt>
      <trkpt lat="46.1288" lon="4.42441">
        <ele>851.8</ele>
        <time>2025-09-28T13:06:17Z</time>
      </trkpt>
      <trkpt lat="46.12879" lon="4.42443">
        <ele>851.8</ele>
        <time>2025-09-28T13:06:18Z</time>
      </trkpt>
      <trkpt lat="46.12877" lon="4.42444">
        <ele>852.2</ele>
        <time>2025-09-28T13:06:19Z</time>
      </trkpt>
      <trkpt lat="46.12873" lon="4.42446">
        <ele>852.4</ele>
        <time>2025-09-28T13:06:20Z</time>
      </trkpt>
      <trkpt lat="46.12871" lon="4.42447">
        <ele>852.8</ele>
        <time>2025-09-28T13:06:21Z</time>
      </trkpt>
      <trkpt lat="46.12871" lon="4.42447">
        <ele>852.8</ele>
        <time>2025-09-28T13:06:22Z</time>
      </trkpt>
      <trkpt lat="46.1287" lon="4.42448">
        <ele>852.8</ele>
        <time>2025-09-28T13:06:23Z</time>
      </trkpt>
      <trkpt lat="46.12869" lon="4.4245">
        <ele>853.2</ele>
        <time>2025-09-28T13:06:24Z</time>
      </trkpt>
      <trkpt lat="46.12867" lon="4.42451">
        <ele>853.4</ele>
        <time>2025-09-28T13:06:25Z</time>
      </trkpt>
      <trkpt lat="46.12866" lon="4.42452">
        <ele>853.4</ele>
        <time>2025-09-28T13:06:26Z</time>
      </trkpt>
      <trkpt lat="46.12864" lon="4.42453">
        <ele>853.6</ele>
        <time>2025-09-28T13:06:27Z</time>
      </trkpt>
      <trkpt lat="46.12862" lon="4.42454">
        <ele>853.8</ele>
        <time>2025-09-28T13:06:28Z</time>
      </trkpt>
      <trkpt lat="46.1286" lon="4.42456">
        <ele>853.8</ele>
        <time>2025-09-28T13:06:29Z</time>
      </trkpt>
      <trkpt lat="46.12858" lon="4.42457">
        <ele>854.4</ele>
        <time>2025-09-28T13:06:30Z</time>
      </trkpt>
      <trkpt lat="46.12856" lon="4.42459">
        <ele>854.4</ele>
        <time>2025-09-28T13:06:31Z</time>
      </trkpt>
      <trkpt lat="46.12854" lon="4.4246">
        <ele>854.4</ele>
        <time>2025-09-28T13:06:32Z</time>
      </trkpt>
      <trkpt lat="46.12852" lon="4.42461">
        <ele>854.4</ele>
        <time>2025-09-28T13:06:33Z</time>
      </trkpt>
      <trkpt lat="46.1285" lon="4.42462">
        <ele>855</ele>
        <time>2025-09-28T13:06:34Z</time>
      </trkpt>
      <trkpt lat="46.12849" lon="4.42464">
        <ele>855</ele>
        <time>2025-09-28T13:06:35Z</time>
      </trkpt>
      <trkpt lat="46.12847" lon="4.42465">
        <ele>855.6</ele>
        <time>2025-09-28T13:06:36Z</time>
      </trkpt>
      <trkpt lat="46.12845" lon="4.42467">
        <ele>855.8</ele>
        <time>2025-09-28T13:06:37Z</time>
      </trkpt>
      <trkpt lat="46.12844" lon="4.42468">
        <ele>855.8</ele>
        <time>2025-09-28T13:06:38Z</time>
      </trkpt>
      <trkpt lat="46.12842" lon="4.42469">
        <ele>855.8</ele>
        <time>2025-09-28T13:06:39Z</time>
      </trkpt>
      <trkpt lat="46.12841" lon="4.42471">
        <ele>856</ele>
        <time>2025-09-28T13:06:40Z</time>
      </trkpt>
      <trkpt lat="46.1284" lon="4.42473">
        <ele>856.2</ele>
        <time>2025-09-28T13:06:41Z</time>
      </trkpt>
      <trkpt lat="46.1284" lon="4.42476">
        <ele>856.6</ele>
        <time>2025-09-28T13:06:42Z</time>
      </trkpt>
      <trkpt lat="46.12838" lon="4.42478">
        <ele>856.8</ele>
        <time>2025-09-28T13:06:43Z</time>
      </trkpt>
      <trkpt lat="46.12836" lon="4.42479">
        <ele>857</ele>
        <time>2025-09-28T13:06:44Z</time>
      </trkpt>
      <trkpt lat="46.12835" lon="4.42479">
        <ele>857</ele>
        <time>2025-09-28T13:06:45Z</time>
      </trkpt>
      <trkpt lat="46.12834" lon="4.42478">
        <ele>857.4</ele>
        <time>2025-09-28T13:06:46Z</time>
      </trkpt>
      <trkpt lat="46.12833" lon="4.42478">
        <ele>857.4</ele>
        <time>2025-09-28T13:06:47Z</time>
      </trkpt>
      <trkpt lat="46.12831" lon="4.42478">
        <ele>857.4</ele>
        <time>2025-09-28T13:06:48Z</time>
      </trkpt>
      <trkpt lat="46.12829" lon="4.42479">
        <ele>857.4</ele>
        <time>2025-09-28T13:06:49Z</time>
      </trkpt>
      <trkpt lat="46.12827" lon="4.42481">
        <ele>857.8</ele>
        <time>2025-09-28T13:06:50Z</time>
      </trkpt>
      <trkpt lat="46.12826" lon="4.42482">
        <ele>857.8</ele>
        <time>2025-09-28T13:06:51Z</time>
      </trkpt>
      <trkpt lat="46.12824" lon="4.42482">
        <ele>858</ele>
        <time>2025-09-28T13:06:52Z</time>
      </trkpt>
      <trkpt lat="46.12822" lon="4.42483">
        <ele>858.4</ele>
        <time>2025-09-28T13:06:53Z</time>
      </trkpt>
      <trkpt lat="46.1282" lon="4.42485">
        <ele>858.4</ele>
        <time>2025-09-28T13:06:54Z</time>
      </trkpt>
      <trkpt lat="46.12819" lon="4.42486">
        <ele>858.6</ele>
        <time>2025-09-28T13:06:55Z</time>
      </trkpt>
      <trkpt lat="46.12818" lon="4.42486">
        <ele>858.6</ele>
        <time>2025-09-28T13:06:56Z</time>
      </trkpt>
      <trkpt lat="46.12816" lon="4.42487">
        <ele>858.6</ele>
        <time>2025-09-28T13:06:57Z</time>
      </trkpt>
      <trkpt lat="46.12815" lon="4.42488">
        <ele>858.4</ele>
        <time>2025-09-28T13:06:58Z</time>
      </trkpt>
      <trkpt lat="46.12813" lon="4.42489">
        <ele>858.8</ele>
        <time>2025-09-28T13:06:59Z</time>
      </trkpt>
      <trkpt lat="46.12812" lon="4.4249">
        <ele>859</ele>
        <time>2025-09-28T13:07:00Z</time>
      </trkpt>
      <trkpt lat="46.1281" lon="4.42491">
        <ele>859.2</ele>
        <time>2025-09-28T13:07:01Z</time>
      </trkpt>
      <trkpt lat="46.12808" lon="4.42493">
        <ele>859.2</ele>
        <time>2025-09-28T13:07:02Z</time>
      </trkpt>
      <trkpt lat="46.12806" lon="4.42494">
        <ele>859.8</ele>
        <time>2025-09-28T13:07:03Z</time>
      </trkpt>
      <trkpt lat="46.12805" lon="4.42495">
        <ele>859.8</ele>
        <time>2025-09-28T13:07:04Z</time>
      </trkpt>
      <trkpt lat="46.12803" lon="4.42496">
        <ele>859.8</ele>
        <time>2025-09-28T13:07:05Z</time>
      </trkpt>
      <trkpt lat="46.12801" lon="4.42497">
        <ele>860</ele>
        <time>2025-09-28T13:07:06Z</time>
      </trkpt>
      <trkpt lat="46.12799" lon="4.42499">
        <ele>860</ele>
        <time>2025-09-28T13:07:07Z</time>
      </trkpt>
      <trkpt lat="46.12797" lon="4.425">
        <ele>860</ele>
        <time>2025-09-28T13:07:08Z</time>
      </trkpt>
      <trkpt lat="46.12795" lon="4.42501">
        <ele>860.2</ele>
        <time>2025-09-28T13:07:09Z</time>
      </trkpt>
      <trkpt lat="46.12794" lon="4.42501">
        <ele>860.2</ele>
        <time>2025-09-28T13:07:10Z</time>
      </trkpt>
      <trkpt lat="46.12793" lon="4.42502">
        <ele>860.6</ele>
        <time>2025-09-28T13:07:11Z</time>
      </trkpt>
      <trkpt lat="46.12791" lon="4.42503">
        <ele>860.6</ele>
        <time>2025-09-28T13:07:12Z</time>
      </trkpt>
      <trkpt lat="46.12789" lon="4.42505">
        <ele>860.8</ele>
        <time>2025-09-28T13:07:13Z</time>
      </trkpt>
      <trkpt lat="46.12787" lon="4.42506">
        <ele>860.8</ele>
        <time>2025-09-28T13:07:14Z</time>
      </trkpt>
      <trkpt lat="46.12785" lon="4.42508">
        <ele>860.8</ele>
        <time>2025-09-28T13:07:15Z</time>
      </trkpt>
      <trkpt lat="46.12782" lon="4.42509">
        <ele>860.8</ele>
        <time>2025-09-28T13:07:16Z</time>
      </trkpt>
      <trkpt lat="46.1278" lon="4.4251">
        <ele>860.8</ele>
        <time>2025-09-28T13:07:17Z</time>
      </trkpt>
      <trkpt lat="46.12778" lon="4.42511">
        <ele>860.8</ele>
        <time>2025-09-28T13:07:18Z</time>
      </trkpt>
      <trkpt lat="46.12776" lon="4.42511">
        <ele>860.8</ele>
        <time>2025-09-28T13:07:19Z</time>
      </trkpt>
      <trkpt lat="46.12774" lon="4.42513">
        <ele>861</ele>
        <time>2025-09-28T13:07:20Z</time>
      </trkpt>
      <trkpt lat="46.12771" lon="4.42515">
        <ele>861</ele>
        <time>2025-09-28T13:07:21Z</time>
      </trkpt>
      <trkpt lat="46.12768" lon="4.42516">
        <ele>861</ele>
        <time>2025-09-28T13:07:22Z</time>
      </trkpt>
      <trkpt lat="46.12766" lon="4.42517">
        <ele>861</ele>
        <time>2025-09-28T13:07:23Z</time>
      </trkpt>
      <trkpt lat="46.12763" lon="4.42519">
        <ele>861.2</ele>
        <time>2025-09-28T13:07:24Z</time>
      </trkpt>
      <trkpt lat="46.12761" lon="4.4252">
        <ele>861.2</ele>
        <time>2025-09-28T13:07:25Z</time>
      </trkpt>
      <trkpt lat="46.12758" lon="4.42522">
        <ele>861.2</ele>
        <time>2025-09-28T13:07:26Z</time>
      </trkpt>
      <trkpt lat="46.12755" lon="4.42524">
        <ele>861.2</ele>
        <time>2025-09-28T13:07:27Z</time>
      </trkpt>
      <trkpt lat="46.12752" lon="4.42526">
        <ele>861</ele>
        <time>2025-09-28T13:07:28Z</time>
      </trkpt>
      <trkpt lat="46.1275" lon="4.42528">
        <ele>861.4</ele>
        <time>2025-09-28T13:07:29Z</time>
      </trkpt>
      <trkpt lat="46.12747" lon="4.4253">
        <ele>861.4</ele>
        <time>2025-09-28T13:07:30Z</time>
      </trkpt>
      <trkpt lat="46.12744" lon="4.42532">
        <ele>861.2</ele>
        <time>2025-09-28T13:07:31Z</time>
      </trkpt>
      <trkpt lat="46.1274" lon="4.42533">
        <ele>861.2</ele>
        <time>2025-09-28T13:07:32Z</time>
      </trkpt>
      <trkpt lat="46.12737" lon="4.42535">
        <ele>861.2</ele>
        <time>2025-09-28T13:07:33Z</time>
      </trkpt>
      <trkpt lat="46.12733" lon="4.42537">
        <ele>860.8</ele>
        <time>2025-09-28T13:07:34Z</time>
      </trkpt>
      <trkpt lat="46.1273" lon="4.42539">
        <ele>860.8</ele>
        <time>2025-09-28T13:07:35Z</time>
      </trkpt>
      <trkpt lat="46.12724" lon="4.42541">
        <ele>861.6</ele>
        <time>2025-09-28T13:07:36Z</time>
      </trkpt>
      <trkpt lat="46.12719" lon="4.42541">
        <ele>861.6</ele>
        <time>2025-09-28T13:07:37Z</time>
      </trkpt>
      <trkpt lat="46.12716" lon="4.42541">
        <ele>861.4</ele>
        <time>2025-09-28T13:07:38Z</time>
      </trkpt>
      <trkpt lat="46.12712" lon="4.42542">
        <ele>861.4</ele>
        <time>2025-09-28T13:07:39Z</time>
      </trkpt>
      <trkpt lat="46.12707" lon="4.42542">
        <ele>861.4</ele>
        <time>2025-09-28T13:07:40Z</time>
      </trkpt>
      <trkpt lat="46.12704" lon="4.42542">
        <ele>861.4</ele>
        <time>2025-09-28T13:07:41Z</time>
      </trkpt>
      <trkpt lat="46.127" lon="4.42543">
        <ele>861.4</ele>
        <time>2025-09-28T13:07:42Z</time>
      </trkpt>
      <trkpt lat="46.12696" lon="4.42544">
        <ele>861.4</ele>
        <time>2025-09-28T13:07:43Z</time>
      </trkpt>
      <trkpt lat="46.12692" lon="4.42546">
        <ele>861.4</ele>
        <time>2025-09-28T13:07:44Z</time>
      </trkpt>
      <trkpt lat="46.12689" lon="4.42547">
        <ele>861</ele>
        <time>2025-09-28T13:07:45Z</time>
      </trkpt>
      <trkpt lat="46.12685" lon="4.4255">
        <ele>861</ele>
        <time>2025-09-28T13:07:46Z</time>
      </trkpt>
      <trkpt lat="46.12681" lon="4.42551">
        <ele>861</ele>
        <time>2025-09-28T13:07:47Z</time>
      </trkpt>
      <trkpt lat="46.12677" lon="4.42553">
        <ele>861.4</ele>
        <time>2025-09-28T13:07:48Z</time>
      </trkpt>
      <trkpt lat="46.12673" lon="4.42553">
        <ele>861.4</ele>
        <time>2025-09-28T13:07:49Z</time>
      </trkpt>
      <trkpt lat="46.1267" lon="4.42553">
        <ele>861.8</ele>
        <time>2025-09-28T13:07:50Z</time>
      </trkpt>
      <trkpt lat="46.12666" lon="4.42556">
        <ele>861.2</ele>
        <time>2025-09-28T13:07:51Z</time>
      </trkpt>
      <trkpt lat="46.12662" lon="4.42559">
        <ele>860.8</ele>
        <time>2025-09-28T13:07:52Z</time>
      </trkpt>
      <trkpt lat="46.12657" lon="4.42561">
        <ele>860.8</ele>
        <time>2025-09-28T13:07:53Z</time>
      </trkpt>
      <trkpt lat="46.12654" lon="4.42565">
        <ele>860.8</ele>
        <time>2025-09-28T13:07:54Z</time>
      </trkpt>
      <trkpt lat="46.12649" lon="4.42567">
        <ele>860.8</ele>
        <time>2025-09-28T13:07:55Z</time>
      </trkpt>
      <trkpt lat="46.12645" lon="4.4257">
        <ele>860.8</ele>
        <time>2025-09-28T13:07:56Z</time>
      </trkpt>
      <trkpt lat="46.1264" lon="4.42573">
        <ele>860.2</ele>
        <time>2025-09-28T13:07:57Z</time>
      </trkpt>
      <trkpt lat="46.12635" lon="4.42577">
        <ele>860.2</ele>
        <time>2025-09-28T13:07:58Z</time>
      </trkpt>
      <trkpt lat="46.12631" lon="4.42581">
        <ele>860</ele>
        <time>2025-09-28T13:07:59Z</time>
      </trkpt>
      <trkpt lat="46.12627" lon="4.42582">
        <ele>859.6</ele>
        <time>2025-09-28T13:08:00Z</time>
      </trkpt>
      <trkpt lat="46.12624" lon="4.42586">
        <ele>859.6</ele>
        <time>2025-09-28T13:08:01Z</time>
      </trkpt>
      <trkpt lat="46.12618" lon="4.42592">
        <ele>859.2</ele>
        <time>2025-09-28T13:08:02Z</time>
      </trkpt>
      <trkpt lat="46.12612" lon="4.426">
        <ele>858.6</ele>
        <time>2025-09-28T13:08:03Z</time>
      </trkpt>
      <trkpt lat="46.12609" lon="4.42606">
        <ele>858.4</ele>
        <time>2025-09-28T13:08:04Z</time>
      </trkpt>
      <trkpt lat="46.12603" lon="4.42612">
        <ele>858.4</ele>
        <time>2025-09-28T13:08:05Z</time>
      </trkpt>
      <trkpt lat="46.12597" lon="4.42617">
        <ele>858.4</ele>
        <time>2025-09-28T13:08:06Z</time>
      </trkpt>
      <trkpt lat="46.12593" lon="4.42621">
        <ele>858.2</ele>
        <time>2025-09-28T13:08:07Z</time>
      </trkpt>
      <trkpt lat="46.12588" lon="4.42625">
        <ele>858.2</ele>
        <time>2025-09-28T13:08:08Z</time>
      </trkpt>
      <trkpt lat="46.12584" lon="4.42631">
        <ele>858.4</ele>
        <time>2025-09-28T13:08:09Z</time>
      </trkpt>
      <trkpt lat="46.1258" lon="4.42634">
        <ele>858.4</ele>
        <time>2025-09-28T13:08:10Z</time>
      </trkpt>
      <trkpt lat="46.12575" lon="4.42638">
        <ele>857.6</ele>
        <time>2025-09-28T13:08:11Z</time>
      </trkpt>
      <trkpt lat="46.12571" lon="4.4264">
        <ele>857.6</ele>
        <time>2025-09-28T13:08:12Z</time>
      </trkpt>
      <trkpt lat="46.12566" lon="4.42643">
        <ele>857.6</ele>
        <time>2025-09-28T13:08:13Z</time>
      </trkpt>
      <trkpt lat="46.12562" lon="4.42646">
        <ele>858</ele>
        <time>2025-09-28T13:08:14Z</time>
      </trkpt>
      <trkpt lat="46.12558" lon="4.42648">
        <ele>858.4</ele>
        <time>2025-09-28T13:08:15Z</time>
      </trkpt>
      <trkpt lat="46.12554" lon="4.42653">
        <ele>858.8</ele>
        <time>2025-09-28T13:08:16Z</time>
      </trkpt>
      <trkpt lat="46.1255" lon="4.42656">
        <ele>858.8</ele>
        <time>2025-09-28T13:08:17Z</time>
      </trkpt>
      <trkpt lat="46.12546" lon="4.42659">
        <ele>858.8</ele>
        <time>2025-09-28T13:08:18Z</time>
      </trkpt>
      <trkpt lat="46.12542" lon="4.42663">
        <ele>858.8</ele>
        <time>2025-09-28T13:08:19Z</time>
      </trkpt>
      <trkpt lat="46.12538" lon="4.42666">
        <ele>859.2</ele>
        <time>2025-09-28T13:08:20Z</time>
      </trkpt>
      <trkpt lat="46.12534" lon="4.42671">
        <ele>859.2</ele>
        <time>2025-09-28T13:08:21Z</time>
      </trkpt>
      <trkpt lat="46.12529" lon="4.42674">
        <ele>859.6</ele>
        <time>2025-09-28T13:08:22Z</time>
      </trkpt>
      <trkpt lat="46.12526" lon="4.42676">
        <ele>860</ele>
        <time>2025-09-28T13:08:23Z</time>
      </trkpt>
      <trkpt lat="46.12522" lon="4.42679">
        <ele>860</ele>
        <time>2025-09-28T13:08:24Z</time>
      </trkpt>
      <trkpt lat="46.12519" lon="4.42684">
        <ele>860.4</ele>
        <time>2025-09-28T13:08:25Z</time>
      </trkpt>
      <trkpt lat="46.12515" lon="4.42685">
        <ele>860.4</ele>
        <time>2025-09-28T13:08:26Z</time>
      </trkpt>
      <trkpt lat="46.1251" lon="4.42687">
        <ele>860.4</ele>
        <time>2025-09-28T13:08:27Z</time>
      </trkpt>
      <trkpt lat="46.12506" lon="4.42689">
        <ele>860.4</ele>
        <time>2025-09-28T13:08:28Z</time>
      </trkpt>
      <trkpt lat="46.12502" lon="4.42692">
        <ele>860.2</ele>
        <time>2025-09-28T13:08:29Z</time>
      </trkpt>
      <trkpt lat="46.12499" lon="4.42694">
        <ele>860.6</ele>
        <time>2025-09-28T13:08:30Z</time>
      </trkpt>
      <trkpt lat="46.12495" lon="4.42697">
        <ele>860.8</ele>
        <time>2025-09-28T13:08:31Z</time>
      </trkpt>
      <trkpt lat="46.12492" lon="4.427">
        <ele>860.8</ele>
        <time>2025-09-28T13:08:32Z</time>
      </trkpt>
      <trkpt lat="46.12488" lon="4.42704">
        <ele>861</ele>
        <time>2025-09-28T13:08:33Z</time>
      </trkpt>
      <trkpt lat="46.12485" lon="4.42707">
        <ele>861</ele>
        <time>2025-09-28T13:08:34Z</time>
      </trkpt>
      <trkpt lat="46.12482" lon="4.4271">
        <ele>861</ele>
        <time>2025-09-28T13:08:35Z</time>
      </trkpt>
      <trkpt lat="46.12479" lon="4.42713">
        <ele>861.2</ele>
        <time>2025-09-28T13:08:36Z</time>
      </trkpt>
      <trkpt lat="46.12475" lon="4.42715">
        <ele>861.2</ele>
        <time>2025-09-28T13:08:37Z</time>
      </trkpt>
      <trkpt lat="46.12471" lon="4.42719">
        <ele>861.2</ele>
        <time>2025-09-28T13:08:38Z</time>
      </trkpt>
      <trkpt lat="46.12468" lon="4.42721">
        <ele>860.8</ele>
        <time>2025-09-28T13:08:39Z</time>
      </trkpt>
      <trkpt lat="46.12464" lon="4.42725">
        <ele>861.2</ele>
        <time>2025-09-28T13:08:40Z</time>
      </trkpt>
      <trkpt lat="46.12461" lon="4.42729">
        <ele>861.2</ele>
        <time>2025-09-28T13:08:41Z</time>
      </trkpt>
      <trkpt lat="46.12457" lon="4.42732">
        <ele>861.2</ele>
        <time>2025-09-28T13:08:42Z</time>
      </trkpt>
      <trkpt lat="46.12453" lon="4.42736">
        <ele>861.2</ele>
        <time>2025-09-28T13:08:43Z</time>
      </trkpt>
      <trkpt lat="46.12449" lon="4.4274">
        <ele>860.8</ele>
        <time>2025-09-28T13:08:44Z</time>
      </trkpt>
      <trkpt lat="46.12446" lon="4.42745">
        <ele>860.8</ele>
        <time>2025-09-28T13:08:45Z</time>
      </trkpt>
      <trkpt lat="46.12443" lon="4.4275">
        <ele>860.8</ele>
        <time>2025-09-28T13:08:46Z</time>
      </trkpt>
      <trkpt lat="46.12439" lon="4.42755">
        <ele>860.8</ele>
        <time>2025-09-28T13:08:47Z</time>
      </trkpt>
      <trkpt lat="46.12436" lon="4.4276">
        <ele>860.8</ele>
        <time>2025-09-28T13:08:48Z</time>
      </trkpt>
      <trkpt lat="46.12433" lon="4.42766">
        <ele>860.8</ele>
        <time>2025-09-28T13:08:49Z</time>
      </trkpt>
      <trkpt lat="46.1243" lon="4.42772">
        <ele>860.8</ele>
        <time>2025-09-28T13:08:50Z</time>
      </trkpt>
      <trkpt lat="46.12427" lon="4.42777">
        <ele>860.4</ele>
        <time>2025-09-28T13:08:51Z</time>
      </trkpt>
      <trkpt lat="46.12423" lon="4.42783">
        <ele>860.4</ele>
        <time>2025-09-28T13:08:52Z</time>
      </trkpt>
      <trkpt lat="46.12421" lon="4.42789">
        <ele>860</ele>
        <time>2025-09-28T13:08:53Z</time>
      </trkpt>
      <trkpt lat="46.12417" lon="4.42795">
        <ele>860</ele>
        <time>2025-09-28T13:08:54Z</time>
      </trkpt>
      <trkpt lat="46.12415" lon="4.42799">
        <ele>859.4</ele>
        <time>2025-09-28T13:08:55Z</time>
      </trkpt>
      <trkpt lat="46.12412" lon="4.42804">
        <ele>859.4</ele>
        <time>2025-09-28T13:08:56Z</time>
      </trkpt>
      <trkpt lat="46.12407" lon="4.42807">
        <ele>859.8</ele>
        <time>2025-09-28T13:08:57Z</time>
      </trkpt>
      <trkpt lat="46.12405" lon="4.42809">
        <ele>859.8</ele>
        <time>2025-09-28T13:08:58Z</time>
      </trkpt>
      <trkpt lat="46.12402" lon="4.42812">
        <ele>859.8</ele>
        <time>2025-09-28T13:08:59Z</time>
      </trkpt>
      <trkpt lat="46.12398" lon="4.42816">
        <ele>859.8</ele>
        <time>2025-09-28T13:09:00Z</time>
      </trkpt>
      <trkpt lat="46.12395" lon="4.42819">
        <ele>859.8</ele>
        <time>2025-09-28T13:09:01Z</time>
      </trkpt>
      <trkpt lat="46.12391" lon="4.42822">
        <ele>859.8</ele>
        <time>2025-09-28T13:09:02Z</time>
      </trkpt>
      <trkpt lat="46.12388" lon="4.42825">
        <ele>860</ele>
        <time>2025-09-28T13:09:03Z</time>
      </trkpt>
      <trkpt lat="46.12385" lon="4.42828">
        <ele>860</ele>
        <time>2025-09-28T13:09:04Z</time>
      </trkpt>
      <trkpt lat="46.12382" lon="4.42831">
        <ele>860</ele>
        <time>2025-09-28T13:09:05Z</time>
      </trkpt>
      <trkpt lat="46.1238" lon="4.42835">
        <ele>860.4</ele>
        <time>2025-09-28T13:09:06Z</time>
      </trkpt>
      <trkpt lat="46.12378" lon="4.42838">
        <ele>860.4</ele>
        <time>2025-09-28T13:09:07Z</time>
      </trkpt>
      <trkpt lat="46.12378" lon="4.42843">
        <ele>860.4</ele>
        <time>2025-09-28T13:09:08Z</time>
      </trkpt>
      <trkpt lat="46.12378" lon="4.42846">
        <ele>860.4</ele>
        <time>2025-09-28T13:09:09Z</time>
      </trkpt>
      <trkpt lat="46.12379" lon="4.42848">
        <ele>860.4</ele>
        <time>2025-09-28T13:09:10Z</time>
      </trkpt>
      <trkpt lat="46.12379" lon="4.42849">
        <ele>860.8</ele>
        <time>2025-09-28T13:09:11Z</time>
      </trkpt>
      <trkpt lat="46.12379" lon="4.42851">
        <ele>861.2</ele>
        <time>2025-09-28T13:09:12Z</time>
      </trkpt>
      <trkpt lat="46.12377" lon="4.42852">
        <ele>861.2</ele>
        <time>2025-09-28T13:09:13Z</time>
      </trkpt>
      <trkpt lat="46.12376" lon="4.42851">
        <ele>861.2</ele>
        <time>2025-09-28T13:09:14Z</time>
      </trkpt>
      <trkpt lat="46.12375" lon="4.42849">
        <ele>861.4</ele>
        <time>2025-09-28T13:09:15Z</time>
      </trkpt>
      <trkpt lat="46.12374" lon="4.42846">
        <ele>861.4</ele>
        <time>2025-09-28T13:09:16Z</time>
      </trkpt>
      <trkpt lat="46.12373" lon="4.42843">
        <ele>861.4</ele>
        <time>2025-09-28T13:09:17Z</time>
      </trkpt>
      <trkpt lat="46.12372" lon="4.4284">
        <ele>861</ele>
        <time>2025-09-28T13:09:18Z</time>
      </trkpt>
      <trkpt lat="46.12371" lon="4.42839">
        <ele>861</ele>
        <time>2025-09-28T13:09:19Z</time>
      </trkpt>
      <trkpt lat="46.12369" lon="4.42838">
        <ele>861</ele>
        <time>2025-09-28T13:09:20Z</time>
      </trkpt>
      <trkpt lat="46.12369" lon="4.42838">
        <ele>861</ele>
        <time>2025-09-28T13:09:21Z</time>
      </trkpt>
      <trkpt lat="46.12368" lon="4.42837">
        <ele>861</ele>
        <time>2025-09-28T13:09:22Z</time>
      </trkpt>
      <trkpt lat="46.12368" lon="4.42841">
        <ele>861.4</ele>
        <time>2025-09-28T13:09:23Z</time>
      </trkpt>
      <trkpt lat="46.12369" lon="4.42842">
        <ele>861</ele>
        <time>2025-09-28T13:09:24Z</time>
      </trkpt>
      <trkpt lat="46.12369" lon="4.42842">
        <ele>861</ele>
        <time>2025-09-28T13:09:25Z</time>
      </trkpt>
      <trkpt lat="46.12367" lon="4.42842">
        <ele>860.6</ele>
        <time>2025-09-28T13:09:26Z</time>
      </trkpt>
      <trkpt lat="46.12367" lon="4.42842">
        <ele>860.4</ele>
        <time>2025-09-28T13:09:27Z</time>
      </trkpt>
      <trkpt lat="46.12367" lon="4.42842">
        <ele>860.4</ele>
        <time>2025-09-28T13:09:28Z</time>
      </trkpt>
      <trkpt lat="46.12366" lon="4.42842">
        <ele>860.2</ele>
        <time>2025-09-28T13:09:41Z</time>
      </trkpt>
      <trkpt lat="46.12365" lon="4.42842">
        <ele>860.2</ele>
        <time>2025-09-28T13:09:42Z</time>
      </trkpt>
      <trkpt lat="46.12365" lon="4.42842">
        <ele>860.2</ele>
        <time>2025-09-28T13:09:43Z</time>
      </trkpt>
      <trkpt lat="46.12365" lon="4.42843">
        <ele>860.2</ele>
        <time>2025-09-28T13:09:44Z</time>
      </trkpt>
      <trkpt lat="46.12364" lon="4.42843">
        <ele>860.2</ele>
        <time>2025-09-28T13:09:45Z</time>
      </trkpt>
      <trkpt lat="46.12363" lon="4.42843">
        <ele>860.2</ele>
        <time>2025-09-28T13:09:46Z</time>
      </trkpt>
      <trkpt lat="46.12361" lon="4.42844">
        <ele>860.6</ele>
        <time>2025-09-28T13:13:28Z</time>
      </trkpt>
      <trkpt lat="46.12362" lon="4.42844">
        <ele>860.6</ele>
        <time>2025-09-28T13:13:29Z</time>
      </trkpt>
      <trkpt lat="46.12363" lon="4.42845">
        <ele>860.6</ele>
        <time>2025-09-28T13:13:30Z</time>
      </trkpt>
      <trkpt lat="46.12363" lon="4.42846">
        <ele>860.6</ele>
        <time>2025-09-28T13:13:31Z</time>
      </trkpt>
      <trkpt lat="46.12363" lon="4.42847">
        <ele>860.6</ele>
        <time>2025-09-28T13:13:32Z</time>
      </trkpt>
      <trkpt lat="46.12363" lon="4.42848">
        <ele>860.8</ele>
        <time>2025-09-28T13:13:33Z</time>
      </trkpt>
      <trkpt lat="46.12364" lon="4.4285">
        <ele>860.8</ele>
        <time>2025-09-28T13:13:34Z</time>
      </trkpt>
      <trkpt lat="46.12364" lon="4.42852">
        <ele>860.8</ele>
        <time>2025-09-28T13:13:35Z</time>
      </trkpt>
      <trkpt lat="46.12363" lon="4.42853">
        <ele>860.8</ele>
        <time>2025-09-28T13:13:36Z</time>
      </trkpt>
      <trkpt lat="46.12363" lon="4.42854">
        <ele>860.8</ele>
        <time>2025-09-28T13:13:37Z</time>
      </trkpt>
      <trkpt lat="46.12363" lon="4.42854">
        <ele>860.8</ele>
        <time>2025-09-28T13:13:38Z</time>
      </trkpt>
      <trkpt lat="46.12362" lon="4.42854">
        <ele>861</ele>
        <time>2025-09-28T13:13:39Z</time>
      </trkpt>
      <trkpt lat="46.12361" lon="4.42855">
        <ele>861</ele>
        <time>2025-09-28T13:13:40Z</time>
      </trkpt>
      <trkpt lat="46.1236" lon="4.42856">
        <ele>861</ele>
        <time>2025-09-28T13:13:41Z</time>
      </trkpt>
      <trkpt lat="46.12359" lon="4.42857">
        <ele>861</ele>
        <time>2025-09-28T13:13:42Z</time>
      </trkpt>
      <trkpt lat="46.12357" lon="4.42858">
        <ele>861</ele>
        <time>2025-09-28T13:13:43Z</time>
      </trkpt>
      <trkpt lat="46.12355" lon="4.4286">
        <ele>861</ele>
        <time>2025-09-28T13:13:44Z</time>
      </trkpt>
      <trkpt lat="46.12353" lon="4.42862">
        <ele>861</ele>
        <time>2025-09-28T13:13:45Z</time>
      </trkpt>
      <trkpt lat="46.12351" lon="4.42864">
        <ele>861.4</ele>
        <time>2025-09-28T13:13:46Z</time>
      </trkpt>
      <trkpt lat="46.12349" lon="4.42866">
        <ele>861.4</ele>
        <time>2025-09-28T13:13:47Z</time>
      </trkpt>
      <trkpt lat="46.12347" lon="4.42868">
        <ele>861.4</ele>
        <time>2025-09-28T13:13:48Z</time>
      </trkpt>
      <trkpt lat="46.12344" lon="4.42869">
        <ele>861.4</ele>
        <time>2025-09-28T13:13:49Z</time>
      </trkpt>
      <trkpt lat="46.12342" lon="4.42871">
        <ele>861.4</ele>
        <time>2025-09-28T13:13:50Z</time>
      </trkpt>
      <trkpt lat="46.1234" lon="4.42872">
        <ele>861.6</ele>
        <time>2025-09-28T13:13:51Z</time>
      </trkpt>
      <trkpt lat="46.12338" lon="4.42874">
        <ele>861.6</ele>
        <time>2025-09-28T13:13:52Z</time>
      </trkpt>
      <trkpt lat="46.12336" lon="4.42876">
        <ele>861.6</ele>
        <time>2025-09-28T13:13:53Z</time>
      </trkpt>
      <trkpt lat="46.12334" lon="4.42877">
        <ele>861.6</ele>
        <time>2025-09-28T13:13:54Z</time>
      </trkpt>
      <trkpt lat="46.12332" lon="4.42879">
        <ele>861.6</ele>
        <time>2025-09-28T13:13:55Z</time>
      </trkpt>
      <trkpt lat="46.12329" lon="4.4288">
        <ele>861.6</ele>
        <time>2025-09-28T13:13:56Z</time>
      </trkpt>
      <trkpt lat="46.12327" lon="4.42882">
        <ele>862.2</ele>
        <time>2025-09-28T13:13:57Z</time>
      </trkpt>
      <trkpt lat="46.12325" lon="4.42884">
        <ele>862.2</ele>
        <time>2025-09-28T13:13:58Z</time>
      </trkpt>
      <trkpt lat="46.12323" lon="4.42885">
        <ele>861.8</ele>
        <time>2025-09-28T13:13:59Z</time>
      </trkpt>
      <trkpt lat="46.12319" lon="4.42887">
        <ele>862</ele>
        <time>2025-09-28T13:14:00Z</time>
      </trkpt>
      <trkpt lat="46.12316" lon="4.42888">
        <ele>862.4</ele>
        <time>2025-09-28T13:14:01Z</time>
      </trkpt>
      <trkpt lat="46.12312" lon="4.42889">
        <ele>862.6</ele>
        <time>2025-09-28T13:14:02Z</time>
      </trkpt>
      <trkpt lat="46.12309" lon="4.4289">
        <ele>863</ele>
        <time>2025-09-28T13:14:03Z</time>
      </trkpt>
      <trkpt lat="46.12306" lon="4.42891">
        <ele>863</ele>
        <time>2025-09-28T13:14:04Z</time>
      </trkpt>
      <trkpt lat="46.12304" lon="4.42892">
        <ele>863.4</ele>
        <time>2025-09-28T13:14:05Z</time>
      </trkpt>
      <trkpt lat="46.12301" lon="4.42893">
        <ele>863.4</ele>
        <time>2025-09-28T13:14:06Z</time>
      </trkpt>
      <trkpt lat="46.12298" lon="4.42894">
        <ele>863.4</ele>
        <time>2025-09-28T13:14:07Z</time>
      </trkpt>
      <trkpt lat="46.12296" lon="4.42895">
        <ele>863.6</ele>
        <time>2025-09-28T13:14:08Z</time>
      </trkpt>
      <trkpt lat="46.12293" lon="4.42896">
        <ele>863.6</ele>
        <time>2025-09-28T13:14:09Z</time>
      </trkpt>
      <trkpt lat="46.1229" lon="4.42897">
        <ele>863.8</ele>
        <time>2025-09-28T13:14:10Z</time>
      </trkpt>
      <trkpt lat="46.12288" lon="4.42897">
        <ele>863.8</ele>
        <time>2025-09-28T13:14:11Z</time>
      </trkpt>
      <trkpt lat="46.12286" lon="4.42897">
        <ele>864.2</ele>
        <time>2025-09-28T13:14:12Z</time>
      </trkpt>
      <trkpt lat="46.12284" lon="4.42898">
        <ele>864.6</ele>
        <time>2025-09-28T13:14:13Z</time>
      </trkpt>
      <trkpt lat="46.12282" lon="4.42898">
        <ele>864.6</ele>
        <time>2025-09-28T13:14:14Z</time>
      </trkpt>
      <trkpt lat="46.1228" lon="4.42898">
        <ele>865</ele>
        <time>2025-09-28T13:14:15Z</time>
      </trkpt>
      <trkpt lat="46.12278" lon="4.42899">
        <ele>865</ele>
        <time>2025-09-28T13:14:16Z</time>
      </trkpt>
      <trkpt lat="46.12277" lon="4.429">
        <ele>865.2</ele>
        <time>2025-09-28T13:14:17Z</time>
      </trkpt>
      <trkpt lat="46.12275" lon="4.42901">
        <ele>865.2</ele>
        <time>2025-09-28T13:14:18Z</time>
      </trkpt>
      <trkpt lat="46.12274" lon="4.42902">
        <ele>865.6</ele>
        <time>2025-09-28T13:14:19Z</time>
      </trkpt>
      <trkpt lat="46.12272" lon="4.42903">
        <ele>865.6</ele>
        <time>2025-09-28T13:14:20Z</time>
      </trkpt>
      <trkpt lat="46.12271" lon="4.42905">
        <ele>866.2</ele>
        <time>2025-09-28T13:14:21Z</time>
      </trkpt>
      <trkpt lat="46.12269" lon="4.42906">
        <ele>866.2</ele>
        <time>2025-09-28T13:14:22Z</time>
      </trkpt>
      <trkpt lat="46.12268" lon="4.42907">
        <ele>866.4</ele>
        <time>2025-09-28T13:14:23Z</time>
      </trkpt>
      <trkpt lat="46.12267" lon="4.42908">
        <ele>866.6</ele>
        <time>2025-09-28T13:14:24Z</time>
      </trkpt>
      <trkpt lat="46.12266" lon="4.42909">
        <ele>867</ele>
        <time>2025-09-28T13:14:25Z</time>
      </trkpt>
      <trkpt lat="46.12265" lon="4.4291">
        <ele>867</ele>
        <time>2025-09-28T13:14:26Z</time>
      </trkpt>
      <trkpt lat="46.12263" lon="4.42912">
        <ele>867.4</ele>
        <time>2025-09-28T13:14:27Z</time>
      </trkpt>
      <trkpt lat="46.12262" lon="4.42912">
        <ele>867.4</ele>
        <time>2025-09-28T13:14:28Z</time>
      </trkpt>
      <trkpt lat="46.12261" lon="4.42913">
        <ele>867.6</ele>
        <time>2025-09-28T13:14:29Z</time>
      </trkpt>
      <trkpt lat="46.1226" lon="4.42913">
        <ele>868</ele>
        <time>2025-09-28T13:14:30Z</time>
      </trkpt>
      <trkpt lat="46.12259" lon="4.42914">
        <ele>868.2</ele>
        <time>2025-09-28T13:14:31Z</time>
      </trkpt>
      <trkpt lat="46.12257" lon="4.42913">
        <ele>868.4</ele>
        <time>2025-09-28T13:14:32Z</time>
      </trkpt>
      <trkpt lat="46.12255" lon="4.42913">
        <ele>868.4</ele>
        <time>2025-09-28T13:14:33Z</time>
      </trkpt>
      <trkpt lat="46.12254" lon="4.42912">
        <ele>868.4</ele>
        <time>2025-09-28T13:14:34Z</time>
      </trkpt>
      <trkpt lat="46.12253" lon="4.42912">
        <ele>868.8</ele>
        <time>2025-09-28T13:14:35Z</time>
      </trkpt>
      <trkpt lat="46.12251" lon="4.42913">
        <ele>869</ele>
        <time>2025-09-28T13:14:36Z</time>
      </trkpt>
      <trkpt lat="46.1225" lon="4.42914">
        <ele>869.2</ele>
        <time>2025-09-28T13:14:37Z</time>
      </trkpt>
      <trkpt lat="46.12249" lon="4.42915">
        <ele>869.4</ele>
        <time>2025-09-28T13:14:38Z</time>
      </trkpt>
      <trkpt lat="46.12248" lon="4.42916">
        <ele>869.4</ele>
        <time>2025-09-28T13:14:39Z</time>
      </trkpt>
      <trkpt lat="46.12247" lon="4.42917">
        <ele>870</ele>
        <time>2025-09-28T13:14:40Z</time>
      </trkpt>
      <trkpt lat="46.12245" lon="4.42917">
        <ele>870</ele>
        <time>2025-09-28T13:14:41Z</time>
      </trkpt>
      <trkpt lat="46.12244" lon="4.42917">
        <ele>870.2</ele>
        <time>2025-09-28T13:14:42Z</time>
      </trkpt>
      <trkpt lat="46.12243" lon="4.42918">
        <ele>870.6</ele>
        <time>2025-09-28T13:14:43Z</time>
      </trkpt>
      <trkpt lat="46.12241" lon="4.42918">
        <ele>870.6</ele>
        <time>2025-09-28T13:14:44Z</time>
      </trkpt>
      <trkpt lat="46.1224" lon="4.42919">
        <ele>870.6</ele>
        <time>2025-09-28T13:14:45Z</time>
      </trkpt>
      <trkpt lat="46.12238" lon="4.4292">
        <ele>870.8</ele>
        <time>2025-09-28T13:14:46Z</time>
      </trkpt>
      <trkpt lat="46.12237" lon="4.42921">
        <ele>871</ele>
        <time>2025-09-28T13:14:47Z</time>
      </trkpt>
      <trkpt lat="46.12236" lon="4.42922">
        <ele>871.4</ele>
        <time>2025-09-28T13:14:48Z</time>
      </trkpt>
      <trkpt lat="46.12236" lon="4.42922">
        <ele>871.8</ele>
        <time>2025-09-28T13:14:49Z</time>
      </trkpt>
      <trkpt lat="46.12235" lon="4.42923">
        <ele>871.8</ele>
        <time>2025-09-28T13:14:50Z</time>
      </trkpt>
      <trkpt lat="46.12234" lon="4.42924">
        <ele>872</ele>
        <time>2025-09-28T13:14:51Z</time>
      </trkpt>
      <trkpt lat="46.12233" lon="4.42925">
        <ele>872</ele>
        <time>2025-09-28T13:14:52Z</time>
      </trkpt>
      <trkpt lat="46.12232" lon="4.42926">
        <ele>872</ele>
        <time>2025-09-28T13:14:53Z</time>
      </trkpt>
      <trkpt lat="46.12231" lon="4.42926">
        <ele>872.4</ele>
        <time>2025-09-28T13:14:54Z</time>
      </trkpt>
      <trkpt lat="46.1223" lon="4.42927">
        <ele>872.8</ele>
        <time>2025-09-28T13:14:55Z</time>
      </trkpt>
      <trkpt lat="46.12229" lon="4.42928">
        <ele>872.8</ele>
        <time>2025-09-28T13:14:56Z</time>
      </trkpt>
      <trkpt lat="46.12227" lon="4.42929">
        <ele>873.4</ele>
        <time>2025-09-28T13:14:57Z</time>
      </trkpt>
      <trkpt lat="46.12226" lon="4.4293">
        <ele>873.4</ele>
        <time>2025-09-28T13:14:58Z</time>
      </trkpt>
      <trkpt lat="46.12225" lon="4.42931">
        <ele>873.4</ele>
        <time>2025-09-28T13:14:59Z</time>
      </trkpt>
      <trkpt lat="46.12223" lon="4.42932">
        <ele>873.6</ele>
        <time>2025-09-28T13:15:00Z</time>
      </trkpt>
      <trkpt lat="46.12222" lon="4.42934">
        <ele>874</ele>
        <time>2025-09-28T13:15:01Z</time>
      </trkpt>
      <trkpt lat="46.12221" lon="4.42935">
        <ele>874.2</ele>
        <time>2025-09-28T13:15:02Z</time>
      </trkpt>
      <trkpt lat="46.12221" lon="4.42936">
        <ele>874.6</ele>
        <time>2025-09-28T13:15:03Z</time>
      </trkpt>
      <trkpt lat="46.12219" lon="4.42938">
        <ele>874.6</ele>
        <time>2025-09-28T13:15:04Z</time>
      </trkpt>
      <trkpt lat="46.12218" lon="4.42939">
        <ele>874.8</ele>
        <time>2025-09-28T13:15:05Z</time>
      </trkpt>
      <trkpt lat="46.12217" lon="4.42941">
        <ele>875</ele>
        <time>2025-09-28T13:15:06Z</time>
      </trkpt>
      <trkpt lat="46.12215" lon="4.42942">
        <ele>875</ele>
        <time>2025-09-28T13:15:07Z</time>
      </trkpt>
      <trkpt lat="46.12214" lon="4.42943">
        <ele>875.2</ele>
        <time>2025-09-28T13:15:08Z</time>
      </trkpt>
      <trkpt lat="46.12212" lon="4.42944">
        <ele>875.6</ele>
        <time>2025-09-28T13:15:09Z</time>
      </trkpt>
      <trkpt lat="46.12211" lon="4.42945">
        <ele>875.6</ele>
        <time>2025-09-28T13:15:10Z</time>
      </trkpt>
      <trkpt lat="46.12209" lon="4.42947">
        <ele>875.8</ele>
        <time>2025-09-28T13:15:11Z</time>
      </trkpt>
      <trkpt lat="46.12208" lon="4.42948">
        <ele>876</ele>
        <time>2025-09-28T13:15:12Z</time>
      </trkpt>
      <trkpt lat="46.12206" lon="4.42949">
        <ele>876.2</ele>
        <time>2025-09-28T13:15:13Z</time>
      </trkpt>
      <trkpt lat="46.12204" lon="4.4295">
        <ele>876.2</ele>
        <time>2025-09-28T13:15:14Z</time>
      </trkpt>
      <trkpt lat="46.12203" lon="4.42952">
        <ele>876.2</ele>
        <time>2025-09-28T13:15:15Z</time>
      </trkpt>
      <trkpt lat="46.12202" lon="4.42953">
        <ele>876.6</ele>
        <time>2025-09-28T13:15:16Z</time>
      </trkpt>
      <trkpt lat="46.12201" lon="4.42954">
        <ele>876.6</ele>
        <time>2025-09-28T13:15:17Z</time>
      </trkpt>
      <trkpt lat="46.12199" lon="4.42955">
        <ele>876.6</ele>
        <time>2025-09-28T13:15:18Z</time>
      </trkpt>
      <trkpt lat="46.12198" lon="4.42957">
        <ele>876.8</ele>
        <time>2025-09-28T13:15:19Z</time>
      </trkpt>
      <trkpt lat="46.12196" lon="4.42958">
        <ele>876.8</ele>
        <time>2025-09-28T13:15:20Z</time>
      </trkpt>
      <trkpt lat="46.12194" lon="4.42959">
        <ele>876.8</ele>
        <time>2025-09-28T13:15:21Z</time>
      </trkpt>
      <trkpt lat="46.12193" lon="4.4296">
        <ele>876.8</ele>
        <time>2025-09-28T13:15:22Z</time>
      </trkpt>
      <trkpt lat="46.12191" lon="4.42962">
        <ele>877.2</ele>
        <time>2025-09-28T13:15:23Z</time>
      </trkpt>
      <trkpt lat="46.1219" lon="4.42964">
        <ele>877.2</ele>
        <time>2025-09-28T13:15:24Z</time>
      </trkpt>
      <trkpt lat="46.12189" lon="4.42965">
        <ele>877.2</ele>
        <time>2025-09-28T13:15:25Z</time>
      </trkpt>
      <trkpt lat="46.12188" lon="4.42967">
        <ele>877.4</ele>
        <time>2025-09-28T13:15:26Z</time>
      </trkpt>
      <trkpt lat="46.12186" lon="4.42969">
        <ele>877.6</ele>
        <time>2025-09-28T13:15:27Z</time>
      </trkpt>
      <trkpt lat="46.12185" lon="4.42971">
        <ele>877.6</ele>
        <time>2025-09-28T13:15:28Z</time>
      </trkpt>
      <trkpt lat="46.12183" lon="4.42972">
        <ele>877.6</ele>
        <time>2025-09-28T13:15:29Z</time>
      </trkpt>
      <trkpt lat="46.12181" lon="4.42974">
        <ele>877.8</ele>
        <time>2025-09-28T13:15:30Z</time>
      </trkpt>
      <trkpt lat="46.12179" lon="4.42975">
        <ele>878</ele>
        <time>2025-09-28T13:15:31Z</time>
      </trkpt>
      <trkpt lat="46.12178" lon="4.42977">
        <ele>878</ele>
        <time>2025-09-28T13:15:32Z</time>
      </trkpt>
      <trkpt lat="46.12177" lon="4.42978">
        <ele>878</ele>
        <time>2025-09-28T13:15:33Z</time>
      </trkpt>
      <trkpt lat="46.12175" lon="4.42981">
        <ele>878.4</ele>
        <time>2025-09-28T13:15:34Z</time>
      </trkpt>
      <trkpt lat="46.12174" lon="4.42982">
        <ele>878.4</ele>
        <time>2025-09-28T13:15:35Z</time>
      </trkpt>
      <trkpt lat="46.12172" lon="4.42984">
        <ele>878.6</ele>
        <time>2025-09-28T13:15:36Z</time>
      </trkpt>
      <trkpt lat="46.12171" lon="4.42986">
        <ele>878.6</ele>
        <time>2025-09-28T13:15:37Z</time>
      </trkpt>
      <trkpt lat="46.12169" lon="4.42988">
        <ele>878.8</ele>
        <time>2025-09-28T13:15:38Z</time>
      </trkpt>
      <trkpt lat="46.12168" lon="4.4299">
        <ele>879</ele>
        <time>2025-09-28T13:15:39Z</time>
      </trkpt>
      <trkpt lat="46.12166" lon="4.42991">
        <ele>879.2</ele>
        <time>2025-09-28T13:15:40Z</time>
      </trkpt>
      <trkpt lat="46.12164" lon="4.42992">
        <ele>879.6</ele>
        <time>2025-09-28T13:15:41Z</time>
      </trkpt>
      <trkpt lat="46.12162" lon="4.42993">
        <ele>879.8</ele>
        <time>2025-09-28T13:15:42Z</time>
      </trkpt>
      <trkpt lat="46.1216" lon="4.42995">
        <ele>879.8</ele>
        <time>2025-09-28T13:15:43Z</time>
      </trkpt>
      <trkpt lat="46.12159" lon="4.42997">
        <ele>879.8</ele>
        <time>2025-09-28T13:15:44Z</time>
      </trkpt>
      <trkpt lat="46.12158" lon="4.42998">
        <ele>879.8</ele>
        <time>2025-09-28T13:15:45Z</time>
      </trkpt>
      <trkpt lat="46.12156" lon="4.43001">
        <ele>879.8</ele>
        <time>2025-09-28T13:15:46Z</time>
      </trkpt>
      <trkpt lat="46.12155" lon="4.43003">
        <ele>879.8</ele>
        <time>2025-09-28T13:15:47Z</time>
      </trkpt>
      <trkpt lat="46.12154" lon="4.43005">
        <ele>879.8</ele>
        <time>2025-09-28T13:15:48Z</time>
      </trkpt>
      <trkpt lat="46.12153" lon="4.43007">
        <ele>880.2</ele>
        <time>2025-09-28T13:15:49Z</time>
      </trkpt>
      <trkpt lat="46.12151" lon="4.4301">
        <ele>880.4</ele>
        <time>2025-09-28T13:15:50Z</time>
      </trkpt>
      <trkpt lat="46.1215" lon="4.43012">
        <ele>880.4</ele>
        <time>2025-09-28T13:15:51Z</time>
      </trkpt>
      <trkpt lat="46.12148" lon="4.43013">
        <ele>880.4</ele>
        <time>2025-09-28T13:15:52Z</time>
      </trkpt>
      <trkpt lat="46.12147" lon="4.43015">
        <ele>880.8</ele>
        <time>2025-09-28T13:15:53Z</time>
      </trkpt>
      <trkpt lat="46.12145" lon="4.43016">
        <ele>881</ele>
        <time>2025-09-28T13:15:54Z</time>
      </trkpt>
      <trkpt lat="46.12144" lon="4.43018">
        <ele>881</ele>
        <time>2025-09-28T13:15:55Z</time>
      </trkpt>
      <trkpt lat="46.12143" lon="4.43019">
        <ele>881.4</ele>
        <time>2025-09-28T13:15:56Z</time>
      </trkpt>
      <trkpt lat="46.12142" lon="4.4302">
        <ele>881.4</ele>
        <time>2025-09-28T13:15:57Z</time>
      </trkpt>
      <trkpt lat="46.1214" lon="4.43022">
        <ele>881.6</ele>
        <time>2025-09-28T13:15:58Z</time>
      </trkpt>
      <trkpt lat="46.12138" lon="4.43023">
        <ele>881.6</ele>
        <time>2025-09-28T13:15:59Z</time>
      </trkpt>
      <trkpt lat="46.12136" lon="4.43025">
        <ele>881.6</ele>
        <time>2025-09-28T13:16:00Z</time>
      </trkpt>
      <trkpt lat="46.12134" lon="4.43027">
        <ele>881.6</ele>
        <time>2025-09-28T13:16:01Z</time>
      </trkpt>
      <trkpt lat="46.12132" lon="4.43029">
        <ele>882</ele>
        <time>2025-09-28T13:16:02Z</time>
      </trkpt>
      <trkpt lat="46.12129" lon="4.4303">
        <ele>881.8</ele>
        <time>2025-09-28T13:16:03Z</time>
      </trkpt>
      <trkpt lat="46.12127" lon="4.43032">
        <ele>882</ele>
        <time>2025-09-28T13:16:04Z</time>
      </trkpt>
      <trkpt lat="46.12125" lon="4.43033">
        <ele>882</ele>
        <time>2025-09-28T13:16:05Z</time>
      </trkpt>
      <trkpt lat="46.12123" lon="4.43034">
        <ele>882</ele>
        <time>2025-09-28T13:16:06Z</time>
      </trkpt>
      <trkpt lat="46.12121" lon="4.43036">
        <ele>882</ele>
        <time>2025-09-28T13:16:07Z</time>
      </trkpt>
      <trkpt lat="46.12119" lon="4.43037">
        <ele>882.4</ele>
        <time>2025-09-28T13:16:08Z</time>
      </trkpt>
      <trkpt lat="46.12117" lon="4.43038">
        <ele>882.4</ele>
        <time>2025-09-28T13:16:09Z</time>
      </trkpt>
      <trkpt lat="46.12115" lon="4.43039">
        <ele>882.4</ele>
        <time>2025-09-28T13:16:10Z</time>
      </trkpt>
      <trkpt lat="46.12113" lon="4.4304">
        <ele>882.6</ele>
        <time>2025-09-28T13:16:11Z</time>
      </trkpt>
      <trkpt lat="46.12112" lon="4.43042">
        <ele>882.6</ele>
        <time>2025-09-28T13:16:12Z</time>
      </trkpt>
      <trkpt lat="46.1211" lon="4.43043">
        <ele>882.8</ele>
        <time>2025-09-28T13:16:13Z</time>
      </trkpt>
      <trkpt lat="46.12109" lon="4.43045">
        <ele>883.2</ele>
        <time>2025-09-28T13:16:14Z</time>
      </trkpt>
      <trkpt lat="46.12107" lon="4.43046">
        <ele>883.2</ele>
        <time>2025-09-28T13:16:15Z</time>
      </trkpt>
      <trkpt lat="46.12105" lon="4.43048">
        <ele>883.6</ele>
        <time>2025-09-28T13:16:16Z</time>
      </trkpt>
      <trkpt lat="46.12104" lon="4.4305">
        <ele>883.8</ele>
        <time>2025-09-28T13:16:17Z</time>
      </trkpt>
      <trkpt lat="46.12102" lon="4.43052">
        <ele>883.8</ele>
        <time>2025-09-28T13:16:18Z</time>
      </trkpt>
      <trkpt lat="46.121" lon="4.43055">
        <ele>883.8</ele>
        <time>2025-09-28T13:16:19Z</time>
      </trkpt>
      <trkpt lat="46.12099" lon="4.43057">
        <ele>883.8</ele>
        <time>2025-09-28T13:16:20Z</time>
      </trkpt>
      <trkpt lat="46.12098" lon="4.43059">
        <ele>884.6</ele>
        <time>2025-09-28T13:16:21Z</time>
      </trkpt>
      <trkpt lat="46.12096" lon="4.43061">
        <ele>884.6</ele>
        <time>2025-09-28T13:16:22Z</time>
      </trkpt>
      <trkpt lat="46.12095" lon="4.43064">
        <ele>884.6</ele>
        <time>2025-09-28T13:16:23Z</time>
      </trkpt>
      <trkpt lat="46.12094" lon="4.43065">
        <ele>884.8</ele>
        <time>2025-09-28T13:16:24Z</time>
      </trkpt>
      <trkpt lat="46.12092" lon="4.43067">
        <ele>884.8</ele>
        <time>2025-09-28T13:16:25Z</time>
      </trkpt>
      <trkpt lat="46.1209" lon="4.43069">
        <ele>884.8</ele>
        <time>2025-09-28T13:16:26Z</time>
      </trkpt>
      <trkpt lat="46.12089" lon="4.43071">
        <ele>885</ele>
        <time>2025-09-28T13:16:27Z</time>
      </trkpt>
      <trkpt lat="46.12088" lon="4.43073">
        <ele>885</ele>
        <time>2025-09-28T13:16:28Z</time>
      </trkpt>
      <trkpt lat="46.12086" lon="4.43074">
        <ele>885</ele>
        <time>2025-09-28T13:16:29Z</time>
      </trkpt>
      <trkpt lat="46.12085" lon="4.43076">
        <ele>885.4</ele>
        <time>2025-09-28T13:16:30Z</time>
      </trkpt>
      <trkpt lat="46.12083" lon="4.43078">
        <ele>885.4</ele>
        <time>2025-09-28T13:16:31Z</time>
      </trkpt>
      <trkpt lat="46.12081" lon="4.4308">
        <ele>885.8</ele>
        <time>2025-09-28T13:16:32Z</time>
      </trkpt>
      <trkpt lat="46.12079" lon="4.43082">
        <ele>885.8</ele>
        <time>2025-09-28T13:16:33Z</time>
      </trkpt>
      <trkpt lat="46.12077" lon="4.43084">
        <ele>886</ele>
        <time>2025-09-28T13:16:34Z</time>
      </trkpt>
      <trkpt lat="46.12075" lon="4.43085">
        <ele>886.2</ele>
        <time>2025-09-28T13:16:35Z</time>
      </trkpt>
      <trkpt lat="46.12074" lon="4.43087">
        <ele>886.2</ele>
        <time>2025-09-28T13:16:36Z</time>
      </trkpt>
      <trkpt lat="46.12072" lon="4.43089">
        <ele>886.6</ele>
        <time>2025-09-28T13:16:37Z</time>
      </trkpt>
      <trkpt lat="46.1207" lon="4.43091">
        <ele>886.6</ele>
        <time>2025-09-28T13:16:38Z</time>
      </trkpt>
      <trkpt lat="46.12068" lon="4.43093">
        <ele>886.6</ele>
        <time>2025-09-28T13:16:39Z</time>
      </trkpt>
      <trkpt lat="46.12066" lon="4.43094">
        <ele>886.8</ele>
        <time>2025-09-28T13:16:40Z</time>
      </trkpt>
      <trkpt lat="46.12064" lon="4.43096">
        <ele>887.2</ele>
        <time>2025-09-28T13:16:41Z</time>
      </trkpt>
      <trkpt lat="46.12062" lon="4.43098">
        <ele>887.2</ele>
        <time>2025-09-28T13:16:42Z</time>
      </trkpt>
      <trkpt lat="46.1206" lon="4.43099">
        <ele>887.2</ele>
        <time>2025-09-28T13:16:43Z</time>
      </trkpt>
      <trkpt lat="46.12057" lon="4.43101">
        <ele>887.2</ele>
        <time>2025-09-28T13:16:44Z</time>
      </trkpt>
      <trkpt lat="46.12055" lon="4.43102">
        <ele>887.4</ele>
        <time>2025-09-28T13:16:45Z</time>
      </trkpt>
      <trkpt lat="46.12053" lon="4.43104">
        <ele>887.4</ele>
        <time>2025-09-28T13:16:46Z</time>
      </trkpt>
      <trkpt lat="46.1205" lon="4.43106">
        <ele>887.4</ele>
        <time>2025-09-28T13:16:47Z</time>
      </trkpt>
      <trkpt lat="46.12048" lon="4.43108">
        <ele>887.4</ele>
        <time>2025-09-28T13:16:48Z</time>
      </trkpt>
      <trkpt lat="46.12045" lon="4.4311">
        <ele>887.4</ele>
        <time>2025-09-28T13:16:49Z</time>
      </trkpt>
      <trkpt lat="46.12042" lon="4.43112">
        <ele>887.4</ele>
        <time>2025-09-28T13:16:50Z</time>
      </trkpt>
      <trkpt lat="46.12039" lon="4.43114">
        <ele>887.4</ele>
        <time>2025-09-28T13:16:51Z</time>
      </trkpt>
      <trkpt lat="46.12036" lon="4.43115">
        <ele>887.6</ele>
        <time>2025-09-28T13:16:52Z</time>
      </trkpt>
      <trkpt lat="46.12033" lon="4.43116">
        <ele>887.6</ele>
        <time>2025-09-28T13:16:53Z</time>
      </trkpt>
      <trkpt lat="46.1203" lon="4.43117">
        <ele>887.6</ele>
        <time>2025-09-28T13:16:54Z</time>
      </trkpt>
      <trkpt lat="46.12027" lon="4.43118">
        <ele>887.6</ele>
        <time>2025-09-28T13:16:55Z</time>
      </trkpt>
      <trkpt lat="46.12023" lon="4.43119">
        <ele>887.6</ele>
        <time>2025-09-28T13:16:56Z</time>
      </trkpt>
      <trkpt lat="46.12019" lon="4.4312">
        <ele>887.6</ele>
        <time>2025-09-28T13:16:57Z</time>
      </trkpt>
      <trkpt lat="46.12016" lon="4.43121">
        <ele>887.6</ele>
        <time>2025-09-28T13:16:58Z</time>
      </trkpt>
      <trkpt lat="46.12012" lon="4.43122">
        <ele>887.8</ele>
        <time>2025-09-28T13:16:59Z</time>
      </trkpt>
      <trkpt lat="46.12009" lon="4.43124">
        <ele>887.8</ele>
        <time>2025-09-28T13:17:00Z</time>
      </trkpt>
      <trkpt lat="46.12005" lon="4.43125">
        <ele>887.8</ele>
        <time>2025-09-28T13:17:01Z</time>
      </trkpt>
      <trkpt lat="46.12002" lon="4.43126">
        <ele>888</ele>
        <time>2025-09-28T13:17:02Z</time>
      </trkpt>
      <trkpt lat="46.11998" lon="4.43127">
        <ele>887.8</ele>
        <time>2025-09-28T13:17:03Z</time>
      </trkpt>
      <trkpt lat="46.11993" lon="4.43127">
        <ele>887.8</ele>
        <time>2025-09-28T13:17:04Z</time>
      </trkpt>
      <trkpt lat="46.11988" lon="4.43127">
        <ele>887.8</ele>
        <time>2025-09-28T13:17:05Z</time>
      </trkpt>
      <trkpt lat="46.11983" lon="4.43126">
        <ele>887.8</ele>
        <time>2025-09-28T13:17:06Z</time>
      </trkpt>
      <trkpt lat="46.11979" lon="4.43125">
        <ele>887.4</ele>
        <time>2025-09-28T13:17:07Z</time>
      </trkpt>
      <trkpt lat="46.11974" lon="4.43126">
        <ele>887.4</ele>
        <time>2025-09-28T13:17:08Z</time>
      </trkpt>
      <trkpt lat="46.11968" lon="4.43125">
        <ele>887.2</ele>
        <time>2025-09-28T13:17:09Z</time>
      </trkpt>
      <trkpt lat="46.11963" lon="4.43125">
        <ele>887.2</ele>
        <time>2025-09-28T13:17:10Z</time>
      </trkpt>
      <trkpt lat="46.11957" lon="4.43124">
        <ele>886.8</ele>
        <time>2025-09-28T13:17:11Z</time>
      </trkpt>
      <trkpt lat="46.11952" lon="4.43123">
        <ele>886.6</ele>
        <time>2025-09-28T13:17:12Z</time>
      </trkpt>
      <trkpt lat="46.11946" lon="4.43121">
        <ele>886.4</ele>
        <time>2025-09-28T13:17:13Z</time>
      </trkpt>
      <trkpt lat="46.1194" lon="4.4312">
        <ele>886</ele>
        <time>2025-09-28T13:17:14Z</time>
      </trkpt>
      <trkpt lat="46.11934" lon="4.43119">
        <ele>886</ele>
        <time>2025-09-28T13:17:15Z</time>
      </trkpt>
      <trkpt lat="46.11927" lon="4.43116">
        <ele>885.6</ele>
        <time>2025-09-28T13:17:16Z</time>
      </trkpt>
      <trkpt lat="46.11921" lon="4.43116">
        <ele>885.2</ele>
        <time>2025-09-28T13:17:17Z</time>
      </trkpt>
      <trkpt lat="46.11914" lon="4.43116">
        <ele>885</ele>
        <time>2025-09-28T13:17:18Z</time>
      </trkpt>
      <trkpt lat="46.11908" lon="4.43116">
        <ele>885</ele>
        <time>2025-09-28T13:17:19Z</time>
      </trkpt>
      <trkpt lat="46.11901" lon="4.43116">
        <ele>884.4</ele>
        <time>2025-09-28T13:17:20Z</time>
      </trkpt>
      <trkpt lat="46.11895" lon="4.43115">
        <ele>884.4</ele>
        <time>2025-09-28T13:17:21Z</time>
      </trkpt>
      <trkpt lat="46.11887" lon="4.43116">
        <ele>884.4</ele>
        <time>2025-09-28T13:17:22Z</time>
      </trkpt>
      <trkpt lat="46.11881" lon="4.43116">
        <ele>884.4</ele>
        <time>2025-09-28T13:17:23Z</time>
      </trkpt>
      <trkpt lat="46.11875" lon="4.43116">
        <ele>884.2</ele>
        <time>2025-09-28T13:17:24Z</time>
      </trkpt>
      <trkpt lat="46.1187" lon="4.43117">
        <ele>884.2</ele>
        <time>2025-09-28T13:17:25Z</time>
      </trkpt>
      <trkpt lat="46.11866" lon="4.43119">
        <ele>883</ele>
        <time>2025-09-28T13:17:26Z</time>
      </trkpt>
      <trkpt lat="46.11861" lon="4.43121">
        <ele>883</ele>
        <time>2025-09-28T13:17:27Z</time>
      </trkpt>
      <trkpt lat="46.11857" lon="4.43123">
        <ele>883</ele>
        <time>2025-09-28T13:17:28Z</time>
      </trkpt>
      <trkpt lat="46.11851" lon="4.43124">
        <ele>883.4</ele>
        <time>2025-09-28T13:17:29Z</time>
      </trkpt>
      <trkpt lat="46.11846" lon="4.43126">
        <ele>882.8</ele>
        <time>2025-09-28T13:17:30Z</time>
      </trkpt>
      <trkpt lat="46.11839" lon="4.4313">
        <ele>882.8</ele>
        <time>2025-09-28T13:17:31Z</time>
      </trkpt>
      <trkpt lat="46.11834" lon="4.43134">
        <ele>882.8</ele>
        <time>2025-09-28T13:17:32Z</time>
      </trkpt>
      <trkpt lat="46.11829" lon="4.43134">
        <ele>882.8</ele>
        <time>2025-09-28T13:17:33Z</time>
      </trkpt>
      <trkpt lat="46.11824" lon="4.43138">
        <ele>882.8</ele>
        <time>2025-09-28T13:17:34Z</time>
      </trkpt>
      <trkpt lat="46.11821" lon="4.4314">
        <ele>882.8</ele>
        <time>2025-09-28T13:17:35Z</time>
      </trkpt>
      <trkpt lat="46.11816" lon="4.43143">
        <ele>882.6</ele>
        <time>2025-09-28T13:17:36Z</time>
      </trkpt>
      <trkpt lat="46.11809" lon="4.43146">
        <ele>882.2</ele>
        <time>2025-09-28T13:17:37Z</time>
      </trkpt>
      <trkpt lat="46.11803" lon="4.43151">
        <ele>882</ele>
        <time>2025-09-28T13:17:38Z</time>
      </trkpt>
      <trkpt lat="46.11797" lon="4.43155">
        <ele>882</ele>
        <time>2025-09-28T13:17:39Z</time>
      </trkpt>
      <trkpt lat="46.11791" lon="4.43158">
        <ele>881.6</ele>
        <time>2025-09-28T13:17:40Z</time>
      </trkpt>
      <trkpt lat="46.11784" lon="4.43162">
        <ele>880.6</ele>
        <time>2025-09-28T13:17:41Z</time>
      </trkpt>
      <trkpt lat="46.11776" lon="4.43164">
        <ele>880.2</ele>
        <time>2025-09-28T13:17:42Z</time>
      </trkpt>
      <trkpt lat="46.1177" lon="4.43165">
        <ele>879.8</ele>
        <time>2025-09-28T13:17:43Z</time>
      </trkpt>
      <trkpt lat="46.11764" lon="4.43167">
        <ele>879.8</ele>
        <time>2025-09-28T13:17:44Z</time>
      </trkpt>
      <trkpt lat="46.11758" lon="4.43169">
        <ele>878.8</ele>
        <time>2025-09-28T13:17:45Z</time>
      </trkpt>
      <trkpt lat="46.11752" lon="4.43171">
        <ele>878.2</ele>
        <time>2025-09-28T13:17:46Z</time>
      </trkpt>
      <trkpt lat="46.11746" lon="4.43172">
        <ele>877.8</ele>
        <time>2025-09-28T13:17:47Z</time>
      </trkpt>
      <trkpt lat="46.1174" lon="4.43171">
        <ele>876.6</ele>
        <time>2025-09-28T13:17:48Z</time>
      </trkpt>
      <trkpt lat="46.11733" lon="4.43172">
        <ele>876.2</ele>
        <time>2025-09-28T13:17:49Z</time>
      </trkpt>
      <trkpt lat="46.11726" lon="4.43168">
        <ele>875.6</ele>
        <time>2025-09-28T13:17:50Z</time>
      </trkpt>
      <trkpt lat="46.11719" lon="4.43164">
        <ele>875.2</ele>
        <time>2025-09-28T13:17:51Z</time>
      </trkpt>
      <trkpt lat="46.11712" lon="4.43159">
        <ele>874.4</ele>
        <time>2025-09-28T13:17:52Z</time>
      </trkpt>
      <trkpt lat="46.11705" lon="4.43155">
        <ele>872.8</ele>
        <time>2025-09-28T13:17:53Z</time>
      </trkpt>
      <trkpt lat="46.11696" lon="4.43151">
        <ele>872.8</ele>
        <time>2025-09-28T13:17:54Z</time>
      </trkpt>
      <trkpt lat="46.11688" lon="4.43149">
        <ele>872.8</ele>
        <time>2025-09-28T13:17:55Z</time>
      </trkpt>
      <trkpt lat="46.1168" lon="4.43146">
        <ele>872.4</ele>
        <time>2025-09-28T13:17:56Z</time>
      </trkpt>
      <trkpt lat="46.11672" lon="4.43144">
        <ele>871.8</ele>
        <time>2025-09-28T13:17:57Z</time>
      </trkpt>
      <trkpt lat="46.11663" lon="4.43139">
        <ele>871.8</ele>
        <time>2025-09-28T13:17:58Z</time>
      </trkpt>
      <trkpt lat="46.11656" lon="4.43133">
        <ele>871.2</ele>
        <time>2025-09-28T13:17:59Z</time>
      </trkpt>
      <trkpt lat="46.11649" lon="4.43128">
        <ele>871.2</ele>
        <time>2025-09-28T13:18:00Z</time>
      </trkpt>
      <trkpt lat="46.11641" lon="4.43123">
        <ele>871.2</ele>
        <time>2025-09-28T13:18:01Z</time>
      </trkpt>
      <trkpt lat="46.11634" lon="4.4312">
        <ele>871.2</ele>
        <time>2025-09-28T13:18:02Z</time>
      </trkpt>
      <trkpt lat="46.11626" lon="4.43116">
        <ele>871.6</ele>
        <time>2025-09-28T13:18:03Z</time>
      </trkpt>
      <trkpt lat="46.1162" lon="4.43114">
        <ele>871.6</ele>
        <time>2025-09-28T13:18:04Z</time>
      </trkpt>
      <trkpt lat="46.11614" lon="4.43111">
        <ele>872</ele>
        <time>2025-09-28T13:18:05Z</time>
      </trkpt>
      <trkpt lat="46.11608" lon="4.43108">
        <ele>872</ele>
        <time>2025-09-28T13:18:06Z</time>
      </trkpt>
      <trkpt lat="46.11604" lon="4.43106">
        <ele>872</ele>
        <time>2025-09-28T13:18:07Z</time>
      </trkpt>
      <trkpt lat="46.11599" lon="4.43103">
        <ele>872</ele>
        <time>2025-09-28T13:18:08Z</time>
      </trkpt>
      <trkpt lat="46.11597" lon="4.431">
        <ele>872.2</ele>
        <time>2025-09-28T13:18:09Z</time>
      </trkpt>
      <trkpt lat="46.11592" lon="4.43098">
        <ele>871.8</ele>
        <time>2025-09-28T13:18:10Z</time>
      </trkpt>
      <trkpt lat="46.1159" lon="4.43096">
        <ele>871.8</ele>
        <time>2025-09-28T13:18:11Z</time>
      </trkpt>
      <trkpt lat="46.11586" lon="4.43094">
        <ele>872.4</ele>
        <time>2025-09-28T13:18:12Z</time>
      </trkpt>
      <trkpt lat="46.11582" lon="4.43091">
        <ele>871.8</ele>
        <time>2025-09-28T13:18:13Z</time>
      </trkpt>
      <trkpt lat="46.11579" lon="4.43087">
        <ele>872</ele>
        <time>2025-09-28T13:18:14Z</time>
      </trkpt>
      <trkpt lat="46.11576" lon="4.43084">
        <ele>873</ele>
        <time>2025-09-28T13:18:15Z</time>
      </trkpt>
      <trkpt lat="46.11575" lon="4.43082">
        <ele>873.4</ele>
        <time>2025-09-28T13:18:16Z</time>
      </trkpt>
      <trkpt lat="46.11573" lon="4.43079">
        <ele>873.8</ele>
        <time>2025-09-28T13:18:17Z</time>
      </trkpt>
      <trkpt lat="46.1157" lon="4.43076">
        <ele>873.8</ele>
        <time>2025-09-28T13:18:18Z</time>
      </trkpt>
      <trkpt lat="46.11566" lon="4.43073">
        <ele>874.4</ele>
        <time>2025-09-28T13:18:19Z</time>
      </trkpt>
      <trkpt lat="46.11564" lon="4.4307">
        <ele>874.4</ele>
        <time>2025-09-28T13:18:20Z</time>
      </trkpt>
      <trkpt lat="46.11562" lon="4.43066">
        <ele>874.6</ele>
        <time>2025-09-28T13:18:21Z</time>
      </trkpt>
      <trkpt lat="46.11559" lon="4.43064">
        <ele>875.2</ele>
        <time>2025-09-28T13:18:22Z</time>
      </trkpt>
      <trkpt lat="46.11557" lon="4.43063">
        <ele>875.4</ele>
        <time>2025-09-28T13:18:23Z</time>
      </trkpt>
      <trkpt lat="46.11554" lon="4.43059">
        <ele>875.6</ele>
        <time>2025-09-28T13:18:24Z</time>
      </trkpt>
      <trkpt lat="46.11553" lon="4.43056">
        <ele>876.2</ele>
        <time>2025-09-28T13:18:25Z</time>
      </trkpt>
      <trkpt lat="46.1155" lon="4.43055">
        <ele>876.2</ele>
        <time>2025-09-28T13:18:26Z</time>
      </trkpt>
      <trkpt lat="46.11549" lon="4.4305">
        <ele>876.4</ele>
        <time>2025-09-28T13:18:27Z</time>
      </trkpt>
      <trkpt lat="46.11545" lon="4.43046">
        <ele>877.2</ele>
        <time>2025-09-28T13:18:28Z</time>
      </trkpt>
      <trkpt lat="46.1154" lon="4.43041">
        <ele>877.8</ele>
        <time>2025-09-28T13:18:29Z</time>
      </trkpt>
      <trkpt lat="46.11538" lon="4.43044">
        <ele>877.8</ele>
        <time>2025-09-28T13:18:30Z</time>
      </trkpt>
      <trkpt lat="46.11535" lon="4.4304">
        <ele>877.8</ele>
        <time>2025-09-28T13:18:31Z</time>
      </trkpt>
      <trkpt lat="46.11534" lon="4.4304">
        <ele>877.8</ele>
        <time>2025-09-28T13:18:32Z</time>
      </trkpt>
      <trkpt lat="46.11531" lon="4.4304">
        <ele>877.8</ele>
        <time>2025-09-28T13:18:33Z</time>
      </trkpt>
      <trkpt lat="46.11527" lon="4.43037">
        <ele>877.8</ele>
        <time>2025-09-28T13:18:34Z</time>
      </trkpt>
      <trkpt lat="46.11524" lon="4.43035">
        <ele>878.2</ele>
        <time>2025-09-28T13:18:35Z</time>
      </trkpt>
      <trkpt lat="46.11521" lon="4.43032">
        <ele>878.2</ele>
        <time>2025-09-28T13:18:36Z</time>
      </trkpt>
      <trkpt lat="46.11518" lon="4.43031">
        <ele>878.2</ele>
        <time>2025-09-28T13:18:37Z</time>
      </trkpt>
      <trkpt lat="46.11515" lon="4.43029">
        <ele>878.2</ele>
        <time>2025-09-28T13:18:38Z</time>
      </trkpt>
      <trkpt lat="46.11513" lon="4.43028">
        <ele>879</ele>
        <time>2025-09-28T13:18:39Z</time>
      </trkpt>
      <trkpt lat="46.1151" lon="4.43027">
        <ele>879</ele>
        <time>2025-09-28T13:18:40Z</time>
      </trkpt>
      <trkpt lat="46.11507" lon="4.43026">
        <ele>879</ele>
        <time>2025-09-28T13:18:41Z</time>
      </trkpt>
      <trkpt lat="46.11504" lon="4.43024">
        <ele>879.4</ele>
        <time>2025-09-28T13:18:42Z</time>
      </trkpt>
      <trkpt lat="46.11502" lon="4.43023">
        <ele>879.4</ele>
        <time>2025-09-28T13:18:43Z</time>
      </trkpt>
      <trkpt lat="46.11499" lon="4.43023">
        <ele>879.4</ele>
        <time>2025-09-28T13:18:44Z</time>
      </trkpt>
      <trkpt lat="46.11496" lon="4.43023">
        <ele>880</ele>
        <time>2025-09-28T13:18:45Z</time>
      </trkpt>
      <trkpt lat="46.11493" lon="4.43023">
        <ele>880</ele>
        <time>2025-09-28T13:18:46Z</time>
      </trkpt>
      <trkpt lat="46.11491" lon="4.43023">
        <ele>880.6</ele>
        <time>2025-09-28T13:18:47Z</time>
      </trkpt>
      <trkpt lat="46.11489" lon="4.43023">
        <ele>880.6</ele>
        <time>2025-09-28T13:18:48Z</time>
      </trkpt>
      <trkpt lat="46.11487" lon="4.43024">
        <ele>880.8</ele>
        <time>2025-09-28T13:18:49Z</time>
      </trkpt>
      <trkpt lat="46.11485" lon="4.43024">
        <ele>880.8</ele>
        <time>2025-09-28T13:18:50Z</time>
      </trkpt>
      <trkpt lat="46.11482" lon="4.43024">
        <ele>881</ele>
        <time>2025-09-28T13:18:51Z</time>
      </trkpt>
      <trkpt lat="46.11479" lon="4.43024">
        <ele>881.4</ele>
        <time>2025-09-28T13:18:52Z</time>
      </trkpt>
      <trkpt lat="46.11477" lon="4.43024">
        <ele>881.4</ele>
        <time>2025-09-28T13:18:53Z</time>
      </trkpt>
      <trkpt lat="46.11475" lon="4.43024">
        <ele>881.6</ele>
        <time>2025-09-28T13:18:54Z</time>
      </trkpt>
      <trkpt lat="46.11472" lon="4.43023">
        <ele>881.6</ele>
        <time>2025-09-28T13:18:55Z</time>
      </trkpt>
      <trkpt lat="46.1147" lon="4.43022">
        <ele>881.6</ele>
        <time>2025-09-28T13:18:56Z</time>
      </trkpt>
      <trkpt lat="46.11467" lon="4.43021">
        <ele>882.2</ele>
        <time>2025-09-28T13:18:57Z</time>
      </trkpt>
      <trkpt lat="46.11465" lon="4.43021">
        <ele>882.2</ele>
        <time>2025-09-28T13:18:58Z</time>
      </trkpt>
      <trkpt lat="46.11463" lon="4.4302">
        <ele>882.6</ele>
        <time>2025-09-28T13:18:59Z</time>
      </trkpt>
      <trkpt lat="46.11461" lon="4.4302">
        <ele>882.6</ele>
        <time>2025-09-28T13:19:00Z</time>
      </trkpt>
      <trkpt lat="46.11459" lon="4.43021">
        <ele>882.8</ele>
        <time>2025-09-28T13:19:01Z</time>
      </trkpt>
      <trkpt lat="46.11456" lon="4.43021">
        <ele>883</ele>
        <time>2025-09-28T13:19:02Z</time>
      </trkpt>
      <trkpt lat="46.11454" lon="4.43022">
        <ele>883</ele>
        <time>2025-09-28T13:19:03Z</time>
      </trkpt>
      <trkpt lat="46.11453" lon="4.43021">
        <ele>883</ele>
        <time>2025-09-28T13:19:04Z</time>
      </trkpt>
      <trkpt lat="46.11451" lon="4.43021">
        <ele>883.6</ele>
        <time>2025-09-28T13:19:05Z</time>
      </trkpt>
      <trkpt lat="46.11448" lon="4.43021">
        <ele>883.8</ele>
        <time>2025-09-28T13:19:06Z</time>
      </trkpt>
      <trkpt lat="46.11446" lon="4.43021">
        <ele>883.8</ele>
        <time>2025-09-28T13:19:07Z</time>
      </trkpt>
      <trkpt lat="46.11445" lon="4.4302">
        <ele>884</ele>
        <time>2025-09-28T13:19:08Z</time>
      </trkpt>
      <trkpt lat="46.11444" lon="4.4302">
        <ele>884.4</ele>
        <time>2025-09-28T13:19:09Z</time>
      </trkpt>
      <trkpt lat="46.11443" lon="4.43019">
        <ele>884.4</ele>
        <time>2025-09-28T13:19:10Z</time>
      </trkpt>
      <trkpt lat="46.11441" lon="4.43019">
        <ele>884.6</ele>
        <time>2025-09-28T13:19:11Z</time>
      </trkpt>
      <trkpt lat="46.1144" lon="4.43019">
        <ele>884.6</ele>
        <time>2025-09-28T13:19:12Z</time>
      </trkpt>
      <trkpt lat="46.11439" lon="4.4302">
        <ele>884.8</ele>
        <time>2025-09-28T13:19:13Z</time>
      </trkpt>
      <trkpt lat="46.11437" lon="4.4302">
        <ele>884.8</ele>
        <time>2025-09-28T13:19:14Z</time>
      </trkpt>
      <trkpt lat="46.11437" lon="4.4302">
        <ele>884.8</ele>
        <time>2025-09-28T13:19:15Z</time>
      </trkpt>
      <trkpt lat="46.11436" lon="4.4302">
        <ele>884.8</ele>
        <time>2025-09-28T13:19:16Z</time>
      </trkpt>
      <trkpt lat="46.11436" lon="4.4302">
        <ele>885.2</ele>
        <time>2025-09-28T13:19:17Z</time>
      </trkpt>
      <trkpt lat="46.11434" lon="4.43017">
        <ele>885.2</ele>
        <time>2025-09-28T13:20:03Z</time>
      </trkpt>
      <trkpt lat="46.11432" lon="4.43016">
        <ele>885.2</ele>
        <time>2025-09-28T13:20:04Z</time>
      </trkpt>
      <trkpt lat="46.1143" lon="4.43016">
        <ele>885.2</ele>
        <time>2025-09-28T13:20:05Z</time>
      </trkpt>
      <trkpt lat="46.11426" lon="4.43015">
        <ele>885.2</ele>
        <time>2025-09-28T13:20:06Z</time>
      </trkpt>
      <trkpt lat="46.11423" lon="4.43013">
        <ele>885.2</ele>
        <time>2025-09-28T13:20:07Z</time>
      </trkpt>
      <trkpt lat="46.1142" lon="4.43012">
        <ele>885.4</ele>
        <time>2025-09-28T13:20:08Z</time>
      </trkpt>
      <trkpt lat="46.11417" lon="4.43011">
        <ele>885.4</ele>
        <time>2025-09-28T13:20:09Z</time>
      </trkpt>
      <trkpt lat="46.11414" lon="4.4301">
        <ele>885.4</ele>
        <time>2025-09-28T13:20:10Z</time>
      </trkpt>
      <trkpt lat="46.11411" lon="4.43009">
        <ele>885.4</ele>
        <time>2025-09-28T13:20:11Z</time>
      </trkpt>
      <trkpt lat="46.11408" lon="4.43009">
        <ele>885.6</ele>
        <time>2025-09-28T13:20:12Z</time>
      </trkpt>
      <trkpt lat="46.11406" lon="4.43008">
        <ele>885.6</ele>
        <time>2025-09-28T13:20:13Z</time>
      </trkpt>
      <trkpt lat="46.11403" lon="4.43007">
        <ele>886</ele>
        <time>2025-09-28T13:20:14Z</time>
      </trkpt>
      <trkpt lat="46.114" lon="4.43007">
        <ele>886</ele>
        <time>2025-09-28T13:20:15Z</time>
      </trkpt>
      <trkpt lat="46.11397" lon="4.43006">
        <ele>886</ele>
        <time>2025-09-28T13:20:16Z</time>
      </trkpt>
      <trkpt lat="46.11394" lon="4.43006">
        <ele>886</ele>
        <time>2025-09-28T13:20:17Z</time>
      </trkpt>
      <trkpt lat="46.11391" lon="4.43005">
        <ele>886.6</ele>
        <time>2025-09-28T13:20:18Z</time>
      </trkpt>
      <trkpt lat="46.11389" lon="4.43005">
        <ele>886.6</ele>
        <time>2025-09-28T13:20:19Z</time>
      </trkpt>
      <trkpt lat="46.11386" lon="4.43004">
        <ele>886.6</ele>
        <time>2025-09-28T13:20:20Z</time>
      </trkpt>
      <trkpt lat="46.11383" lon="4.43003">
        <ele>887</ele>
        <time>2025-09-28T13:20:21Z</time>
      </trkpt>
      <trkpt lat="46.1138" lon="4.43003">
        <ele>887</ele>
        <time>2025-09-28T13:20:22Z</time>
      </trkpt>
      <trkpt lat="46.11378" lon="4.43002">
        <ele>887</ele>
        <time>2025-09-28T13:20:23Z</time>
      </trkpt>
      <trkpt lat="46.11375" lon="4.43">
        <ele>887.2</ele>
        <time>2025-09-28T13:20:24Z</time>
      </trkpt>
      <trkpt lat="46.11372" lon="4.42999">
        <ele>887.2</ele>
        <time>2025-09-28T13:20:25Z</time>
      </trkpt>
      <trkpt lat="46.11369" lon="4.42998">
        <ele>887.2</ele>
        <time>2025-09-28T13:20:26Z</time>
      </trkpt>
      <trkpt lat="46.11367" lon="4.42997">
        <ele>887.2</ele>
        <time>2025-09-28T13:20:27Z</time>
      </trkpt>
      <trkpt lat="46.11364" lon="4.42996">
        <ele>887.2</ele>
        <time>2025-09-28T13:20:28Z</time>
      </trkpt>
      <trkpt lat="46.11362" lon="4.42996">
        <ele>887.2</ele>
        <time>2025-09-28T13:20:29Z</time>
      </trkpt>
      <trkpt lat="46.1136" lon="4.42996">
        <ele>887.4</ele>
        <time>2025-09-28T13:20:30Z</time>
      </trkpt>
      <trkpt lat="46.11358" lon="4.42996">
        <ele>887.4</ele>
        <time>2025-09-28T13:20:31Z</time>
      </trkpt>
      <trkpt lat="46.11356" lon="4.42997">
        <ele>887.4</ele>
        <time>2025-09-28T13:20:32Z</time>
      </trkpt>
      <trkpt lat="46.11355" lon="4.42998">
        <ele>887.4</ele>
        <time>2025-09-28T13:20:33Z</time>
      </trkpt>
      <trkpt lat="46.11353" lon="4.42999">
        <ele>887.4</ele>
        <time>2025-09-28T13:20:34Z</time>
      </trkpt>
      <trkpt lat="46.11351" lon="4.43001">
        <ele>887.4</ele>
        <time>2025-09-28T13:20:35Z</time>
      </trkpt>
      <trkpt lat="46.11349" lon="4.43002">
        <ele>887.4</ele>
        <time>2025-09-28T13:20:36Z</time>
      </trkpt>
      <trkpt lat="46.11347" lon="4.43003">
        <ele>887.2</ele>
        <time>2025-09-28T13:20:37Z</time>
      </trkpt>
      <trkpt lat="46.11346" lon="4.43003">
        <ele>887</ele>
        <time>2025-09-28T13:20:38Z</time>
      </trkpt>
      <trkpt lat="46.11344" lon="4.43003">
        <ele>887</ele>
        <time>2025-09-28T13:20:39Z</time>
      </trkpt>
      <trkpt lat="46.11342" lon="4.43003">
        <ele>887</ele>
        <time>2025-09-28T13:20:40Z</time>
      </trkpt>
      <trkpt lat="46.11339" lon="4.43005">
        <ele>887</ele>
        <time>2025-09-28T13:20:41Z</time>
      </trkpt>
      <trkpt lat="46.11336" lon="4.43006">
        <ele>886.6</ele>
        <time>2025-09-28T13:20:42Z</time>
      </trkpt>
      <trkpt lat="46.11333" lon="4.43008">
        <ele>886.2</ele>
        <time>2025-09-28T13:20:43Z</time>
      </trkpt>
      <trkpt lat="46.1133" lon="4.43009">
        <ele>885.6</ele>
        <time>2025-09-28T13:20:44Z</time>
      </trkpt>
      <trkpt lat="46.11325" lon="4.43012">
        <ele>885</ele>
        <time>2025-09-28T13:20:45Z</time>
      </trkpt>
      <trkpt lat="46.11319" lon="4.43013">
        <ele>884.6</ele>
        <time>2025-09-28T13:20:46Z</time>
      </trkpt>
      <trkpt lat="46.11313" lon="4.43016">
        <ele>884</ele>
        <time>2025-09-28T13:20:47Z</time>
      </trkpt>
      <trkpt lat="46.11308" lon="4.43018">
        <ele>883.6</ele>
        <time>2025-09-28T13:20:48Z</time>
      </trkpt>
      <trkpt lat="46.11302" lon="4.4302">
        <ele>883</ele>
        <time>2025-09-28T13:20:49Z</time>
      </trkpt>
      <trkpt lat="46.11296" lon="4.43021">
        <ele>882</ele>
        <time>2025-09-28T13:20:50Z</time>
      </trkpt>
      <trkpt lat="46.11291" lon="4.43023">
        <ele>881</ele>
        <time>2025-09-28T13:20:51Z</time>
      </trkpt>
      <trkpt lat="46.11286" lon="4.43025">
        <ele>880</ele>
        <time>2025-09-28T13:20:52Z</time>
      </trkpt>
      <trkpt lat="46.11281" lon="4.43027">
        <ele>879.2</ele>
        <time>2025-09-28T13:20:53Z</time>
      </trkpt>
      <trkpt lat="46.11275" lon="4.43028">
        <ele>878</ele>
        <time>2025-09-28T13:20:54Z</time>
      </trkpt>
      <trkpt lat="46.1127" lon="4.43031">
        <ele>876.4</ele>
        <time>2025-09-28T13:20:55Z</time>
      </trkpt>
      <trkpt lat="46.11265" lon="4.43036">
        <ele>875.8</ele>
        <time>2025-09-28T13:20:56Z</time>
      </trkpt>
      <trkpt lat="46.11258" lon="4.43037">
        <ele>875</ele>
        <time>2025-09-28T13:20:57Z</time>
      </trkpt>
      <trkpt lat="46.11251" lon="4.43038">
        <ele>873.6</ele>
        <time>2025-09-28T13:20:58Z</time>
      </trkpt>
      <trkpt lat="46.11246" lon="4.43038">
        <ele>872.6</ele>
        <time>2025-09-28T13:20:59Z</time>
      </trkpt>
      <trkpt lat="46.11239" lon="4.43039">
        <ele>871.8</ele>
        <time>2025-09-28T13:21:00Z</time>
      </trkpt>
      <trkpt lat="46.11233" lon="4.4304">
        <ele>871.6</ele>
        <time>2025-09-28T13:21:01Z</time>
      </trkpt>
      <trkpt lat="46.11227" lon="4.43041">
        <ele>870.6</ele>
        <time>2025-09-28T13:21:02Z</time>
      </trkpt>
      <trkpt lat="46.11222" lon="4.4304">
        <ele>869.6</ele>
        <time>2025-09-28T13:21:03Z</time>
      </trkpt>
      <trkpt lat="46.11219" lon="4.43039">
        <ele>869.2</ele>
        <time>2025-09-28T13:21:04Z</time>
      </trkpt>
      <trkpt lat="46.11217" lon="4.43039">
        <ele>868.8</ele>
        <time>2025-09-28T13:21:05Z</time>
      </trkpt>
      <trkpt lat="46.11216" lon="4.43039">
        <ele>868.4</ele>
        <time>2025-09-28T13:21:06Z</time>
      </trkpt>
      <trkpt lat="46.11216" lon="4.4304">
        <ele>868</ele>
        <time>2025-09-28T13:21:07Z</time>
      </trkpt>
      <trkpt lat="46.11213" lon="4.43038">
        <ele>866.6</ele>
        <time>2025-09-28T13:21:17Z</time>
      </trkpt>
      <trkpt lat="46.1121" lon="4.43037">
        <ele>866.2</ele>
        <time>2025-09-28T13:21:18Z</time>
      </trkpt>
      <trkpt lat="46.11206" lon="4.43037">
        <ele>866.2</ele>
        <time>2025-09-28T13:21:19Z</time>
      </trkpt>
      <trkpt lat="46.11201" lon="4.43035">
        <ele>865.4</ele>
        <time>2025-09-28T13:21:20Z</time>
      </trkpt>
      <trkpt lat="46.11195" lon="4.43034">
        <ele>864.6</ele>
        <time>2025-09-28T13:21:21Z</time>
      </trkpt>
      <trkpt lat="46.11189" lon="4.43034">
        <ele>864.2</ele>
        <time>2025-09-28T13:21:22Z</time>
      </trkpt>
      <trkpt lat="46.11181" lon="4.43032">
        <ele>863.6</ele>
        <time>2025-09-28T13:21:23Z</time>
      </trkpt>
      <trkpt lat="46.11173" lon="4.43031">
        <ele>862.8</ele>
        <time>2025-09-28T13:21:24Z</time>
      </trkpt>
      <trkpt lat="46.11166" lon="4.43031">
        <ele>862.2</ele>
        <time>2025-09-28T13:21:25Z</time>
      </trkpt>
      <trkpt lat="46.11158" lon="4.43029">
        <ele>862.2</ele>
        <time>2025-09-28T13:21:26Z</time>
      </trkpt>
      <trkpt lat="46.1115" lon="4.43028">
        <ele>861.8</ele>
        <time>2025-09-28T13:21:27Z</time>
      </trkpt>
      <trkpt lat="46.11142" lon="4.43025">
        <ele>860.4</ele>
        <time>2025-09-28T13:21:28Z</time>
      </trkpt>
      <trkpt lat="46.11134" lon="4.43025">
        <ele>860</ele>
        <time>2025-09-28T13:21:29Z</time>
      </trkpt>
      <trkpt lat="46.11126" lon="4.43022">
        <ele>859.8</ele>
        <time>2025-09-28T13:21:30Z</time>
      </trkpt>
      <trkpt lat="46.11117" lon="4.43022">
        <ele>859</ele>
        <time>2025-09-28T13:21:31Z</time>
      </trkpt>
      <trkpt lat="46.11109" lon="4.4302">
        <ele>858.8</ele>
        <time>2025-09-28T13:21:32Z</time>
      </trkpt>
      <trkpt lat="46.11102" lon="4.43018">
        <ele>858.2</ele>
        <time>2025-09-28T13:21:33Z</time>
      </trkpt>
      <trkpt lat="46.11095" lon="4.43014">
        <ele>857.4</ele>
        <time>2025-09-28T13:21:34Z</time>
      </trkpt>
      <trkpt lat="46.11089" lon="4.43014">
        <ele>857</ele>
        <time>2025-09-28T13:21:35Z</time>
      </trkpt>
      <trkpt lat="46.11083" lon="4.43012">
        <ele>856.4</ele>
        <time>2025-09-28T13:21:36Z</time>
      </trkpt>
      <trkpt lat="46.11077" lon="4.4301">
        <ele>856.4</ele>
        <time>2025-09-28T13:21:37Z</time>
      </trkpt>
      <trkpt lat="46.11068" lon="4.43012">
        <ele>855.4</ele>
        <time>2025-09-28T13:21:38Z</time>
      </trkpt>
      <trkpt lat="46.1106" lon="4.4301">
        <ele>854.4</ele>
        <time>2025-09-28T13:21:39Z</time>
      </trkpt>
      <trkpt lat="46.11054" lon="4.43006">
        <ele>853</ele>
        <time>2025-09-28T13:21:40Z</time>
      </trkpt>
      <trkpt lat="46.11048" lon="4.43001">
        <ele>852.6</ele>
        <time>2025-09-28T13:21:41Z</time>
      </trkpt>
      <trkpt lat="46.11039" lon="4.42998">
        <ele>852.2</ele>
        <time>2025-09-28T13:21:42Z</time>
      </trkpt>
      <trkpt lat="46.11032" lon="4.42996">
        <ele>851.4</ele>
        <time>2025-09-28T13:21:43Z</time>
      </trkpt>
      <trkpt lat="46.11023" lon="4.42995">
        <ele>850.6</ele>
        <time>2025-09-28T13:21:44Z</time>
      </trkpt>
      <trkpt lat="46.11014" lon="4.42992">
        <ele>850</ele>
        <time>2025-09-28T13:21:45Z</time>
      </trkpt>
      <trkpt lat="46.11004" lon="4.42988">
        <ele>850</ele>
        <time>2025-09-28T13:21:46Z</time>
      </trkpt>
      <trkpt lat="46.10995" lon="4.42985">
        <ele>849.6</ele>
        <time>2025-09-28T13:21:47Z</time>
      </trkpt>
      <trkpt lat="46.10988" lon="4.4298">
        <ele>849.6</ele>
        <time>2025-09-28T13:21:48Z</time>
      </trkpt>
      <trkpt lat="46.10982" lon="4.42973">
        <ele>849</ele>
        <time>2025-09-28T13:21:49Z</time>
      </trkpt>
      <trkpt lat="46.10976" lon="4.42972">
        <ele>848.6</ele>
        <time>2025-09-28T13:21:50Z</time>
      </trkpt>
      <trkpt lat="46.10973" lon="4.4297">
        <ele>848.6</ele>
        <time>2025-09-28T13:21:51Z</time>
      </trkpt>
      <trkpt lat="46.10969" lon="4.42967">
        <ele>848.2</ele>
        <time>2025-09-28T13:21:52Z</time>
      </trkpt>
      <trkpt lat="46.10965" lon="4.42963">
        <ele>848.2</ele>
        <time>2025-09-28T13:21:53Z</time>
      </trkpt>
      <trkpt lat="46.10962" lon="4.4296">
        <ele>848.2</ele>
        <time>2025-09-28T13:21:54Z</time>
      </trkpt>
      <trkpt lat="46.10959" lon="4.42957">
        <ele>848.2</ele>
        <time>2025-09-28T13:21:55Z</time>
      </trkpt>
      <trkpt lat="46.10957" lon="4.42951">
        <ele>848.2</ele>
        <time>2025-09-28T13:21:56Z</time>
      </trkpt>
      <trkpt lat="46.10955" lon="4.42946">
        <ele>848.2</ele>
        <time>2025-09-28T13:21:57Z</time>
      </trkpt>
      <trkpt lat="46.10953" lon="4.42942">
        <ele>848.2</ele>
        <time>2025-09-28T13:21:58Z</time>
      </trkpt>
      <trkpt lat="46.10953" lon="4.42939">
        <ele>848.2</ele>
        <time>2025-09-28T13:21:59Z</time>
      </trkpt>
      <trkpt lat="46.10953" lon="4.42936">
        <ele>848.2</ele>
        <time>2025-09-28T13:22:00Z</time>
      </trkpt>
      <trkpt lat="46.10953" lon="4.42934">
        <ele>848</ele>
        <time>2025-09-28T13:22:01Z</time>
      </trkpt>
      <trkpt lat="46.10952" lon="4.42932">
        <ele>848</ele>
        <time>2025-09-28T13:22:02Z</time>
      </trkpt>
      <trkpt lat="46.10952" lon="4.4293">
        <ele>848</ele>
        <time>2025-09-28T13:22:03Z</time>
      </trkpt>
      <trkpt lat="46.10951" lon="4.42928">
        <ele>848</ele>
        <time>2025-09-28T13:22:04Z</time>
      </trkpt>
      <trkpt lat="46.10949" lon="4.42927">
        <ele>848</ele>
        <time>2025-09-28T13:22:05Z</time>
      </trkpt>
      <trkpt lat="46.10948" lon="4.42927">
        <ele>848</ele>
        <time>2025-09-28T13:22:06Z</time>
      </trkpt>
      <trkpt lat="46.10947" lon="4.42926">
        <ele>848</ele>
        <time>2025-09-28T13:22:07Z</time>
      </trkpt>
      <trkpt lat="46.10947" lon="4.42925">
        <ele>848</ele>
        <time>2025-09-28T13:22:08Z</time>
      </trkpt>
      <trkpt lat="46.10947" lon="4.42924">
        <ele>848</ele>
        <time>2025-09-28T13:22:09Z</time>
      </trkpt>
      <trkpt lat="46.10946" lon="4.42923">
        <ele>848</ele>
        <time>2025-09-28T13:22:10Z</time>
      </trkpt>
      <trkpt lat="46.10945" lon="4.42921">
        <ele>848</ele>
        <time>2025-09-28T13:22:11Z</time>
      </trkpt>
      <trkpt lat="46.10944" lon="4.4292">
        <ele>848.2</ele>
        <time>2025-09-28T13:22:12Z</time>
      </trkpt>
      <trkpt lat="46.10942" lon="4.4292">
        <ele>848.2</ele>
        <time>2025-09-28T13:22:13Z</time>
      </trkpt>
      <trkpt lat="46.10942" lon="4.42921">
        <ele>848.2</ele>
        <time>2025-09-28T13:22:14Z</time>
      </trkpt>
      <trkpt lat="46.10942" lon="4.42924">
        <ele>848.2</ele>
        <time>2025-09-28T13:22:15Z</time>
      </trkpt>
      <trkpt lat="46.10942" lon="4.42928">
        <ele>848.2</ele>
        <time>2025-09-28T13:22:16Z</time>
      </trkpt>
      <trkpt lat="46.10944" lon="4.42931">
        <ele>848</ele>
        <time>2025-09-28T13:22:17Z</time>
      </trkpt>
      <trkpt lat="46.10946" lon="4.42932">
        <ele>848</ele>
        <time>2025-09-28T13:22:18Z</time>
      </trkpt>
      <trkpt lat="46.10949" lon="4.42933">
        <ele>848</ele>
        <time>2025-09-28T13:22:19Z</time>
      </trkpt>
      <trkpt lat="46.10951" lon="4.42933">
        <ele>848</ele>
        <time>2025-09-28T13:22:20Z</time>
      </trkpt>
      <trkpt lat="46.10953" lon="4.42932">
        <ele>848</ele>
        <time>2025-09-28T13:22:21Z</time>
      </trkpt>
      <trkpt lat="46.10955" lon="4.4293">
        <ele>848</ele>
        <time>2025-09-28T13:22:22Z</time>
      </trkpt>
      <trkpt lat="46.10956" lon="4.42928">
        <ele>848</ele>
        <time>2025-09-28T13:22:23Z</time>
      </trkpt>
      <trkpt lat="46.10956" lon="4.42927">
        <ele>848</ele>
        <time>2025-09-28T13:22:24Z</time>
      </trkpt>
      <trkpt lat="46.10956" lon="4.42926">
        <ele>848</ele>
        <time>2025-09-28T13:22:25Z</time>
      </trkpt>
      <trkpt lat="46.10956" lon="4.42926">
        <ele>848</ele>
        <time>2025-09-28T13:22:26Z</time>
      </trkpt>
      <trkpt lat="46.10956" lon="4.42926">
        <ele>848</ele>
        <time>2025-09-28T13:22:27Z</time>
      </trkpt>
      <trkpt lat="46.10956" lon="4.42926">
        <ele>848</ele>
        <time>2025-09-28T13:22:28Z</time>
      </trkpt>
      <trkpt lat="46.10956" lon="4.42926">
        <ele>848</ele>
        <time>2025-09-28T13:22:29Z</time>
      </trkpt>
      <trkpt lat="46.10955" lon="4.42926">
        <ele>848</ele>
        <time>2025-09-28T13:22:30Z</time>
      </trkpt>
      <trkpt lat="46.10955" lon="4.42927">
        <ele>848</ele>
        <time>2025-09-28T13:22:31Z</time>
      </trkpt>
      <trkpt lat="46.10955" lon="4.42927">
        <ele>848</ele>
        <time>2025-09-28T13:22:32Z</time>
      </trkpt>
      <trkpt lat="46.10958" lon="4.42928">
        <ele>847.8</ele>
        <time>2025-09-28T13:24:15Z</time>
      </trkpt>
      <trkpt lat="46.10958" lon="4.42928">
        <ele>847.8</ele>
        <time>2025-09-28T13:24:16Z</time>
      </trkpt>
      <trkpt lat="46.10958" lon="4.42928">
        <ele>847.8</ele>
        <time>2025-09-28T13:24:17Z</time>
      </trkpt>
      <trkpt lat="46.1096" lon="4.42929">
        <ele>847.8</ele>
        <time>2025-09-28T13:24:18Z</time>
      </trkpt>
      <trkpt lat="46.10962" lon="4.4293">
        <ele>847.8</ele>
        <time>2025-09-28T13:24:19Z</time>
      </trkpt>
      <trkpt lat="46.10964" lon="4.4293">
        <ele>847.8</ele>
        <time>2025-09-28T13:24:20Z</time>
      </trkpt>
      <trkpt lat="46.10967" lon="4.42928">
        <ele>847.8</ele>
        <time>2025-09-28T13:24:21Z</time>
      </trkpt>
      <trkpt lat="46.10971" lon="4.42926">
        <ele>847.8</ele>
        <time>2025-09-28T13:24:22Z</time>
      </trkpt>
      <trkpt lat="46.10974" lon="4.42923">
        <ele>847.8</ele>
        <time>2025-09-28T13:24:23Z</time>
      </trkpt>
      <trkpt lat="46.10978" lon="4.4292">
        <ele>847.6</ele>
        <time>2025-09-28T13:24:24Z</time>
      </trkpt>
      <trkpt lat="46.10982" lon="4.42917">
        <ele>847.6</ele>
        <time>2025-09-28T13:24:25Z</time>
      </trkpt>
      <trkpt lat="46.10986" lon="4.42913">
        <ele>847.2</ele>
        <time>2025-09-28T13:24:26Z</time>
      </trkpt>
      <trkpt lat="46.10991" lon="4.4291">
        <ele>847</ele>
        <time>2025-09-28T13:24:27Z</time>
      </trkpt>
      <trkpt lat="46.10995" lon="4.42907">
        <ele>846.4</ele>
        <time>2025-09-28T13:24:28Z</time>
      </trkpt>
      <trkpt lat="46.11" lon="4.42905">
        <ele>846.2</ele>
        <time>2025-09-28T13:24:29Z</time>
      </trkpt>
      <trkpt lat="46.11004" lon="4.429">
        <ele>846.2</ele>
        <time>2025-09-28T13:24:30Z</time>
      </trkpt>
      <trkpt lat="46.11008" lon="4.42898">
        <ele>846</ele>
        <time>2025-09-28T13:24:31Z</time>
      </trkpt>
      <trkpt lat="46.11011" lon="4.42895">
        <ele>846</ele>
        <time>2025-09-28T13:24:32Z</time>
      </trkpt>
      <trkpt lat="46.11017" lon="4.42893">
        <ele>846</ele>
        <time>2025-09-28T13:24:33Z</time>
      </trkpt>
      <trkpt lat="46.11022" lon="4.42888">
        <ele>846.4</ele>
        <time>2025-09-28T13:24:34Z</time>
      </trkpt>
      <trkpt lat="46.11027" lon="4.42884">
        <ele>845.8</ele>
        <time>2025-09-28T13:24:35Z</time>
      </trkpt>
      <trkpt lat="46.11033" lon="4.42882">
        <ele>845.8</ele>
        <time>2025-09-28T13:24:36Z</time>
      </trkpt>
      <trkpt lat="46.11037" lon="4.42878">
        <ele>845.6</ele>
        <time>2025-09-28T13:24:37Z</time>
      </trkpt>
      <trkpt lat="46.11041" lon="4.42874">
        <ele>845.2</ele>
        <time>2025-09-28T13:24:38Z</time>
      </trkpt>
      <trkpt lat="46.11048" lon="4.42871">
        <ele>845</ele>
        <time>2025-09-28T13:24:39Z</time>
      </trkpt>
      <trkpt lat="46.11053" lon="4.42867">
        <ele>844.8</ele>
        <time>2025-09-28T13:24:40Z</time>
      </trkpt>
      <trkpt lat="46.11058" lon="4.42863">
        <ele>844.4</ele>
        <time>2025-09-28T13:24:41Z</time>
      </trkpt>
      <trkpt lat="46.11064" lon="4.42859">
        <ele>844</ele>
        <time>2025-09-28T13:24:42Z</time>
      </trkpt>
      <trkpt lat="46.1107" lon="4.42855">
        <ele>844</ele>
        <time>2025-09-28T13:24:43Z</time>
      </trkpt>
      <trkpt lat="46.11078" lon="4.42849">
        <ele>843.8</ele>
        <time>2025-09-28T13:24:44Z</time>
      </trkpt>
      <trkpt lat="46.11083" lon="4.42848">
        <ele>843.8</ele>
        <time>2025-09-28T13:24:45Z</time>
      </trkpt>
      <trkpt lat="46.11089" lon="4.42844">
        <ele>843.8</ele>
        <time>2025-09-28T13:24:46Z</time>
      </trkpt>
      <trkpt lat="46.11096" lon="4.42839">
        <ele>843.2</ele>
        <time>2025-09-28T13:24:47Z</time>
      </trkpt>
      <trkpt lat="46.11102" lon="4.42834">
        <ele>842</ele>
        <time>2025-09-28T13:24:48Z</time>
      </trkpt>
      <trkpt lat="46.11107" lon="4.4283">
        <ele>842.4</ele>
        <time>2025-09-28T13:24:49Z</time>
      </trkpt>
      <trkpt lat="46.11113" lon="4.42825">
        <ele>842.4</ele>
        <time>2025-09-28T13:24:50Z</time>
      </trkpt>
      <trkpt lat="46.11119" lon="4.42822">
        <ele>842.2</ele>
        <time>2025-09-28T13:24:51Z</time>
      </trkpt>
      <trkpt lat="46.11126" lon="4.42815">
        <ele>842.2</ele>
        <time>2025-09-28T13:24:52Z</time>
      </trkpt>
      <trkpt lat="46.11132" lon="4.42811">
        <ele>841.8</ele>
        <time>2025-09-28T13:24:53Z</time>
      </trkpt>
      <trkpt lat="46.11137" lon="4.42803">
        <ele>841.8</ele>
        <time>2025-09-28T13:24:54Z</time>
      </trkpt>
      <trkpt lat="46.11142" lon="4.42796">
        <ele>841.4</ele>
        <time>2025-09-28T13:24:55Z</time>
      </trkpt>
      <trkpt lat="46.11148" lon="4.4279">
        <ele>841.4</ele>
        <time>2025-09-28T13:24:56Z</time>
      </trkpt>
      <trkpt lat="46.11153" lon="4.42784">
        <ele>841</ele>
        <time>2025-09-28T13:24:57Z</time>
      </trkpt>
      <trkpt lat="46.11159" lon="4.42776">
        <ele>841</ele>
        <time>2025-09-28T13:24:58Z</time>
      </trkpt>
      <trkpt lat="46.11164" lon="4.42769">
        <ele>841</ele>
        <time>2025-09-28T13:24:59Z</time>
      </trkpt>
      <trkpt lat="46.11169" lon="4.42761">
        <ele>840.8</ele>
        <time>2025-09-28T13:25:00Z</time>
      </trkpt>
      <trkpt lat="46.11175" lon="4.42753">
        <ele>840.6</ele>
        <time>2025-09-28T13:25:01Z</time>
      </trkpt>
      <trkpt lat="46.1118" lon="4.42743">
        <ele>840</ele>
        <time>2025-09-28T13:25:02Z</time>
      </trkpt>
      <trkpt lat="46.11184" lon="4.42734">
        <ele>840</ele>
        <time>2025-09-28T13:25:03Z</time>
      </trkpt>
      <trkpt lat="46.11188" lon="4.42724">
        <ele>839.6</ele>
        <time>2025-09-28T13:25:04Z</time>
      </trkpt>
      <trkpt lat="46.11195" lon="4.42714">
        <ele>839.4</ele>
        <time>2025-09-28T13:25:05Z</time>
      </trkpt>
      <trkpt lat="46.11198" lon="4.42703">
        <ele>839.2</ele>
        <time>2025-09-28T13:25:06Z</time>
      </trkpt>
      <trkpt lat="46.11202" lon="4.42692">
        <ele>838.8</ele>
        <time>2025-09-28T13:25:07Z</time>
      </trkpt>
      <trkpt lat="46.11206" lon="4.42681">
        <ele>838.6</ele>
        <time>2025-09-28T13:25:08Z</time>
      </trkpt>
      <trkpt lat="46.11211" lon="4.42671">
        <ele>837.8</ele>
        <time>2025-09-28T13:25:09Z</time>
      </trkpt>
      <trkpt lat="46.11216" lon="4.42661">
        <ele>837.6</ele>
        <time>2025-09-28T13:25:10Z</time>
      </trkpt>
      <trkpt lat="46.1122" lon="4.42651">
        <ele>837.2</ele>
        <time>2025-09-28T13:25:11Z</time>
      </trkpt>
      <trkpt lat="46.11224" lon="4.42641">
        <ele>836.6</ele>
        <time>2025-09-28T13:25:12Z</time>
      </trkpt>
      <trkpt lat="46.1123" lon="4.42631">
        <ele>836.4</ele>
        <time>2025-09-28T13:25:13Z</time>
      </trkpt>
      <trkpt lat="46.11234" lon="4.42622">
        <ele>836.2</ele>
        <time>2025-09-28T13:25:14Z</time>
      </trkpt>
      <trkpt lat="46.11241" lon="4.42614">
        <ele>836.2</ele>
        <time>2025-09-28T13:25:15Z</time>
      </trkpt>
      <trkpt lat="46.11247" lon="4.42606">
        <ele>836.2</ele>
        <time>2025-09-28T13:25:16Z</time>
      </trkpt>
      <trkpt lat="46.11252" lon="4.42597">
        <ele>835.8</ele>
        <time>2025-09-28T13:25:17Z</time>
      </trkpt>
      <trkpt lat="46.11258" lon="4.4259">
        <ele>835.8</ele>
        <time>2025-09-28T13:25:18Z</time>
      </trkpt>
      <trkpt lat="46.11265" lon="4.42582">
        <ele>835.4</ele>
        <time>2025-09-28T13:25:19Z</time>
      </trkpt>
      <trkpt lat="46.11272" lon="4.42575">
        <ele>835.2</ele>
        <time>2025-09-28T13:25:20Z</time>
      </trkpt>
      <trkpt lat="46.11279" lon="4.42569">
        <ele>834.8</ele>
        <time>2025-09-28T13:25:21Z</time>
      </trkpt>
      <trkpt lat="46.11285" lon="4.42563">
        <ele>834.4</ele>
        <time>2025-09-28T13:25:22Z</time>
      </trkpt>
      <trkpt lat="46.11293" lon="4.42557">
        <ele>834.2</ele>
        <time>2025-09-28T13:25:23Z</time>
      </trkpt>
      <trkpt lat="46.11301" lon="4.42555">
        <ele>833.8</ele>
        <time>2025-09-28T13:25:24Z</time>
      </trkpt>
      <trkpt lat="46.11309" lon="4.42552">
        <ele>833.6</ele>
        <time>2025-09-28T13:25:25Z</time>
      </trkpt>
      <trkpt lat="46.11318" lon="4.42549">
        <ele>833.6</ele>
        <time>2025-09-28T13:25:26Z</time>
      </trkpt>
      <trkpt lat="46.11324" lon="4.42544">
        <ele>833.2</ele>
        <time>2025-09-28T13:25:27Z</time>
      </trkpt>
      <trkpt lat="46.11332" lon="4.42541">
        <ele>832.8</ele>
        <time>2025-09-28T13:25:28Z</time>
      </trkpt>
      <trkpt lat="46.1134" lon="4.42538">
        <ele>832.6</ele>
        <time>2025-09-28T13:25:29Z</time>
      </trkpt>
      <trkpt lat="46.11349" lon="4.4254">
        <ele>832.4</ele>
        <time>2025-09-28T13:25:30Z</time>
      </trkpt>
      <trkpt lat="46.11357" lon="4.42541">
        <ele>831.8</ele>
        <time>2025-09-28T13:25:31Z</time>
      </trkpt>
      <trkpt lat="46.11366" lon="4.42542">
        <ele>831.8</ele>
        <time>2025-09-28T13:25:32Z</time>
      </trkpt>
      <trkpt lat="46.11375" lon="4.42544">
        <ele>831.2</ele>
        <time>2025-09-28T13:25:33Z</time>
      </trkpt>
      <trkpt lat="46.11384" lon="4.42546">
        <ele>830.6</ele>
        <time>2025-09-28T13:25:34Z</time>
      </trkpt>
      <trkpt lat="46.11391" lon="4.42548">
        <ele>830.6</ele>
        <time>2025-09-28T13:25:35Z</time>
      </trkpt>
      <trkpt lat="46.114" lon="4.42555">
        <ele>830.6</ele>
        <time>2025-09-28T13:25:36Z</time>
      </trkpt>
      <trkpt lat="46.11407" lon="4.42557">
        <ele>830.2</ele>
        <time>2025-09-28T13:25:37Z</time>
      </trkpt>
      <trkpt lat="46.11415" lon="4.42564">
        <ele>829.8</ele>
        <time>2025-09-28T13:25:38Z</time>
      </trkpt>
      <trkpt lat="46.11421" lon="4.42567">
        <ele>829.8</ele>
        <time>2025-09-28T13:25:39Z</time>
      </trkpt>
      <trkpt lat="46.11429" lon="4.4257">
        <ele>829.6</ele>
        <time>2025-09-28T13:25:40Z</time>
      </trkpt>
      <trkpt lat="46.11436" lon="4.42573">
        <ele>829.6</ele>
        <time>2025-09-28T13:25:41Z</time>
      </trkpt>
      <trkpt lat="46.11444" lon="4.42576">
        <ele>828.8</ele>
        <time>2025-09-28T13:25:42Z</time>
      </trkpt>
      <trkpt lat="46.11451" lon="4.42581">
        <ele>828.6</ele>
        <time>2025-09-28T13:25:43Z</time>
      </trkpt>
      <trkpt lat="46.11459" lon="4.42586">
        <ele>828.6</ele>
        <time>2025-09-28T13:25:44Z</time>
      </trkpt>
      <trkpt lat="46.11465" lon="4.42593">
        <ele>828</ele>
        <time>2025-09-28T13:25:45Z</time>
      </trkpt>
      <trkpt lat="46.11472" lon="4.42597">
        <ele>827.4</ele>
        <time>2025-09-28T13:25:46Z</time>
      </trkpt>
      <trkpt lat="46.11478" lon="4.42606">
        <ele>827.4</ele>
        <time>2025-09-28T13:25:47Z</time>
      </trkpt>
      <trkpt lat="46.11485" lon="4.42615">
        <ele>827</ele>
        <time>2025-09-28T13:25:48Z</time>
      </trkpt>
      <trkpt lat="46.11491" lon="4.42622">
        <ele>827</ele>
        <time>2025-09-28T13:25:49Z</time>
      </trkpt>
      <trkpt lat="46.11497" lon="4.4263">
        <ele>826.6</ele>
        <time>2025-09-28T13:25:50Z</time>
      </trkpt>
      <trkpt lat="46.11503" lon="4.42638">
        <ele>826.6</ele>
        <time>2025-09-28T13:25:51Z</time>
      </trkpt>
      <trkpt lat="46.1151" lon="4.42646">
        <ele>826.4</ele>
        <time>2025-09-28T13:25:52Z</time>
      </trkpt>
      <trkpt lat="46.11516" lon="4.42654">
        <ele>826.2</ele>
        <time>2025-09-28T13:25:53Z</time>
      </trkpt>
      <trkpt lat="46.11522" lon="4.42661">
        <ele>826.2</ele>
        <time>2025-09-28T13:25:54Z</time>
      </trkpt>
      <trkpt lat="46.11529" lon="4.42668">
        <ele>825.8</ele>
        <time>2025-09-28T13:25:55Z</time>
      </trkpt>
      <trkpt lat="46.11536" lon="4.42674">
        <ele>825.6</ele>
        <time>2025-09-28T13:25:56Z</time>
      </trkpt>
      <trkpt lat="46.11544" lon="4.4268">
        <ele>825.6</ele>
        <time>2025-09-28T13:25:57Z</time>
      </trkpt>
      <trkpt lat="46.11552" lon="4.42686">
        <ele>825.2</ele>
        <time>2025-09-28T13:25:58Z</time>
      </trkpt>
      <trkpt lat="46.1156" lon="4.4269">
        <ele>824.8</ele>
        <time>2025-09-28T13:25:59Z</time>
      </trkpt>
      <trkpt lat="46.11568" lon="4.42694">
        <ele>824.8</ele>
        <time>2025-09-28T13:26:00Z</time>
      </trkpt>
      <trkpt lat="46.11577" lon="4.42697">
        <ele>824.4</ele>
        <time>2025-09-28T13:26:01Z</time>
      </trkpt>
      <trkpt lat="46.11585" lon="4.427">
        <ele>824.2</ele>
        <time>2025-09-28T13:26:02Z</time>
      </trkpt>
      <trkpt lat="46.11593" lon="4.42702">
        <ele>824</ele>
        <time>2025-09-28T13:26:03Z</time>
      </trkpt>
      <trkpt lat="46.11601" lon="4.42705">
        <ele>823.6</ele>
        <time>2025-09-28T13:26:04Z</time>
      </trkpt>
      <trkpt lat="46.11609" lon="4.42706">
        <ele>823.2</ele>
        <time>2025-09-28T13:26:05Z</time>
      </trkpt>
      <trkpt lat="46.11618" lon="4.42708">
        <ele>822.8</ele>
        <time>2025-09-28T13:26:06Z</time>
      </trkpt>
      <trkpt lat="46.11627" lon="4.4271">
        <ele>822.6</ele>
        <time>2025-09-28T13:26:07Z</time>
      </trkpt>
      <trkpt lat="46.11635" lon="4.42712">
        <ele>822.2</ele>
        <time>2025-09-28T13:26:08Z</time>
      </trkpt>
      <trkpt lat="46.11644" lon="4.42713">
        <ele>822.2</ele>
        <time>2025-09-28T13:26:09Z</time>
      </trkpt>
      <trkpt lat="46.11652" lon="4.42714">
        <ele>821.8</ele>
        <time>2025-09-28T13:26:10Z</time>
      </trkpt>
      <trkpt lat="46.11661" lon="4.42714">
        <ele>821.6</ele>
        <time>2025-09-28T13:26:11Z</time>
      </trkpt>
      <trkpt lat="46.1167" lon="4.42712">
        <ele>821.4</ele>
        <time>2025-09-28T13:26:12Z</time>
      </trkpt>
      <trkpt lat="46.1168" lon="4.42714">
        <ele>821</ele>
        <time>2025-09-28T13:26:13Z</time>
      </trkpt>
      <trkpt lat="46.11688" lon="4.42715">
        <ele>820.6</ele>
        <time>2025-09-28T13:26:14Z</time>
      </trkpt>
      <trkpt lat="46.11697" lon="4.42716">
        <ele>820.6</ele>
        <time>2025-09-28T13:26:15Z</time>
      </trkpt>
      <trkpt lat="46.11706" lon="4.42718">
        <ele>820</ele>
        <time>2025-09-28T13:26:16Z</time>
      </trkpt>
      <trkpt lat="46.11715" lon="4.42718">
        <ele>820</ele>
        <time>2025-09-28T13:26:17Z</time>
      </trkpt>
      <trkpt lat="46.11724" lon="4.42719">
        <ele>819.6</ele>
        <time>2025-09-28T13:26:18Z</time>
      </trkpt>
      <trkpt lat="46.11733" lon="4.42721">
        <ele>819.4</ele>
        <time>2025-09-28T13:26:19Z</time>
      </trkpt>
      <trkpt lat="46.11742" lon="4.42721">
        <ele>819.4</ele>
        <time>2025-09-28T13:26:20Z</time>
      </trkpt>
      <trkpt lat="46.1175" lon="4.42721">
        <ele>819.2</ele>
        <time>2025-09-28T13:26:21Z</time>
      </trkpt>
      <trkpt lat="46.11758" lon="4.42721">
        <ele>818.6</ele>
        <time>2025-09-28T13:26:22Z</time>
      </trkpt>
      <trkpt lat="46.11767" lon="4.42719">
        <ele>818.2</ele>
        <time>2025-09-28T13:26:23Z</time>
      </trkpt>
      <trkpt lat="46.11775" lon="4.42717">
        <ele>818.2</ele>
        <time>2025-09-28T13:26:24Z</time>
      </trkpt>
      <trkpt lat="46.11783" lon="4.42714">
        <ele>817.8</ele>
        <time>2025-09-28T13:26:25Z</time>
      </trkpt>
      <trkpt lat="46.11791" lon="4.4271">
        <ele>817.4</ele>
        <time>2025-09-28T13:26:26Z</time>
      </trkpt>
      <trkpt lat="46.11799" lon="4.42707">
        <ele>817</ele>
        <time>2025-09-28T13:26:27Z</time>
      </trkpt>
      <trkpt lat="46.11807" lon="4.42702">
        <ele>816.6</ele>
        <time>2025-09-28T13:26:28Z</time>
      </trkpt>
      <trkpt lat="46.11815" lon="4.42698">
        <ele>816</ele>
        <time>2025-09-28T13:26:29Z</time>
      </trkpt>
      <trkpt lat="46.11823" lon="4.42693">
        <ele>815.8</ele>
        <time>2025-09-28T13:26:30Z</time>
      </trkpt>
      <trkpt lat="46.11831" lon="4.42689">
        <ele>815.4</ele>
        <time>2025-09-28T13:26:31Z</time>
      </trkpt>
      <trkpt lat="46.1184" lon="4.42684">
        <ele>815.4</ele>
        <time>2025-09-28T13:26:32Z</time>
      </trkpt>
      <trkpt lat="46.11848" lon="4.42679">
        <ele>815.2</ele>
        <time>2025-09-28T13:26:33Z</time>
      </trkpt>
      <trkpt lat="46.11856" lon="4.42673">
        <ele>814.8</ele>
        <time>2025-09-28T13:26:34Z</time>
      </trkpt>
      <trkpt lat="46.11864" lon="4.42668">
        <ele>814.6</ele>
        <time>2025-09-28T13:26:35Z</time>
      </trkpt>
      <trkpt lat="46.11872" lon="4.42663">
        <ele>814.4</ele>
        <time>2025-09-28T13:26:36Z</time>
      </trkpt>
      <trkpt lat="46.11879" lon="4.42658">
        <ele>814</ele>
        <time>2025-09-28T13:26:37Z</time>
      </trkpt>
      <trkpt lat="46.11887" lon="4.42653">
        <ele>813.6</ele>
        <time>2025-09-28T13:26:38Z</time>
      </trkpt>
      <trkpt lat="46.11894" lon="4.42648">
        <ele>813.4</ele>
        <time>2025-09-28T13:26:39Z</time>
      </trkpt>
      <trkpt lat="46.11902" lon="4.42643">
        <ele>813.2</ele>
        <time>2025-09-28T13:26:40Z</time>
      </trkpt>
      <trkpt lat="46.11911" lon="4.42641">
        <ele>813.2</ele>
        <time>2025-09-28T13:26:41Z</time>
      </trkpt>
      <trkpt lat="46.11918" lon="4.42636">
        <ele>812.2</ele>
        <time>2025-09-28T13:26:42Z</time>
      </trkpt>
      <trkpt lat="46.11926" lon="4.42631">
        <ele>812.2</ele>
        <time>2025-09-28T13:26:43Z</time>
      </trkpt>
      <trkpt lat="46.11934" lon="4.42627">
        <ele>812</ele>
        <time>2025-09-28T13:26:44Z</time>
      </trkpt>
      <trkpt lat="46.11941" lon="4.42622">
        <ele>811.6</ele>
        <time>2025-09-28T13:26:45Z</time>
      </trkpt>
      <trkpt lat="46.11949" lon="4.42617">
        <ele>811.4</ele>
        <time>2025-09-28T13:26:46Z</time>
      </trkpt>
      <trkpt lat="46.11956" lon="4.42611">
        <ele>811.4</ele>
        <time>2025-09-28T13:26:47Z</time>
      </trkpt>
      <trkpt lat="46.11964" lon="4.42605">
        <ele>811</ele>
        <time>2025-09-28T13:26:48Z</time>
      </trkpt>
      <trkpt lat="46.11971" lon="4.42599">
        <ele>810.6</ele>
        <time>2025-09-28T13:26:49Z</time>
      </trkpt>
      <trkpt lat="46.11978" lon="4.42594">
        <ele>810.4</ele>
        <time>2025-09-28T13:26:50Z</time>
      </trkpt>
      <trkpt lat="46.11985" lon="4.42587">
        <ele>810.4</ele>
        <time>2025-09-28T13:26:51Z</time>
      </trkpt>
      <trkpt lat="46.11993" lon="4.42582">
        <ele>810</ele>
        <time>2025-09-28T13:26:52Z</time>
      </trkpt>
      <trkpt lat="46.12" lon="4.42574">
        <ele>809.8</ele>
        <time>2025-09-28T13:26:53Z</time>
      </trkpt>
      <trkpt lat="46.12007" lon="4.42569">
        <ele>809.8</ele>
        <time>2025-09-28T13:26:54Z</time>
      </trkpt>
      <trkpt lat="46.12014" lon="4.42562">
        <ele>809.4</ele>
        <time>2025-09-28T13:26:55Z</time>
      </trkpt>
      <trkpt lat="46.12021" lon="4.42555">
        <ele>809.4</ele>
        <time>2025-09-28T13:26:56Z</time>
      </trkpt>
      <trkpt lat="46.12028" lon="4.42549">
        <ele>809</ele>
        <time>2025-09-28T13:26:57Z</time>
      </trkpt>
      <trkpt lat="46.12035" lon="4.42544">
        <ele>809</ele>
        <time>2025-09-28T13:26:58Z</time>
      </trkpt>
      <trkpt lat="46.12041" lon="4.42537">
        <ele>809</ele>
        <time>2025-09-28T13:26:59Z</time>
      </trkpt>
      <trkpt lat="46.12048" lon="4.4253">
        <ele>809</ele>
        <time>2025-09-28T13:27:00Z</time>
      </trkpt>
      <trkpt lat="46.12055" lon="4.42524">
        <ele>808.6</ele>
        <time>2025-09-28T13:27:01Z</time>
      </trkpt>
      <trkpt lat="46.12061" lon="4.42516">
        <ele>808.4</ele>
        <time>2025-09-28T13:27:02Z</time>
      </trkpt>
      <trkpt lat="46.12067" lon="4.42507">
        <ele>808.2</ele>
        <time>2025-09-28T13:27:03Z</time>
      </trkpt>
      <trkpt lat="46.12072" lon="4.42497">
        <ele>808.2</ele>
        <time>2025-09-28T13:27:04Z</time>
      </trkpt>
      <trkpt lat="46.12077" lon="4.42487">
        <ele>807.8</ele>
        <time>2025-09-28T13:27:05Z</time>
      </trkpt>
      <trkpt lat="46.12082" lon="4.42477">
        <ele>807.6</ele>
        <time>2025-09-28T13:27:06Z</time>
      </trkpt>
      <trkpt lat="46.12086" lon="4.42466">
        <ele>807.6</ele>
        <time>2025-09-28T13:27:07Z</time>
      </trkpt>
      <trkpt lat="46.1209" lon="4.42455">
        <ele>807</ele>
        <time>2025-09-28T13:27:08Z</time>
      </trkpt>
      <trkpt lat="46.12094" lon="4.42444">
        <ele>807</ele>
        <time>2025-09-28T13:27:09Z</time>
      </trkpt>
      <trkpt lat="46.12098" lon="4.42433">
        <ele>806.8</ele>
        <time>2025-09-28T13:27:10Z</time>
      </trkpt>
      <trkpt lat="46.12101" lon="4.42422">
        <ele>806.6</ele>
        <time>2025-09-28T13:27:11Z</time>
      </trkpt>
      <trkpt lat="46.12104" lon="4.4241">
        <ele>806</ele>
        <time>2025-09-28T13:27:12Z</time>
      </trkpt>
      <trkpt lat="46.12105" lon="4.42398">
        <ele>805.8</ele>
        <time>2025-09-28T13:27:13Z</time>
      </trkpt>
      <trkpt lat="46.12106" lon="4.42387">
        <ele>805.4</ele>
        <time>2025-09-28T13:27:14Z</time>
      </trkpt>
      <trkpt lat="46.12105" lon="4.42375">
        <ele>805.2</ele>
        <time>2025-09-28T13:27:15Z</time>
      </trkpt>
      <trkpt lat="46.12102" lon="4.42363">
        <ele>805.2</ele>
        <time>2025-09-28T13:27:16Z</time>
      </trkpt>
      <trkpt lat="46.12099" lon="4.42353">
        <ele>804.6</ele>
        <time>2025-09-28T13:27:17Z</time>
      </trkpt>
      <trkpt lat="46.12094" lon="4.42343">
        <ele>804.6</ele>
        <time>2025-09-28T13:27:18Z</time>
      </trkpt>
      <trkpt lat="46.1209" lon="4.42332">
        <ele>804.2</ele>
        <time>2025-09-28T13:27:19Z</time>
      </trkpt>
      <trkpt lat="46.12085" lon="4.42321">
        <ele>804</ele>
        <time>2025-09-28T13:27:20Z</time>
      </trkpt>
      <trkpt lat="46.12081" lon="4.4231">
        <ele>803.6</ele>
        <time>2025-09-28T13:27:21Z</time>
      </trkpt>
      <trkpt lat="46.12078" lon="4.42298">
        <ele>803</ele>
        <time>2025-09-28T13:27:22Z</time>
      </trkpt>
      <trkpt lat="46.12075" lon="4.42286">
        <ele>802.4</ele>
        <time>2025-09-28T13:27:23Z</time>
      </trkpt>
      <trkpt lat="46.12073" lon="4.42274">
        <ele>802.4</ele>
        <time>2025-09-28T13:27:24Z</time>
      </trkpt>
      <trkpt lat="46.1207" lon="4.4226">
        <ele>802</ele>
        <time>2025-09-28T13:27:25Z</time>
      </trkpt>
      <trkpt lat="46.12068" lon="4.42247">
        <ele>801.6</ele>
        <time>2025-09-28T13:27:26Z</time>
      </trkpt>
      <trkpt lat="46.12065" lon="4.42234">
        <ele>801.6</ele>
        <time>2025-09-28T13:27:27Z</time>
      </trkpt>
      <trkpt lat="46.12064" lon="4.42221">
        <ele>801</ele>
        <time>2025-09-28T13:27:28Z</time>
      </trkpt>
      <trkpt lat="46.12062" lon="4.42209">
        <ele>801</ele>
        <time>2025-09-28T13:27:29Z</time>
      </trkpt>
      <trkpt lat="46.12061" lon="4.42196">
        <ele>800.6</ele>
        <time>2025-09-28T13:27:30Z</time>
      </trkpt>
      <trkpt lat="46.12061" lon="4.42183">
        <ele>800.2</ele>
        <time>2025-09-28T13:27:31Z</time>
      </trkpt>
      <trkpt lat="46.12061" lon="4.4217">
        <ele>799.8</ele>
        <time>2025-09-28T13:27:32Z</time>
      </trkpt>
      <trkpt lat="46.12061" lon="4.42157">
        <ele>799.6</ele>
        <time>2025-09-28T13:27:33Z</time>
      </trkpt>
      <trkpt lat="46.12062" lon="4.42144">
        <ele>799.2</ele>
        <time>2025-09-28T13:27:34Z</time>
      </trkpt>
      <trkpt lat="46.12064" lon="4.42131">
        <ele>799.2</ele>
        <time>2025-09-28T13:27:35Z</time>
      </trkpt>
      <trkpt lat="46.12065" lon="4.42119">
        <ele>798.6</ele>
        <time>2025-09-28T13:27:36Z</time>
      </trkpt>
      <trkpt lat="46.12069" lon="4.42106">
        <ele>798.2</ele>
        <time>2025-09-28T13:27:37Z</time>
      </trkpt>
      <trkpt lat="46.12073" lon="4.42094">
        <ele>798.2</ele>
        <time>2025-09-28T13:27:38Z</time>
      </trkpt>
      <trkpt lat="46.12076" lon="4.42083">
        <ele>797.4</ele>
        <time>2025-09-28T13:27:39Z</time>
      </trkpt>
      <trkpt lat="46.12079" lon="4.4207">
        <ele>797.4</ele>
        <time>2025-09-28T13:27:40Z</time>
      </trkpt>
      <trkpt lat="46.12084" lon="4.42059">
        <ele>797.4</ele>
        <time>2025-09-28T13:27:41Z</time>
      </trkpt>
      <trkpt lat="46.12089" lon="4.42048">
        <ele>797</ele>
        <time>2025-09-28T13:27:42Z</time>
      </trkpt>
      <trkpt lat="46.12095" lon="4.42039">
        <ele>796.6</ele>
        <time>2025-09-28T13:27:43Z</time>
      </trkpt>
      <trkpt lat="46.12103" lon="4.42031">
        <ele>796.4</ele>
        <time>2025-09-28T13:27:44Z</time>
      </trkpt>
      <trkpt lat="46.12111" lon="4.42025">
        <ele>796</ele>
        <time>2025-09-28T13:27:45Z</time>
      </trkpt>
      <trkpt lat="46.12119" lon="4.42021">
        <ele>795.8</ele>
        <time>2025-09-28T13:27:46Z</time>
      </trkpt>
      <trkpt lat="46.12127" lon="4.42018">
        <ele>795.8</ele>
        <time>2025-09-28T13:27:47Z</time>
      </trkpt>
      <trkpt lat="46.12136" lon="4.42018">
        <ele>795.2</ele>
        <time>2025-09-28T13:27:48Z</time>
      </trkpt>
      <trkpt lat="46.12145" lon="4.42019">
        <ele>795</ele>
        <time>2025-09-28T13:27:49Z</time>
      </trkpt>
      <trkpt lat="46.12153" lon="4.4202">
        <ele>794.8</ele>
        <time>2025-09-28T13:27:50Z</time>
      </trkpt>
      <trkpt lat="46.12162" lon="4.42023">
        <ele>794.8</ele>
        <time>2025-09-28T13:27:51Z</time>
      </trkpt>
      <trkpt lat="46.12169" lon="4.42029">
        <ele>794.2</ele>
        <time>2025-09-28T13:27:52Z</time>
      </trkpt>
      <trkpt lat="46.12169" lon="4.42029">
        <ele>793.8</ele>
        <time>2025-09-28T13:27:53Z</time>
      </trkpt>
      <trkpt lat="46.12169" lon="4.42029">
        <ele>793.6</ele>
        <time>2025-09-28T13:27:54Z</time>
      </trkpt>
      <trkpt lat="46.12204" lon="4.42045">
        <ele>793</ele>
        <time>2025-09-28T13:27:56Z</time>
      </trkpt>
      <trkpt lat="46.12212" lon="4.42054">
        <ele>793</ele>
        <time>2025-09-28T13:27:57Z</time>
      </trkpt>
      <trkpt lat="46.12219" lon="4.42062">
        <ele>792.6</ele>
        <time>2025-09-28T13:27:58Z</time>
      </trkpt>
      <trkpt lat="46.12228" lon="4.42067">
        <ele>791.8</ele>
        <time>2025-09-28T13:27:59Z</time>
      </trkpt>
      <trkpt lat="46.12235" lon="4.42074">
        <ele>791.2</ele>
        <time>2025-09-28T13:28:00Z</time>
      </trkpt>
      <trkpt lat="46.12242" lon="4.42082">
        <ele>791.2</ele>
        <time>2025-09-28T13:28:01Z</time>
      </trkpt>
      <trkpt lat="46.12249" lon="4.4209">
        <ele>791.2</ele>
        <time>2025-09-28T13:28:02Z</time>
      </trkpt>
      <trkpt lat="46.12256" lon="4.42098">
        <ele>791.2</ele>
        <time>2025-09-28T13:28:03Z</time>
      </trkpt>
      <trkpt lat="46.12261" lon="4.42102">
        <ele>790.6</ele>
        <time>2025-09-28T13:28:04Z</time>
      </trkpt>
      <trkpt lat="46.12268" lon="4.42112">
        <ele>790.6</ele>
        <time>2025-09-28T13:28:05Z</time>
      </trkpt>
      <trkpt lat="46.12274" lon="4.42118">
        <ele>790.6</ele>
        <time>2025-09-28T13:28:06Z</time>
      </trkpt>
      <trkpt lat="46.12282" lon="4.42124">
        <ele>790.2</ele>
        <time>2025-09-28T13:28:07Z</time>
      </trkpt>
      <trkpt lat="46.1229" lon="4.42128">
        <ele>790</ele>
        <time>2025-09-28T13:28:08Z</time>
      </trkpt>
      <trkpt lat="46.12298" lon="4.4213">
        <ele>789.6</ele>
        <time>2025-09-28T13:28:09Z</time>
      </trkpt>
      <trkpt lat="46.12306" lon="4.42129">
        <ele>789.6</ele>
        <time>2025-09-28T13:28:10Z</time>
      </trkpt>
      <trkpt lat="46.12315" lon="4.42126">
        <ele>789</ele>
        <time>2025-09-28T13:28:11Z</time>
      </trkpt>
      <trkpt lat="46.12322" lon="4.42121">
        <ele>789</ele>
        <time>2025-09-28T13:28:12Z</time>
      </trkpt>
      <trkpt lat="46.12329" lon="4.42114">
        <ele>788.6</ele>
        <time>2025-09-28T13:28:13Z</time>
      </trkpt>
      <trkpt lat="46.12335" lon="4.42107">
        <ele>788.4</ele>
        <time>2025-09-28T13:28:14Z</time>
      </trkpt>
      <trkpt lat="46.12342" lon="4.42098">
        <ele>788.4</ele>
        <time>2025-09-28T13:28:15Z</time>
      </trkpt>
      <trkpt lat="46.12347" lon="4.42089">
        <ele>788</ele>
        <time>2025-09-28T13:28:16Z</time>
      </trkpt>
      <trkpt lat="46.12352" lon="4.42079">
        <ele>787.6</ele>
        <time>2025-09-28T13:28:17Z</time>
      </trkpt>
      <trkpt lat="46.12357" lon="4.42069">
        <ele>787.6</ele>
        <time>2025-09-28T13:28:18Z</time>
      </trkpt>
      <trkpt lat="46.12362" lon="4.42059">
        <ele>787.4</ele>
        <time>2025-09-28T13:28:19Z</time>
      </trkpt>
      <trkpt lat="46.12367" lon="4.42049">
        <ele>787.2</ele>
        <time>2025-09-28T13:28:20Z</time>
      </trkpt>
      <trkpt lat="46.12372" lon="4.4204">
        <ele>787.2</ele>
        <time>2025-09-28T13:28:21Z</time>
      </trkpt>
      <trkpt lat="46.12377" lon="4.4203">
        <ele>786.6</ele>
        <time>2025-09-28T13:28:22Z</time>
      </trkpt>
      <trkpt lat="46.12382" lon="4.42021">
        <ele>786.2</ele>
        <time>2025-09-28T13:28:23Z</time>
      </trkpt>
      <trkpt lat="46.12387" lon="4.42011">
        <ele>785.8</ele>
        <time>2025-09-28T13:28:24Z</time>
      </trkpt>
      <trkpt lat="46.12392" lon="4.42001">
        <ele>785.4</ele>
        <time>2025-09-28T13:28:25Z</time>
      </trkpt>
      <trkpt lat="46.12397" lon="4.4199">
        <ele>785.4</ele>
        <time>2025-09-28T13:28:26Z</time>
      </trkpt>
      <trkpt lat="46.12401" lon="4.4198">
        <ele>785</ele>
        <time>2025-09-28T13:28:27Z</time>
      </trkpt>
      <trkpt lat="46.12406" lon="4.4197">
        <ele>785</ele>
        <time>2025-09-28T13:28:28Z</time>
      </trkpt>
      <trkpt lat="46.12411" lon="4.4196">
        <ele>784.6</ele>
        <time>2025-09-28T13:28:29Z</time>
      </trkpt>
      <trkpt lat="46.12416" lon="4.4195">
        <ele>784.2</ele>
        <time>2025-09-28T13:28:30Z</time>
      </trkpt>
      <trkpt lat="46.12421" lon="4.4194">
        <ele>783.8</ele>
        <time>2025-09-28T13:28:31Z</time>
      </trkpt>
      <trkpt lat="46.12426" lon="4.4193">
        <ele>783.6</ele>
        <time>2025-09-28T13:28:32Z</time>
      </trkpt>
      <trkpt lat="46.1243" lon="4.4192">
        <ele>783.4</ele>
        <time>2025-09-28T13:28:33Z</time>
      </trkpt>
      <trkpt lat="46.12435" lon="4.41911">
        <ele>782.8</ele>
        <time>2025-09-28T13:28:34Z</time>
      </trkpt>
      <trkpt lat="46.1244" lon="4.41901">
        <ele>782.8</ele>
        <time>2025-09-28T13:28:35Z</time>
      </trkpt>
      <trkpt lat="46.12445" lon="4.41891">
        <ele>782.6</ele>
        <time>2025-09-28T13:28:36Z</time>
      </trkpt>
      <trkpt lat="46.12449" lon="4.41881">
        <ele>782.6</ele>
        <time>2025-09-28T13:28:37Z</time>
      </trkpt>
      <trkpt lat="46.12454" lon="4.41872">
        <ele>782.2</ele>
        <time>2025-09-28T13:28:38Z</time>
      </trkpt>
      <trkpt lat="46.12459" lon="4.41863">
        <ele>782</ele>
        <time>2025-09-28T13:28:39Z</time>
      </trkpt>
      <trkpt lat="46.12466" lon="4.41854">
        <ele>781.6</ele>
        <time>2025-09-28T13:28:40Z</time>
      </trkpt>
      <trkpt lat="46.12472" lon="4.41846">
        <ele>781.4</ele>
        <time>2025-09-28T13:28:41Z</time>
      </trkpt>
      <trkpt lat="46.12478" lon="4.41839">
        <ele>781</ele>
        <time>2025-09-28T13:28:42Z</time>
      </trkpt>
      <trkpt lat="46.12485" lon="4.41833">
        <ele>781</ele>
        <time>2025-09-28T13:28:43Z</time>
      </trkpt>
      <trkpt lat="46.12492" lon="4.41826">
        <ele>780.6</ele>
        <time>2025-09-28T13:28:44Z</time>
      </trkpt>
      <trkpt lat="46.12492" lon="4.41826">
        <ele>780.6</ele>
        <time>2025-09-28T13:28:45Z</time>
      </trkpt>
      <trkpt lat="46.12506" lon="4.41813">
        <ele>780.2</ele>
        <time>2025-09-28T13:28:46Z</time>
      </trkpt>
      <trkpt lat="46.12513" lon="4.41807">
        <ele>780</ele>
        <time>2025-09-28T13:28:47Z</time>
      </trkpt>
      <trkpt lat="46.12521" lon="4.418">
        <ele>779.6</ele>
        <time>2025-09-28T13:28:48Z</time>
      </trkpt>
      <trkpt lat="46.12529" lon="4.41792">
        <ele>778.8</ele>
        <time>2025-09-28T13:28:49Z</time>
      </trkpt>
      <trkpt lat="46.12535" lon="4.41786">
        <ele>778.8</ele>
        <time>2025-09-28T13:28:50Z</time>
      </trkpt>
      <trkpt lat="46.12542" lon="4.41779">
        <ele>778.8</ele>
        <time>2025-09-28T13:28:51Z</time>
      </trkpt>
      <trkpt lat="46.12548" lon="4.41772">
        <ele>778.4</ele>
        <time>2025-09-28T13:28:52Z</time>
      </trkpt>
      <trkpt lat="46.12555" lon="4.41764">
        <ele>778</ele>
        <time>2025-09-28T13:28:53Z</time>
      </trkpt>
      <trkpt lat="46.12562" lon="4.41757">
        <ele>777.8</ele>
        <time>2025-09-28T13:28:54Z</time>
      </trkpt>
      <trkpt lat="46.12568" lon="4.41749">
        <ele>777.8</ele>
        <time>2025-09-28T13:28:55Z</time>
      </trkpt>
      <trkpt lat="46.12575" lon="4.41742">
        <ele>777.6</ele>
        <time>2025-09-28T13:28:56Z</time>
      </trkpt>
      <trkpt lat="46.1258" lon="4.41734">
        <ele>777.2</ele>
        <time>2025-09-28T13:28:57Z</time>
      </trkpt>
      <trkpt lat="46.12586" lon="4.41726">
        <ele>777.2</ele>
        <time>2025-09-28T13:28:58Z</time>
      </trkpt>
      <trkpt lat="46.12592" lon="4.41717">
        <ele>776.8</ele>
        <time>2025-09-28T13:28:59Z</time>
      </trkpt>
      <trkpt lat="46.12598" lon="4.4171">
        <ele>776.2</ele>
        <time>2025-09-28T13:29:00Z</time>
      </trkpt>
      <trkpt lat="46.12604" lon="4.41702">
        <ele>776.2</ele>
        <time>2025-09-28T13:29:01Z</time>
      </trkpt>
      <trkpt lat="46.12611" lon="4.41694">
        <ele>775.4</ele>
        <time>2025-09-28T13:29:02Z</time>
      </trkpt>
      <trkpt lat="46.12617" lon="4.41687">
        <ele>775.4</ele>
        <time>2025-09-28T13:29:03Z</time>
      </trkpt>
      <trkpt lat="46.12624" lon="4.41678">
        <ele>775.4</ele>
        <time>2025-09-28T13:29:04Z</time>
      </trkpt>
      <trkpt lat="46.1263" lon="4.4167">
        <ele>774.8</ele>
        <time>2025-09-28T13:29:05Z</time>
      </trkpt>
      <trkpt lat="46.12635" lon="4.41662">
        <ele>774.4</ele>
        <time>2025-09-28T13:29:06Z</time>
      </trkpt>
      <trkpt lat="46.1264" lon="4.41652">
        <ele>774.4</ele>
        <time>2025-09-28T13:29:07Z</time>
      </trkpt>
      <trkpt lat="46.12645" lon="4.41642">
        <ele>774.4</ele>
        <time>2025-09-28T13:29:08Z</time>
      </trkpt>
      <trkpt lat="46.12646" lon="4.41631">
        <ele>774.4</ele>
        <time>2025-09-28T13:29:09Z</time>
      </trkpt>
      <trkpt lat="46.12648" lon="4.4162">
        <ele>774.4</ele>
        <time>2025-09-28T13:29:10Z</time>
      </trkpt>
      <trkpt lat="46.12647" lon="4.41609">
        <ele>774</ele>
        <time>2025-09-28T13:29:11Z</time>
      </trkpt>
      <trkpt lat="46.12646" lon="4.41599">
        <ele>774</ele>
        <time>2025-09-28T13:29:12Z</time>
      </trkpt>
      <trkpt lat="46.12644" lon="4.41589">
        <ele>774</ele>
        <time>2025-09-28T13:29:13Z</time>
      </trkpt>
      <trkpt lat="46.1264" lon="4.4158">
        <ele>774</ele>
        <time>2025-09-28T13:29:14Z</time>
      </trkpt>
      <trkpt lat="46.12636" lon="4.41571">
        <ele>774</ele>
        <time>2025-09-28T13:29:15Z</time>
      </trkpt>
      <trkpt lat="46.12632" lon="4.41563">
        <ele>774</ele>
        <time>2025-09-28T13:29:16Z</time>
      </trkpt>
      <trkpt lat="46.12627" lon="4.41556">
        <ele>774</ele>
        <time>2025-09-28T13:29:17Z</time>
      </trkpt>
      <trkpt lat="46.12621" lon="4.4155">
        <ele>774</ele>
        <time>2025-09-28T13:29:18Z</time>
      </trkpt>
      <trkpt lat="46.12615" lon="4.41544">
        <ele>774</ele>
        <time>2025-09-28T13:29:19Z</time>
      </trkpt>
      <trkpt lat="46.12609" lon="4.41539">
        <ele>774</ele>
        <time>2025-09-28T13:29:20Z</time>
      </trkpt>
      <trkpt lat="46.12602" lon="4.41535">
        <ele>774</ele>
        <time>2025-09-28T13:29:21Z</time>
      </trkpt>
      <trkpt lat="46.12596" lon="4.41531">
        <ele>773.8</ele>
        <time>2025-09-28T13:29:22Z</time>
      </trkpt>
      <trkpt lat="46.12589" lon="4.41527">
        <ele>773.8</ele>
        <time>2025-09-28T13:29:23Z</time>
      </trkpt>
      <trkpt lat="46.12583" lon="4.41523">
        <ele>773.8</ele>
        <time>2025-09-28T13:29:24Z</time>
      </trkpt>
      <trkpt lat="46.12576" lon="4.41519">
        <ele>773.8</ele>
        <time>2025-09-28T13:29:25Z</time>
      </trkpt>
      <trkpt lat="46.1257" lon="4.41516">
        <ele>773.8</ele>
        <time>2025-09-28T13:29:26Z</time>
      </trkpt>
      <trkpt lat="46.12564" lon="4.41511">
        <ele>773.8</ele>
        <time>2025-09-28T13:29:27Z</time>
      </trkpt>
      <trkpt lat="46.12557" lon="4.41507">
        <ele>773.8</ele>
        <time>2025-09-28T13:29:28Z</time>
      </trkpt>
      <trkpt lat="46.1255" lon="4.41503">
        <ele>773.8</ele>
        <time>2025-09-28T13:29:29Z</time>
      </trkpt>
      <trkpt lat="46.12544" lon="4.41499">
        <ele>773.8</ele>
        <time>2025-09-28T13:29:30Z</time>
      </trkpt>
      <trkpt lat="46.12537" lon="4.41495">
        <ele>773.8</ele>
        <time>2025-09-28T13:29:31Z</time>
      </trkpt>
      <trkpt lat="46.1253" lon="4.41491">
        <ele>773.6</ele>
        <time>2025-09-28T13:29:32Z</time>
      </trkpt>
      <trkpt lat="46.12524" lon="4.41486">
        <ele>773.6</ele>
        <time>2025-09-28T13:29:33Z</time>
      </trkpt>
      <trkpt lat="46.12517" lon="4.41482">
        <ele>773.4</ele>
        <time>2025-09-28T13:29:34Z</time>
      </trkpt>
      <trkpt lat="46.12511" lon="4.41479">
        <ele>773</ele>
        <time>2025-09-28T13:29:35Z</time>
      </trkpt>
      <trkpt lat="46.12504" lon="4.41474">
        <ele>773</ele>
        <time>2025-09-28T13:29:36Z</time>
      </trkpt>
      <trkpt lat="46.12497" lon="4.41469">
        <ele>773</ele>
        <time>2025-09-28T13:29:37Z</time>
      </trkpt>
      <trkpt lat="46.12491" lon="4.41464">
        <ele>773</ele>
        <time>2025-09-28T13:29:38Z</time>
      </trkpt>
      <trkpt lat="46.12485" lon="4.41458">
        <ele>773</ele>
        <time>2025-09-28T13:29:39Z</time>
      </trkpt>
      <trkpt lat="46.1248" lon="4.41453">
        <ele>773</ele>
        <time>2025-09-28T13:29:40Z</time>
      </trkpt>
      <trkpt lat="46.12474" lon="4.41447">
        <ele>772.6</ele>
        <time>2025-09-28T13:29:41Z</time>
      </trkpt>
      <trkpt lat="46.12468" lon="4.41441">
        <ele>772.6</ele>
        <time>2025-09-28T13:29:42Z</time>
      </trkpt>
      <trkpt lat="46.12463" lon="4.41435">
        <ele>772.8</ele>
        <time>2025-09-28T13:29:43Z</time>
      </trkpt>
      <trkpt lat="46.12458" lon="4.41428">
        <ele>772.6</ele>
        <time>2025-09-28T13:29:44Z</time>
      </trkpt>
      <trkpt lat="46.12454" lon="4.4142">
        <ele>772.6</ele>
        <time>2025-09-28T13:29:45Z</time>
      </trkpt>
      <trkpt lat="46.1245" lon="4.41413">
        <ele>772.6</ele>
        <time>2025-09-28T13:29:46Z</time>
      </trkpt>
      <trkpt lat="46.12447" lon="4.41405">
        <ele>772.6</ele>
        <time>2025-09-28T13:29:47Z</time>
      </trkpt>
      <trkpt lat="46.12444" lon="4.41396">
        <ele>773</ele>
        <time>2025-09-28T13:29:48Z</time>
      </trkpt>
      <trkpt lat="46.12442" lon="4.41389">
        <ele>773</ele>
        <time>2025-09-28T13:29:49Z</time>
      </trkpt>
      <trkpt lat="46.1244" lon="4.41379">
        <ele>773</ele>
        <time>2025-09-28T13:29:50Z</time>
      </trkpt>
      <trkpt lat="46.12439" lon="4.41371">
        <ele>773</ele>
        <time>2025-09-28T13:29:51Z</time>
      </trkpt>
      <trkpt lat="46.12437" lon="4.41362">
        <ele>773</ele>
        <time>2025-09-28T13:29:52Z</time>
      </trkpt>
      <trkpt lat="46.12436" lon="4.41353">
        <ele>773</ele>
        <time>2025-09-28T13:29:53Z</time>
      </trkpt>
      <trkpt lat="46.12434" lon="4.41343">
        <ele>772.6</ele>
        <time>2025-09-28T13:29:54Z</time>
      </trkpt>
      <trkpt lat="46.12433" lon="4.41334">
        <ele>772.6</ele>
        <time>2025-09-28T13:29:55Z</time>
      </trkpt>
      <trkpt lat="46.12431" lon="4.41325">
        <ele>772.2</ele>
        <time>2025-09-28T13:29:56Z</time>
      </trkpt>
      <trkpt lat="46.1243" lon="4.41315">
        <ele>772.2</ele>
        <time>2025-09-28T13:29:57Z</time>
      </trkpt>
      <trkpt lat="46.12429" lon="4.41306">
        <ele>771.8</ele>
        <time>2025-09-28T13:29:58Z</time>
      </trkpt>
      <trkpt lat="46.12427" lon="4.41296">
        <ele>771.6</ele>
        <time>2025-09-28T13:29:59Z</time>
      </trkpt>
      <trkpt lat="46.12425" lon="4.41286">
        <ele>771.6</ele>
        <time>2025-09-28T13:30:00Z</time>
      </trkpt>
      <trkpt lat="46.12423" lon="4.41277">
        <ele>771.4</ele>
        <time>2025-09-28T13:30:01Z</time>
      </trkpt>
      <trkpt lat="46.12421" lon="4.41268">
        <ele>771.2</ele>
        <time>2025-09-28T13:30:02Z</time>
      </trkpt>
      <trkpt lat="46.12419" lon="4.41258">
        <ele>771.2</ele>
        <time>2025-09-28T13:30:03Z</time>
      </trkpt>
      <trkpt lat="46.12416" lon="4.41249">
        <ele>770.8</ele>
        <time>2025-09-28T13:30:04Z</time>
      </trkpt>
      <trkpt lat="46.12414" lon="4.41239">
        <ele>770.8</ele>
        <time>2025-09-28T13:30:05Z</time>
      </trkpt>
      <trkpt lat="46.12412" lon="4.41229">
        <ele>770.2</ele>
        <time>2025-09-28T13:30:06Z</time>
      </trkpt>
      <trkpt lat="46.12408" lon="4.41219">
        <ele>770</ele>
        <time>2025-09-28T13:30:07Z</time>
      </trkpt>
      <trkpt lat="46.12405" lon="4.41208">
        <ele>769.4</ele>
        <time>2025-09-28T13:30:08Z</time>
      </trkpt>
      <trkpt lat="46.12402" lon="4.41197">
        <ele>769.4</ele>
        <time>2025-09-28T13:30:09Z</time>
      </trkpt>
      <trkpt lat="46.124" lon="4.41186">
        <ele>768.8</ele>
        <time>2025-09-28T13:30:10Z</time>
      </trkpt>
      <trkpt lat="46.12396" lon="4.41175">
        <ele>768.4</ele>
        <time>2025-09-28T13:30:11Z</time>
      </trkpt>
      <trkpt lat="46.12393" lon="4.41164">
        <ele>767.8</ele>
        <time>2025-09-28T13:30:12Z</time>
      </trkpt>
      <trkpt lat="46.1239" lon="4.41153">
        <ele>767</ele>
        <time>2025-09-28T13:30:13Z</time>
      </trkpt>
      <trkpt lat="46.12386" lon="4.41142">
        <ele>766.6</ele>
        <time>2025-09-28T13:30:14Z</time>
      </trkpt>
      <trkpt lat="46.12383" lon="4.4113">
        <ele>766.2</ele>
        <time>2025-09-28T13:30:15Z</time>
      </trkpt>
      <trkpt lat="46.12379" lon="4.41119">
        <ele>765.6</ele>
        <time>2025-09-28T13:30:16Z</time>
      </trkpt>
      <trkpt lat="46.12376" lon="4.41106">
        <ele>765.4</ele>
        <time>2025-09-28T13:30:17Z</time>
      </trkpt>
      <trkpt lat="46.12373" lon="4.41095">
        <ele>765</ele>
        <time>2025-09-28T13:30:18Z</time>
      </trkpt>
      <trkpt lat="46.1237" lon="4.41083">
        <ele>764.8</ele>
        <time>2025-09-28T13:30:19Z</time>
      </trkpt>
      <trkpt lat="46.12367" lon="4.41071">
        <ele>764.4</ele>
        <time>2025-09-28T13:30:20Z</time>
      </trkpt>
      <trkpt lat="46.12363" lon="4.4106">
        <ele>764.2</ele>
        <time>2025-09-28T13:30:21Z</time>
      </trkpt>
      <trkpt lat="46.12359" lon="4.41049">
        <ele>763.6</ele>
        <time>2025-09-28T13:30:22Z</time>
      </trkpt>
      <trkpt lat="46.12355" lon="4.41038">
        <ele>763.2</ele>
        <time>2025-09-28T13:30:23Z</time>
      </trkpt>
      <trkpt lat="46.12351" lon="4.41027">
        <ele>763.2</ele>
        <time>2025-09-28T13:30:24Z</time>
      </trkpt>
      <trkpt lat="46.12346" lon="4.41016">
        <ele>763</ele>
        <time>2025-09-28T13:30:25Z</time>
      </trkpt>
      <trkpt lat="46.12342" lon="4.41005">
        <ele>762.6</ele>
        <time>2025-09-28T13:30:26Z</time>
      </trkpt>
      <trkpt lat="46.12337" lon="4.40993">
        <ele>762.4</ele>
        <time>2025-09-28T13:30:27Z</time>
      </trkpt>
      <trkpt lat="46.12334" lon="4.40982">
        <ele>762</ele>
        <time>2025-09-28T13:30:28Z</time>
      </trkpt>
      <trkpt lat="46.1233" lon="4.40971">
        <ele>761.8</ele>
        <time>2025-09-28T13:30:29Z</time>
      </trkpt>
      <trkpt lat="46.12327" lon="4.40958">
        <ele>761.4</ele>
        <time>2025-09-28T13:30:30Z</time>
      </trkpt>
      <trkpt lat="46.12324" lon="4.40945">
        <ele>761.4</ele>
        <time>2025-09-28T13:30:31Z</time>
      </trkpt>
      <trkpt lat="46.12321" lon="4.40932">
        <ele>760.4</ele>
        <time>2025-09-28T13:30:32Z</time>
      </trkpt>
      <trkpt lat="46.12318" lon="4.40919">
        <ele>760.2</ele>
        <time>2025-09-28T13:30:33Z</time>
      </trkpt>
      <trkpt lat="46.12316" lon="4.40906">
        <ele>759.6</ele>
        <time>2025-09-28T13:30:34Z</time>
      </trkpt>
      <trkpt lat="46.12314" lon="4.40893">
        <ele>759.2</ele>
        <time>2025-09-28T13:30:35Z</time>
      </trkpt>
      <trkpt lat="46.1231" lon="4.4088">
        <ele>758.8</ele>
        <time>2025-09-28T13:30:36Z</time>
      </trkpt>
      <trkpt lat="46.12307" lon="4.40867">
        <ele>758.6</ele>
        <time>2025-09-28T13:30:37Z</time>
      </trkpt>
      <trkpt lat="46.12302" lon="4.40854">
        <ele>758.2</ele>
        <time>2025-09-28T13:30:38Z</time>
      </trkpt>
      <trkpt lat="46.12299" lon="4.40841">
        <ele>758.2</ele>
        <time>2025-09-28T13:30:39Z</time>
      </trkpt>
      <trkpt lat="46.12295" lon="4.40828">
        <ele>757.4</ele>
        <time>2025-09-28T13:30:40Z</time>
      </trkpt>
      <trkpt lat="46.12291" lon="4.40815">
        <ele>757</ele>
        <time>2025-09-28T13:30:41Z</time>
      </trkpt>
      <trkpt lat="46.12286" lon="4.40803">
        <ele>756.6</ele>
        <time>2025-09-28T13:30:42Z</time>
      </trkpt>
      <trkpt lat="46.12283" lon="4.40788">
        <ele>755.8</ele>
        <time>2025-09-28T13:30:43Z</time>
      </trkpt>
      <trkpt lat="46.12281" lon="4.40774">
        <ele>755.4</ele>
        <time>2025-09-28T13:30:44Z</time>
      </trkpt>
      <trkpt lat="46.12279" lon="4.4076">
        <ele>754.8</ele>
        <time>2025-09-28T13:30:45Z</time>
      </trkpt>
      <trkpt lat="46.12277" lon="4.40746">
        <ele>754.2</ele>
        <time>2025-09-28T13:30:46Z</time>
      </trkpt>
      <trkpt lat="46.12276" lon="4.40731">
        <ele>753.6</ele>
        <time>2025-09-28T13:30:47Z</time>
      </trkpt>
      <trkpt lat="46.12275" lon="4.40716">
        <ele>753.4</ele>
        <time>2025-09-28T13:30:48Z</time>
      </trkpt>
      <trkpt lat="46.12273" lon="4.40702">
        <ele>753</ele>
        <time>2025-09-28T13:30:49Z</time>
      </trkpt>
      <trkpt lat="46.12272" lon="4.40688">
        <ele>752.4</ele>
        <time>2025-09-28T13:30:50Z</time>
      </trkpt>
      <trkpt lat="46.12268" lon="4.40674">
        <ele>752.2</ele>
        <time>2025-09-28T13:30:51Z</time>
      </trkpt>
      <trkpt lat="46.12265" lon="4.40661">
        <ele>751.8</ele>
        <time>2025-09-28T13:30:52Z</time>
      </trkpt>
      <trkpt lat="46.12261" lon="4.40648">
        <ele>751.4</ele>
        <time>2025-09-28T13:30:53Z</time>
      </trkpt>
      <trkpt lat="46.12257" lon="4.40635">
        <ele>751</ele>
        <time>2025-09-28T13:30:54Z</time>
      </trkpt>
      <trkpt lat="46.12253" lon="4.40622">
        <ele>750.4</ele>
        <time>2025-09-28T13:30:55Z</time>
      </trkpt>
      <trkpt lat="46.12249" lon="4.4061">
        <ele>749.8</ele>
        <time>2025-09-28T13:30:56Z</time>
      </trkpt>
      <trkpt lat="46.12245" lon="4.40596">
        <ele>749.4</ele>
        <time>2025-09-28T13:30:57Z</time>
      </trkpt>
      <trkpt lat="46.12242" lon="4.40583">
        <ele>748.8</ele>
        <time>2025-09-28T13:30:58Z</time>
      </trkpt>
      <trkpt lat="46.12238" lon="4.40568">
        <ele>748.2</ele>
        <time>2025-09-28T13:30:59Z</time>
      </trkpt>
      <trkpt lat="46.12236" lon="4.40554">
        <ele>747.2</ele>
        <time>2025-09-28T13:31:00Z</time>
      </trkpt>
      <trkpt lat="46.12236" lon="4.40539">
        <ele>747</ele>
        <time>2025-09-28T13:31:01Z</time>
      </trkpt>
      <trkpt lat="46.12238" lon="4.40525">
        <ele>747</ele>
        <time>2025-09-28T13:31:02Z</time>
      </trkpt>
      <trkpt lat="46.12243" lon="4.40511">
        <ele>746.4</ele>
        <time>2025-09-28T13:31:03Z</time>
      </trkpt>
      <trkpt lat="46.12247" lon="4.40497">
        <ele>746.4</ele>
        <time>2025-09-28T13:31:04Z</time>
      </trkpt>
      <trkpt lat="46.12252" lon="4.40484">
        <ele>745.8</ele>
        <time>2025-09-28T13:31:05Z</time>
      </trkpt>
      <trkpt lat="46.12257" lon="4.40471">
        <ele>745.2</ele>
        <time>2025-09-28T13:31:06Z</time>
      </trkpt>
      <trkpt lat="46.12262" lon="4.40457">
        <ele>744.8</ele>
        <time>2025-09-28T13:31:07Z</time>
      </trkpt>
      <trkpt lat="46.12266" lon="4.40442">
        <ele>744.2</ele>
        <time>2025-09-28T13:31:08Z</time>
      </trkpt>
      <trkpt lat="46.1227" lon="4.40428">
        <ele>743.6</ele>
        <time>2025-09-28T13:31:09Z</time>
      </trkpt>
      <trkpt lat="46.12274" lon="4.40413">
        <ele>743</ele>
        <time>2025-09-28T13:31:10Z</time>
      </trkpt>
      <trkpt lat="46.12277" lon="4.40398">
        <ele>742.4</ele>
        <time>2025-09-28T13:31:11Z</time>
      </trkpt>
      <trkpt lat="46.12281" lon="4.40384">
        <ele>741.6</ele>
        <time>2025-09-28T13:31:12Z</time>
      </trkpt>
      <trkpt lat="46.12284" lon="4.40369">
        <ele>741.2</ele>
        <time>2025-09-28T13:31:13Z</time>
      </trkpt>
      <trkpt lat="46.12288" lon="4.40354">
        <ele>741.2</ele>
        <time>2025-09-28T13:31:14Z</time>
      </trkpt>
      <trkpt lat="46.12291" lon="4.4034">
        <ele>740.8</ele>
        <time>2025-09-28T13:31:15Z</time>
      </trkpt>
      <trkpt lat="46.12295" lon="4.40325">
        <ele>740.2</ele>
        <time>2025-09-28T13:31:16Z</time>
      </trkpt>
      <trkpt lat="46.12299" lon="4.40311">
        <ele>739.6</ele>
        <time>2025-09-28T13:31:17Z</time>
      </trkpt>
      <trkpt lat="46.12302" lon="4.40297">
        <ele>739.2</ele>
        <time>2025-09-28T13:31:18Z</time>
      </trkpt>
      <trkpt lat="46.12305" lon="4.40283">
        <ele>738.8</ele>
        <time>2025-09-28T13:31:19Z</time>
      </trkpt>
      <trkpt lat="46.12309" lon="4.40269">
        <ele>738.4</ele>
        <time>2025-09-28T13:31:20Z</time>
      </trkpt>
      <trkpt lat="46.12312" lon="4.40256">
        <ele>738</ele>
        <time>2025-09-28T13:31:21Z</time>
      </trkpt>
      <trkpt lat="46.12315" lon="4.40242">
        <ele>738</ele>
        <time>2025-09-28T13:31:22Z</time>
      </trkpt>
      <trkpt lat="46.1232" lon="4.40229">
        <ele>737.6</ele>
        <time>2025-09-28T13:31:23Z</time>
      </trkpt>
      <trkpt lat="46.12324" lon="4.40215">
        <ele>737.2</ele>
        <time>2025-09-28T13:31:24Z</time>
      </trkpt>
      <trkpt lat="46.12328" lon="4.40202">
        <ele>736.8</ele>
        <time>2025-09-28T13:31:25Z</time>
      </trkpt>
      <trkpt lat="46.12332" lon="4.40188">
        <ele>736.4</ele>
        <time>2025-09-28T13:31:26Z</time>
      </trkpt>
      <trkpt lat="46.12335" lon="4.40174">
        <ele>735.8</ele>
        <time>2025-09-28T13:31:27Z</time>
      </trkpt>
      <trkpt lat="46.1234" lon="4.40162">
        <ele>735</ele>
        <time>2025-09-28T13:31:28Z</time>
      </trkpt>
      <trkpt lat="46.12344" lon="4.40149">
        <ele>734.8</ele>
        <time>2025-09-28T13:31:29Z</time>
      </trkpt>
      <trkpt lat="46.12348" lon="4.40136">
        <ele>734.4</ele>
        <time>2025-09-28T13:31:30Z</time>
      </trkpt>
      <trkpt lat="46.12352" lon="4.40123">
        <ele>734</ele>
        <time>2025-09-28T13:31:31Z</time>
      </trkpt>
      <trkpt lat="46.12355" lon="4.40114">
        <ele>733.4</ele>
        <time>2025-09-28T13:31:32Z</time>
      </trkpt>
      <trkpt lat="46.12358" lon="4.40103">
        <ele>733.2</ele>
        <time>2025-09-28T13:31:33Z</time>
      </trkpt>
      <trkpt lat="46.12358" lon="4.40103">
        <ele>732.8</ele>
        <time>2025-09-28T13:31:34Z</time>
      </trkpt>
      <trkpt lat="46.1236" lon="4.40098">
        <ele>732.8</ele>
        <time>2025-09-28T13:31:35Z</time>
      </trkpt>
      <trkpt lat="46.12361" lon="4.40092">
        <ele>732.6</ele>
        <time>2025-09-28T13:31:36Z</time>
      </trkpt>
      <trkpt lat="46.12363" lon="4.40087">
        <ele>732.6</ele>
        <time>2025-09-28T13:31:37Z</time>
      </trkpt>
      <trkpt lat="46.12364" lon="4.40084">
        <ele>732.4</ele>
        <time>2025-09-28T13:31:38Z</time>
      </trkpt>
      <trkpt lat="46.12363" lon="4.40081">
        <ele>732.4</ele>
        <time>2025-09-28T13:31:39Z</time>
      </trkpt>
      <trkpt lat="46.12362" lon="4.40079">
        <ele>732.4</ele>
        <time>2025-09-28T13:31:40Z</time>
      </trkpt>
      <trkpt lat="46.12361" lon="4.4008">
        <ele>732.4</ele>
        <time>2025-09-28T13:31:41Z</time>
      </trkpt>
      <trkpt lat="46.1236" lon="4.40081">
        <ele>732.4</ele>
        <time>2025-09-28T13:31:42Z</time>
      </trkpt>
      <trkpt lat="46.1236" lon="4.40083">
        <ele>732.2</ele>
        <time>2025-09-28T13:31:43Z</time>
      </trkpt>
      <trkpt lat="46.1236" lon="4.40084">
        <ele>732.2</ele>
        <time>2025-09-28T13:31:44Z</time>
      </trkpt>
      <trkpt lat="46.12359" lon="4.40086">
        <ele>732.2</ele>
        <time>2025-09-28T13:31:45Z</time>
      </trkpt>
      <trkpt lat="46.12359" lon="4.40088">
        <ele>732.2</ele>
        <time>2025-09-28T13:31:46Z</time>
      </trkpt>
      <trkpt lat="46.12359" lon="4.40089">
        <ele>732.2</ele>
        <time>2025-09-28T13:31:47Z</time>
      </trkpt>
      <trkpt lat="46.12359" lon="4.40089">
        <ele>732.2</ele>
        <time>2025-09-28T13:31:48Z</time>
      </trkpt>
      <trkpt lat="46.12358" lon="4.4009">
        <ele>732.2</ele>
        <time>2025-09-28T13:31:49Z</time>
      </trkpt>
      <trkpt lat="46.12358" lon="4.4009">
        <ele>732.2</ele>
        <time>2025-09-28T13:31:50Z</time>
      </trkpt>
      <trkpt lat="46.12358" lon="4.40091">
        <ele>732.2</ele>
        <time>2025-09-28T13:31:51Z</time>
      </trkpt>
      <trkpt lat="46.12358" lon="4.40091">
        <ele>732.2</ele>
        <time>2025-09-28T13:31:57Z</time>
      </trkpt>
      <trkpt lat="46.12358" lon="4.40091">
        <ele>732.2</ele>
        <time>2025-09-28T13:31:58Z</time>
      </trkpt>
      <trkpt lat="46.12358" lon="4.4009">
        <ele>732.2</ele>
        <time>2025-09-28T13:31:59Z</time>
      </trkpt>
      <trkpt lat="46.1236" lon="4.40089">
        <ele>732.8</ele>
        <time>2025-09-28T13:33:54Z</time>
      </trkpt>
      <trkpt lat="46.12361" lon="4.40089">
        <ele>732.8</ele>
        <time>2025-09-28T13:33:55Z</time>
      </trkpt>
      <trkpt lat="46.1236" lon="4.40088">
        <ele>732.6</ele>
        <time>2025-09-28T13:33:56Z</time>
      </trkpt>
      <trkpt lat="46.1236" lon="4.40087">
        <ele>732.6</ele>
        <time>2025-09-28T13:33:57Z</time>
      </trkpt>
      <trkpt lat="46.12361" lon="4.40081">
        <ele>732.2</ele>
        <time>2025-09-28T13:34:07Z</time>
      </trkpt>
      <trkpt lat="46.12363" lon="4.40079">
        <ele>732.2</ele>
        <time>2025-09-28T13:34:08Z</time>
      </trkpt>
      <trkpt lat="46.12365" lon="4.40076">
        <ele>731.8</ele>
        <time>2025-09-28T13:34:09Z</time>
      </trkpt>
      <trkpt lat="46.12367" lon="4.40072">
        <ele>731.2</ele>
        <time>2025-09-28T13:34:10Z</time>
      </trkpt>
      <trkpt lat="46.1237" lon="4.40067">
        <ele>731.4</ele>
        <time>2025-09-28T13:34:11Z</time>
      </trkpt>
      <trkpt lat="46.12372" lon="4.40061">
        <ele>731.4</ele>
        <time>2025-09-28T13:34:12Z</time>
      </trkpt>
      <trkpt lat="46.12373" lon="4.40055">
        <ele>731</ele>
        <time>2025-09-28T13:34:13Z</time>
      </trkpt>
      <trkpt lat="46.12375" lon="4.40049">
        <ele>731</ele>
        <time>2025-09-28T13:34:14Z</time>
      </trkpt>
      <trkpt lat="46.12377" lon="4.40042">
        <ele>730.6</ele>
        <time>2025-09-28T13:34:15Z</time>
      </trkpt>
      <trkpt lat="46.1238" lon="4.40035">
        <ele>730.6</ele>
        <time>2025-09-28T13:34:16Z</time>
      </trkpt>
      <trkpt lat="46.12382" lon="4.40028">
        <ele>730</ele>
        <time>2025-09-28T13:34:17Z</time>
      </trkpt>
      <trkpt lat="46.12385" lon="4.40021">
        <ele>729.8</ele>
        <time>2025-09-28T13:34:18Z</time>
      </trkpt>
      <trkpt lat="46.12388" lon="4.40014">
        <ele>729.6</ele>
        <time>2025-09-28T13:34:19Z</time>
      </trkpt>
      <trkpt lat="46.12391" lon="4.40006">
        <ele>729</ele>
        <time>2025-09-28T13:34:20Z</time>
      </trkpt>
      <trkpt lat="46.12394" lon="4.39998">
        <ele>729</ele>
        <time>2025-09-28T13:34:21Z</time>
      </trkpt>
      <trkpt lat="46.12398" lon="4.39991">
        <ele>728.8</ele>
        <time>2025-09-28T13:34:22Z</time>
      </trkpt>
      <trkpt lat="46.12403" lon="4.39983">
        <ele>728.4</ele>
        <time>2025-09-28T13:34:23Z</time>
      </trkpt>
      <trkpt lat="46.12409" lon="4.39977">
        <ele>728</ele>
        <time>2025-09-28T13:34:24Z</time>
      </trkpt>
      <trkpt lat="46.12415" lon="4.39974">
        <ele>727.6</ele>
        <time>2025-09-28T13:34:25Z</time>
      </trkpt>
      <trkpt lat="46.12423" lon="4.39972">
        <ele>727</ele>
        <time>2025-09-28T13:34:26Z</time>
      </trkpt>
      <trkpt lat="46.12431" lon="4.39972">
        <ele>726.6</ele>
        <time>2025-09-28T13:34:27Z</time>
      </trkpt>
      <trkpt lat="46.12439" lon="4.39974">
        <ele>726</ele>
        <time>2025-09-28T13:34:28Z</time>
      </trkpt>
      <trkpt lat="46.12447" lon="4.39978">
        <ele>725.6</ele>
        <time>2025-09-28T13:34:29Z</time>
      </trkpt>
      <trkpt lat="46.12454" lon="4.39984">
        <ele>725</ele>
        <time>2025-09-28T13:34:30Z</time>
      </trkpt>
      <trkpt lat="46.12462" lon="4.3999">
        <ele>724.6</ele>
        <time>2025-09-28T13:34:31Z</time>
      </trkpt>
      <trkpt lat="46.12469" lon="4.39997">
        <ele>724.2</ele>
        <time>2025-09-28T13:34:32Z</time>
      </trkpt>
      <trkpt lat="46.12476" lon="4.40005">
        <ele>723.6</ele>
        <time>2025-09-28T13:34:33Z</time>
      </trkpt>
      <trkpt lat="46.12484" lon="4.40012">
        <ele>723.2</ele>
        <time>2025-09-28T13:34:34Z</time>
      </trkpt>
      <trkpt lat="46.12492" lon="4.40019">
        <ele>722.8</ele>
        <time>2025-09-28T13:34:35Z</time>
      </trkpt>
      <trkpt lat="46.12501" lon="4.40023">
        <ele>722.4</ele>
        <time>2025-09-28T13:34:36Z</time>
      </trkpt>
      <trkpt lat="46.1251" lon="4.40025">
        <ele>721.6</ele>
        <time>2025-09-28T13:34:37Z</time>
      </trkpt>
      <trkpt lat="46.12519" lon="4.40027">
        <ele>721</ele>
        <time>2025-09-28T13:34:38Z</time>
      </trkpt>
      <trkpt lat="46.12529" lon="4.40028">
        <ele>720.4</ele>
        <time>2025-09-28T13:34:39Z</time>
      </trkpt>
      <trkpt lat="46.12539" lon="4.40029">
        <ele>719.8</ele>
        <time>2025-09-28T13:34:40Z</time>
      </trkpt>
      <trkpt lat="46.12549" lon="4.4003">
        <ele>719.2</ele>
        <time>2025-09-28T13:34:41Z</time>
      </trkpt>
      <trkpt lat="46.12559" lon="4.40031">
        <ele>718.6</ele>
        <time>2025-09-28T13:34:42Z</time>
      </trkpt>
      <trkpt lat="46.12568" lon="4.40033">
        <ele>718</ele>
        <time>2025-09-28T13:34:43Z</time>
      </trkpt>
      <trkpt lat="46.12576" lon="4.40037">
        <ele>717.4</ele>
        <time>2025-09-28T13:34:44Z</time>
      </trkpt>
      <trkpt lat="46.12585" lon="4.40042">
        <ele>717</ele>
        <time>2025-09-28T13:34:45Z</time>
      </trkpt>
      <trkpt lat="46.12592" lon="4.40052">
        <ele>716.4</ele>
        <time>2025-09-28T13:34:46Z</time>
      </trkpt>
      <trkpt lat="46.12597" lon="4.40064">
        <ele>715.8</ele>
        <time>2025-09-28T13:34:47Z</time>
      </trkpt>
      <trkpt lat="46.12602" lon="4.40075">
        <ele>715.2</ele>
        <time>2025-09-28T13:34:48Z</time>
      </trkpt>
      <trkpt lat="46.12609" lon="4.40085">
        <ele>714.6</ele>
        <time>2025-09-28T13:34:49Z</time>
      </trkpt>
      <trkpt lat="46.12618" lon="4.40092">
        <ele>714</ele>
        <time>2025-09-28T13:34:50Z</time>
      </trkpt>
      <trkpt lat="46.12627" lon="4.40095">
        <ele>713.2</ele>
        <time>2025-09-28T13:34:51Z</time>
      </trkpt>
      <trkpt lat="46.12636" lon="4.40095">
        <ele>712.6</ele>
        <time>2025-09-28T13:34:52Z</time>
      </trkpt>
      <trkpt lat="46.12645" lon="4.40093">
        <ele>712.2</ele>
        <time>2025-09-28T13:34:53Z</time>
      </trkpt>
      <trkpt lat="46.12654" lon="4.4009">
        <ele>711.4</ele>
        <time>2025-09-28T13:34:54Z</time>
      </trkpt>
      <trkpt lat="46.12662" lon="4.40088">
        <ele>710.8</ele>
        <time>2025-09-28T13:34:55Z</time>
      </trkpt>
      <trkpt lat="46.1267" lon="4.40088">
        <ele>710.2</ele>
        <time>2025-09-28T13:34:56Z</time>
      </trkpt>
      <trkpt lat="46.12678" lon="4.40087">
        <ele>709.8</ele>
        <time>2025-09-28T13:34:57Z</time>
      </trkpt>
      <trkpt lat="46.12686" lon="4.40088">
        <ele>709.2</ele>
        <time>2025-09-28T13:34:58Z</time>
      </trkpt>
      <trkpt lat="46.12694" lon="4.40088">
        <ele>709</ele>
        <time>2025-09-28T13:34:59Z</time>
      </trkpt>
      <trkpt lat="46.12701" lon="4.40092">
        <ele>708.4</ele>
        <time>2025-09-28T13:35:00Z</time>
      </trkpt>
      <trkpt lat="46.12709" lon="4.40093">
        <ele>708</ele>
        <time>2025-09-28T13:35:01Z</time>
      </trkpt>
      <trkpt lat="46.12717" lon="4.40095">
        <ele>707.8</ele>
        <time>2025-09-28T13:35:02Z</time>
      </trkpt>
      <trkpt lat="46.12725" lon="4.40097">
        <ele>707.2</ele>
        <time>2025-09-28T13:35:03Z</time>
      </trkpt>
      <trkpt lat="46.12733" lon="4.40098">
        <ele>706.4</ele>
        <time>2025-09-28T13:35:04Z</time>
      </trkpt>
      <trkpt lat="46.1274" lon="4.40101">
        <ele>705.8</ele>
        <time>2025-09-28T13:35:05Z</time>
      </trkpt>
      <trkpt lat="46.12748" lon="4.40104">
        <ele>705.4</ele>
        <time>2025-09-28T13:35:06Z</time>
      </trkpt>
      <trkpt lat="46.12754" lon="4.40106">
        <ele>705</ele>
        <time>2025-09-28T13:35:07Z</time>
      </trkpt>
      <trkpt lat="46.1276" lon="4.40107">
        <ele>704.8</ele>
        <time>2025-09-28T13:35:08Z</time>
      </trkpt>
      <trkpt lat="46.12765" lon="4.40105">
        <ele>704.4</ele>
        <time>2025-09-28T13:35:09Z</time>
      </trkpt>
      <trkpt lat="46.1277" lon="4.40101">
        <ele>704.4</ele>
        <time>2025-09-28T13:35:10Z</time>
      </trkpt>
      <trkpt lat="46.12775" lon="4.40096">
        <ele>704</ele>
        <time>2025-09-28T13:35:11Z</time>
      </trkpt>
      <trkpt lat="46.1278" lon="4.40095">
        <ele>704</ele>
        <time>2025-09-28T13:35:12Z</time>
      </trkpt>
      <trkpt lat="46.12785" lon="4.40093">
        <ele>704</ele>
        <time>2025-09-28T13:35:13Z</time>
      </trkpt>
      <trkpt lat="46.1279" lon="4.4009">
        <ele>704</ele>
        <time>2025-09-28T13:35:14Z</time>
      </trkpt>
      <trkpt lat="46.12795" lon="4.40087">
        <ele>704</ele>
        <time>2025-09-28T13:35:15Z</time>
      </trkpt>
      <trkpt lat="46.12799" lon="4.40084">
        <ele>704</ele>
        <time>2025-09-28T13:35:16Z</time>
      </trkpt>
      <trkpt lat="46.12804" lon="4.4008">
        <ele>704</ele>
        <time>2025-09-28T13:35:17Z</time>
      </trkpt>
      <trkpt lat="46.12808" lon="4.40077">
        <ele>704</ele>
        <time>2025-09-28T13:35:18Z</time>
      </trkpt>
      <trkpt lat="46.12811" lon="4.40073">
        <ele>704</ele>
        <time>2025-09-28T13:35:19Z</time>
      </trkpt>
      <trkpt lat="46.12815" lon="4.40068">
        <ele>704.2</ele>
        <time>2025-09-28T13:35:20Z</time>
      </trkpt>
      <trkpt lat="46.12819" lon="4.40064">
        <ele>704.2</ele>
        <time>2025-09-28T13:35:21Z</time>
      </trkpt>
      <trkpt lat="46.12821" lon="4.4006">
        <ele>704.6</ele>
        <time>2025-09-28T13:35:22Z</time>
      </trkpt>
      <trkpt lat="46.12824" lon="4.40055">
        <ele>704.6</ele>
        <time>2025-09-28T13:35:23Z</time>
      </trkpt>
      <trkpt lat="46.12828" lon="4.40052">
        <ele>704.8</ele>
        <time>2025-09-28T13:35:24Z</time>
      </trkpt>
      <trkpt lat="46.1283" lon="4.40047">
        <ele>705</ele>
        <time>2025-09-28T13:35:25Z</time>
      </trkpt>
      <trkpt lat="46.12834" lon="4.40044">
        <ele>705.2</ele>
        <time>2025-09-28T13:35:26Z</time>
      </trkpt>
      <trkpt lat="46.12836" lon="4.4004">
        <ele>705.2</ele>
        <time>2025-09-28T13:35:27Z</time>
      </trkpt>
      <trkpt lat="46.12839" lon="4.40035">
        <ele>705.6</ele>
        <time>2025-09-28T13:35:28Z</time>
      </trkpt>
      <trkpt lat="46.12842" lon="4.40032">
        <ele>706</ele>
        <time>2025-09-28T13:35:29Z</time>
      </trkpt>
      <trkpt lat="46.12844" lon="4.40027">
        <ele>706</ele>
        <time>2025-09-28T13:35:30Z</time>
      </trkpt>
      <trkpt lat="46.12846" lon="4.40023">
        <ele>706.4</ele>
        <time>2025-09-28T13:35:31Z</time>
      </trkpt>
      <trkpt lat="46.12848" lon="4.40019">
        <ele>706.8</ele>
        <time>2025-09-28T13:35:32Z</time>
      </trkpt>
      <trkpt lat="46.1285" lon="4.40015">
        <ele>706.8</ele>
        <time>2025-09-28T13:35:33Z</time>
      </trkpt>
      <trkpt lat="46.12852" lon="4.40012">
        <ele>707.2</ele>
        <time>2025-09-28T13:35:34Z</time>
      </trkpt>
      <trkpt lat="46.12854" lon="4.40008">
        <ele>707.2</ele>
        <time>2025-09-28T13:35:35Z</time>
      </trkpt>
      <trkpt lat="46.12856" lon="4.40005">
        <ele>707.6</ele>
        <time>2025-09-28T13:35:36Z</time>
      </trkpt>
      <trkpt lat="46.12858" lon="4.40002">
        <ele>707.6</ele>
        <time>2025-09-28T13:35:37Z</time>
      </trkpt>
      <trkpt lat="46.1286" lon="4.39998">
        <ele>707.8</ele>
        <time>2025-09-28T13:35:38Z</time>
      </trkpt>
      <trkpt lat="46.12862" lon="4.39995">
        <ele>707.8</ele>
        <time>2025-09-28T13:35:39Z</time>
      </trkpt>
      <trkpt lat="46.12864" lon="4.39992">
        <ele>708.2</ele>
        <time>2025-09-28T13:35:40Z</time>
      </trkpt>
      <trkpt lat="46.12866" lon="4.39988">
        <ele>708.4</ele>
        <time>2025-09-28T13:35:41Z</time>
      </trkpt>
      <trkpt lat="46.12868" lon="4.39985">
        <ele>708.4</ele>
        <time>2025-09-28T13:35:42Z</time>
      </trkpt>
      <trkpt lat="46.1287" lon="4.39981">
        <ele>708.8</ele>
        <time>2025-09-28T13:35:43Z</time>
      </trkpt>
      <trkpt lat="46.12871" lon="4.39978">
        <ele>709</ele>
        <time>2025-09-28T13:35:44Z</time>
      </trkpt>
      <trkpt lat="46.12872" lon="4.39974">
        <ele>709.2</ele>
        <time>2025-09-28T13:35:45Z</time>
      </trkpt>
      <trkpt lat="46.12874" lon="4.3997">
        <ele>709.4</ele>
        <time>2025-09-28T13:35:46Z</time>
      </trkpt>
      <trkpt lat="46.12875" lon="4.39965">
        <ele>709.4</ele>
        <time>2025-09-28T13:35:47Z</time>
      </trkpt>
      <trkpt lat="46.12877" lon="4.39961">
        <ele>709.8</ele>
        <time>2025-09-28T13:35:48Z</time>
      </trkpt>
      <trkpt lat="46.12878" lon="4.39957">
        <ele>709.8</ele>
        <time>2025-09-28T13:35:49Z</time>
      </trkpt>
      <trkpt lat="46.1288" lon="4.39953">
        <ele>709.8</ele>
        <time>2025-09-28T13:35:50Z</time>
      </trkpt>
      <trkpt lat="46.12882" lon="4.39949">
        <ele>710.2</ele>
        <time>2025-09-28T13:35:51Z</time>
      </trkpt>
      <trkpt lat="46.12883" lon="4.39945">
        <ele>710.2</ele>
        <time>2025-09-28T13:35:52Z</time>
      </trkpt>
      <trkpt lat="46.12885" lon="4.39941">
        <ele>710.4</ele>
        <time>2025-09-28T13:35:53Z</time>
      </trkpt>
      <trkpt lat="46.12886" lon="4.39938">
        <ele>710.4</ele>
        <time>2025-09-28T13:35:54Z</time>
      </trkpt>
      <trkpt lat="46.12887" lon="4.39935">
        <ele>710.6</ele>
        <time>2025-09-28T13:35:55Z</time>
      </trkpt>
      <trkpt lat="46.12889" lon="4.39932">
        <ele>710.6</ele>
        <time>2025-09-28T13:35:56Z</time>
      </trkpt>
      <trkpt lat="46.1289" lon="4.39928">
        <ele>711</ele>
        <time>2025-09-28T13:35:57Z</time>
      </trkpt>
      <trkpt lat="46.12892" lon="4.39924">
        <ele>711</ele>
        <time>2025-09-28T13:35:58Z</time>
      </trkpt>
      <trkpt lat="46.12893" lon="4.39921">
        <ele>711.2</ele>
        <time>2025-09-28T13:35:59Z</time>
      </trkpt>
      <trkpt lat="46.12895" lon="4.39918">
        <ele>711.2</ele>
        <time>2025-09-28T13:36:00Z</time>
      </trkpt>
      <trkpt lat="46.12896" lon="4.39914">
        <ele>711.2</ele>
        <time>2025-09-28T13:36:01Z</time>
      </trkpt>
      <trkpt lat="46.12898" lon="4.3991">
        <ele>711.2</ele>
        <time>2025-09-28T13:36:02Z</time>
      </trkpt>
      <trkpt lat="46.12899" lon="4.39907">
        <ele>711.2</ele>
        <time>2025-09-28T13:36:03Z</time>
      </trkpt>
      <trkpt lat="46.12901" lon="4.39904">
        <ele>711.6</ele>
        <time>2025-09-28T13:36:04Z</time>
      </trkpt>
      <trkpt lat="46.12902" lon="4.39901">
        <ele>711.6</ele>
        <time>2025-09-28T13:36:05Z</time>
      </trkpt>
      <trkpt lat="46.12904" lon="4.39898">
        <ele>711.8</ele>
        <time>2025-09-28T13:36:06Z</time>
      </trkpt>
      <trkpt lat="46.12905" lon="4.39895">
        <ele>711.8</ele>
        <time>2025-09-28T13:36:07Z</time>
      </trkpt>
      <trkpt lat="46.12906" lon="4.39893">
        <ele>711.8</ele>
        <time>2025-09-28T13:36:08Z</time>
      </trkpt>
      <trkpt lat="46.12907" lon="4.39892">
        <ele>712.2</ele>
        <time>2025-09-28T13:36:09Z</time>
      </trkpt>
      <trkpt lat="46.12907" lon="4.3989">
        <ele>712.2</ele>
        <time>2025-09-28T13:36:10Z</time>
      </trkpt>
      <trkpt lat="46.12908" lon="4.39889">
        <ele>712.4</ele>
        <time>2025-09-28T13:36:11Z</time>
      </trkpt>
      <trkpt lat="46.12909" lon="4.39887">
        <ele>712.4</ele>
        <time>2025-09-28T13:36:12Z</time>
      </trkpt>
      <trkpt lat="46.1291" lon="4.39886">
        <ele>712.4</ele>
        <time>2025-09-28T13:36:13Z</time>
      </trkpt>
      <trkpt lat="46.12911" lon="4.39884">
        <ele>712.4</ele>
        <time>2025-09-28T13:36:14Z</time>
      </trkpt>
      <trkpt lat="46.12912" lon="4.39882">
        <ele>712.4</ele>
        <time>2025-09-28T13:36:15Z</time>
      </trkpt>
      <trkpt lat="46.12913" lon="4.39879">
        <ele>712.4</ele>
        <time>2025-09-28T13:36:16Z</time>
      </trkpt>
      <trkpt lat="46.12914" lon="4.39876">
        <ele>712.8</ele>
        <time>2025-09-28T13:36:17Z</time>
      </trkpt>
      <trkpt lat="46.12915" lon="4.39873">
        <ele>712.8</ele>
        <time>2025-09-28T13:36:18Z</time>
      </trkpt>
      <trkpt lat="46.12916" lon="4.3987">
        <ele>712.8</ele>
        <time>2025-09-28T13:36:19Z</time>
      </trkpt>
      <trkpt lat="46.12916" lon="4.39868">
        <ele>712.8</ele>
        <time>2025-09-28T13:36:20Z</time>
      </trkpt>
      <trkpt lat="46.12917" lon="4.39865">
        <ele>712.8</ele>
        <time>2025-09-28T13:36:21Z</time>
      </trkpt>
      <trkpt lat="46.12918" lon="4.39861">
        <ele>712.8</ele>
        <time>2025-09-28T13:36:22Z</time>
      </trkpt>
      <trkpt lat="46.12918" lon="4.39858">
        <ele>713</ele>
        <time>2025-09-28T13:36:23Z</time>
      </trkpt>
      <trkpt lat="46.12918" lon="4.39855">
        <ele>713</ele>
        <time>2025-09-28T13:36:24Z</time>
      </trkpt>
      <trkpt lat="46.12917" lon="4.39851">
        <ele>713</ele>
        <time>2025-09-28T13:36:25Z</time>
      </trkpt>
      <trkpt lat="46.12916" lon="4.39848">
        <ele>713</ele>
        <time>2025-09-28T13:36:26Z</time>
      </trkpt>
      <trkpt lat="46.12914" lon="4.39844">
        <ele>713</ele>
        <time>2025-09-28T13:36:27Z</time>
      </trkpt>
      <trkpt lat="46.12913" lon="4.39841">
        <ele>713.4</ele>
        <time>2025-09-28T13:36:28Z</time>
      </trkpt>
      <trkpt lat="46.12912" lon="4.39837">
        <ele>713.4</ele>
        <time>2025-09-28T13:36:29Z</time>
      </trkpt>
      <trkpt lat="46.12911" lon="4.39833">
        <ele>713.4</ele>
        <time>2025-09-28T13:36:30Z</time>
      </trkpt>
      <trkpt lat="46.1291" lon="4.3983">
        <ele>713.4</ele>
        <time>2025-09-28T13:36:31Z</time>
      </trkpt>
      <trkpt lat="46.12909" lon="4.39828">
        <ele>713.4</ele>
        <time>2025-09-28T13:36:32Z</time>
      </trkpt>
      <trkpt lat="46.12908" lon="4.39826">
        <ele>713.6</ele>
        <time>2025-09-28T13:36:33Z</time>
      </trkpt>
      <trkpt lat="46.12908" lon="4.39824">
        <ele>713.6</ele>
        <time>2025-09-28T13:36:34Z</time>
      </trkpt>
      <trkpt lat="46.12907" lon="4.39822">
        <ele>713.8</ele>
        <time>2025-09-28T13:36:35Z</time>
      </trkpt>
      <trkpt lat="46.12907" lon="4.39821">
        <ele>713.8</ele>
        <time>2025-09-28T13:36:36Z</time>
      </trkpt>
      <trkpt lat="46.12906" lon="4.3982">
        <ele>713.8</ele>
        <time>2025-09-28T13:36:37Z</time>
      </trkpt>
      <trkpt lat="46.12906" lon="4.39818">
        <ele>714</ele>
        <time>2025-09-28T13:36:38Z</time>
      </trkpt>
      <trkpt lat="46.12905" lon="4.39816">
        <ele>714</ele>
        <time>2025-09-28T13:36:39Z</time>
      </trkpt>
      <trkpt lat="46.12905" lon="4.39815">
        <ele>714</ele>
        <time>2025-09-28T13:36:40Z</time>
      </trkpt>
      <trkpt lat="46.12904" lon="4.39814">
        <ele>714</ele>
        <time>2025-09-28T13:36:41Z</time>
      </trkpt>
      <trkpt lat="46.12903" lon="4.39812">
        <ele>714</ele>
        <time>2025-09-28T13:36:42Z</time>
      </trkpt>
      <trkpt lat="46.12903" lon="4.3981">
        <ele>714</ele>
        <time>2025-09-28T13:36:43Z</time>
      </trkpt>
      <trkpt lat="46.12901" lon="4.39808">
        <ele>714.2</ele>
        <time>2025-09-28T13:36:44Z</time>
      </trkpt>
      <trkpt lat="46.129" lon="4.39806">
        <ele>714.2</ele>
        <time>2025-09-28T13:36:45Z</time>
      </trkpt>
      <trkpt lat="46.12899" lon="4.39804">
        <ele>714.2</ele>
        <time>2025-09-28T13:36:46Z</time>
      </trkpt>
      <trkpt lat="46.12898" lon="4.39802">
        <ele>714.2</ele>
        <time>2025-09-28T13:36:47Z</time>
      </trkpt>
      <trkpt lat="46.12896" lon="4.398">
        <ele>714.2</ele>
        <time>2025-09-28T13:36:48Z</time>
      </trkpt>
      <trkpt lat="46.12894" lon="4.39798">
        <ele>714.2</ele>
        <time>2025-09-28T13:36:49Z</time>
      </trkpt>
      <trkpt lat="46.12893" lon="4.39795">
        <ele>714.4</ele>
        <time>2025-09-28T13:36:50Z</time>
      </trkpt>
      <trkpt lat="46.12891" lon="4.39793">
        <ele>714.4</ele>
        <time>2025-09-28T13:36:51Z</time>
      </trkpt>
      <trkpt lat="46.1289" lon="4.39791">
        <ele>714.8</ele>
        <time>2025-09-28T13:36:52Z</time>
      </trkpt>
      <trkpt lat="46.12888" lon="4.39789">
        <ele>714.8</ele>
        <time>2025-09-28T13:36:53Z</time>
      </trkpt>
      <trkpt lat="46.12887" lon="4.39786">
        <ele>715.2</ele>
        <time>2025-09-28T13:36:54Z</time>
      </trkpt>
      <trkpt lat="46.12885" lon="4.39784">
        <ele>715.2</ele>
        <time>2025-09-28T13:36:55Z</time>
      </trkpt>
      <trkpt lat="46.12884" lon="4.39782">
        <ele>715.4</ele>
        <time>2025-09-28T13:36:56Z</time>
      </trkpt>
      <trkpt lat="46.12882" lon="4.3978">
        <ele>715.4</ele>
        <time>2025-09-28T13:36:57Z</time>
      </trkpt>
      <trkpt lat="46.1288" lon="4.39777">
        <ele>715.4</ele>
        <time>2025-09-28T13:36:58Z</time>
      </trkpt>
      <trkpt lat="46.12879" lon="4.39774">
        <ele>715.4</ele>
        <time>2025-09-28T13:36:59Z</time>
      </trkpt>
      <trkpt lat="46.12877" lon="4.39772">
        <ele>715.6</ele>
        <time>2025-09-28T13:37:00Z</time>
      </trkpt>
      <trkpt lat="46.12875" lon="4.39769">
        <ele>715.6</ele>
        <time>2025-09-28T13:37:01Z</time>
      </trkpt>
      <trkpt lat="46.12874" lon="4.39766">
        <ele>715.6</ele>
        <time>2025-09-28T13:37:02Z</time>
      </trkpt>
      <trkpt lat="46.12872" lon="4.39763">
        <ele>715.6</ele>
        <time>2025-09-28T13:37:03Z</time>
      </trkpt>
      <trkpt lat="46.12871" lon="4.39759">
        <ele>715.2</ele>
        <time>2025-09-28T13:37:04Z</time>
      </trkpt>
      <trkpt lat="46.12869" lon="4.39756">
        <ele>715.2</ele>
        <time>2025-09-28T13:37:05Z</time>
      </trkpt>
      <trkpt lat="46.12868" lon="4.39752">
        <ele>715.8</ele>
        <time>2025-09-28T13:37:06Z</time>
      </trkpt>
      <trkpt lat="46.12868" lon="4.39749">
        <ele>715.8</ele>
        <time>2025-09-28T13:37:07Z</time>
      </trkpt>
      <trkpt lat="46.12868" lon="4.39745">
        <ele>716.2</ele>
        <time>2025-09-28T13:37:08Z</time>
      </trkpt>
      <trkpt lat="46.12868" lon="4.39742">
        <ele>716.2</ele>
        <time>2025-09-28T13:37:09Z</time>
      </trkpt>
      <trkpt lat="46.12869" lon="4.39738">
        <ele>716.6</ele>
        <time>2025-09-28T13:37:10Z</time>
      </trkpt>
      <trkpt lat="46.1287" lon="4.39735">
        <ele>716.8</ele>
        <time>2025-09-28T13:37:11Z</time>
      </trkpt>
      <trkpt lat="46.12871" lon="4.39732">
        <ele>717</ele>
        <time>2025-09-28T13:37:12Z</time>
      </trkpt>
      <trkpt lat="46.12872" lon="4.3973">
        <ele>717</ele>
        <time>2025-09-28T13:37:13Z</time>
      </trkpt>
      <trkpt lat="46.12873" lon="4.39727">
        <ele>717</ele>
        <time>2025-09-28T13:37:14Z</time>
      </trkpt>
      <trkpt lat="46.12874" lon="4.39724">
        <ele>717.2</ele>
        <time>2025-09-28T13:37:15Z</time>
      </trkpt>
      <trkpt lat="46.12874" lon="4.39721">
        <ele>717.2</ele>
        <time>2025-09-28T13:37:16Z</time>
      </trkpt>
      <trkpt lat="46.12873" lon="4.39718">
        <ele>717.2</ele>
        <time>2025-09-28T13:37:17Z</time>
      </trkpt>
      <trkpt lat="46.12871" lon="4.39716">
        <ele>717.2</ele>
        <time>2025-09-28T13:37:18Z</time>
      </trkpt>
      <trkpt lat="46.12869" lon="4.39713">
        <ele>717.2</ele>
        <time>2025-09-28T13:37:19Z</time>
      </trkpt>
      <trkpt lat="46.12866" lon="4.3971">
        <ele>716.8</ele>
        <time>2025-09-28T13:37:20Z</time>
      </trkpt>
      <trkpt lat="46.12863" lon="4.39707">
        <ele>716.8</ele>
        <time>2025-09-28T13:37:21Z</time>
      </trkpt>
      <trkpt lat="46.1286" lon="4.39703">
        <ele>716.6</ele>
        <time>2025-09-28T13:37:22Z</time>
      </trkpt>
      <trkpt lat="46.12856" lon="4.397">
        <ele>716.4</ele>
        <time>2025-09-28T13:37:23Z</time>
      </trkpt>
      <trkpt lat="46.12854" lon="4.39698">
        <ele>716.4</ele>
        <time>2025-09-28T13:37:24Z</time>
      </trkpt>
      <trkpt lat="46.12852" lon="4.39697">
        <ele>716.2</ele>
        <time>2025-09-28T13:37:25Z</time>
      </trkpt>
      <trkpt lat="46.12852" lon="4.39696">
        <ele>716.2</ele>
        <time>2025-09-28T13:37:26Z</time>
      </trkpt>
      <trkpt lat="46.12852" lon="4.39696">
        <ele>716.2</ele>
        <time>2025-09-28T13:37:27Z</time>
      </trkpt>
      <trkpt lat="46.12851" lon="4.39695">
        <ele>716.2</ele>
        <time>2025-09-28T13:37:28Z</time>
      </trkpt>
      <trkpt lat="46.12851" lon="4.39695">
        <ele>716.2</ele>
        <time>2025-09-28T13:37:29Z</time>
      </trkpt>
      <trkpt lat="46.12851" lon="4.39696">
        <ele>716.2</ele>
        <time>2025-09-28T13:37:30Z</time>
      </trkpt>
      <trkpt lat="46.12848" lon="4.39695">
        <ele>715.8</ele>
        <time>2025-09-28T13:37:35Z</time>
      </trkpt>
      <trkpt lat="46.12847" lon="4.39694">
        <ele>715.6</ele>
        <time>2025-09-28T13:37:36Z</time>
      </trkpt>
      <trkpt lat="46.12844" lon="4.39693">
        <ele>715.2</ele>
        <time>2025-09-28T13:37:37Z</time>
      </trkpt>
      <trkpt lat="46.12836" lon="4.39688">
        <ele>714.8</ele>
        <time>2025-09-28T13:37:38Z</time>
      </trkpt>
      <trkpt lat="46.12831" lon="4.39684">
        <ele>714.6</ele>
        <time>2025-09-28T13:37:39Z</time>
      </trkpt>
      <trkpt lat="46.12828" lon="4.3968">
        <ele>714.2</ele>
        <time>2025-09-28T13:37:40Z</time>
      </trkpt>
      <trkpt lat="46.12825" lon="4.39676">
        <ele>713.8</ele>
        <time>2025-09-28T13:37:41Z</time>
      </trkpt>
      <trkpt lat="46.12821" lon="4.39673">
        <ele>713.6</ele>
        <time>2025-09-28T13:37:42Z</time>
      </trkpt>
      <trkpt lat="46.12818" lon="4.39669">
        <ele>713.2</ele>
        <time>2025-09-28T13:37:43Z</time>
      </trkpt>
      <trkpt lat="46.12816" lon="4.39663">
        <ele>713.2</ele>
        <time>2025-09-28T13:37:44Z</time>
      </trkpt>
      <trkpt lat="46.12817" lon="4.39656">
        <ele>712.8</ele>
        <time>2025-09-28T13:37:45Z</time>
      </trkpt>
      <trkpt lat="46.12818" lon="4.39651">
        <ele>712.6</ele>
        <time>2025-09-28T13:37:46Z</time>
      </trkpt>
      <trkpt lat="46.1282" lon="4.39645">
        <ele>712.4</ele>
        <time>2025-09-28T13:37:47Z</time>
      </trkpt>
      <trkpt lat="46.12822" lon="4.3964">
        <ele>712</ele>
        <time>2025-09-28T13:37:48Z</time>
      </trkpt>
      <trkpt lat="46.12823" lon="4.39634">
        <ele>711.8</ele>
        <time>2025-09-28T13:37:49Z</time>
      </trkpt>
      <trkpt lat="46.12824" lon="4.39628">
        <ele>711.8</ele>
        <time>2025-09-28T13:37:50Z</time>
      </trkpt>
      <trkpt lat="46.12825" lon="4.39623">
        <ele>711.4</ele>
        <time>2025-09-28T13:37:51Z</time>
      </trkpt>
      <trkpt lat="46.12827" lon="4.39618">
        <ele>711.4</ele>
        <time>2025-09-28T13:37:52Z</time>
      </trkpt>
      <trkpt lat="46.12828" lon="4.39613">
        <ele>711.4</ele>
        <time>2025-09-28T13:37:53Z</time>
      </trkpt>
      <trkpt lat="46.1283" lon="4.39609">
        <ele>711.6</ele>
        <time>2025-09-28T13:37:54Z</time>
      </trkpt>
    </trkseg>
  </trk>
</gpx>